<?xml version='1.0' encoding='UTF-8'?><gpx version="1.1" creator="JPX - https://github.com/jenetics/jpx" xmlns="http://www.topografix.com/GPX/1/1"><trk><trkseg><trkpt lat="45.36631318939883" lon="11.903347862352224"><ele>7.800000000000001</ele><time>2026-04-25T12:12:28.971Z</time></trkpt><trkpt lat="45.36634189720239" lon="11.903454222881464"><ele>7.6000000000000005</ele><time>2026-04-25T12:12:46.971Z</time></trkpt><trkpt lat="45.366342601700126" lon="11.903559998145049"><ele>7.3999999999999995</ele><time>2026-04-25T12:12:48.971Z</time></trkpt><trkpt lat="45.36630219448457" lon="11.903723538937967"><ele>7.199999999999999</ele><time>2026-04-25T12:12:50.971Z</time></trkpt><trkpt lat="45.36627877877332" lon="11.903851563267658"><ele>7.0</ele><time>2026-04-25T12:12:51.971Z</time></trkpt><trkpt lat="45.366202442986676" lon="11.90406778822433"><ele>7.0</ele><time>2026-04-25T12:12:53.971Z</time></trkpt><trkpt lat="45.366157764466045" lon="11.904205563028077"><ele>7.0</ele><time>2026-04-25T12:12:54.971Z</time></trkpt><trkpt lat="45.36610844354303" lon="11.904347786634261"><ele>7.0</ele><time>2026-04-25T12:12:55.971Z</time></trkpt><trkpt lat="45.366050831816125" lon="11.904504146813931"><ele>7.0</ele><time>2026-04-25T12:12:56.971Z</time></trkpt><trkpt lat="45.36597435754377" lon="11.90468455681939"><ele>7.25</ele><time>2026-04-25T12:12:57.971Z</time></trkpt><trkpt lat="45.365905329617085" lon="11.90479065566111"><ele>7.5</ele><time>2026-04-25T12:12:58.971Z</time></trkpt><trkpt lat="45.36581431054512" lon="11.904886271730218"><ele>7.75</ele><time>2026-04-25T12:12:59.971Z</time></trkpt><trkpt lat="45.36570590981957" lon="11.904965672573333"><ele>8.0</ele><time>2026-04-25T12:13:00.971Z</time></trkpt><trkpt lat="45.36559218882068" lon="11.90502474515011"><ele>7.75</ele><time>2026-04-25T12:13:01.971Z</time></trkpt><trkpt lat="45.36547249889838" lon="11.905072530297316"><ele>7.5</ele><time>2026-04-25T12:13:02.971Z</time></trkpt><trkpt lat="45.36535373617986" lon="11.905115616995632"><ele>7.25</ele><time>2026-04-25T12:13:03.971Z</time></trkpt><trkpt lat="45.365231022492544" lon="11.905146911193194"><ele>7.0</ele><time>2026-04-25T12:13:04.971Z</time></trkpt><trkpt lat="45.36510862391003" lon="11.905173206041061"><ele>6.75</ele><time>2026-04-25T12:13:05.971Z</time></trkpt><trkpt lat="45.36498255787267" lon="11.905194324845086"><ele>6.5</ele><time>2026-04-25T12:13:06.971Z</time></trkpt><trkpt lat="45.36485562175454" lon="11.905215128808639"><ele>6.25</ele><time>2026-04-25T12:13:07.971Z</time></trkpt><trkpt lat="45.364730256295445" lon="11.905233523169873"><ele>6.0</ele><time>2026-04-25T12:13:08.97Z</time></trkpt><trkpt lat="45.364606114295846" lon="11.905249582012027"><ele>6.5</ele><time>2026-04-25T12:13:09.97Z</time></trkpt><trkpt lat="45.36447989248787" lon="11.905265307988984"><ele>7.0</ele><time>2026-04-25T12:13:10.97Z</time></trkpt><trkpt lat="45.364360795166164" lon="11.90527823135091"><ele>7.5</ele><time>2026-04-25T12:13:11.97Z</time></trkpt><trkpt lat="45.36423281938015" lon="11.905314446412122"><ele>8.0</ele><time>2026-04-25T12:13:12.97Z</time></trkpt><trkpt lat="45.364112884127145" lon="11.905369240451273"><ele>8.0</ele><time>2026-04-25T12:13:13.97Z</time></trkpt><trkpt lat="45.364001507836846" lon="11.905442244759074"><ele>8.0</ele><time>2026-04-25T12:13:14.97Z</time></trkpt><trkpt lat="45.363893181576856" lon="11.90551071167889"><ele>8.0</ele><time>2026-04-25T12:13:15.97Z</time></trkpt><trkpt lat="45.36378565576946" lon="11.905577715621098"><ele>8.0</ele><time>2026-04-25T12:13:16.97Z</time></trkpt><trkpt lat="45.36368167120639" lon="11.90563896396883"><ele>7.800000000000001</ele><time>2026-04-25T12:13:17.97Z</time></trkpt><trkpt lat="45.36357373684457" lon="11.905649282394252"><ele>7.6000000000000005</ele><time>2026-04-25T12:13:18.97Z</time></trkpt><trkpt lat="45.36346736938972" lon="11.905668007276512"><ele>7.3999999999999995</ele><time>2026-04-25T12:13:19.97Z</time></trkpt><trkpt lat="45.36336340475485" lon="11.905678152045125"><ele>7.199999999999999</ele><time>2026-04-25T12:13:20.97Z</time></trkpt><trkpt lat="45.36325724268349" lon="11.905695635359672"><ele>7.0</ele><time>2026-04-25T12:13:21.97Z</time></trkpt><trkpt lat="45.36314907103505" lon="11.905698060536174"><ele>7.0</ele><time>2026-04-25T12:13:22.97Z</time></trkpt><trkpt lat="45.36304958631172" lon="11.905691775390553"><ele>6.999999999999999</ele><time>2026-04-25T12:13:23.97Z</time></trkpt><trkpt lat="45.36294655009073" lon="11.905680785442735"><ele>6.999999999999999</ele><time>2026-04-25T12:13:24.97Z</time></trkpt><trkpt lat="45.36284523742453" lon="11.905672151191517"><ele>7.0</ele><time>2026-04-25T12:13:25.97Z</time></trkpt><trkpt lat="45.362736440874414" lon="11.905672091961053"><ele>7.0</ele><time>2026-04-25T12:13:26.97Z</time></trkpt><trkpt lat="45.36264299305776" lon="11.905682995375184"><ele>7.000000000000001</ele><time>2026-04-25T12:13:27.97Z</time></trkpt><trkpt lat="45.36255471415222" lon="11.905697608761276"><ele>7.0</ele><time>2026-04-25T12:13:28.97Z</time></trkpt><trkpt lat="45.362486740044474" lon="11.905713670787346"><ele>7.0</ele><time>2026-04-25T12:13:29.97Z</time></trkpt><trkpt lat="45.36238383343004" lon="11.90575690623592"><ele>7.0</ele><time>2026-04-25T12:13:31.97Z</time></trkpt><trkpt lat="45.362296552753854" lon="11.905778481924742"><ele>7.000000000000001</ele><time>2026-04-25T12:13:33.97Z</time></trkpt><trkpt lat="45.36223105927324" lon="11.905817435693878"><ele>7.0</ele><time>2026-04-25T12:13:35.97Z</time></trkpt><trkpt lat="45.36217636514616" lon="11.905887110471468"><ele>7.000000000000001</ele><time>2026-04-25T12:13:37.97Z</time></trkpt><trkpt lat="45.36218228980933" lon="11.906046685193989"><ele>7.0</ele><time>2026-04-25T12:13:39.97Z</time></trkpt><trkpt lat="45.362196110993395" lon="11.906136416209137"><ele>7.0</ele><time>2026-04-25T12:13:40.97Z</time></trkpt><trkpt lat="45.3622014009303" lon="11.906236651632971"><ele>7.0</ele><time>2026-04-25T12:13:41.97Z</time></trkpt><trkpt lat="45.362213671729" lon="11.906353232694368"><ele>7.000000000000001</ele><time>2026-04-25T12:13:42.97Z</time></trkpt><trkpt lat="45.36223653593742" lon="11.90646730159736"><ele>7.0</ele><time>2026-04-25T12:13:43.97Z</time></trkpt><trkpt lat="45.36227834103097" lon="11.906586384410522"><ele>7.199999999999999</ele><time>2026-04-25T12:13:44.97Z</time></trkpt><trkpt lat="45.36231952749677" lon="11.906704312997558"><ele>7.3999999999999995</ele><time>2026-04-25T12:13:45.97Z</time></trkpt><trkpt lat="45.36235038187268" lon="11.906838211042675"><ele>7.6000000000000005</ele><time>2026-04-25T12:13:46.97Z</time></trkpt><trkpt lat="45.36236042534104" lon="11.90697299222109"><ele>7.800000000000001</ele><time>2026-04-25T12:13:47.97Z</time></trkpt><trkpt lat="45.36236908054144" lon="11.907109835030804"><ele>8.0</ele><time>2026-04-25T12:13:48.97Z</time></trkpt><trkpt lat="45.36236174822212" lon="11.907249390749447"><ele>8.0</ele><time>2026-04-25T12:13:49.97Z</time></trkpt><trkpt lat="45.36233622840912" lon="11.907389902162729"><ele>8.0</ele><time>2026-04-25T12:13:50.969Z</time></trkpt><trkpt lat="45.362300013789614" lon="11.907522072051378"><ele>8.0</ele><time>2026-04-25T12:13:51.969Z</time></trkpt><trkpt lat="45.36226605421797" lon="11.90765155097225"><ele>8.0</ele><time>2026-04-25T12:13:52.969Z</time></trkpt><trkpt lat="45.36223212007647" lon="11.907763988956635"><ele>8.0</ele><time>2026-04-25T12:13:53.969Z</time></trkpt><trkpt lat="45.3621983911411" lon="11.907849071513757"><ele>8.200000000000001</ele><time>2026-04-25T12:13:54.969Z</time></trkpt><trkpt lat="45.362125492931305" lon="11.907973302987306"><ele>8.4</ele><time>2026-04-25T12:13:56.969Z</time></trkpt><trkpt lat="45.36204966724189" lon="11.908066540137165"><ele>8.600000000000001</ele><time>2026-04-25T12:13:58.969Z</time></trkpt><trkpt lat="45.36203718719523" lon="11.908191431139562"><ele>8.8</ele><time>2026-04-25T12:14:00.969Z</time></trkpt><trkpt lat="45.36207948248809" lon="11.908268784693888"><ele>9.0</ele><time>2026-04-25T12:14:01.969Z</time></trkpt><trkpt lat="45.3621599213862" lon="11.908296466020158"><ele>9.0</ele><time>2026-04-25T12:14:02.969Z</time></trkpt><trkpt lat="45.36224129293683" lon="11.90828016482234"><ele>9.0</ele><time>2026-04-25T12:14:03.969Z</time></trkpt><trkpt lat="45.36232196084897" lon="11.908293821458187"><ele>9.0</ele><time>2026-04-25T12:14:04.969Z</time></trkpt><trkpt lat="45.362412266107526" lon="11.908340228822915"><ele>9.0</ele><time>2026-04-25T12:14:05.969Z</time></trkpt><trkpt lat="45.36250851159787" lon="11.908391090306583"><ele>9.0</ele><time>2026-04-25T12:14:06.969Z</time></trkpt><trkpt lat="45.36260450399452" lon="11.908430662581475"><ele>9.0</ele><time>2026-04-25T12:14:07.969Z</time></trkpt><trkpt lat="45.3627067538917" lon="11.908471092904499"><ele>9.0</ele><time>2026-04-25T12:14:08.969Z</time></trkpt><trkpt lat="45.36281584382063" lon="11.908512538407653"><ele>9.0</ele><time>2026-04-25T12:14:09.971Z</time></trkpt><trkpt lat="45.362925471900624" lon="11.90857069536925"><ele>9.0</ele><time>2026-04-25T12:14:10.971Z</time></trkpt><trkpt lat="45.36303741116287" lon="11.908629539775154"><ele>9.0</ele><time>2026-04-25T12:14:11.971Z</time></trkpt><trkpt lat="45.36314265000987" lon="11.908699087963184"><ele>9.0</ele><time>2026-04-25T12:14:12.971Z</time></trkpt><trkpt lat="45.36325742284696" lon="11.908754049239466"><ele>9.0</ele><time>2026-04-25T12:14:13.971Z</time></trkpt><trkpt lat="45.36337512571372" lon="11.908808689222823"><ele>9.0</ele><time>2026-04-25T12:14:14.971Z</time></trkpt><trkpt lat="45.363496242980425" lon="11.908866654744275"><ele>9.0</ele><time>2026-04-25T12:14:15.971Z</time></trkpt><trkpt lat="45.363619247771595" lon="11.908915915315115"><ele>9.0</ele><time>2026-04-25T12:14:16.97Z</time></trkpt><trkpt lat="45.36374295850958" lon="11.908983278459372"><ele>9.0</ele><time>2026-04-25T12:14:17.97Z</time></trkpt><trkpt lat="45.36386228116005" lon="11.909055623392335"><ele>9.0</ele><time>2026-04-25T12:14:18.971Z</time></trkpt><trkpt lat="45.36398385150659" lon="11.90911947957326"><ele>9.0</ele><time>2026-04-25T12:14:19.97Z</time></trkpt><trkpt lat="45.36409887986793" lon="11.90921450827424"><ele>9.0</ele><time>2026-04-25T12:14:20.97Z</time></trkpt><trkpt lat="45.364224800722376" lon="11.909290075290647"><ele>9.0</ele><time>2026-04-25T12:14:21.97Z</time></trkpt><trkpt lat="45.364345745602904" lon="11.909362156645857"><ele>9.0</ele><time>2026-04-25T12:14:22.97Z</time></trkpt><trkpt lat="45.36446389017302" lon="11.909432431246854"><ele>9.0</ele><time>2026-04-25T12:14:23.97Z</time></trkpt><trkpt lat="45.36458868281599" lon="11.909506660183483"><ele>9.0</ele><time>2026-04-25T12:14:24.97Z</time></trkpt><trkpt lat="45.364713138552425" lon="11.909580688789587"><ele>9.0</ele><time>2026-04-25T12:14:25.97Z</time></trkpt><trkpt lat="45.364833222289775" lon="11.909652732373473"><ele>9.0</ele><time>2026-04-25T12:14:26.97Z</time></trkpt><trkpt lat="45.36495600320531" lon="11.909723731215498"><ele>9.0</ele><time>2026-04-25T12:14:27.97Z</time></trkpt><trkpt lat="45.365076657237196" lon="11.909793901369467"><ele>9.0</ele><time>2026-04-25T12:14:28.97Z</time></trkpt><trkpt lat="45.36519618323734" lon="11.909864377841362"><ele>9.0</ele><time>2026-04-25T12:14:29.97Z</time></trkpt><trkpt lat="45.36531385665312" lon="11.90993005803826"><ele>9.0</ele><time>2026-04-25T12:14:30.97Z</time></trkpt><trkpt lat="45.365422734125296" lon="11.910003680139468"><ele>9.0</ele><time>2026-04-25T12:14:31.97Z</time></trkpt><trkpt lat="45.36552500914947" lon="11.91005594526456"><ele>9.0</ele><time>2026-04-25T12:14:32.97Z</time></trkpt><trkpt lat="45.365624136891384" lon="11.91012144514186"><ele>9.0</ele><time>2026-04-25T12:14:33.97Z</time></trkpt><trkpt lat="45.365721133587876" lon="11.910164700103484"><ele>9.0</ele><time>2026-04-25T12:14:34.97Z</time></trkpt><trkpt lat="45.36579486689054" lon="11.91021485052033"><ele>9.0</ele><time>2026-04-25T12:14:35.97Z</time></trkpt><trkpt lat="45.36587714149946" lon="11.910268586910918"><ele>9.0</ele><time>2026-04-25T12:14:36.97Z</time></trkpt><trkpt lat="45.365966027594474" lon="11.91031455822385"><ele>9.0</ele><time>2026-04-25T12:14:37.97Z</time></trkpt><trkpt lat="45.366049898393584" lon="11.910365815983594"><ele>9.0</ele><time>2026-04-25T12:14:38.97Z</time></trkpt><trkpt lat="45.366126981380084" lon="11.910412996350242"><ele>9.0</ele><time>2026-04-25T12:14:39.97Z</time></trkpt><trkpt lat="45.36619697565454" lon="11.910462237582149"><ele>9.0</ele><time>2026-04-25T12:14:40.97Z</time></trkpt><trkpt lat="45.36625228687154" lon="11.910526846727402"><ele>9.0</ele><time>2026-04-25T12:14:41.97Z</time></trkpt><trkpt lat="45.3663052360098" lon="11.910579582089026"><ele>9.0</ele><time>2026-04-25T12:14:42.97Z</time></trkpt><trkpt lat="45.36625670529051" lon="11.91085289223039"><ele>9.0</ele><time>2026-04-25T12:14:44.97Z</time></trkpt><trkpt lat="45.36622682412605" lon="11.91099886690376"><ele>9.0</ele><time>2026-04-25T12:14:45.97Z</time></trkpt><trkpt lat="45.366196281245266" lon="11.911146948038002"><ele>9.0</ele><time>2026-04-25T12:14:46.97Z</time></trkpt><trkpt lat="45.36616935392237" lon="11.91130030885928"><ele>8.5</ele><time>2026-04-25T12:14:47.97Z</time></trkpt><trkpt lat="45.36615317382137" lon="11.911463383407197"><ele>8.0</ele><time>2026-04-25T12:14:48.97Z</time></trkpt><trkpt lat="45.36612773364346" lon="11.911633959994465"><ele>7.5</ele><time>2026-04-25T12:14:49.97Z</time></trkpt><trkpt lat="45.36610412679323" lon="11.911808635293086"><ele>7.0</ele><time>2026-04-25T12:14:50.97Z</time></trkpt><trkpt lat="45.366072331185826" lon="11.911986339531936"><ele>7.0</ele><time>2026-04-25T12:14:51.97Z</time></trkpt><trkpt lat="45.36604565287912" lon="11.912165205414489"><ele>7.0</ele><time>2026-04-25T12:14:52.969Z</time></trkpt><trkpt lat="45.366019228138256" lon="11.912345612092683"><ele>7.0</ele><time>2026-04-25T12:14:53.969Z</time></trkpt><trkpt lat="45.36598699395406" lon="11.912525566947744"><ele>7.0</ele><time>2026-04-25T12:14:54.969Z</time></trkpt><trkpt lat="45.36595521214629" lon="11.912706878815131"><ele>7.25</ele><time>2026-04-25T12:14:55.969Z</time></trkpt><trkpt lat="45.365920484381334" lon="11.912893856952326"><ele>7.5</ele><time>2026-04-25T12:14:56.969Z</time></trkpt><trkpt lat="45.365884887831264" lon="11.913077180465264"><ele>7.75</ele><time>2026-04-25T12:14:57.969Z</time></trkpt><trkpt lat="45.36585351109313" lon="11.91326078893972"><ele>8.0</ele><time>2026-04-25T12:14:58.969Z</time></trkpt><trkpt lat="45.36582310292857" lon="11.913447383666233"><ele>8.0</ele><time>2026-04-25T12:14:59.969Z</time></trkpt><trkpt lat="45.365789873213956" lon="11.913630880871622"><ele>8.0</ele><time>2026-04-25T12:15:00.969Z</time></trkpt><trkpt lat="45.365757897791546" lon="11.913806148467753"><ele>8.0</ele><time>2026-04-25T12:15:01.969Z</time></trkpt><trkpt lat="45.36572285207268" lon="11.913993368576064"><ele>8.0</ele><time>2026-04-25T12:15:02.969Z</time></trkpt><trkpt lat="45.365688201060074" lon="11.914180760482521"><ele>7.75</ele><time>2026-04-25T12:15:03.969Z</time></trkpt><trkpt lat="45.36565460746782" lon="11.914353801830007"><ele>7.5</ele><time>2026-04-25T12:15:04.969Z</time></trkpt><trkpt lat="45.36560449001141" lon="11.91454071288162"><ele>7.25</ele><time>2026-04-25T12:15:05.969Z</time></trkpt><trkpt lat="45.3655665145107" lon="11.914720883079394"><ele>7.0</ele><time>2026-04-25T12:15:06.969Z</time></trkpt><trkpt lat="45.36553256968628" lon="11.914896586747822"><ele>7.0</ele><time>2026-04-25T12:15:07.969Z</time></trkpt><trkpt lat="45.36549520886781" lon="11.915084381547866"><ele>7.0</ele><time>2026-04-25T12:15:08.969Z</time></trkpt><trkpt lat="45.365455596169376" lon="11.915270361868288"><ele>7.0</ele><time>2026-04-25T12:15:09.969Z</time></trkpt><trkpt lat="45.36541821341071" lon="11.91545837418169"><ele>7.0</ele><time>2026-04-25T12:15:10.969Z</time></trkpt><trkpt lat="45.36537296343836" lon="11.915634082837952"><ele>7.0</ele><time>2026-04-25T12:15:11.969Z</time></trkpt><trkpt lat="45.36532816921589" lon="11.915816789367373"><ele>7.0</ele><time>2026-04-25T12:15:12.969Z</time></trkpt><trkpt lat="45.36529268446494" lon="11.916006178944992"><ele>7.0</ele><time>2026-04-25T12:15:13.969Z</time></trkpt><trkpt lat="45.365245902659105" lon="11.916197344152911"><ele>7.0</ele><time>2026-04-25T12:15:14.969Z</time></trkpt><trkpt lat="45.36519823501293" lon="11.916378634404712"><ele>7.0</ele><time>2026-04-25T12:15:15.969Z</time></trkpt><trkpt lat="45.36515354539707" lon="11.916563573900158"><ele>7.0</ele><time>2026-04-25T12:15:16.969Z</time></trkpt><trkpt lat="45.36510853205614" lon="11.9167524020792"><ele>7.0</ele><time>2026-04-25T12:15:17.969Z</time></trkpt><trkpt lat="45.36506482472199" lon="11.916941149549773"><ele>7.0</ele><time>2026-04-25T12:15:18.969Z</time></trkpt><trkpt lat="45.365019844476095" lon="11.917131463322708"><ele>7.0</ele><time>2026-04-25T12:15:19.969Z</time></trkpt><trkpt lat="45.364983120255786" lon="11.917329550899677"><ele>7.0</ele><time>2026-04-25T12:15:20.969Z</time></trkpt><trkpt lat="45.36495138505652" lon="11.917523567671477"><ele>7.0</ele><time>2026-04-25T12:15:21.969Z</time></trkpt><trkpt lat="45.36491592184916" lon="11.91771048566585"><ele>7.0</ele><time>2026-04-25T12:15:22.969Z</time></trkpt><trkpt lat="45.364880000094" lon="11.91790758454269"><ele>6.8</ele><time>2026-04-25T12:15:23.969Z</time></trkpt><trkpt lat="45.36484326281777" lon="11.918090377295728"><ele>6.6</ele><time>2026-04-25T12:15:24.969Z</time></trkpt><trkpt lat="45.36481499418137" lon="11.918246854177635"><ele>6.3999999999999995</ele><time>2026-04-25T12:15:25.969Z</time></trkpt><trkpt lat="45.36479238359568" lon="11.918401690276808"><ele>6.199999999999999</ele><time>2026-04-25T12:15:26.969Z</time></trkpt><trkpt lat="45.36477387385909" lon="11.918519803172552"><ele>6.0</ele><time>2026-04-25T12:15:27.969Z</time></trkpt><trkpt lat="45.364966966808815" lon="11.918694712359184"><ele>6.5</ele><time>2026-04-25T12:15:29.969Z</time></trkpt><trkpt lat="45.36507257520063" lon="11.91873806590115"><ele>7.0</ele><time>2026-04-25T12:15:30.969Z</time></trkpt><trkpt lat="45.365195459581514" lon="11.91874802686492"><ele>7.5</ele><time>2026-04-25T12:15:31.969Z</time></trkpt><trkpt lat="45.365319863432624" lon="11.918780672472705"><ele>8.0</ele><time>2026-04-25T12:15:32.969Z</time></trkpt><trkpt lat="45.36543681315308" lon="11.91881868704219"><ele>8.25</ele><time>2026-04-25T12:15:33.968Z</time></trkpt><trkpt lat="45.36555076760607" lon="11.918861119581525"><ele>8.5</ele><time>2026-04-25T12:15:34.968Z</time></trkpt><trkpt lat="45.36567288790916" lon="11.918893234228985"><ele>8.75</ele><time>2026-04-25T12:15:35.968Z</time></trkpt><trkpt lat="45.3657920905708" lon="11.918929965181178"><ele>9.0</ele><time>2026-04-25T12:15:36.968Z</time></trkpt><trkpt lat="45.36591869031339" lon="11.918961498832218"><ele>9.0</ele><time>2026-04-25T12:15:37.968Z</time></trkpt><trkpt lat="45.36604590772775" lon="11.91899307097028"><ele>9.0</ele><time>2026-04-25T12:15:38.968Z</time></trkpt><trkpt lat="45.36617618320008" lon="11.91903001338458"><ele>9.0</ele><time>2026-04-25T12:15:39.968Z</time></trkpt><trkpt lat="45.3663065610061" lon="11.919066558247165"><ele>9.0</ele><time>2026-04-25T12:15:40.968Z</time></trkpt><trkpt lat="45.366432309669555" lon="11.919107213234042"><ele>8.75</ele><time>2026-04-25T12:15:41.968Z</time></trkpt><trkpt lat="45.36656206605448" lon="11.919150699485362"><ele>8.5</ele><time>2026-04-25T12:15:42.968Z</time></trkpt><trkpt lat="45.366690975001866" lon="11.919188320287939"><ele>8.25</ele><time>2026-04-25T12:15:43.968Z</time></trkpt><trkpt lat="45.36681709948465" lon="11.919232086731682"><ele>8.0</ele><time>2026-04-25T12:15:44.968Z</time></trkpt><trkpt lat="45.366944559517314" lon="11.919279634523514"><ele>8.0</ele><time>2026-04-25T12:15:45.968Z</time></trkpt><trkpt lat="45.36707012503039" lon="11.919325660536877"><ele>8.0</ele><time>2026-04-25T12:15:46.968Z</time></trkpt><trkpt lat="45.36719646558773" lon="11.919373277269193"><ele>8.0</ele><time>2026-04-25T12:15:47.968Z</time></trkpt><trkpt lat="45.36731671229241" lon="11.919412123416762"><ele>8.0</ele><time>2026-04-25T12:15:48.968Z</time></trkpt><trkpt lat="45.36743834787904" lon="11.919457592992897"><ele>8.0</ele><time>2026-04-25T12:15:49.968Z</time></trkpt><trkpt lat="45.36755751396185" lon="11.91950268283558"><ele>8.0</ele><time>2026-04-25T12:15:50.968Z</time></trkpt><trkpt lat="45.36767510936759" lon="11.919565651001882"><ele>8.0</ele><time>2026-04-25T12:15:51.968Z</time></trkpt><trkpt lat="45.3677934173434" lon="11.91961175884724"><ele>8.0</ele><time>2026-04-25T12:15:52.968Z</time></trkpt><trkpt lat="45.36791627929892" lon="11.919653093951636"><ele>7.75</ele><time>2026-04-25T12:15:53.968Z</time></trkpt><trkpt lat="45.36803843430959" lon="11.919691206409869"><ele>7.5</ele><time>2026-04-25T12:15:54.968Z</time></trkpt><trkpt lat="45.36816465559271" lon="11.91972358809551"><ele>7.25</ele><time>2026-04-25T12:15:55.968Z</time></trkpt><trkpt lat="45.3682935052855" lon="11.919753109230431"><ele>7.0</ele><time>2026-04-25T12:15:56.968Z</time></trkpt><trkpt lat="45.36841968453943" lon="11.919781990595546"><ele>7.0</ele><time>2026-04-25T12:15:57.968Z</time></trkpt><trkpt lat="45.36854516823269" lon="11.919807555819114"><ele>7.0</ele><time>2026-04-25T12:15:58.968Z</time></trkpt><trkpt lat="45.368674798161685" lon="11.919834009784998"><ele>7.0</ele><time>2026-04-25T12:15:59.968Z</time></trkpt><trkpt lat="45.36880006535328" lon="11.919834563268777"><ele>7.0</ele><time>2026-04-25T12:16:00.968Z</time></trkpt><trkpt lat="45.36892728002802" lon="11.91986996476505"><ele>7.25</ele><time>2026-04-25T12:16:01.968Z</time></trkpt><trkpt lat="45.36904776878938" lon="11.919915542936215"><ele>7.5</ele><time>2026-04-25T12:16:02.968Z</time></trkpt><trkpt lat="45.36916477071366" lon="11.919967511465694"><ele>7.75</ele><time>2026-04-25T12:16:03.968Z</time></trkpt><trkpt lat="45.369261753359964" lon="11.920044294680006"><ele>8.0</ele><time>2026-04-25T12:16:04.968Z</time></trkpt><trkpt lat="45.36936245360354" lon="11.920105793216717"><ele>8.200000000000001</ele><time>2026-04-25T12:16:05.968Z</time></trkpt><trkpt lat="45.36947183202556" lon="11.920142596374568"><ele>8.4</ele><time>2026-04-25T12:16:06.968Z</time></trkpt><trkpt lat="45.36958021881952" lon="11.920152121687561"><ele>8.600000000000001</ele><time>2026-04-25T12:16:07.968Z</time></trkpt><trkpt lat="45.36968272506187" lon="11.92017706526918"><ele>8.8</ele><time>2026-04-25T12:16:08.968Z</time></trkpt><trkpt lat="45.369795159101976" lon="11.920199314625709"><ele>9.0</ele><time>2026-04-25T12:16:09.968Z</time></trkpt><trkpt lat="45.36990174303939" lon="11.92022058305068"><ele>9.0</ele><time>2026-04-25T12:16:10.968Z</time></trkpt><trkpt lat="45.36998654448793" lon="11.920248368218413"><ele>9.0</ele><time>2026-04-25T12:16:11.968Z</time></trkpt><trkpt lat="45.370093652512494" lon="11.920287617095864"><ele>9.0</ele><time>2026-04-25T12:16:13.968Z</time></trkpt><trkpt lat="45.37017129990016" lon="11.920340458995483"><ele>9.0</ele><time>2026-04-25T12:16:15.969Z</time></trkpt><trkpt lat="45.3702695570345" lon="11.920401022083617"><ele>9.0</ele><time>2026-04-25T12:16:17.968Z</time></trkpt><trkpt lat="45.37033779947822" lon="11.920434095647929"><ele>9.0</ele><time>2026-04-25T12:16:32.968Z</time></trkpt><trkpt lat="45.37042515274564" lon="11.920459167241209"><ele>9.0</ele><time>2026-04-25T12:16:48.968Z</time></trkpt><trkpt lat="45.37052858193281" lon="11.92053164640787"><ele>9.0</ele><time>2026-04-25T12:16:50.968Z</time></trkpt><trkpt lat="45.370628638455926" lon="11.920372056784872"><ele>9.0</ele><time>2026-04-25T12:16:51.968Z</time></trkpt><trkpt lat="45.37068768957281" lon="11.92027567026802"><ele>9.0</ele><time>2026-04-25T12:16:52.968Z</time></trkpt><trkpt lat="45.370742299141256" lon="11.92016635269148"><ele>9.5</ele><time>2026-04-25T12:16:53.968Z</time></trkpt><trkpt lat="45.370793279620955" lon="11.920029759853822"><ele>10.0</ele><time>2026-04-25T12:16:54.968Z</time></trkpt><trkpt lat="45.37085663637095" lon="11.91988974398303"><ele>10.5</ele><time>2026-04-25T12:16:55.968Z</time></trkpt><trkpt lat="45.37092329938123" lon="11.91974166751232"><ele>11.0</ele><time>2026-04-25T12:16:56.968Z</time></trkpt><trkpt lat="45.37099014287773" lon="11.91958074526799"><ele>11.0</ele><time>2026-04-25T12:16:57.968Z</time></trkpt><trkpt lat="45.371056561677314" lon="11.919408479000287"><ele>11.0</ele><time>2026-04-25T12:16:58.968Z</time></trkpt><trkpt lat="45.37113075594432" lon="11.919224077390375"><ele>11.0</ele><time>2026-04-25T12:16:59.968Z</time></trkpt><trkpt lat="45.37120513153359" lon="11.919036784426757"><ele>11.0</ele><time>2026-04-25T12:17:00.968Z</time></trkpt><trkpt lat="45.37128006405579" lon="11.918841144029034"><ele>10.666666666666666</ele><time>2026-04-25T12:17:01.968Z</time></trkpt><trkpt lat="45.37136201948359" lon="11.918633281196144"><ele>10.333333333333334</ele><time>2026-04-25T12:17:02.968Z</time></trkpt><trkpt lat="45.37145196163474" lon="11.918424643439334"><ele>10.0</ele><time>2026-04-25T12:17:03.968Z</time></trkpt><trkpt lat="45.371547302711626" lon="11.918213546598668"><ele>10.0</ele><time>2026-04-25T12:17:04.967Z</time></trkpt><trkpt lat="45.37164329439828" lon="11.917998645294743"><ele>10.0</ele><time>2026-04-25T12:17:05.967Z</time></trkpt><trkpt lat="45.37174630816295" lon="11.917778277563801"><ele>10.0</ele><time>2026-04-25T12:17:06.967Z</time></trkpt><trkpt lat="45.37184593867292" lon="11.917554210152376"><ele>10.0</ele><time>2026-04-25T12:17:07.967Z</time></trkpt><trkpt lat="45.37194683482101" lon="11.917326402034668"><ele>10.0</ele><time>2026-04-25T12:17:08.967Z</time></trkpt><trkpt lat="45.37204493628015" lon="11.917091044682962"><ele>10.0</ele><time>2026-04-25T12:17:09.967Z</time></trkpt><trkpt lat="45.37214567259378" lon="11.916854383167763"><ele>10.0</ele><time>2026-04-25T12:17:10.967Z</time></trkpt><trkpt lat="45.3722468867003" lon="11.91661826200062"><ele>10.0</ele><time>2026-04-25T12:17:11.967Z</time></trkpt><trkpt lat="45.37235747345513" lon="11.916388083753018"><ele>10.0</ele><time>2026-04-25T12:17:12.967Z</time></trkpt><trkpt lat="45.3724869634889" lon="11.916151177319605"><ele>10.0</ele><time>2026-04-25T12:17:13.967Z</time></trkpt><trkpt lat="45.372626271400314" lon="11.91592703034441"><ele>10.0</ele><time>2026-04-25T12:17:14.967Z</time></trkpt><trkpt lat="45.372725878431254" lon="11.915656409320246"><ele>10.0</ele><time>2026-04-25T12:17:15.967Z</time></trkpt><trkpt lat="45.37283459007105" lon="11.915403622447442"><ele>10.0</ele><time>2026-04-25T12:17:16.967Z</time></trkpt><trkpt lat="45.372937629037835" lon="11.915160973165252"><ele>10.0</ele><time>2026-04-25T12:17:17.967Z</time></trkpt><trkpt lat="45.373043269492044" lon="11.914910056583878"><ele>10.0</ele><time>2026-04-25T12:17:18.967Z</time></trkpt><trkpt lat="45.37314760287661" lon="11.91466130223248"><ele>10.0</ele><time>2026-04-25T12:17:19.967Z</time></trkpt><trkpt lat="45.37325189974168" lon="11.914413162250977"><ele>10.0</ele><time>2026-04-25T12:17:20.967Z</time></trkpt><trkpt lat="45.373357616301554" lon="11.914164235039888"><ele>10.0</ele><time>2026-04-25T12:17:21.967Z</time></trkpt><trkpt lat="45.373298982248386" lon="11.914078283763835"><ele>10.0</ele><time>2026-04-25T12:17:22.967Z</time></trkpt><trkpt lat="45.37339462545949" lon="11.913843959834773"><ele>10.0</ele><time>2026-04-25T12:17:23.967Z</time></trkpt><trkpt lat="45.373494090897196" lon="11.913615253201101"><ele>10.0</ele><time>2026-04-25T12:17:24.967Z</time></trkpt><trkpt lat="45.37359437439709" lon="11.913382413221202"><ele>10.0</ele><time>2026-04-25T12:17:25.967Z</time></trkpt><trkpt lat="45.373693332239874" lon="11.913157104802583"><ele>10.0</ele><time>2026-04-25T12:17:26.967Z</time></trkpt><trkpt lat="45.37379252842337" lon="11.912932010291055"><ele>10.0</ele><time>2026-04-25T12:17:27.967Z</time></trkpt><trkpt lat="45.37388880024759" lon="11.912698865602271"><ele>10.0</ele><time>2026-04-25T12:17:28.967Z</time></trkpt><trkpt lat="45.373985976552795" lon="11.912476401540605"><ele>10.0</ele><time>2026-04-25T12:17:29.967Z</time></trkpt><trkpt lat="45.374073692623" lon="11.912255275168327"><ele>10.0</ele><time>2026-04-25T12:17:30.967Z</time></trkpt><trkpt lat="45.374158128183595" lon="11.912058416521846"><ele>10.0</ele><time>2026-04-25T12:17:31.967Z</time></trkpt><trkpt lat="45.37423635876021" lon="11.911868773270378"><ele>10.0</ele><time>2026-04-25T12:17:32.967Z</time></trkpt><trkpt lat="45.37431427828043" lon="11.911686719737997"><ele>10.0</ele><time>2026-04-25T12:17:33.967Z</time></trkpt><trkpt lat="45.374389167266266" lon="11.911502604631533"><ele>10.333333333333334</ele><time>2026-04-25T12:17:34.967Z</time></trkpt><trkpt lat="45.374466129186295" lon="11.911318016865732"><ele>10.666666666666666</ele><time>2026-04-25T12:17:35.967Z</time></trkpt><trkpt lat="45.374560435167766" lon="11.911149016493038"><ele>11.0</ele><time>2026-04-25T12:17:36.967Z</time></trkpt><trkpt lat="45.37464092137046" lon="11.910968109975768"><ele>10.75</ele><time>2026-04-25T12:17:37.967Z</time></trkpt><trkpt lat="45.37472015189666" lon="11.910789235290293"><ele>10.5</ele><time>2026-04-25T12:17:38.967Z</time></trkpt><trkpt lat="45.37475979813868" lon="11.910593916709141"><ele>10.25</ele><time>2026-04-25T12:17:39.967Z</time></trkpt><trkpt lat="45.374824467685585" lon="11.910448536490726"><ele>10.0</ele><time>2026-04-25T12:17:40.967Z</time></trkpt><trkpt lat="45.37488415826796" lon="11.910319001668654"><ele>10.0</ele><time>2026-04-25T12:17:41.967Z</time></trkpt><trkpt lat="45.37493801180438" lon="11.910210002225423"><ele>10.0</ele><time>2026-04-25T12:17:42.967Z</time></trkpt><trkpt lat="45.37499481886472" lon="11.910086858742082"><ele>10.0</ele><time>2026-04-25T12:17:44.967Z</time></trkpt><trkpt lat="45.375074382436374" lon="11.91000223649898"><ele>10.0</ele><time>2026-04-25T12:17:48.966Z</time></trkpt><trkpt lat="45.37518094342547" lon="11.909934158222418"><ele>10.0</ele><time>2026-04-25T12:17:50.966Z</time></trkpt><trkpt lat="45.37525950918233" lon="11.909848938346627"><ele>10.0</ele><time>2026-04-25T12:17:52.966Z</time></trkpt><trkpt lat="45.37524703883487" lon="11.909694873789958"><ele>10.0</ele><time>2026-04-25T12:17:54.966Z</time></trkpt><trkpt lat="45.37524760622534" lon="11.90954942152041"><ele>10.0</ele><time>2026-04-25T12:17:56.966Z</time></trkpt><trkpt lat="45.37530359869173" lon="11.909447265497827"><ele>10.0</ele><time>2026-04-25T12:17:57.966Z</time></trkpt><trkpt lat="45.375336946002406" lon="11.909354436607032"><ele>10.0</ele><time>2026-04-25T12:17:58.966Z</time></trkpt><trkpt lat="45.37541079601821" lon="11.909205110360492"><ele>10.333333333333334</ele><time>2026-04-25T12:18:00.966Z</time></trkpt><trkpt lat="45.37541700843142" lon="11.9090796265932"><ele>10.666666666666668</ele><time>2026-04-25T12:18:02.966Z</time></trkpt><trkpt lat="45.3753620038072" lon="11.90900050214728"><ele>11.0</ele><time>2026-04-25T12:18:03.966Z</time></trkpt><trkpt lat="45.37529021801786" lon="11.908963771831742"><ele>11.333333333333334</ele><time>2026-04-25T12:18:04.966Z</time></trkpt><trkpt lat="45.37520497911895" lon="11.908963422409238"><ele>11.666666666666666</ele><time>2026-04-25T12:18:05.966Z</time></trkpt><trkpt lat="45.37512215467417" lon="11.908902257570016"><ele>12.0</ele><time>2026-04-25T12:18:06.966Z</time></trkpt><trkpt lat="45.37503872773446" lon="11.908810237263372"><ele>12.0</ele><time>2026-04-25T12:18:07.966Z</time></trkpt><trkpt lat="45.37494045708496" lon="11.908707523357233"><ele>12.0</ele><time>2026-04-25T12:18:08.966Z</time></trkpt><trkpt lat="45.37483857709801" lon="11.90860073538633"><ele>12.0</ele><time>2026-04-25T12:18:09.966Z</time></trkpt><trkpt lat="45.37474874268749" lon="11.908463764983297"><ele>12.0</ele><time>2026-04-25T12:18:10.966Z</time></trkpt><trkpt lat="45.37463197614819" lon="11.908337379970009"><ele>11.0</ele><time>2026-04-25T12:18:11.966Z</time></trkpt><trkpt lat="45.37451210923023" lon="11.908199548811076"><ele>10.0</ele><time>2026-04-25T12:18:12.966Z</time></trkpt><trkpt lat="45.37438902843531" lon="11.908051211502869"><ele>9.0</ele><time>2026-04-25T12:18:13.966Z</time></trkpt><trkpt lat="45.37426042659999" lon="11.907899342844699"><ele>9.0</ele><time>2026-04-25T12:18:14.966Z</time></trkpt><trkpt lat="45.37413122841656" lon="11.907737750486044"><ele>9.0</ele><time>2026-04-25T12:18:15.966Z</time></trkpt><trkpt lat="45.37398495076816" lon="11.907578819701971"><ele>9.0</ele><time>2026-04-25T12:18:16.966Z</time></trkpt><trkpt lat="45.37383268283081" lon="11.907422994572695"><ele>8.666666666666666</ele><time>2026-04-25T12:18:17.966Z</time></trkpt><trkpt lat="45.37368826405417" lon="11.907241285188542"><ele>8.333333333333332</ele><time>2026-04-25T12:18:18.966Z</time></trkpt><trkpt lat="45.373546066627256" lon="11.907061747571444"><ele>8.0</ele><time>2026-04-25T12:18:19.966Z</time></trkpt><trkpt lat="45.37340617463582" lon="11.906871717694338"><ele>7.666666666666666</ele><time>2026-04-25T12:18:20.966Z</time></trkpt><trkpt lat="45.37326744521281" lon="11.906680804219235"><ele>7.333333333333334</ele><time>2026-04-25T12:18:21.966Z</time></trkpt><trkpt lat="45.37312924525064" lon="11.90648707518171"><ele>7.0</ele><time>2026-04-25T12:18:22.966Z</time></trkpt><trkpt lat="45.37298704797221" lon="11.906297784998461"><ele>7.0</ele><time>2026-04-25T12:18:23.966Z</time></trkpt><trkpt lat="45.3728422595728" lon="11.906098423445805"><ele>7.0</ele><time>2026-04-25T12:18:24.965Z</time></trkpt><trkpt lat="45.37269724197878" lon="11.90590833829412"><ele>7.0</ele><time>2026-04-25T12:18:25.965Z</time></trkpt><trkpt lat="45.372552086468424" lon="11.905705553221479"><ele>7.0</ele><time>2026-04-25T12:18:26.965Z</time></trkpt><trkpt lat="45.372403102977614" lon="11.905489803981213"><ele>7.0</ele><time>2026-04-25T12:18:27.965Z</time></trkpt><trkpt lat="45.37226432487853" lon="11.905265532679705"><ele>7.0</ele><time>2026-04-25T12:18:28.965Z</time></trkpt><trkpt lat="45.372142607289256" lon="11.90503785763647"><ele>7.0</ele><time>2026-04-25T12:18:29.965Z</time></trkpt><trkpt lat="45.372038618317525" lon="11.904788923080165"><ele>7.0</ele><time>2026-04-25T12:18:30.965Z</time></trkpt><trkpt lat="45.37192922507344" lon="11.904541028357006"><ele>7.0</ele><time>2026-04-25T12:18:31.965Z</time></trkpt><trkpt lat="45.37179749796992" lon="11.904276143040034"><ele>7.0</ele><time>2026-04-25T12:18:32.965Z</time></trkpt><trkpt lat="45.371685801321995" lon="11.904005045409798"><ele>7.0</ele><time>2026-04-25T12:18:33.965Z</time></trkpt><trkpt lat="45.37157554230254" lon="11.90373347649774"><ele>7.0</ele><time>2026-04-25T12:18:34.965Z</time></trkpt><trkpt lat="45.371471008981885" lon="11.90346433576626"><ele>6.666666666666667</ele><time>2026-04-25T12:18:35.965Z</time></trkpt><trkpt lat="45.371372932613525" lon="11.903195227666725"><ele>6.333333333333334</ele><time>2026-04-25T12:18:36.965Z</time></trkpt><trkpt lat="45.37127885729631" lon="11.902916702472154"><ele>6.0</ele><time>2026-04-25T12:18:37.964Z</time></trkpt><trkpt lat="45.37118452741477" lon="11.902631838368404"><ele>6.333333333333334</ele><time>2026-04-25T12:18:38.964Z</time></trkpt><trkpt lat="45.371099857788685" lon="11.902346148376711"><ele>6.666666666666667</ele><time>2026-04-25T12:18:39.964Z</time></trkpt><trkpt lat="45.37101421311158" lon="11.90204933156518"><ele>7.0</ele><time>2026-04-25T12:18:40.964Z</time></trkpt><trkpt lat="45.37092806800682" lon="11.901756813491623"><ele>7.333333333333334</ele><time>2026-04-25T12:18:41.964Z</time></trkpt><trkpt lat="45.370844773331946" lon="11.901454137024512"><ele>7.666666666666666</ele><time>2026-04-25T12:18:42.964Z</time></trkpt><trkpt lat="45.370757653177535" lon="11.90116602591789"><ele>8.0</ele><time>2026-04-25T12:18:43.964Z</time></trkpt><trkpt lat="45.370673479227385" lon="11.90088014714376"><ele>8.0</ele><time>2026-04-25T12:18:44.964Z</time></trkpt><trkpt lat="45.37058872890783" lon="11.90059185224315"><ele>8.0</ele><time>2026-04-25T12:18:45.964Z</time></trkpt><trkpt lat="45.370510516577355" lon="11.900309464171912"><ele>8.0</ele><time>2026-04-25T12:18:46.964Z</time></trkpt><trkpt lat="45.37043127688824" lon="11.900031654323234"><ele>7.666666666666666</ele><time>2026-04-25T12:18:47.964Z</time></trkpt><trkpt lat="45.37035872278662" lon="11.899765727232772"><ele>7.333333333333334</ele><time>2026-04-25T12:18:48.964Z</time></trkpt><trkpt lat="45.37029250328121" lon="11.899519180030989"><ele>7.0</ele><time>2026-04-25T12:18:49.964Z</time></trkpt><trkpt lat="45.37023596826747" lon="11.899285449681011"><ele>7.0</ele><time>2026-04-25T12:18:50.964Z</time></trkpt><trkpt lat="45.3701897749334" lon="11.89908019822556"><ele>7.0</ele><time>2026-04-25T12:18:51.964Z</time></trkpt><trkpt lat="45.37013546604846" lon="11.898904470747981"><ele>7.0</ele><time>2026-04-25T12:18:52.964Z</time></trkpt><trkpt lat="45.37009617301597" lon="11.898751418137918"><ele>7.0</ele><time>2026-04-25T12:18:53.964Z</time></trkpt><trkpt lat="45.370065551510116" lon="11.898615405747986"><ele>7.000000000000001</ele><time>2026-04-25T12:18:54.964Z</time></trkpt><trkpt lat="45.37003654519008" lon="11.898503219606932"><ele>7.0</ele><time>2026-04-25T12:18:55.964Z</time></trkpt><trkpt lat="45.37007089414026" lon="11.89838296022357"><ele>7.0</ele><time>2026-04-25T12:18:56.964Z</time></trkpt><trkpt lat="45.37008586036441" lon="11.89828337914636"><ele>7.0</ele><time>2026-04-25T12:18:57.964Z</time></trkpt><trkpt lat="45.37009423088643" lon="11.898132315968862"><ele>7.000000000000001</ele><time>2026-04-25T12:18:59.964Z</time></trkpt><trkpt lat="45.37006745797586" lon="11.898031498171088"><ele>7.0</ele><time>2026-04-25T12:19:02.964Z</time></trkpt><trkpt lat="45.369990497277286" lon="11.898031715749719"><ele>7.000000000000001</ele><time>2026-04-25T12:21:37.96Z</time></trkpt><trkpt lat="45.36993859870111" lon="11.89794170224421"><ele>7.0</ele><time>2026-04-25T12:21:39.96Z</time></trkpt><trkpt lat="45.369891551762684" lon="11.89785272067927"><ele>7.0</ele><time>2026-04-25T12:21:41.96Z</time></trkpt><trkpt lat="45.36983913768183" lon="11.897785565566991"><ele>7.0</ele><time>2026-04-25T12:21:46.96Z</time></trkpt><trkpt lat="45.36979543543512" lon="11.897691086539046"><ele>7.000000000000001</ele><time>2026-04-25T12:21:50.96Z</time></trkpt><trkpt lat="45.36974173641919" lon="11.897555994295843"><ele>7.0</ele><time>2026-04-25T12:21:52.96Z</time></trkpt><trkpt lat="45.36971312648681" lon="11.897458156712078"><ele>7.199999999999999</ele><time>2026-04-25T12:21:53.96Z</time></trkpt><trkpt lat="45.36967420433454" lon="11.897340548403117"><ele>7.3999999999999995</ele><time>2026-04-25T12:21:54.96Z</time></trkpt><trkpt lat="45.36963377479209" lon="11.897215622521315"><ele>7.6000000000000005</ele><time>2026-04-25T12:21:55.96Z</time></trkpt><trkpt lat="45.36959296368349" lon="11.897072682857468"><ele>7.800000000000001</ele><time>2026-04-25T12:21:56.96Z</time></trkpt><trkpt lat="45.36954978793402" lon="11.8969239571937"><ele>8.0</ele><time>2026-04-25T12:21:57.96Z</time></trkpt><trkpt lat="45.36948805283624" lon="11.896752947218289"><ele>7.0</ele><time>2026-04-25T12:21:58.96Z</time></trkpt><trkpt lat="45.369425916501726" lon="11.896564937483088"><ele>6.0</ele><time>2026-04-25T12:21:59.96Z</time></trkpt><trkpt lat="45.36936336573801" lon="11.896354394497786"><ele>5.0</ele><time>2026-04-25T12:22:00.96Z</time></trkpt><trkpt lat="45.36929968400101" lon="11.89613550674421"><ele>5.0</ele><time>2026-04-25T12:22:01.96Z</time></trkpt><trkpt lat="45.36922826538152" lon="11.895911400543072"><ele>5.0</ele><time>2026-04-25T12:22:02.96Z</time></trkpt><trkpt lat="45.36915854628191" lon="11.895677898184953"><ele>5.0</ele><time>2026-04-25T12:22:03.96Z</time></trkpt><trkpt lat="45.36908684020937" lon="11.895441788972777"><ele>5.0</ele><time>2026-04-25T12:22:04.96Z</time></trkpt><trkpt lat="45.36901884526229" lon="11.89520771006137"><ele>5.0</ele><time>2026-04-25T12:22:05.96Z</time></trkpt><trkpt lat="45.36895218630844" lon="11.8949640861572"><ele>5.0</ele><time>2026-04-25T12:22:06.96Z</time></trkpt><trkpt lat="45.368886385053834" lon="11.894714642637203"><ele>5.666666666666667</ele><time>2026-04-25T12:22:07.96Z</time></trkpt><trkpt lat="45.36882302615671" lon="11.894467339761693"><ele>6.333333333333334</ele><time>2026-04-25T12:22:08.96Z</time></trkpt><trkpt lat="45.36876080770162" lon="11.894214017927018"><ele>7.0</ele><time>2026-04-25T12:22:09.96Z</time></trkpt><trkpt lat="45.36869899635757" lon="11.893960754812682"><ele>7.333333333333334</ele><time>2026-04-25T12:22:10.96Z</time></trkpt><trkpt lat="45.36863683331956" lon="11.893706423299095"><ele>7.666666666666666</ele><time>2026-04-25T12:22:11.96Z</time></trkpt><trkpt lat="45.36857508377355" lon="11.893451021201509"><ele>8.0</ele><time>2026-04-25T12:22:12.96Z</time></trkpt><trkpt lat="45.36851707603419" lon="11.893191025930868"><ele>8.0</ele><time>2026-04-25T12:22:13.96Z</time></trkpt><trkpt lat="45.36846127566567" lon="11.892933888956758"><ele>8.0</ele><time>2026-04-25T12:22:14.959Z</time></trkpt><trkpt lat="45.36840848539201" lon="11.89267484926235"><ele>8.0</ele><time>2026-04-25T12:22:15.959Z</time></trkpt><trkpt lat="45.36835757820898" lon="11.892423668163305"><ele>8.0</ele><time>2026-04-25T12:22:16.959Z</time></trkpt><trkpt lat="45.368309779683564" lon="11.892164533284895"><ele>8.0</ele><time>2026-04-25T12:22:17.959Z</time></trkpt><trkpt lat="45.36826386110446" lon="11.891908673563812"><ele>8.0</ele><time>2026-04-25T12:22:18.959Z</time></trkpt><trkpt lat="45.36821725656346" lon="11.891658671399869"><ele>7.666666666666666</ele><time>2026-04-25T12:22:19.959Z</time></trkpt><trkpt lat="45.36817662833915" lon="11.89141171066581"><ele>7.333333333333334</ele><time>2026-04-25T12:22:20.959Z</time></trkpt><trkpt lat="45.36813329340303" lon="11.891162612974867"><ele>7.0</ele><time>2026-04-25T12:22:21.959Z</time></trkpt><trkpt lat="45.368087008668056" lon="11.89091562873544"><ele>7.0</ele><time>2026-04-25T12:22:22.959Z</time></trkpt><trkpt lat="45.36803630274535" lon="11.890669773085849"><ele>7.0</ele><time>2026-04-25T12:22:23.959Z</time></trkpt><trkpt lat="45.36799105568259" lon="11.890420316295442"><ele>7.0</ele><time>2026-04-25T12:22:24.959Z</time></trkpt><trkpt lat="45.36794528587501" lon="11.89016832526381"><ele>7.333333333333334</ele><time>2026-04-25T12:22:25.959Z</time></trkpt><trkpt lat="45.36789708947487" lon="11.889917568862113"><ele>7.666666666666666</ele><time>2026-04-25T12:22:26.959Z</time></trkpt><trkpt lat="45.36784935501365" lon="11.889665233254934"><ele>8.0</ele><time>2026-04-25T12:22:27.959Z</time></trkpt><trkpt lat="45.36780119021021" lon="11.889409248151647"><ele>8.0</ele><time>2026-04-25T12:22:28.959Z</time></trkpt><trkpt lat="45.36775128348071" lon="11.889153269395042"><ele>8.0</ele><time>2026-04-25T12:22:29.959Z</time></trkpt><trkpt lat="45.36770382987188" lon="11.888894018624761"><ele>8.0</ele><time>2026-04-25T12:22:30.959Z</time></trkpt><trkpt lat="45.36765621503429" lon="11.888634373526491"><ele>7.333333333333333</ele><time>2026-04-25T12:22:31.959Z</time></trkpt><trkpt lat="45.36760539521532" lon="11.888368009857652"><ele>6.666666666666666</ele><time>2026-04-25T12:22:32.959Z</time></trkpt><trkpt lat="45.36755512466955" lon="11.88810248797377"><ele>6.0</ele><time>2026-04-25T12:22:33.961Z</time></trkpt><trkpt lat="45.3675071447085" lon="11.887839685616555"><ele>6.666666666666666</ele><time>2026-04-25T12:22:34.96Z</time></trkpt><trkpt lat="45.367461759342305" lon="11.887581916009982"><ele>7.333333333333333</ele><time>2026-04-25T12:22:35.96Z</time></trkpt><trkpt lat="45.36741758913206" lon="11.88732351904166"><ele>8.0</ele><time>2026-04-25T12:22:36.96Z</time></trkpt><trkpt lat="45.367370878149785" lon="11.887060065253173"><ele>8.0</ele><time>2026-04-25T12:22:37.96Z</time></trkpt><trkpt lat="45.36732196622053" lon="11.886798247382929"><ele>8.0</ele><time>2026-04-25T12:22:38.96Z</time></trkpt><trkpt lat="45.3672736281662" lon="11.886541041771872"><ele>8.0</ele><time>2026-04-25T12:22:39.961Z</time></trkpt><trkpt lat="45.367224622031465" lon="11.886279470808105"><ele>7.666666666666666</ele><time>2026-04-25T12:22:40.96Z</time></trkpt><trkpt lat="45.3671755728168" lon="11.886014630178897"><ele>7.333333333333334</ele><time>2026-04-25T12:22:41.96Z</time></trkpt><trkpt lat="45.36712811978523" lon="11.885752896133884"><ele>7.0</ele><time>2026-04-25T12:22:42.961Z</time></trkpt><trkpt lat="45.36707777661749" lon="11.885486988369083"><ele>7.0</ele><time>2026-04-25T12:22:43.959Z</time></trkpt><trkpt lat="45.36702141585273" lon="11.885219059681814"><ele>7.0</ele><time>2026-04-25T12:22:44.959Z</time></trkpt><trkpt lat="45.36697129312128" lon="11.884944674861735"><ele>7.0</ele><time>2026-04-25T12:22:45.959Z</time></trkpt><trkpt lat="45.36692595025241" lon="11.884658631387488"><ele>7.0</ele><time>2026-04-25T12:22:46.96Z</time></trkpt><trkpt lat="45.366872904427524" lon="11.884364137775853"><ele>7.0</ele><time>2026-04-25T12:22:47.96Z</time></trkpt><trkpt lat="45.36681587302273" lon="11.884070552395123"><ele>7.0</ele><time>2026-04-25T12:22:48.96Z</time></trkpt><trkpt lat="45.36676254050588" lon="11.883767702138348"><ele>7.0</ele><time>2026-04-25T12:22:49.96Z</time></trkpt><trkpt lat="45.366705247999455" lon="11.883450664094633"><ele>7.0</ele><time>2026-04-25T12:22:50.96Z</time></trkpt><trkpt lat="45.36664380205618" lon="11.883129789332093"><ele>8.0</ele><time>2026-04-25T12:22:51.96Z</time></trkpt><trkpt lat="45.36658075082522" lon="11.882806580033433"><ele>9.0</ele><time>2026-04-25T12:22:52.96Z</time></trkpt><trkpt lat="45.36651754509698" lon="11.8824680681476"><ele>9.0</ele><time>2026-04-25T12:22:53.96Z</time></trkpt><trkpt lat="45.36645032855135" lon="11.882127435302277"><ele>9.0</ele><time>2026-04-25T12:22:54.96Z</time></trkpt><trkpt lat="45.366383129316176" lon="11.881787160187256"><ele>8.5</ele><time>2026-04-25T12:22:55.959Z</time></trkpt><trkpt lat="45.3663086519745" lon="11.881437782443381"><ele>8.0</ele><time>2026-04-25T12:22:56.959Z</time></trkpt><trkpt lat="45.366240443812245" lon="11.881076656323456"><ele>8.0</ele><time>2026-04-25T12:22:57.959Z</time></trkpt><trkpt lat="45.36617490432245" lon="11.880711043951564"><ele>8.0</ele><time>2026-04-25T12:22:58.959Z</time></trkpt><trkpt lat="45.36610674100716" lon="11.880349803647809"><ele>8.0</ele><time>2026-04-25T12:22:59.959Z</time></trkpt><trkpt lat="45.36604207385422" lon="11.879994012017262"><ele>8.0</ele><time>2026-04-25T12:23:00.959Z</time></trkpt><trkpt lat="45.365976622940245" lon="11.879640917611358"><ele>8.0</ele><time>2026-04-25T12:23:01.959Z</time></trkpt><trkpt lat="45.36591279690237" lon="11.87928196037218"><ele>8.0</ele><time>2026-04-25T12:23:02.959Z</time></trkpt><trkpt lat="45.36584700082004" lon="11.878927884681305"><ele>8.0</ele><time>2026-04-25T12:23:03.959Z</time></trkpt><trkpt lat="45.36578390729554" lon="11.878575631639926"><ele>8.0</ele><time>2026-04-25T12:23:04.959Z</time></trkpt><trkpt lat="45.36571711199885" lon="11.878225331456354"><ele>7.5</ele><time>2026-04-25T12:23:05.959Z</time></trkpt><trkpt lat="45.365653277618804" lon="11.877870555972324"><ele>7.0</ele><time>2026-04-25T12:23:06.959Z</time></trkpt><trkpt lat="45.365586465123975" lon="11.877516644889523"><ele>7.0</ele><time>2026-04-25T12:23:07.959Z</time></trkpt><trkpt lat="45.36552084331764" lon="11.877159598182246"><ele>7.0</ele><time>2026-04-25T12:23:08.959Z</time></trkpt><trkpt lat="45.36546061101624" lon="11.876796450450898"><ele>7.0</ele><time>2026-04-25T12:23:09.959Z</time></trkpt><trkpt lat="45.365394801587435" lon="11.87644360062958"><ele>7.0</ele><time>2026-04-25T12:23:10.959Z</time></trkpt><trkpt lat="45.36532605600119" lon="11.876090541001233"><ele>7.5</ele><time>2026-04-25T12:23:11.959Z</time></trkpt><trkpt lat="45.365259421471265" lon="11.875738876482298"><ele>8.0</ele><time>2026-04-25T12:23:12.959Z</time></trkpt><trkpt lat="45.36519395272394" lon="11.875390469036812"><ele>8.5</ele><time>2026-04-25T12:23:13.959Z</time></trkpt><trkpt lat="45.365131059499355" lon="11.875048273117061"><ele>9.0</ele><time>2026-04-25T12:23:14.959Z</time></trkpt><trkpt lat="45.36506956262649" lon="11.874708968950904"><ele>9.0</ele><time>2026-04-25T12:23:15.959Z</time></trkpt><trkpt lat="45.365009773796025" lon="11.874368092862163"><ele>9.0</ele><time>2026-04-25T12:23:16.959Z</time></trkpt><trkpt lat="45.36495324429265" lon="11.874026704554268"><ele>9.0</ele><time>2026-04-25T12:23:17.959Z</time></trkpt><trkpt lat="45.36488965321216" lon="11.873685276841005"><ele>9.0</ele><time>2026-04-25T12:23:18.959Z</time></trkpt><trkpt lat="45.364825851731524" lon="11.873341535145633"><ele>9.0</ele><time>2026-04-25T12:23:19.959Z</time></trkpt><trkpt lat="45.3647620388933" lon="11.872995499660702"><ele>9.0</ele><time>2026-04-25T12:23:20.959Z</time></trkpt><trkpt lat="45.36469863645685" lon="11.872649103510884"><ele>9.0</ele><time>2026-04-25T12:23:21.959Z</time></trkpt><trkpt lat="45.36463723427896" lon="11.872307338167827"><ele>9.0</ele><time>2026-04-25T12:23:22.959Z</time></trkpt><trkpt lat="45.36457626437695" lon="11.871967208811638"><ele>10.5</ele><time>2026-04-25T12:23:23.959Z</time></trkpt><trkpt lat="45.36451092687098" lon="11.871624776246815"><ele>12.0</ele><time>2026-04-25T12:23:24.959Z</time></trkpt><trkpt lat="45.364445727375106" lon="11.871281128825615"><ele>11.5</ele><time>2026-04-25T12:23:25.959Z</time></trkpt><trkpt lat="45.36438829983861" lon="11.870939013208227"><ele>11.0</ele><time>2026-04-25T12:23:26.959Z</time></trkpt><trkpt lat="45.364328450720045" lon="11.870594632055575"><ele>11.0</ele><time>2026-04-25T12:23:27.959Z</time></trkpt><trkpt lat="45.36427075336655" lon="11.87024295384869"><ele>11.0</ele><time>2026-04-25T12:23:28.959Z</time></trkpt><trkpt lat="45.36421597957101" lon="11.869887289283175"><ele>9.5</ele><time>2026-04-25T12:23:29.959Z</time></trkpt><trkpt lat="45.36416032692965" lon="11.869528325139079"><ele>8.0</ele><time>2026-04-25T12:23:30.959Z</time></trkpt><trkpt lat="45.36411054293158" lon="11.869166636125948"><ele>8.0</ele><time>2026-04-25T12:23:31.959Z</time></trkpt><trkpt lat="45.364063801483205" lon="11.868800193220268"><ele>8.0</ele><time>2026-04-25T12:23:32.959Z</time></trkpt><trkpt lat="45.36401975373006" lon="11.868440674270708"><ele>8.0</ele><time>2026-04-25T12:23:33.959Z</time></trkpt><trkpt lat="45.36398034038344" lon="11.868079815158799"><ele>8.0</ele><time>2026-04-25T12:23:34.959Z</time></trkpt><trkpt lat="45.36394144372414" lon="11.86772864514935"><ele>7.5</ele><time>2026-04-25T12:23:35.959Z</time></trkpt><trkpt lat="45.363904373899814" lon="11.867377103242656"><ele>7.0</ele><time>2026-04-25T12:23:36.958Z</time></trkpt><trkpt lat="45.363870205171956" lon="11.86702245216684"><ele>7.5</ele><time>2026-04-25T12:23:37.958Z</time></trkpt><trkpt lat="45.36383802941997" lon="11.866670365959736"><ele>8.0</ele><time>2026-04-25T12:23:38.958Z</time></trkpt><trkpt lat="45.363807724946426" lon="11.866315877644453"><ele>8.0</ele><time>2026-04-25T12:23:39.958Z</time></trkpt><trkpt lat="45.3637829639291" lon="11.865964109361276"><ele>8.0</ele><time>2026-04-25T12:23:40.958Z</time></trkpt><trkpt lat="45.36375722786914" lon="11.865617753629968"><ele>8.0</ele><time>2026-04-25T12:23:41.958Z</time></trkpt><trkpt lat="45.36373292709661" lon="11.865272563880595"><ele>8.0</ele><time>2026-04-25T12:23:42.958Z</time></trkpt><trkpt lat="45.36371087039859" lon="11.86492600433073"><ele>8.0</ele><time>2026-04-25T12:23:43.958Z</time></trkpt><trkpt lat="45.36369122822774" lon="11.864582418098975"><ele>8.0</ele><time>2026-04-25T12:23:44.958Z</time></trkpt><trkpt lat="45.3636732020419" lon="11.864235643887248"><ele>7.5</ele><time>2026-04-25T12:23:45.958Z</time></trkpt><trkpt lat="45.36365901304102" lon="11.86389771218843"><ele>7.0</ele><time>2026-04-25T12:23:46.958Z</time></trkpt><trkpt lat="45.36364478406798" lon="11.863556519030757"><ele>7.0</ele><time>2026-04-25T12:23:47.958Z</time></trkpt><trkpt lat="45.363625176688956" lon="11.86321853913873"><ele>7.0</ele><time>2026-04-25T12:23:48.958Z</time></trkpt><trkpt lat="45.36360645923421" lon="11.862874540646958"><ele>7.5</ele><time>2026-04-25T12:23:49.958Z</time></trkpt><trkpt lat="45.36358853184657" lon="11.862541697591771"><ele>8.0</ele><time>2026-04-25T12:23:50.958Z</time></trkpt><trkpt lat="45.36356908422031" lon="11.862212966889738"><ele>8.0</ele><time>2026-04-25T12:23:51.958Z</time></trkpt><trkpt lat="45.36355115331429" lon="11.861886086993495"><ele>8.0</ele><time>2026-04-25T12:23:52.958Z</time></trkpt><trkpt lat="45.363537882092885" lon="11.861579746970127"><ele>8.0</ele><time>2026-04-25T12:23:53.958Z</time></trkpt><trkpt lat="45.363522659155855" lon="11.8613052421457"><ele>8.0</ele><time>2026-04-25T12:23:54.958Z</time></trkpt><trkpt lat="45.363505228579605" lon="11.86103874877814"><ele>8.0</ele><time>2026-04-25T12:23:55.958Z</time></trkpt><trkpt lat="45.363487437109576" lon="11.860782893495633"><ele>8.0</ele><time>2026-04-25T12:23:56.958Z</time></trkpt><trkpt lat="45.36347527617476" lon="11.86052282506153"><ele>7.666666666666666</ele><time>2026-04-25T12:23:57.958Z</time></trkpt><trkpt lat="45.363464804364554" lon="11.860252275840047"><ele>7.333333333333334</ele><time>2026-04-25T12:23:58.958Z</time></trkpt><trkpt lat="45.36345109745304" lon="11.85998605880387"><ele>7.0</ele><time>2026-04-25T12:23:59.958Z</time></trkpt><trkpt lat="45.36343723973905" lon="11.859714713673329"><ele>7.0</ele><time>2026-04-25T12:24:00.958Z</time></trkpt><trkpt lat="45.36342137879338" lon="11.859450195374798"><ele>7.0</ele><time>2026-04-25T12:24:01.958Z</time></trkpt><trkpt lat="45.363406796054385" lon="11.85919748207871"><ele>7.0</ele><time>2026-04-25T12:24:02.958Z</time></trkpt><trkpt lat="45.363394207389064" lon="11.858973254423772"><ele>7.25</ele><time>2026-04-25T12:24:03.958Z</time></trkpt><trkpt lat="45.363385331425796" lon="11.858761994225222"><ele>7.5</ele><time>2026-04-25T12:24:04.958Z</time></trkpt><trkpt lat="45.36337754217736" lon="11.85855805638131"><ele>7.75</ele><time>2026-04-25T12:24:05.958Z</time></trkpt><trkpt lat="45.36336927257761" lon="11.858350277643686"><ele>8.0</ele><time>2026-04-25T12:24:06.958Z</time></trkpt><trkpt lat="45.363358153299565" lon="11.858145422591729"><ele>8.0</ele><time>2026-04-25T12:24:07.958Z</time></trkpt><trkpt lat="45.36334603936594" lon="11.857954679490371"><ele>8.0</ele><time>2026-04-25T12:24:08.958Z</time></trkpt><trkpt lat="45.36333551184272" lon="11.857775141146513"><ele>8.0</ele><time>2026-04-25T12:24:09.958Z</time></trkpt><trkpt lat="45.36332547843567" lon="11.85759845703384"><ele>8.0</ele><time>2026-04-25T12:24:10.958Z</time></trkpt><trkpt lat="45.363316885706745" lon="11.85741944365696"><ele>8.25</ele><time>2026-04-25T12:24:11.958Z</time></trkpt><trkpt lat="45.36330818023079" lon="11.857232795656186"><ele>8.5</ele><time>2026-04-25T12:24:12.958Z</time></trkpt><trkpt lat="45.36329954322617" lon="11.857040777194866"><ele>8.75</ele><time>2026-04-25T12:24:13.958Z</time></trkpt><trkpt lat="45.36328799420141" lon="11.856845224635936"><ele>9.0</ele><time>2026-04-25T12:24:14.958Z</time></trkpt><trkpt lat="45.363274260217985" lon="11.856649161488814"><ele>8.0</ele><time>2026-04-25T12:24:15.958Z</time></trkpt><trkpt lat="45.36326097104027" lon="11.856440908666743"><ele>7.0</ele><time>2026-04-25T12:24:16.957Z</time></trkpt><trkpt lat="45.36324755010109" lon="11.85621857453935"><ele>6.0</ele><time>2026-04-25T12:24:17.957Z</time></trkpt><trkpt lat="45.363234148470404" lon="11.855995977190595"><ele>6.0</ele><time>2026-04-25T12:24:18.957Z</time></trkpt><trkpt lat="45.363214948958955" lon="11.855769093126522"><ele>6.0</ele><time>2026-04-25T12:24:19.957Z</time></trkpt><trkpt lat="45.36320875612598" lon="11.855532569705257"><ele>6.0</ele><time>2026-04-25T12:24:20.957Z</time></trkpt><trkpt lat="45.363202155205514" lon="11.855291809639455"><ele>6.333333333333334</ele><time>2026-04-25T12:24:21.957Z</time></trkpt><trkpt lat="45.363191163841115" lon="11.855052003285351"><ele>6.666666666666667</ele><time>2026-04-25T12:24:22.957Z</time></trkpt><trkpt lat="45.36318449217189" lon="11.85480012553884"><ele>7.0</ele><time>2026-04-25T12:24:23.957Z</time></trkpt><trkpt lat="45.36316983023233" lon="11.854559586797604"><ele>7.0</ele><time>2026-04-25T12:24:24.957Z</time></trkpt><trkpt lat="45.36315974434358" lon="11.854326258329472"><ele>7.0</ele><time>2026-04-25T12:24:25.957Z</time></trkpt><trkpt lat="45.36316047250611" lon="11.854108353788801"><ele>7.0</ele><time>2026-04-25T12:24:26.957Z</time></trkpt><trkpt lat="45.36318962530866" lon="11.853922828952753"><ele>7.0</ele><time>2026-04-25T12:24:27.957Z</time></trkpt><trkpt lat="45.36325250155084" lon="11.853753427087483"><ele>7.0</ele><time>2026-04-25T12:24:28.957Z</time></trkpt><trkpt lat="45.363340434466714" lon="11.853610913992922"><ele>7.0</ele><time>2026-04-25T12:24:29.957Z</time></trkpt><trkpt lat="45.36344606873921" lon="11.853493995666598"><ele>7.0</ele><time>2026-04-25T12:24:30.957Z</time></trkpt><trkpt lat="45.36356909326091" lon="11.853420017302074"><ele>7.0</ele><time>2026-04-25T12:24:31.957Z</time></trkpt><trkpt lat="45.36370327711989" lon="11.853400874788093"><ele>7.0</ele><time>2026-04-25T12:24:32.957Z</time></trkpt><trkpt lat="45.36382936676177" lon="11.853423705970245"><ele>7.0</ele><time>2026-04-25T12:24:33.957Z</time></trkpt><trkpt lat="45.36394660105888" lon="11.853493535614229"><ele>7.0</ele><time>2026-04-25T12:24:34.957Z</time></trkpt><trkpt lat="45.364050758625496" lon="11.853612247741436"><ele>7.25</ele><time>2026-04-25T12:24:35.957Z</time></trkpt><trkpt lat="45.36413390323149" lon="11.853757933877581"><ele>7.5</ele><time>2026-04-25T12:24:36.957Z</time></trkpt><trkpt lat="45.364190654217495" lon="11.853926948771354"><ele>7.75</ele><time>2026-04-25T12:24:37.957Z</time></trkpt><trkpt lat="45.364196908622304" lon="11.854117063515911"><ele>8.0</ele><time>2026-04-25T12:24:38.957Z</time></trkpt><trkpt lat="45.364169370832165" lon="11.854303908089836"><ele>8.0</ele><time>2026-04-25T12:24:39.958Z</time></trkpt><trkpt lat="45.36410555171556" lon="11.854470325211532"><ele>8.0</ele><time>2026-04-25T12:24:40.957Z</time></trkpt><trkpt lat="45.364010399535324" lon="11.854607561069937"><ele>8.0</ele><time>2026-04-25T12:24:41.957Z</time></trkpt><trkpt lat="45.36389620219763" lon="11.854723322490068"><ele>8.0</ele><time>2026-04-25T12:24:42.957Z</time></trkpt><trkpt lat="45.363753938024175" lon="11.854806839415911"><ele>7.666666666666666</ele><time>2026-04-25T12:24:43.957Z</time></trkpt><trkpt lat="45.36359523011607" lon="11.854844217763786"><ele>7.333333333333334</ele><time>2026-04-25T12:24:44.957Z</time></trkpt><trkpt lat="45.36343542830802" lon="11.854854360255521"><ele>7.0</ele><time>2026-04-25T12:24:45.957Z</time></trkpt><trkpt lat="45.363267127390394" lon="11.854852867517515"><ele>7.0</ele><time>2026-04-25T12:24:46.957Z</time></trkpt><trkpt lat="45.36309365335354" lon="11.854865011326119"><ele>7.0</ele><time>2026-04-25T12:24:47.957Z</time></trkpt><trkpt lat="45.3629128130897" lon="11.854873236353823"><ele>7.0</ele><time>2026-04-25T12:24:48.957Z</time></trkpt><trkpt lat="45.36272578357234" lon="11.85488676116368"><ele>7.333333333333334</ele><time>2026-04-25T12:24:49.956Z</time></trkpt><trkpt lat="45.362529926651725" lon="11.854917169113708"><ele>7.666666666666666</ele><time>2026-04-25T12:24:50.956Z</time></trkpt><trkpt lat="45.36233079923042" lon="11.854961621917584"><ele>8.0</ele><time>2026-04-25T12:24:51.957Z</time></trkpt><trkpt lat="45.362128632823" lon="11.854993972657835"><ele>9.0</ele><time>2026-04-25T12:24:52.957Z</time></trkpt><trkpt lat="45.36191942511118" lon="11.855013267905234"><ele>10.0</ele><time>2026-04-25T12:24:53.956Z</time></trkpt><trkpt lat="45.36170107527764" lon="11.855017863251625"><ele>11.0</ele><time>2026-04-25T12:24:54.956Z</time></trkpt><trkpt lat="45.361476296464765" lon="11.855024262991702"><ele>10.5</ele><time>2026-04-25T12:24:55.956Z</time></trkpt><trkpt lat="45.36125113362616" lon="11.85504374562634"><ele>10.0</ele><time>2026-04-25T12:24:56.956Z</time></trkpt><trkpt lat="45.3610154852606" lon="11.85506459858648"><ele>10.0</ele><time>2026-04-25T12:24:57.956Z</time></trkpt><trkpt lat="45.360774511656004" lon="11.85508195205589"><ele>10.0</ele><time>2026-04-25T12:24:58.956Z</time></trkpt><trkpt lat="45.3605266474841" lon="11.85510087582699"><ele>10.5</ele><time>2026-04-25T12:24:59.956Z</time></trkpt><trkpt lat="45.36026854629677" lon="11.85512024851755"><ele>11.0</ele><time>2026-04-25T12:25:00.956Z</time></trkpt><trkpt lat="45.360004719249964" lon="11.855135151356002"><ele>11.0</ele><time>2026-04-25T12:25:01.956Z</time></trkpt><trkpt lat="45.35973691570927" lon="11.855157522841836"><ele>11.0</ele><time>2026-04-25T12:25:02.956Z</time></trkpt><trkpt lat="45.359466133991035" lon="11.855177577726462"><ele>10.0</ele><time>2026-04-25T12:25:03.956Z</time></trkpt><trkpt lat="45.35920370181731" lon="11.855192776752602"><ele>9.0</ele><time>2026-04-25T12:25:04.956Z</time></trkpt><trkpt lat="45.358945110001024" lon="11.85520784022068"><ele>9.0</ele><time>2026-04-25T12:25:05.956Z</time></trkpt><trkpt lat="45.35868486658032" lon="11.855216029933453"><ele>9.0</ele><time>2026-04-25T12:25:06.956Z</time></trkpt><trkpt lat="45.358424874246715" lon="11.855220615560489"><ele>9.0</ele><time>2026-04-25T12:25:07.956Z</time></trkpt><trkpt lat="45.35816102597206" lon="11.85522564196004"><ele>9.0</ele><time>2026-04-25T12:25:08.956Z</time></trkpt><trkpt lat="45.357895348051464" lon="11.855218396679941"><ele>8.5</ele><time>2026-04-25T12:25:09.956Z</time></trkpt><trkpt lat="45.357628282233314" lon="11.855199355198327"><ele>8.0</ele><time>2026-04-25T12:25:10.956Z</time></trkpt><trkpt lat="45.357356314904884" lon="11.855164419608586"><ele>9.0</ele><time>2026-04-25T12:25:11.956Z</time></trkpt><trkpt lat="45.3570816941247" lon="11.8551199497368"><ele>10.0</ele><time>2026-04-25T12:25:12.956Z</time></trkpt><trkpt lat="45.35680634714662" lon="11.85506268981025"><ele>10.0</ele><time>2026-04-25T12:25:13.956Z</time></trkpt><trkpt lat="45.356531911670125" lon="11.854995816449467"><ele>10.0</ele><time>2026-04-25T12:25:14.956Z</time></trkpt><trkpt lat="45.35625413214402" lon="11.854914141132907"><ele>9.0</ele><time>2026-04-25T12:25:15.956Z</time></trkpt><trkpt lat="45.355975550469815" lon="11.854832526048144"><ele>8.0</ele><time>2026-04-25T12:25:16.956Z</time></trkpt><trkpt lat="45.3556989648739" lon="11.854749372726014"><ele>7.5</ele><time>2026-04-25T12:25:17.956Z</time></trkpt><trkpt lat="45.355416656159086" lon="11.8546591511684"><ele>7.0</ele><time>2026-04-25T12:25:18.956Z</time></trkpt><trkpt lat="45.35514001508103" lon="11.854564238254378"><ele>7.0</ele><time>2026-04-25T12:25:19.956Z</time></trkpt><trkpt lat="45.35486728238137" lon="11.854457848718726"><ele>7.0</ele><time>2026-04-25T12:25:20.956Z</time></trkpt><trkpt lat="45.354594400033264" lon="11.854336176581011"><ele>7.0</ele><time>2026-04-25T12:25:21.956Z</time></trkpt><trkpt lat="45.354324551326705" lon="11.854209024284852"><ele>7.0</ele><time>2026-04-25T12:25:22.956Z</time></trkpt><trkpt lat="45.35405505620746" lon="11.85407848927519"><ele>7.5</ele><time>2026-04-25T12:25:23.956Z</time></trkpt><trkpt lat="45.35378727340318" lon="11.853943221448757"><ele>8.0</ele><time>2026-04-25T12:25:24.956Z</time></trkpt><trkpt lat="45.353520121198834" lon="11.853805301145991"><ele>8.0</ele><time>2026-04-25T12:25:25.956Z</time></trkpt><trkpt lat="45.35325193818695" lon="11.85366751928534"><ele>8.0</ele><time>2026-04-25T12:25:26.956Z</time></trkpt><trkpt lat="45.352984311280814" lon="11.853532657008829"><ele>8.5</ele><time>2026-04-25T12:25:27.956Z</time></trkpt><trkpt lat="45.352717806826426" lon="11.853397866202494"><ele>9.0</ele><time>2026-04-25T12:25:28.956Z</time></trkpt><trkpt lat="45.35244907152237" lon="11.853267114647881"><ele>9.0</ele><time>2026-04-25T12:25:29.956Z</time></trkpt><trkpt lat="45.352179591934885" lon="11.853132881509055"><ele>9.0</ele><time>2026-04-25T12:25:30.956Z</time></trkpt><trkpt lat="45.351908630429435" lon="11.852994246512644"><ele>9.0</ele><time>2026-04-25T12:25:31.956Z</time></trkpt><trkpt lat="45.35163730899203" lon="11.852857193845082"><ele>9.0</ele><time>2026-04-25T12:25:32.956Z</time></trkpt><trkpt lat="45.35136748298723" lon="11.852716716223231"><ele>9.0</ele><time>2026-04-25T12:25:33.956Z</time></trkpt><trkpt lat="45.35109594264947" lon="11.852575917087801"><ele>9.0</ele><time>2026-04-25T12:25:34.956Z</time></trkpt><trkpt lat="45.350824556098004" lon="11.8524338031932"><ele>9.0</ele><time>2026-04-25T12:25:35.955Z</time></trkpt><trkpt lat="45.350552257497036" lon="11.852289670482913"><ele>9.0</ele><time>2026-04-25T12:25:36.955Z</time></trkpt><trkpt lat="45.35028266028263" lon="11.85214421419521"><ele>8.5</ele><time>2026-04-25T12:25:37.955Z</time></trkpt><trkpt lat="45.35001163145725" lon="11.852001792403108"><ele>8.0</ele><time>2026-04-25T12:25:38.955Z</time></trkpt><trkpt lat="45.349743550264336" lon="11.85185320674345"><ele>9.0</ele><time>2026-04-25T12:25:39.955Z</time></trkpt><trkpt lat="45.34947650270242" lon="11.851699094273757"><ele>10.0</ele><time>2026-04-25T12:25:40.955Z</time></trkpt><trkpt lat="45.349210729057866" lon="11.85153999849399"><ele>10.0</ele><time>2026-04-25T12:25:41.955Z</time></trkpt><trkpt lat="45.348946080010364" lon="11.85137863755106"><ele>10.0</ele><time>2026-04-25T12:25:42.955Z</time></trkpt><trkpt lat="45.348683541723666" lon="11.851212073628618"><ele>10.0</ele><time>2026-04-25T12:25:43.955Z</time></trkpt><trkpt lat="45.348421272097006" lon="11.85104218159033"><ele>10.0</ele><time>2026-04-25T12:25:44.955Z</time></trkpt><trkpt lat="45.348161524296344" lon="11.850866365323009"><ele>11.0</ele><time>2026-04-25T12:25:45.955Z</time></trkpt><trkpt lat="45.34790170184679" lon="11.850685925516062"><ele>12.0</ele><time>2026-04-25T12:25:46.955Z</time></trkpt><trkpt lat="45.3476449827084" lon="11.850501821787145"><ele>12.0</ele><time>2026-04-25T12:25:47.955Z</time></trkpt><trkpt lat="45.34739031366097" lon="11.850320916408082"><ele>12.0</ele><time>2026-04-25T12:25:48.955Z</time></trkpt><trkpt lat="45.3471415783012" lon="11.850137675886447"><ele>10.0</ele><time>2026-04-25T12:25:49.955Z</time></trkpt><trkpt lat="45.34690234305189" lon="11.849954800186612"><ele>8.0</ele><time>2026-04-25T12:25:50.955Z</time></trkpt><trkpt lat="45.346677835953486" lon="11.849783294146642"><ele>8.0</ele><time>2026-04-25T12:25:51.955Z</time></trkpt><trkpt lat="45.34647299205189" lon="11.84961413820236"><ele>8.0</ele><time>2026-04-25T12:25:52.955Z</time></trkpt><trkpt lat="45.346278184106055" lon="11.849458083388104"><ele>8.0</ele><time>2026-04-25T12:25:53.955Z</time></trkpt><trkpt lat="45.34609515204114" lon="11.849307752983142"><ele>8.0</ele><time>2026-04-25T12:25:54.955Z</time></trkpt><trkpt lat="45.34592612732396" lon="11.849160372192797"><ele>8.0</ele><time>2026-04-25T12:25:55.955Z</time></trkpt><trkpt lat="45.34577618971116" lon="11.84900872632536"><ele>8.0</ele><time>2026-04-25T12:25:56.955Z</time></trkpt><trkpt lat="45.345643873771465" lon="11.848836169376595"><ele>8.0</ele><time>2026-04-25T12:25:57.955Z</time></trkpt><trkpt lat="45.34551769195478" lon="11.848664595414453"><ele>8.0</ele><time>2026-04-25T12:25:58.955Z</time></trkpt><trkpt lat="45.345400655092234" lon="11.848518131048943"><ele>8.25</ele><time>2026-04-25T12:25:59.955Z</time></trkpt><trkpt lat="45.3452865183562" lon="11.848396825643768"><ele>8.5</ele><time>2026-04-25T12:26:00.955Z</time></trkpt><trkpt lat="45.345181703541684" lon="11.84830093352237"><ele>8.75</ele><time>2026-04-25T12:26:01.955Z</time></trkpt><trkpt lat="45.34509041197839" lon="11.84822056614341"><ele>9.0</ele><time>2026-04-25T12:26:02.955Z</time></trkpt><trkpt lat="45.34501228798038" lon="11.848158999199597"><ele>9.0</ele><time>2026-04-25T12:26:03.955Z</time></trkpt><trkpt lat="45.344947814163476" lon="11.848109769490746"><ele>9.0</ele><time>2026-04-25T12:26:04.955Z</time></trkpt><trkpt lat="45.34485419032711" lon="11.848032357200907"><ele>9.0</ele><time>2026-04-25T12:26:06.955Z</time></trkpt><trkpt lat="45.34479235686902" lon="11.847983839328089"><ele>9.0</ele><time>2026-04-25T12:26:08.955Z</time></trkpt><trkpt lat="45.34467475610085" lon="11.847912667743667"><ele>9.0</ele><time>2026-04-25T12:26:21.954Z</time></trkpt><trkpt lat="45.34459529688435" lon="11.847877193768792"><ele>9.0</ele><time>2026-04-25T12:26:22.954Z</time></trkpt><trkpt lat="45.34450372951702" lon="11.847834673610944"><ele>9.0</ele><time>2026-04-25T12:26:23.954Z</time></trkpt><trkpt lat="45.344410306838306" lon="11.84781404250284"><ele>9.0</ele><time>2026-04-25T12:26:24.954Z</time></trkpt><trkpt lat="45.34431481094638" lon="11.847796380968427"><ele>9.0</ele><time>2026-04-25T12:26:25.954Z</time></trkpt><trkpt lat="45.34422142891351" lon="11.847771163472238"><ele>9.0</ele><time>2026-04-25T12:26:26.954Z</time></trkpt><trkpt lat="45.344125857964315" lon="11.847735872952732"><ele>9.0</ele><time>2026-04-25T12:26:27.954Z</time></trkpt><trkpt lat="45.3440221215746" lon="11.847693148972473"><ele>9.0</ele><time>2026-04-25T12:26:28.954Z</time></trkpt><trkpt lat="45.34391234091118" lon="11.847631910716"><ele>9.0</ele><time>2026-04-25T12:26:29.954Z</time></trkpt><trkpt lat="45.343788687961634" lon="11.84754304350411"><ele>9.0</ele><time>2026-04-25T12:26:30.954Z</time></trkpt><trkpt lat="45.343641556068924" lon="11.847420663533589"><ele>8.5</ele><time>2026-04-25T12:26:31.954Z</time></trkpt><trkpt lat="45.343457197181884" lon="11.847278639913561"><ele>8.0</ele><time>2026-04-25T12:26:32.954Z</time></trkpt><trkpt lat="45.34322461768356" lon="11.847099514499636"><ele>7.0</ele><time>2026-04-25T12:26:33.954Z</time></trkpt><trkpt lat="45.342959007844016" lon="11.846876429635673"><ele>6.0</ele><time>2026-04-25T12:26:34.954Z</time></trkpt><trkpt lat="45.34266265959073" lon="11.846609502643298"><ele>6.0</ele><time>2026-04-25T12:26:35.954Z</time></trkpt><trkpt lat="45.3423194866254" lon="11.84632017144439"><ele>6.0</ele><time>2026-04-25T12:26:36.954Z</time></trkpt><trkpt lat="45.34194105131964" lon="11.846022271278455"><ele>7.5</ele><time>2026-04-25T12:26:37.954Z</time></trkpt><trkpt lat="45.341559649005106" lon="11.845737752322954"><ele>9.0</ele><time>2026-04-25T12:26:38.954Z</time></trkpt><trkpt lat="45.34121121520408" lon="11.845471330212954"><ele>9.0</ele><time>2026-04-25T12:26:39.954Z</time></trkpt><trkpt lat="45.340885340694776" lon="11.845226763731311"><ele>9.0</ele><time>2026-04-25T12:26:40.954Z</time></trkpt><trkpt lat="45.34058499145976" lon="11.84499211764613"><ele>8.0</ele><time>2026-04-25T12:26:41.954Z</time></trkpt><trkpt lat="45.340309452253635" lon="11.844769032335924"><ele>7.0</ele><time>2026-04-25T12:26:42.954Z</time></trkpt><trkpt lat="45.340035189011324" lon="11.844544692054546"><ele>7.0</ele><time>2026-04-25T12:26:43.954Z</time></trkpt><trkpt lat="45.33975442116525" lon="11.844319241079823"><ele>7.0</ele><time>2026-04-25T12:26:44.954Z</time></trkpt><trkpt lat="45.33946937716118" lon="11.844102240751784"><ele>7.5</ele><time>2026-04-25T12:26:45.954Z</time></trkpt><trkpt lat="45.339179231619745" lon="11.843864376687778"><ele>8.0</ele><time>2026-04-25T12:26:46.954Z</time></trkpt><trkpt lat="45.33889738845851" lon="11.843632187227033"><ele>7.0</ele><time>2026-04-25T12:26:47.954Z</time></trkpt><trkpt lat="45.338619611346" lon="11.843397756426192"><ele>6.0</ele><time>2026-04-25T12:26:48.954Z</time></trkpt><trkpt lat="45.33833598073174" lon="11.843177495950703"><ele>6.0</ele><time>2026-04-25T12:26:49.954Z</time></trkpt><trkpt lat="45.33804762645624" lon="11.842955295143188"><ele>6.0</ele><time>2026-04-25T12:26:50.954Z</time></trkpt><trkpt lat="45.337766009182594" lon="11.84272357240879"><ele>6.5</ele><time>2026-04-25T12:26:51.954Z</time></trkpt><trkpt lat="45.33748600229277" lon="11.842495864957048"><ele>7.0</ele><time>2026-04-25T12:26:52.954Z</time></trkpt><trkpt lat="45.33720979121588" lon="11.842266755198802"><ele>7.0</ele><time>2026-04-25T12:26:53.954Z</time></trkpt><trkpt lat="45.336932933664436" lon="11.84204442792885"><ele>7.0</ele><time>2026-04-25T12:26:54.954Z</time></trkpt><trkpt lat="45.336661015519226" lon="11.84181467386676"><ele>7.0</ele><time>2026-04-25T12:26:55.954Z</time></trkpt><trkpt lat="45.336389019614494" lon="11.841581474759845"><ele>7.0</ele><time>2026-04-25T12:26:56.954Z</time></trkpt><trkpt lat="45.336118616765724" lon="11.841342596716098"><ele>7.0</ele><time>2026-04-25T12:26:57.954Z</time></trkpt><trkpt lat="45.335846812552376" lon="11.841114804497833"><ele>7.0</ele><time>2026-04-25T12:26:58.953Z</time></trkpt><trkpt lat="45.335578952599384" lon="11.840895829842486"><ele>8.0</ele><time>2026-04-25T12:26:59.953Z</time></trkpt><trkpt lat="45.335313972478716" lon="11.84069075946037"><ele>9.0</ele><time>2026-04-25T12:27:00.953Z</time></trkpt><trkpt lat="45.33504997171171" lon="11.840504854476102"><ele>9.0</ele><time>2026-04-25T12:27:01.953Z</time></trkpt><trkpt lat="45.33480770067849" lon="11.840319120425056"><ele>9.0</ele><time>2026-04-25T12:27:02.953Z</time></trkpt><trkpt lat="45.33457245620297" lon="11.840142679689876"><ele>8.0</ele><time>2026-04-25T12:27:03.953Z</time></trkpt><trkpt lat="45.334340499220474" lon="11.839973639027008"><ele>7.0</ele><time>2026-04-25T12:27:04.953Z</time></trkpt><trkpt lat="45.334127336570766" lon="11.839802860943381"><ele>7.0</ele><time>2026-04-25T12:27:05.953Z</time></trkpt><trkpt lat="45.33392407170033" lon="11.839646006839672"><ele>7.0</ele><time>2026-04-25T12:27:06.953Z</time></trkpt><trkpt lat="45.33371712138317" lon="11.839485582273035"><ele>7.5</ele><time>2026-04-25T12:27:07.953Z</time></trkpt><trkpt lat="45.33350154429169" lon="11.839322880564687"><ele>8.0</ele><time>2026-04-25T12:27:08.953Z</time></trkpt><trkpt lat="45.333285521649394" lon="11.839157229622588"><ele>8.0</ele><time>2026-04-25T12:27:09.953Z</time></trkpt><trkpt lat="45.333062131005626" lon="11.838986536522286"><ele>8.0</ele><time>2026-04-25T12:27:10.953Z</time></trkpt><trkpt lat="45.332834543137714" lon="11.838808818389033"><ele>7.0</ele><time>2026-04-25T12:27:11.953Z</time></trkpt><trkpt lat="45.33260244880417" lon="11.838625263103182"><ele>6.0</ele><time>2026-04-25T12:27:12.953Z</time></trkpt><trkpt lat="45.33236432168454" lon="11.83843876578412"><ele>5.5</ele><time>2026-04-25T12:27:13.953Z</time></trkpt><trkpt lat="45.332124587990506" lon="11.838252636537113"><ele>5.0</ele><time>2026-04-25T12:27:14.953Z</time></trkpt><trkpt lat="45.331884719108324" lon="11.838065983402029"><ele>5.0</ele><time>2026-04-25T12:27:15.953Z</time></trkpt><trkpt lat="45.33163730687073" lon="11.837873686397877"><ele>5.0</ele><time>2026-04-25T12:27:16.953Z</time></trkpt><trkpt lat="45.331390319212616" lon="11.83768688164059"><ele>6.5</ele><time>2026-04-25T12:27:17.953Z</time></trkpt><trkpt lat="45.331142807960205" lon="11.83749605778873"><ele>8.0</ele><time>2026-04-25T12:27:18.953Z</time></trkpt><trkpt lat="45.33089571355478" lon="11.837302148112354"><ele>8.0</ele><time>2026-04-25T12:27:19.953Z</time></trkpt><trkpt lat="45.33065103077608" lon="11.837114931355536"><ele>8.0</ele><time>2026-04-25T12:27:20.953Z</time></trkpt><trkpt lat="45.33040553555112" lon="11.836923927032618"><ele>7.5</ele><time>2026-04-25T12:27:21.953Z</time></trkpt><trkpt lat="45.33016086053938" lon="11.836729773850177"><ele>7.0</ele><time>2026-04-25T12:27:22.953Z</time></trkpt><trkpt lat="45.32991938325564" lon="11.836538072455985"><ele>8.0</ele><time>2026-04-25T12:27:23.953Z</time></trkpt><trkpt lat="45.32967544430844" lon="11.836343044225648"><ele>9.0</ele><time>2026-04-25T12:27:24.953Z</time></trkpt><trkpt lat="45.329430235786816" lon="11.836149815731773"><ele>8.0</ele><time>2026-04-25T12:27:25.953Z</time></trkpt><trkpt lat="45.32918571182163" lon="11.83595772082565"><ele>7.0</ele><time>2026-04-25T12:27:26.953Z</time></trkpt><trkpt lat="45.32893851402644" lon="11.835766744962822"><ele>7.5</ele><time>2026-04-25T12:27:27.953Z</time></trkpt><trkpt lat="45.32869027794421" lon="11.835571556316715"><ele>8.0</ele><time>2026-04-25T12:27:28.953Z</time></trkpt><trkpt lat="45.32844206158631" lon="11.8353768361629"><ele>8.0</ele><time>2026-04-25T12:27:29.953Z</time></trkpt><trkpt lat="45.328194015922605" lon="11.835179860632476"><ele>8.0</ele><time>2026-04-25T12:27:30.953Z</time></trkpt><trkpt lat="45.32794561922854" lon="11.834980977847843"><ele>8.0</ele><time>2026-04-25T12:27:31.952Z</time></trkpt><trkpt lat="45.327699005769816" lon="11.834783036142905"><ele>8.0</ele><time>2026-04-25T12:27:32.952Z</time></trkpt><trkpt lat="45.327450623794135" lon="11.834582201169129"><ele>7.5</ele><time>2026-04-25T12:27:33.952Z</time></trkpt><trkpt lat="45.32720574468687" lon="11.834386541024987"><ele>7.0</ele><time>2026-04-25T12:27:34.952Z</time></trkpt><trkpt lat="45.326963704262944" lon="11.834194843823699"><ele>7.0</ele><time>2026-04-25T12:27:35.952Z</time></trkpt><trkpt lat="45.32672606328321" lon="11.83400283730697"><ele>7.0</ele><time>2026-04-25T12:27:36.952Z</time></trkpt><trkpt lat="45.326488895172616" lon="11.833811285274711"><ele>7.5</ele><time>2026-04-25T12:27:37.952Z</time></trkpt><trkpt lat="45.32625138793183" lon="11.833623224232026"><ele>8.0</ele><time>2026-04-25T12:27:38.952Z</time></trkpt><trkpt lat="45.32601173688048" lon="11.833437822934767"><ele>8.0</ele><time>2026-04-25T12:27:39.952Z</time></trkpt><trkpt lat="45.32577284231172" lon="11.833255625809022"><ele>8.0</ele><time>2026-04-25T12:27:40.952Z</time></trkpt><trkpt lat="45.32553385317959" lon="11.833068944570195"><ele>8.0</ele><time>2026-04-25T12:27:41.952Z</time></trkpt><trkpt lat="45.32529929565393" lon="11.832876713285653"><ele>8.0</ele><time>2026-04-25T12:27:42.952Z</time></trkpt><trkpt lat="45.32506522985633" lon="11.832693104890224"><ele>8.0</ele><time>2026-04-25T12:27:43.952Z</time></trkpt><trkpt lat="45.32483439815034" lon="11.832504384465427"><ele>8.0</ele><time>2026-04-25T12:27:44.952Z</time></trkpt><trkpt lat="45.324601513908455" lon="11.832325733810672"><ele>8.0</ele><time>2026-04-25T12:27:45.952Z</time></trkpt><trkpt lat="45.32436237197317" lon="11.832146068046118"><ele>8.0</ele><time>2026-04-25T12:27:46.952Z</time></trkpt><trkpt lat="45.32412144303321" lon="11.831957680130568"><ele>8.5</ele><time>2026-04-25T12:27:47.952Z</time></trkpt><trkpt lat="45.323881953322164" lon="11.831773011047328"><ele>9.0</ele><time>2026-04-25T12:27:48.952Z</time></trkpt><trkpt lat="45.323638462809534" lon="11.831591003209738"><ele>9.0</ele><time>2026-04-25T12:27:49.952Z</time></trkpt><trkpt lat="45.32339338164405" lon="11.831407028158383"><ele>9.0</ele><time>2026-04-25T12:27:50.952Z</time></trkpt><trkpt lat="45.32314563824665" lon="11.831228681952593"><ele>8.0</ele><time>2026-04-25T12:27:51.952Z</time></trkpt><trkpt lat="45.322891563472666" lon="11.831048900729114"><ele>7.0</ele><time>2026-04-25T12:27:52.952Z</time></trkpt><trkpt lat="45.32263575280646" lon="11.830861907626856"><ele>7.0</ele><time>2026-04-25T12:27:53.952Z</time></trkpt><trkpt lat="45.32238226084134" lon="11.830688017223943"><ele>7.0</ele><time>2026-04-25T12:27:54.952Z</time></trkpt><trkpt lat="45.32213727807707" lon="11.8305136606753"><ele>7.0</ele><time>2026-04-25T12:27:55.952Z</time></trkpt><trkpt lat="45.321895766519724" lon="11.830340583217737"><ele>7.0</ele><time>2026-04-25T12:27:56.952Z</time></trkpt><trkpt lat="45.32165543584183" lon="11.830174712669548"><ele>7.0</ele><time>2026-04-25T12:27:57.952Z</time></trkpt><trkpt lat="45.32141734336164" lon="11.830014091008612"><ele>7.0</ele><time>2026-04-25T12:27:58.952Z</time></trkpt><trkpt lat="45.32117809324445" lon="11.829852470690843"><ele>8.0</ele><time>2026-04-25T12:27:59.952Z</time></trkpt><trkpt lat="45.320929985542016" lon="11.829688813817427"><ele>9.0</ele><time>2026-04-25T12:28:00.952Z</time></trkpt><trkpt lat="45.32067927065438" lon="11.829516832462149"><ele>8.0</ele><time>2026-04-25T12:28:01.952Z</time></trkpt><trkpt lat="45.32042563375664" lon="11.829344439502"><ele>7.0</ele><time>2026-04-25T12:28:02.952Z</time></trkpt><trkpt lat="45.32017457570516" lon="11.829176783216539"><ele>7.0</ele><time>2026-04-25T12:28:03.952Z</time></trkpt><trkpt lat="45.31992456906972" lon="11.829008091197288"><ele>7.0</ele><time>2026-04-25T12:28:04.952Z</time></trkpt><trkpt lat="45.31967750699552" lon="11.828841199284367"><ele>7.0</ele><time>2026-04-25T12:28:05.952Z</time></trkpt><trkpt lat="45.31942930210914" lon="11.828673171845326"><ele>7.0</ele><time>2026-04-25T12:28:06.952Z</time></trkpt><trkpt lat="45.31918403485321" lon="11.828509008870592"><ele>7.0</ele><time>2026-04-25T12:28:07.952Z</time></trkpt><trkpt lat="45.31894054226949" lon="11.828343035422938"><ele>7.0</ele><time>2026-04-25T12:28:08.952Z</time></trkpt><trkpt lat="45.31869629649174" lon="11.828177541577844"><ele>6.5</ele><time>2026-04-25T12:28:09.952Z</time></trkpt><trkpt lat="45.318451150375545" lon="11.828012699575188"><ele>6.0</ele><time>2026-04-25T12:28:10.952Z</time></trkpt><trkpt lat="45.31820404743732" lon="11.827848784500528"><ele>6.0</ele><time>2026-04-25T12:28:11.952Z</time></trkpt><trkpt lat="45.31795307580506" lon="11.827680859996685"><ele>6.0</ele><time>2026-04-25T12:28:12.952Z</time></trkpt><trkpt lat="45.3177034169876" lon="11.827515476483914"><ele>6.5</ele><time>2026-04-25T12:28:13.951Z</time></trkpt><trkpt lat="45.31745805985556" lon="11.827348246719739"><ele>7.0</ele><time>2026-04-25T12:28:14.951Z</time></trkpt><trkpt lat="45.31720993941531" lon="11.827171641560504"><ele>7.0</ele><time>2026-04-25T12:28:15.951Z</time></trkpt><trkpt lat="45.316964084327005" lon="11.82699701888738"><ele>7.0</ele><time>2026-04-25T12:28:16.951Z</time></trkpt><trkpt lat="45.316709709960186" lon="11.82682254086323"><ele>7.5</ele><time>2026-04-25T12:28:17.951Z</time></trkpt><trkpt lat="45.31645293034568" lon="11.82664838059902"><ele>8.0</ele><time>2026-04-25T12:28:18.951Z</time></trkpt><trkpt lat="45.31619893966177" lon="11.826477480038614"><ele>8.5</ele><time>2026-04-25T12:28:19.951Z</time></trkpt><trkpt lat="45.31594046296012" lon="11.826301403547843"><ele>9.0</ele><time>2026-04-25T12:28:20.951Z</time></trkpt><trkpt lat="45.31568056345901" lon="11.82612341760032"><ele>8.5</ele><time>2026-04-25T12:28:21.951Z</time></trkpt><trkpt lat="45.3154203742689" lon="11.825945601248476"><ele>8.0</ele><time>2026-04-25T12:28:22.951Z</time></trkpt><trkpt lat="45.31515623447964" lon="11.825771010381265"><ele>8.0</ele><time>2026-04-25T12:28:23.951Z</time></trkpt><trkpt lat="45.31489567541508" lon="11.825597847365076"><ele>8.0</ele><time>2026-04-25T12:28:24.951Z</time></trkpt><trkpt lat="45.314638218973194" lon="11.825424596204961"><ele>7.0</ele><time>2026-04-25T12:28:25.951Z</time></trkpt><trkpt lat="45.31437903728836" lon="11.82525517494713"><ele>6.0</ele><time>2026-04-25T12:28:26.951Z</time></trkpt><trkpt lat="45.31412196495051" lon="11.825083061840804"><ele>5.5</ele><time>2026-04-25T12:28:27.951Z</time></trkpt><trkpt lat="45.31386468581221" lon="11.824911575802847"><ele>5.0</ele><time>2026-04-25T12:28:28.951Z</time></trkpt><trkpt lat="45.313614447132416" lon="11.824736252526952"><ele>5.0</ele><time>2026-04-25T12:28:29.951Z</time></trkpt><trkpt lat="45.313360653659316" lon="11.82456117716493"><ele>5.0</ele><time>2026-04-25T12:28:30.951Z</time></trkpt><trkpt lat="45.31310643988338" lon="11.824390864106196"><ele>5.0</ele><time>2026-04-25T12:28:31.951Z</time></trkpt><trkpt lat="45.31285441737414" lon="11.824222385330577"><ele>5.0</ele><time>2026-04-25T12:28:32.951Z</time></trkpt><trkpt lat="45.31260242013224" lon="11.824047094886874"><ele>5.0</ele><time>2026-04-25T12:28:33.951Z</time></trkpt><trkpt lat="45.312351217837595" lon="11.823874782360214"><ele>5.0</ele><time>2026-04-25T12:28:34.951Z</time></trkpt><trkpt lat="45.31209886852774" lon="11.823700487880595"><ele>5.5</ele><time>2026-04-25T12:28:35.951Z</time></trkpt><trkpt lat="45.31184404999507" lon="11.823532052146058"><ele>6.0</ele><time>2026-04-25T12:28:36.951Z</time></trkpt><trkpt lat="45.31158606625168" lon="11.823364040413017"><ele>7.5</ele><time>2026-04-25T12:28:37.951Z</time></trkpt><trkpt lat="45.31132480699186" lon="11.823200155150678"><ele>9.0</ele><time>2026-04-25T12:28:38.951Z</time></trkpt><trkpt lat="45.3110650441278" lon="11.82303754542895"><ele>9.0</ele><time>2026-04-25T12:28:39.951Z</time></trkpt><trkpt lat="45.31080431250448" lon="11.822869352974745"><ele>9.0</ele><time>2026-04-25T12:28:40.951Z</time></trkpt><trkpt lat="45.31054561031596" lon="11.822693708009359"><ele>7.5</ele><time>2026-04-25T12:28:41.951Z</time></trkpt><trkpt lat="45.3102863600296" lon="11.822515967057425"><ele>6.0</ele><time>2026-04-25T12:28:42.951Z</time></trkpt><trkpt lat="45.310029398655814" lon="11.82233361891731"><ele>6.0</ele><time>2026-04-25T12:28:43.951Z</time></trkpt><trkpt lat="45.309773891757295" lon="11.82215122493106"><ele>6.0</ele><time>2026-04-25T12:28:44.951Z</time></trkpt><trkpt lat="45.30951647036682" lon="11.821963123958483"><ele>5.5</ele><time>2026-04-25T12:28:45.951Z</time></trkpt><trkpt lat="45.30925817704642" lon="11.821777029459636"><ele>5.0</ele><time>2026-04-25T12:28:46.951Z</time></trkpt><trkpt lat="45.30900052147011" lon="11.82159170131322"><ele>5.0</ele><time>2026-04-25T12:28:47.951Z</time></trkpt><trkpt lat="45.30874006591096" lon="11.82140817089161"><ele>5.0</ele><time>2026-04-25T12:28:48.951Z</time></trkpt><trkpt lat="45.308477435673964" lon="11.821224029467269"><ele>5.0</ele><time>2026-04-25T12:28:49.951Z</time></trkpt><trkpt lat="45.3082090094715" lon="11.821047322924933"><ele>5.0</ele><time>2026-04-25T12:28:50.951Z</time></trkpt><trkpt lat="45.307947436062975" lon="11.820872463717098"><ele>5.5</ele><time>2026-04-25T12:28:51.95Z</time></trkpt><trkpt lat="45.307682410411026" lon="11.820692371266542"><ele>6.0</ele><time>2026-04-25T12:28:52.95Z</time></trkpt><trkpt lat="45.30741912300692" lon="11.820516646718778"><ele>6.0</ele><time>2026-04-25T12:28:53.95Z</time></trkpt><trkpt lat="45.30715415568697" lon="11.820336420209285"><ele>6.0</ele><time>2026-04-25T12:28:54.95Z</time></trkpt><trkpt lat="45.306887831876516" lon="11.820150637431539"><ele>5.5</ele><time>2026-04-25T12:28:55.95Z</time></trkpt><trkpt lat="45.30662674205402" lon="11.819966035570278"><ele>5.0</ele><time>2026-04-25T12:28:56.95Z</time></trkpt><trkpt lat="45.3063679469379" lon="11.819779928818964"><ele>6.0</ele><time>2026-04-25T12:28:57.951Z</time></trkpt><trkpt lat="45.306110821915865" lon="11.81959055397132"><ele>7.0</ele><time>2026-04-25T12:28:58.95Z</time></trkpt><trkpt lat="45.305857178658336" lon="11.819396266989616"><ele>6.5</ele><time>2026-04-25T12:28:59.95Z</time></trkpt><trkpt lat="45.30560449878033" lon="11.819198027194343"><ele>6.0</ele><time>2026-04-25T12:29:00.951Z</time></trkpt><trkpt lat="45.30535932320823" lon="11.81899507940543"><ele>5.5</ele><time>2026-04-25T12:29:01.95Z</time></trkpt><trkpt lat="45.30511907370902" lon="11.818785388137847"><ele>5.0</ele><time>2026-04-25T12:29:02.95Z</time></trkpt><trkpt lat="45.304882614148916" lon="11.818566536542038"><ele>6.5</ele><time>2026-04-25T12:29:03.95Z</time></trkpt><trkpt lat="45.30464788907835" lon="11.818345795506252"><ele>8.0</ele><time>2026-04-25T12:29:04.95Z</time></trkpt><trkpt lat="45.3044135396289" lon="11.818118613470036"><ele>8.0</ele><time>2026-04-25T12:29:05.95Z</time></trkpt><trkpt lat="45.30418164102852" lon="11.817905550292812"><ele>8.0</ele><time>2026-04-25T12:29:06.95Z</time></trkpt><trkpt lat="45.30395284914969" lon="11.817682515592876"><ele>8.0</ele><time>2026-04-25T12:29:07.95Z</time></trkpt><trkpt lat="45.303722819531984" lon="11.817450566980144"><ele>8.0</ele><time>2026-04-25T12:29:08.95Z</time></trkpt><trkpt lat="45.30349397545979" lon="11.817208040090698"><ele>8.0</ele><time>2026-04-25T12:29:09.95Z</time></trkpt><trkpt lat="45.30326723576577" lon="11.81695317325489"><ele>8.0</ele><time>2026-04-25T12:29:10.95Z</time></trkpt><trkpt lat="45.30304248409779" lon="11.816696151640127"><ele>7.0</ele><time>2026-04-25T12:29:11.95Z</time></trkpt><trkpt lat="45.302816541245626" lon="11.816433987244046"><ele>6.0</ele><time>2026-04-25T12:29:12.95Z</time></trkpt><trkpt lat="45.302594146100404" lon="11.816168947236374"><ele>6.5</ele><time>2026-04-25T12:29:13.95Z</time></trkpt><trkpt lat="45.30237641769179" lon="11.81590090643543"><ele>7.0</ele><time>2026-04-25T12:29:14.95Z</time></trkpt><trkpt lat="45.30215753675997" lon="11.815630468094263"><ele>7.0</ele><time>2026-04-25T12:29:15.95Z</time></trkpt><trkpt lat="45.301937271448416" lon="11.815360301561208"><ele>7.0</ele><time>2026-04-25T12:29:16.95Z</time></trkpt><trkpt lat="45.301719776037366" lon="11.81509700418904"><ele>7.0</ele><time>2026-04-25T12:29:17.95Z</time></trkpt><trkpt lat="45.301495302914475" lon="11.814832020061079"><ele>7.0</ele><time>2026-04-25T12:29:18.95Z</time></trkpt><trkpt lat="45.301274281326045" lon="11.814565124251807"><ele>6.5</ele><time>2026-04-25T12:29:19.95Z</time></trkpt><trkpt lat="45.301052307643474" lon="11.8143018692953"><ele>6.0</ele><time>2026-04-25T12:29:20.95Z</time></trkpt><trkpt lat="45.3008315444697" lon="11.814035416005686"><ele>6.0</ele><time>2026-04-25T12:29:21.95Z</time></trkpt><trkpt lat="45.30060953852732" lon="11.813768581614408"><ele>6.0</ele><time>2026-04-25T12:29:22.95Z</time></trkpt><trkpt lat="45.30039247519807" lon="11.813502716245843"><ele>5.0</ele><time>2026-04-25T12:29:23.95Z</time></trkpt><trkpt lat="45.300174018169706" lon="11.813240941500911"><ele>4.0</ele><time>2026-04-25T12:29:24.95Z</time></trkpt><trkpt lat="45.29995832891102" lon="11.812980576622698"><ele>4.0</ele><time>2026-04-25T12:29:25.95Z</time></trkpt><trkpt lat="45.2997412551204" lon="11.812717225312978"><ele>4.0</ele><time>2026-04-25T12:29:26.95Z</time></trkpt><trkpt lat="45.29952455176484" lon="11.812457809504735"><ele>4.0</ele><time>2026-04-25T12:29:27.95Z</time></trkpt><trkpt lat="45.29930836444313" lon="11.81219939314912"><ele>4.0</ele><time>2026-04-25T12:29:28.95Z</time></trkpt><trkpt lat="45.29908984877854" lon="11.81193766189844"><ele>4.0</ele><time>2026-04-25T12:29:29.95Z</time></trkpt><trkpt lat="45.29887219860758" lon="11.811674555561181"><ele>4.0</ele><time>2026-04-25T12:29:30.95Z</time></trkpt><trkpt lat="45.29865488657097" lon="11.811410837588342"><ele>4.0</ele><time>2026-04-25T12:29:31.95Z</time></trkpt><trkpt lat="45.2984375969814" lon="11.811147976679162"><ele>4.0</ele><time>2026-04-25T12:29:32.95Z</time></trkpt><trkpt lat="45.2982168257225" lon="11.810888557423247"><ele>4.5</ele><time>2026-04-25T12:29:33.95Z</time></trkpt><trkpt lat="45.29799540017361" lon="11.810625620991079"><ele>5.0</ele><time>2026-04-25T12:29:34.95Z</time></trkpt><trkpt lat="45.297775313793984" lon="11.810361062547784"><ele>5.5</ele><time>2026-04-25T12:29:35.95Z</time></trkpt><trkpt lat="45.29755094158314" lon="11.81009113521016"><ele>6.0</ele><time>2026-04-25T12:29:36.95Z</time></trkpt><trkpt lat="45.297324376656036" lon="11.809820788937417"><ele>6.0</ele><time>2026-04-25T12:29:37.95Z</time></trkpt><trkpt lat="45.29709504416049" lon="11.80954993650304"><ele>6.0</ele><time>2026-04-25T12:29:38.95Z</time></trkpt><trkpt lat="45.296872484842645" lon="11.809278791230405"><ele>4.5</ele><time>2026-04-25T12:29:39.95Z</time></trkpt><trkpt lat="45.29664869867066" lon="11.809002476614957"><ele>3.0</ele><time>2026-04-25T12:29:40.95Z</time></trkpt><trkpt lat="45.29642039416268" lon="11.808730275037119"><ele>3.5</ele><time>2026-04-25T12:29:41.95Z</time></trkpt><trkpt lat="45.296193726988534" lon="11.808451192906448"><ele>4.0</ele><time>2026-04-25T12:29:42.95Z</time></trkpt><trkpt lat="45.29596496813988" lon="11.808179519414917"><ele>4.0</ele><time>2026-04-25T12:29:43.95Z</time></trkpt><trkpt lat="45.29573847368684" lon="11.807901179100437"><ele>4.0</ele><time>2026-04-25T12:29:44.949Z</time></trkpt><trkpt lat="45.29551138461723" lon="11.807624897507061"><ele>4.0</ele><time>2026-04-25T12:29:45.949Z</time></trkpt><trkpt lat="45.295301094309636" lon="11.80735734709934"><ele>4.0</ele><time>2026-04-25T12:29:46.949Z</time></trkpt><trkpt lat="45.295096998554676" lon="11.807112419971784"><ele>4.0</ele><time>2026-04-25T12:29:47.949Z</time></trkpt><trkpt lat="45.29489339364146" lon="11.806862596110657"><ele>4.0</ele><time>2026-04-25T12:29:48.949Z</time></trkpt><trkpt lat="45.29467830462513" lon="11.806612349562265"><ele>4.5</ele><time>2026-04-25T12:29:49.949Z</time></trkpt><trkpt lat="45.294462783194625" lon="11.806355679066606"><ele>5.0</ele><time>2026-04-25T12:29:50.949Z</time></trkpt><trkpt lat="45.294247137129226" lon="11.806094428759957"><ele>5.0</ele><time>2026-04-25T12:29:51.949Z</time></trkpt><trkpt lat="45.29403103579291" lon="11.805837635326052"><ele>5.0</ele><time>2026-04-25T12:29:52.949Z</time></trkpt><trkpt lat="45.293811126202016" lon="11.805570540755697"><ele>4.5</ele><time>2026-04-25T12:29:53.949Z</time></trkpt><trkpt lat="45.29358774248972" lon="11.80529779073683"><ele>4.0</ele><time>2026-04-25T12:29:54.949Z</time></trkpt><trkpt lat="45.29336569398267" lon="11.805025141085906"><ele>3.5</ele><time>2026-04-25T12:29:55.949Z</time></trkpt><trkpt lat="45.2931429116146" lon="11.804759982429962"><ele>3.0</ele><time>2026-04-25T12:29:56.949Z</time></trkpt><trkpt lat="45.292921681362095" lon="11.804489000608449"><ele>3.0</ele><time>2026-04-25T12:29:57.949Z</time></trkpt><trkpt lat="45.29269579651679" lon="11.804224874203141"><ele>3.0</ele><time>2026-04-25T12:29:58.949Z</time></trkpt><trkpt lat="45.29247477563659" lon="11.803958442871977"><ele>3.0</ele><time>2026-04-25T12:29:59.949Z</time></trkpt><trkpt lat="45.29225836621874" lon="11.803691359897465"><ele>3.0</ele><time>2026-04-25T12:30:00.949Z</time></trkpt><trkpt lat="45.2920405114621" lon="11.803428224570702"><ele>3.5</ele><time>2026-04-25T12:30:01.949Z</time></trkpt><trkpt lat="45.29181409319632" lon="11.80315708856308"><ele>4.0</ele><time>2026-04-25T12:30:02.949Z</time></trkpt><trkpt lat="45.2915906201619" lon="11.802893916219094"><ele>4.5</ele><time>2026-04-25T12:30:03.949Z</time></trkpt><trkpt lat="45.29136929689438" lon="11.802629358187534"><ele>5.0</ele><time>2026-04-25T12:30:04.949Z</time></trkpt><trkpt lat="45.29115529836273" lon="11.802366972322242"><ele>5.0</ele><time>2026-04-25T12:30:05.949Z</time></trkpt><trkpt lat="45.290945209207166" lon="11.802112224692964"><ele>5.0</ele><time>2026-04-25T12:30:06.949Z</time></trkpt><trkpt lat="45.290727954455114" lon="11.801859911539086"><ele>5.0</ele><time>2026-04-25T12:30:07.949Z</time></trkpt><trkpt lat="45.2905118877798" lon="11.80161348815942"><ele>5.0</ele><time>2026-04-25T12:30:08.949Z</time></trkpt><trkpt lat="45.29029306614632" lon="11.801372655878623"><ele>5.0</ele><time>2026-04-25T12:30:09.949Z</time></trkpt><trkpt lat="45.290070714955434" lon="11.801135682939895"><ele>5.0</ele><time>2026-04-25T12:30:10.949Z</time></trkpt><trkpt lat="45.2898460590153" lon="11.8009012319577"><ele>5.5</ele><time>2026-04-25T12:30:11.949Z</time></trkpt><trkpt lat="45.28961785245688" lon="11.80066653800959"><ele>6.0</ele><time>2026-04-25T12:30:12.949Z</time></trkpt><trkpt lat="45.2893913999557" lon="11.800436390438813"><ele>6.0</ele><time>2026-04-25T12:30:13.949Z</time></trkpt><trkpt lat="45.2891631740887" lon="11.800213047023954"><ele>6.0</ele><time>2026-04-25T12:30:14.949Z</time></trkpt><trkpt lat="45.28893345519392" lon="11.799990313587147"><ele>5.0</ele><time>2026-04-25T12:30:15.949Z</time></trkpt><trkpt lat="45.28869814605109" lon="11.799761633451686"><ele>4.0</ele><time>2026-04-25T12:30:16.949Z</time></trkpt><trkpt lat="45.28846417291038" lon="11.799541901414713"><ele>4.5</ele><time>2026-04-25T12:30:17.949Z</time></trkpt><trkpt lat="45.288227463383905" lon="11.799326455704858"><ele>5.0</ele><time>2026-04-25T12:30:18.949Z</time></trkpt><trkpt lat="45.287993876489566" lon="11.799108774682919"><ele>4.0</ele><time>2026-04-25T12:30:19.949Z</time></trkpt><trkpt lat="45.28775692167713" lon="11.798887044075654"><ele>3.0</ele><time>2026-04-25T12:30:20.949Z</time></trkpt><trkpt lat="45.28752321311895" lon="11.798666563136763"><ele>3.5</ele><time>2026-04-25T12:30:21.949Z</time></trkpt><trkpt lat="45.287289006315916" lon="11.798444981071171"><ele>4.0</ele><time>2026-04-25T12:30:22.948Z</time></trkpt><trkpt lat="45.287051384090645" lon="11.798228856322863"><ele>4.0</ele><time>2026-04-25T12:30:23.948Z</time></trkpt><trkpt lat="45.28681725135566" lon="11.798011155481348"><ele>4.0</ele><time>2026-04-25T12:30:24.948Z</time></trkpt><trkpt lat="45.28658719369053" lon="11.797794796993355"><ele>4.5</ele><time>2026-04-25T12:30:25.948Z</time></trkpt><trkpt lat="45.28636040927845" lon="11.797582808505537"><ele>5.0</ele><time>2026-04-25T12:30:26.948Z</time></trkpt><trkpt lat="45.28613662491208" lon="11.797370915582794"><ele>5.0</ele><time>2026-04-25T12:30:27.948Z</time></trkpt><trkpt lat="45.285911004217596" lon="11.797156776882828"><ele>5.0</ele><time>2026-04-25T12:30:28.948Z</time></trkpt><trkpt lat="45.28568201430031" lon="11.796944616303024"><ele>6.0</ele><time>2026-04-25T12:30:29.948Z</time></trkpt><trkpt lat="45.28545138459492" lon="11.796731708495491"><ele>7.0</ele><time>2026-04-25T12:30:30.948Z</time></trkpt><trkpt lat="45.28522004081026" lon="11.796517517775273"><ele>7.0</ele><time>2026-04-25T12:30:31.948Z</time></trkpt><trkpt lat="45.28498911312446" lon="11.796303502470087"><ele>7.0</ele><time>2026-04-25T12:30:32.948Z</time></trkpt><trkpt lat="45.28475829110117" lon="11.796091151411543"><ele>7.0</ele><time>2026-04-25T12:30:33.948Z</time></trkpt><trkpt lat="45.2845272272936" lon="11.795879380723939"><ele>7.0</ele><time>2026-04-25T12:30:34.948Z</time></trkpt><trkpt lat="45.28429008263133" lon="11.79566560334745"><ele>7.0</ele><time>2026-04-25T12:30:35.948Z</time></trkpt><trkpt lat="45.28404935050794" lon="11.795460807722806"><ele>7.0</ele><time>2026-04-25T12:30:36.948Z</time></trkpt><trkpt lat="45.283802050977826" lon="11.795250857376676"><ele>6.0</ele><time>2026-04-25T12:30:37.948Z</time></trkpt><trkpt lat="45.283558357488594" lon="11.795031669726196"><ele>5.0</ele><time>2026-04-25T12:30:38.948Z</time></trkpt><trkpt lat="45.28331442565804" lon="11.794808986156774"><ele>4.5</ele><time>2026-04-25T12:30:39.948Z</time></trkpt><trkpt lat="45.28306475217307" lon="11.794578993212633"><ele>4.0</ele><time>2026-04-25T12:30:40.948Z</time></trkpt><trkpt lat="45.28282158137134" lon="11.794348625988496"><ele>3.5</ele><time>2026-04-25T12:30:41.948Z</time></trkpt><trkpt lat="45.28258282778919" lon="11.794124091585852"><ele>3.0</ele><time>2026-04-25T12:30:42.948Z</time></trkpt><trkpt lat="45.282342875849835" lon="11.79389784547706"><ele>3.0</ele><time>2026-04-25T12:30:43.948Z</time></trkpt><trkpt lat="45.28210705078984" lon="11.793670390821932"><ele>3.0</ele><time>2026-04-25T12:30:44.948Z</time></trkpt><trkpt lat="45.28187254930574" lon="11.793439827663391"><ele>4.0</ele><time>2026-04-25T12:30:45.948Z</time></trkpt><trkpt lat="45.281640650889585" lon="11.793213202928452"><ele>5.0</ele><time>2026-04-25T12:30:46.948Z</time></trkpt><trkpt lat="45.281411146163116" lon="11.792988091252717"><ele>6.0</ele><time>2026-04-25T12:30:47.948Z</time></trkpt><trkpt lat="45.281179160750106" lon="11.792769391993671"><ele>7.0</ele><time>2026-04-25T12:30:48.948Z</time></trkpt><trkpt lat="45.280947069060396" lon="11.792553800705504"><ele>7.0</ele><time>2026-04-25T12:30:49.948Z</time></trkpt><trkpt lat="45.280715539741664" lon="11.792344569776196"><ele>7.0</ele><time>2026-04-25T12:30:50.948Z</time></trkpt><trkpt lat="45.2804851157012" lon="11.792134283837129"><ele>6.5</ele><time>2026-04-25T12:30:51.948Z</time></trkpt><trkpt lat="45.28025773571314" lon="11.791917511473601"><ele>6.0</ele><time>2026-04-25T12:30:52.948Z</time></trkpt><trkpt lat="45.28003189694992" lon="11.791699730965286"><ele>5.5</ele><time>2026-04-25T12:30:53.948Z</time></trkpt><trkpt lat="45.27980140837733" lon="11.791481871625576"><ele>5.0</ele><time>2026-04-25T12:30:54.948Z</time></trkpt><trkpt lat="45.27957204448949" lon="11.79127017388568"><ele>5.0</ele><time>2026-04-25T12:30:55.948Z</time></trkpt><trkpt lat="45.27934086657659" lon="11.791057059724029"><ele>5.0</ele><time>2026-04-25T12:30:56.948Z</time></trkpt><trkpt lat="45.27911170700473" lon="11.790844135152568"><ele>6.0</ele><time>2026-04-25T12:30:57.946Z</time></trkpt><trkpt lat="45.27888123537821" lon="11.79063308721663"><ele>7.0</ele><time>2026-04-25T12:30:58.946Z</time></trkpt><trkpt lat="45.27864822464255" lon="11.79041832627368"><ele>7.0</ele><time>2026-04-25T12:30:59.946Z</time></trkpt><trkpt lat="45.278414469868316" lon="11.790199569411874"><ele>7.0</ele><time>2026-04-25T12:31:00.947Z</time></trkpt><trkpt lat="45.278181932338285" lon="11.789979992962985"><ele>5.5</ele><time>2026-04-25T12:31:01.946Z</time></trkpt><trkpt lat="45.27794772713716" lon="11.789759337674951"><ele>4.0</ele><time>2026-04-25T12:31:02.946Z</time></trkpt><trkpt lat="45.27771015968691" lon="11.789539538316712"><ele>4.0</ele><time>2026-04-25T12:31:03.946Z</time></trkpt><trkpt lat="45.2774695526576" lon="11.789318004741823"><ele>4.0</ele><time>2026-04-25T12:31:04.946Z</time></trkpt><trkpt lat="45.27722553339161" lon="11.78909542050163"><ele>4.0</ele><time>2026-04-25T12:31:05.946Z</time></trkpt><trkpt lat="45.27698251925202" lon="11.78886900727273"><ele>4.0</ele><time>2026-04-25T12:31:06.946Z</time></trkpt><trkpt lat="45.276737112531556" lon="11.788646375663843"><ele>4.5</ele><time>2026-04-25T12:31:07.945Z</time></trkpt><trkpt lat="45.2764891162247" lon="11.788425364436263"><ele>5.0</ele><time>2026-04-25T12:31:08.945Z</time></trkpt><trkpt lat="45.27624200847322" lon="11.788202728217113"><ele>5.0</ele><time>2026-04-25T12:31:09.945Z</time></trkpt><trkpt lat="45.27599479030707" lon="11.78797712040742"><ele>5.0</ele><time>2026-04-25T12:31:10.946Z</time></trkpt><trkpt lat="45.275748453718904" lon="11.787751249228737"><ele>4.5</ele><time>2026-04-25T12:31:11.946Z</time></trkpt><trkpt lat="45.27549992791392" lon="11.787527603320726"><ele>4.0</ele><time>2026-04-25T12:31:12.946Z</time></trkpt><trkpt lat="45.275255807519265" lon="11.787303767937955"><ele>4.0</ele><time>2026-04-25T12:31:13.946Z</time></trkpt><trkpt lat="45.27501554880368" lon="11.78707826368977"><ele>4.0</ele><time>2026-04-25T12:31:14.946Z</time></trkpt><trkpt lat="45.2747807703841" lon="11.786848568873339"><ele>4.5</ele><time>2026-04-25T12:31:15.946Z</time></trkpt><trkpt lat="45.27454699220575" lon="11.78661621294537"><ele>5.0</ele><time>2026-04-25T12:31:16.946Z</time></trkpt><trkpt lat="45.274310416537" lon="11.786386719975589"><ele>5.0</ele><time>2026-04-25T12:31:17.946Z</time></trkpt><trkpt lat="45.2740671865544" lon="11.786169845695863"><ele>5.0</ele><time>2026-04-25T12:31:18.946Z</time></trkpt><trkpt lat="45.27382005485733" lon="11.785962239294722"><ele>4.5</ele><time>2026-04-25T12:31:19.946Z</time></trkpt><trkpt lat="45.273573681727804" lon="11.785761314441116"><ele>4.0</ele><time>2026-04-25T12:31:20.946Z</time></trkpt><trkpt lat="45.27332334628555" lon="11.78555994778185"><ele>3.5</ele><time>2026-04-25T12:31:21.946Z</time></trkpt><trkpt lat="45.27307357147232" lon="11.78536136542436"><ele>3.0</ele><time>2026-04-25T12:31:22.946Z</time></trkpt><trkpt lat="45.27281999198392" lon="11.785165948608885"><ele>3.0</ele><time>2026-04-25T12:31:23.946Z</time></trkpt><trkpt lat="45.272562254838824" lon="11.784975750052359"><ele>3.0</ele><time>2026-04-25T12:31:24.946Z</time></trkpt><trkpt lat="45.272300302310896" lon="11.78478839871194"><ele>3.5</ele><time>2026-04-25T12:31:25.946Z</time></trkpt><trkpt lat="45.27203685141528" lon="11.784605497864264"><ele>4.0</ele><time>2026-04-25T12:31:26.946Z</time></trkpt><trkpt lat="45.27177201607659" lon="11.784428155024827"><ele>4.0</ele><time>2026-04-25T12:31:27.946Z</time></trkpt><trkpt lat="45.271503641886305" lon="11.784255733629708"><ele>4.0</ele><time>2026-04-25T12:31:28.946Z</time></trkpt><trkpt lat="45.271233181840365" lon="11.784085694553216"><ele>3.5</ele><time>2026-04-25T12:31:29.946Z</time></trkpt><trkpt lat="45.270960877625186" lon="11.78392415204731"><ele>3.0</ele><time>2026-04-25T12:31:30.946Z</time></trkpt><trkpt lat="45.27068710166688" lon="11.783764563924086"><ele>3.5</ele><time>2026-04-25T12:31:31.946Z</time></trkpt><trkpt lat="45.27040872920769" lon="11.783610202563482"><ele>4.0</ele><time>2026-04-25T12:31:32.946Z</time></trkpt><trkpt lat="45.27012677048062" lon="11.78346045540943"><ele>4.0</ele><time>2026-04-25T12:31:33.946Z</time></trkpt><trkpt lat="45.269845136626934" lon="11.78331063911916"><ele>4.0</ele><time>2026-04-25T12:31:34.945Z</time></trkpt><trkpt lat="45.26956267475793" lon="11.783163218587724"><ele>4.5</ele><time>2026-04-25T12:31:35.945Z</time></trkpt><trkpt lat="45.26928428927315" lon="11.783021810720573"><ele>5.0</ele><time>2026-04-25T12:31:36.945Z</time></trkpt><trkpt lat="45.269015250646376" lon="11.78288493613957"><ele>4.5</ele><time>2026-04-25T12:31:37.945Z</time></trkpt><trkpt lat="45.26874245805346" lon="11.782744464362583"><ele>4.0</ele><time>2026-04-25T12:31:38.945Z</time></trkpt><trkpt lat="45.26846965349826" lon="11.78260488815713"><ele>4.0</ele><time>2026-04-25T12:31:39.945Z</time></trkpt><trkpt lat="45.26819659453422" lon="11.782469200680147"><ele>4.0</ele><time>2026-04-25T12:31:40.945Z</time></trkpt><trkpt lat="45.26792329758083" lon="11.782332204738227"><ele>5.5</ele><time>2026-04-25T12:31:41.945Z</time></trkpt><trkpt lat="45.26764805181857" lon="11.782194539980551"><ele>7.0</ele><time>2026-04-25T12:31:42.945Z</time></trkpt><trkpt lat="45.26737236459681" lon="11.78206250424381"><ele>7.0</ele><time>2026-04-25T12:31:43.945Z</time></trkpt><trkpt lat="45.267094975699194" lon="11.781928948544333"><ele>7.0</ele><time>2026-04-25T12:31:44.945Z</time></trkpt><trkpt lat="45.266818201366505" lon="11.781793515397238"><ele>6.0</ele><time>2026-04-25T12:31:45.945Z</time></trkpt><trkpt lat="45.26654682082882" lon="11.781650766225976"><ele>5.0</ele><time>2026-04-25T12:31:46.945Z</time></trkpt><trkpt lat="45.26627714243738" lon="11.781499955619509"><ele>4.5</ele><time>2026-04-25T12:31:47.945Z</time></trkpt><trkpt lat="45.266007949021784" lon="11.781341564991566"><ele>4.0</ele><time>2026-04-25T12:31:48.945Z</time></trkpt><trkpt lat="45.265739424305785" lon="11.781185623956581"><ele>4.0</ele><time>2026-04-25T12:31:49.945Z</time></trkpt><trkpt lat="45.2654680707275" lon="11.781040020739134"><ele>4.0</ele><time>2026-04-25T12:31:50.945Z</time></trkpt><trkpt lat="45.26519330656446" lon="11.78090060426042"><ele>4.0</ele><time>2026-04-25T12:31:51.945Z</time></trkpt><trkpt lat="45.264918105644064" lon="11.780760782106904"><ele>4.0</ele><time>2026-04-25T12:31:52.945Z</time></trkpt><trkpt lat="45.264642067225154" lon="11.780617912764002"><ele>4.0</ele><time>2026-04-25T12:31:53.945Z</time></trkpt><trkpt lat="45.26436513510035" lon="11.780476198977027"><ele>4.0</ele><time>2026-04-25T12:31:54.945Z</time></trkpt><trkpt lat="45.26408943272359" lon="11.780333414355276"><ele>4.5</ele><time>2026-04-25T12:31:55.945Z</time></trkpt><trkpt lat="45.26381531280699" lon="11.78019026180735"><ele>5.0</ele><time>2026-04-25T12:31:56.945Z</time></trkpt><trkpt lat="45.26354120785268" lon="11.780049637958166"><ele>5.0</ele><time>2026-04-25T12:31:57.945Z</time></trkpt><trkpt lat="45.26326899099626" lon="11.779907712157224"><ele>5.0</ele><time>2026-04-25T12:31:58.945Z</time></trkpt><trkpt lat="45.26300091564693" lon="11.7797719176636"><ele>6.0</ele><time>2026-04-25T12:31:59.945Z</time></trkpt><trkpt lat="45.26273311243195" lon="11.779638022844354"><ele>7.0</ele><time>2026-04-25T12:32:00.945Z</time></trkpt><trkpt lat="45.26246697938415" lon="11.779503244669135"><ele>6.5</ele><time>2026-04-25T12:32:01.945Z</time></trkpt><trkpt lat="45.26220616206129" lon="11.779370838836073"><ele>6.0</ele><time>2026-04-25T12:32:02.945Z</time></trkpt><trkpt lat="45.261945763768246" lon="11.779239037476199"><ele>6.0</ele><time>2026-04-25T12:32:03.945Z</time></trkpt><trkpt lat="45.26168861122251" lon="11.779104533072715"><ele>6.0</ele><time>2026-04-25T12:32:04.945Z</time></trkpt><trkpt lat="45.26143277635581" lon="11.77896662483498"><ele>6.0</ele><time>2026-04-25T12:32:05.945Z</time></trkpt><trkpt lat="45.26117548497744" lon="11.778834961533445"><ele>6.0</ele><time>2026-04-25T12:32:06.945Z</time></trkpt><trkpt lat="45.26091695878788" lon="11.778701204782525"><ele>6.0</ele><time>2026-04-25T12:32:07.945Z</time></trkpt><trkpt lat="45.260656992376745" lon="11.7785694349808"><ele>6.0</ele><time>2026-04-25T12:32:08.945Z</time></trkpt><trkpt lat="45.260397048909404" lon="11.778437269891219"><ele>6.0</ele><time>2026-04-25T12:32:09.945Z</time></trkpt><trkpt lat="45.26013583541049" lon="11.778301985910423"><ele>6.0</ele><time>2026-04-25T12:32:10.945Z</time></trkpt><trkpt lat="45.25987564787401" lon="11.778169176245198"><ele>7.5</ele><time>2026-04-25T12:32:11.945Z</time></trkpt><trkpt lat="45.25961533735762" lon="11.778034006218503"><ele>9.0</ele><time>2026-04-25T12:32:12.945Z</time></trkpt><trkpt lat="45.25935782081872" lon="11.777896935425952"><ele>9.0</ele><time>2026-04-25T12:32:13.945Z</time></trkpt><trkpt lat="45.259097154209044" lon="11.77775745502249"><ele>9.0</ele><time>2026-04-25T12:32:14.945Z</time></trkpt><trkpt lat="45.258832701836106" lon="11.777617478010264"><ele>8.0</ele><time>2026-04-25T12:32:15.945Z</time></trkpt><trkpt lat="45.25856487045805" lon="11.777479586036781"><ele>7.0</ele><time>2026-04-25T12:32:16.945Z</time></trkpt><trkpt lat="45.25829650747931" lon="11.777345724589207"><ele>6.0</ele><time>2026-04-25T12:32:17.945Z</time></trkpt><trkpt lat="45.25802881178903" lon="11.777210238818737"><ele>5.0</ele><time>2026-04-25T12:32:18.945Z</time></trkpt><trkpt lat="45.257759019154236" lon="11.777070028170163"><ele>5.0</ele><time>2026-04-25T12:32:19.944Z</time></trkpt><trkpt lat="45.2574868749268" lon="11.776928377266495"><ele>5.0</ele><time>2026-04-25T12:32:20.944Z</time></trkpt><trkpt lat="45.25721263140651" lon="11.77678667312321"><ele>5.0</ele><time>2026-04-25T12:32:21.944Z</time></trkpt><trkpt lat="45.25693706924107" lon="11.776644435796996"><ele>5.0</ele><time>2026-04-25T12:32:22.944Z</time></trkpt><trkpt lat="45.25665874216134" lon="11.776500858317076"><ele>5.0</ele><time>2026-04-25T12:32:23.944Z</time></trkpt><trkpt lat="45.25638226851067" lon="11.776358633003497"><ele>5.0</ele><time>2026-04-25T12:32:24.944Z</time></trkpt><trkpt lat="45.25610749604371" lon="11.776216551947384"><ele>5.0</ele><time>2026-04-25T12:32:25.944Z</time></trkpt><trkpt lat="45.255832040821375" lon="11.776077357268848"><ele>5.0</ele><time>2026-04-25T12:32:26.944Z</time></trkpt><trkpt lat="45.25555873984979" lon="11.775936654331952"><ele>5.5</ele><time>2026-04-25T12:32:27.944Z</time></trkpt><trkpt lat="45.255284745654244" lon="11.775794921893048"><ele>6.0</ele><time>2026-04-25T12:32:28.944Z</time></trkpt><trkpt lat="45.25501126433002" lon="11.775656693192696"><ele>6.0</ele><time>2026-04-25T12:32:29.944Z</time></trkpt><trkpt lat="45.25473521614312" lon="11.775522422094687"><ele>6.0</ele><time>2026-04-25T12:32:30.944Z</time></trkpt><trkpt lat="45.25445704684169" lon="11.775395412641824"><ele>6.0</ele><time>2026-04-25T12:32:31.944Z</time></trkpt><trkpt lat="45.25417872318023" lon="11.775275037486965"><ele>6.0</ele><time>2026-04-25T12:32:32.944Z</time></trkpt><trkpt lat="45.25389749620379" lon="11.775163924592515"><ele>6.0</ele><time>2026-04-25T12:32:33.944Z</time></trkpt><trkpt lat="45.25361297313832" lon="11.775060934033247"><ele>6.0</ele><time>2026-04-25T12:32:34.944Z</time></trkpt><trkpt lat="45.2533258408074" lon="11.774965346009832"><ele>6.0</ele><time>2026-04-25T12:32:35.944Z</time></trkpt><trkpt lat="45.2530369677782" lon="11.774878435154145"><ele>6.0</ele><time>2026-04-25T12:32:36.944Z</time></trkpt><trkpt lat="45.252746312566025" lon="11.774799343414944"><ele>6.0</ele><time>2026-04-25T12:32:37.944Z</time></trkpt><trkpt lat="45.252452332764015" lon="11.774731124507127"><ele>6.0</ele><time>2026-04-25T12:32:38.944Z</time></trkpt><trkpt lat="45.25215616469868" lon="11.77467375169962"><ele>6.0</ele><time>2026-04-25T12:32:39.944Z</time></trkpt><trkpt lat="45.251860265652205" lon="11.774629390589153"><ele>6.0</ele><time>2026-04-25T12:32:40.944Z</time></trkpt><trkpt lat="45.25156317148133" lon="11.774592964846983"><ele>5.5</ele><time>2026-04-25T12:32:41.944Z</time></trkpt><trkpt lat="45.251272126767965" lon="11.774565340180157"><ele>5.0</ele><time>2026-04-25T12:32:42.944Z</time></trkpt><trkpt lat="45.25097704078363" lon="11.774543293961605"><ele>5.0</ele><time>2026-04-25T12:32:43.944Z</time></trkpt><trkpt lat="45.250682818778365" lon="11.774524183089026"><ele>5.0</ele><time>2026-04-25T12:32:44.944Z</time></trkpt><trkpt lat="45.250388158041865" lon="11.774506931675882"><ele>5.0</ele><time>2026-04-25T12:32:45.944Z</time></trkpt><trkpt lat="45.25009341475922" lon="11.77449979551227"><ele>5.0</ele><time>2026-04-25T12:32:46.944Z</time></trkpt><trkpt lat="45.24980172790962" lon="11.774494975569873"><ele>5.0</ele><time>2026-04-25T12:32:47.944Z</time></trkpt><trkpt lat="45.249512044296225" lon="11.774492740164025"><ele>5.0</ele><time>2026-04-25T12:32:48.944Z</time></trkpt><trkpt lat="45.24922183116804" lon="11.774489579598116"><ele>5.0</ele><time>2026-04-25T12:32:49.944Z</time></trkpt><trkpt lat="45.24893615487602" lon="11.774489914373023"><ele>5.0</ele><time>2026-04-25T12:32:50.944Z</time></trkpt><trkpt lat="45.248649505502364" lon="11.774486333174178"><ele>5.0</ele><time>2026-04-25T12:32:51.944Z</time></trkpt><trkpt lat="45.24836462072686" lon="11.77447982986143"><ele>5.0</ele><time>2026-04-25T12:32:52.944Z</time></trkpt><trkpt lat="45.24808026474247" lon="11.774477617572147"><ele>6.5</ele><time>2026-04-25T12:32:53.944Z</time></trkpt><trkpt lat="45.24779513475935" lon="11.774478275915612"><ele>8.0</ele><time>2026-04-25T12:32:54.944Z</time></trkpt><trkpt lat="45.247510044450074" lon="11.774478601731241"><ele>7.5</ele><time>2026-04-25T12:32:55.944Z</time></trkpt><trkpt lat="45.24722483273458" lon="11.7744792620215"><ele>7.0</ele><time>2026-04-25T12:32:56.944Z</time></trkpt><trkpt lat="45.24693920334015" lon="11.774477666024692"><ele>7.0</ele><time>2026-04-25T12:32:57.944Z</time></trkpt><trkpt lat="45.24665176825481" lon="11.774475285465606"><ele>7.0</ele><time>2026-04-25T12:32:58.944Z</time></trkpt><trkpt lat="45.2463657309958" lon="11.774475752734006"><ele>5.5</ele><time>2026-04-25T12:32:59.944Z</time></trkpt><trkpt lat="45.24607443199935" lon="11.774478973811648"><ele>4.0</ele><time>2026-04-25T12:33:00.944Z</time></trkpt><trkpt lat="45.245788085497985" lon="11.774482794230481"><ele>5.0</ele><time>2026-04-25T12:33:01.944Z</time></trkpt><trkpt lat="45.245499072204225" lon="11.774490515088427"><ele>6.0</ele><time>2026-04-25T12:33:02.943Z</time></trkpt><trkpt lat="45.24521043058703" lon="11.77449273094111"><ele>6.0</ele><time>2026-04-25T12:33:03.942Z</time></trkpt><trkpt lat="45.24492125666424" lon="11.774491127310133"><ele>6.0</ele><time>2026-04-25T12:33:04.942Z</time></trkpt><trkpt lat="45.244631362785725" lon="11.774485575722741"><ele>6.0</ele><time>2026-04-25T12:33:05.942Z</time></trkpt><trkpt lat="45.24434247188756" lon="11.774488468674067"><ele>6.0</ele><time>2026-04-25T12:33:06.942Z</time></trkpt><trkpt lat="45.244057365397005" lon="11.774491452173013"><ele>5.5</ele><time>2026-04-25T12:33:07.942Z</time></trkpt><trkpt lat="45.243767886958544" lon="11.774492729484313"><ele>5.0</ele><time>2026-04-25T12:33:08.942Z</time></trkpt><trkpt lat="45.24347132853575" lon="11.774495484793581"><ele>5.0</ele><time>2026-04-25T12:33:09.942Z</time></trkpt><trkpt lat="45.243179888900706" lon="11.774496475583115"><ele>5.0</ele><time>2026-04-25T12:33:10.942Z</time></trkpt><trkpt lat="45.242888278548484" lon="11.77449613882337"><ele>4.5</ele><time>2026-04-25T12:33:11.942Z</time></trkpt><trkpt lat="45.24260043868762" lon="11.774497025338015"><ele>4.0</ele><time>2026-04-25T12:33:12.943Z</time></trkpt><trkpt lat="45.24230939713362" lon="11.774499403854568"><ele>4.0</ele><time>2026-04-25T12:33:13.942Z</time></trkpt><trkpt lat="45.24201863901035" lon="11.774501075297971"><ele>4.0</ele><time>2026-04-25T12:33:14.942Z</time></trkpt><trkpt lat="45.24172479718761" lon="11.774500954819771"><ele>3.5</ele><time>2026-04-25T12:33:15.942Z</time></trkpt><trkpt lat="45.241432426973695" lon="11.774503476162941"><ele>3.0</ele><time>2026-04-25T12:33:16.942Z</time></trkpt><trkpt lat="45.241142524674125" lon="11.774510064995273"><ele>3.0</ele><time>2026-04-25T12:33:17.942Z</time></trkpt><trkpt lat="45.24085632122425" lon="11.774509309699717"><ele>3.0</ele><time>2026-04-25T12:33:18.942Z</time></trkpt><trkpt lat="45.24056590356257" lon="11.774505804678823"><ele>3.0</ele><time>2026-04-25T12:33:19.942Z</time></trkpt><trkpt lat="45.24027442559516" lon="11.774503927138312"><ele>3.0</ele><time>2026-04-25T12:33:20.942Z</time></trkpt><trkpt lat="45.23998301477643" lon="11.774502955909869"><ele>4.5</ele><time>2026-04-25T12:33:21.942Z</time></trkpt><trkpt lat="45.23969272351582" lon="11.774503476195031"><ele>6.0</ele><time>2026-04-25T12:33:22.942Z</time></trkpt><trkpt lat="45.239397313149006" lon="11.774498431607896"><ele>6.0</ele><time>2026-04-25T12:33:23.942Z</time></trkpt><trkpt lat="45.23910447540217" lon="11.774495589194878"><ele>6.0</ele><time>2026-04-25T12:33:24.942Z</time></trkpt><trkpt lat="45.238818425395465" lon="11.774499351072821"><ele>6.5</ele><time>2026-04-25T12:33:25.941Z</time></trkpt><trkpt lat="45.238536032798585" lon="11.774505313274467"><ele>7.0</ele><time>2026-04-25T12:33:26.941Z</time></trkpt><trkpt lat="45.2382534231555" lon="11.774507408266166"><ele>6.5</ele><time>2026-04-25T12:33:27.941Z</time></trkpt><trkpt lat="45.23797177479169" lon="11.774510606413653"><ele>6.0</ele><time>2026-04-25T12:33:28.941Z</time></trkpt><trkpt lat="45.23769182554047" lon="11.774508526602006"><ele>6.0</ele><time>2026-04-25T12:33:29.941Z</time></trkpt><trkpt lat="45.23741705795334" lon="11.77450974588272"><ele>6.0</ele><time>2026-04-25T12:33:30.941Z</time></trkpt><trkpt lat="45.237146059367674" lon="11.774514366266935"><ele>5.5</ele><time>2026-04-25T12:33:31.941Z</time></trkpt><trkpt lat="45.236872649616814" lon="11.77451121782193"><ele>5.0</ele><time>2026-04-25T12:33:32.941Z</time></trkpt><trkpt lat="45.236599720399695" lon="11.774510976299391"><ele>5.5</ele><time>2026-04-25T12:33:33.941Z</time></trkpt><trkpt lat="45.23632247233804" lon="11.77451123028342"><ele>6.0</ele><time>2026-04-25T12:33:34.941Z</time></trkpt><trkpt lat="45.236049318667966" lon="11.774513645494027"><ele>6.0</ele><time>2026-04-25T12:33:35.941Z</time></trkpt><trkpt lat="45.23577454166682" lon="11.774515838190588"><ele>6.0</ele><time>2026-04-25T12:33:36.941Z</time></trkpt><trkpt lat="45.235498630600446" lon="11.774519227013213"><ele>5.5</ele><time>2026-04-25T12:33:37.941Z</time></trkpt><trkpt lat="45.23522224560927" lon="11.774523130027472"><ele>5.0</ele><time>2026-04-25T12:33:38.941Z</time></trkpt><trkpt lat="45.23494340310544" lon="11.77452277133803"><ele>6.0</ele><time>2026-04-25T12:33:39.941Z</time></trkpt><trkpt lat="45.23466243029851" lon="11.774524811096498"><ele>7.0</ele><time>2026-04-25T12:33:40.941Z</time></trkpt><trkpt lat="45.23437983991691" lon="11.77452483411925"><ele>7.0</ele><time>2026-04-25T12:33:41.941Z</time></trkpt><trkpt lat="45.23409767435457" lon="11.774523115897622"><ele>7.0</ele><time>2026-04-25T12:33:42.941Z</time></trkpt><trkpt lat="45.233815521259885" lon="11.774520831085715"><ele>6.5</ele><time>2026-04-25T12:33:43.941Z</time></trkpt><trkpt lat="45.233533682065165" lon="11.774523475453217"><ele>6.0</ele><time>2026-04-25T12:33:44.941Z</time></trkpt><trkpt lat="45.23325116432552" lon="11.774525341568967"><ele>5.5</ele><time>2026-04-25T12:33:45.941Z</time></trkpt><trkpt lat="45.232968977138896" lon="11.774527575206392"><ele>5.0</ele><time>2026-04-25T12:33:46.941Z</time></trkpt><trkpt lat="45.23268675112003" lon="11.774530808163723"><ele>5.0</ele><time>2026-04-25T12:33:47.941Z</time></trkpt><trkpt lat="45.23240591765831" lon="11.774526839526088"><ele>5.0</ele><time>2026-04-25T12:33:48.941Z</time></trkpt><trkpt lat="45.23212151487536" lon="11.774527981500661"><ele>4.5</ele><time>2026-04-25T12:33:49.941Z</time></trkpt><trkpt lat="45.23183903342316" lon="11.774537683535023"><ele>4.0</ele><time>2026-04-25T12:33:50.941Z</time></trkpt><trkpt lat="45.23156002511833" lon="11.7745521219321"><ele>4.0</ele><time>2026-04-25T12:33:51.941Z</time></trkpt><trkpt lat="45.231279264054955" lon="11.774567864968995"><ele>4.0</ele><time>2026-04-25T12:33:52.941Z</time></trkpt><trkpt lat="45.2309911450402" lon="11.774569779091868"><ele>4.0</ele><time>2026-04-25T12:33:53.941Z</time></trkpt><trkpt lat="45.23070733437698" lon="11.774568413869117"><ele>4.0</ele><time>2026-04-25T12:33:54.941Z</time></trkpt><trkpt lat="45.23042459610765" lon="11.774567663253519"><ele>4.0</ele><time>2026-04-25T12:33:55.941Z</time></trkpt><trkpt lat="45.23014107636075" lon="11.774566469973363"><ele>4.0</ele><time>2026-04-25T12:33:56.941Z</time></trkpt><trkpt lat="45.22985746954638" lon="11.77457332864298"><ele>4.0</ele><time>2026-04-25T12:33:57.941Z</time></trkpt><trkpt lat="45.22957056467355" lon="11.774575160880303"><ele>4.0</ele><time>2026-04-25T12:33:58.941Z</time></trkpt><trkpt lat="45.22928520831096" lon="11.774580992679526"><ele>4.0</ele><time>2026-04-25T12:33:59.941Z</time></trkpt><trkpt lat="45.22900401982005" lon="11.774581564919306"><ele>4.0</ele><time>2026-04-25T12:34:00.941Z</time></trkpt><trkpt lat="45.22872326929954" lon="11.77458376516913"><ele>3.0</ele><time>2026-04-25T12:34:01.941Z</time></trkpt><trkpt lat="45.22844032290071" lon="11.774580300183784"><ele>2.0</ele><time>2026-04-25T12:34:02.941Z</time></trkpt><trkpt lat="45.22815960066388" lon="11.774577420433864"><ele>2.0</ele><time>2026-04-25T12:34:03.941Z</time></trkpt><trkpt lat="45.22788107649132" lon="11.774578775812229"><ele>2.0</ele><time>2026-04-25T12:34:04.941Z</time></trkpt><trkpt lat="45.22760131964876" lon="11.774581121720937"><ele>2.0</ele><time>2026-04-25T12:34:05.94Z</time></trkpt><trkpt lat="45.22731923995989" lon="11.77457875619084"><ele>2.0</ele><time>2026-04-25T12:34:06.94Z</time></trkpt><trkpt lat="45.227036576865345" lon="11.774577893712047"><ele>2.0</ele><time>2026-04-25T12:34:07.94Z</time></trkpt><trkpt lat="45.22675666125045" lon="11.774575646806607"><ele>2.0</ele><time>2026-04-25T12:34:08.94Z</time></trkpt><trkpt lat="45.2264769976131" lon="11.774571676520775"><ele>3.0</ele><time>2026-04-25T12:34:09.94Z</time></trkpt><trkpt lat="45.226201336448234" lon="11.774562971021657"><ele>4.0</ele><time>2026-04-25T12:34:10.94Z</time></trkpt><trkpt lat="45.22591793511531" lon="11.77455435891236"><ele>5.5</ele><time>2026-04-25T12:34:11.94Z</time></trkpt><trkpt lat="45.22564020167983" lon="11.774550901117406"><ele>7.0</ele><time>2026-04-25T12:34:12.94Z</time></trkpt><trkpt lat="45.22535911738298" lon="11.774549361624208"><ele>7.0</ele><time>2026-04-25T12:34:13.94Z</time></trkpt><trkpt lat="45.22507686831227" lon="11.774549663116025"><ele>7.0</ele><time>2026-04-25T12:34:14.94Z</time></trkpt><trkpt lat="45.224796240701124" lon="11.774551268911642"><ele>7.0</ele><time>2026-04-25T12:34:15.94Z</time></trkpt><trkpt lat="45.2245160979105" lon="11.774551361772343"><ele>7.0</ele><time>2026-04-25T12:34:16.94Z</time></trkpt><trkpt lat="45.22423798859068" lon="11.774544476998496"><ele>6.0</ele><time>2026-04-25T12:34:17.94Z</time></trkpt><trkpt lat="45.22395818157025" lon="11.77454724287481"><ele>5.0</ele><time>2026-04-25T12:34:18.94Z</time></trkpt><trkpt lat="45.223679684154575" lon="11.774546350800506"><ele>5.0</ele><time>2026-04-25T12:34:19.94Z</time></trkpt><trkpt lat="45.22339806221994" lon="11.774543831000674"><ele>5.0</ele><time>2026-04-25T12:34:20.94Z</time></trkpt><trkpt lat="45.223117303905866" lon="11.774539678479371"><ele>4.0</ele><time>2026-04-25T12:34:21.94Z</time></trkpt><trkpt lat="45.22283726405766" lon="11.774541873204544"><ele>3.0</ele><time>2026-04-25T12:34:22.94Z</time></trkpt><trkpt lat="45.22255621067252" lon="11.774545018869333"><ele>3.0</ele><time>2026-04-25T12:34:23.94Z</time></trkpt><trkpt lat="45.22227390004568" lon="11.774548332134295"><ele>3.0</ele><time>2026-04-25T12:34:24.94Z</time></trkpt><trkpt lat="45.22199198908995" lon="11.774552860350866"><ele>3.0</ele><time>2026-04-25T12:34:25.94Z</time></trkpt><trkpt lat="45.22170708090746" lon="11.774555097147624"><ele>3.0</ele><time>2026-04-25T12:34:26.94Z</time></trkpt><trkpt lat="45.2214239587908" lon="11.774555030924935"><ele>4.5</ele><time>2026-04-25T12:34:27.94Z</time></trkpt><trkpt lat="45.22114128216931" lon="11.774554575359018"><ele>6.0</ele><time>2026-04-25T12:34:28.94Z</time></trkpt><trkpt lat="45.22086097795678" lon="11.774555144916722"><ele>6.0</ele><time>2026-04-25T12:34:29.94Z</time></trkpt><trkpt lat="45.22057926971058" lon="11.774559926522166"><ele>6.0</ele><time>2026-04-25T12:34:30.94Z</time></trkpt><trkpt lat="45.22030486884072" lon="11.774566480117464"><ele>6.0</ele><time>2026-04-25T12:34:31.94Z</time></trkpt><trkpt lat="45.22002851006385" lon="11.774565479443336"><ele>6.0</ele><time>2026-04-25T12:34:32.94Z</time></trkpt><trkpt lat="45.219752923880044" lon="11.774563099086262"><ele>5.5</ele><time>2026-04-25T12:34:33.94Z</time></trkpt><trkpt lat="45.2194785401174" lon="11.774565731287005"><ele>5.0</ele><time>2026-04-25T12:34:34.94Z</time></trkpt><trkpt lat="45.21920148598333" lon="11.774568361379243"><ele>4.0</ele><time>2026-04-25T12:34:35.94Z</time></trkpt><trkpt lat="45.218929091847" lon="11.774572691808206"><ele>3.0</ele><time>2026-04-25T12:34:36.94Z</time></trkpt><trkpt lat="45.21865473442352" lon="11.774568179139878"><ele>3.0</ele><time>2026-04-25T12:34:37.94Z</time></trkpt><trkpt lat="45.21838136427979" lon="11.774559993528129"><ele>3.0</ele><time>2026-04-25T12:34:38.94Z</time></trkpt><trkpt lat="45.21810878430974" lon="11.774555684923598"><ele>2.5</ele><time>2026-04-25T12:34:39.94Z</time></trkpt><trkpt lat="45.21783557799194" lon="11.774560913270985"><ele>2.0</ele><time>2026-04-25T12:34:40.94Z</time></trkpt><trkpt lat="45.217563896450365" lon="11.774568604654911"><ele>2.0</ele><time>2026-04-25T12:34:41.94Z</time></trkpt><trkpt lat="45.21729175267362" lon="11.774570970098548"><ele>2.0</ele><time>2026-04-25T12:34:42.94Z</time></trkpt><trkpt lat="45.21701750419808" lon="11.774571531708583"><ele>2.0</ele><time>2026-04-25T12:34:43.94Z</time></trkpt><trkpt lat="45.216736283339436" lon="11.774567765073906"><ele>2.0</ele><time>2026-04-25T12:34:44.94Z</time></trkpt><trkpt lat="45.216455279394744" lon="11.774566328676695"><ele>3.0</ele><time>2026-04-25T12:34:45.939Z</time></trkpt><trkpt lat="45.21617154093806" lon="11.774569603244961"><ele>4.0</ele><time>2026-04-25T12:34:46.939Z</time></trkpt><trkpt lat="45.215888748070164" lon="11.774574546115327"><ele>4.0</ele><time>2026-04-25T12:34:47.939Z</time></trkpt><trkpt lat="45.2156032380096" lon="11.77457884649155"><ele>4.0</ele><time>2026-04-25T12:34:48.939Z</time></trkpt><trkpt lat="45.21531564063222" lon="11.774581253058612"><ele>4.0</ele><time>2026-04-25T12:34:49.939Z</time></trkpt><trkpt lat="45.21502727724745" lon="11.77458320384954"><ele>4.0</ele><time>2026-04-25T12:34:50.939Z</time></trkpt><trkpt lat="45.21473892090191" lon="11.774585999653432"><ele>4.0</ele><time>2026-04-25T12:34:51.939Z</time></trkpt><trkpt lat="45.21445007173932" lon="11.774585795312916"><ele>4.0</ele><time>2026-04-25T12:34:52.939Z</time></trkpt><trkpt lat="45.21416092685971" lon="11.774584268160401"><ele>3.5</ele><time>2026-04-25T12:34:53.939Z</time></trkpt><trkpt lat="45.213878145139915" lon="11.774581224481738"><ele>3.0</ele><time>2026-04-25T12:34:54.939Z</time></trkpt><trkpt lat="45.21358418071371" lon="11.774582244510638"><ele>3.0</ele><time>2026-04-25T12:34:55.939Z</time></trkpt><trkpt lat="45.213297496339806" lon="11.774580115303221"><ele>3.0</ele><time>2026-04-25T12:34:56.939Z</time></trkpt><trkpt lat="45.21301286217218" lon="11.774582712017391"><ele>2.5</ele><time>2026-04-25T12:34:57.939Z</time></trkpt><trkpt lat="45.21272765440922" lon="11.774582968735137"><ele>2.0</ele><time>2026-04-25T12:34:58.939Z</time></trkpt><trkpt lat="45.212444801404764" lon="11.774582802240547"><ele>2.5</ele><time>2026-04-25T12:34:59.939Z</time></trkpt><trkpt lat="45.2121633762871" lon="11.774582085559837"><ele>3.0</ele><time>2026-04-25T12:35:00.939Z</time></trkpt><trkpt lat="45.21188434174298" lon="11.774582349747732"><ele>3.0</ele><time>2026-04-25T12:35:01.939Z</time></trkpt><trkpt lat="45.211606504142324" lon="11.77458199901994"><ele>3.0</ele><time>2026-04-25T12:35:02.939Z</time></trkpt><trkpt lat="45.21133176935004" lon="11.774585276020444"><ele>3.5</ele><time>2026-04-25T12:35:03.939Z</time></trkpt><trkpt lat="45.211056191276214" lon="11.774587118251995"><ele>4.0</ele><time>2026-04-25T12:35:04.939Z</time></trkpt><trkpt lat="45.210783101533124" lon="11.774588807612549"><ele>4.5</ele><time>2026-04-25T12:35:05.939Z</time></trkpt><trkpt lat="45.21051005949015" lon="11.77459052350684"><ele>5.0</ele><time>2026-04-25T12:35:06.939Z</time></trkpt><trkpt lat="45.21023872060491" lon="11.774592751784503"><ele>5.0</ele><time>2026-04-25T12:35:07.939Z</time></trkpt><trkpt lat="45.20996362956723" lon="11.77458965641195"><ele>5.0</ele><time>2026-04-25T12:35:08.939Z</time></trkpt><trkpt lat="45.20968905335016" lon="11.774585035014077"><ele>5.0</ele><time>2026-04-25T12:35:09.939Z</time></trkpt><trkpt lat="45.20941197957197" lon="11.774587787088748"><ele>5.0</ele><time>2026-04-25T12:35:10.938Z</time></trkpt><trkpt lat="45.20913573298003" lon="11.774587653756134"><ele>3.5</ele><time>2026-04-25T12:35:11.938Z</time></trkpt><trkpt lat="45.208857037863936" lon="11.774588986713713"><ele>2.0</ele><time>2026-04-25T12:35:12.938Z</time></trkpt><trkpt lat="45.20857660253571" lon="11.774592926818022"><ele>2.0</ele><time>2026-04-25T12:35:13.938Z</time></trkpt><trkpt lat="45.20829193931724" lon="11.7745953632881"><ele>2.0</ele><time>2026-04-25T12:35:14.938Z</time></trkpt><trkpt lat="45.208010344872285" lon="11.774595667505823"><ele>1.5</ele><time>2026-04-25T12:35:15.939Z</time></trkpt><trkpt lat="45.207728602594" lon="11.774596300178322"><ele>1.0</ele><time>2026-04-25T12:35:16.938Z</time></trkpt><trkpt lat="45.20744701529125" lon="11.774596040034238"><ele>2.5</ele><time>2026-04-25T12:35:17.938Z</time></trkpt><trkpt lat="45.20716571512542" lon="11.774598711923847"><ele>4.0</ele><time>2026-04-25T12:35:18.938Z</time></trkpt><trkpt lat="45.206884275003915" lon="11.774598259399191"><ele>4.0</ele><time>2026-04-25T12:35:19.938Z</time></trkpt><trkpt lat="45.20660140635815" lon="11.774600475568487"><ele>4.0</ele><time>2026-04-25T12:35:20.938Z</time></trkpt><trkpt lat="45.20631730299617" lon="11.774600725132375"><ele>5.0</ele><time>2026-04-25T12:35:21.938Z</time></trkpt><trkpt lat="45.20603220681284" lon="11.774603117048203"><ele>6.0</ele><time>2026-04-25T12:35:22.938Z</time></trkpt><trkpt lat="45.20574616795157" lon="11.77460635788156"><ele>5.0</ele><time>2026-04-25T12:35:23.938Z</time></trkpt><trkpt lat="45.20546142513243" lon="11.77460841919416"><ele>4.0</ele><time>2026-04-25T12:35:24.938Z</time></trkpt><trkpt lat="45.20517759322403" lon="11.774608331427574"><ele>4.0</ele><time>2026-04-25T12:35:25.938Z</time></trkpt><trkpt lat="45.20489760617812" lon="11.774607072704889"><ele>4.0</ele><time>2026-04-25T12:35:26.938Z</time></trkpt><trkpt lat="45.204617791391016" lon="11.77460390431802"><ele>3.5</ele><time>2026-04-25T12:35:27.938Z</time></trkpt><trkpt lat="45.204339768345456" lon="11.774600945899966"><ele>3.0</ele><time>2026-04-25T12:35:28.938Z</time></trkpt><trkpt lat="45.204060635638484" lon="11.774596546460758"><ele>2.5</ele><time>2026-04-25T12:35:29.938Z</time></trkpt><trkpt lat="45.20378061177905" lon="11.774592680399579"><ele>2.0</ele><time>2026-04-25T12:35:30.938Z</time></trkpt><trkpt lat="45.203499474894585" lon="11.774593718812175"><ele>2.0</ele><time>2026-04-25T12:35:31.938Z</time></trkpt><trkpt lat="45.203219588582726" lon="11.77459861104104"><ele>2.0</ele><time>2026-04-25T12:35:32.938Z</time></trkpt><trkpt lat="45.20293954559818" lon="11.77460107000643"><ele>0.0</ele><time>2026-04-25T12:35:33.938Z</time></trkpt><trkpt lat="45.20266051959256" lon="11.774605606442831"><ele>-2.0</ele><time>2026-04-25T12:35:34.938Z</time></trkpt><trkpt lat="45.20238255835234" lon="11.774610065358305"><ele>-0.5</ele><time>2026-04-25T12:35:35.938Z</time></trkpt><trkpt lat="45.202103515723884" lon="11.774612520899774"><ele>1.0</ele><time>2026-04-25T12:35:36.938Z</time></trkpt><trkpt lat="45.20182262763584" lon="11.774612388106682"><ele>1.0</ele><time>2026-04-25T12:35:37.938Z</time></trkpt><trkpt lat="45.201542504898725" lon="11.774612965673441"><ele>1.0</ele><time>2026-04-25T12:35:38.938Z</time></trkpt><trkpt lat="45.20126240096248" lon="11.774613337004766"><ele>1.0</ele><time>2026-04-25T12:35:39.938Z</time></trkpt><trkpt lat="45.200979990427555" lon="11.774614954199384"><ele>1.0</ele><time>2026-04-25T12:35:40.938Z</time></trkpt><trkpt lat="45.20069776535454" lon="11.774622653342607"><ele>1.5</ele><time>2026-04-25T12:35:41.938Z</time></trkpt><trkpt lat="45.20041060451937" lon="11.774634344794581"><ele>2.0</ele><time>2026-04-25T12:35:42.938Z</time></trkpt><trkpt lat="45.200120005163534" lon="11.774646329341193"><ele>2.5</ele><time>2026-04-25T12:35:43.938Z</time></trkpt><trkpt lat="45.19983305411928" lon="11.774659246612613"><ele>3.0</ele><time>2026-04-25T12:35:44.938Z</time></trkpt><trkpt lat="45.1995461446685" lon="11.77467748299125"><ele>3.0</ele><time>2026-04-25T12:35:45.938Z</time></trkpt><trkpt lat="45.199261050174066" lon="11.774698389212793"><ele>3.0</ele><time>2026-04-25T12:35:46.938Z</time></trkpt><trkpt lat="45.19898092991385" lon="11.774723860211672"><ele>3.0</ele><time>2026-04-25T12:35:47.938Z</time></trkpt><trkpt lat="45.19870378746481" lon="11.774747600126885"><ele>3.0</ele><time>2026-04-25T12:35:48.938Z</time></trkpt><trkpt lat="45.19842233099838" lon="11.774771772937024"><ele>5.0</ele><time>2026-04-25T12:35:49.938Z</time></trkpt><trkpt lat="45.19814194897384" lon="11.7748011002096"><ele>7.0</ele><time>2026-04-25T12:35:50.938Z</time></trkpt><trkpt lat="45.19786221871278" lon="11.774831603236441"><ele>7.0</ele><time>2026-04-25T12:35:51.938Z</time></trkpt><trkpt lat="45.19758264644944" lon="11.774864614340876"><ele>7.0</ele><time>2026-04-25T12:35:52.938Z</time></trkpt><trkpt lat="45.1973037284376" lon="11.774900882096027"><ele>5.0</ele><time>2026-04-25T12:35:53.938Z</time></trkpt><trkpt lat="45.19702760648677" lon="11.774937969414236"><ele>3.0</ele><time>2026-04-25T12:35:54.938Z</time></trkpt><trkpt lat="45.196756253550376" lon="11.774978097164228"><ele>2.0</ele><time>2026-04-25T12:35:55.938Z</time></trkpt><trkpt lat="45.196483385418894" lon="11.775010917048611"><ele>1.0</ele><time>2026-04-25T12:35:56.938Z</time></trkpt><trkpt lat="45.1962066627645" lon="11.775042437781888"><ele>1.0</ele><time>2026-04-25T12:35:57.938Z</time></trkpt><trkpt lat="45.19592320067102" lon="11.775076767410303"><ele>1.0</ele><time>2026-04-25T12:35:58.938Z</time></trkpt><trkpt lat="45.19563462353349" lon="11.775110806009792"><ele>2.5</ele><time>2026-04-25T12:35:59.938Z</time></trkpt><trkpt lat="45.19534509834258" lon="11.775141344633683"><ele>4.0</ele><time>2026-04-25T12:36:00.938Z</time></trkpt><trkpt lat="45.195051237465144" lon="11.7751774238266"><ele>1.5</ele><time>2026-04-25T12:36:01.938Z</time></trkpt><trkpt lat="45.19475680643353" lon="11.775214458783347"><ele>-1.0</ele><time>2026-04-25T12:36:02.938Z</time></trkpt><trkpt lat="45.19446370158392" lon="11.775252864385314"><ele>-1.0</ele><time>2026-04-25T12:36:03.938Z</time></trkpt><trkpt lat="45.19416831248031" lon="11.775294531285502"><ele>-1.0</ele><time>2026-04-25T12:36:04.938Z</time></trkpt><trkpt lat="45.19387663672406" lon="11.775332523969523"><ele>0.5</ele><time>2026-04-25T12:36:05.937Z</time></trkpt><trkpt lat="45.19358915796381" lon="11.775369821086743"><ele>2.0</ele><time>2026-04-25T12:36:06.937Z</time></trkpt><trkpt lat="45.193305620408296" lon="11.775403494491938"><ele>2.0</ele><time>2026-04-25T12:36:07.937Z</time></trkpt><trkpt lat="45.19302006240289" lon="11.775436632380448"><ele>2.0</ele><time>2026-04-25T12:36:08.937Z</time></trkpt><trkpt lat="45.19273842975653" lon="11.775469794348119"><ele>2.0</ele><time>2026-04-25T12:36:09.937Z</time></trkpt><trkpt lat="45.192460227927654" lon="11.775505445426376"><ele>2.0</ele><time>2026-04-25T12:36:10.937Z</time></trkpt><trkpt lat="45.19218342244878" lon="11.7755421525397"><ele>3.0</ele><time>2026-04-25T12:36:11.937Z</time></trkpt><trkpt lat="45.1919065431985" lon="11.775581746738963"><ele>4.0</ele><time>2026-04-25T12:36:12.937Z</time></trkpt><trkpt lat="45.19163466837676" lon="11.775617942341679"><ele>2.5</ele><time>2026-04-25T12:36:13.937Z</time></trkpt><trkpt lat="45.19135993715972" lon="11.775650893090242"><ele>1.0</ele><time>2026-04-25T12:36:14.937Z</time></trkpt><trkpt lat="45.19108520715634" lon="11.775682320805629"><ele>1.0</ele><time>2026-04-25T12:36:15.937Z</time></trkpt><trkpt lat="45.19081134804913" lon="11.775708527707774"><ele>1.0</ele><time>2026-04-25T12:36:16.937Z</time></trkpt><trkpt lat="45.19053355767271" lon="11.77574028565511"><ele>0.5</ele><time>2026-04-25T12:36:17.937Z</time></trkpt><trkpt lat="45.190252296215164" lon="11.775772605349207"><ele>0.0</ele><time>2026-04-25T12:36:18.937Z</time></trkpt><trkpt lat="45.18996752935282" lon="11.775810430276639"><ele>2.0</ele><time>2026-04-25T12:36:19.937Z</time></trkpt><trkpt lat="45.18968061421541" lon="11.775850510004107"><ele>4.0</ele><time>2026-04-25T12:36:20.937Z</time></trkpt><trkpt lat="45.189388829860874" lon="11.775892449760137"><ele>4.0</ele><time>2026-04-25T12:36:21.937Z</time></trkpt><trkpt lat="45.18909532758935" lon="11.775931073845769"><ele>4.0</ele><time>2026-04-25T12:36:22.937Z</time></trkpt><trkpt lat="45.18880009153851" lon="11.775966469160208"><ele>4.0</ele><time>2026-04-25T12:36:23.937Z</time></trkpt><trkpt lat="45.18850672249236" lon="11.77600243731096"><ele>4.0</ele><time>2026-04-25T12:36:24.937Z</time></trkpt><trkpt lat="45.188212917949286" lon="11.77604065547738"><ele>3.0</ele><time>2026-04-25T12:36:25.937Z</time></trkpt><trkpt lat="45.187921294066044" lon="11.77607869423457"><ele>2.0</ele><time>2026-04-25T12:36:26.937Z</time></trkpt><trkpt lat="45.18762446319257" lon="11.776117331557984"><ele>2.0</ele><time>2026-04-25T12:36:27.937Z</time></trkpt><trkpt lat="45.187328352234964" lon="11.776155153996758"><ele>2.0</ele><time>2026-04-25T12:36:28.937Z</time></trkpt><trkpt lat="45.18702873868675" lon="11.776186692002524"><ele>2.0</ele><time>2026-04-25T12:36:29.937Z</time></trkpt><trkpt lat="45.18672622982023" lon="11.776216534878627"><ele>2.0</ele><time>2026-04-25T12:36:30.937Z</time></trkpt><trkpt lat="45.186422237178505" lon="11.77624105588004"><ele>2.5</ele><time>2026-04-25T12:36:31.937Z</time></trkpt><trkpt lat="45.186115789533474" lon="11.776270337787992"><ele>3.0</ele><time>2026-04-25T12:36:32.937Z</time></trkpt><trkpt lat="45.18581192599011" lon="11.77629963391758"><ele>4.0</ele><time>2026-04-25T12:36:33.937Z</time></trkpt><trkpt lat="45.18550868567562" lon="11.776324100089813"><ele>5.0</ele><time>2026-04-25T12:36:34.937Z</time></trkpt><trkpt lat="45.18520447089432" lon="11.776341961029036"><ele>5.0</ele><time>2026-04-25T12:36:35.937Z</time></trkpt><trkpt lat="45.18489733593396" lon="11.7763544092116"><ele>5.0</ele><time>2026-04-25T12:36:36.937Z</time></trkpt><trkpt lat="45.18459060219165" lon="11.77636645273137"><ele>5.0</ele><time>2026-04-25T12:36:37.937Z</time></trkpt><trkpt lat="45.18428782960238" lon="11.77637534771802"><ele>5.0</ele><time>2026-04-25T12:36:38.937Z</time></trkpt><trkpt lat="45.183985569812755" lon="11.776378590574057"><ele>5.0</ele><time>2026-04-25T12:36:39.937Z</time></trkpt><trkpt lat="45.18368381911716" lon="11.77637411031833"><ele>5.0</ele><time>2026-04-25T12:36:40.937Z</time></trkpt><trkpt lat="45.18338065533786" lon="11.776364130625424"><ele>3.5</ele><time>2026-04-25T12:36:41.937Z</time></trkpt><trkpt lat="45.1830791454608" lon="11.776353798824085"><ele>2.0</ele><time>2026-04-25T12:36:42.937Z</time></trkpt><trkpt lat="45.18278252782675" lon="11.776340457064602"><ele>2.0</ele><time>2026-04-25T12:36:43.937Z</time></trkpt><trkpt lat="45.182485555416335" lon="11.776333719166722"><ele>2.0</ele><time>2026-04-25T12:36:44.937Z</time></trkpt><trkpt lat="45.18218903900768" lon="11.776325035739905"><ele>3.0</ele><time>2026-04-25T12:36:45.937Z</time></trkpt><trkpt lat="45.18189616051569" lon="11.776315711089168"><ele>4.0</ele><time>2026-04-25T12:36:46.937Z</time></trkpt><trkpt lat="45.181604781207064" lon="11.776303846746455"><ele>3.5</ele><time>2026-04-25T12:36:47.937Z</time></trkpt><trkpt lat="45.18131822551809" lon="11.776291537354815"><ele>3.0</ele><time>2026-04-25T12:36:48.937Z</time></trkpt><trkpt lat="45.18102966001523" lon="11.776277179015228"><ele>3.0</ele><time>2026-04-25T12:36:49.936Z</time></trkpt><trkpt lat="45.18074202627533" lon="11.77626568347908"><ele>3.0</ele><time>2026-04-25T12:36:50.936Z</time></trkpt><trkpt lat="45.18045856836446" lon="11.776258261026008"><ele>3.5</ele><time>2026-04-25T12:36:51.936Z</time></trkpt><trkpt lat="45.18017383627104" lon="11.776252774521721"><ele>4.0</ele><time>2026-04-25T12:36:52.936Z</time></trkpt><trkpt lat="45.17988789933963" lon="11.776241339909744"><ele>2.0</ele><time>2026-04-25T12:36:53.936Z</time></trkpt><trkpt lat="45.17960326197774" lon="11.776227545741706"><ele>0.0</ele><time>2026-04-25T12:36:54.936Z</time></trkpt><trkpt lat="45.17931978334548" lon="11.776224220032057"><ele>0.0</ele><time>2026-04-25T12:36:55.936Z</time></trkpt><trkpt lat="45.17903671709651" lon="11.776218034493978"><ele>0.0</ele><time>2026-04-25T12:36:56.936Z</time></trkpt><trkpt lat="45.1787532395333" lon="11.776212017711305"><ele>0.0</ele><time>2026-04-25T12:36:57.936Z</time></trkpt><trkpt lat="45.178468657223966" lon="11.776199747747155"><ele>0.0</ele><time>2026-04-25T12:36:58.936Z</time></trkpt><trkpt lat="45.17818242932668" lon="11.776186739611964"><ele>0.0</ele><time>2026-04-25T12:36:59.936Z</time></trkpt><trkpt lat="45.177897399346264" lon="11.776178201557903"><ele>0.0</ele><time>2026-04-25T12:37:00.936Z</time></trkpt><trkpt lat="45.17761127216652" lon="11.776166560737543"><ele>1.0</ele><time>2026-04-25T12:37:01.936Z</time></trkpt><trkpt lat="45.17732351144598" lon="11.776155059486772"><ele>2.0</ele><time>2026-04-25T12:37:02.936Z</time></trkpt><trkpt lat="45.17703616120356" lon="11.776145029844386"><ele>2.0</ele><time>2026-04-25T12:37:03.936Z</time></trkpt><trkpt lat="45.17675058358929" lon="11.776133606823228"><ele>2.0</ele><time>2026-04-25T12:37:04.936Z</time></trkpt><trkpt lat="45.17646225743655" lon="11.7761275982421"><ele>1.5</ele><time>2026-04-25T12:37:05.936Z</time></trkpt><trkpt lat="45.176173871146204" lon="11.776123886096762"><ele>1.0</ele><time>2026-04-25T12:37:06.936Z</time></trkpt><trkpt lat="45.17588546762976" lon="11.776118314905778"><ele>1.0</ele><time>2026-04-25T12:37:07.936Z</time></trkpt><trkpt lat="45.17559587293059" lon="11.776107448857902"><ele>1.0</ele><time>2026-04-25T12:37:08.936Z</time></trkpt><trkpt lat="45.17530692265832" lon="11.776094691958406"><ele>1.0</ele><time>2026-04-25T12:37:09.936Z</time></trkpt><trkpt lat="45.17501664240205" lon="11.776089332580964"><ele>1.0</ele><time>2026-04-25T12:37:10.936Z</time></trkpt><trkpt lat="45.17472833705129" lon="11.77608340671196"><ele>0.5</ele><time>2026-04-25T12:37:11.936Z</time></trkpt><trkpt lat="45.174436935178285" lon="11.776076211388466"><ele>0.0</ele><time>2026-04-25T12:37:12.936Z</time></trkpt><trkpt lat="45.17415407000996" lon="11.776068980250859"><ele>0.0</ele><time>2026-04-25T12:37:13.936Z</time></trkpt><trkpt lat="45.1738667768162" lon="11.776059194959094"><ele>0.0</ele><time>2026-04-25T12:37:14.936Z</time></trkpt><trkpt lat="45.17357994836366" lon="11.77605116128808"><ele>0.0</ele><time>2026-04-25T12:37:15.936Z</time></trkpt><trkpt lat="45.173295972508896" lon="11.776043749380824"><ele>0.0</ele><time>2026-04-25T12:37:16.936Z</time></trkpt><trkpt lat="45.1730097037911" lon="11.776030041088974"><ele>0.0</ele><time>2026-04-25T12:37:17.936Z</time></trkpt><trkpt lat="45.17272982891148" lon="11.776025584449537"><ele>0.0</ele><time>2026-04-25T12:37:18.936Z</time></trkpt><trkpt lat="45.17244924846807" lon="11.776017472353328"><ele>-0.5</ele><time>2026-04-25T12:37:19.935Z</time></trkpt><trkpt lat="45.17217073843127" lon="11.776009092017766"><ele>-1.0</ele><time>2026-04-25T12:37:20.935Z</time></trkpt><trkpt lat="45.17189463697374" lon="11.77600066074057"><ele>-1.0</ele><time>2026-04-25T12:37:21.935Z</time></trkpt><trkpt lat="45.17161599948162" lon="11.775990868010817"><ele>-1.0</ele><time>2026-04-25T12:37:22.934Z</time></trkpt><trkpt lat="45.171335043272656" lon="11.775987257727554"><ele>-0.5</ele><time>2026-04-25T12:37:23.934Z</time></trkpt><trkpt lat="45.171054525527694" lon="11.775977351992845"><ele>0.0</ele><time>2026-04-25T12:37:24.935Z</time></trkpt><trkpt lat="45.170771118652375" lon="11.77596656810505"><ele>0.0</ele><time>2026-04-25T12:37:25.935Z</time></trkpt><trkpt lat="45.170485413813346" lon="11.775958480547212"><ele>0.0</ele><time>2026-04-25T12:37:26.935Z</time></trkpt><trkpt lat="45.170201084226484" lon="11.775949459499087"><ele>0.0</ele><time>2026-04-25T12:37:27.936Z</time></trkpt><trkpt lat="45.16991251149651" lon="11.775937519405506"><ele>0.0</ele><time>2026-04-25T12:37:28.935Z</time></trkpt><trkpt lat="45.169626384873915" lon="11.77592612157964"><ele>0.0</ele><time>2026-04-25T12:37:29.935Z</time></trkpt><trkpt lat="45.16933733847272" lon="11.775915435011363"><ele>0.0</ele><time>2026-04-25T12:37:30.935Z</time></trkpt><trkpt lat="45.16904834277813" lon="11.775904321521677"><ele>1.5</ele><time>2026-04-25T12:37:31.935Z</time></trkpt><trkpt lat="45.16875914511554" lon="11.775897170318503"><ele>3.0</ele><time>2026-04-25T12:37:32.935Z</time></trkpt><trkpt lat="45.168471266076736" lon="11.7758911682053"><ele>1.5</ele><time>2026-04-25T12:37:33.935Z</time></trkpt><trkpt lat="45.16818537176219" lon="11.77588537101211"><ele>0.0</ele><time>2026-04-25T12:37:34.935Z</time></trkpt><trkpt lat="45.16790086801949" lon="11.77587968356674"><ele>0.0</ele><time>2026-04-25T12:37:35.934Z</time></trkpt><trkpt lat="45.1676147518753" lon="11.77586642938863"><ele>0.0</ele><time>2026-04-25T12:37:36.934Z</time></trkpt><trkpt lat="45.16732400355569" lon="11.77585491953523"><ele>0.0</ele><time>2026-04-25T12:37:37.934Z</time></trkpt><trkpt lat="45.167038191358145" lon="11.77585060367966"><ele>0.0</ele><time>2026-04-25T12:37:38.934Z</time></trkpt><trkpt lat="45.166750185185336" lon="11.775842432472006"><ele>0.5</ele><time>2026-04-25T12:37:39.934Z</time></trkpt><trkpt lat="45.166464471858326" lon="11.77583399109342"><ele>1.0</ele><time>2026-04-25T12:37:40.934Z</time></trkpt><trkpt lat="45.16618116080631" lon="11.775825240075292"><ele>1.0</ele><time>2026-04-25T12:37:41.934Z</time></trkpt><trkpt lat="45.165898277981164" lon="11.775815625481314"><ele>1.0</ele><time>2026-04-25T12:37:42.934Z</time></trkpt><trkpt lat="45.165613879584136" lon="11.775805591074278"><ele>0.5</ele><time>2026-04-25T12:37:43.934Z</time></trkpt><trkpt lat="45.165329283752826" lon="11.775795106174368"><ele>0.0</ele><time>2026-04-25T12:37:44.934Z</time></trkpt><trkpt lat="45.1650428337124" lon="11.775787246371694"><ele>0.0</ele><time>2026-04-25T12:37:45.934Z</time></trkpt><trkpt lat="45.16475600871632" lon="11.775780776999072"><ele>0.0</ele><time>2026-04-25T12:37:46.934Z</time></trkpt><trkpt lat="45.16446943195822" lon="11.775773126961557"><ele>0.0</ele><time>2026-04-25T12:37:47.934Z</time></trkpt><trkpt lat="45.164183695894415" lon="11.775764649787485"><ele>0.0</ele><time>2026-04-25T12:37:48.934Z</time></trkpt><trkpt lat="45.1638974256844" lon="11.775757041650646"><ele>0.0</ele><time>2026-04-25T12:37:49.934Z</time></trkpt><trkpt lat="45.163608472652584" lon="11.775749913371206"><ele>0.0</ele><time>2026-04-25T12:37:50.934Z</time></trkpt><trkpt lat="45.163319682298294" lon="11.775741462180203"><ele>0.5</ele><time>2026-04-25T12:37:51.934Z</time></trkpt><trkpt lat="45.16303381183452" lon="11.775732957389767"><ele>1.0</ele><time>2026-04-25T12:37:52.934Z</time></trkpt><trkpt lat="45.16274773639564" lon="11.775727443948227"><ele>1.0</ele><time>2026-04-25T12:37:53.934Z</time></trkpt><trkpt lat="45.16245877306585" lon="11.775723088776138"><ele>1.0</ele><time>2026-04-25T12:37:54.934Z</time></trkpt><trkpt lat="45.16217032642204" lon="11.775716040887199"><ele>0.5</ele><time>2026-04-25T12:37:55.934Z</time></trkpt><trkpt lat="45.16188482506642" lon="11.77571029599306"><ele>0.0</ele><time>2026-04-25T12:37:56.934Z</time></trkpt><trkpt lat="45.16159706375784" lon="11.77570465844488"><ele>0.0</ele><time>2026-04-25T12:37:57.934Z</time></trkpt><trkpt lat="45.16130980160682" lon="11.775700351629812"><ele>0.0</ele><time>2026-04-25T12:37:58.934Z</time></trkpt><trkpt lat="45.161023195161" lon="11.775694752989205"><ele>0.0</ele><time>2026-04-25T12:37:59.934Z</time></trkpt><trkpt lat="45.16073329088951" lon="11.775687640281236"><ele>0.0</ele><time>2026-04-25T12:38:00.934Z</time></trkpt><trkpt lat="45.16044192287065" lon="11.775681798828643"><ele>0.0</ele><time>2026-04-25T12:38:01.934Z</time></trkpt><trkpt lat="45.1601492393038" lon="11.77567539038541"><ele>0.0</ele><time>2026-04-25T12:38:02.934Z</time></trkpt><trkpt lat="45.15985787741011" lon="11.775663003054111"><ele>0.0</ele><time>2026-04-25T12:38:03.934Z</time></trkpt><trkpt lat="45.15957088294447" lon="11.775645622121486"><ele>0.0</ele><time>2026-04-25T12:38:04.934Z</time></trkpt><trkpt lat="45.15928504476269" lon="11.775627273553424"><ele>-1.0</ele><time>2026-04-25T12:38:05.934Z</time></trkpt><trkpt lat="45.159001012505954" lon="11.775606872192212"><ele>-2.0</ele><time>2026-04-25T12:38:06.934Z</time></trkpt><trkpt lat="45.15871782436536" lon="11.775586511172225"><ele>-2.0</ele><time>2026-04-25T12:38:07.934Z</time></trkpt><trkpt lat="45.15843488720901" lon="11.775569569865272"><ele>-2.0</ele><time>2026-04-25T12:38:08.934Z</time></trkpt><trkpt lat="45.158149429317774" lon="11.775554950973827"><ele>-1.5</ele><time>2026-04-25T12:38:09.934Z</time></trkpt><trkpt lat="45.15786212314977" lon="11.77554453243163"><ele>-1.0</ele><time>2026-04-25T12:38:10.934Z</time></trkpt><trkpt lat="45.157575880579316" lon="11.775538185687877"><ele>-0.5</ele><time>2026-04-25T12:38:11.934Z</time></trkpt><trkpt lat="45.157290449340266" lon="11.775532387398362"><ele>0.0</ele><time>2026-04-25T12:38:12.934Z</time></trkpt><trkpt lat="45.157004023516635" lon="11.775525540453264"><ele>0.0</ele><time>2026-04-25T12:38:13.934Z</time></trkpt><trkpt lat="45.156718789505916" lon="11.775516532489855"><ele>0.0</ele><time>2026-04-25T12:38:14.934Z</time></trkpt><trkpt lat="45.156432725608475" lon="11.775506128824459"><ele>2.0</ele><time>2026-04-25T12:38:15.933Z</time></trkpt><trkpt lat="45.15614927564282" lon="11.775494151827145"><ele>4.0</ele><time>2026-04-25T12:38:16.933Z</time></trkpt><trkpt lat="45.15586364093296" lon="11.77548422085294"><ele>3.5</ele><time>2026-04-25T12:38:17.933Z</time></trkpt><trkpt lat="45.15557931828732" lon="11.775473680861404"><ele>3.0</ele><time>2026-04-25T12:38:18.933Z</time></trkpt><trkpt lat="45.155290838850675" lon="11.775467201168588"><ele>3.0</ele><time>2026-04-25T12:38:19.933Z</time></trkpt><trkpt lat="45.155004888881585" lon="11.775462624587329"><ele>3.0</ele><time>2026-04-25T12:38:20.933Z</time></trkpt><trkpt lat="45.15471772793148" lon="11.77545685327744"><ele>2.5</ele><time>2026-04-25T12:38:21.933Z</time></trkpt><trkpt lat="45.154433559613736" lon="11.775450898776096"><ele>2.0</ele><time>2026-04-25T12:38:22.933Z</time></trkpt><trkpt lat="45.15414893984839" lon="11.775438504392937"><ele>1.5</ele><time>2026-04-25T12:38:23.933Z</time></trkpt><trkpt lat="45.15387063068127" lon="11.775428907419927"><ele>1.0</ele><time>2026-04-25T12:38:24.933Z</time></trkpt><trkpt lat="45.15359252918085" lon="11.775420443667487"><ele>1.0</ele><time>2026-04-25T12:38:25.933Z</time></trkpt><trkpt lat="45.153312564421896" lon="11.775414210303925"><ele>1.0</ele><time>2026-04-25T12:38:26.933Z</time></trkpt><trkpt lat="45.15303271639456" lon="11.775407037279402"><ele>2.5</ele><time>2026-04-25T12:38:27.933Z</time></trkpt><trkpt lat="45.15275232282766" lon="11.77540343085077"><ele>4.0</ele><time>2026-04-25T12:38:28.933Z</time></trkpt><trkpt lat="45.152470789826026" lon="11.77539838236456"><ele>3.0</ele><time>2026-04-25T12:38:29.933Z</time></trkpt><trkpt lat="45.15218532279858" lon="11.775393292382887"><ele>2.0</ele><time>2026-04-25T12:38:30.933Z</time></trkpt><trkpt lat="45.15189754015145" lon="11.775388191454"><ele>2.0</ele><time>2026-04-25T12:38:31.933Z</time></trkpt><trkpt lat="45.151608887566795" lon="11.77538977217871"><ele>2.0</ele><time>2026-04-25T12:38:32.933Z</time></trkpt><trkpt lat="45.151318676960734" lon="11.775387591868268"><ele>2.5</ele><time>2026-04-25T12:38:33.933Z</time></trkpt><trkpt lat="45.151025342461246" lon="11.775383783035544"><ele>3.0</ele><time>2026-04-25T12:38:34.933Z</time></trkpt><trkpt lat="45.150734958128275" lon="11.775375523016656"><ele>2.5</ele><time>2026-04-25T12:38:35.933Z</time></trkpt><trkpt lat="45.15044314181584" lon="11.775368164574669"><ele>2.0</ele><time>2026-04-25T12:38:36.933Z</time></trkpt><trkpt lat="45.15015006517427" lon="11.775356140012716"><ele>2.0</ele><time>2026-04-25T12:38:37.933Z</time></trkpt><trkpt lat="45.14985520062238" lon="11.775341249676552"><ele>2.0</ele><time>2026-04-25T12:38:38.933Z</time></trkpt><trkpt lat="45.14956346474206" lon="11.775321321304423"><ele>2.0</ele><time>2026-04-25T12:38:39.933Z</time></trkpt><trkpt lat="45.14927306257981" lon="11.775299992581749"><ele>2.0</ele><time>2026-04-25T12:38:40.933Z</time></trkpt><trkpt lat="45.148985208304204" lon="11.775283890964817"><ele>1.5</ele><time>2026-04-25T12:38:41.933Z</time></trkpt><trkpt lat="45.148700250784486" lon="11.77527289457499"><ele>1.0</ele><time>2026-04-25T12:38:42.933Z</time></trkpt><trkpt lat="45.14841581826309" lon="11.77526623210526"><ele>1.5</ele><time>2026-04-25T12:38:43.933Z</time></trkpt><trkpt lat="45.14813136243821" lon="11.775259879251882"><ele>2.0</ele><time>2026-04-25T12:38:44.933Z</time></trkpt><trkpt lat="45.147849847181064" lon="11.775254369802958"><ele>2.0</ele><time>2026-04-25T12:38:45.933Z</time></trkpt><trkpt lat="45.14757132081198" lon="11.77524839019603"><ele>2.0</ele><time>2026-04-25T12:38:46.933Z</time></trkpt><trkpt lat="45.14728920370848" lon="11.77523793609816"><ele>1.5</ele><time>2026-04-25T12:38:47.933Z</time></trkpt><trkpt lat="45.14701024612698" lon="11.775228613641168"><ele>1.0</ele><time>2026-04-25T12:38:48.933Z</time></trkpt><trkpt lat="45.146729263004204" lon="11.775219134764935"><ele>1.0</ele><time>2026-04-25T12:38:49.933Z</time></trkpt><trkpt lat="45.14645238315557" lon="11.775204560460024"><ele>1.0</ele><time>2026-04-25T12:38:50.933Z</time></trkpt><trkpt lat="45.14617687300907" lon="11.775187603928128"><ele>1.5</ele><time>2026-04-25T12:38:51.933Z</time></trkpt><trkpt lat="45.14590326788001" lon="11.775181795475273"><ele>2.0</ele><time>2026-04-25T12:38:52.933Z</time></trkpt><trkpt lat="45.14562813852201" lon="11.775173630033859"><ele>2.5</ele><time>2026-04-25T12:38:53.933Z</time></trkpt><trkpt lat="45.14534920493191" lon="11.775164896247286"><ele>3.0</ele><time>2026-04-25T12:38:54.933Z</time></trkpt><trkpt lat="45.14506942484159" lon="11.775156437590617"><ele>3.0</ele><time>2026-04-25T12:38:55.933Z</time></trkpt><trkpt lat="45.14478930239033" lon="11.775148393178037"><ele>3.0</ele><time>2026-04-25T12:38:56.932Z</time></trkpt><trkpt lat="45.14450841169161" lon="11.775143191968017"><ele>3.0</ele><time>2026-04-25T12:38:57.932Z</time></trkpt><trkpt lat="45.14422494848505" lon="11.775132026726764"><ele>3.0</ele><time>2026-04-25T12:38:58.932Z</time></trkpt><trkpt lat="45.14394186878007" lon="11.775120551971993"><ele>3.5</ele><time>2026-04-25T12:38:59.932Z</time></trkpt><trkpt lat="45.143657291176424" lon="11.775110603895385"><ele>4.0</ele><time>2026-04-25T12:39:00.932Z</time></trkpt><trkpt lat="45.14337090526867" lon="11.775101754657626"><ele>3.5</ele><time>2026-04-25T12:39:01.932Z</time></trkpt><trkpt lat="45.143083216301726" lon="11.775090786716985"><ele>3.0</ele><time>2026-04-25T12:39:02.932Z</time></trkpt><trkpt lat="45.14280259282714" lon="11.775080710537232"><ele>3.0</ele><time>2026-04-25T12:39:03.932Z</time></trkpt><trkpt lat="45.14251854903858" lon="11.775071047701065"><ele>3.0</ele><time>2026-04-25T12:39:04.932Z</time></trkpt><trkpt lat="45.142235894946225" lon="11.775068817742063"><ele>3.5</ele><time>2026-04-25T12:39:05.932Z</time></trkpt><trkpt lat="45.14195374501511" lon="11.775062901557297"><ele>4.0</ele><time>2026-04-25T12:39:06.932Z</time></trkpt><trkpt lat="45.1416763537279" lon="11.775053827147728"><ele>4.0</ele><time>2026-04-25T12:39:07.932Z</time></trkpt><trkpt lat="45.14140081214587" lon="11.775042968277779"><ele>4.0</ele><time>2026-04-25T12:39:08.932Z</time></trkpt><trkpt lat="45.1411257946235" lon="11.7750350061938"><ele>4.0</ele><time>2026-04-25T12:39:09.932Z</time></trkpt><trkpt lat="45.14085310789531" lon="11.77502674263299"><ele>4.0</ele><time>2026-04-25T12:39:10.932Z</time></trkpt><trkpt lat="45.140584232078005" lon="11.77501930665133"><ele>4.5</ele><time>2026-04-25T12:39:11.932Z</time></trkpt><trkpt lat="45.140314086590664" lon="11.77501001890071"><ele>5.0</ele><time>2026-04-25T12:39:12.932Z</time></trkpt><trkpt lat="45.14004578663494" lon="11.77500262938804"><ele>4.5</ele><time>2026-04-25T12:39:13.932Z</time></trkpt><trkpt lat="45.13977112523972" lon="11.774998568451764"><ele>4.0</ele><time>2026-04-25T12:39:14.932Z</time></trkpt><trkpt lat="45.139492123730356" lon="11.774992313650143"><ele>4.0</ele><time>2026-04-25T12:39:15.932Z</time></trkpt><trkpt lat="45.13921171314128" lon="11.774981736383832"><ele>4.0</ele><time>2026-04-25T12:39:16.932Z</time></trkpt><trkpt lat="45.13892631433058" lon="11.774963380287643"><ele>4.0</ele><time>2026-04-25T12:39:17.932Z</time></trkpt><trkpt lat="45.13863621294943" lon="11.774947279142879"><ele>4.0</ele><time>2026-04-25T12:39:18.932Z</time></trkpt><trkpt lat="45.13833787856594" lon="11.774935770973933"><ele>3.0</ele><time>2026-04-25T12:39:19.932Z</time></trkpt><trkpt lat="45.138037232704825" lon="11.774926922021205"><ele>2.0</ele><time>2026-04-25T12:39:20.932Z</time></trkpt><trkpt lat="45.13773562363972" lon="11.774914594149893"><ele>2.0</ele><time>2026-04-25T12:39:21.932Z</time></trkpt><trkpt lat="45.13743257095352" lon="11.774905605773787"><ele>2.0</ele><time>2026-04-25T12:39:22.932Z</time></trkpt><trkpt lat="45.13714042600887" lon="11.77489983973562"><ele>2.0</ele><time>2026-04-25T12:39:23.932Z</time></trkpt><trkpt lat="45.136856922284565" lon="11.774895292274302"><ele>2.0</ele><time>2026-04-25T12:39:24.932Z</time></trkpt><trkpt lat="45.136572996466356" lon="11.774881062524821"><ele>1.5</ele><time>2026-04-25T12:39:25.932Z</time></trkpt><trkpt lat="45.136301155303244" lon="11.774869088774041"><ele>1.0</ele><time>2026-04-25T12:39:26.932Z</time></trkpt><trkpt lat="45.136030622342616" lon="11.77485646445999"><ele>1.0</ele><time>2026-04-25T12:39:27.932Z</time></trkpt><trkpt lat="45.135758643721694" lon="11.774847301854694"><ele>1.0</ele><time>2026-04-25T12:39:28.932Z</time></trkpt><trkpt lat="45.13548189260453" lon="11.77483939746497"><ele>1.0</ele><time>2026-04-25T12:39:29.932Z</time></trkpt><trkpt lat="45.13520332537591" lon="11.77482489176312"><ele>1.0</ele><time>2026-04-25T12:39:30.932Z</time></trkpt><trkpt lat="45.134926529458795" lon="11.774805624950194"><ele>1.0</ele><time>2026-04-25T12:39:31.932Z</time></trkpt><trkpt lat="45.134648723475856" lon="11.774778954651708"><ele>1.0</ele><time>2026-04-25T12:39:32.932Z</time></trkpt><trkpt lat="45.134368186814115" lon="11.774741801643795"><ele>1.0</ele><time>2026-04-25T12:39:33.932Z</time></trkpt><trkpt lat="45.134092035267905" lon="11.774703457656667"><ele>1.0</ele><time>2026-04-25T12:39:34.932Z</time></trkpt><trkpt lat="45.13381254175285" lon="11.774665938720469"><ele>1.5</ele><time>2026-04-25T12:39:35.932Z</time></trkpt><trkpt lat="45.13353104520076" lon="11.774618156348847"><ele>2.0</ele><time>2026-04-25T12:39:36.932Z</time></trkpt><trkpt lat="45.133249675082475" lon="11.774570125503173"><ele>1.5</ele><time>2026-04-25T12:39:37.932Z</time></trkpt><trkpt lat="45.1329665494171" lon="11.774519733296934"><ele>1.0</ele><time>2026-04-25T12:39:38.932Z</time></trkpt><trkpt lat="45.13268386283215" lon="11.774465807465445"><ele>1.0</ele><time>2026-04-25T12:39:39.932Z</time></trkpt><trkpt lat="45.132403898549924" lon="11.77440603592112"><ele>1.0</ele><time>2026-04-25T12:39:40.932Z</time></trkpt><trkpt lat="45.13212653168017" lon="11.77434571365004"><ele>0.5</ele><time>2026-04-25T12:39:41.932Z</time></trkpt><trkpt lat="45.13184499998749" lon="11.774282565802435"><ele>0.0</ele><time>2026-04-25T12:39:42.932Z</time></trkpt><trkpt lat="45.13156540691494" lon="11.774224613475605"><ele>0.5</ele><time>2026-04-25T12:39:43.932Z</time></trkpt><trkpt lat="45.13128371997539" lon="11.774166417123656"><ele>1.0</ele><time>2026-04-25T12:39:44.932Z</time></trkpt><trkpt lat="45.131006320776955" lon="11.774105609982016"><ele>1.0</ele><time>2026-04-25T12:39:45.932Z</time></trkpt><trkpt lat="45.13072952269128" lon="11.77404311091496"><ele>1.0</ele><time>2026-04-25T12:39:46.931Z</time></trkpt><trkpt lat="45.13045050439719" lon="11.77397919083237"><ele>1.0</ele><time>2026-04-25T12:39:47.931Z</time></trkpt><trkpt lat="45.13017734445123" lon="11.773923213612253"><ele>1.0</ele><time>2026-04-25T12:39:48.931Z</time></trkpt><trkpt lat="45.129905384691504" lon="11.773858555776958"><ele>1.5</ele><time>2026-04-25T12:39:49.931Z</time></trkpt><trkpt lat="45.12963331685848" lon="11.773792397445687"><ele>2.0</ele><time>2026-04-25T12:39:50.931Z</time></trkpt><trkpt lat="45.12936196766007" lon="11.773733076652785"><ele>2.0</ele><time>2026-04-25T12:39:51.931Z</time></trkpt><trkpt lat="45.12908826467966" lon="11.773669846898756"><ele>2.0</ele><time>2026-04-25T12:39:52.931Z</time></trkpt><trkpt lat="45.12881239246865" lon="11.773613055742898"><ele>2.5</ele><time>2026-04-25T12:39:53.931Z</time></trkpt><trkpt lat="45.12853878269007" lon="11.773554660710605"><ele>3.0</ele><time>2026-04-25T12:39:54.931Z</time></trkpt><trkpt lat="45.12826553920055" lon="11.773495220768424"><ele>2.5</ele><time>2026-04-25T12:39:55.931Z</time></trkpt><trkpt lat="45.12799021858747" lon="11.773427082133134"><ele>2.0</ele><time>2026-04-25T12:39:56.931Z</time></trkpt><trkpt lat="45.127711447170924" lon="11.773366196034313"><ele>2.0</ele><time>2026-04-25T12:39:57.931Z</time></trkpt><trkpt lat="45.12743100893357" lon="11.773311557089261"><ele>2.0</ele><time>2026-04-25T12:39:58.931Z</time></trkpt><trkpt lat="45.127148526455564" lon="11.773257302322467"><ele>2.5</ele><time>2026-04-25T12:39:59.931Z</time></trkpt><trkpt lat="45.126865274965674" lon="11.77319934006452"><ele>3.0</ele><time>2026-04-25T12:40:00.931Z</time></trkpt><trkpt lat="45.12658129717511" lon="11.773137295531017"><ele>3.0</ele><time>2026-04-25T12:40:01.931Z</time></trkpt><trkpt lat="45.12629658949599" lon="11.77307375936651"><ele>3.0</ele><time>2026-04-25T12:40:02.931Z</time></trkpt><trkpt lat="45.1260100482835" lon="11.773009068308744"><ele>2.5</ele><time>2026-04-25T12:40:03.931Z</time></trkpt><trkpt lat="45.12572470351831" lon="11.772946311575144"><ele>2.0</ele><time>2026-04-25T12:40:04.931Z</time></trkpt><trkpt lat="45.12543954442788" lon="11.772887859015354"><ele>2.0</ele><time>2026-04-25T12:40:05.931Z</time></trkpt><trkpt lat="45.12516046670156" lon="11.772828983582693"><ele>2.0</ele><time>2026-04-25T12:40:06.931Z</time></trkpt><trkpt lat="45.12488159401069" lon="11.772769710555437"><ele>1.5</ele><time>2026-04-25T12:40:07.931Z</time></trkpt><trkpt lat="45.124604255347485" lon="11.772707857587637"><ele>1.0</ele><time>2026-04-25T12:40:08.931Z</time></trkpt><trkpt lat="45.124329761211946" lon="11.772639288152074"><ele>1.5</ele><time>2026-04-25T12:40:09.931Z</time></trkpt><trkpt lat="45.12406249602909" lon="11.772557330359836"><ele>2.0</ele><time>2026-04-25T12:40:10.931Z</time></trkpt><trkpt lat="45.123788094854525" lon="11.772458603718324"><ele>2.0</ele><time>2026-04-25T12:40:11.931Z</time></trkpt><trkpt lat="45.12352165828763" lon="11.772353714146602"><ele>2.0</ele><time>2026-04-25T12:40:12.931Z</time></trkpt><trkpt lat="45.12325434381374" lon="11.772231719171785"><ele>2.5</ele><time>2026-04-25T12:40:13.931Z</time></trkpt><trkpt lat="45.12298666538583" lon="11.772098754279739"><ele>3.0</ele><time>2026-04-25T12:40:14.931Z</time></trkpt><trkpt lat="45.12272068106343" lon="11.771957561754459"><ele>3.0</ele><time>2026-04-25T12:40:15.931Z</time></trkpt><trkpt lat="45.12246063037448" lon="11.771805609170604"><ele>3.0</ele><time>2026-04-25T12:40:16.931Z</time></trkpt><trkpt lat="45.12220625677605" lon="11.771646331450839"><ele>3.5</ele><time>2026-04-25T12:40:17.931Z</time></trkpt><trkpt lat="45.12195182073547" lon="11.771476065649884"><ele>4.0</ele><time>2026-04-25T12:40:18.931Z</time></trkpt><trkpt lat="45.12170544897509" lon="11.771295606706975"><ele>3.5</ele><time>2026-04-25T12:40:19.931Z</time></trkpt><trkpt lat="45.1214689038376" lon="11.771102410718111"><ele>3.0</ele><time>2026-04-25T12:40:20.931Z</time></trkpt><trkpt lat="45.121242129031934" lon="11.770896449282722"><ele>3.0</ele><time>2026-04-25T12:40:21.931Z</time></trkpt><trkpt lat="45.1210112616853" lon="11.770682743224992"><ele>3.0</ele><time>2026-04-25T12:40:22.931Z</time></trkpt><trkpt lat="45.120786322592764" lon="11.770476923898464"><ele>3.0</ele><time>2026-04-25T12:40:23.931Z</time></trkpt><trkpt lat="45.12055567879338" lon="11.77026633481602"><ele>3.0</ele><time>2026-04-25T12:40:24.931Z</time></trkpt><trkpt lat="45.120326982738966" lon="11.770055742510122"><ele>2.5</ele><time>2026-04-25T12:40:25.931Z</time></trkpt><trkpt lat="45.12008877403376" lon="11.769845163968403"><ele>2.0</ele><time>2026-04-25T12:40:26.931Z</time></trkpt><trkpt lat="45.11984973283925" lon="11.76963478291117"><ele>2.0</ele><time>2026-04-25T12:40:27.931Z</time></trkpt><trkpt lat="45.11961481570365" lon="11.76942152787135"><ele>2.0</ele><time>2026-04-25T12:40:28.931Z</time></trkpt><trkpt lat="45.11938004949398" lon="11.76921059873187"><ele>2.5</ele><time>2026-04-25T12:40:29.931Z</time></trkpt><trkpt lat="45.11914261955211" lon="11.769001407691286"><ele>3.0</ele><time>2026-04-25T12:40:30.93Z</time></trkpt><trkpt lat="45.11890843806923" lon="11.76879124373382"><ele>3.0</ele><time>2026-04-25T12:40:31.93Z</time></trkpt><trkpt lat="45.11867836055312" lon="11.768581493411789"><ele>3.0</ele><time>2026-04-25T12:40:32.93Z</time></trkpt><trkpt lat="45.11844393373999" lon="11.768373881999628"><ele>3.0</ele><time>2026-04-25T12:40:33.93Z</time></trkpt><trkpt lat="45.11820639579888" lon="11.768159853500746"><ele>3.0</ele><time>2026-04-25T12:40:34.93Z</time></trkpt><trkpt lat="45.11797238096297" lon="11.767950474030092"><ele>3.0</ele><time>2026-04-25T12:40:35.93Z</time></trkpt><trkpt lat="45.117738497822714" lon="11.76773711995242"><ele>3.0</ele><time>2026-04-25T12:40:36.93Z</time></trkpt><trkpt lat="45.117499299584686" lon="11.767519697889862"><ele>4.0</ele><time>2026-04-25T12:40:37.93Z</time></trkpt><trkpt lat="45.1172604062663" lon="11.767302484448281"><ele>5.0</ele><time>2026-04-25T12:40:38.93Z</time></trkpt><trkpt lat="45.11702555452609" lon="11.767089526538342"><ele>5.0</ele><time>2026-04-25T12:40:39.93Z</time></trkpt><trkpt lat="45.11678926198694" lon="11.766875209499155"><ele>5.0</ele><time>2026-04-25T12:40:40.93Z</time></trkpt><trkpt lat="45.11655313380779" lon="11.766661850603162"><ele>4.0</ele><time>2026-04-25T12:40:41.93Z</time></trkpt><trkpt lat="45.116318052440484" lon="11.766446414876794"><ele>3.0</ele><time>2026-04-25T12:40:42.93Z</time></trkpt><trkpt lat="45.11608303798851" lon="11.76623513504316"><ele>2.5</ele><time>2026-04-25T12:40:43.93Z</time></trkpt><trkpt lat="45.11584688238828" lon="11.76602370276629"><ele>2.0</ele><time>2026-04-25T12:40:44.93Z</time></trkpt><trkpt lat="45.115607571048024" lon="11.765809364710776"><ele>2.0</ele><time>2026-04-25T12:40:45.93Z</time></trkpt><trkpt lat="45.115370398519644" lon="11.765604016818227"><ele>2.0</ele><time>2026-04-25T12:40:46.93Z</time></trkpt><trkpt lat="45.11513496824729" lon="11.765391303298376"><ele>3.0</ele><time>2026-04-25T12:40:47.93Z</time></trkpt><trkpt lat="45.114904882885305" lon="11.765180030491159"><ele>4.0</ele><time>2026-04-25T12:40:48.93Z</time></trkpt><trkpt lat="45.11467570360564" lon="11.764969783070718"><ele>4.0</ele><time>2026-04-25T12:40:49.93Z</time></trkpt><trkpt lat="45.11444674299421" lon="11.76476173419497"><ele>4.0</ele><time>2026-04-25T12:40:50.93Z</time></trkpt><trkpt lat="45.1142170009913" lon="11.764552928011103"><ele>4.0</ele><time>2026-04-25T12:40:51.93Z</time></trkpt><trkpt lat="45.11399122321092" lon="11.764343947241086"><ele>4.0</ele><time>2026-04-25T12:40:52.93Z</time></trkpt><trkpt lat="45.11376393385975" lon="11.764139643877433"><ele>4.0</ele><time>2026-04-25T12:40:53.93Z</time></trkpt><trkpt lat="45.11353636018833" lon="11.763932684360626"><ele>4.0</ele><time>2026-04-25T12:40:54.93Z</time></trkpt><trkpt lat="45.1133063818274" lon="11.763726471852598"><ele>4.5</ele><time>2026-04-25T12:40:55.93Z</time></trkpt><trkpt lat="45.11308161324981" lon="11.763515004148811"><ele>5.0</ele><time>2026-04-25T12:40:56.93Z</time></trkpt><trkpt lat="45.11285348376413" lon="11.763313231343282"><ele>5.0</ele><time>2026-04-25T12:40:57.93Z</time></trkpt><trkpt lat="45.11262387143174" lon="11.763108497966595"><ele>5.0</ele><time>2026-04-25T12:40:58.93Z</time></trkpt><trkpt lat="45.11239123286276" lon="11.762907151699546"><ele>4.5</ele><time>2026-04-25T12:40:59.93Z</time></trkpt><trkpt lat="45.112159847842456" lon="11.762701736952536"><ele>4.0</ele><time>2026-04-25T12:41:00.93Z</time></trkpt><trkpt lat="45.111928086880894" lon="11.762493062392458"><ele>4.0</ele><time>2026-04-25T12:41:01.93Z</time></trkpt><trkpt lat="45.111692612550094" lon="11.76227782350708"><ele>4.0</ele><time>2026-04-25T12:41:02.93Z</time></trkpt><trkpt lat="45.1114530312264" lon="11.762068912162421"><ele>3.5</ele><time>2026-04-25T12:41:03.93Z</time></trkpt><trkpt lat="45.111209035110456" lon="11.761847861168967"><ele>3.0</ele><time>2026-04-25T12:41:04.93Z</time></trkpt><trkpt lat="45.11096131438127" lon="11.761625674935509"><ele>2.5</ele><time>2026-04-25T12:41:05.93Z</time></trkpt><trkpt lat="45.11071419650402" lon="11.761401383365104"><ele>2.0</ele><time>2026-04-25T12:41:06.93Z</time></trkpt><trkpt lat="45.11046557215236" lon="11.761178546914298"><ele>2.0</ele><time>2026-04-25T12:41:07.93Z</time></trkpt><trkpt lat="45.11021430335044" lon="11.760953271055993"><ele>2.0</ele><time>2026-04-25T12:41:08.93Z</time></trkpt><trkpt lat="45.10996412022431" lon="11.760727842171809"><ele>2.0</ele><time>2026-04-25T12:41:09.93Z</time></trkpt><trkpt lat="45.10971490263627" lon="11.76050584479191"><ele>2.0</ele><time>2026-04-25T12:41:10.93Z</time></trkpt><trkpt lat="45.10946718752831" lon="11.760280478901864"><ele>2.0</ele><time>2026-04-25T12:41:11.93Z</time></trkpt><trkpt lat="45.10922163195759" lon="11.760058531956167"><ele>2.0</ele><time>2026-04-25T12:41:12.929Z</time></trkpt><trkpt lat="45.108974176874014" lon="11.759833238778713"><ele>2.0</ele><time>2026-04-25T12:41:13.929Z</time></trkpt><trkpt lat="45.10872698934441" lon="11.75961573575417"><ele>2.0</ele><time>2026-04-25T12:41:14.929Z</time></trkpt><trkpt lat="45.10848437008537" lon="11.75939590606672"><ele>2.5</ele><time>2026-04-25T12:41:15.929Z</time></trkpt><trkpt lat="45.10823988825303" lon="11.759176520822516"><ele>3.0</ele><time>2026-04-25T12:41:16.929Z</time></trkpt><trkpt lat="45.10799909590537" lon="11.758960491182949"><ele>3.0</ele><time>2026-04-25T12:41:17.929Z</time></trkpt><trkpt lat="45.10776025043436" lon="11.758740140396363"><ele>3.0</ele><time>2026-04-25T12:41:18.929Z</time></trkpt><trkpt lat="45.10752294499197" lon="11.758521886984024"><ele>3.0</ele><time>2026-04-25T12:41:19.929Z</time></trkpt><trkpt lat="45.10728176463601" lon="11.758303414581475"><ele>3.0</ele><time>2026-04-25T12:41:20.929Z</time></trkpt><trkpt lat="45.10704092036912" lon="11.758085933434893"><ele>3.0</ele><time>2026-04-25T12:41:21.929Z</time></trkpt><trkpt lat="45.106798470385584" lon="11.757868553427725"><ele>3.0</ele><time>2026-04-25T12:41:22.929Z</time></trkpt><trkpt lat="45.10655690581034" lon="11.757652221252872"><ele>3.5</ele><time>2026-04-25T12:41:23.929Z</time></trkpt><trkpt lat="45.10631725512542" lon="11.75743569656702"><ele>4.0</ele><time>2026-04-25T12:41:24.929Z</time></trkpt><trkpt lat="45.10607667872426" lon="11.757220065006104"><ele>4.0</ele><time>2026-04-25T12:41:25.929Z</time></trkpt><trkpt lat="45.10583759231971" lon="11.757009214270166"><ele>4.0</ele><time>2026-04-25T12:41:26.929Z</time></trkpt><trkpt lat="45.105599303725164" lon="11.756807112002221"><ele>3.0</ele><time>2026-04-25T12:41:27.929Z</time></trkpt><trkpt lat="45.10535799118518" lon="11.756605610072452"><ele>2.0</ele><time>2026-04-25T12:41:28.929Z</time></trkpt><trkpt lat="45.10511284301986" lon="11.756408633941447"><ele>2.5</ele><time>2026-04-25T12:41:29.929Z</time></trkpt><trkpt lat="45.10486397769313" lon="11.756218943193602"><ele>3.0</ele><time>2026-04-25T12:41:30.929Z</time></trkpt><trkpt lat="45.10461614772331" lon="11.75603453050287"><ele>3.0</ele><time>2026-04-25T12:41:31.929Z</time></trkpt><trkpt lat="45.10437609686374" lon="11.75585591162957"><ele>3.0</ele><time>2026-04-25T12:41:32.929Z</time></trkpt><trkpt lat="45.10412704167594" lon="11.755683478487132"><ele>2.5</ele><time>2026-04-25T12:41:33.929Z</time></trkpt><trkpt lat="45.103873162475175" lon="11.755516101886727"><ele>2.0</ele><time>2026-04-25T12:41:34.929Z</time></trkpt><trkpt lat="45.10361684964925" lon="11.755348660981277"><ele>2.0</ele><time>2026-04-25T12:41:35.93Z</time></trkpt><trkpt lat="45.103365056173956" lon="11.755186534736056"><ele>2.0</ele><time>2026-04-25T12:41:36.933Z</time></trkpt><trkpt lat="45.103111539895444" lon="11.755026144261327"><ele>3.0</ele><time>2026-04-25T12:41:37.935Z</time></trkpt><trkpt lat="45.10285345654085" lon="11.754873183887339"><ele>4.0</ele><time>2026-04-25T12:41:38.937Z</time></trkpt><trkpt lat="45.10259382241396" lon="11.754721773804587"><ele>2.5</ele><time>2026-04-25T12:41:39.938Z</time></trkpt><trkpt lat="45.10233321888845" lon="11.754569199003111"><ele>1.0</ele><time>2026-04-25T12:41:40.94Z</time></trkpt><trkpt lat="45.102072491630956" lon="11.754415856505721"><ele>2.0</ele><time>2026-04-25T12:41:41.941Z</time></trkpt><trkpt lat="45.10180924616395" lon="11.754256669545384"><ele>3.0</ele><time>2026-04-25T12:41:42.943Z</time></trkpt><trkpt lat="45.10154846587203" lon="11.754105424513549"><ele>3.0</ele><time>2026-04-25T12:41:43.944Z</time></trkpt><trkpt lat="45.10128909064147" lon="11.753961210012031"><ele>3.0</ele><time>2026-04-25T12:41:44.945Z</time></trkpt><trkpt lat="45.1010331642994" lon="11.75381720857815"><ele>3.0</ele><time>2026-04-25T12:41:45.946Z</time></trkpt><trkpt lat="45.100776943859934" lon="11.753671818606037"><ele>3.0</ele><time>2026-04-25T12:41:46.947Z</time></trkpt><trkpt lat="45.100522650932454" lon="11.753521423737993"><ele>3.5</ele><time>2026-04-25T12:41:47.948Z</time></trkpt><trkpt lat="45.10026801714813" lon="11.753371928830806"><ele>4.0</ele><time>2026-04-25T12:41:48.949Z</time></trkpt><trkpt lat="45.100012348064695" lon="11.75322371653868"><ele>4.0</ele><time>2026-04-25T12:41:49.95Z</time></trkpt><trkpt lat="45.09975440883789" lon="11.753070823148935"><ele>4.0</ele><time>2026-04-25T12:41:50.951Z</time></trkpt><trkpt lat="45.099496722104035" lon="11.752916560328265"><ele>4.0</ele><time>2026-04-25T12:41:51.952Z</time></trkpt><trkpt lat="45.09923656082007" lon="11.752769355217769"><ele>4.0</ele><time>2026-04-25T12:41:52.953Z</time></trkpt><trkpt lat="45.09897983595737" lon="11.752620706495733"><ele>4.0</ele><time>2026-04-25T12:41:53.953Z</time></trkpt><trkpt lat="45.09872415911981" lon="11.75246738102494"><ele>4.0</ele><time>2026-04-25T12:41:54.954Z</time></trkpt><trkpt lat="45.09846560729483" lon="11.752317320891748"><ele>5.0</ele><time>2026-04-25T12:41:55.954Z</time></trkpt><trkpt lat="45.09820714615021" lon="11.752171408105895"><ele>6.0</ele><time>2026-04-25T12:41:56.955Z</time></trkpt><trkpt lat="45.09795141445396" lon="11.752024495021207"><ele>6.0</ele><time>2026-04-25T12:41:57.956Z</time></trkpt><trkpt lat="45.09769242498037" lon="11.751879351151343"><ele>6.0</ele><time>2026-04-25T12:41:58.956Z</time></trkpt><trkpt lat="45.09743729986924" lon="11.751730099460401"><ele>5.5</ele><time>2026-04-25T12:41:59.957Z</time></trkpt><trkpt lat="45.097185033709" lon="11.751586243472675"><ele>5.0</ele><time>2026-04-25T12:42:00.957Z</time></trkpt><trkpt lat="45.09693286673573" lon="11.751440682595392"><ele>5.0</ele><time>2026-04-25T12:42:01.957Z</time></trkpt><trkpt lat="45.09668223796179" lon="11.751298004005266"><ele>5.0</ele><time>2026-04-25T12:42:02.958Z</time></trkpt><trkpt lat="45.09643134371151" lon="11.751154669270882"><ele>6.5</ele><time>2026-04-25T12:42:03.958Z</time></trkpt><trkpt lat="45.09617620120312" lon="11.751009162242836"><ele>8.0</ele><time>2026-04-25T12:42:04.959Z</time></trkpt><trkpt lat="45.0959209989832" lon="11.750861532358071"><ele>5.0</ele><time>2026-04-25T12:42:05.959Z</time></trkpt><trkpt lat="45.095662451917185" lon="11.750710181146406"><ele>2.0</ele><time>2026-04-25T12:42:06.959Z</time></trkpt><trkpt lat="45.095402605787584" lon="11.750563620425245"><ele>2.0</ele><time>2026-04-25T12:42:07.959Z</time></trkpt><trkpt lat="45.09514545829113" lon="11.750414200776905"><ele>2.0</ele><time>2026-04-25T12:42:08.96Z</time></trkpt><trkpt lat="45.09488881653189" lon="11.75026365684952"><ele>3.0</ele><time>2026-04-25T12:42:09.96Z</time></trkpt><trkpt lat="45.094632432279866" lon="11.750112854284097"><ele>4.0</ele><time>2026-04-25T12:42:10.96Z</time></trkpt><trkpt lat="45.09437647650718" lon="11.749960532610576"><ele>4.0</ele><time>2026-04-25T12:42:11.96Z</time></trkpt><trkpt lat="45.094119624645245" lon="11.749809311306757"><ele>4.0</ele><time>2026-04-25T12:42:12.961Z</time></trkpt><trkpt lat="45.09386327803668" lon="11.749656999065326"><ele>4.0</ele><time>2026-04-25T12:42:13.961Z</time></trkpt><trkpt lat="45.0936080860552" lon="11.749514115308145"><ele>4.0</ele><time>2026-04-25T12:42:14.961Z</time></trkpt><trkpt lat="45.09334977851818" lon="11.74936397421415"><ele>3.5</ele><time>2026-04-25T12:42:15.961Z</time></trkpt><trkpt lat="45.09309212720522" lon="11.749211944494757"><ele>3.0</ele><time>2026-04-25T12:42:16.961Z</time></trkpt><trkpt lat="45.09283288453212" lon="11.74905940402784"><ele>3.0</ele><time>2026-04-25T12:42:17.961Z</time></trkpt><trkpt lat="45.09257300176055" lon="11.748905647650302"><ele>3.0</ele><time>2026-04-25T12:42:18.962Z</time></trkpt><trkpt lat="45.092312715484105" lon="11.748752674026612"><ele>3.5</ele><time>2026-04-25T12:42:19.962Z</time></trkpt><trkpt lat="45.09205099946349" lon="11.74860146128525"><ele>4.0</ele><time>2026-04-25T12:42:20.962Z</time></trkpt><trkpt lat="45.09178464361857" lon="11.748448771944698"><ele>4.0</ele><time>2026-04-25T12:42:21.962Z</time></trkpt><trkpt lat="45.09151614719824" lon="11.748294468870796"><ele>4.0</ele><time>2026-04-25T12:42:22.962Z</time></trkpt><trkpt lat="45.09124864828902" lon="11.748140339854098"><ele>4.0</ele><time>2026-04-25T12:42:23.962Z</time></trkpt><trkpt lat="45.09097907199565" lon="11.747982638156538"><ele>4.0</ele><time>2026-04-25T12:42:24.962Z</time></trkpt><trkpt lat="45.090712994259846" lon="11.747827062079795"><ele>3.0</ele><time>2026-04-25T12:42:25.962Z</time></trkpt><trkpt lat="45.09044908476025" lon="11.747671646528305"><ele>2.0</ele><time>2026-04-25T12:42:26.962Z</time></trkpt><trkpt lat="45.09018831274201" lon="11.747526466986299"><ele>2.0</ele><time>2026-04-25T12:42:27.962Z</time></trkpt><trkpt lat="45.08993038459173" lon="11.747373051203422"><ele>2.0</ele><time>2026-04-25T12:42:28.962Z</time></trkpt><trkpt lat="45.08966930528483" lon="11.747222840636688"><ele>2.0</ele><time>2026-04-25T12:42:29.962Z</time></trkpt><trkpt lat="45.089407816898316" lon="11.74706595613771"><ele>2.0</ele><time>2026-04-25T12:42:30.963Z</time></trkpt><trkpt lat="45.08914936620758" lon="11.746914429116226"><ele>2.0</ele><time>2026-04-25T12:42:31.963Z</time></trkpt><trkpt lat="45.08889231524367" lon="11.74676462991643"><ele>2.0</ele><time>2026-04-25T12:42:32.963Z</time></trkpt><trkpt lat="45.0886362878557" lon="11.74660659358318"><ele>2.0</ele><time>2026-04-25T12:42:33.963Z</time></trkpt><trkpt lat="45.08838002679269" lon="11.746442096901676"><ele>2.0</ele><time>2026-04-25T12:42:34.963Z</time></trkpt><trkpt lat="45.088124724794135" lon="11.74627518994578"><ele>2.5</ele><time>2026-04-25T12:42:35.963Z</time></trkpt><trkpt lat="45.087865634417135" lon="11.746107444709715"><ele>3.0</ele><time>2026-04-25T12:42:36.963Z</time></trkpt><trkpt lat="45.08760728916166" lon="11.745934417221507"><ele>2.5</ele><time>2026-04-25T12:42:37.963Z</time></trkpt><trkpt lat="45.08735027281497" lon="11.745757744942681"><ele>2.0</ele><time>2026-04-25T12:42:38.963Z</time></trkpt><trkpt lat="45.08709226687147" lon="11.745580092018168"><ele>2.0</ele><time>2026-04-25T12:42:39.963Z</time></trkpt><trkpt lat="45.086831783337495" lon="11.74539766023001"><ele>2.0</ele><time>2026-04-25T12:42:40.963Z</time></trkpt><trkpt lat="45.08657430779855" lon="11.74520663051951"><ele>2.5</ele><time>2026-04-25T12:42:41.963Z</time></trkpt><trkpt lat="45.08631673283269" lon="11.745013251464735"><ele>3.0</ele><time>2026-04-25T12:42:42.963Z</time></trkpt><trkpt lat="45.08606200282423" lon="11.744814820214454"><ele>3.0</ele><time>2026-04-25T12:42:43.963Z</time></trkpt><trkpt lat="45.08581146090631" lon="11.744614537460906"><ele>3.0</ele><time>2026-04-25T12:42:44.963Z</time></trkpt><trkpt lat="45.085557769024085" lon="11.744418910926242"><ele>2.5</ele><time>2026-04-25T12:42:45.963Z</time></trkpt><trkpt lat="45.08530619389514" lon="11.744225610761754"><ele>2.0</ele><time>2026-04-25T12:42:46.963Z</time></trkpt><trkpt lat="45.0850515842913" lon="11.744032215684278"><ele>1.5</ele><time>2026-04-25T12:42:47.963Z</time></trkpt><trkpt lat="45.08479954325991" lon="11.743838041941663"><ele>1.0</ele><time>2026-04-25T12:42:48.963Z</time></trkpt><trkpt lat="45.08454760573434" lon="11.74364254677855"><ele>0.5</ele><time>2026-04-25T12:42:49.963Z</time></trkpt><trkpt lat="45.08429709115986" lon="11.74344511852812"><ele>0.0</ele><time>2026-04-25T12:42:50.963Z</time></trkpt><trkpt lat="45.08404833027458" lon="11.74324747288861"><ele>2.0</ele><time>2026-04-25T12:42:51.963Z</time></trkpt><trkpt lat="45.0838034976048" lon="11.743049570396368"><ele>4.0</ele><time>2026-04-25T12:42:52.963Z</time></trkpt><trkpt lat="45.08356124526379" lon="11.742852671554603"><ele>3.5</ele><time>2026-04-25T12:42:53.963Z</time></trkpt><trkpt lat="45.083318929208865" lon="11.74266266501026"><ele>3.0</ele><time>2026-04-25T12:42:54.963Z</time></trkpt><trkpt lat="45.0830746777302" lon="11.742472124116357"><ele>3.0</ele><time>2026-04-25T12:42:55.963Z</time></trkpt><trkpt lat="45.08282959999172" lon="11.742281258930504"><ele>3.0</ele><time>2026-04-25T12:42:56.963Z</time></trkpt><trkpt lat="45.08258507364405" lon="11.742090729496255"><ele>2.5</ele><time>2026-04-25T12:42:57.963Z</time></trkpt><trkpt lat="45.082339932123695" lon="11.74190197819082"><ele>2.0</ele><time>2026-04-25T12:42:58.963Z</time></trkpt><trkpt lat="45.08209331748067" lon="11.741715363672395"><ele>1.5</ele><time>2026-04-25T12:42:59.963Z</time></trkpt><trkpt lat="45.081847050947545" lon="11.741528348806368"><ele>1.0</ele><time>2026-04-25T12:43:00.963Z</time></trkpt><trkpt lat="45.081600062350915" lon="11.741335770900875"><ele>1.0</ele><time>2026-04-25T12:43:01.963Z</time></trkpt><trkpt lat="45.081358457490225" lon="11.74113771164154"><ele>1.0</ele><time>2026-04-25T12:43:02.963Z</time></trkpt><trkpt lat="45.08111681754996" lon="11.74094311766273"><ele>1.0</ele><time>2026-04-25T12:43:03.963Z</time></trkpt><trkpt lat="45.08086979239682" lon="11.740745464140772"><ele>1.0</ele><time>2026-04-25T12:43:04.963Z</time></trkpt><trkpt lat="45.08062633864412" lon="11.740550150073972"><ele>1.5</ele><time>2026-04-25T12:43:05.963Z</time></trkpt><trkpt lat="45.08038149697003" lon="11.740351726332227"><ele>2.0</ele><time>2026-04-25T12:43:06.963Z</time></trkpt><trkpt lat="45.080133280086926" lon="11.740159724285544"><ele>3.0</ele><time>2026-04-25T12:43:07.963Z</time></trkpt><trkpt lat="45.07988037306054" lon="11.739966560396388"><ele>4.0</ele><time>2026-04-25T12:43:08.963Z</time></trkpt><trkpt lat="45.0796290750849" lon="11.739770325089673"><ele>4.0</ele><time>2026-04-25T12:43:09.963Z</time></trkpt><trkpt lat="45.07937748635167" lon="11.739576167554153"><ele>4.0</ele><time>2026-04-25T12:43:10.963Z</time></trkpt><trkpt lat="45.07912465845042" lon="11.739382227484786"><ele>3.0</ele><time>2026-04-25T12:43:11.963Z</time></trkpt><trkpt lat="45.0788703449998" lon="11.739187780942409"><ele>2.0</ele><time>2026-04-25T12:43:12.963Z</time></trkpt><trkpt lat="45.078620559856965" lon="11.73898843277449"><ele>2.0</ele><time>2026-04-25T12:43:13.963Z</time></trkpt><trkpt lat="45.078363586563746" lon="11.738788837957916"><ele>2.0</ele><time>2026-04-25T12:43:14.963Z</time></trkpt><trkpt lat="45.078111000653124" lon="11.738591859460639"><ele>2.0</ele><time>2026-04-25T12:43:15.963Z</time></trkpt><trkpt lat="45.0778575892477" lon="11.738394659276414"><ele>2.0</ele><time>2026-04-25T12:43:16.963Z</time></trkpt><trkpt lat="45.077606107828686" lon="11.738197333207271"><ele>1.5</ele><time>2026-04-25T12:43:17.963Z</time></trkpt><trkpt lat="45.07734951554371" lon="11.738005057288248"><ele>1.0</ele><time>2026-04-25T12:43:18.963Z</time></trkpt><trkpt lat="45.07709930104792" lon="11.737810202323791"><ele>1.0</ele><time>2026-04-25T12:43:19.963Z</time></trkpt><trkpt lat="45.076850226442865" lon="11.737616513753409"><ele>1.0</ele><time>2026-04-25T12:43:20.963Z</time></trkpt><trkpt lat="45.07659875339856" lon="11.737422275201256"><ele>1.0</ele><time>2026-04-25T12:43:21.963Z</time></trkpt><trkpt lat="45.0763499050018" lon="11.737228615221275"><ele>1.0</ele><time>2026-04-25T12:43:22.963Z</time></trkpt><trkpt lat="45.07610356066291" lon="11.737031696885898"><ele>1.0</ele><time>2026-04-25T12:43:23.963Z</time></trkpt><trkpt lat="45.07586254546731" lon="11.736838042831442"><ele>1.0</ele><time>2026-04-25T12:43:24.963Z</time></trkpt><trkpt lat="45.075615712907755" lon="11.736645457067537"><ele>1.0</ele><time>2026-04-25T12:43:25.963Z</time></trkpt><trkpt lat="45.075371047609956" lon="11.736452616166762"><ele>1.0</ele><time>2026-04-25T12:43:26.963Z</time></trkpt><trkpt lat="45.07512937633237" lon="11.736264859850968"><ele>2.0</ele><time>2026-04-25T12:43:27.963Z</time></trkpt><trkpt lat="45.0748870651327" lon="11.736076313326043"><ele>3.0</ele><time>2026-04-25T12:43:28.963Z</time></trkpt><trkpt lat="45.07464211634578" lon="11.735887017724037"><ele>3.0</ele><time>2026-04-25T12:43:29.963Z</time></trkpt><trkpt lat="45.074401848795" lon="11.735700153107794"><ele>3.0</ele><time>2026-04-25T12:43:30.962Z</time></trkpt><trkpt lat="45.07416231177091" lon="11.735515403490288"><ele>3.0</ele><time>2026-04-25T12:43:31.962Z</time></trkpt><trkpt lat="45.073923382048854" lon="11.7353284209496"><ele>3.0</ele><time>2026-04-25T12:43:32.962Z</time></trkpt><trkpt lat="45.073683924951126" lon="11.735140652630875"><ele>3.0</ele><time>2026-04-25T12:43:33.962Z</time></trkpt><trkpt lat="45.073446441668864" lon="11.734952541016956"><ele>3.0</ele><time>2026-04-25T12:43:34.962Z</time></trkpt><trkpt lat="45.0732082693988" lon="11.73476702507122"><ele>4.0</ele><time>2026-04-25T12:43:35.962Z</time></trkpt><trkpt lat="45.07297067772979" lon="11.734581071732027"><ele>5.0</ele><time>2026-04-25T12:43:36.962Z</time></trkpt><trkpt lat="45.07273031108063" lon="11.734393785835547"><ele>5.0</ele><time>2026-04-25T12:43:37.962Z</time></trkpt><trkpt lat="45.07248651786356" lon="11.734204018972186"><ele>5.0</ele><time>2026-04-25T12:43:38.962Z</time></trkpt><trkpt lat="45.07224355642572" lon="11.734008817821552"><ele>5.5</ele><time>2026-04-25T12:43:39.962Z</time></trkpt><trkpt lat="45.07199540653427" lon="11.733818663627712"><ele>6.0</ele><time>2026-04-25T12:43:40.961Z</time></trkpt><trkpt lat="45.07174627417476" lon="11.73362699924233"><ele>5.0</ele><time>2026-04-25T12:43:41.961Z</time></trkpt><trkpt lat="45.07149719670408" lon="11.733433476299734"><ele>4.0</ele><time>2026-04-25T12:43:42.962Z</time></trkpt><trkpt lat="45.071246935414585" lon="11.733239377365411"><ele>4.0</ele><time>2026-04-25T12:43:43.961Z</time></trkpt><trkpt lat="45.07099821051537" lon="11.73304346355281"><ele>4.0</ele><time>2026-04-25T12:43:44.961Z</time></trkpt><trkpt lat="45.07075004506717" lon="11.732847356210192"><ele>4.0</ele><time>2026-04-25T12:43:45.962Z</time></trkpt><trkpt lat="45.070497628492234" lon="11.73264809537455"><ele>4.0</ele><time>2026-04-25T12:43:46.962Z</time></trkpt><trkpt lat="45.07024545121967" lon="11.732452749396602"><ele>4.0</ele><time>2026-04-25T12:43:47.962Z</time></trkpt><trkpt lat="45.069995880435606" lon="11.73225707127668"><ele>4.0</ele><time>2026-04-25T12:43:48.962Z</time></trkpt><trkpt lat="45.06974618950576" lon="11.732062695403984"><ele>2.5</ele><time>2026-04-25T12:43:49.962Z</time></trkpt><trkpt lat="45.06949521850194" lon="11.731865010942485"><ele>1.0</ele><time>2026-04-25T12:43:50.962Z</time></trkpt><trkpt lat="45.069247380197844" lon="11.731672797664189"><ele>0.5</ele><time>2026-04-25T12:43:51.962Z</time></trkpt><trkpt lat="45.06899741564106" lon="11.731473400897215"><ele>0.0</ele><time>2026-04-25T12:43:52.962Z</time></trkpt><trkpt lat="45.06875175702947" lon="11.731275876068667"><ele>0.0</ele><time>2026-04-25T12:43:53.962Z</time></trkpt><trkpt lat="45.06850135815768" lon="11.73107916715429"><ele>0.0</ele><time>2026-04-25T12:43:54.962Z</time></trkpt><trkpt lat="45.068249529691215" lon="11.730881429587715"><ele>1.0</ele><time>2026-04-25T12:43:55.962Z</time></trkpt><trkpt lat="45.067996741730305" lon="11.73068043468852"><ele>2.0</ele><time>2026-04-25T12:43:56.961Z</time></trkpt><trkpt lat="45.067749771276446" lon="11.730483537463304"><ele>2.0</ele><time>2026-04-25T12:43:57.961Z</time></trkpt><trkpt lat="45.06750058168961" lon="11.730288140522823"><ele>2.0</ele><time>2026-04-25T12:43:58.961Z</time></trkpt><trkpt lat="45.06724992902683" lon="11.730092944753856"><ele>0.5</ele><time>2026-04-25T12:43:59.961Z</time></trkpt><trkpt lat="45.06700177186126" lon="11.729899685776859"><ele>-1.0</ele><time>2026-04-25T12:44:00.961Z</time></trkpt><trkpt lat="45.06675554997557" lon="11.729708152825628"><ele>-0.5</ele><time>2026-04-25T12:44:01.961Z</time></trkpt><trkpt lat="45.06650849449061" lon="11.72951856371791"><ele>0.0</ele><time>2026-04-25T12:44:02.961Z</time></trkpt><trkpt lat="45.066262616390674" lon="11.729326512998304"><ele>0.0</ele><time>2026-04-25T12:44:03.961Z</time></trkpt><trkpt lat="45.06601624931489" lon="11.729130349637456"><ele>0.0</ele><time>2026-04-25T12:44:04.961Z</time></trkpt><trkpt lat="45.06576910560544" lon="11.728936175366924"><ele>0.0</ele><time>2026-04-25T12:44:05.961Z</time></trkpt><trkpt lat="45.06552012162868" lon="11.728740756246978"><ele>0.0</ele><time>2026-04-25T12:44:06.961Z</time></trkpt><trkpt lat="45.06527016888844" lon="11.72854699015448"><ele>0.0</ele><time>2026-04-25T12:44:07.961Z</time></trkpt><trkpt lat="45.06502045062318" lon="11.728353234472372"><ele>0.0</ele><time>2026-04-25T12:44:08.961Z</time></trkpt><trkpt lat="45.06477272016432" lon="11.728162251345138"><ele>0.0</ele><time>2026-04-25T12:44:09.961Z</time></trkpt><trkpt lat="45.064527281606104" lon="11.727970287450011"><ele>0.0</ele><time>2026-04-25T12:44:10.961Z</time></trkpt><trkpt lat="45.0642806949151" lon="11.727777603038238"><ele>1.0</ele><time>2026-04-25T12:44:11.961Z</time></trkpt><trkpt lat="45.064031663413736" lon="11.727581584108654"><ele>2.0</ele><time>2026-04-25T12:44:12.961Z</time></trkpt><trkpt lat="45.063782767068986" lon="11.727384685989016"><ele>2.0</ele><time>2026-04-25T12:44:13.961Z</time></trkpt><trkpt lat="45.063532135050266" lon="11.727188832332825"><ele>2.0</ele><time>2026-04-25T12:44:14.961Z</time></trkpt><trkpt lat="45.063282776928546" lon="11.72699089774637"><ele>3.0</ele><time>2026-04-25T12:44:15.961Z</time></trkpt><trkpt lat="45.063035260260534" lon="11.72679119564015"><ele>4.0</ele><time>2026-04-25T12:44:16.961Z</time></trkpt><trkpt lat="45.06278374398538" lon="11.726591896874403"><ele>4.0</ele><time>2026-04-25T12:44:17.961Z</time></trkpt><trkpt lat="45.06253362683019" lon="11.72639407498884"><ele>4.0</ele><time>2026-04-25T12:44:18.961Z</time></trkpt><trkpt lat="45.062285272557396" lon="11.726199175478522"><ele>2.0</ele><time>2026-04-25T12:44:19.961Z</time></trkpt><trkpt lat="45.062035474301005" lon="11.726002250763464"><ele>0.0</ele><time>2026-04-25T12:44:20.961Z</time></trkpt><trkpt lat="45.06178548176121" lon="11.725803203064872"><ele>0.0</ele><time>2026-04-25T12:44:21.961Z</time></trkpt><trkpt lat="45.06153399264683" lon="11.72560393867912"><ele>0.0</ele><time>2026-04-25T12:44:22.961Z</time></trkpt><trkpt lat="45.06128032090851" lon="11.725409510677983"><ele>-0.5</ele><time>2026-04-25T12:44:23.961Z</time></trkpt><trkpt lat="45.061024575381275" lon="11.725212013686205"><ele>-1.0</ele><time>2026-04-25T12:44:24.961Z</time></trkpt><trkpt lat="45.060771239123845" lon="11.725013572051754"><ele>0.0</ele><time>2026-04-25T12:44:25.961Z</time></trkpt><trkpt lat="45.06051670027285" lon="11.724817186989391"><ele>1.0</ele><time>2026-04-25T12:44:26.961Z</time></trkpt><trkpt lat="45.06026269559729" lon="11.724619510439501"><ele>1.0</ele><time>2026-04-25T12:44:27.96Z</time></trkpt><trkpt lat="45.06000851939536" lon="11.72442143214991"><ele>1.0</ele><time>2026-04-25T12:44:28.96Z</time></trkpt><trkpt lat="45.05975545442113" lon="11.724224319203161"><ele>1.5</ele><time>2026-04-25T12:44:29.96Z</time></trkpt><trkpt lat="45.05950365179217" lon="11.724029567376938"><ele>2.0</ele><time>2026-04-25T12:44:30.96Z</time></trkpt><trkpt lat="45.05925255276116" lon="11.723839487193946"><ele>2.0</ele><time>2026-04-25T12:44:31.96Z</time></trkpt><trkpt lat="45.059003347886524" lon="11.723647268975606"><ele>2.0</ele><time>2026-04-25T12:44:32.96Z</time></trkpt><trkpt lat="45.058756475014334" lon="11.723456531038465"><ele>2.0</ele><time>2026-04-25T12:44:33.96Z</time></trkpt><trkpt lat="45.05850605159419" lon="11.723260583173923"><ele>2.0</ele><time>2026-04-25T12:44:34.96Z</time></trkpt><trkpt lat="45.05825747172242" lon="11.72306718796015"><ele>1.5</ele><time>2026-04-25T12:44:35.96Z</time></trkpt><trkpt lat="45.05800966385164" lon="11.722873768963973"><ele>1.0</ele><time>2026-04-25T12:44:36.96Z</time></trkpt><trkpt lat="45.05776133858198" lon="11.72267695480606"><ele>1.0</ele><time>2026-04-25T12:44:37.96Z</time></trkpt><trkpt lat="45.0575132037787" lon="11.722483268395811"><ele>1.0</ele><time>2026-04-25T12:44:38.96Z</time></trkpt><trkpt lat="45.05726370573207" lon="11.722287561645443"><ele>1.5</ele><time>2026-04-25T12:44:39.96Z</time></trkpt><trkpt lat="45.05701473510722" lon="11.7220917851316"><ele>2.0</ele><time>2026-04-25T12:44:40.96Z</time></trkpt><trkpt lat="45.05676590382004" lon="11.721893181328499"><ele>2.0</ele><time>2026-04-25T12:44:41.96Z</time></trkpt><trkpt lat="45.05651856113485" lon="11.721700728082446"><ele>2.0</ele><time>2026-04-25T12:44:42.96Z</time></trkpt><trkpt lat="45.05627064070559" lon="11.721506973853344"><ele>2.0</ele><time>2026-04-25T12:44:43.96Z</time></trkpt><trkpt lat="45.056022004413364" lon="11.721315189981908"><ele>2.0</ele><time>2026-04-25T12:44:44.96Z</time></trkpt><trkpt lat="45.0557730166329" lon="11.72112140076552"><ele>2.0</ele><time>2026-04-25T12:44:45.96Z</time></trkpt><trkpt lat="45.05552542170917" lon="11.720928534503848"><ele>2.0</ele><time>2026-04-25T12:44:46.96Z</time></trkpt><trkpt lat="45.055280255078934" lon="11.720730854646952"><ele>2.0</ele><time>2026-04-25T12:44:47.96Z</time></trkpt><trkpt lat="45.0550299554097" lon="11.72054113545138"><ele>2.0</ele><time>2026-04-25T12:44:48.96Z</time></trkpt><trkpt lat="45.054780710056946" lon="11.720343654351426"><ele>3.0</ele><time>2026-04-25T12:44:49.96Z</time></trkpt><trkpt lat="45.05452900294879" lon="11.720150809119746"><ele>4.0</ele><time>2026-04-25T12:44:50.96Z</time></trkpt><trkpt lat="45.054278459722184" lon="11.719953663278734"><ele>3.5</ele><time>2026-04-25T12:44:51.96Z</time></trkpt><trkpt lat="45.05402633623891" lon="11.719755166108039"><ele>3.0</ele><time>2026-04-25T12:44:52.96Z</time></trkpt><trkpt lat="45.05377280908409" lon="11.719556709264044"><ele>3.0</ele><time>2026-04-25T12:44:53.96Z</time></trkpt><trkpt lat="45.053520560892494" lon="11.719360372089657"><ele>3.0</ele><time>2026-04-25T12:44:54.96Z</time></trkpt><trkpt lat="45.053267834834315" lon="11.719162643322605"><ele>3.5</ele><time>2026-04-25T12:44:55.96Z</time></trkpt><trkpt lat="45.053016597386325" lon="11.718960242433505"><ele>4.0</ele><time>2026-04-25T12:44:56.96Z</time></trkpt><trkpt lat="45.05276552245564" lon="11.718760933863397"><ele>4.0</ele><time>2026-04-25T12:44:57.96Z</time></trkpt><trkpt lat="45.052514846227346" lon="11.71855934053302"><ele>4.0</ele><time>2026-04-25T12:44:58.96Z</time></trkpt><trkpt lat="45.052260296854094" lon="11.718367310839799"><ele>4.5</ele><time>2026-04-25T12:44:59.96Z</time></trkpt><trkpt lat="45.052011115614945" lon="11.718171321594808"><ele>5.0</ele><time>2026-04-25T12:45:00.96Z</time></trkpt><trkpt lat="45.05175928312075" lon="11.717980530045077"><ele>5.0</ele><time>2026-04-25T12:45:01.96Z</time></trkpt><trkpt lat="45.051511582970534" lon="11.71779061706805"><ele>5.0</ele><time>2026-04-25T12:45:02.96Z</time></trkpt><trkpt lat="45.05125712675927" lon="11.717599781303129"><ele>5.0</ele><time>2026-04-25T12:45:03.96Z</time></trkpt><trkpt lat="45.0510039396512" lon="11.71740016863862"><ele>5.0</ele><time>2026-04-25T12:45:04.96Z</time></trkpt><trkpt lat="45.0507505750575" lon="11.71720078789314"><ele>4.0</ele><time>2026-04-25T12:45:05.96Z</time></trkpt><trkpt lat="45.05049365456528" lon="11.716998912149378"><ele>3.0</ele><time>2026-04-25T12:45:06.96Z</time></trkpt><trkpt lat="45.05023605240036" lon="11.71680098164705"><ele>3.0</ele><time>2026-04-25T12:45:07.96Z</time></trkpt><trkpt lat="45.04997564524874" lon="11.716603459133777"><ele>3.0</ele><time>2026-04-25T12:45:08.96Z</time></trkpt><trkpt lat="45.049715615465004" lon="11.716398801477183"><ele>3.0</ele><time>2026-04-25T12:45:09.96Z</time></trkpt><trkpt lat="45.049456237549826" lon="11.716196098267838"><ele>3.0</ele><time>2026-04-25T12:45:10.96Z</time></trkpt><trkpt lat="45.049197760008305" lon="11.715989897279881"><ele>3.0</ele><time>2026-04-25T12:45:11.96Z</time></trkpt><trkpt lat="45.04894898277107" lon="11.715787489251388"><ele>3.0</ele><time>2026-04-25T12:45:12.96Z</time></trkpt><trkpt lat="45.048698330540674" lon="11.71558880124887"><ele>3.0</ele><time>2026-04-25T12:45:13.96Z</time></trkpt><trkpt lat="45.048448880724564" lon="11.715392581090047"><ele>3.0</ele><time>2026-04-25T12:45:14.96Z</time></trkpt><trkpt lat="45.048195478023196" lon="11.71519553080973"><ele>4.0</ele><time>2026-04-25T12:45:15.96Z</time></trkpt><trkpt lat="45.0479378438511" lon="11.715001709745259"><ele>5.0</ele><time>2026-04-25T12:45:16.96Z</time></trkpt><trkpt lat="45.047679416263165" lon="11.714809480677786"><ele>4.0</ele><time>2026-04-25T12:45:17.96Z</time></trkpt><trkpt lat="45.047419961068385" lon="11.714619894076643"><ele>3.0</ele><time>2026-04-25T12:45:18.96Z</time></trkpt><trkpt lat="45.047168085176324" lon="11.714445563704"><ele>3.0</ele><time>2026-04-25T12:45:19.959Z</time></trkpt><trkpt lat="45.04691490529954" lon="11.714252834641133"><ele>3.0</ele><time>2026-04-25T12:45:20.959Z</time></trkpt><trkpt lat="45.04667364825059" lon="11.714048365700393"><ele>2.5</ele><time>2026-04-25T12:45:21.959Z</time></trkpt><trkpt lat="45.04643028408491" lon="11.713857863248993"><ele>2.0</ele><time>2026-04-25T12:45:22.959Z</time></trkpt><trkpt lat="45.04617785450434" lon="11.71366557982591"><ele>2.5</ele><time>2026-04-25T12:45:23.959Z</time></trkpt><trkpt lat="45.04593459482566" lon="11.71347670783051"><ele>3.0</ele><time>2026-04-25T12:45:24.959Z</time></trkpt><trkpt lat="45.04569046009947" lon="11.713282672857153"><ele>3.0</ele><time>2026-04-25T12:45:25.959Z</time></trkpt><trkpt lat="45.045443108714444" lon="11.713086384794188"><ele>3.0</ele><time>2026-04-25T12:45:26.959Z</time></trkpt><trkpt lat="45.045191399369806" lon="11.712888145240637"><ele>3.0</ele><time>2026-04-25T12:45:27.959Z</time></trkpt><trkpt lat="45.04494153265517" lon="11.712688036663195"><ele>3.0</ele><time>2026-04-25T12:45:28.959Z</time></trkpt><trkpt lat="45.04469301700658" lon="11.712485072382737"><ele>3.0</ele><time>2026-04-25T12:45:29.959Z</time></trkpt><trkpt lat="45.04444588483182" lon="11.71228462382158"><ele>3.0</ele><time>2026-04-25T12:45:30.959Z</time></trkpt><trkpt lat="45.044197226287416" lon="11.712081511474604"><ele>2.0</ele><time>2026-04-25T12:45:31.959Z</time></trkpt><trkpt lat="45.0439507569436" lon="11.711881647442858"><ele>1.0</ele><time>2026-04-25T12:45:32.959Z</time></trkpt><trkpt lat="45.04370274707422" lon="11.711690184380473"><ele>1.0</ele><time>2026-04-25T12:45:33.959Z</time></trkpt><trkpt lat="45.043452098717644" lon="11.711495419028896"><ele>1.0</ele><time>2026-04-25T12:45:34.959Z</time></trkpt><trkpt lat="45.04320156550059" lon="11.711302515778687"><ele>1.5</ele><time>2026-04-25T12:45:35.959Z</time></trkpt><trkpt lat="45.04295408571302" lon="11.711108582918207"><ele>2.0</ele><time>2026-04-25T12:45:36.959Z</time></trkpt><trkpt lat="45.042706963382145" lon="11.710910640126318"><ele>2.5</ele><time>2026-04-25T12:45:37.959Z</time></trkpt><trkpt lat="45.042457807206254" lon="11.710714509437976"><ele>3.0</ele><time>2026-04-25T12:45:38.959Z</time></trkpt><trkpt lat="45.04220655475114" lon="11.710519561957673"><ele>3.0</ele><time>2026-04-25T12:45:39.959Z</time></trkpt><trkpt lat="45.041955097732426" lon="11.710321856196128"><ele>3.0</ele><time>2026-04-25T12:45:40.959Z</time></trkpt><trkpt lat="45.04170919824696" lon="11.710121613673882"><ele>3.0</ele><time>2026-04-25T12:45:41.959Z</time></trkpt><trkpt lat="45.041466929646184" lon="11.709927439574482"><ele>3.0</ele><time>2026-04-25T12:45:42.959Z</time></trkpt><trkpt lat="45.04122232778119" lon="11.709742071739122"><ele>3.0</ele><time>2026-04-25T12:45:43.958Z</time></trkpt><trkpt lat="45.04097390431812" lon="11.709558082449858"><ele>3.0</ele><time>2026-04-25T12:45:44.958Z</time></trkpt><trkpt lat="45.04072946702359" lon="11.709376569633621"><ele>3.0</ele><time>2026-04-25T12:45:45.959Z</time></trkpt><trkpt lat="45.040486106768334" lon="11.709200050745965"><ele>3.0</ele><time>2026-04-25T12:45:46.959Z</time></trkpt><trkpt lat="45.040241343442894" lon="11.709028430726066"><ele>3.0</ele><time>2026-04-25T12:45:47.959Z</time></trkpt><trkpt lat="45.03999774473297" lon="11.708859455170481"><ele>3.0</ele><time>2026-04-25T12:45:48.958Z</time></trkpt><trkpt lat="45.03975721922292" lon="11.70867046694689"><ele>3.0</ele><time>2026-04-25T12:45:49.958Z</time></trkpt><trkpt lat="45.039512173471714" lon="11.708475996931165"><ele>3.0</ele><time>2026-04-25T12:45:50.958Z</time></trkpt><trkpt lat="45.0392728369038" lon="11.708279354986113"><ele>3.5</ele><time>2026-04-25T12:45:51.958Z</time></trkpt><trkpt lat="45.03903481045488" lon="11.708073538547076"><ele>4.0</ele><time>2026-04-25T12:45:52.958Z</time></trkpt><trkpt lat="45.03879364385961" lon="11.70787080422089"><ele>3.5</ele><time>2026-04-25T12:45:53.958Z</time></trkpt><trkpt lat="45.03854821044613" lon="11.707664257813693"><ele>3.0</ele><time>2026-04-25T12:45:54.958Z</time></trkpt><trkpt lat="45.03829719070394" lon="11.707466725956237"><ele>3.0</ele><time>2026-04-25T12:45:55.958Z</time></trkpt><trkpt lat="45.03804339429937" lon="11.707273512100366"><ele>3.0</ele><time>2026-04-25T12:45:56.958Z</time></trkpt><trkpt lat="45.037790008590164" lon="11.707076894995275"><ele>2.5</ele><time>2026-04-25T12:45:57.958Z</time></trkpt><trkpt lat="45.03753689419525" lon="11.706880895724927"><ele>2.0</ele><time>2026-04-25T12:45:58.958Z</time></trkpt><trkpt lat="45.037288730592785" lon="11.706687536183253"><ele>2.0</ele><time>2026-04-25T12:45:59.958Z</time></trkpt><trkpt lat="45.03704307476555" lon="11.706491743322205"><ele>2.0</ele><time>2026-04-25T12:46:00.958Z</time></trkpt><trkpt lat="45.03679720707466" lon="11.70629801286368"><ele>0.5</ele><time>2026-04-25T12:46:01.958Z</time></trkpt><trkpt lat="45.03654837415904" lon="11.706106215713001"><ele>-1.0</ele><time>2026-04-25T12:46:02.958Z</time></trkpt><trkpt lat="45.03629898472918" lon="11.705908736271262"><ele>-1.0</ele><time>2026-04-25T12:46:03.958Z</time></trkpt><trkpt lat="45.036046756245405" lon="11.705712346756803"><ele>-1.0</ele><time>2026-04-25T12:46:04.958Z</time></trkpt><trkpt lat="45.035799245184805" lon="11.705517282802932"><ele>0.0</ele><time>2026-04-25T12:46:05.958Z</time></trkpt><trkpt lat="45.03555533261838" lon="11.70533090465281"><ele>1.0</ele><time>2026-04-25T12:46:06.958Z</time></trkpt><trkpt lat="45.035309349293165" lon="11.705136325723693"><ele>1.5</ele><time>2026-04-25T12:46:07.958Z</time></trkpt><trkpt lat="45.035066717142705" lon="11.704947465258428"><ele>2.0</ele><time>2026-04-25T12:46:08.958Z</time></trkpt><trkpt lat="45.034819823117985" lon="11.70476470996821"><ele>3.0</ele><time>2026-04-25T12:46:09.958Z</time></trkpt><trkpt lat="45.03457424176539" lon="11.704576335527051"><ele>4.0</ele><time>2026-04-25T12:46:10.958Z</time></trkpt><trkpt lat="45.03433041032509" lon="11.704389457027666"><ele>2.5</ele><time>2026-04-25T12:46:11.958Z</time></trkpt><trkpt lat="45.034088993125565" lon="11.70420149003173"><ele>1.0</ele><time>2026-04-25T12:46:12.958Z</time></trkpt><trkpt lat="45.033846235952666" lon="11.704017496870069"><ele>1.0</ele><time>2026-04-25T12:46:13.957Z</time></trkpt><trkpt lat="45.033604673940914" lon="11.703825996674354"><ele>1.0</ele><time>2026-04-25T12:46:14.957Z</time></trkpt><trkpt lat="45.03335712120558" lon="11.703631759907084"><ele>0.5</ele><time>2026-04-25T12:46:15.957Z</time></trkpt><trkpt lat="45.03310858258735" lon="11.70343688048121"><ele>0.0</ele><time>2026-04-25T12:46:16.957Z</time></trkpt><trkpt lat="45.03285918805232" lon="11.703251049181429"><ele>0.0</ele><time>2026-04-25T12:46:17.957Z</time></trkpt><trkpt lat="45.03260922498791" lon="11.703049683689551"><ele>0.0</ele><time>2026-04-25T12:46:18.957Z</time></trkpt><trkpt lat="45.03235548183734" lon="11.70285414053593"><ele>0.0</ele><time>2026-04-25T12:46:19.957Z</time></trkpt><trkpt lat="45.03210210516661" lon="11.702660697149291"><ele>0.0</ele><time>2026-04-25T12:46:20.957Z</time></trkpt><trkpt lat="45.031847481959126" lon="11.70246253747536"><ele>1.0</ele><time>2026-04-25T12:46:21.957Z</time></trkpt><trkpt lat="45.03159236008497" lon="11.702263940428757"><ele>2.0</ele><time>2026-04-25T12:46:22.957Z</time></trkpt><trkpt lat="45.03133559908937" lon="11.702064788114901"><ele>1.5</ele><time>2026-04-25T12:46:23.957Z</time></trkpt><trkpt lat="45.03108034504299" lon="11.701860113652256"><ele>1.0</ele><time>2026-04-25T12:46:24.957Z</time></trkpt><trkpt lat="45.03082589311169" lon="11.701653281599793"><ele>0.5</ele><time>2026-04-25T12:46:25.957Z</time></trkpt><trkpt lat="45.03057874853121" lon="11.701449067561025"><ele>0.0</ele><time>2026-04-25T12:46:26.957Z</time></trkpt><trkpt lat="45.03033553029744" lon="11.701248387850464"><ele>-0.5</ele><time>2026-04-25T12:46:27.957Z</time></trkpt><trkpt lat="45.030096498333556" lon="11.701049747750593"><ele>-1.0</ele><time>2026-04-25T12:46:28.957Z</time></trkpt><trkpt lat="45.02985869575054" lon="11.700842026756472"><ele>-1.0</ele><time>2026-04-25T12:46:29.957Z</time></trkpt><trkpt lat="45.0296211944636" lon="11.700631925715236"><ele>-1.0</ele><time>2026-04-25T12:46:30.957Z</time></trkpt><trkpt lat="45.02938280325467" lon="11.700419728423563"><ele>-0.5</ele><time>2026-04-25T12:46:31.957Z</time></trkpt><trkpt lat="45.029144797386" lon="11.700207146754394"><ele>0.0</ele><time>2026-04-25T12:46:32.957Z</time></trkpt><trkpt lat="45.02890741943053" lon="11.699992556948457"><ele>0.0</ele><time>2026-04-25T12:46:33.957Z</time></trkpt><trkpt lat="45.028673326911196" lon="11.6997767264136"><ele>0.0</ele><time>2026-04-25T12:46:34.957Z</time></trkpt><trkpt lat="45.02844105369071" lon="11.699556875637342"><ele>0.0</ele><time>2026-04-25T12:46:35.957Z</time></trkpt><trkpt lat="45.02820733936313" lon="11.699340099755087"><ele>0.0</ele><time>2026-04-25T12:46:36.957Z</time></trkpt><trkpt lat="45.027979720006996" lon="11.699134357570195"><ele>0.0</ele><time>2026-04-25T12:46:37.957Z</time></trkpt><trkpt lat="45.027758345441136" lon="11.698929427345702"><ele>0.0</ele><time>2026-04-25T12:46:38.957Z</time></trkpt><trkpt lat="45.027542964430225" lon="11.698728625793358"><ele>0.5</ele><time>2026-04-25T12:46:39.957Z</time></trkpt><trkpt lat="45.02732507859669" lon="11.698521414083293"><ele>1.0</ele><time>2026-04-25T12:46:40.957Z</time></trkpt><trkpt lat="45.02710558391514" lon="11.698307821829328"><ele>1.0</ele><time>2026-04-25T12:46:41.957Z</time></trkpt><trkpt lat="45.026881442383385" lon="11.698095050790023"><ele>1.0</ele><time>2026-04-25T12:46:42.957Z</time></trkpt><trkpt lat="45.02665550365936" lon="11.69787946361161"><ele>0.5</ele><time>2026-04-25T12:46:43.957Z</time></trkpt><trkpt lat="45.0264273746788" lon="11.69766241704497"><ele>0.0</ele><time>2026-04-25T12:46:44.957Z</time></trkpt><trkpt lat="45.026201267283305" lon="11.697450711502528"><ele>0.0</ele><time>2026-04-25T12:46:45.957Z</time></trkpt><trkpt lat="45.02597813192083" lon="11.69723817257916"><ele>0.0</ele><time>2026-04-25T12:46:46.957Z</time></trkpt><trkpt lat="45.02575068087195" lon="11.697024655376278"><ele>0.5</ele><time>2026-04-25T12:46:47.957Z</time></trkpt><trkpt lat="45.025521719490236" lon="11.696816274293534"><ele>1.0</ele><time>2026-04-25T12:46:48.957Z</time></trkpt><trkpt lat="45.02529456979101" lon="11.696602005774698"><ele>1.0</ele><time>2026-04-25T12:46:49.957Z</time></trkpt><trkpt lat="45.02506796166949" lon="11.696382645225945"><ele>1.0</ele><time>2026-04-25T12:46:50.957Z</time></trkpt><trkpt lat="45.02483566939463" lon="11.696158612954006"><ele>1.0</ele><time>2026-04-25T12:46:51.957Z</time></trkpt><trkpt lat="45.024604576368084" lon="11.695936581297328"><ele>1.0</ele><time>2026-04-25T12:46:52.957Z</time></trkpt><trkpt lat="45.02437249544639" lon="11.695714237565133"><ele>0.5</ele><time>2026-04-25T12:46:53.957Z</time></trkpt><trkpt lat="45.024137979552535" lon="11.695494957545053"><ele>0.0</ele><time>2026-04-25T12:46:54.957Z</time></trkpt><trkpt lat="45.02390816427369" lon="11.69527941203062"><ele>0.0</ele><time>2026-04-25T12:46:55.957Z</time></trkpt><trkpt lat="45.023674662465574" lon="11.69506102283252"><ele>0.0</ele><time>2026-04-25T12:46:56.957Z</time></trkpt><trkpt lat="45.0234426711985" lon="11.694845764244748"><ele>0.5</ele><time>2026-04-25T12:46:57.957Z</time></trkpt><trkpt lat="45.023207557483694" lon="11.694627500720928"><ele>1.0</ele><time>2026-04-25T12:46:58.957Z</time></trkpt><trkpt lat="45.022975536602985" lon="11.694410996224857"><ele>1.5</ele><time>2026-04-25T12:46:59.957Z</time></trkpt><trkpt lat="45.022742460546546" lon="11.694195132260097"><ele>2.0</ele><time>2026-04-25T12:47:00.957Z</time></trkpt><trkpt lat="45.022512016716" lon="11.693983304837253"><ele>2.5</ele><time>2026-04-25T12:47:01.957Z</time></trkpt><trkpt lat="45.022282204989786" lon="11.693767876881003"><ele>3.0</ele><time>2026-04-25T12:47:02.957Z</time></trkpt><trkpt lat="45.02204652375695" lon="11.693548301987414"><ele>3.5</ele><time>2026-04-25T12:47:03.957Z</time></trkpt><trkpt lat="45.0218126910417" lon="11.693322334877314"><ele>4.0</ele><time>2026-04-25T12:47:04.957Z</time></trkpt><trkpt lat="45.02157121528824" lon="11.693095337017725"><ele>3.5</ele><time>2026-04-25T12:47:05.957Z</time></trkpt><trkpt lat="45.02133034345297" lon="11.692869963364116"><ele>3.0</ele><time>2026-04-25T12:47:06.957Z</time></trkpt><trkpt lat="45.021089018286446" lon="11.692648846644397"><ele>3.0</ele><time>2026-04-25T12:47:07.957Z</time></trkpt><trkpt lat="45.02085608885719" lon="11.692432890573665"><ele>3.0</ele><time>2026-04-25T12:47:08.957Z</time></trkpt><trkpt lat="45.020637596003056" lon="11.69223144655032"><ele>2.5</ele><time>2026-04-25T12:47:09.957Z</time></trkpt><trkpt lat="45.0204234103489" lon="11.692038249476614"><ele>2.0</ele><time>2026-04-25T12:47:10.956Z</time></trkpt><trkpt lat="45.020205360624445" lon="11.691839033938313"><ele>2.0</ele><time>2026-04-25T12:47:11.956Z</time></trkpt><trkpt lat="45.019990378416296" lon="11.691637615274333"><ele>2.0</ele><time>2026-04-25T12:47:12.956Z</time></trkpt><trkpt lat="45.01977411260727" lon="11.6914311798395"><ele>2.0</ele><time>2026-04-25T12:47:13.956Z</time></trkpt><trkpt lat="45.01955521692652" lon="11.69121873126079"><ele>2.0</ele><time>2026-04-25T12:47:14.956Z</time></trkpt><trkpt lat="45.01933036926594" lon="11.691001759644312"><ele>3.5</ele><time>2026-04-25T12:47:15.956Z</time></trkpt><trkpt lat="45.01909714941664" lon="11.690784604180541"><ele>5.0</ele><time>2026-04-25T12:47:16.956Z</time></trkpt><trkpt lat="45.018859484363034" lon="11.6905693761494"><ele>5.0</ele><time>2026-04-25T12:47:17.956Z</time></trkpt><trkpt lat="45.01862177453434" lon="11.690355480432666"><ele>5.0</ele><time>2026-04-25T12:47:18.956Z</time></trkpt><trkpt lat="45.01838480011403" lon="11.690140749125318"><ele>5.5</ele><time>2026-04-25T12:47:19.956Z</time></trkpt><trkpt lat="45.018147589575904" lon="11.689927462299632"><ele>6.0</ele><time>2026-04-25T12:47:20.956Z</time></trkpt><trkpt lat="45.017910251546674" lon="11.689714215016952"><ele>6.0</ele><time>2026-04-25T12:47:21.956Z</time></trkpt><trkpt lat="45.01766783864269" lon="11.68949094205859"><ele>6.0</ele><time>2026-04-25T12:47:22.956Z</time></trkpt><trkpt lat="45.01742015402962" lon="11.689269840414255"><ele>5.5</ele><time>2026-04-25T12:47:23.956Z</time></trkpt><trkpt lat="45.01717366670518" lon="11.689043649972737"><ele>5.0</ele><time>2026-04-25T12:47:24.956Z</time></trkpt><trkpt lat="45.01692950889083" lon="11.68881639498487"><ele>5.0</ele><time>2026-04-25T12:47:25.956Z</time></trkpt><trkpt lat="45.01668633220762" lon="11.68858717685159"><ele>5.0</ele><time>2026-04-25T12:47:26.956Z</time></trkpt><trkpt lat="45.01644586624368" lon="11.68835588439995"><ele>4.5</ele><time>2026-04-25T12:47:27.956Z</time></trkpt><trkpt lat="45.016203979423345" lon="11.688123102172305"><ele>4.0</ele><time>2026-04-25T12:47:28.956Z</time></trkpt><trkpt lat="45.01596299711566" lon="11.687888989051928"><ele>5.5</ele><time>2026-04-25T12:47:29.956Z</time></trkpt><trkpt lat="45.01572324784301" lon="11.68765818862929"><ele>7.0</ele><time>2026-04-25T12:47:30.956Z</time></trkpt><trkpt lat="45.01548681066315" lon="11.687432257939758"><ele>7.0</ele><time>2026-04-25T12:47:31.956Z</time></trkpt><trkpt lat="45.01524084565794" lon="11.687206590637407"><ele>7.0</ele><time>2026-04-25T12:47:32.956Z</time></trkpt><trkpt lat="45.01501041604975" lon="11.686972620518736"><ele>5.5</ele><time>2026-04-25T12:47:33.956Z</time></trkpt><trkpt lat="45.01476919613115" lon="11.686756025623897"><ele>4.0</ele><time>2026-04-25T12:47:34.956Z</time></trkpt><trkpt lat="45.014527488608216" lon="11.686539005670733"><ele>4.0</ele><time>2026-04-25T12:47:35.956Z</time></trkpt><trkpt lat="45.0142836660974" lon="11.686321596723339"><ele>4.0</ele><time>2026-04-25T12:47:36.956Z</time></trkpt><trkpt lat="45.01404042577256" lon="11.686098513568565"><ele>4.0</ele><time>2026-04-25T12:47:37.956Z</time></trkpt><trkpt lat="45.01379487807679" lon="11.68588154816801"><ele>4.0</ele><time>2026-04-25T12:47:38.956Z</time></trkpt><trkpt lat="45.013548562737405" lon="11.685671988224374"><ele>4.0</ele><time>2026-04-25T12:47:39.956Z</time></trkpt><trkpt lat="45.0133065578374" lon="11.685463366589689"><ele>4.0</ele><time>2026-04-25T12:47:40.956Z</time></trkpt><trkpt lat="45.01306335291244" lon="11.685256636897444"><ele>3.5</ele><time>2026-04-25T12:47:41.956Z</time></trkpt><trkpt lat="45.01281930340864" lon="11.685052531705297"><ele>3.0</ele><time>2026-04-25T12:47:42.956Z</time></trkpt><trkpt lat="45.012574112912034" lon="11.684853353625588"><ele>3.0</ele><time>2026-04-25T12:47:43.956Z</time></trkpt><trkpt lat="45.012328100655836" lon="11.684654853848153"><ele>3.0</ele><time>2026-04-25T12:47:44.956Z</time></trkpt><trkpt lat="45.01208259389384" lon="11.684454705794831"><ele>3.5</ele><time>2026-04-25T12:47:45.957Z</time></trkpt><trkpt lat="45.011836133500836" lon="11.68425559179798"><ele>4.0</ele><time>2026-04-25T12:47:46.956Z</time></trkpt><trkpt lat="45.01159149634763" lon="11.684051502703262"><ele>4.0</ele><time>2026-04-25T12:47:47.956Z</time></trkpt><trkpt lat="45.0113453859285" lon="11.683857123128487"><ele>4.0</ele><time>2026-04-25T12:47:48.956Z</time></trkpt><trkpt lat="45.011099776916566" lon="11.683660535764455"><ele>4.0</ele><time>2026-04-25T12:47:49.956Z</time></trkpt><trkpt lat="45.010849791727374" lon="11.683464160038485"><ele>4.0</ele><time>2026-04-25T12:47:50.956Z</time></trkpt><trkpt lat="45.01059784340437" lon="11.683268303484194"><ele>4.0</ele><time>2026-04-25T12:47:51.956Z</time></trkpt><trkpt lat="45.01034512705758" lon="11.683068015261938"><ele>4.0</ele><time>2026-04-25T12:47:52.956Z</time></trkpt><trkpt lat="45.01009316055473" lon="11.682864206823384"><ele>4.5</ele><time>2026-04-25T12:47:53.956Z</time></trkpt><trkpt lat="45.00984531820331" lon="11.682654276487304"><ele>5.0</ele><time>2026-04-25T12:47:54.956Z</time></trkpt><trkpt lat="45.00960123148408" lon="11.682450417915126"><ele>5.0</ele><time>2026-04-25T12:47:55.956Z</time></trkpt><trkpt lat="45.009352707231585" lon="11.682248917524182"><ele>5.0</ele><time>2026-04-25T12:47:56.956Z</time></trkpt><trkpt lat="45.00910803738894" lon="11.682049422924162"><ele>5.0</ele><time>2026-04-25T12:47:57.955Z</time></trkpt><trkpt lat="45.00886183541764" lon="11.681845254367992"><ele>5.0</ele><time>2026-04-25T12:47:58.956Z</time></trkpt><trkpt lat="45.00861421087184" lon="11.681643400245038"><ele>5.0</ele><time>2026-04-25T12:47:59.956Z</time></trkpt><trkpt lat="45.00836795073965" lon="11.681435686788676"><ele>5.0</ele><time>2026-04-25T12:48:00.956Z</time></trkpt><trkpt lat="45.008123222172244" lon="11.68122299044445"><ele>5.0</ele><time>2026-04-25T12:48:01.956Z</time></trkpt><trkpt lat="45.00787871337692" lon="11.681010736049764"><ele>5.0</ele><time>2026-04-25T12:48:02.956Z</time></trkpt><trkpt lat="45.007633882027385" lon="11.680806923414494"><ele>5.0</ele><time>2026-04-25T12:48:03.956Z</time></trkpt><trkpt lat="45.00738746258622" lon="11.680609609250412"><ele>5.0</ele><time>2026-04-25T12:48:04.956Z</time></trkpt><trkpt lat="45.007137739138464" lon="11.68041004701505"><ele>5.0</ele><time>2026-04-25T12:48:05.956Z</time></trkpt><trkpt lat="45.0068889027022" lon="11.680208431881615"><ele>5.0</ele><time>2026-04-25T12:48:06.956Z</time></trkpt><trkpt lat="45.00663888968888" lon="11.680004649303863"><ele>5.0</ele><time>2026-04-25T12:48:07.956Z</time></trkpt><trkpt lat="45.00638807728333" lon="11.679800774822699"><ele>5.0</ele><time>2026-04-25T12:48:08.956Z</time></trkpt><trkpt lat="45.00613323492111" lon="11.679598748090136"><ele>5.0</ele><time>2026-04-25T12:48:09.956Z</time></trkpt><trkpt lat="45.00587970968568" lon="11.679393263659872"><ele>5.0</ele><time>2026-04-25T12:48:10.956Z</time></trkpt><trkpt lat="45.00562399195138" lon="11.67918498942535"><ele>5.0</ele><time>2026-04-25T12:48:11.956Z</time></trkpt><trkpt lat="45.00537227616281" lon="11.678979625702409"><ele>5.0</ele><time>2026-04-25T12:48:12.956Z</time></trkpt><trkpt lat="45.00512145811793" lon="11.678775367419707"><ele>5.0</ele><time>2026-04-25T12:48:13.956Z</time></trkpt><trkpt lat="45.00487085905037" lon="11.678570152220248"><ele>5.0</ele><time>2026-04-25T12:48:14.956Z</time></trkpt><trkpt lat="45.00461433478423" lon="11.678369321309203"><ele>5.0</ele><time>2026-04-25T12:48:15.956Z</time></trkpt><trkpt lat="45.00435848400259" lon="11.678161746360127"><ele>5.0</ele><time>2026-04-25T12:48:16.956Z</time></trkpt><trkpt lat="45.00410046229694" lon="11.677951700429"><ele>5.5</ele><time>2026-04-25T12:48:17.956Z</time></trkpt><trkpt lat="45.00384348873193" lon="11.677745276799408"><ele>6.0</ele><time>2026-04-25T12:48:18.956Z</time></trkpt><trkpt lat="45.00358790672963" lon="11.677537178996635"><ele>6.0</ele><time>2026-04-25T12:48:19.956Z</time></trkpt><trkpt lat="45.0033325801821" lon="11.67733436483067"><ele>6.0</ele><time>2026-04-25T12:48:20.956Z</time></trkpt><trkpt lat="45.00307246143603" lon="11.67713027464579"><ele>5.0</ele><time>2026-04-25T12:48:21.956Z</time></trkpt><trkpt lat="45.0028159249764" lon="11.676924044448096"><ele>4.0</ele><time>2026-04-25T12:48:22.956Z</time></trkpt><trkpt lat="45.00255400414749" lon="11.676723147283697"><ele>4.5</ele><time>2026-04-25T12:48:23.956Z</time></trkpt><trkpt lat="45.002294917334076" lon="11.676511939342726"><ele>5.0</ele><time>2026-04-25T12:48:24.956Z</time></trkpt><trkpt lat="45.00203875767815" lon="11.676300145160878"><ele>4.5</ele><time>2026-04-25T12:48:25.956Z</time></trkpt><trkpt lat="45.00178212819397" lon="11.676090520425417"><ele>4.0</ele><time>2026-04-25T12:48:26.956Z</time></trkpt><trkpt lat="45.00152689400979" lon="11.675884656256253"><ele>4.0</ele><time>2026-04-25T12:48:27.956Z</time></trkpt><trkpt lat="45.00126914885279" lon="11.675682648316402"><ele>4.0</ele><time>2026-04-25T12:48:28.956Z</time></trkpt><trkpt lat="45.001014765493565" lon="11.675479121281967"><ele>4.0</ele><time>2026-04-25T12:48:29.956Z</time></trkpt><trkpt lat="45.00075990778534" lon="11.675280067251135"><ele>4.0</ele><time>2026-04-25T12:48:30.956Z</time></trkpt><trkpt lat="45.00050357329759" lon="11.675082500500277"><ele>4.0</ele><time>2026-04-25T12:48:31.956Z</time></trkpt><trkpt lat="45.000247266725154" lon="11.674881746042827"><ele>4.0</ele><time>2026-04-25T12:48:32.956Z</time></trkpt><trkpt lat="44.999992158457495" lon="11.674676857990717"><ele>4.0</ele><time>2026-04-25T12:48:33.956Z</time></trkpt><trkpt lat="44.99974712479835" lon="11.674471197068769"><ele>4.0</ele><time>2026-04-25T12:48:34.956Z</time></trkpt><trkpt lat="44.99950288560646" lon="11.674262318068898"><ele>4.0</ele><time>2026-04-25T12:48:35.955Z</time></trkpt><trkpt lat="44.999259557442876" lon="11.67405129435641"><ele>4.0</ele><time>2026-04-25T12:48:36.955Z</time></trkpt><trkpt lat="44.99901773361538" lon="11.67384102954632"><ele>4.0</ele><time>2026-04-25T12:48:37.955Z</time></trkpt><trkpt lat="44.99877351613238" lon="11.673633947592746"><ele>4.0</ele><time>2026-04-25T12:48:38.955Z</time></trkpt><trkpt lat="44.99852688312368" lon="11.673435127077617"><ele>4.0</ele><time>2026-04-25T12:48:39.955Z</time></trkpt><trkpt lat="44.99827883414012" lon="11.673239918730497"><ele>4.0</ele><time>2026-04-25T12:48:40.955Z</time></trkpt><trkpt lat="44.9980339983349" lon="11.67304138619628"><ele>4.0</ele><time>2026-04-25T12:48:41.955Z</time></trkpt><trkpt lat="44.99778901142795" lon="11.672844247684441"><ele>4.0</ele><time>2026-04-25T12:48:42.955Z</time></trkpt><trkpt lat="44.997544316185326" lon="11.672648111389753"><ele>3.0</ele><time>2026-04-25T12:48:43.955Z</time></trkpt><trkpt lat="44.997301446133626" lon="11.672449017000933"><ele>2.0</ele><time>2026-04-25T12:48:44.955Z</time></trkpt><trkpt lat="44.99705864296048" lon="11.672249850968008"><ele>2.0</ele><time>2026-04-25T12:48:45.955Z</time></trkpt><trkpt lat="44.996814076684295" lon="11.672051784177583"><ele>2.0</ele><time>2026-04-25T12:48:46.955Z</time></trkpt><trkpt lat="44.99656861627033" lon="11.67185447864052"><ele>2.5</ele><time>2026-04-25T12:48:47.955Z</time></trkpt><trkpt lat="44.99631973390731" lon="11.67165435671483"><ele>3.0</ele><time>2026-04-25T12:48:48.955Z</time></trkpt><trkpt lat="44.99607307478986" lon="11.671450334969158"><ele>3.5</ele><time>2026-04-25T12:48:49.955Z</time></trkpt><trkpt lat="44.99582281027559" lon="11.671250815958727"><ele>4.0</ele><time>2026-04-25T12:48:50.955Z</time></trkpt><trkpt lat="44.9955758758421" lon="11.671046383224551"><ele>4.0</ele><time>2026-04-25T12:48:51.955Z</time></trkpt><trkpt lat="44.995324403398754" lon="11.67084517468798"><ele>4.0</ele><time>2026-04-25T12:48:52.955Z</time></trkpt><trkpt lat="44.99507055285578" lon="11.670644328753372"><ele>4.0</ele><time>2026-04-25T12:48:53.955Z</time></trkpt><trkpt lat="44.99481770600538" lon="11.670433953092775"><ele>4.0</ele><time>2026-04-25T12:48:54.955Z</time></trkpt><trkpt lat="44.99456521617497" lon="11.670226264430598"><ele>4.0</ele><time>2026-04-25T12:48:55.955Z</time></trkpt><trkpt lat="44.994309557668444" lon="11.670016749056394"><ele>4.0</ele><time>2026-04-25T12:48:56.955Z</time></trkpt><trkpt lat="44.99405251352577" lon="11.669806179006084"><ele>3.5</ele><time>2026-04-25T12:48:57.955Z</time></trkpt><trkpt lat="44.993791898269954" lon="11.669600864367649"><ele>3.0</ele><time>2026-04-25T12:48:58.955Z</time></trkpt><trkpt lat="44.99353177986416" lon="11.669397102063588"><ele>3.0</ele><time>2026-04-25T12:48:59.955Z</time></trkpt><trkpt lat="44.993274687566604" lon="11.66919418596935"><ele>3.0</ele><time>2026-04-25T12:49:00.955Z</time></trkpt><trkpt lat="44.993016997368855" lon="11.66898540679778"><ele>3.0</ele><time>2026-04-25T12:49:01.955Z</time></trkpt><trkpt lat="44.992757678037" lon="11.668777208274333"><ele>3.0</ele><time>2026-04-25T12:49:02.955Z</time></trkpt><trkpt lat="44.99249860183305" lon="11.668568854796463"><ele>3.0</ele><time>2026-04-25T12:49:03.955Z</time></trkpt><trkpt lat="44.99223949274603" lon="11.668356897639622"><ele>3.0</ele><time>2026-04-25T12:49:04.955Z</time></trkpt><trkpt lat="44.99198424930189" lon="11.668144222235941"><ele>3.0</ele><time>2026-04-25T12:49:05.955Z</time></trkpt><trkpt lat="44.991726521829555" lon="11.66793072970364"><ele>3.0</ele><time>2026-04-25T12:49:06.955Z</time></trkpt><trkpt lat="44.99146577012622" lon="11.667715182175245"><ele>2.5</ele><time>2026-04-25T12:49:07.955Z</time></trkpt><trkpt lat="44.99120318818868" lon="11.667504292532353"><ele>2.0</ele><time>2026-04-25T12:49:08.955Z</time></trkpt><trkpt lat="44.990944637562066" lon="11.667299409879023"><ele>3.0</ele><time>2026-04-25T12:49:09.955Z</time></trkpt><trkpt lat="44.99069039844781" lon="11.667100946721842"><ele>4.0</ele><time>2026-04-25T12:49:10.955Z</time></trkpt><trkpt lat="44.99043480133595" lon="11.666896847893021"><ele>4.0</ele><time>2026-04-25T12:49:11.955Z</time></trkpt><trkpt lat="44.99018408450446" lon="11.666697235473844"><ele>4.0</ele><time>2026-04-25T12:49:12.955Z</time></trkpt><trkpt lat="44.98993469524168" lon="11.666493590655207"><ele>4.0</ele><time>2026-04-25T12:49:13.955Z</time></trkpt><trkpt lat="44.98968942726749" lon="11.666292395249172"><ele>4.0</ele><time>2026-04-25T12:49:14.955Z</time></trkpt><trkpt lat="44.989439998430825" lon="11.666086188811251"><ele>3.5</ele><time>2026-04-25T12:49:15.955Z</time></trkpt><trkpt lat="44.989188052882284" lon="11.66588419788136"><ele>3.0</ele><time>2026-04-25T12:49:16.955Z</time></trkpt><trkpt lat="44.988937313888506" lon="11.665683712047391"><ele>3.0</ele><time>2026-04-25T12:49:17.955Z</time></trkpt><trkpt lat="44.98868564634073" lon="11.665481066818483"><ele>3.0</ele><time>2026-04-25T12:49:18.955Z</time></trkpt><trkpt lat="44.9884305378004" lon="11.665277328496002"><ele>3.0</ele><time>2026-04-25T12:49:19.955Z</time></trkpt><trkpt lat="44.988183224162874" lon="11.665076710388893"><ele>3.0</ele><time>2026-04-25T12:49:20.955Z</time></trkpt><trkpt lat="44.987935511324046" lon="11.664876916993085"><ele>3.0</ele><time>2026-04-25T12:49:21.955Z</time></trkpt><trkpt lat="44.98768808434995" lon="11.66467844672342"><ele>3.0</ele><time>2026-04-25T12:49:22.955Z</time></trkpt><trkpt lat="44.987439880261505" lon="11.664475225741466"><ele>3.0</ele><time>2026-04-25T12:49:23.955Z</time></trkpt><trkpt lat="44.9871909418569" lon="11.664270873026041"><ele>3.0</ele><time>2026-04-25T12:49:24.955Z</time></trkpt><trkpt lat="44.9869417099183" lon="11.664064562765255"><ele>3.0</ele><time>2026-04-25T12:49:25.955Z</time></trkpt><trkpt lat="44.9866900170432" lon="11.663864033997266"><ele>3.0</ele><time>2026-04-25T12:49:26.955Z</time></trkpt><trkpt lat="44.986443779050525" lon="11.663663926282494"><ele>4.5</ele><time>2026-04-25T12:49:27.955Z</time></trkpt><trkpt lat="44.98619289934292" lon="11.663465190607095"><ele>6.0</ele><time>2026-04-25T12:49:28.955Z</time></trkpt><trkpt lat="44.98594708918711" lon="11.663269212461664"><ele>4.5</ele><time>2026-04-25T12:49:29.955Z</time></trkpt><trkpt lat="44.98569538189935" lon="11.663058267480784"><ele>3.0</ele><time>2026-04-25T12:49:30.955Z</time></trkpt><trkpt lat="44.98544253546628" lon="11.66285648215204"><ele>3.0</ele><time>2026-04-25T12:49:31.955Z</time></trkpt><trkpt lat="44.98518899723018" lon="11.66264973523922"><ele>3.0</ele><time>2026-04-25T12:49:32.954Z</time></trkpt><trkpt lat="44.98493302318709" lon="11.662442713290817"><ele>3.0</ele><time>2026-04-25T12:49:33.954Z</time></trkpt><trkpt lat="44.98467698926493" lon="11.662236741212268"><ele>3.0</ele><time>2026-04-25T12:49:34.954Z</time></trkpt><trkpt lat="44.98442107365487" lon="11.66203045306776"><ele>2.0</ele><time>2026-04-25T12:49:35.954Z</time></trkpt><trkpt lat="44.98416954357638" lon="11.661824362017356"><ele>1.0</ele><time>2026-04-25T12:49:36.954Z</time></trkpt><trkpt lat="44.983919213527415" lon="11.66162109212356"><ele>1.0</ele><time>2026-04-25T12:49:37.954Z</time></trkpt><trkpt lat="44.98366898106058" lon="11.661418302280351"><ele>1.0</ele><time>2026-04-25T12:49:38.954Z</time></trkpt><trkpt lat="44.98341779669898" lon="11.661216345776488"><ele>1.0</ele><time>2026-04-25T12:49:39.954Z</time></trkpt><trkpt lat="44.983168189448776" lon="11.66101574801045"><ele>1.0</ele><time>2026-04-25T12:49:40.954Z</time></trkpt><trkpt lat="44.98291700797335" lon="11.66081251536067"><ele>1.0</ele><time>2026-04-25T12:49:41.954Z</time></trkpt><trkpt lat="44.98266551123883" lon="11.660612359606617"><ele>1.0</ele><time>2026-04-25T12:49:42.954Z</time></trkpt><trkpt lat="44.98241546122562" lon="11.660409450691361"><ele>1.0</ele><time>2026-04-25T12:49:43.954Z</time></trkpt><trkpt lat="44.98216889907412" lon="11.660207272884227"><ele>1.0</ele><time>2026-04-25T12:49:44.954Z</time></trkpt><trkpt lat="44.98191999267037" lon="11.660004374624258"><ele>1.5</ele><time>2026-04-25T12:49:45.954Z</time></trkpt><trkpt lat="44.98166944260129" lon="11.659799817701833"><ele>2.0</ele><time>2026-04-25T12:49:46.954Z</time></trkpt><trkpt lat="44.98141687915544" lon="11.65959955112326"><ele>1.5</ele><time>2026-04-25T12:49:47.954Z</time></trkpt><trkpt lat="44.981167281708665" lon="11.659406677673637"><ele>1.0</ele><time>2026-04-25T12:49:48.954Z</time></trkpt><trkpt lat="44.980914456222706" lon="11.659210081954775"><ele>1.5</ele><time>2026-04-25T12:49:49.954Z</time></trkpt><trkpt lat="44.980660508579675" lon="11.659016556336757"><ele>2.0</ele><time>2026-04-25T12:49:50.954Z</time></trkpt><trkpt lat="44.980411040071886" lon="11.65881303009435"><ele>2.0</ele><time>2026-04-25T12:49:51.954Z</time></trkpt><trkpt lat="44.980157513601924" lon="11.658614794795032"><ele>2.0</ele><time>2026-04-25T12:49:52.953Z</time></trkpt><trkpt lat="44.97990219898073" lon="11.658406113238783"><ele>2.0</ele><time>2026-04-25T12:49:53.953Z</time></trkpt><trkpt lat="44.97965059692209" lon="11.658203908919344"><ele>2.0</ele><time>2026-04-25T12:49:54.954Z</time></trkpt><trkpt lat="44.97939726036042" lon="11.657998865124426"><ele>2.0</ele><time>2026-04-25T12:49:55.954Z</time></trkpt><trkpt lat="44.97914122419689" lon="11.657793299108837"><ele>2.0</ele><time>2026-04-25T12:49:56.954Z</time></trkpt><trkpt lat="44.97888211248375" lon="11.657587600878063"><ele>2.0</ele><time>2026-04-25T12:49:57.954Z</time></trkpt><trkpt lat="44.97862295555325" lon="11.657382613313931"><ele>2.0</ele><time>2026-04-25T12:49:58.953Z</time></trkpt><trkpt lat="44.978368206292195" lon="11.65718319026236"><ele>2.0</ele><time>2026-04-25T12:49:59.953Z</time></trkpt><trkpt lat="44.97812293627943" lon="11.65698453636249"><ele>2.0</ele><time>2026-04-25T12:50:00.954Z</time></trkpt><trkpt lat="44.97787939497703" lon="11.65678623026978"><ele>2.0</ele><time>2026-04-25T12:50:01.954Z</time></trkpt><trkpt lat="44.97763144475768" lon="11.65658902127344"><ele>2.0</ele><time>2026-04-25T12:50:02.954Z</time></trkpt><trkpt lat="44.97739013965669" lon="11.656390781326918"><ele>2.5</ele><time>2026-04-25T12:50:03.953Z</time></trkpt><trkpt lat="44.9771445996424" lon="11.656188775475172"><ele>3.0</ele><time>2026-04-25T12:50:04.954Z</time></trkpt><trkpt lat="44.97690243958246" lon="11.655987978819367"><ele>2.0</ele><time>2026-04-25T12:50:05.954Z</time></trkpt><trkpt lat="44.97665501991161" lon="11.655786443653827"><ele>1.0</ele><time>2026-04-25T12:50:06.954Z</time></trkpt><trkpt lat="44.97640918995663" lon="11.655592119987618"><ele>1.0</ele><time>2026-04-25T12:50:07.954Z</time></trkpt><trkpt lat="44.97616288569063" lon="11.655394944930272"><ele>1.0</ele><time>2026-04-25T12:50:08.954Z</time></trkpt><trkpt lat="44.97591962091252" lon="11.655198197103356"><ele>1.5</ele><time>2026-04-25T12:50:09.954Z</time></trkpt><trkpt lat="44.975677427613064" lon="11.654995509007508"><ele>2.0</ele><time>2026-04-25T12:50:10.954Z</time></trkpt><trkpt lat="44.97543364981023" lon="11.65479162785384"><ele>2.0</ele><time>2026-04-25T12:50:11.954Z</time></trkpt><trkpt lat="44.97519384284399" lon="11.654591412021029"><ele>2.0</ele><time>2026-04-25T12:50:12.954Z</time></trkpt><trkpt lat="44.97495335964574" lon="11.654387760394782"><ele>1.5</ele><time>2026-04-25T12:50:13.954Z</time></trkpt><trkpt lat="44.97471085823337" lon="11.654185918837616"><ele>1.0</ele><time>2026-04-25T12:50:14.954Z</time></trkpt><trkpt lat="44.9744679489912" lon="11.65398761648592"><ele>1.0</ele><time>2026-04-25T12:50:15.953Z</time></trkpt><trkpt lat="44.97422579310763" lon="11.653789634087696"><ele>1.0</ele><time>2026-04-25T12:50:16.953Z</time></trkpt><trkpt lat="44.97398911036103" lon="11.65359615182042"><ele>1.5</ele><time>2026-04-25T12:50:17.953Z</time></trkpt><trkpt lat="44.97374991954108" lon="11.653401558609168"><ele>2.0</ele><time>2026-04-25T12:50:18.953Z</time></trkpt><trkpt lat="44.97351303125875" lon="11.653208890861475"><ele>2.0</ele><time>2026-04-25T12:50:19.953Z</time></trkpt><trkpt lat="44.973277267202484" lon="11.653017378171963"><ele>2.0</ele><time>2026-04-25T12:50:20.953Z</time></trkpt><trkpt lat="44.97304334253469" lon="11.652827714903763"><ele>1.5</ele><time>2026-04-25T12:50:21.953Z</time></trkpt><trkpt lat="44.97280684114442" lon="11.652637613125357"><ele>1.0</ele><time>2026-04-25T12:50:22.953Z</time></trkpt><trkpt lat="44.9725707207911" lon="11.652446175483021"><ele>2.0</ele><time>2026-04-25T12:50:23.953Z</time></trkpt><trkpt lat="44.9723349283635" lon="11.652257512074488"><ele>3.0</ele><time>2026-04-25T12:50:24.953Z</time></trkpt><trkpt lat="44.97209889687814" lon="11.65206199305445"><ele>2.5</ele><time>2026-04-25T12:50:25.953Z</time></trkpt><trkpt lat="44.971862214712935" lon="11.651868267546558"><ele>2.0</ele><time>2026-04-25T12:50:26.953Z</time></trkpt><trkpt lat="44.97162305494254" lon="11.651675608412113"><ele>2.0</ele><time>2026-04-25T12:50:27.953Z</time></trkpt><trkpt lat="44.971384437006385" lon="11.651497674104418"><ele>2.0</ele><time>2026-04-25T12:50:28.953Z</time></trkpt><trkpt lat="44.97114600697551" lon="11.651326367789672"><ele>2.0</ele><time>2026-04-25T12:50:29.953Z</time></trkpt><trkpt lat="44.970910720409776" lon="11.651149972138425"><ele>2.0</ele><time>2026-04-25T12:50:30.953Z</time></trkpt><trkpt lat="44.97067692050907" lon="11.650964542618642"><ele>1.5</ele><time>2026-04-25T12:50:31.953Z</time></trkpt><trkpt lat="44.97044347924506" lon="11.650772506605325"><ele>1.0</ele><time>2026-04-25T12:50:32.953Z</time></trkpt><trkpt lat="44.970206298565785" lon="11.650578718819414"><ele>2.0</ele><time>2026-04-25T12:50:33.953Z</time></trkpt><trkpt lat="44.969968164729195" lon="11.650382390555617"><ele>3.0</ele><time>2026-04-25T12:50:34.953Z</time></trkpt><trkpt lat="44.96972479821771" lon="11.65017965318201"><ele>3.0</ele><time>2026-04-25T12:50:35.953Z</time></trkpt><trkpt lat="44.969477281934545" lon="11.649975740185711"><ele>3.0</ele><time>2026-04-25T12:50:36.953Z</time></trkpt><trkpt lat="44.969229225249364" lon="11.649778352534831"><ele>4.5</ele><time>2026-04-25T12:50:37.953Z</time></trkpt><trkpt lat="44.96898521293132" lon="11.649578259663457"><ele>6.0</ele><time>2026-04-25T12:50:38.953Z</time></trkpt><trkpt lat="44.96874306685362" lon="11.649378223453732"><ele>6.5</ele><time>2026-04-25T12:50:39.953Z</time></trkpt><trkpt lat="44.968503599688546" lon="11.649189237481224"><ele>7.0</ele><time>2026-04-25T12:50:40.953Z</time></trkpt><trkpt lat="44.96826207133494" lon="11.648996441583638"><ele>6.0</ele><time>2026-04-25T12:50:41.953Z</time></trkpt><trkpt lat="44.968018583543845" lon="11.648802868759436"><ele>5.0</ele><time>2026-04-25T12:50:42.953Z</time></trkpt><trkpt lat="44.96777741026026" lon="11.648604398542535"><ele>4.0</ele><time>2026-04-25T12:50:43.953Z</time></trkpt><trkpt lat="44.967534024594514" lon="11.648406742932247"><ele>3.0</ele><time>2026-04-25T12:50:44.953Z</time></trkpt><trkpt lat="44.967288617996935" lon="11.648209042615267"><ele>3.0</ele><time>2026-04-25T12:50:45.953Z</time></trkpt><trkpt lat="44.96704093068435" lon="11.648010490738237"><ele>3.0</ele><time>2026-04-25T12:50:46.953Z</time></trkpt><trkpt lat="44.96679892849535" lon="11.647813429356919"><ele>2.5</ele><time>2026-04-25T12:50:47.953Z</time></trkpt><trkpt lat="44.96655654874615" lon="11.647620285944557"><ele>2.0</ele><time>2026-04-25T12:50:48.953Z</time></trkpt><trkpt lat="44.96631535384482" lon="11.647429439955248"><ele>2.0</ele><time>2026-04-25T12:50:49.953Z</time></trkpt><trkpt lat="44.96606829846059" lon="11.647246535094242"><ele>2.0</ele><time>2026-04-25T12:50:50.953Z</time></trkpt><trkpt lat="44.96581715562321" lon="11.647065736604933"><ele>2.5</ele><time>2026-04-25T12:50:51.953Z</time></trkpt><trkpt lat="44.96556391115042" lon="11.64688682785435"><ele>3.0</ele><time>2026-04-25T12:50:52.953Z</time></trkpt><trkpt lat="44.96531185618841" lon="11.646709003436591"><ele>3.0</ele><time>2026-04-25T12:50:53.953Z</time></trkpt><trkpt lat="44.96505820330289" lon="11.646532290333957"><ele>3.0</ele><time>2026-04-25T12:50:54.953Z</time></trkpt><trkpt lat="44.9648010989278" lon="11.64635662448602"><ele>2.5</ele><time>2026-04-25T12:50:55.953Z</time></trkpt><trkpt lat="44.96454357141456" lon="11.646184761340542"><ele>2.0</ele><time>2026-04-25T12:50:56.953Z</time></trkpt><trkpt lat="44.96428320257705" lon="11.646015462453295"><ele>2.5</ele><time>2026-04-25T12:50:57.953Z</time></trkpt><trkpt lat="44.96401912426056" lon="11.645842293654791"><ele>3.0</ele><time>2026-04-25T12:50:58.953Z</time></trkpt><trkpt lat="44.96375604712162" lon="11.645672206547006"><ele>3.0</ele><time>2026-04-25T12:50:59.953Z</time></trkpt><trkpt lat="44.96349057593296" lon="11.64549886518972"><ele>3.0</ele><time>2026-04-25T12:51:00.953Z</time></trkpt><trkpt lat="44.963225589507644" lon="11.645328305697857"><ele>2.5</ele><time>2026-04-25T12:51:01.953Z</time></trkpt><trkpt lat="44.96295992423623" lon="11.645157596762491"><ele>2.0</ele><time>2026-04-25T12:51:02.953Z</time></trkpt><trkpt lat="44.9626951435664" lon="11.644981912924285"><ele>2.0</ele><time>2026-04-25T12:51:03.953Z</time></trkpt><trkpt lat="44.96242985307514" lon="11.644809926394075"><ele>2.0</ele><time>2026-04-25T12:51:04.953Z</time></trkpt><trkpt lat="44.96216462116295" lon="11.64463719637232"><ele>2.5</ele><time>2026-04-25T12:51:05.953Z</time></trkpt><trkpt lat="44.96189952174748" lon="11.644462757294146"><ele>3.0</ele><time>2026-04-25T12:51:06.953Z</time></trkpt><trkpt lat="44.96163714101046" lon="11.644293614393009"><ele>3.5</ele><time>2026-04-25T12:51:07.953Z</time></trkpt><trkpt lat="44.96137554366275" lon="11.644121869156189"><ele>4.0</ele><time>2026-04-25T12:51:08.953Z</time></trkpt><trkpt lat="44.961117227984175" lon="11.643954973096818"><ele>4.0</ele><time>2026-04-25T12:51:09.953Z</time></trkpt><trkpt lat="44.9608578772734" lon="11.643786405439018"><ele>4.0</ele><time>2026-04-25T12:51:10.953Z</time></trkpt><trkpt lat="44.960604709957344" lon="11.643621550174633"><ele>4.0</ele><time>2026-04-25T12:51:11.953Z</time></trkpt><trkpt lat="44.96036037289708" lon="11.64345359074704"><ele>4.0</ele><time>2026-04-25T12:51:12.952Z</time></trkpt><trkpt lat="44.96011832086505" lon="11.643289036609232"><ele>3.5</ele><time>2026-04-25T12:51:13.952Z</time></trkpt><trkpt lat="44.95987794449024" lon="11.6431278774019"><ele>3.0</ele><time>2026-04-25T12:51:14.952Z</time></trkpt><trkpt lat="44.959634225601654" lon="11.642965526969611"><ele>3.0</ele><time>2026-04-25T12:51:15.952Z</time></trkpt><trkpt lat="44.959386882238995" lon="11.642804166754386"><ele>3.0</ele><time>2026-04-25T12:51:16.952Z</time></trkpt><trkpt lat="44.95913658053529" lon="11.642639033793952"><ele>3.0</ele><time>2026-04-25T12:51:17.952Z</time></trkpt><trkpt lat="44.95888573039854" lon="11.642475341244962"><ele>3.0</ele><time>2026-04-25T12:51:18.952Z</time></trkpt><trkpt lat="44.95863149499123" lon="11.642309791125243"><ele>3.0</ele><time>2026-04-25T12:51:19.952Z</time></trkpt><trkpt lat="44.958375806970466" lon="11.642144587168001"><ele>3.0</ele><time>2026-04-25T12:51:20.952Z</time></trkpt><trkpt lat="44.9581184524075" lon="11.641976456480757"><ele>2.0</ele><time>2026-04-25T12:51:21.952Z</time></trkpt><trkpt lat="44.95786160172375" lon="11.641807810682568"><ele>1.0</ele><time>2026-04-25T12:51:22.952Z</time></trkpt><trkpt lat="44.95760779544217" lon="11.641643806909213"><ele>1.5</ele><time>2026-04-25T12:51:23.952Z</time></trkpt><trkpt lat="44.9573587534201" lon="11.641479602810596"><ele>2.0</ele><time>2026-04-25T12:51:24.952Z</time></trkpt><trkpt lat="44.95711079920125" lon="11.6413150542884"><ele>2.0</ele><time>2026-04-25T12:51:25.952Z</time></trkpt><trkpt lat="44.956863967983864" lon="11.641153145041422"><ele>2.0</ele><time>2026-04-25T12:51:26.952Z</time></trkpt><trkpt lat="44.95662044799627" lon="11.640988029884374"><ele>2.5</ele><time>2026-04-25T12:51:27.952Z</time></trkpt><trkpt lat="44.956373093705544" lon="11.640818157135463"><ele>3.0</ele><time>2026-04-25T12:51:28.952Z</time></trkpt><trkpt lat="44.95612678260725" lon="11.640644578125965"><ele>3.0</ele><time>2026-04-25T12:51:29.952Z</time></trkpt><trkpt lat="44.95587716683692" lon="11.64047604872706"><ele>3.0</ele><time>2026-04-25T12:51:30.952Z</time></trkpt><trkpt lat="44.955625345007654" lon="11.640309611788982"><ele>3.0</ele><time>2026-04-25T12:51:31.952Z</time></trkpt><trkpt lat="44.95537447490847" lon="11.640143230056864"><ele>3.0</ele><time>2026-04-25T12:51:32.952Z</time></trkpt><trkpt lat="44.95512550255754" lon="11.639981413853878"><ele>3.0</ele><time>2026-04-25T12:51:33.952Z</time></trkpt><trkpt lat="44.95487671559001" lon="11.639816243472769"><ele>3.0</ele><time>2026-04-25T12:51:34.952Z</time></trkpt><trkpt lat="44.954628214323606" lon="11.639654121777404"><ele>3.0</ele><time>2026-04-25T12:51:35.952Z</time></trkpt><trkpt lat="44.954381998642575" lon="11.639492433379528"><ele>3.0</ele><time>2026-04-25T12:51:36.952Z</time></trkpt><trkpt lat="44.95413481001639" lon="11.639331090618644"><ele>3.0</ele><time>2026-04-25T12:51:37.952Z</time></trkpt><trkpt lat="44.95388864214382" lon="11.639169328091599"><ele>3.0</ele><time>2026-04-25T12:51:38.952Z</time></trkpt><trkpt lat="44.95364444801927" lon="11.63900695407338"><ele>3.0</ele><time>2026-04-25T12:51:39.952Z</time></trkpt><trkpt lat="44.95340120725264" lon="11.638843178074419"><ele>3.0</ele><time>2026-04-25T12:51:40.952Z</time></trkpt><trkpt lat="44.95316058832378" lon="11.638682647186474"><ele>3.5</ele><time>2026-04-25T12:51:41.952Z</time></trkpt><trkpt lat="44.95291727061237" lon="11.638518737556673"><ele>4.0</ele><time>2026-04-25T12:51:42.952Z</time></trkpt><trkpt lat="44.9526733598435" lon="11.638358362401432"><ele>3.5</ele><time>2026-04-25T12:51:43.952Z</time></trkpt><trkpt lat="44.95242259359617" lon="11.638197770831201"><ele>3.0</ele><time>2026-04-25T12:51:44.952Z</time></trkpt><trkpt lat="44.952170985243576" lon="11.638029580898024"><ele>3.0</ele><time>2026-04-25T12:51:45.952Z</time></trkpt><trkpt lat="44.9519151679772" lon="11.637860695096668"><ele>3.0</ele><time>2026-04-25T12:51:46.952Z</time></trkpt><trkpt lat="44.95165567844943" lon="11.637690440616076"><ele>3.0</ele><time>2026-04-25T12:51:47.952Z</time></trkpt><trkpt lat="44.951393719330696" lon="11.637521922495575"><ele>3.0</ele><time>2026-04-25T12:51:48.952Z</time></trkpt><trkpt lat="44.95112941220761" lon="11.637350987930533"><ele>2.5</ele><time>2026-04-25T12:51:49.952Z</time></trkpt><trkpt lat="44.95086060905781" lon="11.637176767080634"><ele>2.0</ele><time>2026-04-25T12:51:50.952Z</time></trkpt><trkpt lat="44.95059341435979" lon="11.637006926231761"><ele>2.5</ele><time>2026-04-25T12:51:51.952Z</time></trkpt><trkpt lat="44.95032717257094" lon="11.636833576439725"><ele>3.0</ele><time>2026-04-25T12:51:52.952Z</time></trkpt><trkpt lat="44.95005971716321" lon="11.636656203710261"><ele>2.5</ele><time>2026-04-25T12:51:53.952Z</time></trkpt><trkpt lat="44.94979209538801" lon="11.636479531934524"><ele>2.0</ele><time>2026-04-25T12:51:54.952Z</time></trkpt><trkpt lat="44.94952501601601" lon="11.636303398902784"><ele>2.0</ele><time>2026-04-25T12:51:55.952Z</time></trkpt><trkpt lat="44.94925886848626" lon="11.636124417743591"><ele>2.0</ele><time>2026-04-25T12:51:56.952Z</time></trkpt><trkpt lat="44.948995507425984" lon="11.635941278908296"><ele>2.0</ele><time>2026-04-25T12:51:57.951Z</time></trkpt><trkpt lat="44.94873481015897" lon="11.635747305044319"><ele>2.0</ele><time>2026-04-25T12:51:58.952Z</time></trkpt><trkpt lat="44.94848317269962" lon="11.635546739846875"><ele>2.5</ele><time>2026-04-25T12:51:59.952Z</time></trkpt><trkpt lat="44.948235555842714" lon="11.635326962636501"><ele>3.0</ele><time>2026-04-25T12:52:00.951Z</time></trkpt><trkpt lat="44.94799285229632" lon="11.635099209356431"><ele>3.0</ele><time>2026-04-25T12:52:01.951Z</time></trkpt><trkpt lat="44.94775667774791" lon="11.634865631553737"><ele>3.0</ele><time>2026-04-25T12:52:02.951Z</time></trkpt><trkpt lat="44.94752830544685" lon="11.634623384332258"><ele>3.0</ele><time>2026-04-25T12:52:03.952Z</time></trkpt><trkpt lat="44.94730705097004" lon="11.634372254521622"><ele>3.0</ele><time>2026-04-25T12:52:04.951Z</time></trkpt><trkpt lat="44.94709224242269" lon="11.634112373025221"><ele>3.0</ele><time>2026-04-25T12:52:05.951Z</time></trkpt><trkpt lat="44.9468833179608" lon="11.633840651366834"><ele>3.0</ele><time>2026-04-25T12:52:06.952Z</time></trkpt><trkpt lat="44.946685355506816" lon="11.633564344936149"><ele>4.5</ele><time>2026-04-25T12:52:07.951Z</time></trkpt><trkpt lat="44.946490838110414" lon="11.633275948977563"><ele>6.0</ele><time>2026-04-25T12:52:08.951Z</time></trkpt><trkpt lat="44.94630521569302" lon="11.632975132978014"><ele>5.5</ele><time>2026-04-25T12:52:09.951Z</time></trkpt><trkpt lat="44.94612483319786" lon="11.632667779188685"><ele>5.0</ele><time>2026-04-25T12:52:10.951Z</time></trkpt><trkpt lat="44.94594551291693" lon="11.632357373021264"><ele>5.0</ele><time>2026-04-25T12:52:11.951Z</time></trkpt><trkpt lat="44.945768899782166" lon="11.632041690596914"><ele>5.0</ele><time>2026-04-25T12:52:12.951Z</time></trkpt><trkpt lat="44.94559617508481" lon="11.63172107101379"><ele>4.5</ele><time>2026-04-25T12:52:13.951Z</time></trkpt><trkpt lat="44.945423573698676" lon="11.631401692011293"><ele>4.0</ele><time>2026-04-25T12:52:14.951Z</time></trkpt><trkpt lat="44.94524971281548" lon="11.631087970724813"><ele>4.0</ele><time>2026-04-25T12:52:15.951Z</time></trkpt><trkpt lat="44.94507636842194" lon="11.630774627745549"><ele>4.0</ele><time>2026-04-25T12:52:16.951Z</time></trkpt><trkpt lat="44.94490661829036" lon="11.630462211302458"><ele>4.5</ele><time>2026-04-25T12:52:17.951Z</time></trkpt><trkpt lat="44.944735624189825" lon="11.630153989044947"><ele>5.0</ele><time>2026-04-25T12:52:18.951Z</time></trkpt><trkpt lat="44.94456526089185" lon="11.629843664288957"><ele>5.0</ele><time>2026-04-25T12:52:19.951Z</time></trkpt><trkpt lat="44.94439644888802" lon="11.629532643618678"><ele>5.0</ele><time>2026-04-25T12:52:20.951Z</time></trkpt><trkpt lat="44.94422733344938" lon="11.629221800252655"><ele>5.0</ele><time>2026-04-25T12:52:21.951Z</time></trkpt><trkpt lat="44.944056697191456" lon="11.62891308382252"><ele>5.0</ele><time>2026-04-25T12:52:22.951Z</time></trkpt><trkpt lat="44.94388808471425" lon="11.628598792582908"><ele>5.5</ele><time>2026-04-25T12:52:23.95Z</time></trkpt><trkpt lat="44.943715439477614" lon="11.628290837956202"><ele>6.0</ele><time>2026-04-25T12:52:24.95Z</time></trkpt><trkpt lat="44.94354143297115" lon="11.627982473314544"><ele>5.0</ele><time>2026-04-25T12:52:25.95Z</time></trkpt><trkpt lat="44.94336847961869" lon="11.627670378008007"><ele>4.0</ele><time>2026-04-25T12:52:26.95Z</time></trkpt><trkpt lat="44.94319574455258" lon="11.627358545695738"><ele>4.0</ele><time>2026-04-25T12:52:27.95Z</time></trkpt><trkpt lat="44.94302058921001" lon="11.627052245376431"><ele>4.0</ele><time>2026-04-25T12:52:28.95Z</time></trkpt><trkpt lat="44.94284068560784" lon="11.62674168332841"><ele>3.5</ele><time>2026-04-25T12:52:29.95Z</time></trkpt><trkpt lat="44.942664528322936" lon="11.626437484993337"><ele>3.0</ele><time>2026-04-25T12:52:30.95Z</time></trkpt><trkpt lat="44.942489148908095" lon="11.626130367461117"><ele>4.5</ele><time>2026-04-25T12:52:31.95Z</time></trkpt><trkpt lat="44.942315682993595" lon="11.62582582670586"><ele>6.0</ele><time>2026-04-25T12:52:32.95Z</time></trkpt><trkpt lat="44.94213869376731" lon="11.625514966118626"><ele>6.0</ele><time>2026-04-25T12:52:33.95Z</time></trkpt><trkpt lat="44.941971441924224" lon="11.625216607719814"><ele>6.0</ele><time>2026-04-25T12:52:34.95Z</time></trkpt><trkpt lat="44.94181473539054" lon="11.624910170775374"><ele>4.5</ele><time>2026-04-25T12:52:35.95Z</time></trkpt><trkpt lat="44.941645427370595" lon="11.624598298129209"><ele>3.0</ele><time>2026-04-25T12:52:36.95Z</time></trkpt><trkpt lat="44.94146831271458" lon="11.624275762654698"><ele>3.0</ele><time>2026-04-25T12:52:37.95Z</time></trkpt><trkpt lat="44.941290307419685" lon="11.623955118224378"><ele>3.0</ele><time>2026-04-25T12:52:38.95Z</time></trkpt><trkpt lat="44.94110754557974" lon="11.623631605898925"><ele>3.0</ele><time>2026-04-25T12:52:39.95Z</time></trkpt><trkpt lat="44.940927586541136" lon="11.623303195285658"><ele>3.0</ele><time>2026-04-25T12:52:40.95Z</time></trkpt><trkpt lat="44.94074972213447" lon="11.6229751683631"><ele>3.0</ele><time>2026-04-25T12:52:41.95Z</time></trkpt><trkpt lat="44.94056991957584" lon="11.622649470492949"><ele>3.0</ele><time>2026-04-25T12:52:42.95Z</time></trkpt><trkpt lat="44.94039058616453" lon="11.622322868792274"><ele>3.0</ele><time>2026-04-25T12:52:43.95Z</time></trkpt><trkpt lat="44.940212361744386" lon="11.621993183213405"><ele>3.0</ele><time>2026-04-25T12:52:44.95Z</time></trkpt><trkpt lat="44.94003716251798" lon="11.621666434716188"><ele>3.5</ele><time>2026-04-25T12:52:45.95Z</time></trkpt><trkpt lat="44.939855908809626" lon="11.621340070276787"><ele>4.0</ele><time>2026-04-25T12:52:46.95Z</time></trkpt><trkpt lat="44.939676904138835" lon="11.62102125289979"><ele>4.0</ele><time>2026-04-25T12:52:47.95Z</time></trkpt><trkpt lat="44.939500973079696" lon="11.620702622669938"><ele>4.0</ele><time>2026-04-25T12:52:48.95Z</time></trkpt><trkpt lat="44.939324459882194" lon="11.620391029279094"><ele>3.5</ele><time>2026-04-25T12:52:49.95Z</time></trkpt><trkpt lat="44.939152857649056" lon="11.620078549749392"><ele>3.0</ele><time>2026-04-25T12:52:50.95Z</time></trkpt><trkpt lat="44.93898071922962" lon="11.61976341947229"><ele>3.0</ele><time>2026-04-25T12:52:51.95Z</time></trkpt><trkpt lat="44.93880820875547" lon="11.619448276295254"><ele>3.0</ele><time>2026-04-25T12:52:52.95Z</time></trkpt><trkpt lat="44.938630896156845" lon="11.619129030314538"><ele>3.0</ele><time>2026-04-25T12:52:53.95Z</time></trkpt><trkpt lat="44.93845461189416" lon="11.61881564764616"><ele>3.0</ele><time>2026-04-25T12:52:54.95Z</time></trkpt><trkpt lat="44.93828176497691" lon="11.618486662648719"><ele>3.5</ele><time>2026-04-25T12:52:55.95Z</time></trkpt><trkpt lat="44.93810603248426" lon="11.618162700962047"><ele>4.0</ele><time>2026-04-25T12:52:56.95Z</time></trkpt><trkpt lat="44.93792929699053" lon="11.61784408599608"><ele>4.0</ele><time>2026-04-25T12:52:57.95Z</time></trkpt><trkpt lat="44.93774912679975" lon="11.617517849694025"><ele>4.0</ele><time>2026-04-25T12:52:58.95Z</time></trkpt><trkpt lat="44.93756671777063" lon="11.617197459979131"><ele>4.5</ele><time>2026-04-25T12:52:59.95Z</time></trkpt><trkpt lat="44.93738714513142" lon="11.616875870191453"><ele>5.0</ele><time>2026-04-25T12:53:00.95Z</time></trkpt><trkpt lat="44.937200827128784" lon="11.616545517478079"><ele>5.0</ele><time>2026-04-25T12:53:01.95Z</time></trkpt><trkpt lat="44.93702290500993" lon="11.616207481093404"><ele>5.0</ele><time>2026-04-25T12:53:02.95Z</time></trkpt><trkpt lat="44.93683855263717" lon="11.615873371235"><ele>4.0</ele><time>2026-04-25T12:53:03.95Z</time></trkpt><trkpt lat="44.93665580387222" lon="11.615539814863144"><ele>3.0</ele><time>2026-04-25T12:53:04.95Z</time></trkpt><trkpt lat="44.936474370802294" lon="11.615207656677958"><ele>3.0</ele><time>2026-04-25T12:53:05.95Z</time></trkpt><trkpt lat="44.936294428311214" lon="11.614879497091236"><ele>3.0</ele><time>2026-04-25T12:53:06.95Z</time></trkpt><trkpt lat="44.936116582223534" lon="11.61455959868329"><ele>3.0</ele><time>2026-04-25T12:53:07.95Z</time></trkpt><trkpt lat="44.93593909434704" lon="11.614237485766656"><ele>3.0</ele><time>2026-04-25T12:53:08.95Z</time></trkpt><trkpt lat="44.93576149369519" lon="11.61391236114526"><ele>2.5</ele><time>2026-04-25T12:53:09.95Z</time></trkpt><trkpt lat="44.93558281111231" lon="11.613585863823582"><ele>2.0</ele><time>2026-04-25T12:53:10.95Z</time></trkpt><trkpt lat="44.93540580267072" lon="11.61326067366355"><ele>2.0</ele><time>2026-04-25T12:53:11.95Z</time></trkpt><trkpt lat="44.93522942914172" lon="11.612938884170497"><ele>2.0</ele><time>2026-04-25T12:53:12.95Z</time></trkpt><trkpt lat="44.9350534216035" lon="11.61262140672737"><ele>2.5</ele><time>2026-04-25T12:53:13.95Z</time></trkpt><trkpt lat="44.934879019542706" lon="11.612305433902714"><ele>3.0</ele><time>2026-04-25T12:53:14.95Z</time></trkpt><trkpt lat="44.93470393330839" lon="11.611990811830394"><ele>2.5</ele><time>2026-04-25T12:53:15.95Z</time></trkpt><trkpt lat="44.93453009787907" lon="11.611679278804225"><ele>2.0</ele><time>2026-04-25T12:53:16.95Z</time></trkpt><trkpt lat="44.93435649240573" lon="11.611363777333027"><ele>1.5</ele><time>2026-04-25T12:53:17.95Z</time></trkpt><trkpt lat="44.93418307076373" lon="11.611046996492213"><ele>1.0</ele><time>2026-04-25T12:53:18.95Z</time></trkpt><trkpt lat="44.93400910516752" lon="11.610728777456963"><ele>1.0</ele><time>2026-04-25T12:53:19.95Z</time></trkpt><trkpt lat="44.933833225261715" lon="11.610410857903503"><ele>1.0</ele><time>2026-04-25T12:53:20.95Z</time></trkpt><trkpt lat="44.93365861174455" lon="11.610092527086659"><ele>1.5</ele><time>2026-04-25T12:53:21.949Z</time></trkpt><trkpt lat="44.93348632799174" lon="11.609772393874826"><ele>2.0</ele><time>2026-04-25T12:53:22.949Z</time></trkpt><trkpt lat="44.933314500401615" lon="11.609454186420834"><ele>2.0</ele><time>2026-04-25T12:53:23.949Z</time></trkpt><trkpt lat="44.933139482389166" lon="11.60913594822763"><ele>2.0</ele><time>2026-04-25T12:53:24.949Z</time></trkpt><trkpt lat="44.93296075987123" lon="11.608817114987042"><ele>2.0</ele><time>2026-04-25T12:53:25.949Z</time></trkpt><trkpt lat="44.932780538282934" lon="11.608493502502121"><ele>2.0</ele><time>2026-04-25T12:53:26.949Z</time></trkpt><trkpt lat="44.93259764132717" lon="11.608168709001966"><ele>2.0</ele><time>2026-04-25T12:53:27.949Z</time></trkpt><trkpt lat="44.93241901837725" lon="11.607838615073925"><ele>2.0</ele><time>2026-04-25T12:53:28.949Z</time></trkpt><trkpt lat="44.932238963948706" lon="11.607506364843498"><ele>2.0</ele><time>2026-04-25T12:53:29.949Z</time></trkpt><trkpt lat="44.932056133675964" lon="11.607172098199598"><ele>2.0</ele><time>2026-04-25T12:53:30.949Z</time></trkpt><trkpt lat="44.93187290988004" lon="11.606836718232996"><ele>2.5</ele><time>2026-04-25T12:53:31.949Z</time></trkpt><trkpt lat="44.93169118584516" lon="11.606499543535836"><ele>3.0</ele><time>2026-04-25T12:53:32.949Z</time></trkpt><trkpt lat="44.93150585743388" lon="11.606167974881583"><ele>3.5</ele><time>2026-04-25T12:53:33.949Z</time></trkpt><trkpt lat="44.93132166335529" lon="11.605833457094128"><ele>4.0</ele><time>2026-04-25T12:53:34.949Z</time></trkpt><trkpt lat="44.93113952595377" lon="11.605502648185741"><ele>4.5</ele><time>2026-04-25T12:53:35.949Z</time></trkpt><trkpt lat="44.9309591428337" lon="11.605173182235113"><ele>5.0</ele><time>2026-04-25T12:53:36.949Z</time></trkpt><trkpt lat="44.930776415082434" lon="11.604843232769563"><ele>5.0</ele><time>2026-04-25T12:53:37.949Z</time></trkpt><trkpt lat="44.930595407547656" lon="11.604512622372173"><ele>5.0</ele><time>2026-04-25T12:53:38.949Z</time></trkpt><trkpt lat="44.93041487063996" lon="11.604183658716599"><ele>5.0</ele><time>2026-04-25T12:53:39.949Z</time></trkpt><trkpt lat="44.9302331488628" lon="11.603855722176455"><ele>5.0</ele><time>2026-04-25T12:53:40.949Z</time></trkpt><trkpt lat="44.93004944269597" lon="11.603525169365883"><ele>4.0</ele><time>2026-04-25T12:53:41.949Z</time></trkpt><trkpt lat="44.92986578691581" lon="11.603194936910482"><ele>3.0</ele><time>2026-04-25T12:53:42.949Z</time></trkpt><trkpt lat="44.929679596309434" lon="11.602862973475176"><ele>2.5</ele><time>2026-04-25T12:53:43.949Z</time></trkpt><trkpt lat="44.92949570877066" lon="11.602527964272017"><ele>2.0</ele><time>2026-04-25T12:53:44.949Z</time></trkpt><trkpt lat="44.9293129247121" lon="11.602192361065363"><ele>2.5</ele><time>2026-04-25T12:53:45.949Z</time></trkpt><trkpt lat="44.92912925855688" lon="11.601857520853732"><ele>3.0</ele><time>2026-04-25T12:53:46.949Z</time></trkpt><trkpt lat="44.928946326119885" lon="11.601520051136806"><ele>3.0</ele><time>2026-04-25T12:53:47.949Z</time></trkpt><trkpt lat="44.928764180489196" lon="11.601188930710533"><ele>3.0</ele><time>2026-04-25T12:53:48.949Z</time></trkpt><trkpt lat="44.92858119301807" lon="11.600858402295223"><ele>3.5</ele><time>2026-04-25T12:53:49.949Z</time></trkpt><trkpt lat="44.928397491369346" lon="11.60052441811904"><ele>4.0</ele><time>2026-04-25T12:53:50.949Z</time></trkpt><trkpt lat="44.92821425150682" lon="11.600193640026722"><ele>2.5</ele><time>2026-04-25T12:53:51.949Z</time></trkpt><trkpt lat="44.92803208415887" lon="11.599861497910888"><ele>1.0</ele><time>2026-04-25T12:53:52.949Z</time></trkpt><trkpt lat="44.92785094461372" lon="11.599531119346432"><ele>2.0</ele><time>2026-04-25T12:53:53.949Z</time></trkpt><trkpt lat="44.92766781225786" lon="11.599195560382903"><ele>3.0</ele><time>2026-04-25T12:53:54.949Z</time></trkpt><trkpt lat="44.927484687785864" lon="11.598861025580977"><ele>3.0</ele><time>2026-04-25T12:53:55.949Z</time></trkpt><trkpt lat="44.92729798859153" lon="11.598527589774042"><ele>3.0</ele><time>2026-04-25T12:53:56.949Z</time></trkpt><trkpt lat="44.927107321456" lon="11.59819027752512"><ele>3.0</ele><time>2026-04-25T12:53:57.949Z</time></trkpt><trkpt lat="44.92691944817583" lon="11.59785263651907"><ele>3.0</ele><time>2026-04-25T12:53:58.949Z</time></trkpt><trkpt lat="44.92673416729267" lon="11.597514193047807"><ele>4.0</ele><time>2026-04-25T12:53:59.949Z</time></trkpt><trkpt lat="44.926549369661" lon="11.597176548673902"><ele>5.0</ele><time>2026-04-25T12:54:00.949Z</time></trkpt><trkpt lat="44.926371905846224" lon="11.596844606918491"><ele>5.5</ele><time>2026-04-25T12:54:01.949Z</time></trkpt><trkpt lat="44.92619526534872" lon="11.596512984209074"><ele>6.0</ele><time>2026-04-25T12:54:02.949Z</time></trkpt><trkpt lat="44.92602063793965" lon="11.596183199534092"><ele>6.0</ele><time>2026-04-25T12:54:03.949Z</time></trkpt><trkpt lat="44.925838874713115" lon="11.59585511115695"><ele>6.0</ele><time>2026-04-25T12:54:04.949Z</time></trkpt><trkpt lat="44.92566291040286" lon="11.595529897543893"><ele>5.5</ele><time>2026-04-25T12:54:05.949Z</time></trkpt><trkpt lat="44.925487778636054" lon="11.595206146434256"><ele>5.0</ele><time>2026-04-25T12:54:06.949Z</time></trkpt><trkpt lat="44.925314535543535" lon="11.594882115790185"><ele>5.0</ele><time>2026-04-25T12:54:07.949Z</time></trkpt><trkpt lat="44.92513903914851" lon="11.594554995527517"><ele>5.0</ele><time>2026-04-25T12:54:08.949Z</time></trkpt><trkpt lat="44.92496313233051" lon="11.594232656132924"><ele>5.0</ele><time>2026-04-25T12:54:09.95Z</time></trkpt><trkpt lat="44.924786382832046" lon="11.593905868030117"><ele>5.0</ele><time>2026-04-25T12:54:10.948Z</time></trkpt><trkpt lat="44.92460786589077" lon="11.593578229829136"><ele>5.5</ele><time>2026-04-25T12:54:11.948Z</time></trkpt><trkpt lat="44.9244289378606" lon="11.593251087203432"><ele>6.0</ele><time>2026-04-25T12:54:12.949Z</time></trkpt><trkpt lat="44.92424947191215" lon="11.592925077047992"><ele>6.0</ele><time>2026-04-25T12:54:13.949Z</time></trkpt><trkpt lat="44.92406701421191" lon="11.592596522967728"><ele>6.0</ele><time>2026-04-25T12:54:14.949Z</time></trkpt><trkpt lat="44.923886050392944" lon="11.592268552355241"><ele>5.0</ele><time>2026-04-25T12:54:15.949Z</time></trkpt><trkpt lat="44.92370608599348" lon="11.591938054451411"><ele>4.0</ele><time>2026-04-25T12:54:16.949Z</time></trkpt><trkpt lat="44.92352685179469" lon="11.591605881416289"><ele>4.5</ele><time>2026-04-25T12:54:17.949Z</time></trkpt><trkpt lat="44.92334363566534" lon="11.591278547377613"><ele>5.0</ele><time>2026-04-25T12:54:18.949Z</time></trkpt><trkpt lat="44.9231618918081" lon="11.590946718516385"><ele>5.5</ele><time>2026-04-25T12:54:19.949Z</time></trkpt><trkpt lat="44.922980152414965" lon="11.590617022632358"><ele>6.0</ele><time>2026-04-25T12:54:20.949Z</time></trkpt><trkpt lat="44.92279901950847" lon="11.590287936135308"><ele>6.5</ele><time>2026-04-25T12:54:21.949Z</time></trkpt><trkpt lat="44.92261797924043" lon="11.589960862890024"><ele>7.0</ele><time>2026-04-25T12:54:22.949Z</time></trkpt><trkpt lat="44.92244095286535" lon="11.589634313255056"><ele>7.5</ele><time>2026-04-25T12:54:23.949Z</time></trkpt><trkpt lat="44.92225986671376" lon="11.589302566137844"><ele>8.0</ele><time>2026-04-25T12:54:24.949Z</time></trkpt><trkpt lat="44.922077701626854" lon="11.588970880114385"><ele>7.0</ele><time>2026-04-25T12:54:25.949Z</time></trkpt><trkpt lat="44.92189457269236" lon="11.588641639837398"><ele>6.0</ele><time>2026-04-25T12:54:26.949Z</time></trkpt><trkpt lat="44.921714058101735" lon="11.588311998077915"><ele>6.0</ele><time>2026-04-25T12:54:27.948Z</time></trkpt><trkpt lat="44.92153455155587" lon="11.587983459308282"><ele>6.0</ele><time>2026-04-25T12:54:28.948Z</time></trkpt><trkpt lat="44.92135436657987" lon="11.587652695782133"><ele>6.5</ele><time>2026-04-25T12:54:29.948Z</time></trkpt><trkpt lat="44.921174028916234" lon="11.587324676347171"><ele>7.0</ele><time>2026-04-25T12:54:30.948Z</time></trkpt><trkpt lat="44.92099567917772" lon="11.586997367617306"><ele>7.0</ele><time>2026-04-25T12:54:31.948Z</time></trkpt><trkpt lat="44.92081682239826" lon="11.586672939966371"><ele>7.0</ele><time>2026-04-25T12:54:32.948Z</time></trkpt><trkpt lat="44.92064011138911" lon="11.586345756961153"><ele>7.0</ele><time>2026-04-25T12:54:33.948Z</time></trkpt><trkpt lat="44.92046183908025" lon="11.586017602704144"><ele>7.0</ele><time>2026-04-25T12:54:34.948Z</time></trkpt><trkpt lat="44.92028111618237" lon="11.585695354690918"><ele>7.0</ele><time>2026-04-25T12:54:35.948Z</time></trkpt><trkpt lat="44.92009662049535" lon="11.585376392899208"><ele>7.0</ele><time>2026-04-25T12:54:36.948Z</time></trkpt><trkpt lat="44.91991022829131" lon="11.585057802879946"><ele>7.0</ele><time>2026-04-25T12:54:37.948Z</time></trkpt><trkpt lat="44.91972068295092" lon="11.584741355321754"><ele>7.0</ele><time>2026-04-25T12:54:38.948Z</time></trkpt><trkpt lat="44.919526768513826" lon="11.584426685195615"><ele>6.5</ele><time>2026-04-25T12:54:39.948Z</time></trkpt><trkpt lat="44.91933014700616" lon="11.584118058103385"><ele>6.0</ele><time>2026-04-25T12:54:40.948Z</time></trkpt><trkpt lat="44.91913318166185" lon="11.583820685096075"><ele>7.5</ele><time>2026-04-25T12:54:41.948Z</time></trkpt><trkpt lat="44.91893811354184" lon="11.583526025526973"><ele>9.0</ele><time>2026-04-25T12:54:42.948Z</time></trkpt><trkpt lat="44.91873984402807" lon="11.583228400046735"><ele>9.0</ele><time>2026-04-25T12:54:43.948Z</time></trkpt><trkpt lat="44.91853455561923" lon="11.582933026564056"><ele>9.0</ele><time>2026-04-25T12:54:44.948Z</time></trkpt><trkpt lat="44.91832404851962" lon="11.58264389228878"><ele>8.5</ele><time>2026-04-25T12:54:45.948Z</time></trkpt><trkpt lat="44.918111583300686" lon="11.582360702073675"><ele>8.0</ele><time>2026-04-25T12:54:46.948Z</time></trkpt><trkpt lat="44.917897083623366" lon="11.582075302709354"><ele>8.0</ele><time>2026-04-25T12:54:47.948Z</time></trkpt><trkpt lat="44.91767920536361" lon="11.581792440595402"><ele>8.0</ele><time>2026-04-25T12:54:48.948Z</time></trkpt><trkpt lat="44.91746242574264" lon="11.58151492543179"><ele>8.0</ele><time>2026-04-25T12:54:49.948Z</time></trkpt><trkpt lat="44.91724844801453" lon="11.581234289841014"><ele>8.0</ele><time>2026-04-25T12:54:50.948Z</time></trkpt><trkpt lat="44.91703854284129" lon="11.580961578649369"><ele>6.5</ele><time>2026-04-25T12:54:51.948Z</time></trkpt><trkpt lat="44.91682930349018" lon="11.580688039445384"><ele>5.0</ele><time>2026-04-25T12:54:52.948Z</time></trkpt><trkpt lat="44.91662262175269" lon="11.580411189456372"><ele>3.5</ele><time>2026-04-25T12:54:53.948Z</time></trkpt><trkpt lat="44.9164131851973" lon="11.580140002806427"><ele>2.0</ele><time>2026-04-25T12:54:54.948Z</time></trkpt><trkpt lat="44.91620097487173" lon="11.579872312651203"><ele>2.0</ele><time>2026-04-25T12:54:55.948Z</time></trkpt><trkpt lat="44.91598171090168" lon="11.57959802617177"><ele>2.0</ele><time>2026-04-25T12:54:56.948Z</time></trkpt><trkpt lat="44.91577026503269" lon="11.579321420348906"><ele>2.0</ele><time>2026-04-25T12:54:57.948Z</time></trkpt><trkpt lat="44.915556771708026" lon="11.57904436941744"><ele>2.0</ele><time>2026-04-25T12:54:58.948Z</time></trkpt><trkpt lat="44.91534676306289" lon="11.578769898983854"><ele>2.5</ele><time>2026-04-25T12:54:59.948Z</time></trkpt><trkpt lat="44.915134434327065" lon="11.578499382769705"><ele>3.0</ele><time>2026-04-25T12:55:00.948Z</time></trkpt><trkpt lat="44.91491679862558" lon="11.578222050798816"><ele>8.0</ele><time>2026-04-25T12:55:01.948Z</time></trkpt><trkpt lat="44.91467813676388" lon="11.577939044459525"><ele>13.0</ele><time>2026-04-25T12:55:02.948Z</time></trkpt><trkpt lat="44.914427528151855" lon="11.577631965481592"><ele>13.0</ele><time>2026-04-25T12:55:03.948Z</time></trkpt><trkpt lat="44.914191643656494" lon="11.577318195173387"><ele>13.0</ele><time>2026-04-25T12:55:04.948Z</time></trkpt><trkpt lat="44.91396090323125" lon="11.57700575354302"><ele>13.0</ele><time>2026-04-25T12:55:05.948Z</time></trkpt><trkpt lat="44.91373906400269" lon="11.57669920768272"><ele>13.0</ele><time>2026-04-25T12:55:06.948Z</time></trkpt><trkpt lat="44.9135225228618" lon="11.576385253988823"><ele>12.0</ele><time>2026-04-25T12:55:07.948Z</time></trkpt><trkpt lat="44.9133029866855" lon="11.576098083868859"><ele>11.0</ele><time>2026-04-25T12:55:08.948Z</time></trkpt><trkpt lat="44.91308855696734" lon="11.575814583216841"><ele>11.0</ele><time>2026-04-25T12:55:09.948Z</time></trkpt><trkpt lat="44.912877025296574" lon="11.575541059047616"><ele>11.0</ele><time>2026-04-25T12:55:10.948Z</time></trkpt><trkpt lat="44.912662716981075" lon="11.57526922083563"><ele>10.0</ele><time>2026-04-25T12:55:11.948Z</time></trkpt><trkpt lat="44.91244708426931" lon="11.574994111577448"><ele>9.0</ele><time>2026-04-25T12:55:12.948Z</time></trkpt><trkpt lat="44.91222909827146" lon="11.57471559374214"><ele>8.5</ele><time>2026-04-25T12:55:13.948Z</time></trkpt><trkpt lat="44.912024230137924" lon="11.57443949703667"><ele>8.0</ele><time>2026-04-25T12:55:14.948Z</time></trkpt><trkpt lat="44.911812397427035" lon="11.574164709363552"><ele>8.5</ele><time>2026-04-25T12:55:15.948Z</time></trkpt><trkpt lat="44.91159515524155" lon="11.573899119350786"><ele>9.0</ele><time>2026-04-25T12:55:16.948Z</time></trkpt><trkpt lat="44.91138833107246" lon="11.573624435923561"><ele>7.5</ele><time>2026-04-25T12:55:17.948Z</time></trkpt><trkpt lat="44.9111757551039" lon="11.573345746896456"><ele>6.0</ele><time>2026-04-25T12:55:18.948Z</time></trkpt><trkpt lat="44.910960986193984" lon="11.57307028429918"><ele>5.5</ele><time>2026-04-25T12:55:19.948Z</time></trkpt><trkpt lat="44.91073645733579" lon="11.572803641885564"><ele>5.0</ele><time>2026-04-25T12:55:20.948Z</time></trkpt><trkpt lat="44.910501186639316" lon="11.572550914607485"><ele>5.0</ele><time>2026-04-25T12:55:21.948Z</time></trkpt><trkpt lat="44.91025630290796" lon="11.572312786407501"><ele>5.0</ele><time>2026-04-25T12:55:22.948Z</time></trkpt><trkpt lat="44.910008091196325" lon="11.5720819060831"><ele>5.0</ele><time>2026-04-25T12:55:23.948Z</time></trkpt><trkpt lat="44.90975474823792" lon="11.571862241095022"><ele>5.0</ele><time>2026-04-25T12:55:24.948Z</time></trkpt><trkpt lat="44.909495564291696" lon="11.57165626365032"><ele>5.5</ele><time>2026-04-25T12:55:25.947Z</time></trkpt><trkpt lat="44.909232878742166" lon="11.571453557155778"><ele>6.0</ele><time>2026-04-25T12:55:26.947Z</time></trkpt><trkpt lat="44.90896262283393" lon="11.571269160548715"><ele>6.0</ele><time>2026-04-25T12:55:27.947Z</time></trkpt><trkpt lat="44.90869565176459" lon="11.57110005241108"><ele>6.0</ele><time>2026-04-25T12:55:28.947Z</time></trkpt><trkpt lat="44.908429938539314" lon="11.570950317890619"><ele>6.0</ele><time>2026-04-25T12:55:29.947Z</time></trkpt><trkpt lat="44.90816301390076" lon="11.570813063097873"><ele>6.0</ele><time>2026-04-25T12:55:30.947Z</time></trkpt><trkpt lat="44.90788889713344" lon="11.570686327732377"><ele>6.0</ele><time>2026-04-25T12:55:31.947Z</time></trkpt><trkpt lat="44.90760981278396" lon="11.570567085915933"><ele>6.0</ele><time>2026-04-25T12:55:32.947Z</time></trkpt><trkpt lat="44.90733075144946" lon="11.570459866815503"><ele>6.0</ele><time>2026-04-25T12:55:33.947Z</time></trkpt><trkpt lat="44.907052829722225" lon="11.570365936053351"><ele>6.0</ele><time>2026-04-25T12:55:34.947Z</time></trkpt><trkpt lat="44.90676815872165" lon="11.570281620131563"><ele>5.0</ele><time>2026-04-25T12:55:35.947Z</time></trkpt><trkpt lat="44.906481084233754" lon="11.570207950867722"><ele>4.0</ele><time>2026-04-25T12:55:36.947Z</time></trkpt><trkpt lat="44.90619447136642" lon="11.570158340234306"><ele>5.0</ele><time>2026-04-25T12:55:37.947Z</time></trkpt><trkpt lat="44.90590882231004" lon="11.570124290870822"><ele>6.0</ele><time>2026-04-25T12:55:38.947Z</time></trkpt><trkpt lat="44.9056201507828" lon="11.570100857949942"><ele>6.0</ele><time>2026-04-25T12:55:39.947Z</time></trkpt><trkpt lat="44.90532822758375" lon="11.570096359352691"><ele>6.0</ele><time>2026-04-25T12:55:40.947Z</time></trkpt><trkpt lat="44.905042046263986" lon="11.570101987602083"><ele>6.0</ele><time>2026-04-25T12:55:41.947Z</time></trkpt><trkpt lat="44.90474425684428" lon="11.570103140796647"><ele>6.0</ele><time>2026-04-25T12:55:42.947Z</time></trkpt><trkpt lat="44.90444893500957" lon="11.570105750306892"><ele>5.5</ele><time>2026-04-25T12:55:43.947Z</time></trkpt><trkpt lat="44.90415057792134" lon="11.570113347359541"><ele>5.0</ele><time>2026-04-25T12:55:44.947Z</time></trkpt><trkpt lat="44.903853205528456" lon="11.57012122711425"><ele>5.0</ele><time>2026-04-25T12:55:45.947Z</time></trkpt><trkpt lat="44.903555985497235" lon="11.570122528633323"><ele>5.0</ele><time>2026-04-25T12:55:46.947Z</time></trkpt><trkpt lat="44.90325791992943" lon="11.570120442876023"><ele>4.5</ele><time>2026-04-25T12:55:47.947Z</time></trkpt><trkpt lat="44.90295451000998" lon="11.570119397221156"><ele>4.0</ele><time>2026-04-25T12:55:48.947Z</time></trkpt><trkpt lat="44.902656059344515" lon="11.570124510039014"><ele>4.5</ele><time>2026-04-25T12:55:49.947Z</time></trkpt><trkpt lat="44.902349755758486" lon="11.570117937328193"><ele>5.0</ele><time>2026-04-25T12:55:50.947Z</time></trkpt><trkpt lat="44.90205116241593" lon="11.570116769191944"><ele>5.0</ele><time>2026-04-25T12:55:51.947Z</time></trkpt><trkpt lat="44.90175707754795" lon="11.570111269173472"><ele>5.0</ele><time>2026-04-25T12:55:52.947Z</time></trkpt><trkpt lat="44.90146207305711" lon="11.570103414692893"><ele>4.5</ele><time>2026-04-25T12:55:53.947Z</time></trkpt><trkpt lat="44.901170254257146" lon="11.570101854191112"><ele>4.0</ele><time>2026-04-25T12:55:54.947Z</time></trkpt><trkpt lat="44.900879039316834" lon="11.570102847861738"><ele>5.5</ele><time>2026-04-25T12:55:55.947Z</time></trkpt><trkpt lat="44.90058723347607" lon="11.57010784734961"><ele>7.0</ele><time>2026-04-25T12:55:56.947Z</time></trkpt><trkpt lat="44.900289365225994" lon="11.570105883535835"><ele>6.0</ele><time>2026-04-25T12:55:57.947Z</time></trkpt><trkpt lat="44.899982894962626" lon="11.570101758867727"><ele>5.0</ele><time>2026-04-25T12:55:58.947Z</time></trkpt><trkpt lat="44.89968412698416" lon="11.570114930242188"><ele>5.0</ele><time>2026-04-25T12:55:59.947Z</time></trkpt><trkpt lat="44.89937964169771" lon="11.570111788286907"><ele>5.0</ele><time>2026-04-25T12:56:00.947Z</time></trkpt><trkpt lat="44.89907630146547" lon="11.570111744038744"><ele>5.5</ele><time>2026-04-25T12:56:01.947Z</time></trkpt><trkpt lat="44.89877372251589" lon="11.570112004158815"><ele>6.0</ele><time>2026-04-25T12:56:02.947Z</time></trkpt><trkpt lat="44.898470841526375" lon="11.570110993201018"><ele>5.0</ele><time>2026-04-25T12:56:03.947Z</time></trkpt><trkpt lat="44.89817299298747" lon="11.570109931172993"><ele>4.0</ele><time>2026-04-25T12:56:04.947Z</time></trkpt><trkpt lat="44.897872296099415" lon="11.57010794928199"><ele>4.5</ele><time>2026-04-25T12:56:05.947Z</time></trkpt><trkpt lat="44.897572988854286" lon="11.570108013697315"><ele>5.0</ele><time>2026-04-25T12:56:06.947Z</time></trkpt><trkpt lat="44.897271634694455" lon="11.570104200562254"><ele>5.0</ele><time>2026-04-25T12:56:07.947Z</time></trkpt><trkpt lat="44.896973747666316" lon="11.570101530168678"><ele>5.0</ele><time>2026-04-25T12:56:08.947Z</time></trkpt><trkpt lat="44.89667697920528" lon="11.570097582958143"><ele>4.5</ele><time>2026-04-25T12:56:09.947Z</time></trkpt><trkpt lat="44.89638290575128" lon="11.570081615743533"><ele>4.0</ele><time>2026-04-25T12:56:10.946Z</time></trkpt><trkpt lat="44.896092318580074" lon="11.570071018628612"><ele>4.5</ele><time>2026-04-25T12:56:11.946Z</time></trkpt><trkpt lat="44.895800836214285" lon="11.570066241078537"><ele>5.0</ele><time>2026-04-25T12:56:12.947Z</time></trkpt><trkpt lat="44.89551397728168" lon="11.570065280829688"><ele>5.0</ele><time>2026-04-25T12:56:13.946Z</time></trkpt><trkpt lat="44.89522645607659" lon="11.570060514232463"><ele>5.0</ele><time>2026-04-25T12:56:14.946Z</time></trkpt><trkpt lat="44.89493862957664" lon="11.570057288014027"><ele>5.0</ele><time>2026-04-25T12:56:15.947Z</time></trkpt><trkpt lat="44.8946503602642" lon="11.570057335089242"><ele>5.0</ele><time>2026-04-25T12:56:16.947Z</time></trkpt><trkpt lat="44.89436236074429" lon="11.570057365891717"><ele>5.5</ele><time>2026-04-25T12:56:17.947Z</time></trkpt><trkpt lat="44.89407367040697" lon="11.570057732998825"><ele>6.0</ele><time>2026-04-25T12:56:18.947Z</time></trkpt><trkpt lat="44.89379098897879" lon="11.570052996846902"><ele>6.0</ele><time>2026-04-25T12:56:19.947Z</time></trkpt><trkpt lat="44.89350173829761" lon="11.570051194847206"><ele>6.0</ele><time>2026-04-25T12:56:20.947Z</time></trkpt><trkpt lat="44.89321020720648" lon="11.570042852926225"><ele>4.5</ele><time>2026-04-25T12:56:21.947Z</time></trkpt><trkpt lat="44.89291602373117" lon="11.570037017468483"><ele>3.0</ele><time>2026-04-25T12:56:22.947Z</time></trkpt><trkpt lat="44.89262443876456" lon="11.57003915519496"><ele>4.0</ele><time>2026-04-25T12:56:23.947Z</time></trkpt><trkpt lat="44.8923302476446" lon="11.570041032981782"><ele>5.0</ele><time>2026-04-25T12:56:24.947Z</time></trkpt><trkpt lat="44.8920381630141" lon="11.570042564118097"><ele>4.0</ele><time>2026-04-25T12:56:25.947Z</time></trkpt><trkpt lat="44.89174436376587" lon="11.570041189587775"><ele>3.0</ele><time>2026-04-25T12:56:26.947Z</time></trkpt><trkpt lat="44.89144992562398" lon="11.570040100279842"><ele>3.0</ele><time>2026-04-25T12:56:27.947Z</time></trkpt><trkpt lat="44.891152509637216" lon="11.570042195155866"><ele>3.0</ele><time>2026-04-25T12:56:28.947Z</time></trkpt><trkpt lat="44.890856195911844" lon="11.570049189133897"><ele>4.0</ele><time>2026-04-25T12:56:29.947Z</time></trkpt><trkpt lat="44.89055973144183" lon="11.570053151912086"><ele>5.0</ele><time>2026-04-25T12:56:30.947Z</time></trkpt><trkpt lat="44.89026821120952" lon="11.570054683510676"><ele>5.5</ele><time>2026-04-25T12:56:31.947Z</time></trkpt><trkpt lat="44.8899763856487" lon="11.570055520511787"><ele>6.0</ele><time>2026-04-25T12:56:32.947Z</time></trkpt><trkpt lat="44.88968651364203" lon="11.570054102745022"><ele>6.0</ele><time>2026-04-25T12:56:33.947Z</time></trkpt><trkpt lat="44.88939081891963" lon="11.570040594023755"><ele>6.0</ele><time>2026-04-25T12:56:34.947Z</time></trkpt><trkpt lat="44.88909607061361" lon="11.570035248367633"><ele>6.0</ele><time>2026-04-25T12:56:35.947Z</time></trkpt><trkpt lat="44.88879506442985" lon="11.570038217071355"><ele>6.0</ele><time>2026-04-25T12:56:36.947Z</time></trkpt><trkpt lat="44.88849172280751" lon="11.570041038005005"><ele>5.0</ele><time>2026-04-25T12:56:37.947Z</time></trkpt><trkpt lat="44.88818880832" lon="11.570031323163983"><ele>4.0</ele><time>2026-04-25T12:56:38.947Z</time></trkpt><trkpt lat="44.887871601651696" lon="11.570014574484372"><ele>3.5</ele><time>2026-04-25T12:56:39.947Z</time></trkpt><trkpt lat="44.8875314803979" lon="11.56998459629751"><ele>3.0</ele><time>2026-04-25T12:56:40.947Z</time></trkpt><trkpt lat="44.88719684331618" lon="11.56996944407069"><ele>3.0</ele><time>2026-04-25T12:56:41.946Z</time></trkpt><trkpt lat="44.88686585321629" lon="11.569970632389762"><ele>3.0</ele><time>2026-04-25T12:56:42.946Z</time></trkpt><trkpt lat="44.88651778183547" lon="11.569985792176277"><ele>3.5</ele><time>2026-04-25T12:56:43.946Z</time></trkpt><trkpt lat="44.886164664878315" lon="11.569978581413034"><ele>4.0</ele><time>2026-04-25T12:56:44.946Z</time></trkpt><trkpt lat="44.88581998649154" lon="11.569984558612036"><ele>4.0</ele><time>2026-04-25T12:56:45.946Z</time></trkpt><trkpt lat="44.88548444902911" lon="11.570014246962677"><ele>4.0</ele><time>2026-04-25T12:56:46.946Z</time></trkpt><trkpt lat="44.8851632858446" lon="11.57005480156037"><ele>4.0</ele><time>2026-04-25T12:56:47.946Z</time></trkpt><trkpt lat="44.884851202253984" lon="11.570103872314004"><ele>4.0</ele><time>2026-04-25T12:56:48.946Z</time></trkpt><trkpt lat="44.8845486619033" lon="11.570149699714522"><ele>4.0</ele><time>2026-04-25T12:56:49.946Z</time></trkpt><trkpt lat="44.88424328725637" lon="11.57017965749404"><ele>4.0</ele><time>2026-04-25T12:56:50.946Z</time></trkpt><trkpt lat="44.8839467227693" lon="11.570178537858109"><ele>4.0</ele><time>2026-04-25T12:56:51.946Z</time></trkpt><trkpt lat="44.8836613925454" lon="11.570151037455693"><ele>4.0</ele><time>2026-04-25T12:56:52.946Z</time></trkpt><trkpt lat="44.883382104104726" lon="11.570105129184192"><ele>4.0</ele><time>2026-04-25T12:56:53.946Z</time></trkpt><trkpt lat="44.883110064989424" lon="11.570042823517824"><ele>4.0</ele><time>2026-04-25T12:56:54.946Z</time></trkpt><trkpt lat="44.882833727948395" lon="11.570021606219408"><ele>4.0</ele><time>2026-04-25T12:56:55.946Z</time></trkpt><trkpt lat="44.88255953586362" lon="11.57000210522254"><ele>4.0</ele><time>2026-04-25T12:56:56.946Z</time></trkpt><trkpt lat="44.882290242516376" lon="11.569986549895232"><ele>4.0</ele><time>2026-04-25T12:56:57.946Z</time></trkpt><trkpt lat="44.882033133976755" lon="11.569974545700186"><ele>4.0</ele><time>2026-04-25T12:56:58.946Z</time></trkpt><trkpt lat="44.88178949648539" lon="11.56996055998644"><ele>4.5</ele><time>2026-04-25T12:56:59.946Z</time></trkpt><trkpt lat="44.88155584759817" lon="11.569948647476227"><ele>5.0</ele><time>2026-04-25T12:57:00.946Z</time></trkpt><trkpt lat="44.88133927520586" lon="11.569929896238893"><ele>5.0</ele><time>2026-04-25T12:57:01.946Z</time></trkpt><trkpt lat="44.88113880843204" lon="11.569890557250073"><ele>5.0</ele><time>2026-04-25T12:57:02.946Z</time></trkpt><trkpt lat="44.88095248322907" lon="11.569828477035205"><ele>5.0</ele><time>2026-04-25T12:57:03.946Z</time></trkpt><trkpt lat="44.880769021960255" lon="11.569767065243942"><ele>4.5</ele><time>2026-04-25T12:57:04.946Z</time></trkpt><trkpt lat="44.88059020483966" lon="11.569733526911413"><ele>4.0</ele><time>2026-04-25T12:57:05.946Z</time></trkpt><trkpt lat="44.88043724104279" lon="11.569729586883573"><ele>3.5</ele><time>2026-04-25T12:57:06.946Z</time></trkpt><trkpt lat="44.88033357669321" lon="11.569686680755469"><ele>3.0</ele><time>2026-04-25T12:57:07.946Z</time></trkpt><trkpt lat="44.88024835243285" lon="11.569598357089607"><ele>3.0</ele><time>2026-04-25T12:57:08.946Z</time></trkpt><trkpt lat="44.88015969436589" lon="11.569496352214795"><ele>3.0</ele><time>2026-04-25T12:57:09.946Z</time></trkpt><trkpt lat="44.88007973200555" lon="11.569392953239396"><ele>3.0</ele><time>2026-04-25T12:57:10.946Z</time></trkpt><trkpt lat="44.87998911939365" lon="11.569311779967547"><ele>3.0</ele><time>2026-04-25T12:57:11.946Z</time></trkpt><trkpt lat="44.879895531460114" lon="11.569273785563098"><ele>3.0</ele><time>2026-04-25T12:57:12.946Z</time></trkpt><trkpt lat="44.87981945218443" lon="11.56928413170742"><ele>3.3333333333333335</ele><time>2026-04-25T12:57:13.946Z</time></trkpt><trkpt lat="44.879752365747244" lon="11.569292619452124"><ele>3.666666666666667</ele><time>2026-04-25T12:57:14.946Z</time></trkpt><trkpt lat="44.879687332916" lon="11.569297611894482"><ele>4.0</ele><time>2026-04-25T12:57:15.946Z</time></trkpt><trkpt lat="44.87960500120728" lon="11.569302044293613"><ele>4.333333333333334</ele><time>2026-04-25T12:57:17.946Z</time></trkpt><trkpt lat="44.879528098094355" lon="11.569295167251287"><ele>4.666666666666667</ele><time>2026-04-25T13:05:06.941Z</time></trkpt><trkpt lat="44.87947331323644" lon="11.569349973366224"><ele>5.0</ele><time>2026-04-25T13:05:08.941Z</time></trkpt><trkpt lat="44.87934030411833" lon="11.569355998246806"><ele>5.2</ele><time>2026-04-25T13:05:10.941Z</time></trkpt><trkpt lat="44.87923536640537" lon="11.569486392317538"><ele>5.4</ele><time>2026-04-25T13:05:12.941Z</time></trkpt><trkpt lat="44.879114140495474" lon="11.569489528293838"><ele>5.6</ele><time>2026-04-25T13:05:14.941Z</time></trkpt><trkpt lat="44.87904889215398" lon="11.569491325104666"><ele>5.8</ele><time>2026-04-25T13:05:15.941Z</time></trkpt><trkpt lat="44.87892750659616" lon="11.569495403964629"><ele>6.0</ele><time>2026-04-25T13:05:17.941Z</time></trkpt><trkpt lat="44.87881189356075" lon="11.569500078423028"><ele>6.0</ele><time>2026-04-25T13:05:19.941Z</time></trkpt><trkpt lat="44.87869343477623" lon="11.56950486794448"><ele>6.0</ele><time>2026-04-25T13:05:21.941Z</time></trkpt><trkpt lat="44.878629190696614" lon="11.56946189745185"><ele>6.0</ele><time>2026-04-25T13:05:22.941Z</time></trkpt><trkpt lat="44.87855615376008" lon="11.569522281426558"><ele>6.0</ele><time>2026-04-25T13:05:23.941Z</time></trkpt><trkpt lat="44.87846648742665" lon="11.56958128076128"><ele>6.0</ele><time>2026-04-25T13:05:24.941Z</time></trkpt><trkpt lat="44.878365101355776" lon="11.569636803504764"><ele>5.5</ele><time>2026-04-25T13:05:25.941Z</time></trkpt><trkpt lat="44.87825388624282" lon="11.569680160489293"><ele>5.0</ele><time>2026-04-25T13:05:26.941Z</time></trkpt><trkpt lat="44.8781262192752" lon="11.569722805709091"><ele>4.5</ele><time>2026-04-25T13:05:27.941Z</time></trkpt><trkpt lat="44.877984596251196" lon="11.569770483540422"><ele>4.0</ele><time>2026-04-25T13:05:28.941Z</time></trkpt><trkpt lat="44.877831718070404" lon="11.56981721234885"><ele>4.0</ele><time>2026-04-25T13:05:29.941Z</time></trkpt><trkpt lat="44.87767153266307" lon="11.569869872318911"><ele>4.0</ele><time>2026-04-25T13:05:30.941Z</time></trkpt><trkpt lat="44.877495886387194" lon="11.569904356931415"><ele>4.0</ele><time>2026-04-25T13:05:31.941Z</time></trkpt><trkpt lat="44.87731100385755" lon="11.569915766771047"><ele>3.333333333333333</ele><time>2026-04-25T13:05:32.941Z</time></trkpt><trkpt lat="44.87712324472014" lon="11.569912742513338"><ele>2.6666666666666665</ele><time>2026-04-25T13:05:33.941Z</time></trkpt><trkpt lat="44.87692170243436" lon="11.569910870216406"><ele>2.0</ele><time>2026-04-25T13:05:34.941Z</time></trkpt><trkpt lat="44.87671786870872" lon="11.569906929407233"><ele>2.0</ele><time>2026-04-25T13:05:35.94Z</time></trkpt><trkpt lat="44.87649827741362" lon="11.569907991455965"><ele>2.0</ele><time>2026-04-25T13:05:36.94Z</time></trkpt><trkpt lat="44.87627560865737" lon="11.56990877790951"><ele>2.0</ele><time>2026-04-25T13:05:37.94Z</time></trkpt><trkpt lat="44.87604640948598" lon="11.569911482038352"><ele>2.0</ele><time>2026-04-25T13:05:38.94Z</time></trkpt><trkpt lat="44.875813154559125" lon="11.56991594108663"><ele>2.0</ele><time>2026-04-25T13:05:39.94Z</time></trkpt><trkpt lat="44.87556920667112" lon="11.569916864958033"><ele>2.0</ele><time>2026-04-25T13:05:40.94Z</time></trkpt><trkpt lat="44.875326517972816" lon="11.569920386752077"><ele>2.0</ele><time>2026-04-25T13:05:41.94Z</time></trkpt><trkpt lat="44.87507701306313" lon="11.56993283372307"><ele>3.5</ele><time>2026-04-25T13:05:42.94Z</time></trkpt><trkpt lat="44.87482889058135" lon="11.569946655520159"><ele>5.0</ele><time>2026-04-25T13:05:43.94Z</time></trkpt><trkpt lat="44.87457858436953" lon="11.569948621466827"><ele>5.0</ele><time>2026-04-25T13:05:44.94Z</time></trkpt><trkpt lat="44.87431810352721" lon="11.569943079735374"><ele>5.0</ele><time>2026-04-25T13:05:45.94Z</time></trkpt><trkpt lat="44.874056633544676" lon="11.569949195579126"><ele>3.5</ele><time>2026-04-25T13:05:46.94Z</time></trkpt><trkpt lat="44.87379523823199" lon="11.569947734546426"><ele>2.0</ele><time>2026-04-25T13:05:47.94Z</time></trkpt><trkpt lat="44.87352995658292" lon="11.56994414433356"><ele>1.5</ele><time>2026-04-25T13:05:48.94Z</time></trkpt><trkpt lat="44.87326262721687" lon="11.569945665943667"><ele>1.0</ele><time>2026-04-25T13:05:49.94Z</time></trkpt><trkpt lat="44.87299239556206" lon="11.569948999612327"><ele>1.0</ele><time>2026-04-25T13:05:50.94Z</time></trkpt><trkpt lat="44.87272796233526" lon="11.569949557521344"><ele>1.0</ele><time>2026-04-25T13:05:51.94Z</time></trkpt><trkpt lat="44.872455308933155" lon="11.569939644005665"><ele>1.5</ele><time>2026-04-25T13:05:52.94Z</time></trkpt><trkpt lat="44.87218170147942" lon="11.569935632410004"><ele>2.0</ele><time>2026-04-25T13:05:53.94Z</time></trkpt><trkpt lat="44.871906517677154" lon="11.569933592398295"><ele>2.5</ele><time>2026-04-25T13:05:54.94Z</time></trkpt><trkpt lat="44.871628034686346" lon="11.569935622203047"><ele>3.0</ele><time>2026-04-25T13:05:55.94Z</time></trkpt><trkpt lat="44.87135007365856" lon="11.569932542416543"><ele>3.0</ele><time>2026-04-25T13:05:56.94Z</time></trkpt><trkpt lat="44.87107362357335" lon="11.569931895817469"><ele>3.0</ele><time>2026-04-25T13:05:57.94Z</time></trkpt><trkpt lat="44.87079955247347" lon="11.569927631612204"><ele>3.5</ele><time>2026-04-25T13:05:58.94Z</time></trkpt><trkpt lat="44.87051829825316" lon="11.569929949179203"><ele>4.0</ele><time>2026-04-25T13:05:59.94Z</time></trkpt><trkpt lat="44.87024036896819" lon="11.569932728813086"><ele>5.0</ele><time>2026-04-25T13:06:00.94Z</time></trkpt><trkpt lat="44.86996136153365" lon="11.569937864213253"><ele>6.0</ele><time>2026-04-25T13:06:01.94Z</time></trkpt><trkpt lat="44.869679548666056" lon="11.569935404601043"><ele>6.0</ele><time>2026-04-25T13:06:02.94Z</time></trkpt><trkpt lat="44.86939781007638" lon="11.569931003455126"><ele>6.0</ele><time>2026-04-25T13:06:03.94Z</time></trkpt><trkpt lat="44.86911596841073" lon="11.569929332444962"><ele>6.0</ele><time>2026-04-25T13:06:04.94Z</time></trkpt><trkpt lat="44.86883393956909" lon="11.569929475394744"><ele>6.0</ele><time>2026-04-25T13:06:05.94Z</time></trkpt><trkpt lat="44.86855190554798" lon="11.569929559573069"><ele>5.0</ele><time>2026-04-25T13:06:06.94Z</time></trkpt><trkpt lat="44.868267147161006" lon="11.569928301565936"><ele>4.0</ele><time>2026-04-25T13:06:07.94Z</time></trkpt><trkpt lat="44.8679826293881" lon="11.569931081656183"><ele>4.0</ele><time>2026-04-25T13:06:08.94Z</time></trkpt><trkpt lat="44.867699230719616" lon="11.569931991549534"><ele>4.0</ele><time>2026-04-25T13:06:09.94Z</time></trkpt><trkpt lat="44.867415665891315" lon="11.569931047030714"><ele>3.5</ele><time>2026-04-25T13:06:10.94Z</time></trkpt><trkpt lat="44.86713305465548" lon="11.569929635075134"><ele>3.0</ele><time>2026-04-25T13:06:11.94Z</time></trkpt><trkpt lat="44.86685097355816" lon="11.56992422213195"><ele>1.5</ele><time>2026-04-25T13:06:12.94Z</time></trkpt><trkpt lat="44.86656500465365" lon="11.569926824058607"><ele>0.0</ele><time>2026-04-25T13:06:13.94Z</time></trkpt><trkpt lat="44.86628329857513" lon="11.569926170645106"><ele>0.0</ele><time>2026-04-25T13:06:14.94Z</time></trkpt><trkpt lat="44.86600099618534" lon="11.569927386354303"><ele>0.0</ele><time>2026-04-25T13:06:15.94Z</time></trkpt><trkpt lat="44.86571683951408" lon="11.569927854880977"><ele>3.0</ele><time>2026-04-25T13:06:16.94Z</time></trkpt><trkpt lat="44.86543193272728" lon="11.569920433585741"><ele>6.0</ele><time>2026-04-25T13:06:17.94Z</time></trkpt><trkpt lat="44.86514658331155" lon="11.569916958752351"><ele>6.0</ele><time>2026-04-25T13:06:18.94Z</time></trkpt><trkpt lat="44.864862042439015" lon="11.569911607009626"><ele>6.0</ele><time>2026-04-25T13:06:19.94Z</time></trkpt><trkpt lat="44.86457890020428" lon="11.569913703622102"><ele>6.0</ele><time>2026-04-25T13:06:20.94Z</time></trkpt><trkpt lat="44.864295072253405" lon="11.569917118782877"><ele>6.0</ele><time>2026-04-25T13:06:21.94Z</time></trkpt><trkpt lat="44.864008148100986" lon="11.569918231654169"><ele>5.5</ele><time>2026-04-25T13:06:22.94Z</time></trkpt><trkpt lat="44.86372411879371" lon="11.569916112370331"><ele>5.0</ele><time>2026-04-25T13:06:23.94Z</time></trkpt><trkpt lat="44.86344100646716" lon="11.569917745228466"><ele>5.0</ele><time>2026-04-25T13:06:24.94Z</time></trkpt><trkpt lat="44.86315597907349" lon="11.56991556849596"><ele>5.0</ele><time>2026-04-25T13:06:25.94Z</time></trkpt><trkpt lat="44.8628712080628" lon="11.569910901082157"><ele>5.0</ele><time>2026-04-25T13:06:26.94Z</time></trkpt><trkpt lat="44.86258778082154" lon="11.569909923759226"><ele>5.0</ele><time>2026-04-25T13:06:27.94Z</time></trkpt><trkpt lat="44.86230142567975" lon="11.5699127162892"><ele>5.0</ele><time>2026-04-25T13:06:28.94Z</time></trkpt><trkpt lat="44.862015575409195" lon="11.569913635700614"><ele>5.0</ele><time>2026-04-25T13:06:29.939Z</time></trkpt><trkpt lat="44.861731518873555" lon="11.569908964334733"><ele>4.5</ele><time>2026-04-25T13:06:30.939Z</time></trkpt><trkpt lat="44.86144797897086" lon="11.569907521877196"><ele>4.0</ele><time>2026-04-25T13:06:31.939Z</time></trkpt><trkpt lat="44.8611640601487" lon="11.569906408882305"><ele>5.0</ele><time>2026-04-25T13:06:32.939Z</time></trkpt><trkpt lat="44.860883360821354" lon="11.569906667120117"><ele>6.0</ele><time>2026-04-25T13:06:33.939Z</time></trkpt><trkpt lat="44.86060065271694" lon="11.569904943614263"><ele>6.0</ele><time>2026-04-25T13:06:34.939Z</time></trkpt><trkpt lat="44.8603253070996" lon="11.569902258908082"><ele>6.0</ele><time>2026-04-25T13:06:35.939Z</time></trkpt><trkpt lat="44.860050238822474" lon="11.569898676720543"><ele>5.5</ele><time>2026-04-25T13:06:36.939Z</time></trkpt><trkpt lat="44.85977281878213" lon="11.569882143170846"><ele>5.0</ele><time>2026-04-25T13:06:37.939Z</time></trkpt><trkpt lat="44.859495146939366" lon="11.569854936258466"><ele>6.0</ele><time>2026-04-25T13:06:38.939Z</time></trkpt><trkpt lat="44.859215136087755" lon="11.569820483649908"><ele>7.0</ele><time>2026-04-25T13:06:39.94Z</time></trkpt><trkpt lat="44.858935493105555" lon="11.569781727552536"><ele>7.0</ele><time>2026-04-25T13:06:40.939Z</time></trkpt><trkpt lat="44.85865410909214" lon="11.56973650231842"><ele>7.0</ele><time>2026-04-25T13:06:41.939Z</time></trkpt><trkpt lat="44.8583719781921" lon="11.56968514533605"><ele>4.5</ele><time>2026-04-25T13:06:42.939Z</time></trkpt><trkpt lat="44.85808821082609" lon="11.569627360473461"><ele>2.0</ele><time>2026-04-25T13:06:43.939Z</time></trkpt><trkpt lat="44.857801714622624" lon="11.569560583548705"><ele>1.5</ele><time>2026-04-25T13:06:44.939Z</time></trkpt><trkpt lat="44.85751516836026" lon="11.569489271889783"><ele>1.0</ele><time>2026-04-25T13:06:45.94Z</time></trkpt><trkpt lat="44.857232796775115" lon="11.569407889442193"><ele>1.0</ele><time>2026-04-25T13:06:46.94Z</time></trkpt><trkpt lat="44.85695307702359" lon="11.569320367456971"><ele>1.0</ele><time>2026-04-25T13:06:47.94Z</time></trkpt><trkpt lat="44.85667940501192" lon="11.569227684110592"><ele>0.5</ele><time>2026-04-25T13:06:48.94Z</time></trkpt><trkpt lat="44.85641086511031" lon="11.569133675281318"><ele>0.0</ele><time>2026-04-25T13:06:49.939Z</time></trkpt><trkpt lat="44.85614803686472" lon="11.569038853587159"><ele>0.5</ele><time>2026-04-25T13:06:50.939Z</time></trkpt><trkpt lat="44.855888031950066" lon="11.568945479047454"><ele>1.0</ele><time>2026-04-25T13:06:51.939Z</time></trkpt><trkpt lat="44.85563486380686" lon="11.568858803113244"><ele>1.0</ele><time>2026-04-25T13:06:52.939Z</time></trkpt><trkpt lat="44.85538815976782" lon="11.568773794375948"><ele>1.0</ele><time>2026-04-25T13:06:53.939Z</time></trkpt><trkpt lat="44.85514854058435" lon="11.568690224796004"><ele>3.5</ele><time>2026-04-25T13:06:54.939Z</time></trkpt><trkpt lat="44.854908640655836" lon="11.5686042990986"><ele>6.0</ele><time>2026-04-25T13:06:55.939Z</time></trkpt><trkpt lat="44.85466481490411" lon="11.56851877042211"><ele>6.0</ele><time>2026-04-25T13:06:56.939Z</time></trkpt><trkpt lat="44.85442036801687" lon="11.568435007732377"><ele>6.0</ele><time>2026-04-25T13:06:57.939Z</time></trkpt><trkpt lat="44.85417592186938" lon="11.56834591526758"><ele>6.0</ele><time>2026-04-25T13:06:58.939Z</time></trkpt><trkpt lat="44.85393341745101" lon="11.568259548214709"><ele>6.0</ele><time>2026-04-25T13:06:59.939Z</time></trkpt><trkpt lat="44.85369023787529" lon="11.56817431489812"><ele>4.5</ele><time>2026-04-25T13:07:00.939Z</time></trkpt><trkpt lat="44.8534471397205" lon="11.568086898562674"><ele>3.0</ele><time>2026-04-25T13:07:01.939Z</time></trkpt><trkpt lat="44.85319789179513" lon="11.567997741140658"><ele>3.0</ele><time>2026-04-25T13:07:02.939Z</time></trkpt><trkpt lat="44.852946033147795" lon="11.56790741190117"><ele>3.0</ele><time>2026-04-25T13:07:03.939Z</time></trkpt><trkpt lat="44.85268907234512" lon="11.567814312212471"><ele>3.5</ele><time>2026-04-25T13:07:04.939Z</time></trkpt><trkpt lat="44.85242850395474" lon="11.56772483155344"><ele>4.0</ele><time>2026-04-25T13:07:05.939Z</time></trkpt><trkpt lat="44.85216292229255" lon="11.567634619397438"><ele>4.0</ele><time>2026-04-25T13:07:06.939Z</time></trkpt><trkpt lat="44.85189445948052" lon="11.56754113294041"><ele>4.0</ele><time>2026-04-25T13:07:07.939Z</time></trkpt><trkpt lat="44.85162160585493" lon="11.567444690157549"><ele>5.5</ele><time>2026-04-25T13:07:08.939Z</time></trkpt><trkpt lat="44.85134865403747" lon="11.567351267528721"><ele>7.0</ele><time>2026-04-25T13:07:09.939Z</time></trkpt><trkpt lat="44.851068065638586" lon="11.567251511442741"><ele>8.5</ele><time>2026-04-25T13:07:10.939Z</time></trkpt><trkpt lat="44.85078685450569" lon="11.56715268043052"><ele>10.0</ele><time>2026-04-25T13:07:11.939Z</time></trkpt><trkpt lat="44.85050213619793" lon="11.567054827364467"><ele>9.0</ele><time>2026-04-25T13:07:12.939Z</time></trkpt><trkpt lat="44.850216119026726" lon="11.566951319399081"><ele>8.0</ele><time>2026-04-25T13:07:13.939Z</time></trkpt><trkpt lat="44.849929350048306" lon="11.566849378306172"><ele>7.0</ele><time>2026-04-25T13:07:14.939Z</time></trkpt><trkpt lat="44.84963983612527" lon="11.566746915496422"><ele>6.0</ele><time>2026-04-25T13:07:15.939Z</time></trkpt><trkpt lat="44.84934958217317" lon="11.566646775588243"><ele>7.5</ele><time>2026-04-25T13:07:16.939Z</time></trkpt><trkpt lat="44.84906171989049" lon="11.566541952510796"><ele>9.0</ele><time>2026-04-25T13:07:17.939Z</time></trkpt><trkpt lat="44.84876944344845" lon="11.566449994267257"><ele>9.0</ele><time>2026-04-25T13:07:18.939Z</time></trkpt><trkpt lat="44.84848055507561" lon="11.566349611878666"><ele>9.0</ele><time>2026-04-25T13:07:19.939Z</time></trkpt><trkpt lat="44.848191280455566" lon="11.566248726858225"><ele>9.0</ele><time>2026-04-25T13:07:20.939Z</time></trkpt><trkpt lat="44.84790906977127" lon="11.566147525913864"><ele>9.0</ele><time>2026-04-25T13:07:21.939Z</time></trkpt><trkpt lat="44.84762269771137" lon="11.566047370438737"><ele>9.0</ele><time>2026-04-25T13:07:22.939Z</time></trkpt><trkpt lat="44.84734146731864" lon="11.565947071995188"><ele>9.0</ele><time>2026-04-25T13:07:23.939Z</time></trkpt><trkpt lat="44.84706161963812" lon="11.565844753543086"><ele>9.0</ele><time>2026-04-25T13:07:24.938Z</time></trkpt><trkpt lat="44.84677734503276" lon="11.565745153664981"><ele>9.0</ele><time>2026-04-25T13:07:25.938Z</time></trkpt><trkpt lat="44.846491544796024" lon="11.56564502346549"><ele>9.0</ele><time>2026-04-25T13:07:26.938Z</time></trkpt><trkpt lat="44.84620510395344" lon="11.565544365542078"><ele>9.0</ele><time>2026-04-25T13:07:27.938Z</time></trkpt><trkpt lat="44.845917082925936" lon="11.565442861260848"><ele>9.5</ele><time>2026-04-25T13:07:28.938Z</time></trkpt><trkpt lat="44.84563109744981" lon="11.565346005991394"><ele>10.0</ele><time>2026-04-25T13:07:29.938Z</time></trkpt><trkpt lat="44.84534752965254" lon="11.56524822047187"><ele>10.0</ele><time>2026-04-25T13:07:30.938Z</time></trkpt><trkpt lat="44.845062527471846" lon="11.565144295918433"><ele>10.0</ele><time>2026-04-25T13:07:31.938Z</time></trkpt><trkpt lat="44.84478019812438" lon="11.565043637311401"><ele>10.0</ele><time>2026-04-25T13:07:32.938Z</time></trkpt><trkpt lat="44.844496727088384" lon="11.564945205294448"><ele>10.0</ele><time>2026-04-25T13:07:33.938Z</time></trkpt><trkpt lat="44.844214421082704" lon="11.56485096070806"><ele>9.5</ele><time>2026-04-25T13:07:34.938Z</time></trkpt><trkpt lat="44.84393448365572" lon="11.564758498373955"><ele>9.0</ele><time>2026-04-25T13:07:35.938Z</time></trkpt><trkpt lat="44.84365054220284" lon="11.564658538649885"><ele>9.5</ele><time>2026-04-25T13:07:36.938Z</time></trkpt><trkpt lat="44.84336778047689" lon="11.56455767361455"><ele>10.0</ele><time>2026-04-25T13:07:37.938Z</time></trkpt><trkpt lat="44.84308481460888" lon="11.564457631850415"><ele>10.0</ele><time>2026-04-25T13:07:38.938Z</time></trkpt><trkpt lat="44.84280263557814" lon="11.56436748355578"><ele>10.0</ele><time>2026-04-25T13:07:39.938Z</time></trkpt><trkpt lat="44.842524215955216" lon="11.564281810491012"><ele>10.5</ele><time>2026-04-25T13:07:40.938Z</time></trkpt><trkpt lat="44.842239845835344" lon="11.564189183932477"><ele>11.0</ele><time>2026-04-25T13:07:41.938Z</time></trkpt><trkpt lat="44.84195761555629" lon="11.5640871122504"><ele>11.0</ele><time>2026-04-25T13:07:42.938Z</time></trkpt><trkpt lat="44.84166944870757" lon="11.56398156045191"><ele>11.0</ele><time>2026-04-25T13:07:43.938Z</time></trkpt><trkpt lat="44.841386338765375" lon="11.56388277267079"><ele>11.0</ele><time>2026-04-25T13:07:44.938Z</time></trkpt><trkpt lat="44.841103186022764" lon="11.56378782529871"><ele>11.0</ele><time>2026-04-25T13:07:45.938Z</time></trkpt><trkpt lat="44.84081884662948" lon="11.563688690143657"><ele>10.5</ele><time>2026-04-25T13:07:46.938Z</time></trkpt><trkpt lat="44.8405322955077" lon="11.563589303027495"><ele>10.0</ele><time>2026-04-25T13:07:47.938Z</time></trkpt><trkpt lat="44.84024352299753" lon="11.563489259208707"><ele>10.0</ele><time>2026-04-25T13:07:48.938Z</time></trkpt><trkpt lat="44.839958851495176" lon="11.563389391095122"><ele>10.0</ele><time>2026-04-25T13:07:49.938Z</time></trkpt><trkpt lat="44.83967498359562" lon="11.563290024830836"><ele>10.0</ele><time>2026-04-25T13:07:50.938Z</time></trkpt><trkpt lat="44.839394390937365" lon="11.563189401212808"><ele>10.0</ele><time>2026-04-25T13:07:51.938Z</time></trkpt><trkpt lat="44.839115399111066" lon="11.563088319661908"><ele>10.0</ele><time>2026-04-25T13:07:52.938Z</time></trkpt><trkpt lat="44.83883502576353" lon="11.562988018794938"><ele>10.0</ele><time>2026-04-25T13:07:53.938Z</time></trkpt><trkpt lat="44.83855204971998" lon="11.562886972738204"><ele>9.0</ele><time>2026-04-25T13:07:54.938Z</time></trkpt><trkpt lat="44.83827068018326" lon="11.562790113031031"><ele>8.0</ele><time>2026-04-25T13:07:55.938Z</time></trkpt><trkpt lat="44.837989476439766" lon="11.562687843519853"><ele>8.0</ele><time>2026-04-25T13:07:56.938Z</time></trkpt><trkpt lat="44.837710825621805" lon="11.56258884730544"><ele>8.0</ele><time>2026-04-25T13:07:57.938Z</time></trkpt><trkpt lat="44.83743333774284" lon="11.562497811886361"><ele>8.0</ele><time>2026-04-25T13:07:58.938Z</time></trkpt><trkpt lat="44.83715990637709" lon="11.562405753148571"><ele>8.0</ele><time>2026-04-25T13:07:59.938Z</time></trkpt><trkpt lat="44.83687678431478" lon="11.562306731242044"><ele>8.5</ele><time>2026-04-25T13:08:00.938Z</time></trkpt><trkpt lat="44.83660332331367" lon="11.562207953042702"><ele>9.0</ele><time>2026-04-25T13:08:01.938Z</time></trkpt><trkpt lat="44.836332887044264" lon="11.562109796617563"><ele>9.0</ele><time>2026-04-25T13:08:02.938Z</time></trkpt><trkpt lat="44.83606226987454" lon="11.56200936857556"><ele>9.0</ele><time>2026-04-25T13:08:03.938Z</time></trkpt><trkpt lat="44.83579323535356" lon="11.561912099959141"><ele>8.5</ele><time>2026-04-25T13:08:04.938Z</time></trkpt><trkpt lat="44.83551672853828" lon="11.561814825071112"><ele>8.0</ele><time>2026-04-25T13:08:05.938Z</time></trkpt><trkpt lat="44.835241440604335" lon="11.561721209345395"><ele>8.5</ele><time>2026-04-25T13:08:06.938Z</time></trkpt><trkpt lat="44.834962103628044" lon="11.56162286887514"><ele>9.0</ele><time>2026-04-25T13:08:07.938Z</time></trkpt><trkpt lat="44.83468553143263" lon="11.561523492591318"><ele>9.0</ele><time>2026-04-25T13:08:08.938Z</time></trkpt><trkpt lat="44.83440869577102" lon="11.56142637623101"><ele>9.0</ele><time>2026-04-25T13:08:09.938Z</time></trkpt><trkpt lat="44.83413150759771" lon="11.561330060071745"><ele>9.5</ele><time>2026-04-25T13:08:10.938Z</time></trkpt><trkpt lat="44.83385175614522" lon="11.56123449447195"><ele>10.0</ele><time>2026-04-25T13:08:11.938Z</time></trkpt><trkpt lat="44.83357533722991" lon="11.561135662043068"><ele>10.0</ele><time>2026-04-25T13:08:12.938Z</time></trkpt><trkpt lat="44.833294106734954" lon="11.561031939436436"><ele>10.0</ele><time>2026-04-25T13:08:13.938Z</time></trkpt><trkpt lat="44.83301746074904" lon="11.560933953962529"><ele>10.0</ele><time>2026-04-25T13:08:14.938Z</time></trkpt><trkpt lat="44.83273751642243" lon="11.560839523093913"><ele>10.0</ele><time>2026-04-25T13:08:15.938Z</time></trkpt><trkpt lat="44.832457325330665" lon="11.560742297316846"><ele>10.5</ele><time>2026-04-25T13:08:16.938Z</time></trkpt><trkpt lat="44.83218007531533" lon="11.560642580120899"><ele>11.0</ele><time>2026-04-25T13:08:17.938Z</time></trkpt><trkpt lat="44.83190223507995" lon="11.560538283280598"><ele>11.0</ele><time>2026-04-25T13:08:18.938Z</time></trkpt><trkpt lat="44.83162396464983" lon="11.560432672464652"><ele>11.0</ele><time>2026-04-25T13:08:19.938Z</time></trkpt><trkpt lat="44.83134521740998" lon="11.560326706662567"><ele>11.0</ele><time>2026-04-25T13:08:20.938Z</time></trkpt><trkpt lat="44.83106489700395" lon="11.560222453491805"><ele>11.0</ele><time>2026-04-25T13:08:21.938Z</time></trkpt><trkpt lat="44.83078591522617" lon="11.560125745352224"><ele>10.0</ele><time>2026-04-25T13:08:22.937Z</time></trkpt><trkpt lat="44.83050776487558" lon="11.560025526209241"><ele>9.0</ele><time>2026-04-25T13:08:23.937Z</time></trkpt><trkpt lat="44.830230812022585" lon="11.559917660480108"><ele>9.0</ele><time>2026-04-25T13:08:24.937Z</time></trkpt><trkpt lat="44.82995155602389" lon="11.559816219753975"><ele>9.0</ele><time>2026-04-25T13:08:25.937Z</time></trkpt><trkpt lat="44.82967250128716" lon="11.55971938155283"><ele>9.0</ele><time>2026-04-25T13:08:26.937Z</time></trkpt><trkpt lat="44.829395334704714" lon="11.559621828539177"><ele>9.0</ele><time>2026-04-25T13:08:27.937Z</time></trkpt><trkpt lat="44.82911998634072" lon="11.559524914171217"><ele>9.0</ele><time>2026-04-25T13:08:28.937Z</time></trkpt><trkpt lat="44.82884495309693" lon="11.559425618780358"><ele>9.0</ele><time>2026-04-25T13:08:29.937Z</time></trkpt><trkpt lat="44.82856477766958" lon="11.559327733801792"><ele>9.0</ele><time>2026-04-25T13:08:30.937Z</time></trkpt><trkpt lat="44.828282042421606" lon="11.559229459379173"><ele>9.0</ele><time>2026-04-25T13:08:31.937Z</time></trkpt><trkpt lat="44.82799831579692" lon="11.559128672174493"><ele>9.0</ele><time>2026-04-25T13:08:32.937Z</time></trkpt><trkpt lat="44.82770997827175" lon="11.559025070983433"><ele>9.0</ele><time>2026-04-25T13:08:33.937Z</time></trkpt><trkpt lat="44.82741993695298" lon="11.558918949552163"><ele>8.5</ele><time>2026-04-25T13:08:34.937Z</time></trkpt><trkpt lat="44.827130307314164" lon="11.558818619937195"><ele>8.0</ele><time>2026-04-25T13:08:35.937Z</time></trkpt><trkpt lat="44.82684280081435" lon="11.558717890878274"><ele>8.5</ele><time>2026-04-25T13:08:36.937Z</time></trkpt><trkpt lat="44.82655451131724" lon="11.558614891887286"><ele>9.0</ele><time>2026-04-25T13:08:37.937Z</time></trkpt><trkpt lat="44.82626520479455" lon="11.558511341594466"><ele>8.5</ele><time>2026-04-25T13:08:38.937Z</time></trkpt><trkpt lat="44.825977181833686" lon="11.558409592194852"><ele>8.0</ele><time>2026-04-25T13:08:39.937Z</time></trkpt><trkpt lat="44.825690600908" lon="11.558309911696584"><ele>8.0</ele><time>2026-04-25T13:08:40.937Z</time></trkpt><trkpt lat="44.82540347536373" lon="11.558212426902683"><ele>8.0</ele><time>2026-04-25T13:08:41.937Z</time></trkpt><trkpt lat="44.82511614394343" lon="11.558111609726316"><ele>8.5</ele><time>2026-04-25T13:08:42.937Z</time></trkpt><trkpt lat="44.82482870328664" lon="11.558012694874117"><ele>9.0</ele><time>2026-04-25T13:08:43.937Z</time></trkpt><trkpt lat="44.82453755954369" lon="11.557908589520586"><ele>9.0</ele><time>2026-04-25T13:08:44.937Z</time></trkpt><trkpt lat="44.824253316339" lon="11.557812117545387"><ele>9.0</ele><time>2026-04-25T13:08:45.937Z</time></trkpt><trkpt lat="44.823965991807476" lon="11.557712133793551"><ele>9.0</ele><time>2026-04-25T13:08:46.937Z</time></trkpt><trkpt lat="44.82368698781851" lon="11.557608930810817"><ele>9.0</ele><time>2026-04-25T13:08:47.937Z</time></trkpt><trkpt lat="44.823409691315966" lon="11.557510234856831"><ele>9.5</ele><time>2026-04-25T13:08:48.937Z</time></trkpt><trkpt lat="44.82313094183785" lon="11.557415818636345"><ele>10.0</ele><time>2026-04-25T13:08:49.936Z</time></trkpt><trkpt lat="44.82285220662628" lon="11.557318100276865"><ele>10.0</ele><time>2026-04-25T13:08:50.936Z</time></trkpt><trkpt lat="44.82256966941394" lon="11.557218774616944"><ele>10.0</ele><time>2026-04-25T13:08:51.936Z</time></trkpt><trkpt lat="44.82229095726854" lon="11.557120973423155"><ele>10.0</ele><time>2026-04-25T13:08:52.936Z</time></trkpt><trkpt lat="44.822011173440764" lon="11.55702075127836"><ele>10.0</ele><time>2026-04-25T13:08:53.936Z</time></trkpt><trkpt lat="44.821729997675604" lon="11.556921099119986"><ele>10.0</ele><time>2026-04-25T13:08:54.936Z</time></trkpt><trkpt lat="44.821449090042336" lon="11.556821238917104"><ele>10.0</ele><time>2026-04-25T13:08:55.936Z</time></trkpt><trkpt lat="44.82117219074418" lon="11.556724219564552"><ele>11.0</ele><time>2026-04-25T13:08:56.936Z</time></trkpt><trkpt lat="44.82089242824515" lon="11.556625096572276"><ele>12.0</ele><time>2026-04-25T13:08:57.937Z</time></trkpt><trkpt lat="44.82060555651295" lon="11.556522394928528"><ele>12.0</ele><time>2026-04-25T13:08:58.936Z</time></trkpt><trkpt lat="44.82031931648085" lon="11.556424495314083"><ele>12.0</ele><time>2026-04-25T13:08:59.936Z</time></trkpt><trkpt lat="44.820017708996666" lon="11.556314390798818"><ele>11.5</ele><time>2026-04-25T13:09:00.936Z</time></trkpt><trkpt lat="44.81973711024651" lon="11.556222127368477"><ele>11.0</ele><time>2026-04-25T13:09:01.936Z</time></trkpt><trkpt lat="44.81945266678721" lon="11.55611948183105"><ele>11.0</ele><time>2026-04-25T13:09:02.936Z</time></trkpt><trkpt lat="44.81916713577745" lon="11.556020168652072"><ele>11.0</ele><time>2026-04-25T13:09:03.936Z</time></trkpt><trkpt lat="44.81887983263568" lon="11.555922032646553"><ele>11.0</ele><time>2026-04-25T13:09:04.936Z</time></trkpt><trkpt lat="44.818591131317824" lon="11.555824987585087"><ele>11.0</ele><time>2026-04-25T13:09:05.936Z</time></trkpt><trkpt lat="44.818303003503225" lon="11.555729250844305"><ele>11.5</ele><time>2026-04-25T13:09:06.936Z</time></trkpt><trkpt lat="44.818014004832904" lon="11.555632515808936"><ele>12.0</ele><time>2026-04-25T13:09:07.936Z</time></trkpt><trkpt lat="44.817724425383055" lon="11.5555450900365"><ele>12.0</ele><time>2026-04-25T13:09:08.936Z</time></trkpt><trkpt lat="44.81743270339048" lon="11.55545380469409"><ele>12.0</ele><time>2026-04-25T13:09:09.936Z</time></trkpt><trkpt lat="44.81714568191826" lon="11.555362005067416"><ele>12.0</ele><time>2026-04-25T13:09:10.936Z</time></trkpt><trkpt lat="44.816857196711446" lon="11.555273598694615"><ele>12.0</ele><time>2026-04-25T13:09:11.936Z</time></trkpt><trkpt lat="44.816565902090495" lon="11.555189716084632"><ele>13.0</ele><time>2026-04-25T13:09:12.936Z</time></trkpt><trkpt lat="44.816275118078885" lon="11.555117208160837"><ele>14.0</ele><time>2026-04-25T13:09:13.936Z</time></trkpt><trkpt lat="44.815985541069864" lon="11.555046599523937"><ele>12.0</ele><time>2026-04-25T13:09:14.936Z</time></trkpt><trkpt lat="44.815697986653234" lon="11.554978857520467"><ele>10.0</ele><time>2026-04-25T13:09:15.936Z</time></trkpt><trkpt lat="44.81540870731777" lon="11.55491644493138"><ele>11.0</ele><time>2026-04-25T13:09:16.936Z</time></trkpt><trkpt lat="44.815114910708886" lon="11.554858405314615"><ele>12.0</ele><time>2026-04-25T13:09:17.936Z</time></trkpt><trkpt lat="44.8148227128758" lon="11.554804319614522"><ele>12.0</ele><time>2026-04-25T13:09:18.936Z</time></trkpt><trkpt lat="44.81452573681855" lon="11.554762437325325"><ele>12.0</ele><time>2026-04-25T13:09:19.936Z</time></trkpt><trkpt lat="44.814230194346365" lon="11.55472553503698"><ele>12.5</ele><time>2026-04-25T13:09:20.936Z</time></trkpt><trkpt lat="44.813933140865515" lon="11.55468825495127"><ele>13.0</ele><time>2026-04-25T13:09:21.936Z</time></trkpt><trkpt lat="44.813637745181126" lon="11.554653321138648"><ele>11.5</ele><time>2026-04-25T13:09:22.936Z</time></trkpt><trkpt lat="44.81334251515681" lon="11.554609082358601"><ele>10.0</ele><time>2026-04-25T13:09:23.936Z</time></trkpt><trkpt lat="44.813044176472715" lon="11.554566609153948"><ele>10.0</ele><time>2026-04-25T13:09:24.936Z</time></trkpt><trkpt lat="44.81274491400075" lon="11.55452432838341"><ele>10.0</ele><time>2026-04-25T13:09:25.936Z</time></trkpt><trkpt lat="44.81244438717551" lon="11.554488045007846"><ele>10.0</ele><time>2026-04-25T13:09:26.936Z</time></trkpt><trkpt lat="44.812141414594485" lon="11.554451212670257"><ele>10.0</ele><time>2026-04-25T13:09:27.936Z</time></trkpt><trkpt lat="44.811841148404376" lon="11.554418354745321"><ele>10.0</ele><time>2026-04-25T13:09:28.935Z</time></trkpt><trkpt lat="44.811539964224494" lon="11.554386012027743"><ele>10.0</ele><time>2026-04-25T13:09:29.935Z</time></trkpt><trkpt lat="44.8112404888401" lon="11.554354020355333"><ele>10.0</ele><time>2026-04-25T13:09:30.935Z</time></trkpt><trkpt lat="44.81093911346088" lon="11.554326871107104"><ele>10.0</ele><time>2026-04-25T13:09:31.935Z</time></trkpt><trkpt lat="44.81063991805152" lon="11.554302516112102"><ele>10.0</ele><time>2026-04-25T13:09:32.935Z</time></trkpt><trkpt lat="44.81034449310322" lon="11.554273351217239"><ele>10.0</ele><time>2026-04-25T13:09:33.935Z</time></trkpt><trkpt lat="44.81004215187475" lon="11.554245326205766"><ele>9.5</ele><time>2026-04-25T13:09:34.935Z</time></trkpt><trkpt lat="44.80973922950906" lon="11.554217068355928"><ele>9.0</ele><time>2026-04-25T13:09:35.935Z</time></trkpt><trkpt lat="44.809436857912694" lon="11.55418720398074"><ele>10.0</ele><time>2026-04-25T13:09:36.935Z</time></trkpt><trkpt lat="44.80913282786676" lon="11.554153595978361"><ele>11.0</ele><time>2026-04-25T13:09:37.935Z</time></trkpt><trkpt lat="44.808828934656546" lon="11.554120215052361"><ele>11.0</ele><time>2026-04-25T13:09:38.935Z</time></trkpt><trkpt lat="44.80852584061189" lon="11.554091173499485"><ele>11.0</ele><time>2026-04-25T13:09:39.935Z</time></trkpt><trkpt lat="44.808219011133126" lon="11.554063242161446"><ele>11.5</ele><time>2026-04-25T13:09:40.935Z</time></trkpt><trkpt lat="44.807912491533706" lon="11.554036023369928"><ele>12.0</ele><time>2026-04-25T13:09:41.935Z</time></trkpt><trkpt lat="44.80760495663079" lon="11.55400580978793"><ele>12.0</ele><time>2026-04-25T13:09:42.935Z</time></trkpt><trkpt lat="44.8072984780454" lon="11.553973861714447"><ele>12.0</ele><time>2026-04-25T13:09:43.935Z</time></trkpt><trkpt lat="44.80699308286676" lon="11.55394546247583"><ele>13.0</ele><time>2026-04-25T13:09:44.935Z</time></trkpt><trkpt lat="44.806687094475514" lon="11.553919120337264"><ele>14.0</ele><time>2026-04-25T13:09:45.935Z</time></trkpt><trkpt lat="44.80637651033208" lon="11.553891730530026"><ele>14.0</ele><time>2026-04-25T13:09:46.935Z</time></trkpt><trkpt lat="44.80607407285038" lon="11.553864365755025"><ele>14.0</ele><time>2026-04-25T13:09:47.935Z</time></trkpt><trkpt lat="44.80576954526601" lon="11.553833182026244"><ele>13.0</ele><time>2026-04-25T13:09:48.935Z</time></trkpt><trkpt lat="44.80546314747134" lon="11.553804049486745"><ele>12.0</ele><time>2026-04-25T13:09:49.935Z</time></trkpt><trkpt lat="44.80515950517484" lon="11.553774125802015"><ele>12.0</ele><time>2026-04-25T13:09:50.935Z</time></trkpt><trkpt lat="44.804855836045384" lon="11.553745361166328"><ele>12.0</ele><time>2026-04-25T13:09:51.935Z</time></trkpt><trkpt lat="44.80455514615209" lon="11.55371542107325"><ele>11.5</ele><time>2026-04-25T13:09:52.935Z</time></trkpt><trkpt lat="44.8042540683309" lon="11.553681963527374"><ele>11.0</ele><time>2026-04-25T13:09:53.935Z</time></trkpt><trkpt lat="44.80395544321907" lon="11.553652118439587"><ele>11.0</ele><time>2026-04-25T13:09:54.935Z</time></trkpt><trkpt lat="44.80365747245846" lon="11.553624040082486"><ele>11.0</ele><time>2026-04-25T13:09:55.935Z</time></trkpt><trkpt lat="44.80335830405273" lon="11.553599173608012"><ele>11.0</ele><time>2026-04-25T13:09:56.935Z</time></trkpt><trkpt lat="44.80306023582857" lon="11.553570035137415"><ele>11.0</ele><time>2026-04-25T13:09:57.935Z</time></trkpt><trkpt lat="44.802762963270624" lon="11.553541626791525"><ele>10.5</ele><time>2026-04-25T13:09:58.935Z</time></trkpt><trkpt lat="44.80246853525286" lon="11.553511232147942"><ele>10.0</ele><time>2026-04-25T13:09:59.935Z</time></trkpt><trkpt lat="44.802173482081365" lon="11.553481820718744"><ele>10.0</ele><time>2026-04-25T13:10:00.935Z</time></trkpt><trkpt lat="44.801879194871866" lon="11.553449940870998"><ele>10.0</ele><time>2026-04-25T13:10:01.935Z</time></trkpt><trkpt lat="44.80158495027491" lon="11.553418636596474"><ele>10.0</ele><time>2026-04-25T13:10:02.935Z</time></trkpt><trkpt lat="44.801291434698555" lon="11.553387316195895"><ele>10.0</ele><time>2026-04-25T13:10:03.935Z</time></trkpt><trkpt lat="44.8009962712827" lon="11.553357428433292"><ele>11.0</ele><time>2026-04-25T13:10:04.935Z</time></trkpt><trkpt lat="44.800699420175015" lon="11.553327940974157"><ele>12.0</ele><time>2026-04-25T13:10:05.935Z</time></trkpt><trkpt lat="44.80039777638709" lon="11.553297836295643"><ele>12.0</ele><time>2026-04-25T13:10:06.935Z</time></trkpt><trkpt lat="44.800099274888076" lon="11.553269531656797"><ele>12.0</ele><time>2026-04-25T13:10:07.935Z</time></trkpt><trkpt lat="44.79979590102479" lon="11.553243575003034"><ele>12.0</ele><time>2026-04-25T13:10:08.935Z</time></trkpt><trkpt lat="44.7994916552598" lon="11.553213645520012"><ele>12.0</ele><time>2026-04-25T13:10:09.935Z</time></trkpt><trkpt lat="44.799187426423984" lon="11.553183940852763"><ele>11.5</ele><time>2026-04-25T13:10:10.935Z</time></trkpt><trkpt lat="44.79888163103799" lon="11.553155551111823"><ele>11.0</ele><time>2026-04-25T13:10:11.935Z</time></trkpt><trkpt lat="44.798573917075345" lon="11.553124316661442"><ele>11.0</ele><time>2026-04-25T13:10:12.935Z</time></trkpt><trkpt lat="44.79826832987292" lon="11.553096385652768"><ele>11.0</ele><time>2026-04-25T13:10:13.935Z</time></trkpt><trkpt lat="44.7979589201361" lon="11.553063028837785"><ele>11.0</ele><time>2026-04-25T13:10:14.935Z</time></trkpt><trkpt lat="44.7976485983507" lon="11.553037362739895"><ele>11.0</ele><time>2026-04-25T13:10:15.935Z</time></trkpt><trkpt lat="44.79733891739108" lon="11.553003400902245"><ele>11.0</ele><time>2026-04-25T13:10:16.935Z</time></trkpt><trkpt lat="44.797027628918656" lon="11.552962610202597"><ele>11.0</ele><time>2026-04-25T13:10:17.935Z</time></trkpt><trkpt lat="44.79671220090539" lon="11.552943858163811"><ele>10.5</ele><time>2026-04-25T13:10:18.935Z</time></trkpt><trkpt lat="44.796397900068555" lon="11.552916347237485"><ele>10.0</ele><time>2026-04-25T13:10:19.935Z</time></trkpt><trkpt lat="44.796085630303885" lon="11.552886790206124"><ele>10.5</ele><time>2026-04-25T13:10:20.935Z</time></trkpt><trkpt lat="44.79577343001406" lon="11.552852621966665"><ele>11.0</ele><time>2026-04-25T13:10:21.935Z</time></trkpt><trkpt lat="44.79545865616233" lon="11.552823292574502"><ele>10.0</ele><time>2026-04-25T13:10:22.935Z</time></trkpt><trkpt lat="44.7951470618484" lon="11.552793129315724"><ele>9.0</ele><time>2026-04-25T13:10:23.935Z</time></trkpt><trkpt lat="44.79483918797589" lon="11.552765393944084"><ele>9.0</ele><time>2026-04-25T13:10:24.935Z</time></trkpt><trkpt lat="44.79452845287162" lon="11.552734735554166"><ele>9.0</ele><time>2026-04-25T13:10:25.934Z</time></trkpt><trkpt lat="44.79422079584859" lon="11.552707621264043"><ele>10.5</ele><time>2026-04-25T13:10:26.934Z</time></trkpt><trkpt lat="44.793908189203684" lon="11.552677333589168"><ele>12.0</ele><time>2026-04-25T13:10:27.934Z</time></trkpt><trkpt lat="44.79359699815328" lon="11.5526534390528"><ele>10.0</ele><time>2026-04-25T13:10:28.934Z</time></trkpt><trkpt lat="44.793299319762774" lon="11.552626621989447"><ele>8.0</ele><time>2026-04-25T13:10:29.934Z</time></trkpt><trkpt lat="44.79300231653224" lon="11.552591790981634"><ele>8.0</ele><time>2026-04-25T13:10:30.934Z</time></trkpt><trkpt lat="44.79270578977651" lon="11.552557019232548"><ele>8.0</ele><time>2026-04-25T13:10:31.934Z</time></trkpt><trkpt lat="44.792404249680764" lon="11.552524261746116"><ele>8.0</ele><time>2026-04-25T13:10:32.934Z</time></trkpt><trkpt lat="44.7921031856667" lon="11.55249048105475"><ele>8.0</ele><time>2026-04-25T13:10:33.934Z</time></trkpt><trkpt lat="44.79179965868609" lon="11.552462171814945"><ele>9.0</ele><time>2026-04-25T13:10:34.934Z</time></trkpt><trkpt lat="44.7914975671021" lon="11.552432829219395"><ele>10.0</ele><time>2026-04-25T13:10:35.934Z</time></trkpt><trkpt lat="44.791195794442494" lon="11.552404951131411"><ele>10.0</ele><time>2026-04-25T13:10:36.934Z</time></trkpt><trkpt lat="44.79089324911307" lon="11.552375143347623"><ele>10.0</ele><time>2026-04-25T13:10:37.934Z</time></trkpt><trkpt lat="44.79058681505432" lon="11.552343309708283"><ele>10.0</ele><time>2026-04-25T13:10:38.934Z</time></trkpt><trkpt lat="44.79027728061477" lon="11.552320981857944"><ele>10.0</ele><time>2026-04-25T13:10:39.934Z</time></trkpt><trkpt lat="44.78996862809614" lon="11.552295588513072"><ele>9.0</ele><time>2026-04-25T13:10:40.934Z</time></trkpt><trkpt lat="44.789655700571224" lon="11.552263104582462"><ele>8.0</ele><time>2026-04-25T13:10:41.934Z</time></trkpt><trkpt lat="44.78934490857493" lon="11.552232764846421"><ele>8.0</ele><time>2026-04-25T13:10:42.934Z</time></trkpt><trkpt lat="44.78903562146089" lon="11.552203506615873"><ele>8.0</ele><time>2026-04-25T13:10:43.934Z</time></trkpt><trkpt lat="44.788727504099874" lon="11.55217547662409"><ele>8.5</ele><time>2026-04-25T13:10:44.934Z</time></trkpt><trkpt lat="44.78841627716593" lon="11.552145964016866"><ele>9.0</ele><time>2026-04-25T13:10:45.934Z</time></trkpt><trkpt lat="44.788104031129706" lon="11.55211372879391"><ele>9.0</ele><time>2026-04-25T13:10:46.934Z</time></trkpt><trkpt lat="44.787793533819475" lon="11.552081686313521"><ele>9.0</ele><time>2026-04-25T13:10:47.934Z</time></trkpt><trkpt lat="44.787482964861766" lon="11.552057647660966"><ele>8.5</ele><time>2026-04-25T13:10:48.934Z</time></trkpt><trkpt lat="44.7871727795755" lon="11.552021666265961"><ele>8.0</ele><time>2026-04-25T13:10:49.934Z</time></trkpt><trkpt lat="44.78686053993013" lon="11.551986259334544"><ele>7.5</ele><time>2026-04-25T13:10:50.934Z</time></trkpt><trkpt lat="44.78654666621638" lon="11.55194739316298"><ele>7.0</ele><time>2026-04-25T13:10:51.934Z</time></trkpt><trkpt lat="44.78623428492596" lon="11.551900476380707"><ele>7.5</ele><time>2026-04-25T13:10:52.934Z</time></trkpt><trkpt lat="44.78592261296365" lon="11.551839171791801"><ele>8.0</ele><time>2026-04-25T13:10:53.934Z</time></trkpt><trkpt lat="44.785615019365736" lon="11.551767607287553"><ele>8.0</ele><time>2026-04-25T13:10:54.934Z</time></trkpt><trkpt lat="44.78530547799336" lon="11.551683677998684"><ele>8.0</ele><time>2026-04-25T13:10:55.934Z</time></trkpt><trkpt lat="44.78499783254925" lon="11.551590055935714"><ele>8.0</ele><time>2026-04-25T13:10:56.934Z</time></trkpt><trkpt lat="44.78468900680325" lon="11.551484982959623"><ele>8.0</ele><time>2026-04-25T13:10:57.934Z</time></trkpt><trkpt lat="44.78438367411192" lon="11.55136591447558"><ele>7.5</ele><time>2026-04-25T13:10:58.933Z</time></trkpt><trkpt lat="44.78408097559031" lon="11.551232282729206"><ele>7.0</ele><time>2026-04-25T13:10:59.933Z</time></trkpt><trkpt lat="44.78378064965556" lon="11.551083171418679"><ele>7.0</ele><time>2026-04-25T13:11:00.934Z</time></trkpt><trkpt lat="44.78348895044352" lon="11.550921130722939"><ele>7.0</ele><time>2026-04-25T13:11:01.933Z</time></trkpt><trkpt lat="44.78320119776414" lon="11.550747482755948"><ele>7.0</ele><time>2026-04-25T13:11:02.933Z</time></trkpt><trkpt lat="44.78292017116433" lon="11.550567561913072"><ele>7.0</ele><time>2026-04-25T13:11:03.934Z</time></trkpt><trkpt lat="44.78264291182665" lon="11.550379177923936"><ele>6.5</ele><time>2026-04-25T13:11:04.934Z</time></trkpt><trkpt lat="44.78236480275145" lon="11.550195475025319"><ele>6.0</ele><time>2026-04-25T13:11:05.934Z</time></trkpt><trkpt lat="44.78208385769541" lon="11.550012146062404"><ele>6.5</ele><time>2026-04-25T13:11:06.934Z</time></trkpt><trkpt lat="44.78180656970757" lon="11.549829102879192"><ele>7.0</ele><time>2026-04-25T13:11:07.934Z</time></trkpt><trkpt lat="44.78152994395454" lon="11.549641696802315"><ele>7.0</ele><time>2026-04-25T13:11:08.934Z</time></trkpt><trkpt lat="44.78125343262872" lon="11.549453144490085"><ele>7.0</ele><time>2026-04-25T13:11:09.934Z</time></trkpt><trkpt lat="44.78097885803181" lon="11.549268677843777"><ele>7.5</ele><time>2026-04-25T13:11:10.934Z</time></trkpt><trkpt lat="44.78070583631389" lon="11.549089038663753"><ele>8.0</ele><time>2026-04-25T13:11:11.934Z</time></trkpt><trkpt lat="44.78043224215837" lon="11.548913151494958"><ele>8.0</ele><time>2026-04-25T13:11:12.934Z</time></trkpt><trkpt lat="44.78016111887627" lon="11.548734583713603"><ele>8.0</ele><time>2026-04-25T13:11:13.934Z</time></trkpt><trkpt lat="44.77988839270985" lon="11.548552857842402"><ele>8.0</ele><time>2026-04-25T13:11:14.934Z</time></trkpt><trkpt lat="44.779616888289254" lon="11.54837041937949"><ele>8.0</ele><time>2026-04-25T13:11:15.934Z</time></trkpt><trkpt lat="44.779338023380625" lon="11.548191548786365"><ele>8.0</ele><time>2026-04-25T13:11:16.934Z</time></trkpt><trkpt lat="44.779042977020275" lon="11.547999443890813"><ele>8.0</ele><time>2026-04-25T13:11:17.934Z</time></trkpt><trkpt lat="44.77873219824824" lon="11.54780109176963"><ele>7.5</ele><time>2026-04-25T13:11:18.934Z</time></trkpt><trkpt lat="44.77843015595496" lon="11.547605648104406"><ele>7.0</ele><time>2026-04-25T13:11:19.934Z</time></trkpt><trkpt lat="44.77813001564483" lon="11.547413914885473"><ele>7.0</ele><time>2026-04-25T13:11:20.934Z</time></trkpt><trkpt lat="44.77783928547584" lon="11.547213366052828"><ele>7.0</ele><time>2026-04-25T13:11:21.934Z</time></trkpt><trkpt lat="44.77755001658675" lon="11.547022177594098"><ele>8.5</ele><time>2026-04-25T13:11:22.933Z</time></trkpt><trkpt lat="44.777258343401996" lon="11.546835453102396"><ele>10.0</ele><time>2026-04-25T13:11:23.933Z</time></trkpt><trkpt lat="44.77697363736826" lon="11.54664516915717"><ele>8.5</ele><time>2026-04-25T13:11:24.933Z</time></trkpt><trkpt lat="44.77669518821304" lon="11.546454852976117"><ele>7.0</ele><time>2026-04-25T13:11:25.933Z</time></trkpt><trkpt lat="44.776417173956595" lon="11.546267503692356"><ele>6.5</ele><time>2026-04-25T13:11:26.933Z</time></trkpt><trkpt lat="44.776138238789635" lon="11.54608445777711"><ele>6.0</ele><time>2026-04-25T13:11:27.933Z</time></trkpt><trkpt lat="44.77585516683161" lon="11.545911433843116"><ele>6.0</ele><time>2026-04-25T13:11:28.933Z</time></trkpt><trkpt lat="44.775576744612295" lon="11.545736249251833"><ele>6.0</ele><time>2026-04-25T13:11:29.933Z</time></trkpt><trkpt lat="44.77529966366022" lon="11.545559372879623"><ele>6.0</ele><time>2026-04-25T13:11:30.933Z</time></trkpt><trkpt lat="44.775024467434974" lon="11.545375443244595"><ele>6.0</ele><time>2026-04-25T13:11:31.933Z</time></trkpt><trkpt lat="44.7747509679787" lon="11.54519517774644"><ele>6.0</ele><time>2026-04-25T13:11:32.933Z</time></trkpt><trkpt lat="44.77447512267671" lon="11.545015432978873"><ele>6.0</ele><time>2026-04-25T13:11:33.933Z</time></trkpt><trkpt lat="44.774200988752106" lon="11.544835629158953"><ele>6.0</ele><time>2026-04-25T13:11:34.933Z</time></trkpt><trkpt lat="44.773926958403514" lon="11.544660082358542"><ele>6.0</ele><time>2026-04-25T13:11:35.933Z</time></trkpt><trkpt lat="44.77365302060908" lon="11.544484712775704"><ele>6.5</ele><time>2026-04-25T13:11:36.933Z</time></trkpt><trkpt lat="44.77337911541421" lon="11.544309169580982"><ele>7.0</ele><time>2026-04-25T13:11:37.933Z</time></trkpt><trkpt lat="44.773108400218774" lon="11.54413810402944"><ele>7.0</ele><time>2026-04-25T13:11:38.933Z</time></trkpt><trkpt lat="44.77283466907123" lon="11.543962116318317"><ele>7.0</ele><time>2026-04-25T13:11:39.933Z</time></trkpt><trkpt lat="44.77256348687139" lon="11.54377964339449"><ele>7.0</ele><time>2026-04-25T13:11:40.933Z</time></trkpt><trkpt lat="44.77229236619128" lon="11.543596799057614"><ele>7.0</ele><time>2026-04-25T13:11:41.933Z</time></trkpt><trkpt lat="44.77202144877521" lon="11.543419449996756"><ele>6.5</ele><time>2026-04-25T13:11:42.933Z</time></trkpt><trkpt lat="44.77175054745308" lon="11.543242690378335"><ele>6.0</ele><time>2026-04-25T13:11:43.933Z</time></trkpt><trkpt lat="44.77147644892143" lon="11.543066049878028"><ele>6.0</ele><time>2026-04-25T13:11:44.933Z</time></trkpt><trkpt lat="44.771202507014976" lon="11.542887698031269"><ele>6.0</ele><time>2026-04-25T13:11:45.933Z</time></trkpt><trkpt lat="44.770928463611874" lon="11.542711401865049"><ele>6.0</ele><time>2026-04-25T13:11:46.933Z</time></trkpt><trkpt lat="44.770651665440425" lon="11.542537036301967"><ele>6.0</ele><time>2026-04-25T13:11:47.933Z</time></trkpt><trkpt lat="44.77037886027851" lon="11.542353318824278"><ele>6.0</ele><time>2026-04-25T13:11:48.933Z</time></trkpt><trkpt lat="44.77010651895085" lon="11.542176991761353"><ele>6.0</ele><time>2026-04-25T13:11:49.933Z</time></trkpt><trkpt lat="44.769835746970195" lon="11.541998364200884"><ele>6.0</ele><time>2026-04-25T13:11:50.933Z</time></trkpt><trkpt lat="44.769565803499816" lon="11.54181971427882"><ele>6.0</ele><time>2026-04-25T13:11:51.933Z</time></trkpt><trkpt lat="44.76929614063034" lon="11.541636908289286"><ele>5.5</ele><time>2026-04-25T13:11:52.933Z</time></trkpt><trkpt lat="44.76902783603015" lon="11.541448815860996"><ele>5.0</ele><time>2026-04-25T13:11:53.933Z</time></trkpt><trkpt lat="44.76875617774212" lon="11.541261477030275"><ele>4.0</ele><time>2026-04-25T13:11:54.933Z</time></trkpt><trkpt lat="44.76848582586026" lon="11.54108220677279"><ele>3.0</ele><time>2026-04-25T13:11:55.933Z</time></trkpt><trkpt lat="44.768213474137504" lon="11.540909041668764"><ele>3.0</ele><time>2026-04-25T13:11:56.933Z</time></trkpt><trkpt lat="44.76794211561856" lon="11.54073471125"><ele>3.0</ele><time>2026-04-25T13:11:57.933Z</time></trkpt><trkpt lat="44.767673667351765" lon="11.540556424208997"><ele>4.5</ele><time>2026-04-25T13:11:58.933Z</time></trkpt><trkpt lat="44.76740182232902" lon="11.54037754414578"><ele>6.0</ele><time>2026-04-25T13:11:59.933Z</time></trkpt><trkpt lat="44.76712993179998" lon="11.540204573375544"><ele>5.0</ele><time>2026-04-25T13:12:00.933Z</time></trkpt><trkpt lat="44.766854822721264" lon="11.540030050230255"><ele>4.0</ele><time>2026-04-25T13:12:01.933Z</time></trkpt><trkpt lat="44.766580659543536" lon="11.539853220482396"><ele>4.0</ele><time>2026-04-25T13:12:02.933Z</time></trkpt><trkpt lat="44.766304677870345" lon="11.539670244901275"><ele>4.0</ele><time>2026-04-25T13:12:03.933Z</time></trkpt><trkpt lat="44.76602503022042" lon="11.539490954072532"><ele>4.5</ele><time>2026-04-25T13:12:04.933Z</time></trkpt><trkpt lat="44.76575026584837" lon="11.539305644695355"><ele>5.0</ele><time>2026-04-25T13:12:05.933Z</time></trkpt><trkpt lat="44.76547113634713" lon="11.539121034559688"><ele>5.0</ele><time>2026-04-25T13:12:06.933Z</time></trkpt><trkpt lat="44.76519169349153" lon="11.538941385270894"><ele>5.0</ele><time>2026-04-25T13:12:07.933Z</time></trkpt><trkpt lat="44.76491546147504" lon="11.538760550992748"><ele>4.5</ele><time>2026-04-25T13:12:08.933Z</time></trkpt><trkpt lat="44.76464407756508" lon="11.538581612886178"><ele>4.0</ele><time>2026-04-25T13:12:09.933Z</time></trkpt><trkpt lat="44.76436629398929" lon="11.538398413383883"><ele>4.5</ele><time>2026-04-25T13:12:10.933Z</time></trkpt><trkpt lat="44.76409019345302" lon="11.538218401724777"><ele>5.0</ele><time>2026-04-25T13:12:11.933Z</time></trkpt><trkpt lat="44.76381400084439" lon="11.538036191229063"><ele>4.5</ele><time>2026-04-25T13:12:12.933Z</time></trkpt><trkpt lat="44.76354090700101" lon="11.537857795125301"><ele>4.0</ele><time>2026-04-25T13:12:13.933Z</time></trkpt><trkpt lat="44.763263931833734" lon="11.537682714281047"><ele>4.0</ele><time>2026-04-25T13:12:14.933Z</time></trkpt><trkpt lat="44.76298999495604" lon="11.537498972807272"><ele>4.0</ele><time>2026-04-25T13:12:15.933Z</time></trkpt><trkpt lat="44.76271120097868" lon="11.537322229478955"><ele>4.0</ele><time>2026-04-25T13:12:16.933Z</time></trkpt><trkpt lat="44.76243767327371" lon="11.537136804624517"><ele>4.0</ele><time>2026-04-25T13:12:17.932Z</time></trkpt><trkpt lat="44.76216371030987" lon="11.536953668839313"><ele>4.0</ele><time>2026-04-25T13:12:18.932Z</time></trkpt><trkpt lat="44.761888823365695" lon="11.536782059651623"><ele>4.0</ele><time>2026-04-25T13:12:19.932Z</time></trkpt><trkpt lat="44.76161288615873" lon="11.53660735748802"><ele>4.0</ele><time>2026-04-25T13:12:20.932Z</time></trkpt><trkpt lat="44.76134120117309" lon="11.536430175037415"><ele>4.0</ele><time>2026-04-25T13:12:21.932Z</time></trkpt><trkpt lat="44.76107023745287" lon="11.53625178256086"><ele>3.5</ele><time>2026-04-25T13:12:22.932Z</time></trkpt><trkpt lat="44.760799920270834" lon="11.536073478012716"><ele>3.0</ele><time>2026-04-25T13:12:23.932Z</time></trkpt><trkpt lat="44.76052812077093" lon="11.535895402295413"><ele>3.0</ele><time>2026-04-25T13:12:24.932Z</time></trkpt><trkpt lat="44.76026057915585" lon="11.535727794182106"><ele>3.0</ele><time>2026-04-25T13:12:25.932Z</time></trkpt><trkpt lat="44.76000089173606" lon="11.535555220944515"><ele>4.0</ele><time>2026-04-25T13:12:26.932Z</time></trkpt><trkpt lat="44.75974083551511" lon="11.535383580655452"><ele>5.0</ele><time>2026-04-25T13:12:27.932Z</time></trkpt><trkpt lat="44.7594772656864" lon="11.535211088009767"><ele>5.5</ele><time>2026-04-25T13:12:28.932Z</time></trkpt><trkpt lat="44.759211347551584" lon="11.535037733686899"><ele>6.0</ele><time>2026-04-25T13:12:29.932Z</time></trkpt><trkpt lat="44.75895011748639" lon="11.534864182509585"><ele>6.0</ele><time>2026-04-25T13:12:30.932Z</time></trkpt><trkpt lat="44.758678668878225" lon="11.53468708051314"><ele>6.0</ele><time>2026-04-25T13:12:31.932Z</time></trkpt><trkpt lat="44.758409157502705" lon="11.534513567540131"><ele>5.5</ele><time>2026-04-25T13:12:32.932Z</time></trkpt><trkpt lat="44.758140015158105" lon="11.53433786857776"><ele>5.0</ele><time>2026-04-25T13:12:33.932Z</time></trkpt><trkpt lat="44.75786989584204" lon="11.534158425715866"><ele>4.5</ele><time>2026-04-25T13:12:34.932Z</time></trkpt><trkpt lat="44.75759866713445" lon="11.533986450217213"><ele>4.0</ele><time>2026-04-25T13:12:35.932Z</time></trkpt><trkpt lat="44.75732961410336" lon="11.533806493671369"><ele>4.0</ele><time>2026-04-25T13:12:36.932Z</time></trkpt><trkpt lat="44.75705767993063" lon="11.533629458655367"><ele>4.0</ele><time>2026-04-25T13:12:37.932Z</time></trkpt><trkpt lat="44.7567842562087" lon="11.533449166565873"><ele>4.5</ele><time>2026-04-25T13:12:38.932Z</time></trkpt><trkpt lat="44.7565097285505" lon="11.53327078464572"><ele>5.0</ele><time>2026-04-25T13:12:39.932Z</time></trkpt><trkpt lat="44.75623401719474" lon="11.53309124838891"><ele>6.0</ele><time>2026-04-25T13:12:40.932Z</time></trkpt><trkpt lat="44.75595811304654" lon="11.532911010119909"><ele>7.0</ele><time>2026-04-25T13:12:41.932Z</time></trkpt><trkpt lat="44.755682075400166" lon="11.53272731263295"><ele>6.5</ele><time>2026-04-25T13:12:42.932Z</time></trkpt><trkpt lat="44.75540808058024" lon="11.532547220959787"><ele>6.0</ele><time>2026-04-25T13:12:43.932Z</time></trkpt><trkpt lat="44.75513080267356" lon="11.532363622784642"><ele>6.0</ele><time>2026-04-25T13:12:44.932Z</time></trkpt><trkpt lat="44.754856828452944" lon="11.532188253169783"><ele>6.0</ele><time>2026-04-25T13:12:45.932Z</time></trkpt><trkpt lat="44.754586372903525" lon="11.532015896230275"><ele>6.0</ele><time>2026-04-25T13:12:46.932Z</time></trkpt><trkpt lat="44.75431565889909" lon="11.531839762880129"><ele>6.0</ele><time>2026-04-25T13:12:47.932Z</time></trkpt><trkpt lat="44.75404457938641" lon="11.531663410261217"><ele>6.0</ele><time>2026-04-25T13:12:48.932Z</time></trkpt><trkpt lat="44.75377030213782" lon="11.531488936724601"><ele>6.0</ele><time>2026-04-25T13:12:49.932Z</time></trkpt><trkpt lat="44.75349769279368" lon="11.531310938482887"><ele>6.0</ele><time>2026-04-25T13:12:50.932Z</time></trkpt><trkpt lat="44.75322812355124" lon="11.531132573136345"><ele>6.0</ele><time>2026-04-25T13:12:51.932Z</time></trkpt><trkpt lat="44.75295455587746" lon="11.530950925357088"><ele>7.0</ele><time>2026-04-25T13:12:52.932Z</time></trkpt><trkpt lat="44.75268631212472" lon="11.530783239847628"><ele>8.0</ele><time>2026-04-25T13:12:53.932Z</time></trkpt><trkpt lat="44.752414414207045" lon="11.530599118502899"><ele>8.0</ele><time>2026-04-25T13:12:54.932Z</time></trkpt><trkpt lat="44.75214307797127" lon="11.530418850690284"><ele>8.0</ele><time>2026-04-25T13:12:55.932Z</time></trkpt><trkpt lat="44.75187414236103" lon="11.530241745927974"><ele>6.5</ele><time>2026-04-25T13:12:56.932Z</time></trkpt><trkpt lat="44.75160242820017" lon="11.530063561537354"><ele>5.0</ele><time>2026-04-25T13:12:57.931Z</time></trkpt><trkpt lat="44.751332123889696" lon="11.529882490899457"><ele>5.0</ele><time>2026-04-25T13:12:58.932Z</time></trkpt><trkpt lat="44.751062300617605" lon="11.529705121715454"><ele>5.0</ele><time>2026-04-25T13:12:59.932Z</time></trkpt><trkpt lat="44.75079251360061" lon="11.52952454011796"><ele>6.0</ele><time>2026-04-25T13:13:00.931Z</time></trkpt><trkpt lat="44.750521004750844" lon="11.529351585100263"><ele>7.0</ele><time>2026-04-25T13:13:01.931Z</time></trkpt><trkpt lat="44.750249549792215" lon="11.529174856541939"><ele>7.5</ele><time>2026-04-25T13:13:02.931Z</time></trkpt><trkpt lat="44.74997656260292" lon="11.528998295584632"><ele>8.0</ele><time>2026-04-25T13:13:03.931Z</time></trkpt><trkpt lat="44.749706402807" lon="11.528819304356372"><ele>8.0</ele><time>2026-04-25T13:13:04.931Z</time></trkpt><trkpt lat="44.749436476059245" lon="11.528637490885322"><ele>8.0</ele><time>2026-04-25T13:13:05.931Z</time></trkpt><trkpt lat="44.749167383107796" lon="11.528465892314685"><ele>8.0</ele><time>2026-04-25T13:13:06.932Z</time></trkpt><trkpt lat="44.748899985647704" lon="11.528295746161962"><ele>8.0</ele><time>2026-04-25T13:13:07.931Z</time></trkpt><trkpt lat="44.7486308031769" lon="11.528124958381301"><ele>7.0</ele><time>2026-04-25T13:13:08.931Z</time></trkpt><trkpt lat="44.748365566097775" lon="11.527954972943062"><ele>6.0</ele><time>2026-04-25T13:13:09.931Z</time></trkpt><trkpt lat="44.74810028221129" lon="11.527785916390632"><ele>6.0</ele><time>2026-04-25T13:13:10.931Z</time></trkpt><trkpt lat="44.74783323794481" lon="11.527616307198485"><ele>6.0</ele><time>2026-04-25T13:13:11.931Z</time></trkpt><trkpt lat="44.747567238165246" lon="11.527447651677038"><ele>6.0</ele><time>2026-04-25T13:13:12.931Z</time></trkpt><trkpt lat="44.747300669153816" lon="11.527276302295217"><ele>6.0</ele><time>2026-04-25T13:13:13.931Z</time></trkpt><trkpt lat="44.747037243957195" lon="11.527108539573833"><ele>7.0</ele><time>2026-04-25T13:13:14.931Z</time></trkpt><trkpt lat="44.74676777156342" lon="11.526938461551957"><ele>8.0</ele><time>2026-04-25T13:13:15.931Z</time></trkpt><trkpt lat="44.746498077212934" lon="11.526767687579964"><ele>8.0</ele><time>2026-04-25T13:13:16.931Z</time></trkpt><trkpt lat="44.74623101709645" lon="11.52659720227473"><ele>8.0</ele><time>2026-04-25T13:13:17.931Z</time></trkpt><trkpt lat="44.74596094724373" lon="11.52641603140551"><ele>7.5</ele><time>2026-04-25T13:13:18.931Z</time></trkpt><trkpt lat="44.745695115539164" lon="11.526231394090818"><ele>7.0</ele><time>2026-04-25T13:13:19.931Z</time></trkpt><trkpt lat="44.74543115693244" lon="11.526042176196832"><ele>6.0</ele><time>2026-04-25T13:13:20.931Z</time></trkpt><trkpt lat="44.745168325184636" lon="11.525851593389858"><ele>5.0</ele><time>2026-04-25T13:13:21.931Z</time></trkpt><trkpt lat="44.74490673650904" lon="11.525662460628904"><ele>5.0</ele><time>2026-04-25T13:13:22.931Z</time></trkpt><trkpt lat="44.74464157050251" lon="11.525471736522269"><ele>5.0</ele><time>2026-04-25T13:13:23.931Z</time></trkpt><trkpt lat="44.744380007513115" lon="11.5252811161416"><ele>7.0</ele><time>2026-04-25T13:13:24.931Z</time></trkpt><trkpt lat="44.744121308330485" lon="11.52508168625575"><ele>9.0</ele><time>2026-04-25T13:13:25.931Z</time></trkpt><trkpt lat="44.74386401102334" lon="11.524882768971493"><ele>9.0</ele><time>2026-04-25T13:13:26.931Z</time></trkpt><trkpt lat="44.7436099323778" lon="11.524679676236103"><ele>9.0</ele><time>2026-04-25T13:13:27.931Z</time></trkpt><trkpt lat="44.74335945452749" lon="11.524479316057953"><ele>8.0</ele><time>2026-04-25T13:13:28.931Z</time></trkpt><trkpt lat="44.743108055965756" lon="11.524282174511672"><ele>7.0</ele><time>2026-04-25T13:13:29.931Z</time></trkpt><trkpt lat="44.742857301201745" lon="11.524077628017647"><ele>7.0</ele><time>2026-04-25T13:13:30.931Z</time></trkpt><trkpt lat="44.7426087682927" lon="11.523876835582206"><ele>7.0</ele><time>2026-04-25T13:13:31.931Z</time></trkpt><trkpt lat="44.74235958360093" lon="11.52367016800924"><ele>7.0</ele><time>2026-04-25T13:13:32.931Z</time></trkpt><trkpt lat="44.74210944696956" lon="11.52346713267656"><ele>7.0</ele><time>2026-04-25T13:13:33.93Z</time></trkpt><trkpt lat="44.741858806354934" lon="11.523266783092946"><ele>7.5</ele><time>2026-04-25T13:13:34.93Z</time></trkpt><trkpt lat="44.74161389299807" lon="11.523059620203355"><ele>8.0</ele><time>2026-04-25T13:13:35.93Z</time></trkpt><trkpt lat="44.741370427606036" lon="11.522852833151964"><ele>8.0</ele><time>2026-04-25T13:13:36.93Z</time></trkpt><trkpt lat="44.741121688297206" lon="11.522643917516268"><ele>8.0</ele><time>2026-04-25T13:13:37.93Z</time></trkpt><trkpt lat="44.740874434297226" lon="11.522434778490478"><ele>8.0</ele><time>2026-04-25T13:13:38.93Z</time></trkpt><trkpt lat="44.74062355930025" lon="11.522237947574896"><ele>8.0</ele><time>2026-04-25T13:13:39.93Z</time></trkpt><trkpt lat="44.74037213961906" lon="11.522036188582517"><ele>8.0</ele><time>2026-04-25T13:13:40.93Z</time></trkpt><trkpt lat="44.74011854110552" lon="11.521838675908024"><ele>8.0</ele><time>2026-04-25T13:13:41.93Z</time></trkpt><trkpt lat="44.739866188868504" lon="11.521630662806672"><ele>8.0</ele><time>2026-04-25T13:13:42.93Z</time></trkpt><trkpt lat="44.73961421310275" lon="11.521430389998466"><ele>8.0</ele><time>2026-04-25T13:13:43.93Z</time></trkpt><trkpt lat="44.739364199927664" lon="11.521227902415484"><ele>7.5</ele><time>2026-04-25T13:13:44.93Z</time></trkpt><trkpt lat="44.739114413348005" lon="11.521024842204303"><ele>7.0</ele><time>2026-04-25T13:13:45.93Z</time></trkpt><trkpt lat="44.7388665059603" lon="11.520819152589477"><ele>7.0</ele><time>2026-04-25T13:13:46.93Z</time></trkpt><trkpt lat="44.7386211498428" lon="11.520608528336126"><ele>7.0</ele><time>2026-04-25T13:13:47.93Z</time></trkpt><trkpt lat="44.73836805644188" lon="11.520408167638696"><ele>7.5</ele><time>2026-04-25T13:13:48.93Z</time></trkpt><trkpt lat="44.73811720977036" lon="11.52020440567768"><ele>8.0</ele><time>2026-04-25T13:13:49.93Z</time></trkpt><trkpt lat="44.73786577451787" lon="11.520000785206026"><ele>9.0</ele><time>2026-04-25T13:13:50.93Z</time></trkpt><trkpt lat="44.737615840612364" lon="11.519800468643574"><ele>10.0</ele><time>2026-04-25T13:13:51.93Z</time></trkpt><trkpt lat="44.73736238658332" lon="11.519602512989739"><ele>10.0</ele><time>2026-04-25T13:13:52.93Z</time></trkpt><trkpt lat="44.73711059164832" lon="11.519404147603202"><ele>10.0</ele><time>2026-04-25T13:13:53.93Z</time></trkpt><trkpt lat="44.7368589227227" lon="11.519194670887044"><ele>10.5</ele><time>2026-04-25T13:13:54.93Z</time></trkpt><trkpt lat="44.73660494156838" lon="11.518994895069888"><ele>11.0</ele><time>2026-04-25T13:13:55.93Z</time></trkpt><trkpt lat="44.736356017481505" lon="11.518793412150892"><ele>11.0</ele><time>2026-04-25T13:13:56.93Z</time></trkpt><trkpt lat="44.73609873030141" lon="11.51858522410607"><ele>11.0</ele><time>2026-04-25T13:13:57.93Z</time></trkpt><trkpt lat="44.73584116444034" lon="11.518376073321184"><ele>11.0</ele><time>2026-04-25T13:13:58.93Z</time></trkpt><trkpt lat="44.7355898944592" lon="11.518170227462763"><ele>11.0</ele><time>2026-04-25T13:13:59.93Z</time></trkpt><trkpt lat="44.73533521823245" lon="11.517969700994707"><ele>12.5</ele><time>2026-04-25T13:14:00.93Z</time></trkpt><trkpt lat="44.735082476242994" lon="11.517768015507384"><ele>14.0</ele><time>2026-04-25T13:14:01.93Z</time></trkpt><trkpt lat="44.734831393800505" lon="11.517561305035441"><ele>14.0</ele><time>2026-04-25T13:14:02.93Z</time></trkpt><trkpt lat="44.734574759631016" lon="11.517359313230346"><ele>14.0</ele><time>2026-04-25T13:14:03.93Z</time></trkpt><trkpt lat="44.734319787593606" lon="11.517154641117845"><ele>13.0</ele><time>2026-04-25T13:14:04.93Z</time></trkpt><trkpt lat="44.73406806430865" lon="11.516950472408725"><ele>12.0</ele><time>2026-04-25T13:14:05.93Z</time></trkpt><trkpt lat="44.7338119937431" lon="11.51674721064352"><ele>12.0</ele><time>2026-04-25T13:14:06.93Z</time></trkpt><trkpt lat="44.73355733588557" lon="11.516540027009489"><ele>12.0</ele><time>2026-04-25T13:14:07.93Z</time></trkpt><trkpt lat="44.73329881151019" lon="11.516336793355343"><ele>12.5</ele><time>2026-04-25T13:14:08.93Z</time></trkpt><trkpt lat="44.73303727050126" lon="11.516132395480495"><ele>13.0</ele><time>2026-04-25T13:14:09.93Z</time></trkpt><trkpt lat="44.73277561204943" lon="11.515921058986338"><ele>12.5</ele><time>2026-04-25T13:14:10.93Z</time></trkpt><trkpt lat="44.73251234043682" lon="11.515708205738608"><ele>12.0</ele><time>2026-04-25T13:14:11.93Z</time></trkpt><trkpt lat="44.732248611643584" lon="11.51548823513084"><ele>12.0</ele><time>2026-04-25T13:14:12.93Z</time></trkpt><trkpt lat="44.731985902005384" lon="11.515271913107318"><ele>12.0</ele><time>2026-04-25T13:14:13.93Z</time></trkpt><trkpt lat="44.73172116687225" lon="11.515066098530365"><ele>11.0</ele><time>2026-04-25T13:14:14.93Z</time></trkpt><trkpt lat="44.731453892188384" lon="11.514841939445086"><ele>10.0</ele><time>2026-04-25T13:14:15.93Z</time></trkpt><trkpt lat="44.73118865967692" lon="11.514628672956245"><ele>10.0</ele><time>2026-04-25T13:14:16.93Z</time></trkpt><trkpt lat="44.730917863892984" lon="11.51441807797722"><ele>10.0</ele><time>2026-04-25T13:14:17.93Z</time></trkpt><trkpt lat="44.730652910189704" lon="11.514213064158803"><ele>10.0</ele><time>2026-04-25T13:14:18.93Z</time></trkpt><trkpt lat="44.730388291742706" lon="11.514000994410035"><ele>10.0</ele><time>2026-04-25T13:14:19.93Z</time></trkpt><trkpt lat="44.73012404030235" lon="11.513788891814508"><ele>9.0</ele><time>2026-04-25T13:14:20.93Z</time></trkpt><trkpt lat="44.72986453192174" lon="11.513573707855777"><ele>8.0</ele><time>2026-04-25T13:14:21.93Z</time></trkpt><trkpt lat="44.729606176225666" lon="11.513361914896613"><ele>8.0</ele><time>2026-04-25T13:14:22.93Z</time></trkpt><trkpt lat="44.72934842542092" lon="11.513143035780615"><ele>8.0</ele><time>2026-04-25T13:14:23.93Z</time></trkpt><trkpt lat="44.72908922960447" lon="11.512921855203414"><ele>8.0</ele><time>2026-04-25T13:14:24.93Z</time></trkpt><trkpt lat="44.728828103276754" lon="11.512715900497172"><ele>8.0</ele><time>2026-04-25T13:14:25.93Z</time></trkpt><trkpt lat="44.72857197668951" lon="11.512505164249385"><ele>8.5</ele><time>2026-04-25T13:14:26.93Z</time></trkpt><trkpt lat="44.72831476929757" lon="11.512298692142716"><ele>9.0</ele><time>2026-04-25T13:14:27.93Z</time></trkpt><trkpt lat="44.72805415531347" lon="11.51210256869926"><ele>8.5</ele><time>2026-04-25T13:14:28.93Z</time></trkpt><trkpt lat="44.72780026154233" lon="11.51190095101257"><ele>8.0</ele><time>2026-04-25T13:14:29.93Z</time></trkpt><trkpt lat="44.7275463644799" lon="11.511696586493496"><ele>8.0</ele><time>2026-04-25T13:14:30.93Z</time></trkpt><trkpt lat="44.727293864757485" lon="11.511494004885956"><ele>8.0</ele><time>2026-04-25T13:14:31.93Z</time></trkpt><trkpt lat="44.72704512741286" lon="11.511290386907508"><ele>8.5</ele><time>2026-04-25T13:14:32.93Z</time></trkpt><trkpt lat="44.726798248658476" lon="11.511080550556827"><ele>9.0</ele><time>2026-04-25T13:14:33.929Z</time></trkpt><trkpt lat="44.72654794361397" lon="11.510873196663033"><ele>9.0</ele><time>2026-04-25T13:14:34.929Z</time></trkpt><trkpt lat="44.72629758981033" lon="11.510666641798672"><ele>9.0</ele><time>2026-04-25T13:14:35.929Z</time></trkpt><trkpt lat="44.726044377463644" lon="11.510471526589265"><ele>9.0</ele><time>2026-04-25T13:14:36.929Z</time></trkpt><trkpt lat="44.72578843690817" lon="11.51027305393258"><ele>9.0</ele><time>2026-04-25T13:14:37.929Z</time></trkpt><trkpt lat="44.725532763279055" lon="11.510069764936832"><ele>9.0</ele><time>2026-04-25T13:14:38.929Z</time></trkpt><trkpt lat="44.72527190653235" lon="11.509859301067337"><ele>9.0</ele><time>2026-04-25T13:14:39.929Z</time></trkpt><trkpt lat="44.72500946232926" lon="11.509648417812306"><ele>8.5</ele><time>2026-04-25T13:14:40.929Z</time></trkpt><trkpt lat="44.72474635980681" lon="11.509435787870125"><ele>8.0</ele><time>2026-04-25T13:14:41.929Z</time></trkpt><trkpt lat="44.724485136184654" lon="11.509219732200366"><ele>8.0</ele><time>2026-04-25T13:14:42.929Z</time></trkpt><trkpt lat="44.72421898884593" lon="11.50900265682577"><ele>8.0</ele><time>2026-04-25T13:14:43.929Z</time></trkpt><trkpt lat="44.72395495713236" lon="11.508787510739207"><ele>8.0</ele><time>2026-04-25T13:14:44.929Z</time></trkpt><trkpt lat="44.72368374642173" lon="11.50857473351313"><ele>8.0</ele><time>2026-04-25T13:14:45.929Z</time></trkpt><trkpt lat="44.72341513343185" lon="11.50836462103524"><ele>8.0</ele><time>2026-04-25T13:14:46.929Z</time></trkpt><trkpt lat="44.723143434181324" lon="11.50814264762889"><ele>8.0</ele><time>2026-04-25T13:14:47.929Z</time></trkpt><trkpt lat="44.7228722100331" lon="11.50792721535914"><ele>8.0</ele><time>2026-04-25T13:14:48.929Z</time></trkpt><trkpt lat="44.72260269327221" lon="11.507711869626082"><ele>8.0</ele><time>2026-04-25T13:14:49.929Z</time></trkpt><trkpt lat="44.72233773874246" lon="11.507498232677166"><ele>8.0</ele><time>2026-04-25T13:14:50.929Z</time></trkpt><trkpt lat="44.72207317505488" lon="11.50728698352028"><ele>8.0</ele><time>2026-04-25T13:14:51.929Z</time></trkpt><trkpt lat="44.72180865821035" lon="11.507077303641635"><ele>8.0</ele><time>2026-04-25T13:14:52.929Z</time></trkpt><trkpt lat="44.72155138826259" lon="11.50687179434967"><ele>8.0</ele><time>2026-04-25T13:14:53.929Z</time></trkpt><trkpt lat="44.72129219407874" lon="11.506661710493212"><ele>8.0</ele><time>2026-04-25T13:14:54.929Z</time></trkpt><trkpt lat="44.72103207961188" lon="11.5064496742341"><ele>8.0</ele><time>2026-04-25T13:14:55.929Z</time></trkpt><trkpt lat="44.72076926124506" lon="11.506236814752024"><ele>8.0</ele><time>2026-04-25T13:14:56.929Z</time></trkpt><trkpt lat="44.72050567081531" lon="11.506031159819996"><ele>8.0</ele><time>2026-04-25T13:14:57.929Z</time></trkpt><trkpt lat="44.720239180535856" lon="11.505821546930672"><ele>7.5</ele><time>2026-04-25T13:14:58.929Z</time></trkpt><trkpt lat="44.71996986888015" lon="11.505611389891108"><ele>7.0</ele><time>2026-04-25T13:14:59.929Z</time></trkpt><trkpt lat="44.7196999051145" lon="11.505394919878645"><ele>6.5</ele><time>2026-04-25T13:15:00.929Z</time></trkpt><trkpt lat="44.7194315355608" lon="11.505182740546113"><ele>6.0</ele><time>2026-04-25T13:15:01.929Z</time></trkpt><trkpt lat="44.71916262988099" lon="11.504972892928025"><ele>6.0</ele><time>2026-04-25T13:15:02.929Z</time></trkpt><trkpt lat="44.718897467389" lon="11.504762576134382"><ele>6.0</ele><time>2026-04-25T13:15:03.93Z</time></trkpt><trkpt lat="44.718635224742194" lon="11.504552380583577"><ele>6.5</ele><time>2026-04-25T13:15:04.929Z</time></trkpt><trkpt lat="44.7183765397048" lon="11.504343352956"><ele>7.0</ele><time>2026-04-25T13:15:05.929Z</time></trkpt><trkpt lat="44.71811648400416" lon="11.504132973418258"><ele>7.0</ele><time>2026-04-25T13:15:06.93Z</time></trkpt><trkpt lat="44.717857894745585" lon="11.503927170769094"><ele>7.0</ele><time>2026-04-25T13:15:07.929Z</time></trkpt><trkpt lat="44.71760143644912" lon="11.503722079752992"><ele>6.0</ele><time>2026-04-25T13:15:08.929Z</time></trkpt><trkpt lat="44.71734644383812" lon="11.503517305880658"><ele>5.0</ele><time>2026-04-25T13:15:09.929Z</time></trkpt><trkpt lat="44.71709482640319" lon="11.50331706320585"><ele>5.0</ele><time>2026-04-25T13:15:10.929Z</time></trkpt><trkpt lat="44.7168440980769" lon="11.503112935123108"><ele>5.0</ele><time>2026-04-25T13:15:11.929Z</time></trkpt><trkpt lat="44.71658952856565" lon="11.502911195864627"><ele>5.0</ele><time>2026-04-25T13:15:12.929Z</time></trkpt><trkpt lat="44.716332955516364" lon="11.50270607378159"><ele>5.0</ele><time>2026-04-25T13:15:13.929Z</time></trkpt><trkpt lat="44.71607450213488" lon="11.502501614791196"><ele>6.0</ele><time>2026-04-25T13:15:14.929Z</time></trkpt><trkpt lat="44.715815255529776" lon="11.502289687333393"><ele>7.0</ele><time>2026-04-25T13:15:15.929Z</time></trkpt><trkpt lat="44.71555483130376" lon="11.502081864794826"><ele>7.0</ele><time>2026-04-25T13:15:16.929Z</time></trkpt><trkpt lat="44.71529226332464" lon="11.501873205768286"><ele>7.0</ele><time>2026-04-25T13:15:17.929Z</time></trkpt><trkpt lat="44.715027779729446" lon="11.501665909057307"><ele>7.0</ele><time>2026-04-25T13:15:18.929Z</time></trkpt><trkpt lat="44.714763520395785" lon="11.501450630623411"><ele>7.0</ele><time>2026-04-25T13:15:19.929Z</time></trkpt><trkpt lat="44.714501128817794" lon="11.501231827445935"><ele>7.0</ele><time>2026-04-25T13:15:20.929Z</time></trkpt><trkpt lat="44.714237163465896" lon="11.501014850844244"><ele>7.0</ele><time>2026-04-25T13:15:21.929Z</time></trkpt><trkpt lat="44.71397160794501" lon="11.500797462025744"><ele>7.0</ele><time>2026-04-25T13:15:22.929Z</time></trkpt><trkpt lat="44.713708402856554" lon="11.50057390227335"><ele>7.0</ele><time>2026-04-25T13:15:23.929Z</time></trkpt><trkpt lat="44.71344585963884" lon="11.500350320717027"><ele>7.0</ele><time>2026-04-25T13:15:24.929Z</time></trkpt><trkpt lat="44.71318536804515" lon="11.500128374208362"><ele>7.0</ele><time>2026-04-25T13:15:25.929Z</time></trkpt><trkpt lat="44.712923053080345" lon="11.499913087659971"><ele>6.5</ele><time>2026-04-25T13:15:26.929Z</time></trkpt><trkpt lat="44.712658022585615" lon="11.4997021536521"><ele>6.0</ele><time>2026-04-25T13:15:27.929Z</time></trkpt><trkpt lat="44.71239412104527" lon="11.499492151028956"><ele>6.0</ele><time>2026-04-25T13:15:28.929Z</time></trkpt><trkpt lat="44.71213157590106" lon="11.499282552967328"><ele>6.0</ele><time>2026-04-25T13:15:29.929Z</time></trkpt><trkpt lat="44.71187060312969" lon="11.499068781228656"><ele>6.5</ele><time>2026-04-25T13:15:30.929Z</time></trkpt><trkpt lat="44.711609049665896" lon="11.498856712727209"><ele>7.0</ele><time>2026-04-25T13:15:31.929Z</time></trkpt><trkpt lat="44.71134921913586" lon="11.498645347324189"><ele>7.0</ele><time>2026-04-25T13:15:32.929Z</time></trkpt><trkpt lat="44.71108981136293" lon="11.498433763181717"><ele>7.0</ele><time>2026-04-25T13:15:33.929Z</time></trkpt><trkpt lat="44.710831676470335" lon="11.49822303879171"><ele>7.5</ele><time>2026-04-25T13:15:34.929Z</time></trkpt><trkpt lat="44.71057182792133" lon="11.498013420980254"><ele>8.0</ele><time>2026-04-25T13:15:35.929Z</time></trkpt><trkpt lat="44.710310831038726" lon="11.497803235213086"><ele>6.5</ele><time>2026-04-25T13:15:36.929Z</time></trkpt><trkpt lat="44.71005219120539" lon="11.497591522217098"><ele>5.0</ele><time>2026-04-25T13:15:37.929Z</time></trkpt><trkpt lat="44.709792342685766" lon="11.49738258745634"><ele>5.0</ele><time>2026-04-25T13:15:38.929Z</time></trkpt><trkpt lat="44.70953552857041" lon="11.497176681240111"><ele>5.0</ele><time>2026-04-25T13:15:39.929Z</time></trkpt><trkpt lat="44.70928102498863" lon="11.496965846336957"><ele>5.5</ele><time>2026-04-25T13:15:40.929Z</time></trkpt><trkpt lat="44.70902390112596" lon="11.496758371403873"><ele>6.0</ele><time>2026-04-25T13:15:41.928Z</time></trkpt><trkpt lat="44.70876634454565" lon="11.4965522403432"><ele>6.5</ele><time>2026-04-25T13:15:42.928Z</time></trkpt><trkpt lat="44.70850728999706" lon="11.496338230041527"><ele>7.0</ele><time>2026-04-25T13:15:43.928Z</time></trkpt><trkpt lat="44.70824874219175" lon="11.496127921593969"><ele>7.0</ele><time>2026-04-25T13:15:44.928Z</time></trkpt><trkpt lat="44.707989260805235" lon="11.495920541595684"><ele>7.0</ele><time>2026-04-25T13:15:45.928Z</time></trkpt><trkpt lat="44.707733503973635" lon="11.495709105191969"><ele>6.5</ele><time>2026-04-25T13:15:46.928Z</time></trkpt><trkpt lat="44.70747477338757" lon="11.495489429813464"><ele>6.0</ele><time>2026-04-25T13:15:47.928Z</time></trkpt><trkpt lat="44.70721324100091" lon="11.495291873812686"><ele>6.0</ele><time>2026-04-25T13:15:48.928Z</time></trkpt><trkpt lat="44.70695072862674" lon="11.495080953281903"><ele>6.0</ele><time>2026-04-25T13:15:49.928Z</time></trkpt><trkpt lat="44.706689452739006" lon="11.494874382781614"><ele>6.0</ele><time>2026-04-25T13:15:50.928Z</time></trkpt><trkpt lat="44.70642753047416" lon="11.494663312868266"><ele>6.0</ele><time>2026-04-25T13:15:51.928Z</time></trkpt><trkpt lat="44.70616488626198" lon="11.494449431261138"><ele>6.5</ele><time>2026-04-25T13:15:52.928Z</time></trkpt><trkpt lat="44.705901852641084" lon="11.494234695790638"><ele>7.0</ele><time>2026-04-25T13:15:53.928Z</time></trkpt><trkpt lat="44.70564193770649" lon="11.494020284215996"><ele>7.0</ele><time>2026-04-25T13:15:54.928Z</time></trkpt><trkpt lat="44.70538010337206" lon="11.493806540615825"><ele>7.0</ele><time>2026-04-25T13:15:55.928Z</time></trkpt><trkpt lat="44.70511809166704" lon="11.493598052990741"><ele>8.5</ele><time>2026-04-25T13:15:56.928Z</time></trkpt><trkpt lat="44.70484948866064" lon="11.493398410116615"><ele>10.0</ele><time>2026-04-25T13:15:57.928Z</time></trkpt><trkpt lat="44.7045777529461" lon="11.493200652038087"><ele>10.0</ele><time>2026-04-25T13:15:58.928Z</time></trkpt><trkpt lat="44.70430973897585" lon="11.492996461427627"><ele>10.0</ele><time>2026-04-25T13:15:59.928Z</time></trkpt><trkpt lat="44.70403915241354" lon="11.492794544640526"><ele>10.0</ele><time>2026-04-25T13:16:00.928Z</time></trkpt><trkpt lat="44.70376887510455" lon="11.492574632473689"><ele>10.0</ele><time>2026-04-25T13:16:01.928Z</time></trkpt><trkpt lat="44.703496313474474" lon="11.492355456294863"><ele>10.0</ele><time>2026-04-25T13:16:02.928Z</time></trkpt><trkpt lat="44.70322794510549" lon="11.4921386722419"><ele>10.0</ele><time>2026-04-25T13:16:03.928Z</time></trkpt><trkpt lat="44.7029619382253" lon="11.491923407459128"><ele>9.0</ele><time>2026-04-25T13:16:04.928Z</time></trkpt><trkpt lat="44.702696501335616" lon="11.491708507063537"><ele>8.0</ele><time>2026-04-25T13:16:05.928Z</time></trkpt><trkpt lat="44.702430911059295" lon="11.491492997833104"><ele>8.0</ele><time>2026-04-25T13:16:06.928Z</time></trkpt><trkpt lat="44.70216571860608" lon="11.4912818847292"><ele>8.0</ele><time>2026-04-25T13:16:07.928Z</time></trkpt><trkpt lat="44.70190076459545" lon="11.491073636476315"><ele>8.0</ele><time>2026-04-25T13:16:08.928Z</time></trkpt><trkpt lat="44.7016359027973" lon="11.490865905337646"><ele>8.0</ele><time>2026-04-25T13:16:09.928Z</time></trkpt><trkpt lat="44.70137086900586" lon="11.49065397108746"><ele>8.0</ele><time>2026-04-25T13:16:10.928Z</time></trkpt><trkpt lat="44.70110948299315" lon="11.490442344349242"><ele>8.0</ele><time>2026-04-25T13:16:11.928Z</time></trkpt><trkpt lat="44.700846355573475" lon="11.490230424074227"><ele>7.5</ele><time>2026-04-25T13:16:12.928Z</time></trkpt><trkpt lat="44.70058288152538" lon="11.490020542835056"><ele>7.0</ele><time>2026-04-25T13:16:13.928Z</time></trkpt><trkpt lat="44.70032526875884" lon="11.48981073119275"><ele>8.0</ele><time>2026-04-25T13:16:14.928Z</time></trkpt><trkpt lat="44.70006458889548" lon="11.489599115852998"><ele>9.0</ele><time>2026-04-25T13:16:15.928Z</time></trkpt><trkpt lat="44.699807258545476" lon="11.489385090352576"><ele>9.0</ele><time>2026-04-25T13:16:16.928Z</time></trkpt><trkpt lat="44.69955155578525" lon="11.489169220037075"><ele>9.0</ele><time>2026-04-25T13:16:17.928Z</time></trkpt><trkpt lat="44.699293455246334" lon="11.488950252919041"><ele>8.5</ele><time>2026-04-25T13:16:18.928Z</time></trkpt><trkpt lat="44.699035599187766" lon="11.488726581870463"><ele>8.0</ele><time>2026-04-25T13:16:19.928Z</time></trkpt><trkpt lat="44.69877421146166" lon="11.488509363149358"><ele>9.0</ele><time>2026-04-25T13:16:20.928Z</time></trkpt><trkpt lat="44.69851218891638" lon="11.48829392475074"><ele>10.0</ele><time>2026-04-25T13:16:21.928Z</time></trkpt><trkpt lat="44.69824936238097" lon="11.488079728907211"><ele>9.5</ele><time>2026-04-25T13:16:22.928Z</time></trkpt><trkpt lat="44.69798913148727" lon="11.487876904590847"><ele>9.0</ele><time>2026-04-25T13:16:23.928Z</time></trkpt><trkpt lat="44.697723587520464" lon="11.48766981133818"><ele>9.0</ele><time>2026-04-25T13:16:24.928Z</time></trkpt><trkpt lat="44.69746297737567" lon="11.487459839219063"><ele>9.0</ele><time>2026-04-25T13:16:25.928Z</time></trkpt><trkpt lat="44.6972071510515" lon="11.487251676826368"><ele>8.0</ele><time>2026-04-25T13:16:26.928Z</time></trkpt><trkpt lat="44.69695435622009" lon="11.487045736653329"><ele>7.0</ele><time>2026-04-25T13:16:27.928Z</time></trkpt><trkpt lat="44.69670401912561" lon="11.48684698923112"><ele>9.0</ele><time>2026-04-25T13:16:28.928Z</time></trkpt><trkpt lat="44.696451860265846" lon="11.486651203619955"><ele>11.0</ele><time>2026-04-25T13:16:29.928Z</time></trkpt><trkpt lat="44.6962049052969" lon="11.486454268453508"><ele>10.0</ele><time>2026-04-25T13:16:30.928Z</time></trkpt><trkpt lat="44.695959525972086" lon="11.486252078843483"><ele>9.0</ele><time>2026-04-25T13:16:31.928Z</time></trkpt><trkpt lat="44.69571212511586" lon="11.486051230434395"><ele>9.0</ele><time>2026-04-25T13:16:32.928Z</time></trkpt><trkpt lat="44.69546413004654" lon="11.485851046507086"><ele>9.0</ele><time>2026-04-25T13:16:33.928Z</time></trkpt><trkpt lat="44.69521385692423" lon="11.485653842489643"><ele>9.0</ele><time>2026-04-25T13:16:34.927Z</time></trkpt><trkpt lat="44.69496223240089" lon="11.485449595850293"><ele>9.0</ele><time>2026-04-25T13:16:35.927Z</time></trkpt><trkpt lat="44.69470468222793" lon="11.485247252588096"><ele>9.0</ele><time>2026-04-25T13:16:36.927Z</time></trkpt><trkpt lat="44.69444600507052" lon="11.485039865201081"><ele>9.0</ele><time>2026-04-25T13:16:37.927Z</time></trkpt><trkpt lat="44.694183446059654" lon="11.48482940763125"><ele>9.0</ele><time>2026-04-25T13:16:38.927Z</time></trkpt><trkpt lat="44.69392272610948" lon="11.484615261983429"><ele>9.0</ele><time>2026-04-25T13:16:39.927Z</time></trkpt><trkpt lat="44.69366017982364" lon="11.484403038737256"><ele>8.5</ele><time>2026-04-25T13:16:40.927Z</time></trkpt><trkpt lat="44.69339683250062" lon="11.484192424934731"><ele>8.0</ele><time>2026-04-25T13:16:41.927Z</time></trkpt><trkpt lat="44.6931396486129" lon="11.483971573671939"><ele>8.0</ele><time>2026-04-25T13:16:42.927Z</time></trkpt><trkpt lat="44.69287762818355" lon="11.483768826899283"><ele>8.0</ele><time>2026-04-25T13:16:43.927Z</time></trkpt><trkpt lat="44.6926106064662" lon="11.483557834630428"><ele>7.5</ele><time>2026-04-25T13:16:44.927Z</time></trkpt><trkpt lat="44.6923478938278" lon="11.48334198990958"><ele>7.0</ele><time>2026-04-25T13:16:45.927Z</time></trkpt><trkpt lat="44.69209037484462" lon="11.48313563375576"><ele>6.5</ele><time>2026-04-25T13:16:46.927Z</time></trkpt><trkpt lat="44.69183021204311" lon="11.482924430427717"><ele>6.0</ele><time>2026-04-25T13:16:47.927Z</time></trkpt><trkpt lat="44.69156964212499" lon="11.482721772101668"><ele>6.0</ele><time>2026-04-25T13:16:48.927Z</time></trkpt><trkpt lat="44.691311542383716" lon="11.482514395087113"><ele>6.0</ele><time>2026-04-25T13:16:49.927Z</time></trkpt><trkpt lat="44.69105559449313" lon="11.482305446694602"><ele>5.0</ele><time>2026-04-25T13:16:50.927Z</time></trkpt><trkpt lat="44.69080286788391" lon="11.482096082369129"><ele>4.0</ele><time>2026-04-25T13:16:51.927Z</time></trkpt><trkpt lat="44.69054869097182" lon="11.481878578295179"><ele>4.0</ele><time>2026-04-25T13:16:52.927Z</time></trkpt><trkpt lat="44.69028964218752" lon="11.481673432559857"><ele>4.0</ele><time>2026-04-25T13:16:53.927Z</time></trkpt><trkpt lat="44.69003081212922" lon="11.48146411569666"><ele>4.0</ele><time>2026-04-25T13:16:54.927Z</time></trkpt><trkpt lat="44.68977418314474" lon="11.481249311657447"><ele>4.0</ele><time>2026-04-25T13:16:55.927Z</time></trkpt><trkpt lat="44.689513420904674" lon="11.481040247669343"><ele>4.5</ele><time>2026-04-25T13:16:56.927Z</time></trkpt><trkpt lat="44.68925153542295" lon="11.480836407108832"><ele>5.0</ele><time>2026-04-25T13:16:57.927Z</time></trkpt><trkpt lat="44.68899510698433" lon="11.480631167195197"><ele>5.5</ele><time>2026-04-25T13:16:58.927Z</time></trkpt><trkpt lat="44.68872985351774" lon="11.480426651938473"><ele>6.0</ele><time>2026-04-25T13:16:59.927Z</time></trkpt><trkpt lat="44.68847193894425" lon="11.480219030731616"><ele>6.5</ele><time>2026-04-25T13:17:00.927Z</time></trkpt><trkpt lat="44.68821624752236" lon="11.48002187888592"><ele>7.0</ele><time>2026-04-25T13:17:01.927Z</time></trkpt><trkpt lat="44.687960473332346" lon="11.479819263217944"><ele>7.0</ele><time>2026-04-25T13:17:02.927Z</time></trkpt><trkpt lat="44.68770737732103" lon="11.479607067263855"><ele>7.0</ele><time>2026-04-25T13:17:03.927Z</time></trkpt><trkpt lat="44.687450714017835" lon="11.479396803616664"><ele>7.0</ele><time>2026-04-25T13:17:04.927Z</time></trkpt><trkpt lat="44.6871915270959" lon="11.479181433806735"><ele>7.0</ele><time>2026-04-25T13:17:05.927Z</time></trkpt><trkpt lat="44.68692948857523" lon="11.478961381249748"><ele>7.5</ele><time>2026-04-25T13:17:06.927Z</time></trkpt><trkpt lat="44.68666344389511" lon="11.47874263279764"><ele>8.0</ele><time>2026-04-25T13:17:07.927Z</time></trkpt><trkpt lat="44.68639519497533" lon="11.4785278831697"><ele>8.0</ele><time>2026-04-25T13:17:08.927Z</time></trkpt><trkpt lat="44.68612306786191" lon="11.47831540785001"><ele>8.0</ele><time>2026-04-25T13:17:09.927Z</time></trkpt><trkpt lat="44.685850302981635" lon="11.478106158891462"><ele>8.5</ele><time>2026-04-25T13:17:10.927Z</time></trkpt><trkpt lat="44.68557885456485" lon="11.477892026594224"><ele>9.0</ele><time>2026-04-25T13:17:11.927Z</time></trkpt><trkpt lat="44.68530555056754" lon="11.477681121331063"><ele>8.0</ele><time>2026-04-25T13:17:12.928Z</time></trkpt><trkpt lat="44.68503865002627" lon="11.47746244763079"><ele>7.0</ele><time>2026-04-25T13:17:13.927Z</time></trkpt><trkpt lat="44.68477385528185" lon="11.47724547481893"><ele>6.5</ele><time>2026-04-25T13:17:14.927Z</time></trkpt><trkpt lat="44.684504228912594" lon="11.477027341391626"><ele>6.0</ele><time>2026-04-25T13:17:15.927Z</time></trkpt><trkpt lat="44.68423131020116" lon="11.476807163772206"><ele>5.5</ele><time>2026-04-25T13:17:16.927Z</time></trkpt><trkpt lat="44.683962419971756" lon="11.476588505881857"><ele>5.0</ele><time>2026-04-25T13:17:17.927Z</time></trkpt><trkpt lat="44.683693715788785" lon="11.476373052619813"><ele>5.0</ele><time>2026-04-25T13:17:18.927Z</time></trkpt><trkpt lat="44.68342750492169" lon="11.476160334046465"><ele>5.0</ele><time>2026-04-25T13:17:19.927Z</time></trkpt><trkpt lat="44.683155754312025" lon="11.475946201631308"><ele>5.0</ele><time>2026-04-25T13:17:20.927Z</time></trkpt><trkpt lat="44.68288484292688" lon="11.475734920955754"><ele>5.0</ele><time>2026-04-25T13:17:21.927Z</time></trkpt><trkpt lat="44.682615629416055" lon="11.47552188724124"><ele>4.5</ele><time>2026-04-25T13:17:22.926Z</time></trkpt><trkpt lat="44.682344063127886" lon="11.475311835663797"><ele>4.0</ele><time>2026-04-25T13:17:23.926Z</time></trkpt><trkpt lat="44.68207333310287" lon="11.475098788273746"><ele>6.5</ele><time>2026-04-25T13:17:24.926Z</time></trkpt><trkpt lat="44.68180505517126" lon="11.474888081191395"><ele>9.0</ele><time>2026-04-25T13:17:25.926Z</time></trkpt><trkpt lat="44.68153672183269" lon="11.4746730765462"><ele>8.5</ele><time>2026-04-25T13:17:26.926Z</time></trkpt><trkpt lat="44.681264858718336" lon="11.474454724689819"><ele>8.0</ele><time>2026-04-25T13:17:27.926Z</time></trkpt><trkpt lat="44.68099568827442" lon="11.474235228470253"><ele>8.0</ele><time>2026-04-25T13:17:28.926Z</time></trkpt><trkpt lat="44.68072212730205" lon="11.47401634906382"><ele>8.0</ele><time>2026-04-25T13:17:29.926Z</time></trkpt><trkpt lat="44.68045271899917" lon="11.473798049306524"><ele>6.0</ele><time>2026-04-25T13:17:30.926Z</time></trkpt><trkpt lat="44.6801824241167" lon="11.473576559556738"><ele>4.0</ele><time>2026-04-25T13:17:31.926Z</time></trkpt><trkpt lat="44.67990722456885" lon="11.473362702009112"><ele>4.0</ele><time>2026-04-25T13:17:32.926Z</time></trkpt><trkpt lat="44.67963324375739" lon="11.473149541640153"><ele>4.0</ele><time>2026-04-25T13:17:33.926Z</time></trkpt><trkpt lat="44.67936012435133" lon="11.472930129100906"><ele>5.5</ele><time>2026-04-25T13:17:34.926Z</time></trkpt><trkpt lat="44.67909057331455" lon="11.472716225647469"><ele>7.0</ele><time>2026-04-25T13:17:35.926Z</time></trkpt><trkpt lat="44.678814727535304" lon="11.472492992506512"><ele>8.5</ele><time>2026-04-25T13:17:36.926Z</time></trkpt><trkpt lat="44.678543473990146" lon="11.472265983608214"><ele>10.0</ele><time>2026-04-25T13:17:37.926Z</time></trkpt><trkpt lat="44.67826952890466" lon="11.472041276979065"><ele>10.0</ele><time>2026-04-25T13:17:38.926Z</time></trkpt><trkpt lat="44.67799687218583" lon="11.471822400416572"><ele>10.0</ele><time>2026-04-25T13:17:39.926Z</time></trkpt><trkpt lat="44.67772344519193" lon="11.471604532653513"><ele>9.0</ele><time>2026-04-25T13:17:40.926Z</time></trkpt><trkpt lat="44.67745277300261" lon="11.47138845526841"><ele>8.0</ele><time>2026-04-25T13:17:41.926Z</time></trkpt><trkpt lat="44.67718312797949" lon="11.471173923672122"><ele>9.0</ele><time>2026-04-25T13:17:42.926Z</time></trkpt><trkpt lat="44.67690975916792" lon="11.470953378317432"><ele>10.0</ele><time>2026-04-25T13:17:43.926Z</time></trkpt><trkpt lat="44.67664039846884" lon="11.47073653515658"><ele>10.0</ele><time>2026-04-25T13:17:44.926Z</time></trkpt><trkpt lat="44.676369016510485" lon="11.47051898204743"><ele>10.0</ele><time>2026-04-25T13:17:45.926Z</time></trkpt><trkpt lat="44.676099086084676" lon="11.470304157598456"><ele>9.0</ele><time>2026-04-25T13:17:46.926Z</time></trkpt><trkpt lat="44.67582929147168" lon="11.470084463161072"><ele>8.0</ele><time>2026-04-25T13:17:47.926Z</time></trkpt><trkpt lat="44.67555732668419" lon="11.469863819798865"><ele>8.0</ele><time>2026-04-25T13:17:48.926Z</time></trkpt><trkpt lat="44.67528156514168" lon="11.469642654472944"><ele>8.0</ele><time>2026-04-25T13:17:49.926Z</time></trkpt><trkpt lat="44.67501216884022" lon="11.469421812010362"><ele>7.5</ele><time>2026-04-25T13:17:50.926Z</time></trkpt><trkpt lat="44.674738765654965" lon="11.469193026555134"><ele>7.0</ele><time>2026-04-25T13:17:51.926Z</time></trkpt><trkpt lat="44.67446813147895" lon="11.468965364333682"><ele>8.0</ele><time>2026-04-25T13:17:52.926Z</time></trkpt><trkpt lat="44.6742010995662" lon="11.468735894415754"><ele>9.0</ele><time>2026-04-25T13:17:53.926Z</time></trkpt><trkpt lat="44.67393816901422" lon="11.468501748736852"><ele>9.0</ele><time>2026-04-25T13:17:54.926Z</time></trkpt><trkpt lat="44.67367481022426" lon="11.46826046284668"><ele>9.0</ele><time>2026-04-25T13:17:55.926Z</time></trkpt><trkpt lat="44.6734115501382" lon="11.468020165587722"><ele>9.0</ele><time>2026-04-25T13:17:56.926Z</time></trkpt><trkpt lat="44.67315555290611" lon="11.46778010759652"><ele>9.0</ele><time>2026-04-25T13:17:57.926Z</time></trkpt><trkpt lat="44.67289505296087" lon="11.467536462790637"><ele>9.0</ele><time>2026-04-25T13:17:58.926Z</time></trkpt><trkpt lat="44.67264236836286" lon="11.467289503454007"><ele>9.0</ele><time>2026-04-25T13:17:59.926Z</time></trkpt><trkpt lat="44.67239162776219" lon="11.467044971338128"><ele>9.0</ele><time>2026-04-25T13:18:00.926Z</time></trkpt><trkpt lat="44.672143189811514" lon="11.466796022183924"><ele>9.0</ele><time>2026-04-25T13:18:01.926Z</time></trkpt><trkpt lat="44.671893593885024" lon="11.466544487602846"><ele>9.0</ele><time>2026-04-25T13:18:02.926Z</time></trkpt><trkpt lat="44.67164510400095" lon="11.466294789862244"><ele>9.0</ele><time>2026-04-25T13:18:03.926Z</time></trkpt><trkpt lat="44.67139885285552" lon="11.46604489643706"><ele>9.0</ele><time>2026-04-25T13:18:04.926Z</time></trkpt><trkpt lat="44.67115280299185" lon="11.46579557203556"><ele>9.0</ele><time>2026-04-25T13:18:05.926Z</time></trkpt><trkpt lat="44.67090252599531" lon="11.465544218360264"><ele>9.0</ele><time>2026-04-25T13:18:06.926Z</time></trkpt><trkpt lat="44.670651628112005" lon="11.46530455109565"><ele>9.0</ele><time>2026-04-25T13:18:07.926Z</time></trkpt><trkpt lat="44.67039764872536" lon="11.465060142045687"><ele>9.0</ele><time>2026-04-25T13:18:08.926Z</time></trkpt><trkpt lat="44.67014686599335" lon="11.464810612697619"><ele>9.0</ele><time>2026-04-25T13:18:09.926Z</time></trkpt><trkpt lat="44.66989641807294" lon="11.464559949085206"><ele>9.0</ele><time>2026-04-25T13:18:10.926Z</time></trkpt><trkpt lat="44.66964734926963" lon="11.464308755608492"><ele>9.0</ele><time>2026-04-25T13:18:11.926Z</time></trkpt><trkpt lat="44.669394978117225" lon="11.464059792961496"><ele>9.0</ele><time>2026-04-25T13:18:12.926Z</time></trkpt><trkpt lat="44.66914135293992" lon="11.463808674914509"><ele>9.0</ele><time>2026-04-25T13:18:13.926Z</time></trkpt><trkpt lat="44.66888411566105" lon="11.463559499447166"><ele>9.0</ele><time>2026-04-25T13:18:14.926Z</time></trkpt><trkpt lat="44.66862793520054" lon="11.463304690276303"><ele>9.0</ele><time>2026-04-25T13:18:15.926Z</time></trkpt><trkpt lat="44.66836641271421" lon="11.463057144036204"><ele>7.0</ele><time>2026-04-25T13:18:16.926Z</time></trkpt><trkpt lat="44.66811144834716" lon="11.462800841082394"><ele>5.0</ele><time>2026-04-25T13:18:17.926Z</time></trkpt><trkpt lat="44.667853055666114" lon="11.462561031981604"><ele>6.0</ele><time>2026-04-25T13:18:18.926Z</time></trkpt><trkpt lat="44.66760110520674" lon="11.462310317747095"><ele>7.0</ele><time>2026-04-25T13:18:19.925Z</time></trkpt><trkpt lat="44.667348323202084" lon="11.462062963937147"><ele>7.5</ele><time>2026-04-25T13:18:20.925Z</time></trkpt><trkpt lat="44.66709536812922" lon="11.461816559608494"><ele>8.0</ele><time>2026-04-25T13:18:21.925Z</time></trkpt><trkpt lat="44.66684020024044" lon="11.461575056840404"><ele>8.0</ele><time>2026-04-25T13:18:22.925Z</time></trkpt><trkpt lat="44.666588710977706" lon="11.461333408820936"><ele>8.0</ele><time>2026-04-25T13:18:23.925Z</time></trkpt><trkpt lat="44.66633415939466" lon="11.46108919979652"><ele>8.5</ele><time>2026-04-25T13:18:24.925Z</time></trkpt><trkpt lat="44.666079433115904" lon="11.46083574330529"><ele>9.0</ele><time>2026-04-25T13:18:25.925Z</time></trkpt><trkpt lat="44.665821354582924" lon="11.46057757541796"><ele>7.5</ele><time>2026-04-25T13:18:26.925Z</time></trkpt><trkpt lat="44.66555966798197" lon="11.460319936258776"><ele>6.0</ele><time>2026-04-25T13:18:27.925Z</time></trkpt><trkpt lat="44.66529615696957" lon="11.46005750782772"><ele>6.5</ele><time>2026-04-25T13:18:28.925Z</time></trkpt><trkpt lat="44.66503118709857" lon="11.459798063383367"><ele>7.0</ele><time>2026-04-25T13:18:29.925Z</time></trkpt><trkpt lat="44.66476177666598" lon="11.459540211897291"><ele>7.0</ele><time>2026-04-25T13:18:30.925Z</time></trkpt><trkpt lat="44.66449039435104" lon="11.459278247187623"><ele>7.0</ele><time>2026-04-25T13:18:31.925Z</time></trkpt><trkpt lat="44.6642175541723" lon="11.459014530892773"><ele>7.0</ele><time>2026-04-25T13:18:32.925Z</time></trkpt><trkpt lat="44.663944386058496" lon="11.458751169577239"><ele>7.0</ele><time>2026-04-25T13:18:33.925Z</time></trkpt><trkpt lat="44.6636698586615" lon="11.458486601734242"><ele>7.0</ele><time>2026-04-25T13:18:34.925Z</time></trkpt><trkpt lat="44.66339570447705" lon="11.458216311681978"><ele>7.0</ele><time>2026-04-25T13:18:35.925Z</time></trkpt><trkpt lat="44.663119558240645" lon="11.457941123047634"><ele>7.0</ele><time>2026-04-25T13:18:36.925Z</time></trkpt><trkpt lat="44.6628416174501" lon="11.457669528697048"><ele>7.0</ele><time>2026-04-25T13:18:37.925Z</time></trkpt><trkpt lat="44.66256353290881" lon="11.457391782003777"><ele>8.0</ele><time>2026-04-25T13:18:38.925Z</time></trkpt><trkpt lat="44.66228599232886" lon="11.45711800607999"><ele>9.0</ele><time>2026-04-25T13:18:39.925Z</time></trkpt><trkpt lat="44.662008019180426" lon="11.456850997644219"><ele>8.5</ele><time>2026-04-25T13:18:40.925Z</time></trkpt><trkpt lat="44.6617293076291" lon="11.4565855274259"><ele>8.0</ele><time>2026-04-25T13:18:41.925Z</time></trkpt><trkpt lat="44.661446141684465" lon="11.45632034600195"><ele>8.0</ele><time>2026-04-25T13:18:42.925Z</time></trkpt><trkpt lat="44.66116518732595" lon="11.456056379114852"><ele>8.0</ele><time>2026-04-25T13:18:43.925Z</time></trkpt><trkpt lat="44.66087679774817" lon="11.455795427319385"><ele>8.5</ele><time>2026-04-25T13:18:44.925Z</time></trkpt><trkpt lat="44.66058675522575" lon="11.455539834426466"><ele>9.0</ele><time>2026-04-25T13:18:45.925Z</time></trkpt><trkpt lat="44.660296753232686" lon="11.45527250463406"><ele>8.5</ele><time>2026-04-25T13:18:46.925Z</time></trkpt><trkpt lat="44.660024159440475" lon="11.454994560900584"><ele>8.0</ele><time>2026-04-25T13:18:47.925Z</time></trkpt><trkpt lat="44.65974292231794" lon="11.454722681487707"><ele>8.0</ele><time>2026-04-25T13:18:48.925Z</time></trkpt><trkpt lat="44.6594609250609" lon="11.45445673762886"><ele>8.0</ele><time>2026-04-25T13:18:49.925Z</time></trkpt><trkpt lat="44.659186647100526" lon="11.454174535272731"><ele>8.0</ele><time>2026-04-25T13:18:50.925Z</time></trkpt><trkpt lat="44.65889536187997" lon="11.453940089855545"><ele>8.0</ele><time>2026-04-25T13:18:51.925Z</time></trkpt><trkpt lat="44.65864711880847" lon="11.453587571217835"><ele>9.0</ele><time>2026-04-25T13:18:52.925Z</time></trkpt><trkpt lat="44.65836894876278" lon="11.453315219657176"><ele>10.0</ele><time>2026-04-25T13:18:53.925Z</time></trkpt><trkpt lat="44.658089737214524" lon="11.453042213174065"><ele>9.5</ele><time>2026-04-25T13:18:54.925Z</time></trkpt><trkpt lat="44.65781129513363" lon="11.452770707389886"><ele>9.0</ele><time>2026-04-25T13:18:55.925Z</time></trkpt><trkpt lat="44.65753020057974" lon="11.452496909787026"><ele>9.0</ele><time>2026-04-25T13:18:56.925Z</time></trkpt><trkpt lat="44.65724670696965" lon="11.452223873059733"><ele>9.0</ele><time>2026-04-25T13:18:57.925Z</time></trkpt><trkpt lat="44.656963044685455" lon="11.451948286909957"><ele>9.5</ele><time>2026-04-25T13:18:58.925Z</time></trkpt><trkpt lat="44.65668121670886" lon="11.451673495188311"><ele>10.0</ele><time>2026-04-25T13:18:59.925Z</time></trkpt><trkpt lat="44.65639816413996" lon="11.451398224589887"><ele>9.0</ele><time>2026-04-25T13:19:00.925Z</time></trkpt><trkpt lat="44.656115875453615" lon="11.451119605272062"><ele>8.0</ele><time>2026-04-25T13:19:01.925Z</time></trkpt><trkpt lat="44.655829804687244" lon="11.450841129543504"><ele>8.0</ele><time>2026-04-25T13:19:02.925Z</time></trkpt><trkpt lat="44.655543520453065" lon="11.450562453760963"><ele>8.0</ele><time>2026-04-25T13:19:03.925Z</time></trkpt><trkpt lat="44.655256462092936" lon="11.450283478104867"><ele>8.5</ele><time>2026-04-25T13:19:04.925Z</time></trkpt><trkpt lat="44.65497012800688" lon="11.450004885391694"><ele>9.0</ele><time>2026-04-25T13:19:05.925Z</time></trkpt><trkpt lat="44.65468319977991" lon="11.449729641688245"><ele>9.0</ele><time>2026-04-25T13:19:06.925Z</time></trkpt><trkpt lat="44.65439725258549" lon="11.449451788904035"><ele>9.0</ele><time>2026-04-25T13:19:07.925Z</time></trkpt><trkpt lat="44.65411305757703" lon="11.449176309594616"><ele>9.0</ele><time>2026-04-25T13:19:08.925Z</time></trkpt><trkpt lat="44.65382809966318" lon="11.448900723743108"><ele>9.0</ele><time>2026-04-25T13:19:09.925Z</time></trkpt><trkpt lat="44.6535520185784" lon="11.448633981824308"><ele>8.5</ele><time>2026-04-25T13:19:10.925Z</time></trkpt><trkpt lat="44.653280151539164" lon="11.448372643031911"><ele>8.0</ele><time>2026-04-25T13:19:11.925Z</time></trkpt><trkpt lat="44.65301190955723" lon="11.448121068533926"><ele>8.5</ele><time>2026-04-25T13:19:12.925Z</time></trkpt><trkpt lat="44.65274829547722" lon="11.447870437895949"><ele>9.0</ele><time>2026-04-25T13:19:13.925Z</time></trkpt><trkpt lat="44.6524923683559" lon="11.447635856918192"><ele>9.0</ele><time>2026-04-25T13:19:14.925Z</time></trkpt><trkpt lat="44.65222201774746" lon="11.447378678700895"><ele>9.0</ele><time>2026-04-25T13:19:15.925Z</time></trkpt><trkpt lat="44.651952624194315" lon="11.44711881918483"><ele>9.0</ele><time>2026-04-25T13:19:16.924Z</time></trkpt><trkpt lat="44.65168712335561" lon="11.446849598759716"><ele>9.0</ele><time>2026-04-25T13:19:17.924Z</time></trkpt><trkpt lat="44.65142007191718" lon="11.44657532028083"><ele>9.0</ele><time>2026-04-25T13:19:18.925Z</time></trkpt><trkpt lat="44.65115402085009" lon="11.44630628430116"><ele>9.0</ele><time>2026-04-25T13:19:19.925Z</time></trkpt><trkpt lat="44.650892387118596" lon="11.446034177527512"><ele>9.5</ele><time>2026-04-25T13:19:20.925Z</time></trkpt><trkpt lat="44.650628665592876" lon="11.445781083281316"><ele>10.0</ele><time>2026-04-25T13:19:21.925Z</time></trkpt><trkpt lat="44.65036699302387" lon="11.44553344671589"><ele>9.0</ele><time>2026-04-25T13:19:22.924Z</time></trkpt><trkpt lat="44.65010945521963" lon="11.445293338535663"><ele>8.0</ele><time>2026-04-25T13:19:23.924Z</time></trkpt><trkpt lat="44.6498764156469" lon="11.44505782526139"><ele>8.0</ele><time>2026-04-25T13:19:24.925Z</time></trkpt><trkpt lat="44.64964414723332" lon="11.444824083833666"><ele>8.0</ele><time>2026-04-25T13:19:25.924Z</time></trkpt><trkpt lat="44.649416720517074" lon="11.444594229966977"><ele>8.5</ele><time>2026-04-25T13:19:26.924Z</time></trkpt><trkpt lat="44.649177295721664" lon="11.444362406240295"><ele>9.0</ele><time>2026-04-25T13:19:27.924Z</time></trkpt><trkpt lat="44.64892720132455" lon="11.44412333334574"><ele>9.0</ele><time>2026-04-25T13:19:28.924Z</time></trkpt><trkpt lat="44.6486748082974" lon="11.443885194518378"><ele>9.0</ele><time>2026-04-25T13:19:29.924Z</time></trkpt><trkpt lat="44.64842128034152" lon="11.443641418570914"><ele>9.5</ele><time>2026-04-25T13:19:30.924Z</time></trkpt><trkpt lat="44.64816527681649" lon="11.443394119865161"><ele>10.0</ele><time>2026-04-25T13:19:31.924Z</time></trkpt><trkpt lat="44.647910467291325" lon="11.443143036320047"><ele>9.0</ele><time>2026-04-25T13:19:32.924Z</time></trkpt><trkpt lat="44.64766074790561" lon="11.442890111845475"><ele>8.0</ele><time>2026-04-25T13:19:33.924Z</time></trkpt><trkpt lat="44.64740755718648" lon="11.44264242488776"><ele>8.0</ele><time>2026-04-25T13:19:34.924Z</time></trkpt><trkpt lat="44.64715357347119" lon="11.442397059019331"><ele>8.0</ele><time>2026-04-25T13:19:35.924Z</time></trkpt><trkpt lat="44.646895879754545" lon="11.442152656385883"><ele>8.5</ele><time>2026-04-25T13:19:36.924Z</time></trkpt><trkpt lat="44.64664606884088" lon="11.4419219218166"><ele>9.0</ele><time>2026-04-25T13:19:37.924Z</time></trkpt><trkpt lat="44.646401411123485" lon="11.441693947615422"><ele>9.0</ele><time>2026-04-25T13:19:38.924Z</time></trkpt><trkpt lat="44.64615324810833" lon="11.44145975841651"><ele>9.0</ele><time>2026-04-25T13:19:39.924Z</time></trkpt><trkpt lat="44.645900832292945" lon="11.441220571594089"><ele>10.0</ele><time>2026-04-25T13:19:40.924Z</time></trkpt><trkpt lat="44.64564305620474" lon="11.440974449939455"><ele>11.0</ele><time>2026-04-25T13:19:41.924Z</time></trkpt><trkpt lat="44.6453848942092" lon="11.440724501216117"><ele>10.5</ele><time>2026-04-25T13:19:42.924Z</time></trkpt><trkpt lat="44.64512953156546" lon="11.440473889743666"><ele>10.0</ele><time>2026-04-25T13:19:43.924Z</time></trkpt><trkpt lat="44.64487250892874" lon="11.440211446017216"><ele>10.0</ele><time>2026-04-25T13:19:44.924Z</time></trkpt><trkpt lat="44.64461682539635" lon="11.439953975026338"><ele>10.0</ele><time>2026-04-25T13:19:45.924Z</time></trkpt><trkpt lat="44.64436786834393" lon="11.439698760477233"><ele>10.5</ele><time>2026-04-25T13:19:46.924Z</time></trkpt><trkpt lat="44.64411855707046" lon="11.439444406676774"><ele>11.0</ele><time>2026-04-25T13:19:47.924Z</time></trkpt><trkpt lat="44.64387276231134" lon="11.43920920051948"><ele>10.5</ele><time>2026-04-25T13:19:48.924Z</time></trkpt><trkpt lat="44.643629737578074" lon="11.438964070698873"><ele>10.0</ele><time>2026-04-25T13:19:49.924Z</time></trkpt><trkpt lat="44.643386189266394" lon="11.438727847924099"><ele>9.5</ele><time>2026-04-25T13:19:50.924Z</time></trkpt><trkpt lat="44.64314458489192" lon="11.438489523583241"><ele>9.0</ele><time>2026-04-25T13:19:51.924Z</time></trkpt><trkpt lat="44.64289840211083" lon="11.438256926775086"><ele>9.5</ele><time>2026-04-25T13:19:52.924Z</time></trkpt><trkpt lat="44.6426548326276" lon="11.438022717253705"><ele>10.0</ele><time>2026-04-25T13:19:53.924Z</time></trkpt><trkpt lat="44.64241086809497" lon="11.437792934797246"><ele>10.0</ele><time>2026-04-25T13:19:54.924Z</time></trkpt><trkpt lat="44.64216304606198" lon="11.43756443284886"><ele>10.0</ele><time>2026-04-25T13:19:55.924Z</time></trkpt><trkpt lat="44.641914954479134" lon="11.437338854106185"><ele>9.5</ele><time>2026-04-25T13:19:56.924Z</time></trkpt><trkpt lat="44.64166547924851" lon="11.43710401133644"><ele>9.0</ele><time>2026-04-25T13:19:57.924Z</time></trkpt><trkpt lat="44.64141459428914" lon="11.43688525028692"><ele>9.0</ele><time>2026-04-25T13:19:58.924Z</time></trkpt><trkpt lat="44.64115719929989" lon="11.43666146881755"><ele>9.0</ele><time>2026-04-25T13:19:59.924Z</time></trkpt><trkpt lat="44.64090306213599" lon="11.436435812752805"><ele>8.5</ele><time>2026-04-25T13:20:00.924Z</time></trkpt><trkpt lat="44.64064387894725" lon="11.4362080844032"><ele>8.0</ele><time>2026-04-25T13:20:01.924Z</time></trkpt><trkpt lat="44.640385896502174" lon="11.435986902600819"><ele>8.0</ele><time>2026-04-25T13:20:02.924Z</time></trkpt><trkpt lat="44.640129062111484" lon="11.435759316722395"><ele>8.0</ele><time>2026-04-25T13:20:03.924Z</time></trkpt><trkpt lat="44.63987360734452" lon="11.435529883006726"><ele>7.5</ele><time>2026-04-25T13:20:04.924Z</time></trkpt><trkpt lat="44.639617329000295" lon="11.435302389932717"><ele>7.0</ele><time>2026-04-25T13:20:05.924Z</time></trkpt><trkpt lat="44.639364169818464" lon="11.435077009241542"><ele>7.5</ele><time>2026-04-25T13:20:06.924Z</time></trkpt><trkpt lat="44.63911242981342" lon="11.434853557333517"><ele>8.0</ele><time>2026-04-25T13:20:07.924Z</time></trkpt><trkpt lat="44.638862497331644" lon="11.43462918091742"><ele>9.5</ele><time>2026-04-25T13:20:08.924Z</time></trkpt><trkpt lat="44.63861066157319" lon="11.434409859252627"><ele>11.0</ele><time>2026-04-25T13:20:09.924Z</time></trkpt><trkpt lat="44.638363649669714" lon="11.434191971055235"><ele>11.0</ele><time>2026-04-25T13:20:10.924Z</time></trkpt><trkpt lat="44.6381212104994" lon="11.433978364166594"><ele>11.0</ele><time>2026-04-25T13:20:11.924Z</time></trkpt><trkpt lat="44.637883634498685" lon="11.433764841423384"><ele>12.0</ele><time>2026-04-25T13:20:12.924Z</time></trkpt><trkpt lat="44.63763860987874" lon="11.43354885707572"><ele>13.0</ele><time>2026-04-25T13:20:13.924Z</time></trkpt><trkpt lat="44.63739507495121" lon="11.433333974965239"><ele>13.0</ele><time>2026-04-25T13:20:14.924Z</time></trkpt><trkpt lat="44.637150575407034" lon="11.433119384966465"><ele>13.0</ele><time>2026-04-25T13:20:15.924Z</time></trkpt><trkpt lat="44.63690680518818" lon="11.432905874667545"><ele>12.0</ele><time>2026-04-25T13:20:16.924Z</time></trkpt><trkpt lat="44.63665981476948" lon="11.432688317580828"><ele>11.0</ele><time>2026-04-25T13:20:17.924Z</time></trkpt><trkpt lat="44.636410357909" lon="11.432471298579873"><ele>11.0</ele><time>2026-04-25T13:20:18.924Z</time></trkpt><trkpt lat="44.63616244792095" lon="11.432252776403903"><ele>11.0</ele><time>2026-04-25T13:20:19.923Z</time></trkpt><trkpt lat="44.63591470160689" lon="11.432035051584963"><ele>11.5</ele><time>2026-04-25T13:20:20.923Z</time></trkpt><trkpt lat="44.635665344824446" lon="11.431816061054054"><ele>12.0</ele><time>2026-04-25T13:20:21.923Z</time></trkpt><trkpt lat="44.63540807274875" lon="11.431586066807972"><ele>12.5</ele><time>2026-04-25T13:20:22.923Z</time></trkpt><trkpt lat="44.635161225618354" lon="11.431375503648292"><ele>13.0</ele><time>2026-04-25T13:20:23.923Z</time></trkpt><trkpt lat="44.63491220119648" lon="11.431152779289897"><ele>13.5</ele><time>2026-04-25T13:20:24.923Z</time></trkpt><trkpt lat="44.63466004646962" lon="11.430924688940975"><ele>14.0</ele><time>2026-04-25T13:20:25.923Z</time></trkpt><trkpt lat="44.63441261584763" lon="11.430703381729726"><ele>14.0</ele><time>2026-04-25T13:20:26.923Z</time></trkpt><trkpt lat="44.6341603429984" lon="11.430482727123513"><ele>14.0</ele><time>2026-04-25T13:20:27.923Z</time></trkpt><trkpt lat="44.63391134667481" lon="11.43026406939854"><ele>14.0</ele><time>2026-04-25T13:20:28.923Z</time></trkpt><trkpt lat="44.633665736949325" lon="11.430037217861457"><ele>14.0</ele><time>2026-04-25T13:20:29.923Z</time></trkpt><trkpt lat="44.63341384720452" lon="11.429822580121069"><ele>11.5</ele><time>2026-04-25T13:20:30.923Z</time></trkpt><trkpt lat="44.633164149358244" lon="11.429604232962069"><ele>9.0</ele><time>2026-04-25T13:20:31.923Z</time></trkpt><trkpt lat="44.63291412259466" lon="11.42938601951782"><ele>10.5</ele><time>2026-04-25T13:20:32.923Z</time></trkpt><trkpt lat="44.632664155949804" lon="11.429166333830858"><ele>12.0</ele><time>2026-04-25T13:20:33.923Z</time></trkpt><trkpt lat="44.63241324065594" lon="11.428936789146631"><ele>13.0</ele><time>2026-04-25T13:20:34.923Z</time></trkpt><trkpt lat="44.632161443863225" lon="11.428718208656562"><ele>14.0</ele><time>2026-04-25T13:20:35.923Z</time></trkpt><trkpt lat="44.63190902697837" lon="11.428494535735544"><ele>14.0</ele><time>2026-04-25T13:20:36.923Z</time></trkpt><trkpt lat="44.63165612387266" lon="11.42827299969836"><ele>14.0</ele><time>2026-04-25T13:20:37.923Z</time></trkpt><trkpt lat="44.6313948981556" lon="11.428054833245607"><ele>12.5</ele><time>2026-04-25T13:20:38.923Z</time></trkpt><trkpt lat="44.63113981581927" lon="11.427824008847997"><ele>11.0</ele><time>2026-04-25T13:20:39.923Z</time></trkpt><trkpt lat="44.63088567148474" lon="11.427600373275789"><ele>11.0</ele><time>2026-04-25T13:20:40.923Z</time></trkpt><trkpt lat="44.630627989183125" lon="11.427379762775145"><ele>11.0</ele><time>2026-04-25T13:20:41.923Z</time></trkpt><trkpt lat="44.63037047944048" lon="11.427160328298752"><ele>11.5</ele><time>2026-04-25T13:20:42.923Z</time></trkpt><trkpt lat="44.63011288385078" lon="11.426939395557437"><ele>12.0</ele><time>2026-04-25T13:20:43.923Z</time></trkpt><trkpt lat="44.629855128183216" lon="11.426718070214068"><ele>12.0</ele><time>2026-04-25T13:20:44.923Z</time></trkpt><trkpt lat="44.629598639644804" lon="11.426502062370945"><ele>12.0</ele><time>2026-04-25T13:20:45.923Z</time></trkpt><trkpt lat="44.6293422651884" lon="11.426278832334797"><ele>12.5</ele><time>2026-04-25T13:20:46.923Z</time></trkpt><trkpt lat="44.62908636080735" lon="11.426062477608228"><ele>13.0</ele><time>2026-04-25T13:20:47.923Z</time></trkpt><trkpt lat="44.62882834294167" lon="11.425836066289568"><ele>13.0</ele><time>2026-04-25T13:20:48.923Z</time></trkpt><trkpt lat="44.62857463805868" lon="11.425604889534949"><ele>13.0</ele><time>2026-04-25T13:20:49.923Z</time></trkpt><trkpt lat="44.62832383030256" lon="11.425375713634253"><ele>13.5</ele><time>2026-04-25T13:20:50.923Z</time></trkpt><trkpt lat="44.628073662668555" lon="11.425152431104399"><ele>14.0</ele><time>2026-04-25T13:20:51.923Z</time></trkpt><trkpt lat="44.62781947630717" lon="11.424930128918357"><ele>14.0</ele><time>2026-04-25T13:20:52.923Z</time></trkpt><trkpt lat="44.627566159143996" lon="11.424708233912702"><ele>14.0</ele><time>2026-04-25T13:20:53.923Z</time></trkpt><trkpt lat="44.627311959397346" lon="11.424486456430442"><ele>14.0</ele><time>2026-04-25T13:20:54.923Z</time></trkpt><trkpt lat="44.62705872130471" lon="11.42426527093352"><ele>14.0</ele><time>2026-04-25T13:20:55.923Z</time></trkpt><trkpt lat="44.62680229533518" lon="11.424040096056139"><ele>14.0</ele><time>2026-04-25T13:20:56.923Z</time></trkpt><trkpt lat="44.62655075135338" lon="11.423816172442557"><ele>14.0</ele><time>2026-04-25T13:20:57.923Z</time></trkpt><trkpt lat="44.62630135243112" lon="11.423598958620607"><ele>14.5</ele><time>2026-04-25T13:20:58.923Z</time></trkpt><trkpt lat="44.62605447715146" lon="11.42338150578679"><ele>15.0</ele><time>2026-04-25T13:20:59.923Z</time></trkpt><trkpt lat="44.625806717876735" lon="11.42315922999104"><ele>15.0</ele><time>2026-04-25T13:21:00.923Z</time></trkpt><trkpt lat="44.6255626046778" lon="11.422933412325072"><ele>15.0</ele><time>2026-04-25T13:21:01.923Z</time></trkpt><trkpt lat="44.6253121931564" lon="11.422711488170052"><ele>15.0</ele><time>2026-04-25T13:21:02.923Z</time></trkpt><trkpt lat="44.62505513463066" lon="11.422483834768272"><ele>15.0</ele><time>2026-04-25T13:21:03.923Z</time></trkpt><trkpt lat="44.62480153125461" lon="11.42225739713657"><ele>16.0</ele><time>2026-04-25T13:21:04.923Z</time></trkpt><trkpt lat="44.624544708365306" lon="11.422030485827639"><ele>17.0</ele><time>2026-04-25T13:21:05.923Z</time></trkpt><trkpt lat="44.62428542265487" lon="11.421807255605499"><ele>17.5</ele><time>2026-04-25T13:21:06.923Z</time></trkpt><trkpt lat="44.624027352629994" lon="11.421579445827549"><ele>18.0</ele><time>2026-04-25T13:21:07.923Z</time></trkpt><trkpt lat="44.623770025983724" lon="11.421355287817802"><ele>17.0</ele><time>2026-04-25T13:21:08.923Z</time></trkpt><trkpt lat="44.62351402463916" lon="11.421128185018972"><ele>16.0</ele><time>2026-04-25T13:21:09.923Z</time></trkpt><trkpt lat="44.623259415188734" lon="11.420899917069217"><ele>16.0</ele><time>2026-04-25T13:21:10.923Z</time></trkpt><trkpt lat="44.623002866713655" lon="11.420671947499926"><ele>16.0</ele><time>2026-04-25T13:21:11.923Z</time></trkpt><trkpt lat="44.62274483920706" lon="11.420442955680405"><ele>15.5</ele><time>2026-04-25T13:21:12.923Z</time></trkpt><trkpt lat="44.62248686596015" lon="11.420214997445619"><ele>15.0</ele><time>2026-04-25T13:21:13.923Z</time></trkpt><trkpt lat="44.622230921947434" lon="11.419983914355297"><ele>15.5</ele><time>2026-04-25T13:21:14.923Z</time></trkpt><trkpt lat="44.621967849766946" lon="11.419762094481138"><ele>16.0</ele><time>2026-04-25T13:21:15.922Z</time></trkpt><trkpt lat="44.62170540600841" lon="11.41953729055328"><ele>16.5</ele><time>2026-04-25T13:21:16.922Z</time></trkpt><trkpt lat="44.62145086043678" lon="11.419318552970582"><ele>17.0</ele><time>2026-04-25T13:21:17.922Z</time></trkpt><trkpt lat="44.62120443404399" lon="11.419106519633164"><ele>16.5</ele><time>2026-04-25T13:21:18.922Z</time></trkpt><trkpt lat="44.62096034768196" lon="11.418907214903145"><ele>16.0</ele><time>2026-04-25T13:21:19.922Z</time></trkpt><trkpt lat="44.62072007761383" lon="11.418718414336217"><ele>16.0</ele><time>2026-04-25T13:21:20.922Z</time></trkpt><trkpt lat="44.620474130753784" lon="11.418533570340905"><ele>16.0</ele><time>2026-04-25T13:21:21.922Z</time></trkpt><trkpt lat="44.620222500109115" lon="11.418348931639358"><ele>16.0</ele><time>2026-04-25T13:21:22.922Z</time></trkpt><trkpt lat="44.61996186253419" lon="11.418164095286185"><ele>16.0</ele><time>2026-04-25T13:21:23.922Z</time></trkpt><trkpt lat="44.61969495663698" lon="11.417981245460124"><ele>14.5</ele><time>2026-04-25T13:21:24.923Z</time></trkpt><trkpt lat="44.61942509512609" lon="11.417800940119534"><ele>13.0</ele><time>2026-04-25T13:21:25.922Z</time></trkpt><trkpt lat="44.61914941232475" lon="11.417623890623828"><ele>13.0</ele><time>2026-04-25T13:21:26.922Z</time></trkpt><trkpt lat="44.61887226203316" lon="11.417451371400752"><ele>13.0</ele><time>2026-04-25T13:21:27.922Z</time></trkpt><trkpt lat="44.61859326427298" lon="11.417274990337377"><ele>12.5</ele><time>2026-04-25T13:21:28.922Z</time></trkpt><trkpt lat="44.618316199736874" lon="11.41710570540223"><ele>12.0</ele><time>2026-04-25T13:21:29.922Z</time></trkpt><trkpt lat="44.61803820830308" lon="11.416938792380913"><ele>13.0</ele><time>2026-04-25T13:21:30.922Z</time></trkpt><trkpt lat="44.61775557032782" lon="11.416777057678061"><ele>14.0</ele><time>2026-04-25T13:21:31.922Z</time></trkpt><trkpt lat="44.617470935220055" lon="11.416613307970783"><ele>14.0</ele><time>2026-04-25T13:21:32.922Z</time></trkpt><trkpt lat="44.61719103032165" lon="11.416442318859392"><ele>14.0</ele><time>2026-04-25T13:21:33.922Z</time></trkpt><trkpt lat="44.616909500895204" lon="11.416273283368648"><ele>14.0</ele><time>2026-04-25T13:21:34.922Z</time></trkpt><trkpt lat="44.61663285312673" lon="11.41610690853357"><ele>14.0</ele><time>2026-04-25T13:21:35.922Z</time></trkpt><trkpt lat="44.616355029420575" lon="11.415941006254808"><ele>14.5</ele><time>2026-04-25T13:21:36.922Z</time></trkpt><trkpt lat="44.61607753900864" lon="11.415775717934356"><ele>15.0</ele><time>2026-04-25T13:21:37.922Z</time></trkpt><trkpt lat="44.61580054170036" lon="11.415608740474369"><ele>15.0</ele><time>2026-04-25T13:21:38.922Z</time></trkpt><trkpt lat="44.615521102371666" lon="11.415441957488499"><ele>15.0</ele><time>2026-04-25T13:21:39.922Z</time></trkpt><trkpt lat="44.61523990190984" lon="11.415271972480996"><ele>15.0</ele><time>2026-04-25T13:21:40.922Z</time></trkpt><trkpt lat="44.614955910664705" lon="11.415103044096691"><ele>15.0</ele><time>2026-04-25T13:21:41.922Z</time></trkpt><trkpt lat="44.61467307518159" lon="11.41493866392704"><ele>15.5</ele><time>2026-04-25T13:21:42.922Z</time></trkpt><trkpt lat="44.614392872530864" lon="11.414764974134032"><ele>16.0</ele><time>2026-04-25T13:21:43.922Z</time></trkpt><trkpt lat="44.61411187032488" lon="11.41460470932658"><ele>16.5</ele><time>2026-04-25T13:21:44.922Z</time></trkpt><trkpt lat="44.61383283324696" lon="11.41443785694108"><ele>17.0</ele><time>2026-04-25T13:21:45.922Z</time></trkpt><trkpt lat="44.61355290327543" lon="11.414271879241415"><ele>17.0</ele><time>2026-04-25T13:21:46.922Z</time></trkpt><trkpt lat="44.61327328493208" lon="11.414099065501661"><ele>17.0</ele><time>2026-04-25T13:21:47.922Z</time></trkpt><trkpt lat="44.612993486156576" lon="11.413932875721192"><ele>15.5</ele><time>2026-04-25T13:21:48.922Z</time></trkpt><trkpt lat="44.61271452369978" lon="11.413765405236763"><ele>14.0</ele><time>2026-04-25T13:21:49.922Z</time></trkpt><trkpt lat="44.61243190177271" lon="11.413600961634291"><ele>14.0</ele><time>2026-04-25T13:21:50.922Z</time></trkpt><trkpt lat="44.6121501571658" lon="11.41343416967507"><ele>14.0</ele><time>2026-04-25T13:21:51.922Z</time></trkpt><trkpt lat="44.61186282942865" lon="11.41326859090443"><ele>14.5</ele><time>2026-04-25T13:21:52.922Z</time></trkpt><trkpt lat="44.61157474047382" lon="11.41310048291502"><ele>15.0</ele><time>2026-04-25T13:21:53.922Z</time></trkpt><trkpt lat="44.61128694647906" lon="11.412924097847403"><ele>16.0</ele><time>2026-04-25T13:21:54.922Z</time></trkpt><trkpt lat="44.61100125723337" lon="11.412748924496995"><ele>17.0</ele><time>2026-04-25T13:21:55.922Z</time></trkpt><trkpt lat="44.61071543470899" lon="11.412575620345029"><ele>17.0</ele><time>2026-04-25T13:21:56.922Z</time></trkpt><trkpt lat="44.61043342364617" lon="11.412404589574766"><ele>17.0</ele><time>2026-04-25T13:21:57.922Z</time></trkpt><trkpt lat="44.610156132898446" lon="11.412231992496576"><ele>16.5</ele><time>2026-04-25T13:21:58.922Z</time></trkpt><trkpt lat="44.60987323101736" lon="11.412070670496755"><ele>16.0</ele><time>2026-04-25T13:21:59.922Z</time></trkpt><trkpt lat="44.60958941854843" lon="11.411907808282148"><ele>16.0</ele><time>2026-04-25T13:22:00.922Z</time></trkpt><trkpt lat="44.60930845851865" lon="11.411747003702118"><ele>16.0</ele><time>2026-04-25T13:22:01.922Z</time></trkpt><trkpt lat="44.609032180305256" lon="11.411587336670586"><ele>16.0</ele><time>2026-04-25T13:22:02.921Z</time></trkpt><trkpt lat="44.60874990945461" lon="11.411418095100972"><ele>16.0</ele><time>2026-04-25T13:22:03.921Z</time></trkpt><trkpt lat="44.60846695202714" lon="11.411241450868141"><ele>16.0</ele><time>2026-04-25T13:22:04.921Z</time></trkpt><trkpt lat="44.60818272188804" lon="11.411065834715822"><ele>16.0</ele><time>2026-04-25T13:22:05.921Z</time></trkpt><trkpt lat="44.607897840175795" lon="11.41089074905971"><ele>16.0</ele><time>2026-04-25T13:22:06.921Z</time></trkpt><trkpt lat="44.60762022692154" lon="11.410720616931327"><ele>16.0</ele><time>2026-04-25T13:22:07.921Z</time></trkpt><trkpt lat="44.607346008056716" lon="11.4105441388206"><ele>16.0</ele><time>2026-04-25T13:22:08.921Z</time></trkpt><trkpt lat="44.607070854160554" lon="11.410368422363964"><ele>16.0</ele><time>2026-04-25T13:22:09.921Z</time></trkpt><trkpt lat="44.60679646626311" lon="11.4101922195715"><ele>17.5</ele><time>2026-04-25T13:22:10.921Z</time></trkpt><trkpt lat="44.60652485205045" lon="11.410023671012203"><ele>19.0</ele><time>2026-04-25T13:22:11.921Z</time></trkpt><trkpt lat="44.6062577158215" lon="11.40985524798252"><ele>18.0</ele><time>2026-04-25T13:22:12.921Z</time></trkpt><trkpt lat="44.605984321983" lon="11.409683832668783"><ele>17.0</ele><time>2026-04-25T13:22:13.921Z</time></trkpt><trkpt lat="44.60571096310197" lon="11.409507055673355"><ele>16.5</ele><time>2026-04-25T13:22:14.921Z</time></trkpt><trkpt lat="44.60543874946434" lon="11.409330450671805"><ele>16.0</ele><time>2026-04-25T13:22:15.921Z</time></trkpt><trkpt lat="44.60516361180273" lon="11.409152679357355"><ele>16.0</ele><time>2026-04-25T13:22:16.921Z</time></trkpt><trkpt lat="44.60489251063821" lon="11.408971552483356"><ele>16.0</ele><time>2026-04-25T13:22:17.921Z</time></trkpt><trkpt lat="44.60462296718975" lon="11.40879817354076"><ele>16.5</ele><time>2026-04-25T13:22:18.921Z</time></trkpt><trkpt lat="44.604353058958516" lon="11.408618089286879"><ele>17.0</ele><time>2026-04-25T13:22:19.921Z</time></trkpt><trkpt lat="44.60407936726053" lon="11.408431139736106"><ele>17.0</ele><time>2026-04-25T13:22:20.921Z</time></trkpt><trkpt lat="44.60380574507372" lon="11.408250377969646"><ele>17.0</ele><time>2026-04-25T13:22:21.921Z</time></trkpt><trkpt lat="44.60353326528739" lon="11.408070858578537"><ele>18.0</ele><time>2026-04-25T13:22:22.921Z</time></trkpt><trkpt lat="44.603263262640695" lon="11.407889192159727"><ele>19.0</ele><time>2026-04-25T13:22:23.921Z</time></trkpt><trkpt lat="44.60299289677197" lon="11.407713735167013"><ele>19.5</ele><time>2026-04-25T13:22:24.921Z</time></trkpt><trkpt lat="44.602722205862015" lon="11.40753497148738"><ele>20.0</ele><time>2026-04-25T13:22:25.921Z</time></trkpt><trkpt lat="44.60245333308054" lon="11.407357463385662"><ele>20.0</ele><time>2026-04-25T13:22:26.921Z</time></trkpt><trkpt lat="44.602189622772606" lon="11.40718434150864"><ele>20.0</ele><time>2026-04-25T13:22:27.921Z</time></trkpt><trkpt lat="44.60192409100761" lon="11.407011758392946"><ele>19.5</ele><time>2026-04-25T13:22:28.921Z</time></trkpt><trkpt lat="44.60165917858473" lon="11.406838028215091"><ele>19.0</ele><time>2026-04-25T13:22:29.921Z</time></trkpt><trkpt lat="44.6013977695292" lon="11.406668155309855"><ele>18.5</ele><time>2026-04-25T13:22:30.921Z</time></trkpt><trkpt lat="44.60113724352361" lon="11.406493762294845"><ele>18.0</ele><time>2026-04-25T13:22:31.921Z</time></trkpt><trkpt lat="44.60087249642576" lon="11.406316750110271"><ele>18.0</ele><time>2026-04-25T13:22:32.921Z</time></trkpt><trkpt lat="44.60060281317555" lon="11.406141329483717"><ele>18.0</ele><time>2026-04-25T13:22:33.921Z</time></trkpt><trkpt lat="44.60033173076695" lon="11.405971206365402"><ele>18.0</ele><time>2026-04-25T13:22:34.921Z</time></trkpt><trkpt lat="44.60006165901362" lon="11.40579888457179"><ele>18.0</ele><time>2026-04-25T13:22:35.921Z</time></trkpt><trkpt lat="44.59979349364661" lon="11.40562550559474"><ele>18.0</ele><time>2026-04-25T13:22:36.921Z</time></trkpt><trkpt lat="44.59952401021374" lon="11.405449400030388"><ele>18.0</ele><time>2026-04-25T13:22:37.921Z</time></trkpt><trkpt lat="44.59925594266715" lon="11.405270353314275"><ele>18.0</ele><time>2026-04-25T13:22:38.921Z</time></trkpt><trkpt lat="44.598983638978005" lon="11.405088661748332"><ele>18.0</ele><time>2026-04-25T13:22:39.921Z</time></trkpt><trkpt lat="44.598714609573015" lon="11.404907512809014"><ele>18.5</ele><time>2026-04-25T13:22:40.921Z</time></trkpt><trkpt lat="44.59844091293167" lon="11.404726793254827"><ele>19.0</ele><time>2026-04-25T13:22:41.921Z</time></trkpt><trkpt lat="44.59817096731708" lon="11.40454063805317"><ele>19.5</ele><time>2026-04-25T13:22:42.921Z</time></trkpt><trkpt lat="44.59789317620998" lon="11.404358041338478"><ele>20.0</ele><time>2026-04-25T13:22:43.921Z</time></trkpt><trkpt lat="44.59762032582675" lon="11.404176030831003"><ele>20.0</ele><time>2026-04-25T13:22:44.921Z</time></trkpt><trkpt lat="44.597342588335955" lon="11.403996301196706"><ele>20.0</ele><time>2026-04-25T13:22:45.921Z</time></trkpt><trkpt lat="44.597068517427616" lon="11.40381252752738"><ele>20.0</ele><time>2026-04-25T13:22:46.921Z</time></trkpt><trkpt lat="44.59678727389248" lon="11.403632990861617"><ele>20.0</ele><time>2026-04-25T13:22:47.921Z</time></trkpt><trkpt lat="44.59651370118277" lon="11.403451658520023"><ele>20.0</ele><time>2026-04-25T13:22:48.921Z</time></trkpt><trkpt lat="44.596239597001954" lon="11.403269660260541"><ele>20.0</ele><time>2026-04-25T13:22:49.921Z</time></trkpt><trkpt lat="44.595965290558794" lon="11.40309464315586"><ele>20.0</ele><time>2026-04-25T13:22:50.921Z</time></trkpt><trkpt lat="44.59569249597427" lon="11.402912401556117"><ele>20.0</ele><time>2026-04-25T13:22:51.921Z</time></trkpt><trkpt lat="44.595413011642336" lon="11.402728767827428"><ele>19.5</ele><time>2026-04-25T13:22:52.921Z</time></trkpt><trkpt lat="44.59513343436118" lon="11.402544658680972"><ele>19.0</ele><time>2026-04-25T13:22:53.921Z</time></trkpt><trkpt lat="44.59485227179285" lon="11.402359684874698"><ele>19.0</ele><time>2026-04-25T13:22:54.921Z</time></trkpt><trkpt lat="44.59457375928249" lon="11.40217346078275"><ele>19.0</ele><time>2026-04-25T13:22:55.921Z</time></trkpt><trkpt lat="44.59429265754157" lon="11.401986923743058"><ele>19.5</ele><time>2026-04-25T13:22:56.921Z</time></trkpt><trkpt lat="44.59401008116855" lon="11.401800672875195"><ele>20.0</ele><time>2026-04-25T13:22:57.921Z</time></trkpt><trkpt lat="44.593728550803995" lon="11.401617166837775"><ele>20.0</ele><time>2026-04-25T13:22:58.921Z</time></trkpt><trkpt lat="44.593450755892604" lon="11.401436002606205"><ele>20.0</ele><time>2026-04-25T13:22:59.92Z</time></trkpt><trkpt lat="44.593177176905485" lon="11.401252145832796"><ele>20.0</ele><time>2026-04-25T13:23:00.92Z</time></trkpt><trkpt lat="44.59290498712948" lon="11.401079109371116"><ele>20.0</ele><time>2026-04-25T13:23:01.92Z</time></trkpt><trkpt lat="44.592629670187435" lon="11.400909255693234"><ele>20.0</ele><time>2026-04-25T13:23:02.92Z</time></trkpt><trkpt lat="44.59236195262072" lon="11.400736011402316"><ele>20.0</ele><time>2026-04-25T13:23:03.92Z</time></trkpt><trkpt lat="44.5920907748034" lon="11.400557618151929"><ele>21.0</ele><time>2026-04-25T13:23:04.92Z</time></trkpt><trkpt lat="44.591816403824296" lon="11.400369813000182"><ele>22.0</ele><time>2026-04-25T13:23:05.92Z</time></trkpt><trkpt lat="44.59153961159632" lon="11.400185375302101"><ele>22.0</ele><time>2026-04-25T13:23:06.92Z</time></trkpt><trkpt lat="44.59126845035838" lon="11.400000386542134"><ele>22.0</ele><time>2026-04-25T13:23:07.92Z</time></trkpt><trkpt lat="44.59099308584647" lon="11.399815420266794"><ele>22.0</ele><time>2026-04-25T13:23:08.92Z</time></trkpt><trkpt lat="44.59072267639878" lon="11.399637865948016"><ele>22.0</ele><time>2026-04-25T13:23:09.92Z</time></trkpt><trkpt lat="44.590450882867" lon="11.399463606409624"><ele>21.5</ele><time>2026-04-25T13:23:10.92Z</time></trkpt><trkpt lat="44.59017957271071" lon="11.399285004781614"><ele>21.0</ele><time>2026-04-25T13:23:11.92Z</time></trkpt><trkpt lat="44.58990864919286" lon="11.399103689326111"><ele>21.0</ele><time>2026-04-25T13:23:12.92Z</time></trkpt><trkpt lat="44.58963615066301" lon="11.398923647226546"><ele>21.0</ele><time>2026-04-25T13:23:13.92Z</time></trkpt><trkpt lat="44.589364725486774" lon="11.398743634949554"><ele>21.0</ele><time>2026-04-25T13:23:14.92Z</time></trkpt><trkpt lat="44.58909130927489" lon="11.398561615148376"><ele>21.0</ele><time>2026-04-25T13:23:15.92Z</time></trkpt><trkpt lat="44.588818034638074" lon="11.398377240359489"><ele>21.0</ele><time>2026-04-25T13:23:16.92Z</time></trkpt><trkpt lat="44.588540723345936" lon="11.39819965673308"><ele>21.0</ele><time>2026-04-25T13:23:17.92Z</time></trkpt><trkpt lat="44.58826558597311" lon="11.398025155811816"><ele>20.5</ele><time>2026-04-25T13:23:18.92Z</time></trkpt><trkpt lat="44.58799393833022" lon="11.397850180979631"><ele>20.0</ele><time>2026-04-25T13:23:19.92Z</time></trkpt><trkpt lat="44.587726321774745" lon="11.397675731571852"><ele>21.0</ele><time>2026-04-25T13:23:20.92Z</time></trkpt><trkpt lat="44.587460777821896" lon="11.397502190715214"><ele>22.0</ele><time>2026-04-25T13:23:21.92Z</time></trkpt><trkpt lat="44.58719335937408" lon="11.397331912367932"><ele>20.5</ele><time>2026-04-25T13:23:22.92Z</time></trkpt><trkpt lat="44.586922313503905" lon="11.397155908943335"><ele>19.0</ele><time>2026-04-25T13:23:23.92Z</time></trkpt><trkpt lat="44.58665313501057" lon="11.396975349844187"><ele>19.0</ele><time>2026-04-25T13:23:24.92Z</time></trkpt><trkpt lat="44.58638249263046" lon="11.396798457874535"><ele>19.0</ele><time>2026-04-25T13:23:25.92Z</time></trkpt><trkpt lat="44.586113464182425" lon="11.396618962612141"><ele>19.5</ele><time>2026-04-25T13:23:26.92Z</time></trkpt><trkpt lat="44.58584187455045" lon="11.396442759507737"><ele>20.0</ele><time>2026-04-25T13:23:27.921Z</time></trkpt><trkpt lat="44.58556861484597" lon="11.39626572871831"><ele>21.0</ele><time>2026-04-25T13:23:28.92Z</time></trkpt><trkpt lat="44.58529883368266" lon="11.3960861983454"><ele>22.0</ele><time>2026-04-25T13:23:29.92Z</time></trkpt><trkpt lat="44.585025336584" lon="11.39590599439027"><ele>22.0</ele><time>2026-04-25T13:23:30.92Z</time></trkpt><trkpt lat="44.58475353497298" lon="11.395723723808322"><ele>22.0</ele><time>2026-04-25T13:23:31.92Z</time></trkpt><trkpt lat="44.58448253037591" lon="11.395543307286191"><ele>22.5</ele><time>2026-04-25T13:23:32.92Z</time></trkpt><trkpt lat="44.58421824933976" lon="11.39536531257977"><ele>23.0</ele><time>2026-04-25T13:23:33.92Z</time></trkpt><trkpt lat="44.58395421334899" lon="11.395193678287388"><ele>23.0</ele><time>2026-04-25T13:23:34.92Z</time></trkpt><trkpt lat="44.583693064451325" lon="11.395017687687053"><ele>23.0</ele><time>2026-04-25T13:23:35.92Z</time></trkpt><trkpt lat="44.58343102880569" lon="11.394846395741087"><ele>23.5</ele><time>2026-04-25T13:23:36.92Z</time></trkpt><trkpt lat="44.58316709122053" lon="11.394675687124247"><ele>24.0</ele><time>2026-04-25T13:23:37.92Z</time></trkpt><trkpt lat="44.582897130909096" lon="11.394500038639839"><ele>23.0</ele><time>2026-04-25T13:23:38.92Z</time></trkpt><trkpt lat="44.58262427866671" lon="11.394323705644899"><ele>22.0</ele><time>2026-04-25T13:23:39.92Z</time></trkpt><trkpt lat="44.58235400086703" lon="11.394142400612418"><ele>22.0</ele><time>2026-04-25T13:23:40.92Z</time></trkpt><trkpt lat="44.582079890819664" lon="11.393960286255968"><ele>22.0</ele><time>2026-04-25T13:23:41.92Z</time></trkpt><trkpt lat="44.58181164466961" lon="11.393783042780514"><ele>21.5</ele><time>2026-04-25T13:23:42.92Z</time></trkpt><trkpt lat="44.5815385558307" lon="11.393603377088438"><ele>21.0</ele><time>2026-04-25T13:23:43.92Z</time></trkpt><trkpt lat="44.581263954078615" lon="11.393422540594955"><ele>20.5</ele><time>2026-04-25T13:23:44.92Z</time></trkpt><trkpt lat="44.58098895658714" lon="11.393240632813516"><ele>20.0</ele><time>2026-04-25T13:23:45.92Z</time></trkpt><trkpt lat="44.58071343876352" lon="11.393057611446348"><ele>19.5</ele><time>2026-04-25T13:23:46.92Z</time></trkpt><trkpt lat="44.58044046017349" lon="11.39287511322701"><ele>19.0</ele><time>2026-04-25T13:23:47.92Z</time></trkpt><trkpt lat="44.58016823808772" lon="11.39269985071473"><ele>20.0</ele><time>2026-04-25T13:23:48.92Z</time></trkpt><trkpt lat="44.5798998946887" lon="11.392532618379088"><ele>21.0</ele><time>2026-04-25T13:23:49.92Z</time></trkpt><trkpt lat="44.57963223252056" lon="11.392358851019845"><ele>21.5</ele><time>2026-04-25T13:23:50.92Z</time></trkpt><trkpt lat="44.579368206125885" lon="11.392190895498928"><ele>22.0</ele><time>2026-04-25T13:23:51.92Z</time></trkpt><trkpt lat="44.57910146855144" lon="11.392021304783947"><ele>21.0</ele><time>2026-04-25T13:23:52.92Z</time></trkpt><trkpt lat="44.57882908524985" lon="11.391852190182579"><ele>20.0</ele><time>2026-04-25T13:23:53.92Z</time></trkpt><trkpt lat="44.57855333671485" lon="11.391685688685262"><ele>20.0</ele><time>2026-04-25T13:23:54.92Z</time></trkpt><trkpt lat="44.578279767372145" lon="11.391514968572857"><ele>20.0</ele><time>2026-04-25T13:23:55.92Z</time></trkpt><trkpt lat="44.57800945711803" lon="11.391331956002867"><ele>20.5</ele><time>2026-04-25T13:23:56.92Z</time></trkpt><trkpt lat="44.57773412692421" lon="11.39114734339931"><ele>21.0</ele><time>2026-04-25T13:23:57.92Z</time></trkpt><trkpt lat="44.577461642887194" lon="11.390960409890853"><ele>21.0</ele><time>2026-04-25T13:23:58.92Z</time></trkpt><trkpt lat="44.57718821955746" lon="11.39077938078876"><ele>21.0</ele><time>2026-04-25T13:23:59.92Z</time></trkpt><trkpt lat="44.57691388716607" lon="11.390601831588972"><ele>21.5</ele><time>2026-04-25T13:24:00.92Z</time></trkpt><trkpt lat="44.57663968394709" lon="11.390414869066765"><ele>22.0</ele><time>2026-04-25T13:24:01.92Z</time></trkpt><trkpt lat="44.576369803239565" lon="11.390231920019104"><ele>23.0</ele><time>2026-04-25T13:24:02.92Z</time></trkpt><trkpt lat="44.57609881687945" lon="11.390049984079777"><ele>24.0</ele><time>2026-04-25T13:24:03.92Z</time></trkpt><trkpt lat="44.57582361513804" lon="11.389873157915126"><ele>24.0</ele><time>2026-04-25T13:24:04.92Z</time></trkpt><trkpt lat="44.57554759137739" lon="11.389694103312408"><ele>24.0</ele><time>2026-04-25T13:24:05.92Z</time></trkpt><trkpt lat="44.57526976481769" lon="11.389520661720901"><ele>22.5</ele><time>2026-04-25T13:24:06.92Z</time></trkpt><trkpt lat="44.57498995376574" lon="11.389335128049344"><ele>21.0</ele><time>2026-04-25T13:24:07.919Z</time></trkpt><trkpt lat="44.57471581153267" lon="11.389147004315019"><ele>21.0</ele><time>2026-04-25T13:24:08.919Z</time></trkpt><trkpt lat="44.574441740999404" lon="11.388964096997551"><ele>21.0</ele><time>2026-04-25T13:24:09.919Z</time></trkpt><trkpt lat="44.574167101334005" lon="11.38877831109978"><ele>21.0</ele><time>2026-04-25T13:24:10.919Z</time></trkpt><trkpt lat="44.57389064502515" lon="11.388588346692393"><ele>21.0</ele><time>2026-04-25T13:24:11.919Z</time></trkpt><trkpt lat="44.573605978416865" lon="11.388400827032356"><ele>21.5</ele><time>2026-04-25T13:24:12.919Z</time></trkpt><trkpt lat="44.57332221946222" lon="11.388218194563951"><ele>22.0</ele><time>2026-04-25T13:24:13.919Z</time></trkpt><trkpt lat="44.573041155691875" lon="11.388035204241032"><ele>22.0</ele><time>2026-04-25T13:24:14.919Z</time></trkpt><trkpt lat="44.57276153879051" lon="11.387855779832494"><ele>22.0</ele><time>2026-04-25T13:24:15.919Z</time></trkpt><trkpt lat="44.572481938042245" lon="11.387674388007461"><ele>22.0</ele><time>2026-04-25T13:24:16.919Z</time></trkpt><trkpt lat="44.572200650737024" lon="11.387489805832216"><ele>22.0</ele><time>2026-04-25T13:24:17.919Z</time></trkpt><trkpt lat="44.571922839829284" lon="11.387307969398037"><ele>23.0</ele><time>2026-04-25T13:24:18.919Z</time></trkpt><trkpt lat="44.571644732697024" lon="11.38712845287991"><ele>24.0</ele><time>2026-04-25T13:24:19.919Z</time></trkpt><trkpt lat="44.57136520003906" lon="11.386946909560328"><ele>24.5</ele><time>2026-04-25T13:24:20.919Z</time></trkpt><trkpt lat="44.571085332756894" lon="11.38676340934868"><ele>25.0</ele><time>2026-04-25T13:24:21.919Z</time></trkpt><trkpt lat="44.57080203643178" lon="11.386579561607471"><ele>25.0</ele><time>2026-04-25T13:24:22.919Z</time></trkpt><trkpt lat="44.57052147309438" lon="11.386395559034982"><ele>25.0</ele><time>2026-04-25T13:24:23.919Z</time></trkpt><trkpt lat="44.570240581903654" lon="11.386210014490237"><ele>24.5</ele><time>2026-04-25T13:24:24.919Z</time></trkpt><trkpt lat="44.569958539317255" lon="11.386020926162617"><ele>24.0</ele><time>2026-04-25T13:24:25.919Z</time></trkpt><trkpt lat="44.56967432807039" lon="11.38583091599989"><ele>23.5</ele><time>2026-04-25T13:24:26.919Z</time></trkpt><trkpt lat="44.56939369033862" lon="11.385640866674498"><ele>23.0</ele><time>2026-04-25T13:24:27.919Z</time></trkpt><trkpt lat="44.56911195512489" lon="11.385449026694344"><ele>23.0</ele><time>2026-04-25T13:24:28.919Z</time></trkpt><trkpt lat="44.568831030544175" lon="11.385256421655361"><ele>23.0</ele><time>2026-04-25T13:24:29.919Z</time></trkpt><trkpt lat="44.568552694585804" lon="11.385067382460571"><ele>23.0</ele><time>2026-04-25T13:24:30.919Z</time></trkpt><trkpt lat="44.56827292482501" lon="11.38487478545221"><ele>23.0</ele><time>2026-04-25T13:24:31.919Z</time></trkpt><trkpt lat="44.567990467476506" lon="11.384684155380722"><ele>23.0</ele><time>2026-04-25T13:24:32.919Z</time></trkpt><trkpt lat="44.56771330658187" lon="11.384496469853897"><ele>23.0</ele><time>2026-04-25T13:24:33.919Z</time></trkpt><trkpt lat="44.567438562987014" lon="11.384315176853645"><ele>23.0</ele><time>2026-04-25T13:24:34.919Z</time></trkpt><trkpt lat="44.56716200880568" lon="11.384138646639835"><ele>23.0</ele><time>2026-04-25T13:24:35.919Z</time></trkpt><trkpt lat="44.56688769068792" lon="11.383957625466982"><ele>22.5</ele><time>2026-04-25T13:24:36.919Z</time></trkpt><trkpt lat="44.56661541741726" lon="11.383780387572079"><ele>22.0</ele><time>2026-04-25T13:24:37.919Z</time></trkpt><trkpt lat="44.56634307911178" lon="11.38360329876503"><ele>22.5</ele><time>2026-04-25T13:24:38.919Z</time></trkpt><trkpt lat="44.56607648720234" lon="11.38342831692246"><ele>23.0</ele><time>2026-04-25T13:24:39.919Z</time></trkpt><trkpt lat="44.56581322265593" lon="11.383248233628063"><ele>23.0</ele><time>2026-04-25T13:24:40.919Z</time></trkpt><trkpt lat="44.56555280052775" lon="11.383073659204587"><ele>23.0</ele><time>2026-04-25T13:24:41.919Z</time></trkpt><trkpt lat="44.56529576634209" lon="11.382905130333059"><ele>23.5</ele><time>2026-04-25T13:24:42.919Z</time></trkpt><trkpt lat="44.565034844743664" lon="11.382733089380674"><ele>24.0</ele><time>2026-04-25T13:24:43.919Z</time></trkpt><trkpt lat="44.56477360977913" lon="11.382573244480035"><ele>24.0</ele><time>2026-04-25T13:24:44.919Z</time></trkpt><trkpt lat="44.56451059253312" lon="11.382401753329042"><ele>24.0</ele><time>2026-04-25T13:24:45.919Z</time></trkpt><trkpt lat="44.56424451373195" lon="11.382227282152973"><ele>23.0</ele><time>2026-04-25T13:24:46.919Z</time></trkpt><trkpt lat="44.56398250043081" lon="11.382051400728574"><ele>22.0</ele><time>2026-04-25T13:24:47.919Z</time></trkpt><trkpt lat="44.56371830389529" lon="11.381875013510617"><ele>23.5</ele><time>2026-04-25T13:24:48.919Z</time></trkpt><trkpt lat="44.56345860847095" lon="11.381695748073827"><ele>25.0</ele><time>2026-04-25T13:24:49.919Z</time></trkpt><trkpt lat="44.563197594969424" lon="11.38152012715489"><ele>25.0</ele><time>2026-04-25T13:24:50.919Z</time></trkpt><trkpt lat="44.56293815695051" lon="11.381349972134563"><ele>25.0</ele><time>2026-04-25T13:24:51.919Z</time></trkpt><trkpt lat="44.56267858890795" lon="11.381182502822861"><ele>25.0</ele><time>2026-04-25T13:24:52.919Z</time></trkpt><trkpt lat="44.56241741058044" lon="11.381014275466244"><ele>25.0</ele><time>2026-04-25T13:24:53.919Z</time></trkpt><trkpt lat="44.56215461931465" lon="11.38084580765121"><ele>24.0</ele><time>2026-04-25T13:24:54.919Z</time></trkpt><trkpt lat="44.561887944619635" lon="11.38067328381734"><ele>23.0</ele><time>2026-04-25T13:24:55.919Z</time></trkpt><trkpt lat="44.5616220635644" lon="11.380496930886048"><ele>24.0</ele><time>2026-04-25T13:24:56.919Z</time></trkpt><trkpt lat="44.561355486031246" lon="11.380318644185325"><ele>25.0</ele><time>2026-04-25T13:24:57.919Z</time></trkpt><trkpt lat="44.56108875589797" lon="11.380140347631308"><ele>25.0</ele><time>2026-04-25T13:24:58.919Z</time></trkpt><trkpt lat="44.56081976153697" lon="11.379965069058043"><ele>25.0</ele><time>2026-04-25T13:24:59.919Z</time></trkpt><trkpt lat="44.56054872596817" lon="11.379789315149418"><ele>25.5</ele><time>2026-04-25T13:25:00.919Z</time></trkpt><trkpt lat="44.56027941535835" lon="11.379618958563452"><ele>26.0</ele><time>2026-04-25T13:25:01.919Z</time></trkpt><trkpt lat="44.560009890961545" lon="11.379441839205757"><ele>26.0</ele><time>2026-04-25T13:25:02.919Z</time></trkpt><trkpt lat="44.5597319092354" lon="11.37926523955858"><ele>26.0</ele><time>2026-04-25T13:25:03.919Z</time></trkpt><trkpt lat="44.55945690613792" lon="11.379084122708901"><ele>26.5</ele><time>2026-04-25T13:25:04.919Z</time></trkpt><trkpt lat="44.55918335607967" lon="11.378900972403743"><ele>27.0</ele><time>2026-04-25T13:25:05.918Z</time></trkpt><trkpt lat="44.55890691591829" lon="11.378723039178453"><ele>27.0</ele><time>2026-04-25T13:25:06.918Z</time></trkpt><trkpt lat="44.55863298317177" lon="11.378540696104148"><ele>27.0</ele><time>2026-04-25T13:25:07.918Z</time></trkpt><trkpt lat="44.55836137689637" lon="11.378361468045853"><ele>27.0</ele><time>2026-04-25T13:25:08.918Z</time></trkpt><trkpt lat="44.55809010012375" lon="11.3781886851381"><ele>27.0</ele><time>2026-04-25T13:25:09.918Z</time></trkpt><trkpt lat="44.5578169917326" lon="11.378018217759413"><ele>27.0</ele><time>2026-04-25T13:25:10.918Z</time></trkpt><trkpt lat="44.557541576133616" lon="11.377846945216767"><ele>27.0</ele><time>2026-04-25T13:25:11.918Z</time></trkpt><trkpt lat="44.55726829635558" lon="11.37767208562811"><ele>26.5</ele><time>2026-04-25T13:25:12.918Z</time></trkpt><trkpt lat="44.55699888616032" lon="11.37749092285771"><ele>26.0</ele><time>2026-04-25T13:25:13.918Z</time></trkpt><trkpt lat="44.556724818915065" lon="11.377319292425648"><ele>26.0</ele><time>2026-04-25T13:25:14.918Z</time></trkpt><trkpt lat="44.5564525647729" lon="11.377135176728672"><ele>26.0</ele><time>2026-04-25T13:25:15.918Z</time></trkpt><trkpt lat="44.55617719191197" lon="11.3769579195831"><ele>25.5</ele><time>2026-04-25T13:25:16.918Z</time></trkpt><trkpt lat="44.55589739371303" lon="11.376779415771766"><ele>25.0</ele><time>2026-04-25T13:25:17.918Z</time></trkpt><trkpt lat="44.55561628903274" lon="11.376592674615981"><ele>26.0</ele><time>2026-04-25T13:25:18.918Z</time></trkpt><trkpt lat="44.55533154523921" lon="11.37640866108511"><ele>27.0</ele><time>2026-04-25T13:25:19.918Z</time></trkpt><trkpt lat="44.55504809844678" lon="11.376212433274542"><ele>27.0</ele><time>2026-04-25T13:25:20.918Z</time></trkpt><trkpt lat="44.55476335690814" lon="11.376020284650945"><ele>27.0</ele><time>2026-04-25T13:25:21.918Z</time></trkpt><trkpt lat="44.55447562317906" lon="11.375828360965997"><ele>26.5</ele><time>2026-04-25T13:25:22.918Z</time></trkpt><trkpt lat="44.554186801378094" lon="11.375633644158464"><ele>26.0</ele><time>2026-04-25T13:25:23.918Z</time></trkpt><trkpt lat="44.553894710691466" lon="11.375434894392178"><ele>26.5</ele><time>2026-04-25T13:25:24.918Z</time></trkpt><trkpt lat="44.553605546315474" lon="11.375234625897205"><ele>27.0</ele><time>2026-04-25T13:25:25.918Z</time></trkpt><trkpt lat="44.553314905950465" lon="11.375035022542773"><ele>27.0</ele><time>2026-04-25T13:25:26.918Z</time></trkpt><trkpt lat="44.55302815262553" lon="11.37484012696098"><ele>27.0</ele><time>2026-04-25T13:25:27.918Z</time></trkpt><trkpt lat="44.552741662627426" lon="11.374650015952954"><ele>28.0</ele><time>2026-04-25T13:25:28.918Z</time></trkpt><trkpt lat="44.55245396758629" lon="11.37446365732905"><ele>29.0</ele><time>2026-04-25T13:25:29.92Z</time></trkpt><trkpt lat="44.55216432939912" lon="11.374281427176992"><ele>29.0</ele><time>2026-04-25T13:25:30.922Z</time></trkpt><trkpt lat="44.55187648614965" lon="11.374094622919218"><ele>29.0</ele><time>2026-04-25T13:25:31.924Z</time></trkpt><trkpt lat="44.55159023877074" lon="11.373906157569921"><ele>28.5</ele><time>2026-04-25T13:25:32.926Z</time></trkpt><trkpt lat="44.55130613818605" lon="11.37372596577171"><ele>28.0</ele><time>2026-04-25T13:25:33.926Z</time></trkpt><trkpt lat="44.551022420168174" lon="11.373540130499293"><ele>28.0</ele><time>2026-04-25T13:25:34.928Z</time></trkpt><trkpt lat="44.55074009373455" lon="11.373356972386052"><ele>28.0</ele><time>2026-04-25T13:25:35.929Z</time></trkpt><trkpt lat="44.55045993399854" lon="11.373177779741267"><ele>28.0</ele><time>2026-04-25T13:25:36.93Z</time></trkpt><trkpt lat="44.550183044858244" lon="11.37299675759894"><ele>28.0</ele><time>2026-04-25T13:25:37.932Z</time></trkpt><trkpt lat="44.549906179516285" lon="11.372815928961364"><ele>28.0</ele><time>2026-04-25T13:25:38.933Z</time></trkpt><trkpt lat="44.54962904520895" lon="11.372635129588687"><ele>28.0</ele><time>2026-04-25T13:25:39.935Z</time></trkpt><trkpt lat="44.54935394673712" lon="11.372450640582487"><ele>28.0</ele><time>2026-04-25T13:25:40.935Z</time></trkpt><trkpt lat="44.54907886430199" lon="11.372269011977822"><ele>28.0</ele><time>2026-04-25T13:25:41.936Z</time></trkpt><trkpt lat="44.54879899014979" lon="11.372085707130074"><ele>29.5</ele><time>2026-04-25T13:25:42.938Z</time></trkpt><trkpt lat="44.54850998609782" lon="11.371898638205472"><ele>31.0</ele><time>2026-04-25T13:25:43.938Z</time></trkpt><trkpt lat="44.54821462253519" lon="11.37170510791317"><ele>31.0</ele><time>2026-04-25T13:25:44.939Z</time></trkpt><trkpt lat="44.54791147592625" lon="11.371508880992293"><ele>31.0</ele><time>2026-04-25T13:25:45.94Z</time></trkpt><trkpt lat="44.5476110185102" lon="11.371312176557321"><ele>31.0</ele><time>2026-04-25T13:25:46.941Z</time></trkpt><trkpt lat="44.54730747612462" lon="11.371112469954245"><ele>31.0</ele><time>2026-04-25T13:25:47.941Z</time></trkpt><trkpt lat="44.54700110641732" lon="11.370914618820372"><ele>31.0</ele><time>2026-04-25T13:25:48.942Z</time></trkpt><trkpt lat="44.54670022443605" lon="11.3707197788771"><ele>31.0</ele><time>2026-04-25T13:25:49.942Z</time></trkpt><trkpt lat="44.54642077369333" lon="11.370531874359067"><ele>30.5</ele><time>2026-04-25T13:25:50.943Z</time></trkpt><trkpt lat="44.546155999902176" lon="11.370358126920134"><ele>30.0</ele><time>2026-04-25T13:25:51.943Z</time></trkpt><trkpt lat="44.54588225429291" lon="11.37019194696679"><ele>30.0</ele><time>2026-04-25T13:25:52.944Z</time></trkpt><trkpt lat="44.54560189467685" lon="11.370014371553454"><ele>30.0</ele><time>2026-04-25T13:25:53.944Z</time></trkpt><trkpt lat="44.54532041604514" lon="11.369833403563934"><ele>28.0</ele><time>2026-04-25T13:25:54.945Z</time></trkpt><trkpt lat="44.54503973145695" lon="11.369650392957348"><ele>26.0</ele><time>2026-04-25T13:25:55.945Z</time></trkpt><trkpt lat="44.54475670952002" lon="11.369464737773162"><ele>27.5</ele><time>2026-04-25T13:25:56.945Z</time></trkpt><trkpt lat="44.544470462721705" lon="11.369277760596697"><ele>29.0</ele><time>2026-04-25T13:25:57.946Z</time></trkpt><trkpt lat="44.54417410366191" lon="11.369098186240933"><ele>29.0</ele><time>2026-04-25T13:25:58.946Z</time></trkpt><trkpt lat="44.54387872937474" lon="11.368916543012727"><ele>29.0</ele><time>2026-04-25T13:25:59.946Z</time></trkpt><trkpt lat="44.543585857952614" lon="11.368736669675647"><ele>28.5</ele><time>2026-04-25T13:26:00.947Z</time></trkpt><trkpt lat="44.54329505503011" lon="11.368549689381018"><ele>28.0</ele><time>2026-04-25T13:26:01.947Z</time></trkpt><trkpt lat="44.543005466272554" lon="11.368358892949395"><ele>28.5</ele><time>2026-04-25T13:26:02.947Z</time></trkpt><trkpt lat="44.54271431026656" lon="11.368165282200701"><ele>29.0</ele><time>2026-04-25T13:26:03.948Z</time></trkpt><trkpt lat="44.54242506638898" lon="11.367977218803404"><ele>29.0</ele><time>2026-04-25T13:26:04.948Z</time></trkpt><trkpt lat="44.54213376180581" lon="11.367784461701328"><ele>29.0</ele><time>2026-04-25T13:26:05.948Z</time></trkpt><trkpt lat="44.54184426073665" lon="11.367592194454426"><ele>30.5</ele><time>2026-04-25T13:26:06.948Z</time></trkpt><trkpt lat="44.54155746253136" lon="11.367410753680266"><ele>32.0</ele><time>2026-04-25T13:26:07.948Z</time></trkpt><trkpt lat="44.54127114987148" lon="11.367223495641008"><ele>30.5</ele><time>2026-04-25T13:26:08.949Z</time></trkpt><trkpt lat="44.54098961540604" lon="11.367038675856673"><ele>29.0</ele><time>2026-04-25T13:26:09.949Z</time></trkpt><trkpt lat="44.54070918762633" lon="11.366856435611464"><ele>29.0</ele><time>2026-04-25T13:26:10.949Z</time></trkpt><trkpt lat="44.54042710462902" lon="11.366670905431954"><ele>29.0</ele><time>2026-04-25T13:26:11.949Z</time></trkpt><trkpt lat="44.54014795241978" lon="11.366489053001104"><ele>30.0</ele><time>2026-04-25T13:26:12.949Z</time></trkpt><trkpt lat="44.539869782176275" lon="11.366306044663766"><ele>31.0</ele><time>2026-04-25T13:26:13.949Z</time></trkpt><trkpt lat="44.53958906737565" lon="11.366124947232086"><ele>30.0</ele><time>2026-04-25T13:26:14.949Z</time></trkpt><trkpt lat="44.53931060051562" lon="11.365945228026478"><ele>29.0</ele><time>2026-04-25T13:26:15.95Z</time></trkpt><trkpt lat="44.53903637887821" lon="11.365757771986608"><ele>29.0</ele><time>2026-04-25T13:26:16.95Z</time></trkpt><trkpt lat="44.53875877487716" lon="11.365570413760773"><ele>29.0</ele><time>2026-04-25T13:26:17.95Z</time></trkpt><trkpt lat="44.53847956455382" lon="11.365388250781955"><ele>29.0</ele><time>2026-04-25T13:26:18.95Z</time></trkpt><trkpt lat="44.53820196857514" lon="11.365205899911741"><ele>29.0</ele><time>2026-04-25T13:26:19.95Z</time></trkpt><trkpt lat="44.53792216870218" lon="11.36502752087108"><ele>29.5</ele><time>2026-04-25T13:26:20.95Z</time></trkpt><trkpt lat="44.5376411455123" lon="11.364843983881455"><ele>30.0</ele><time>2026-04-25T13:26:21.95Z</time></trkpt><trkpt lat="44.53736118938199" lon="11.364659673701645"><ele>30.0</ele><time>2026-04-25T13:26:22.95Z</time></trkpt><trkpt lat="44.53707875307622" lon="11.364479390189814"><ele>30.0</ele><time>2026-04-25T13:26:23.95Z</time></trkpt><trkpt lat="44.53679846444222" lon="11.364300672431785"><ele>29.5</ele><time>2026-04-25T13:26:24.95Z</time></trkpt><trkpt lat="44.53652324232238" lon="11.364121215752471"><ele>29.0</ele><time>2026-04-25T13:26:25.95Z</time></trkpt><trkpt lat="44.53624538184736" lon="11.363941183468762"><ele>29.5</ele><time>2026-04-25T13:26:26.95Z</time></trkpt><trkpt lat="44.535966653692235" lon="11.363762455127569"><ele>30.0</ele><time>2026-04-25T13:26:27.95Z</time></trkpt><trkpt lat="44.535692089223545" lon="11.36358170191737"><ele>30.0</ele><time>2026-04-25T13:26:28.95Z</time></trkpt><trkpt lat="44.53541535816152" lon="11.36339992473947"><ele>30.0</ele><time>2026-04-25T13:26:29.95Z</time></trkpt><trkpt lat="44.535140582165084" lon="11.363219999142334"><ele>30.5</ele><time>2026-04-25T13:26:30.95Z</time></trkpt><trkpt lat="44.53486418551082" lon="11.363039677119191"><ele>31.0</ele><time>2026-04-25T13:26:31.951Z</time></trkpt><trkpt lat="44.53458551621233" lon="11.362857259129408"><ele>30.0</ele><time>2026-04-25T13:26:32.951Z</time></trkpt><trkpt lat="44.534303752750766" lon="11.362677629440906"><ele>29.0</ele><time>2026-04-25T13:26:33.951Z</time></trkpt><trkpt lat="44.53402359426906" lon="11.362491141250835"><ele>29.0</ele><time>2026-04-25T13:26:34.951Z</time></trkpt><trkpt lat="44.53374774173053" lon="11.362310009821043"><ele>29.0</ele><time>2026-04-25T13:26:35.951Z</time></trkpt><trkpt lat="44.53346399719259" lon="11.362123536812534"><ele>30.5</ele><time>2026-04-25T13:26:36.951Z</time></trkpt><trkpt lat="44.53317724213041" lon="11.361945855022743"><ele>32.0</ele><time>2026-04-25T13:26:37.951Z</time></trkpt><trkpt lat="44.53289606428329" lon="11.361763065677419"><ele>30.5</ele><time>2026-04-25T13:26:38.951Z</time></trkpt><trkpt lat="44.5326133359206" lon="11.36157346053086"><ele>29.0</ele><time>2026-04-25T13:26:39.951Z</time></trkpt><trkpt lat="44.53233687926167" lon="11.361392563548415"><ele>30.0</ele><time>2026-04-25T13:26:40.951Z</time></trkpt><trkpt lat="44.53205973609463" lon="11.361208351714376"><ele>31.0</ele><time>2026-04-25T13:26:41.951Z</time></trkpt><trkpt lat="44.53178221564687" lon="11.361022689764724"><ele>32.5</ele><time>2026-04-25T13:26:42.951Z</time></trkpt><trkpt lat="44.53150386884341" lon="11.360844746382266"><ele>34.0</ele><time>2026-04-25T13:26:43.951Z</time></trkpt><trkpt lat="44.531229808381234" lon="11.360666899715122"><ele>34.5</ele><time>2026-04-25T13:26:44.951Z</time></trkpt><trkpt lat="44.53095730707299" lon="11.360490034195553"><ele>35.0</ele><time>2026-04-25T13:26:45.951Z</time></trkpt><trkpt lat="44.53068782297614" lon="11.360315902340057"><ele>35.0</ele><time>2026-04-25T13:26:46.951Z</time></trkpt><trkpt lat="44.53042342269042" lon="11.360144000300455"><ele>35.0</ele><time>2026-04-25T13:26:47.951Z</time></trkpt><trkpt lat="44.530156276803574" lon="11.359971606956831"><ele>35.0</ele><time>2026-04-25T13:26:48.951Z</time></trkpt><trkpt lat="44.52989379975582" lon="11.359802278475444"><ele>35.0</ele><time>2026-04-25T13:26:49.951Z</time></trkpt><trkpt lat="44.52963636299899" lon="11.359635047341882"><ele>35.0</ele><time>2026-04-25T13:26:50.951Z</time></trkpt><trkpt lat="44.5293816903343" lon="11.359467154102543"><ele>35.0</ele><time>2026-04-25T13:26:51.951Z</time></trkpt><trkpt lat="44.52912950097774" lon="11.359300406077265"><ele>35.0</ele><time>2026-04-25T13:26:52.951Z</time></trkpt><trkpt lat="44.52888594853311" lon="11.35914121457087"><ele>35.0</ele><time>2026-04-25T13:26:53.951Z</time></trkpt><trkpt lat="44.528661331240514" lon="11.358980864906595"><ele>34.5</ele><time>2026-04-25T13:26:54.951Z</time></trkpt><trkpt lat="44.52845398844544" lon="11.358826009655072"><ele>34.0</ele><time>2026-04-25T13:26:55.951Z</time></trkpt><trkpt lat="44.5282364756608" lon="11.35871217706347"><ele>34.0</ele><time>2026-04-25T13:26:56.951Z</time></trkpt><trkpt lat="44.52802654812777" lon="11.358583006647986"><ele>34.0</ele><time>2026-04-25T13:26:57.951Z</time></trkpt><trkpt lat="44.52782103399688" lon="11.35844838100197"><ele>34.0</ele><time>2026-04-25T13:26:58.951Z</time></trkpt><trkpt lat="44.52761879314665" lon="11.3583089197806"><ele>34.0</ele><time>2026-04-25T13:26:59.951Z</time></trkpt><trkpt lat="44.527427712531086" lon="11.358168632440963"><ele>34.0</ele><time>2026-04-25T13:27:00.951Z</time></trkpt><trkpt lat="44.52724899012411" lon="11.358048400474196"><ele>34.0</ele><time>2026-04-25T13:27:01.951Z</time></trkpt><trkpt lat="44.527092746765526" lon="11.357903018257248"><ele>34.0</ele><time>2026-04-25T13:27:02.951Z</time></trkpt><trkpt lat="44.526962241068574" lon="11.357714879020977"><ele>34.0</ele><time>2026-04-25T13:27:03.951Z</time></trkpt><trkpt lat="44.526855140044454" lon="11.357503866053078"><ele>34.66666666666667</ele><time>2026-04-25T13:27:04.951Z</time></trkpt><trkpt lat="44.52674568625642" lon="11.35728097542683"><ele>35.333333333333336</ele><time>2026-04-25T13:27:05.951Z</time></trkpt><trkpt lat="44.52668844080856" lon="11.357038789767493"><ele>36.0</ele><time>2026-04-25T13:27:06.951Z</time></trkpt><trkpt lat="44.52667196375815" lon="11.356807460322665"><ele>36.0</ele><time>2026-04-25T13:27:07.951Z</time></trkpt><trkpt lat="44.526677215290015" lon="11.356572298845649"><ele>36.0</ele><time>2026-04-25T13:27:08.951Z</time></trkpt><trkpt lat="44.52668284480333" lon="11.356381875051156"><ele>36.0</ele><time>2026-04-25T13:27:09.951Z</time></trkpt><trkpt lat="44.52673081551803" lon="11.356140424614576"><ele>36.0</ele><time>2026-04-25T13:27:10.951Z</time></trkpt><trkpt lat="44.5267958958981" lon="11.355891728845064"><ele>36.0</ele><time>2026-04-25T13:27:11.951Z</time></trkpt><trkpt lat="44.52688050355101" lon="11.355648624964237"><ele>36.0</ele><time>2026-04-25T13:27:12.951Z</time></trkpt><trkpt lat="44.5269727123809" lon="11.355406491824251"><ele>35.666666666666664</ele><time>2026-04-25T13:27:13.951Z</time></trkpt><trkpt lat="44.52707118352207" lon="11.355140395409213"><ele>35.33333333333333</ele><time>2026-04-25T13:27:14.951Z</time></trkpt><trkpt lat="44.52716330608326" lon="11.354858146255102"><ele>35.0</ele><time>2026-04-25T13:27:15.951Z</time></trkpt><trkpt lat="44.52725661982129" lon="11.354565306287268"><ele>34.5</ele><time>2026-04-25T13:27:16.951Z</time></trkpt><trkpt lat="44.52735246724082" lon="11.354260407437996"><ele>34.0</ele><time>2026-04-25T13:27:17.951Z</time></trkpt><trkpt lat="44.527453332921326" lon="11.353952520084537"><ele>34.0</ele><time>2026-04-25T13:27:18.951Z</time></trkpt><trkpt lat="44.52755405307064" lon="11.35363726723352"><ele>34.0</ele><time>2026-04-25T13:27:19.951Z</time></trkpt><trkpt lat="44.52765150628928" lon="11.353312334729639"><ele>33.5</ele><time>2026-04-25T13:27:20.951Z</time></trkpt><trkpt lat="44.527749567313876" lon="11.352981629608768"><ele>33.0</ele><time>2026-04-25T13:27:21.951Z</time></trkpt><trkpt lat="44.52785302381949" lon="11.352645457534367"><ele>33.5</ele><time>2026-04-25T13:27:22.951Z</time></trkpt><trkpt lat="44.527955594134674" lon="11.352311513594554"><ele>34.0</ele><time>2026-04-25T13:27:23.951Z</time></trkpt><trkpt lat="44.528060066860924" lon="11.351976954623328"><ele>34.5</ele><time>2026-04-25T13:27:24.951Z</time></trkpt><trkpt lat="44.52816414757944" lon="11.351636718124352"><ele>35.0</ele><time>2026-04-25T13:27:25.951Z</time></trkpt><trkpt lat="44.52826985369485" lon="11.351295305646191"><ele>35.0</ele><time>2026-04-25T13:27:26.951Z</time></trkpt><trkpt lat="44.52837947095954" lon="11.350951373936093"><ele>35.0</ele><time>2026-04-25T13:27:27.951Z</time></trkpt><trkpt lat="44.528490325621625" lon="11.350611431830318"><ele>35.5</ele><time>2026-04-25T13:27:28.951Z</time></trkpt><trkpt lat="44.5286016535181" lon="11.350266353090296"><ele>36.0</ele><time>2026-04-25T13:27:29.951Z</time></trkpt><trkpt lat="44.52870957293969" lon="11.349923167429987"><ele>37.5</ele><time>2026-04-25T13:27:30.95Z</time></trkpt><trkpt lat="44.52882079148393" lon="11.349585161246907"><ele>39.0</ele><time>2026-04-25T13:27:31.95Z</time></trkpt><trkpt lat="44.52892814359589" lon="11.349243305344745"><ele>39.0</ele><time>2026-04-25T13:27:32.95Z</time></trkpt><trkpt lat="44.52903684670545" lon="11.348899075584972"><ele>39.0</ele><time>2026-04-25T13:27:33.95Z</time></trkpt><trkpt lat="44.529141409078925" lon="11.348557597306334"><ele>38.5</ele><time>2026-04-25T13:27:34.95Z</time></trkpt><trkpt lat="44.52924527721522" lon="11.348217090514138"><ele>38.0</ele><time>2026-04-25T13:27:35.95Z</time></trkpt><trkpt lat="44.52935104676419" lon="11.347871784503498"><ele>37.5</ele><time>2026-04-25T13:27:36.95Z</time></trkpt><trkpt lat="44.52944789077851" lon="11.347525189225736"><ele>37.0</ele><time>2026-04-25T13:27:37.95Z</time></trkpt><trkpt lat="44.52953934394914" lon="11.347173195594076"><ele>36.5</ele><time>2026-04-25T13:27:38.95Z</time></trkpt><trkpt lat="44.52962717856018" lon="11.346824221467932"><ele>36.0</ele><time>2026-04-25T13:27:39.949Z</time></trkpt><trkpt lat="44.52971322745501" lon="11.346466444981075"><ele>35.5</ele><time>2026-04-25T13:27:40.948Z</time></trkpt><trkpt lat="44.52979769275276" lon="11.34611171927836"><ele>35.0</ele><time>2026-04-25T13:27:41.948Z</time></trkpt><trkpt lat="44.529878529319305" lon="11.345756456048242"><ele>35.0</ele><time>2026-04-25T13:27:42.949Z</time></trkpt><trkpt lat="44.52995390314496" lon="11.345393327347946"><ele>35.0</ele><time>2026-04-25T13:27:43.949Z</time></trkpt><trkpt lat="44.530025360182385" lon="11.34503447615982"><ele>33.5</ele><time>2026-04-25T13:27:44.949Z</time></trkpt><trkpt lat="44.530097338317056" lon="11.344675877659242"><ele>32.0</ele><time>2026-04-25T13:27:45.949Z</time></trkpt><trkpt lat="44.530161646259394" lon="11.34431229803224"><ele>32.0</ele><time>2026-04-25T13:27:46.948Z</time></trkpt><trkpt lat="44.530228620132846" lon="11.34394882063782"><ele>32.0</ele><time>2026-04-25T13:27:47.948Z</time></trkpt><trkpt lat="44.530294454028216" lon="11.343585741413877"><ele>30.0</ele><time>2026-04-25T13:27:48.949Z</time></trkpt><trkpt lat="44.53035994481663" lon="11.34322121108584"><ele>28.0</ele><time>2026-04-25T13:27:49.949Z</time></trkpt><trkpt lat="44.530428809977366" lon="11.34285171017711"><ele>28.0</ele><time>2026-04-25T13:27:50.949Z</time></trkpt><trkpt lat="44.53049671394692" lon="11.342488517090455"><ele>28.0</ele><time>2026-04-25T13:27:51.949Z</time></trkpt><trkpt lat="44.530565332768234" lon="11.342117943752685"><ele>27.0</ele><time>2026-04-25T13:27:52.949Z</time></trkpt><trkpt lat="44.530633490689894" lon="11.341754538581727"><ele>26.0</ele><time>2026-04-25T13:27:53.949Z</time></trkpt><trkpt lat="44.5307023722197" lon="11.341389870085461"><ele>25.0</ele><time>2026-04-25T13:27:54.949Z</time></trkpt><trkpt lat="44.53076949134337" lon="11.34102226785986"><ele>24.0</ele><time>2026-04-25T13:27:55.949Z</time></trkpt><trkpt lat="44.530836254728314" lon="11.340657726306548"><ele>25.5</ele><time>2026-04-25T13:27:56.949Z</time></trkpt><trkpt lat="44.530904126455006" lon="11.340294240968568"><ele>27.0</ele><time>2026-04-25T13:27:57.949Z</time></trkpt><trkpt lat="44.530970051369515" lon="11.339927705941557"><ele>28.0</ele><time>2026-04-25T13:27:58.949Z</time></trkpt><trkpt lat="44.531036982138495" lon="11.339559007913888"><ele>29.0</ele><time>2026-04-25T13:27:59.949Z</time></trkpt><trkpt lat="44.53110457392185" lon="11.339189930021377"><ele>29.5</ele><time>2026-04-25T13:28:00.949Z</time></trkpt><trkpt lat="44.53117183313479" lon="11.338816521702514"><ele>30.0</ele><time>2026-04-25T13:28:01.948Z</time></trkpt><trkpt lat="44.53124091445477" lon="11.338433756301196"><ele>30.0</ele><time>2026-04-25T13:28:02.948Z</time></trkpt><trkpt lat="44.5313093823451" lon="11.338072232096765"><ele>30.0</ele><time>2026-04-25T13:28:03.948Z</time></trkpt><trkpt lat="44.5313817117296" lon="11.337707617330475"><ele>30.0</ele><time>2026-04-25T13:28:04.948Z</time></trkpt><trkpt lat="44.531446594947056" lon="11.337340144681807"><ele>30.0</ele><time>2026-04-25T13:28:05.948Z</time></trkpt><trkpt lat="44.53152195482013" lon="11.336976523703592"><ele>30.5</ele><time>2026-04-25T13:28:06.948Z</time></trkpt><trkpt lat="44.53158582758494" lon="11.336609894506406"><ele>31.0</ele><time>2026-04-25T13:28:07.948Z</time></trkpt><trkpt lat="44.5316563094112" lon="11.336235692142235"><ele>31.5</ele><time>2026-04-25T13:28:08.948Z</time></trkpt><trkpt lat="44.531719368287106" lon="11.335877062269974"><ele>32.0</ele><time>2026-04-25T13:28:09.948Z</time></trkpt><trkpt lat="44.53178809383442" lon="11.335510943834633"><ele>32.0</ele><time>2026-04-25T13:28:10.948Z</time></trkpt><trkpt lat="44.5318586515781" lon="11.335153751993124"><ele>32.0</ele><time>2026-04-25T13:28:11.948Z</time></trkpt><trkpt lat="44.531927161528294" lon="11.33479280086562"><ele>32.0</ele><time>2026-04-25T13:28:12.948Z</time></trkpt><trkpt lat="44.53199000111139" lon="11.334434371161937"><ele>32.0</ele><time>2026-04-25T13:28:13.948Z</time></trkpt><trkpt lat="44.532051748928296" lon="11.334087821662049"><ele>32.5</ele><time>2026-04-25T13:28:14.948Z</time></trkpt><trkpt lat="44.53211389915767" lon="11.333756571532914"><ele>33.0</ele><time>2026-04-25T13:28:15.948Z</time></trkpt><trkpt lat="44.53217568384035" lon="11.333373253584284"><ele>32.0</ele><time>2026-04-25T13:28:16.948Z</time></trkpt><trkpt lat="44.53222906758434" lon="11.333003459793243"><ele>31.0</ele><time>2026-04-25T13:28:17.948Z</time></trkpt><trkpt lat="44.532277354220085" lon="11.33264313647523"><ele>31.0</ele><time>2026-04-25T13:28:18.948Z</time></trkpt><trkpt lat="44.5323179921957" lon="11.332272273369064"><ele>31.0</ele><time>2026-04-25T13:28:19.948Z</time></trkpt><trkpt lat="44.532354558143915" lon="11.331901546210823"><ele>31.0</ele><time>2026-04-25T13:28:20.948Z</time></trkpt><trkpt lat="44.53238685451942" lon="11.331537586984018"><ele>31.0</ele><time>2026-04-25T13:28:21.948Z</time></trkpt><trkpt lat="44.53241263319097" lon="11.331168603115918"><ele>31.0</ele><time>2026-04-25T13:28:22.948Z</time></trkpt><trkpt lat="44.53243099280592" lon="11.330800473804153"><ele>31.0</ele><time>2026-04-25T13:28:23.948Z</time></trkpt><trkpt lat="44.532447460228454" lon="11.330428183731176"><ele>31.0</ele><time>2026-04-25T13:28:24.948Z</time></trkpt><trkpt lat="44.53245838372412" lon="11.330050506406028"><ele>31.0</ele><time>2026-04-25T13:28:25.948Z</time></trkpt><trkpt lat="44.5324628154985" lon="11.329675893362486"><ele>31.5</ele><time>2026-04-25T13:28:26.948Z</time></trkpt><trkpt lat="44.532458634850954" lon="11.329297064828628"><ele>32.0</ele><time>2026-04-25T13:28:27.948Z</time></trkpt><trkpt lat="44.53244998402493" lon="11.328920613408856"><ele>33.0</ele><time>2026-04-25T13:28:28.948Z</time></trkpt><trkpt lat="44.53243900938148" lon="11.32854352154604"><ele>34.0</ele><time>2026-04-25T13:28:29.948Z</time></trkpt><trkpt lat="44.5324261017948" lon="11.328163791547706"><ele>35.0</ele><time>2026-04-25T13:28:30.948Z</time></trkpt><trkpt lat="44.53239962909476" lon="11.327795318075012"><ele>36.0</ele><time>2026-04-25T13:28:31.948Z</time></trkpt><trkpt lat="44.53237388174414" lon="11.327435677867749"><ele>35.5</ele><time>2026-04-25T13:28:32.948Z</time></trkpt><trkpt lat="44.532341500196495" lon="11.327066532701785"><ele>35.0</ele><time>2026-04-25T13:28:33.948Z</time></trkpt><trkpt lat="44.53229902171807" lon="11.326691501516278"><ele>33.5</ele><time>2026-04-25T13:28:34.948Z</time></trkpt><trkpt lat="44.53225514590696" lon="11.326311327824392"><ele>32.0</ele><time>2026-04-25T13:28:35.948Z</time></trkpt><trkpt lat="44.5322026831102" lon="11.325932932263315"><ele>32.0</ele><time>2026-04-25T13:28:36.948Z</time></trkpt><trkpt lat="44.53214344693248" lon="11.32555855798877"><ele>32.0</ele><time>2026-04-25T13:28:37.948Z</time></trkpt><trkpt lat="44.53208651015733" lon="11.325179721320369"><ele>32.5</ele><time>2026-04-25T13:28:38.948Z</time></trkpt><trkpt lat="44.53202414713095" lon="11.32480606606114"><ele>33.0</ele><time>2026-04-25T13:28:39.948Z</time></trkpt><trkpt lat="44.53195327688461" lon="11.3244400992572"><ele>33.5</ele><time>2026-04-25T13:28:40.948Z</time></trkpt><trkpt lat="44.53187429088765" lon="11.324077419831932"><ele>34.0</ele><time>2026-04-25T13:28:41.948Z</time></trkpt><trkpt lat="44.53179157319365" lon="11.323716811772323"><ele>33.5</ele><time>2026-04-25T13:28:42.948Z</time></trkpt><trkpt lat="44.531707273409474" lon="11.323360055866232"><ele>33.0</ele><time>2026-04-25T13:28:43.948Z</time></trkpt><trkpt lat="44.53161421687594" lon="11.323000643498398"><ele>33.0</ele><time>2026-04-25T13:28:44.948Z</time></trkpt><trkpt lat="44.5315200170536" lon="11.322643809358963"><ele>33.0</ele><time>2026-04-25T13:28:45.948Z</time></trkpt><trkpt lat="44.53141792641149" lon="11.322289811214093"><ele>32.5</ele><time>2026-04-25T13:28:46.948Z</time></trkpt><trkpt lat="44.53131452865435" lon="11.32194036795868"><ele>32.0</ele><time>2026-04-25T13:28:47.948Z</time></trkpt><trkpt lat="44.53120326132321" lon="11.321614289659795"><ele>32.5</ele><time>2026-04-25T13:28:48.948Z</time></trkpt><trkpt lat="44.53109046417777" lon="11.32128780171852"><ele>33.0</ele><time>2026-04-25T13:28:49.948Z</time></trkpt><trkpt lat="44.53097172967668" lon="11.32095740404805"><ele>33.0</ele><time>2026-04-25T13:28:50.948Z</time></trkpt><trkpt lat="44.53084794463484" lon="11.320632192122872"><ele>33.0</ele><time>2026-04-25T13:28:51.948Z</time></trkpt><trkpt lat="44.53072174027125" lon="11.320306972995642"><ele>34.5</ele><time>2026-04-25T13:28:52.948Z</time></trkpt><trkpt lat="44.53058683910856" lon="11.319975294732908"><ele>36.0</ele><time>2026-04-25T13:28:53.948Z</time></trkpt><trkpt lat="44.53045084018955" lon="11.31964932907632"><ele>36.0</ele><time>2026-04-25T13:28:54.948Z</time></trkpt><trkpt lat="44.53030805549437" lon="11.31932839601688"><ele>36.0</ele><time>2026-04-25T13:28:55.948Z</time></trkpt><trkpt lat="44.53015984713103" lon="11.31901135305256"><ele>35.0</ele><time>2026-04-25T13:28:56.948Z</time></trkpt><trkpt lat="44.53000807141523" lon="11.318689082789964"><ele>34.0</ele><time>2026-04-25T13:28:57.948Z</time></trkpt><trkpt lat="44.52985228820389" lon="11.318372006898818"><ele>35.0</ele><time>2026-04-25T13:28:58.948Z</time></trkpt><trkpt lat="44.529695375683225" lon="11.318056655918427"><ele>36.0</ele><time>2026-04-25T13:28:59.948Z</time></trkpt><trkpt lat="44.52953920985283" lon="11.31773130705734"><ele>36.0</ele><time>2026-04-25T13:29:00.948Z</time></trkpt><trkpt lat="44.52938273806761" lon="11.317406936876486"><ele>36.0</ele><time>2026-04-25T13:29:01.948Z</time></trkpt><trkpt lat="44.52923215151965" lon="11.317084159987202"><ele>37.5</ele><time>2026-04-25T13:29:02.948Z</time></trkpt><trkpt lat="44.52908180806836" lon="11.316761679135574"><ele>39.0</ele><time>2026-04-25T13:29:03.948Z</time></trkpt><trkpt lat="44.528935300212936" lon="11.31644159212511"><ele>38.5</ele><time>2026-04-25T13:29:04.948Z</time></trkpt><trkpt lat="44.528784780519985" lon="11.316130233015524"><ele>38.0</ele><time>2026-04-25T13:29:05.947Z</time></trkpt><trkpt lat="44.52863577349251" lon="11.315816291043422"><ele>39.5</ele><time>2026-04-25T13:29:06.947Z</time></trkpt><trkpt lat="44.528483498502766" lon="11.315500556247336"><ele>41.0</ele><time>2026-04-25T13:29:07.947Z</time></trkpt><trkpt lat="44.52833055512493" lon="11.31517961816905"><ele>41.0</ele><time>2026-04-25T13:29:08.947Z</time></trkpt><trkpt lat="44.5281810996649" lon="11.314870834135819"><ele>41.0</ele><time>2026-04-25T13:29:09.947Z</time></trkpt><trkpt lat="44.52803224412255" lon="11.314564558558802"><ele>40.0</ele><time>2026-04-25T13:29:10.947Z</time></trkpt><trkpt lat="44.527886860495" lon="11.314263722383203"><ele>39.0</ele><time>2026-04-25T13:29:11.947Z</time></trkpt><trkpt lat="44.52773716509482" lon="11.31396644011517"><ele>39.5</ele><time>2026-04-25T13:29:12.947Z</time></trkpt><trkpt lat="44.52759287204518" lon="11.313667095158136"><ele>40.0</ele><time>2026-04-25T13:29:13.947Z</time></trkpt><trkpt lat="44.52744586252395" lon="11.313352336814436"><ele>39.0</ele><time>2026-04-25T13:29:14.947Z</time></trkpt><trkpt lat="44.527296441991396" lon="11.313039935699772"><ele>38.0</ele><time>2026-04-25T13:29:15.947Z</time></trkpt><trkpt lat="44.52714747553787" lon="11.312720241049092"><ele>37.0</ele><time>2026-04-25T13:29:16.947Z</time></trkpt><trkpt lat="44.52699838067423" lon="11.312410091772144"><ele>36.0</ele><time>2026-04-25T13:29:17.947Z</time></trkpt><trkpt lat="44.526848051913724" lon="11.31210157360961"><ele>36.0</ele><time>2026-04-25T13:29:18.947Z</time></trkpt><trkpt lat="44.52669977724364" lon="11.311780620605862"><ele>36.0</ele><time>2026-04-25T13:29:19.947Z</time></trkpt><trkpt lat="44.52655568796601" lon="11.311477868288843"><ele>35.0</ele><time>2026-04-25T13:29:20.947Z</time></trkpt><trkpt lat="44.52640996787358" lon="11.311170288240504"><ele>34.0</ele><time>2026-04-25T13:29:21.947Z</time></trkpt><trkpt lat="44.52626713526308" lon="11.31086925504683"><ele>33.5</ele><time>2026-04-25T13:29:22.947Z</time></trkpt><trkpt lat="44.52612657122355" lon="11.310565408562072"><ele>33.0</ele><time>2026-04-25T13:29:23.947Z</time></trkpt><trkpt lat="44.52598905285918" lon="11.310253730298767"><ele>33.0</ele><time>2026-04-25T13:29:24.947Z</time></trkpt><trkpt lat="44.52586326753558" lon="11.309937129840362"><ele>33.0</ele><time>2026-04-25T13:29:25.947Z</time></trkpt><trkpt lat="44.52574044447008" lon="11.309608366355471"><ele>34.0</ele><time>2026-04-25T13:29:26.947Z</time></trkpt><trkpt lat="44.525618639413246" lon="11.30927091354397"><ele>35.0</ele><time>2026-04-25T13:29:27.947Z</time></trkpt><trkpt lat="44.52549934546858" lon="11.308936996219858"><ele>35.5</ele><time>2026-04-25T13:29:28.947Z</time></trkpt><trkpt lat="44.52538189873045" lon="11.308585365104257"><ele>36.0</ele><time>2026-04-25T13:29:29.947Z</time></trkpt><trkpt lat="44.52527360685822" lon="11.308208612419282"><ele>36.5</ele><time>2026-04-25T13:29:30.947Z</time></trkpt><trkpt lat="44.52516887458706" lon="11.307824684561266"><ele>37.0</ele><time>2026-04-25T13:29:31.947Z</time></trkpt><trkpt lat="44.52508898724189" lon="11.307430264170078"><ele>36.0</ele><time>2026-04-25T13:29:32.947Z</time></trkpt><trkpt lat="44.525017718473656" lon="11.307031257850326"><ele>35.0</ele><time>2026-04-25T13:29:33.947Z</time></trkpt><trkpt lat="44.524953205515686" lon="11.306635363718435"><ele>34.5</ele><time>2026-04-25T13:29:34.947Z</time></trkpt><trkpt lat="44.52489662061579" lon="11.30624170394784"><ele>34.0</ele><time>2026-04-25T13:29:35.947Z</time></trkpt><trkpt lat="44.52484823641585" lon="11.305854564178478"><ele>33.0</ele><time>2026-04-25T13:29:36.947Z</time></trkpt><trkpt lat="44.5248105836869" lon="11.305468624949336"><ele>32.0</ele><time>2026-04-25T13:29:37.947Z</time></trkpt><trkpt lat="44.52478023334299" lon="11.305084621182026"><ele>33.5</ele><time>2026-04-25T13:29:38.947Z</time></trkpt><trkpt lat="44.5247558672497" lon="11.304707641733962"><ele>35.0</ele><time>2026-04-25T13:29:39.947Z</time></trkpt><trkpt lat="44.524741247678" lon="11.304328804284713"><ele>35.0</ele><time>2026-04-25T13:29:40.947Z</time></trkpt><trkpt lat="44.524733115559094" lon="11.303948161373679"><ele>35.0</ele><time>2026-04-25T13:29:41.947Z</time></trkpt><trkpt lat="44.52471844376378" lon="11.3035687562815"><ele>35.5</ele><time>2026-04-25T13:29:42.947Z</time></trkpt><trkpt lat="44.52470118482334" lon="11.303192196640891"><ele>36.0</ele><time>2026-04-25T13:29:43.947Z</time></trkpt><trkpt lat="44.52468400667636" lon="11.302818332355335"><ele>36.5</ele><time>2026-04-25T13:29:44.947Z</time></trkpt><trkpt lat="44.52466814492329" lon="11.302432353285305"><ele>37.0</ele><time>2026-04-25T13:29:45.946Z</time></trkpt><trkpt lat="44.52465495273794" lon="11.302051198702475"><ele>35.5</ele><time>2026-04-25T13:29:46.946Z</time></trkpt><trkpt lat="44.52464281521798" lon="11.301661048982544"><ele>34.0</ele><time>2026-04-25T13:29:47.946Z</time></trkpt><trkpt lat="44.52462488037157" lon="11.301276636509554"><ele>33.5</ele><time>2026-04-25T13:29:48.946Z</time></trkpt><trkpt lat="44.52460856498348" lon="11.30089395308321"><ele>33.0</ele><time>2026-04-25T13:29:49.946Z</time></trkpt><trkpt lat="44.52458775235987" lon="11.300529218706629"><ele>34.0</ele><time>2026-04-25T13:29:50.946Z</time></trkpt><trkpt lat="44.52457437214101" lon="11.300132654496075"><ele>35.0</ele><time>2026-04-25T13:29:51.946Z</time></trkpt><trkpt lat="44.52455775186355" lon="11.299739864464113"><ele>35.0</ele><time>2026-04-25T13:29:52.946Z</time></trkpt><trkpt lat="44.524538116397764" lon="11.299358923504107"><ele>35.0</ele><time>2026-04-25T13:29:53.946Z</time></trkpt><trkpt lat="44.52451977579609" lon="11.298960457374678"><ele>36.5</ele><time>2026-04-25T13:29:54.945Z</time></trkpt><trkpt lat="44.524509340065336" lon="11.298565697817992"><ele>38.0</ele><time>2026-04-25T13:29:55.945Z</time></trkpt><trkpt lat="44.52449390244561" lon="11.298185691924774"><ele>39.0</ele><time>2026-04-25T13:29:56.945Z</time></trkpt><trkpt lat="44.52447604815201" lon="11.297793205779701"><ele>40.0</ele><time>2026-04-25T13:29:57.945Z</time></trkpt><trkpt lat="44.52445908714058" lon="11.297399088141585"><ele>40.0</ele><time>2026-04-25T13:29:58.946Z</time></trkpt><trkpt lat="44.52444221762353" lon="11.297005113158345"><ele>40.0</ele><time>2026-04-25T13:29:59.946Z</time></trkpt><trkpt lat="44.52442691544175" lon="11.296615793056223"><ele>39.5</ele><time>2026-04-25T13:30:00.946Z</time></trkpt><trkpt lat="44.52440686306545" lon="11.296222719467552"><ele>39.0</ele><time>2026-04-25T13:30:01.946Z</time></trkpt><trkpt lat="44.5243902850423" lon="11.2958201768258"><ele>39.5</ele><time>2026-04-25T13:30:02.945Z</time></trkpt><trkpt lat="44.52437553417196" lon="11.295427504366524"><ele>40.0</ele><time>2026-04-25T13:30:03.945Z</time></trkpt><trkpt lat="44.52435749726447" lon="11.295038497238739"><ele>39.5</ele><time>2026-04-25T13:30:04.945Z</time></trkpt><trkpt lat="44.52434130714975" lon="11.294641050172531"><ele>39.0</ele><time>2026-04-25T13:30:05.945Z</time></trkpt><trkpt lat="44.52432532332713" lon="11.29424514061846"><ele>39.0</ele><time>2026-04-25T13:30:06.945Z</time></trkpt><trkpt lat="44.52430959282889" lon="11.293852857595308"><ele>39.0</ele><time>2026-04-25T13:30:07.945Z</time></trkpt><trkpt lat="44.524290318994126" lon="11.293460062835061"><ele>38.0</ele><time>2026-04-25T13:30:08.945Z</time></trkpt><trkpt lat="44.524277018511015" lon="11.293063571495793"><ele>37.0</ele><time>2026-04-25T13:30:09.945Z</time></trkpt><trkpt lat="44.52425752884934" lon="11.292670854920337"><ele>37.0</ele><time>2026-04-25T13:30:10.945Z</time></trkpt><trkpt lat="44.52424201693894" lon="11.292274109139752"><ele>37.0</ele><time>2026-04-25T13:30:11.945Z</time></trkpt><trkpt lat="44.52422679072353" lon="11.29187766905976"><ele>36.5</ele><time>2026-04-25T13:30:12.945Z</time></trkpt><trkpt lat="44.52420846023325" lon="11.291479108107488"><ele>36.0</ele><time>2026-04-25T13:30:13.945Z</time></trkpt><trkpt lat="44.524188216612394" lon="11.291075684515585"><ele>37.5</ele><time>2026-04-25T13:30:14.945Z</time></trkpt><trkpt lat="44.524167844920704" lon="11.290670594215609"><ele>39.0</ele><time>2026-04-25T13:30:15.945Z</time></trkpt><trkpt lat="44.52415025971348" lon="11.290265455440334"><ele>40.0</ele><time>2026-04-25T13:30:16.945Z</time></trkpt><trkpt lat="44.52413575595001" lon="11.28985784284886"><ele>41.0</ele><time>2026-04-25T13:30:17.945Z</time></trkpt><trkpt lat="44.524119235719745" lon="11.289454703498524"><ele>41.0</ele><time>2026-04-25T13:30:18.945Z</time></trkpt><trkpt lat="44.52409941067766" lon="11.289060956950886"><ele>41.0</ele><time>2026-04-25T13:30:19.945Z</time></trkpt><trkpt lat="44.52408037295655" lon="11.288680840920803"><ele>41.0</ele><time>2026-04-25T13:30:20.945Z</time></trkpt><trkpt lat="44.524063689984835" lon="11.288315039349426"><ele>41.0</ele><time>2026-04-25T13:30:21.945Z</time></trkpt><trkpt lat="44.52405045689987" lon="11.287961270051118"><ele>40.5</ele><time>2026-04-25T13:30:22.945Z</time></trkpt><trkpt lat="44.524035170664476" lon="11.287636491035519"><ele>40.0</ele><time>2026-04-25T13:30:23.945Z</time></trkpt><trkpt lat="44.524017533509316" lon="11.287330415219758"><ele>38.0</ele><time>2026-04-25T13:30:24.945Z</time></trkpt><trkpt lat="44.52400671477243" lon="11.28701503992115"><ele>36.0</ele><time>2026-04-25T13:30:25.945Z</time></trkpt><trkpt lat="44.52399660546312" lon="11.286689531755213"><ele>35.5</ele><time>2026-04-25T13:30:26.945Z</time></trkpt><trkpt lat="44.5239879974557" lon="11.286355282165522"><ele>35.0</ele><time>2026-04-25T13:30:27.945Z</time></trkpt><trkpt lat="44.52397211859187" lon="11.286022267042963"><ele>35.0</ele><time>2026-04-25T13:30:28.945Z</time></trkpt><trkpt lat="44.52395736163246" lon="11.285683060447653"><ele>35.0</ele><time>2026-04-25T13:30:29.945Z</time></trkpt><trkpt lat="44.52394240384341" lon="11.285340949292324"><ele>38.0</ele><time>2026-04-25T13:30:30.945Z</time></trkpt><trkpt lat="44.52392502413226" lon="11.284990450907523"><ele>41.0</ele><time>2026-04-25T13:30:31.945Z</time></trkpt><trkpt lat="44.52391144246945" lon="11.28463630943276"><ele>41.0</ele><time>2026-04-25T13:30:32.945Z</time></trkpt><trkpt lat="44.52389457239335" lon="11.284279103395267"><ele>41.0</ele><time>2026-04-25T13:30:33.945Z</time></trkpt><trkpt lat="44.52388195171927" lon="11.283913439872238"><ele>41.0</ele><time>2026-04-25T13:30:34.945Z</time></trkpt><trkpt lat="44.5238696750295" lon="11.283546127078948"><ele>41.0</ele><time>2026-04-25T13:30:35.945Z</time></trkpt><trkpt lat="44.523860911193836" lon="11.283172540103571"><ele>40.5</ele><time>2026-04-25T13:30:36.945Z</time></trkpt><trkpt lat="44.52385907261996" lon="11.28279292509864"><ele>40.0</ele><time>2026-04-25T13:30:37.945Z</time></trkpt><trkpt lat="44.523867117981" lon="11.282402883265332"><ele>40.0</ele><time>2026-04-25T13:30:38.945Z</time></trkpt><trkpt lat="44.52388231605524" lon="11.282020348782277"><ele>40.0</ele><time>2026-04-25T13:30:39.945Z</time></trkpt><trkpt lat="44.523913166696985" lon="11.281629374859975"><ele>40.0</ele><time>2026-04-25T13:30:40.945Z</time></trkpt><trkpt lat="44.52395091366899" lon="11.28123927568451"><ele>40.0</ele><time>2026-04-25T13:30:41.945Z</time></trkpt><trkpt lat="44.52399698068475" lon="11.280849022689145"><ele>40.0</ele><time>2026-04-25T13:30:42.945Z</time></trkpt><trkpt lat="44.524052845310315" lon="11.280457841376746"><ele>40.0</ele><time>2026-04-25T13:30:43.945Z</time></trkpt><trkpt lat="44.52411179252509" lon="11.280066259352115"><ele>40.5</ele><time>2026-04-25T13:30:44.945Z</time></trkpt><trkpt lat="44.524183182970205" lon="11.279676538953488"><ele>41.0</ele><time>2026-04-25T13:30:45.945Z</time></trkpt><trkpt lat="44.52426208055528" lon="11.27929134520537"><ele>41.5</ele><time>2026-04-25T13:30:46.945Z</time></trkpt><trkpt lat="44.52435074618242" lon="11.27889994376524"><ele>42.0</ele><time>2026-04-25T13:30:47.945Z</time></trkpt><trkpt lat="44.52444993443801" lon="11.278511131179279"><ele>42.0</ele><time>2026-04-25T13:30:48.945Z</time></trkpt><trkpt lat="44.52456230129472" lon="11.278122042085878"><ele>42.0</ele><time>2026-04-25T13:30:49.945Z</time></trkpt><trkpt lat="44.52468753192409" lon="11.277732798821408"><ele>42.0</ele><time>2026-04-25T13:30:50.945Z</time></trkpt><trkpt lat="44.52482094718704" lon="11.277341916857052"><ele>42.0</ele><time>2026-04-25T13:30:51.945Z</time></trkpt><trkpt lat="44.52496324855486" lon="11.276951482616655"><ele>42.5</ele><time>2026-04-25T13:30:52.945Z</time></trkpt><trkpt lat="44.52510956603499" lon="11.27657099849864"><ele>43.0</ele><time>2026-04-25T13:30:53.945Z</time></trkpt><trkpt lat="44.525262588413504" lon="11.27618790703846"><ele>42.0</ele><time>2026-04-25T13:30:54.945Z</time></trkpt><trkpt lat="44.52541476201041" lon="11.275802277439158"><ele>41.0</ele><time>2026-04-25T13:30:55.945Z</time></trkpt><trkpt lat="44.525564303151526" lon="11.275407547453247"><ele>40.5</ele><time>2026-04-25T13:30:56.945Z</time></trkpt><trkpt lat="44.525711734738245" lon="11.275013781512504"><ele>40.0</ele><time>2026-04-25T13:30:57.945Z</time></trkpt><trkpt lat="44.52585970938932" lon="11.274613594413989"><ele>39.5</ele><time>2026-04-25T13:30:58.945Z</time></trkpt><trkpt lat="44.52600708782179" lon="11.274216239057585"><ele>39.0</ele><time>2026-04-25T13:30:59.945Z</time></trkpt><trkpt lat="44.52615555387544" lon="11.273822469996642"><ele>39.0</ele><time>2026-04-25T13:31:00.945Z</time></trkpt><trkpt lat="44.52630350577069" lon="11.273429441064518"><ele>39.0</ele><time>2026-04-25T13:31:01.945Z</time></trkpt><trkpt lat="44.52645446624154" lon="11.273039312143824"><ele>39.0</ele><time>2026-04-25T13:31:02.945Z</time></trkpt><trkpt lat="44.52660358436382" lon="11.272649642914295"><ele>39.0</ele><time>2026-04-25T13:31:03.945Z</time></trkpt><trkpt lat="44.52675163177614" lon="11.272257741591005"><ele>38.5</ele><time>2026-04-25T13:31:04.945Z</time></trkpt><trkpt lat="44.526900397267205" lon="11.271861070861588"><ele>38.0</ele><time>2026-04-25T13:31:05.945Z</time></trkpt><trkpt lat="44.527048067845456" lon="11.271471176361045"><ele>38.0</ele><time>2026-04-25T13:31:06.945Z</time></trkpt><trkpt lat="44.5271968176313" lon="11.271082817235776"><ele>38.0</ele><time>2026-04-25T13:31:07.945Z</time></trkpt><trkpt lat="44.52734435512017" lon="11.270690588213824"><ele>38.5</ele><time>2026-04-25T13:31:08.945Z</time></trkpt><trkpt lat="44.527490296496836" lon="11.270306219988411"><ele>39.0</ele><time>2026-04-25T13:31:09.945Z</time></trkpt><trkpt lat="44.52763431264642" lon="11.26992279949483"><ele>38.5</ele><time>2026-04-25T13:31:10.945Z</time></trkpt><trkpt lat="44.52778254582766" lon="11.26953381570861"><ele>38.0</ele><time>2026-04-25T13:31:11.945Z</time></trkpt><trkpt lat="44.527931874039794" lon="11.269148310501365"><ele>37.5</ele><time>2026-04-25T13:31:12.945Z</time></trkpt><trkpt lat="44.5280767023756" lon="11.268761008076572"><ele>37.0</ele><time>2026-04-25T13:31:13.945Z</time></trkpt><trkpt lat="44.52822463597318" lon="11.268371050476173"><ele>36.5</ele><time>2026-04-25T13:31:14.945Z</time></trkpt><trkpt lat="44.528372346163216" lon="11.267983500586421"><ele>36.0</ele><time>2026-04-25T13:31:15.945Z</time></trkpt><trkpt lat="44.528515927023086" lon="11.267594033861705"><ele>37.0</ele><time>2026-04-25T13:31:16.945Z</time></trkpt><trkpt lat="44.528654759457616" lon="11.267199216036392"><ele>38.0</ele><time>2026-04-25T13:31:17.945Z</time></trkpt><trkpt lat="44.52879090956527" lon="11.266805722941921"><ele>39.0</ele><time>2026-04-25T13:31:18.945Z</time></trkpt><trkpt lat="44.528911157716685" lon="11.26639521009051"><ele>40.0</ele><time>2026-04-25T13:31:19.945Z</time></trkpt><trkpt lat="44.52902672962662" lon="11.265971713280184"><ele>39.0</ele><time>2026-04-25T13:31:20.945Z</time></trkpt><trkpt lat="44.52912925673084" lon="11.265549421711595"><ele>38.0</ele><time>2026-04-25T13:31:21.945Z</time></trkpt><trkpt lat="44.52922128844718" lon="11.265127115060501"><ele>37.5</ele><time>2026-04-25T13:31:22.945Z</time></trkpt><trkpt lat="44.52930105226571" lon="11.264704696775256"><ele>37.0</ele><time>2026-04-25T13:31:23.945Z</time></trkpt><trkpt lat="44.52936803348868" lon="11.264281816109836"><ele>38.0</ele><time>2026-04-25T13:31:24.945Z</time></trkpt><trkpt lat="44.529429136704564" lon="11.263860031227376"><ele>39.0</ele><time>2026-04-25T13:31:25.944Z</time></trkpt><trkpt lat="44.529482071571934" lon="11.263431555668523"><ele>39.5</ele><time>2026-04-25T13:31:26.944Z</time></trkpt><trkpt lat="44.52952027332797" lon="11.26300357193502"><ele>40.0</ele><time>2026-04-25T13:31:27.944Z</time></trkpt><trkpt lat="44.52954882246069" lon="11.262572798144966"><ele>39.0</ele><time>2026-04-25T13:31:28.944Z</time></trkpt><trkpt lat="44.5295633206921" lon="11.262143280968756"><ele>38.0</ele><time>2026-04-25T13:31:29.944Z</time></trkpt><trkpt lat="44.52956724151918" lon="11.261715933060259"><ele>40.0</ele><time>2026-04-25T13:31:30.944Z</time></trkpt><trkpt lat="44.52955908393462" lon="11.261294486487772"><ele>42.0</ele><time>2026-04-25T13:31:31.944Z</time></trkpt><trkpt lat="44.529540581710826" lon="11.26087813225125"><ele>42.5</ele><time>2026-04-25T13:31:32.944Z</time></trkpt><trkpt lat="44.52951411923894" lon="11.260461827023057"><ele>43.0</ele><time>2026-04-25T13:31:33.944Z</time></trkpt><trkpt lat="44.52948125313439" lon="11.260043137134964"><ele>42.5</ele><time>2026-04-25T13:31:34.944Z</time></trkpt><trkpt lat="44.52944131288851" lon="11.259624339717504"><ele>42.0</ele><time>2026-04-25T13:31:35.944Z</time></trkpt><trkpt lat="44.529390409810055" lon="11.259207828498013"><ele>42.0</ele><time>2026-04-25T13:31:36.944Z</time></trkpt><trkpt lat="44.52932776142329" lon="11.258789473824507"><ele>42.0</ele><time>2026-04-25T13:31:37.944Z</time></trkpt><trkpt lat="44.52925405861931" lon="11.258376633418932"><ele>42.0</ele><time>2026-04-25T13:31:38.944Z</time></trkpt><trkpt lat="44.52916739113736" lon="11.257968646799215"><ele>42.0</ele><time>2026-04-25T13:31:39.944Z</time></trkpt><trkpt lat="44.52907229258555" lon="11.25756967192177"><ele>42.0</ele><time>2026-04-25T13:31:40.944Z</time></trkpt><trkpt lat="44.52897257581682" lon="11.25717111973211"><ele>42.0</ele><time>2026-04-25T13:31:41.944Z</time></trkpt><trkpt lat="44.528859788123754" lon="11.256768318338688"><ele>43.5</ele><time>2026-04-25T13:31:42.944Z</time></trkpt><trkpt lat="44.528742306829685" lon="11.256356887789575"><ele>45.0</ele><time>2026-04-25T13:31:43.944Z</time></trkpt><trkpt lat="44.52860617676454" lon="11.255981190080034"><ele>45.0</ele><time>2026-04-25T13:31:44.944Z</time></trkpt><trkpt lat="44.52846373128362" lon="11.255598277713133"><ele>45.0</ele><time>2026-04-25T13:31:45.944Z</time></trkpt><trkpt lat="44.528320136258685" lon="11.255211807257718"><ele>45.0</ele><time>2026-04-25T13:31:46.944Z</time></trkpt><trkpt lat="44.528182833210636" lon="11.254835746687204"><ele>45.0</ele><time>2026-04-25T13:31:47.944Z</time></trkpt><trkpt lat="44.52804541573017" lon="11.254459710969362"><ele>45.0</ele><time>2026-04-25T13:31:48.944Z</time></trkpt><trkpt lat="44.527918647032536" lon="11.254069823383082"><ele>45.0</ele><time>2026-04-25T13:31:49.944Z</time></trkpt><trkpt lat="44.52778226380645" lon="11.253699348326828"><ele>45.0</ele><time>2026-04-25T13:31:50.944Z</time></trkpt><trkpt lat="44.52764791530878" lon="11.253327447152982"><ele>45.0</ele><time>2026-04-25T13:31:51.944Z</time></trkpt><trkpt lat="44.527512664086736" lon="11.252958220328921"><ele>45.0</ele><time>2026-04-25T13:31:52.944Z</time></trkpt><trkpt lat="44.52738060671581" lon="11.252583935668516"><ele>45.0</ele><time>2026-04-25T13:31:53.944Z</time></trkpt><trkpt lat="44.52724590795665" lon="11.25222265103474"><ele>44.5</ele><time>2026-04-25T13:31:54.943Z</time></trkpt><trkpt lat="44.52711821482013" lon="11.251871549339656"><ele>44.0</ele><time>2026-04-25T13:31:55.943Z</time></trkpt><trkpt lat="44.52699024175461" lon="11.251508496358138"><ele>45.0</ele><time>2026-04-25T13:31:56.943Z</time></trkpt><trkpt lat="44.52685954592916" lon="11.25115580039269"><ele>46.0</ele><time>2026-04-25T13:31:57.943Z</time></trkpt><trkpt lat="44.526725900181894" lon="11.250788413636858"><ele>45.0</ele><time>2026-04-25T13:31:58.943Z</time></trkpt><trkpt lat="44.52659311177377" lon="11.250413248822346"><ele>44.0</ele><time>2026-04-25T13:31:59.943Z</time></trkpt><trkpt lat="44.526458353179365" lon="11.250043658985636"><ele>44.0</ele><time>2026-04-25T13:32:00.943Z</time></trkpt><trkpt lat="44.52631935390352" lon="11.249664612733168"><ele>44.0</ele><time>2026-04-25T13:32:01.943Z</time></trkpt><trkpt lat="44.52618479902491" lon="11.249275801990304"><ele>46.0</ele><time>2026-04-25T13:32:02.943Z</time></trkpt><trkpt lat="44.52604585162174" lon="11.248889840225925"><ele>48.0</ele><time>2026-04-25T13:32:03.943Z</time></trkpt><trkpt lat="44.52591054923305" lon="11.248516457636464"><ele>48.0</ele><time>2026-04-25T13:32:04.943Z</time></trkpt><trkpt lat="44.52577938337772" lon="11.248141347466628"><ele>48.0</ele><time>2026-04-25T13:32:05.943Z</time></trkpt><trkpt lat="44.52565505460963" lon="11.247766815708687"><ele>48.0</ele><time>2026-04-25T13:32:06.943Z</time></trkpt><trkpt lat="44.52552460244508" lon="11.24739399579134"><ele>48.0</ele><time>2026-04-25T13:32:07.943Z</time></trkpt><trkpt lat="44.52538958903153" lon="11.247028559263818"><ele>48.0</ele><time>2026-04-25T13:32:08.943Z</time></trkpt><trkpt lat="44.52525658360939" lon="11.246662308783634"><ele>48.0</ele><time>2026-04-25T13:32:09.943Z</time></trkpt><trkpt lat="44.52513108330436" lon="11.246297909663461"><ele>48.0</ele><time>2026-04-25T13:32:10.943Z</time></trkpt><trkpt lat="44.52499483683557" lon="11.245932545308408"><ele>48.0</ele><time>2026-04-25T13:32:11.943Z</time></trkpt><trkpt lat="44.5248609114845" lon="11.245560978182906"><ele>48.0</ele><time>2026-04-25T13:32:12.942Z</time></trkpt><trkpt lat="44.52472249557689" lon="11.245195697004895"><ele>48.0</ele><time>2026-04-25T13:32:13.942Z</time></trkpt><trkpt lat="44.524590258735955" lon="11.24482274009987"><ele>46.5</ele><time>2026-04-25T13:32:14.942Z</time></trkpt><trkpt lat="44.52445381209694" lon="11.244446999628929"><ele>45.0</ele><time>2026-04-25T13:32:15.942Z</time></trkpt><trkpt lat="44.524321098591216" lon="11.244077392713827"><ele>45.5</ele><time>2026-04-25T13:32:16.942Z</time></trkpt><trkpt lat="44.524191099562344" lon="11.243699163420198"><ele>46.0</ele><time>2026-04-25T13:32:17.942Z</time></trkpt><trkpt lat="44.52405913767681" lon="11.24332736298681"><ele>47.0</ele><time>2026-04-25T13:32:18.942Z</time></trkpt><trkpt lat="44.52379654236319" lon="11.24258069273648"><ele>46.5</ele><time>2026-04-25T13:32:20.942Z</time></trkpt><trkpt lat="44.52366606515347" lon="11.242213800394849"><ele>46.0</ele><time>2026-04-25T13:32:21.942Z</time></trkpt><trkpt lat="44.52353183852741" lon="11.241842815290571"><ele>46.0</ele><time>2026-04-25T13:32:22.942Z</time></trkpt><trkpt lat="44.52340240313465" lon="11.241477226655743"><ele>46.0</ele><time>2026-04-25T13:32:23.942Z</time></trkpt><trkpt lat="44.52327092868007" lon="11.241106088989703"><ele>47.0</ele><time>2026-04-25T13:32:24.942Z</time></trkpt><trkpt lat="44.52314203954613" lon="11.240731223844266"><ele>48.0</ele><time>2026-04-25T13:32:25.942Z</time></trkpt><trkpt lat="44.52300950084308" lon="11.240359362602112"><ele>47.5</ele><time>2026-04-25T13:32:26.942Z</time></trkpt><trkpt lat="44.52287481374583" lon="11.23998536598048"><ele>47.0</ele><time>2026-04-25T13:32:27.942Z</time></trkpt><trkpt lat="44.522739701881065" lon="11.239616807388868"><ele>47.0</ele><time>2026-04-25T13:32:28.942Z</time></trkpt><trkpt lat="44.52260535077985" lon="11.239246712441274"><ele>47.0</ele><time>2026-04-25T13:32:29.942Z</time></trkpt><trkpt lat="44.52248233128694" lon="11.238873115193327"><ele>47.5</ele><time>2026-04-25T13:32:30.942Z</time></trkpt><trkpt lat="44.52236679803382" lon="11.238508894348856"><ele>48.0</ele><time>2026-04-25T13:32:31.942Z</time></trkpt><trkpt lat="44.522269213584515" lon="11.2381223457489"><ele>48.0</ele><time>2026-04-25T13:32:32.942Z</time></trkpt><trkpt lat="44.52218324605262" lon="11.237739731706991"><ele>48.0</ele><time>2026-04-25T13:32:33.942Z</time></trkpt><trkpt lat="44.52210040790115" lon="11.237362614470998"><ele>47.5</ele><time>2026-04-25T13:32:34.942Z</time></trkpt><trkpt lat="44.52203301915709" lon="11.236975465364136"><ele>47.0</ele><time>2026-04-25T13:32:35.942Z</time></trkpt><trkpt lat="44.521971778830654" lon="11.236587843493258"><ele>47.0</ele><time>2026-04-25T13:32:36.942Z</time></trkpt><trkpt lat="44.521923149623284" lon="11.236195225279454"><ele>47.0</ele><time>2026-04-25T13:32:37.942Z</time></trkpt><trkpt lat="44.52186233812946" lon="11.2358048230353"><ele>48.0</ele><time>2026-04-25T13:32:38.942Z</time></trkpt><trkpt lat="44.52181944172103" lon="11.235409739874328"><ele>49.0</ele><time>2026-04-25T13:32:39.942Z</time></trkpt><trkpt lat="44.52177067263085" lon="11.235022651677761"><ele>49.0</ele><time>2026-04-25T13:32:40.942Z</time></trkpt><trkpt lat="44.52172382834939" lon="11.234627703827814"><ele>49.0</ele><time>2026-04-25T13:32:41.942Z</time></trkpt><trkpt lat="44.52167223549555" lon="11.234229066289647"><ele>48.0</ele><time>2026-04-25T13:32:42.942Z</time></trkpt><trkpt lat="44.52162137087369" lon="11.233826321403981"><ele>47.0</ele><time>2026-04-25T13:32:43.942Z</time></trkpt><trkpt lat="44.52157071863064" lon="11.233423078582799"><ele>47.0</ele><time>2026-04-25T13:32:44.942Z</time></trkpt><trkpt lat="44.521514749653406" lon="11.233015194649907"><ele>47.0</ele><time>2026-04-25T13:32:45.942Z</time></trkpt><trkpt lat="44.52146630190421" lon="11.232614657585282"><ele>48.0</ele><time>2026-04-25T13:32:46.942Z</time></trkpt><trkpt lat="44.521415788930206" lon="11.23221007112904"><ele>49.0</ele><time>2026-04-25T13:32:47.942Z</time></trkpt><trkpt lat="44.521362856454246" lon="11.23180599968951"><ele>49.0</ele><time>2026-04-25T13:32:48.942Z</time></trkpt><trkpt lat="44.52131132926378" lon="11.231402496444208"><ele>49.0</ele><time>2026-04-25T13:32:49.942Z</time></trkpt><trkpt lat="44.521261551709" lon="11.231001325672771"><ele>48.5</ele><time>2026-04-25T13:32:50.942Z</time></trkpt><trkpt lat="44.52121148126237" lon="11.230590958388808"><ele>48.0</ele><time>2026-04-25T13:32:51.942Z</time></trkpt><trkpt lat="44.52115899379042" lon="11.230184367004425"><ele>47.5</ele><time>2026-04-25T13:32:52.942Z</time></trkpt><trkpt lat="44.52110433524909" lon="11.22977947692975"><ele>47.0</ele><time>2026-04-25T13:32:53.942Z</time></trkpt><trkpt lat="44.52105180008514" lon="11.22937346941202"><ele>47.5</ele><time>2026-04-25T13:32:54.942Z</time></trkpt><trkpt lat="44.52100196105621" lon="11.228965862111897"><ele>48.0</ele><time>2026-04-25T13:32:55.942Z</time></trkpt><trkpt lat="44.52094985036705" lon="11.228559497623"><ele>48.0</ele><time>2026-04-25T13:32:56.942Z</time></trkpt><trkpt lat="44.5208993916211" lon="11.228156652895613"><ele>48.0</ele><time>2026-04-25T13:32:57.942Z</time></trkpt><trkpt lat="44.52084700482787" lon="11.227748958477024"><ele>48.0</ele><time>2026-04-25T13:32:58.942Z</time></trkpt><trkpt lat="44.520797723528034" lon="11.227342211135587"><ele>48.0</ele><time>2026-04-25T13:32:59.942Z</time></trkpt><trkpt lat="44.52074486560137" lon="11.226931795854274"><ele>48.0</ele><time>2026-04-25T13:33:00.942Z</time></trkpt><trkpt lat="44.520694403963034" lon="11.226520138413536"><ele>48.0</ele><time>2026-04-25T13:33:01.942Z</time></trkpt><trkpt lat="44.520642651634894" lon="11.2261152561603"><ele>49.0</ele><time>2026-04-25T13:33:02.942Z</time></trkpt><trkpt lat="44.52059063368394" lon="11.225704960648583"><ele>50.0</ele><time>2026-04-25T13:33:03.942Z</time></trkpt><trkpt lat="44.52053781416204" lon="11.22529844017364"><ele>50.0</ele><time>2026-04-25T13:33:04.942Z</time></trkpt><trkpt lat="44.52049017122087" lon="11.224893801659034"><ele>50.0</ele><time>2026-04-25T13:33:05.942Z</time></trkpt><trkpt lat="44.520440789814764" lon="11.224487968974671"><ele>49.0</ele><time>2026-04-25T13:33:06.942Z</time></trkpt><trkpt lat="44.52038940796706" lon="11.224087945654123"><ele>48.0</ele><time>2026-04-25T13:33:07.942Z</time></trkpt><trkpt lat="44.52033662537514" lon="11.223682676449302"><ele>48.0</ele><time>2026-04-25T13:33:08.942Z</time></trkpt><trkpt lat="44.52028634919011" lon="11.223279110956058"><ele>48.0</ele><time>2026-04-25T13:33:09.942Z</time></trkpt><trkpt lat="44.52023934167557" lon="11.222876257230912"><ele>48.0</ele><time>2026-04-25T13:33:10.942Z</time></trkpt><trkpt lat="44.5201889361755" lon="11.222470009634202"><ele>48.0</ele><time>2026-04-25T13:33:11.942Z</time></trkpt><trkpt lat="44.52014126122303" lon="11.222072395336014"><ele>48.0</ele><time>2026-04-25T13:33:12.942Z</time></trkpt><trkpt lat="44.52009266972716" lon="11.221676200169304"><ele>48.0</ele><time>2026-04-25T13:33:13.942Z</time></trkpt><trkpt lat="44.52004390133745" lon="11.221283087814736"><ele>48.0</ele><time>2026-04-25T13:33:14.942Z</time></trkpt><trkpt lat="44.519991706413514" lon="11.220887941598809"><ele>48.0</ele><time>2026-04-25T13:33:15.942Z</time></trkpt><trkpt lat="44.519943100176114" lon="11.220496814174242"><ele>48.0</ele><time>2026-04-25T13:33:16.942Z</time></trkpt><trkpt lat="44.51989383343517" lon="11.220103026907864"><ele>48.0</ele><time>2026-04-25T13:33:17.942Z</time></trkpt><trkpt lat="44.5198440673158" lon="11.219710717763576"><ele>48.0</ele><time>2026-04-25T13:33:18.942Z</time></trkpt><trkpt lat="44.51979610998982" lon="11.219320214236255"><ele>48.0</ele><time>2026-04-25T13:33:19.942Z</time></trkpt><trkpt lat="44.51974578631333" lon="11.218928408431045"><ele>48.0</ele><time>2026-04-25T13:33:20.942Z</time></trkpt><trkpt lat="44.5196956759232" lon="11.218536854849427"><ele>48.0</ele><time>2026-04-25T13:33:21.942Z</time></trkpt><trkpt lat="44.51964314180917" lon="11.218144960902134"><ele>47.5</ele><time>2026-04-25T13:33:22.942Z</time></trkpt><trkpt lat="44.51958875461318" lon="11.21775326438674"><ele>47.0</ele><time>2026-04-25T13:33:23.942Z</time></trkpt><trkpt lat="44.51953522185671" lon="11.217358257286104"><ele>48.0</ele><time>2026-04-25T13:33:24.942Z</time></trkpt><trkpt lat="44.519483229212675" lon="11.216960409679263"><ele>49.0</ele><time>2026-04-25T13:33:25.942Z</time></trkpt><trkpt lat="44.51943421011214" lon="11.21656011801274"><ele>50.0</ele><time>2026-04-25T13:33:26.942Z</time></trkpt><trkpt lat="44.51938605712079" lon="11.216159819322161"><ele>51.0</ele><time>2026-04-25T13:33:27.942Z</time></trkpt><trkpt lat="44.51933312096843" lon="11.2157620783335"><ele>50.5</ele><time>2026-04-25T13:33:28.942Z</time></trkpt><trkpt lat="44.519279906574994" lon="11.215359409175493"><ele>50.0</ele><time>2026-04-25T13:33:29.942Z</time></trkpt><trkpt lat="44.51922936666628" lon="11.214958298595862"><ele>49.5</ele><time>2026-04-25T13:33:30.942Z</time></trkpt><trkpt lat="44.51917926632466" lon="11.21456095441506"><ele>49.0</ele><time>2026-04-25T13:33:31.942Z</time></trkpt><trkpt lat="44.51912957798569" lon="11.21416295589585"><ele>49.5</ele><time>2026-04-25T13:33:32.942Z</time></trkpt><trkpt lat="44.519074245475096" lon="11.213770148027589"><ele>50.0</ele><time>2026-04-25T13:33:33.942Z</time></trkpt><trkpt lat="44.51901678047647" lon="11.21337702022454"><ele>49.5</ele><time>2026-04-25T13:33:34.942Z</time></trkpt><trkpt lat="44.51895913969661" lon="11.212981518116154"><ele>49.0</ele><time>2026-04-25T13:33:35.942Z</time></trkpt><trkpt lat="44.518905922243306" lon="11.21258114686953"><ele>49.0</ele><time>2026-04-25T13:33:36.942Z</time></trkpt><trkpt lat="44.51886387780405" lon="11.21218187360298"><ele>49.0</ele><time>2026-04-25T13:33:37.942Z</time></trkpt><trkpt lat="44.51882496692472" lon="11.211790465166713"><ele>49.0</ele><time>2026-04-25T13:33:38.942Z</time></trkpt><trkpt lat="44.51878205777879" lon="11.211397009571437"><ele>49.0</ele><time>2026-04-25T13:33:39.942Z</time></trkpt><trkpt lat="44.51873598465556" lon="11.211009154160639"><ele>49.0</ele><time>2026-04-25T13:33:40.942Z</time></trkpt><trkpt lat="44.51868456892931" lon="11.210618680424862"><ele>49.0</ele><time>2026-04-25T13:33:41.942Z</time></trkpt><trkpt lat="44.51863094197656" lon="11.210227159225987"><ele>49.0</ele><time>2026-04-25T13:33:42.942Z</time></trkpt><trkpt lat="44.51858023099201" lon="11.20983653844562"><ele>49.0</ele><time>2026-04-25T13:33:43.942Z</time></trkpt><trkpt lat="44.51853506071061" lon="11.20944517053617"><ele>49.0</ele><time>2026-04-25T13:33:44.942Z</time></trkpt><trkpt lat="44.51848805937758" lon="11.209055390444083"><ele>49.0</ele><time>2026-04-25T13:33:45.942Z</time></trkpt><trkpt lat="44.51844127847311" lon="11.208662495273487"><ele>49.0</ele><time>2026-04-25T13:33:46.942Z</time></trkpt><trkpt lat="44.518394387580294" lon="11.208269806971384"><ele>49.0</ele><time>2026-04-25T13:33:47.942Z</time></trkpt><trkpt lat="44.51834422948174" lon="11.207878031891894"><ele>49.0</ele><time>2026-04-25T13:33:48.942Z</time></trkpt><trkpt lat="44.518291534938385" lon="11.207486589385205"><ele>49.0</ele><time>2026-04-25T13:33:49.941Z</time></trkpt><trkpt lat="44.51823912767355" lon="11.207086624395993"><ele>49.0</ele><time>2026-04-25T13:33:50.941Z</time></trkpt><trkpt lat="44.518183192635576" lon="11.20668072821421"><ele>49.0</ele><time>2026-04-25T13:33:51.941Z</time></trkpt><trkpt lat="44.51813972446126" lon="11.206278615510374"><ele>49.0</ele><time>2026-04-25T13:33:52.941Z</time></trkpt><trkpt lat="44.518088194425246" lon="11.205870231054787"><ele>49.0</ele><time>2026-04-25T13:33:53.941Z</time></trkpt><trkpt lat="44.518036478031675" lon="11.205457286295488"><ele>49.0</ele><time>2026-04-25T13:33:54.941Z</time></trkpt><trkpt lat="44.51798577602424" lon="11.205049236917025"><ele>49.0</ele><time>2026-04-25T13:33:55.941Z</time></trkpt><trkpt lat="44.517930144671986" lon="11.20464213885547"><ele>49.5</ele><time>2026-04-25T13:33:56.941Z</time></trkpt><trkpt lat="44.517878882868935" lon="11.204233187755536"><ele>50.0</ele><time>2026-04-25T13:33:57.942Z</time></trkpt><trkpt lat="44.51782225718972" lon="11.203827064316009"><ele>50.5</ele><time>2026-04-25T13:33:58.942Z</time></trkpt><trkpt lat="44.517763390560646" lon="11.20341906684271"><ele>51.0</ele><time>2026-04-25T13:33:59.942Z</time></trkpt><trkpt lat="44.51770022228449" lon="11.20301617170313"><ele>51.0</ele><time>2026-04-25T13:34:00.942Z</time></trkpt><trkpt lat="44.51764260783718" lon="11.20261688378607"><ele>51.0</ele><time>2026-04-25T13:34:01.941Z</time></trkpt><trkpt lat="44.51758763449648" lon="11.20222486665462"><ele>51.5</ele><time>2026-04-25T13:34:02.941Z</time></trkpt><trkpt lat="44.5175318990479" lon="11.201835966984177"><ele>52.0</ele><time>2026-04-25T13:34:03.942Z</time></trkpt><trkpt lat="44.517481791555994" lon="11.20144501732307"><ele>52.5</ele><time>2026-04-25T13:34:04.942Z</time></trkpt><trkpt lat="44.51742835236433" lon="11.201052263531642"><ele>53.0</ele><time>2026-04-25T13:34:05.942Z</time></trkpt><trkpt lat="44.51737061700668" lon="11.20065816805969"><ele>53.0</ele><time>2026-04-25T13:34:06.941Z</time></trkpt><trkpt lat="44.51731483163801" lon="11.200259525312713"><ele>53.0</ele><time>2026-04-25T13:34:07.942Z</time></trkpt><trkpt lat="44.517264848771696" lon="11.1998638080286"><ele>52.5</ele><time>2026-04-25T13:34:08.942Z</time></trkpt><trkpt lat="44.51721297965102" lon="11.199454570169136"><ele>52.0</ele><time>2026-04-25T13:34:09.941Z</time></trkpt><trkpt lat="44.517166515555935" lon="11.199049515133563"><ele>51.0</ele><time>2026-04-25T13:34:10.941Z</time></trkpt><trkpt lat="44.51712390055228" lon="11.19864070820074"><ele>50.0</ele><time>2026-04-25T13:34:11.941Z</time></trkpt><trkpt lat="44.517077428485706" lon="11.198227481607173"><ele>51.0</ele><time>2026-04-25T13:34:12.941Z</time></trkpt><trkpt lat="44.51702770202111" lon="11.19781670545603"><ele>52.0</ele><time>2026-04-25T13:34:13.941Z</time></trkpt><trkpt lat="44.51697523373609" lon="11.197412796586423"><ele>52.5</ele><time>2026-04-25T13:34:14.941Z</time></trkpt><trkpt lat="44.516923546565145" lon="11.197016679367074"><ele>53.0</ele><time>2026-04-25T13:34:15.941Z</time></trkpt><trkpt lat="44.51687070262254" lon="11.196619455867985"><ele>52.0</ele><time>2026-04-25T13:34:16.941Z</time></trkpt><trkpt lat="44.51682118667621" lon="11.196218352365426"><ele>51.0</ele><time>2026-04-25T13:34:17.941Z</time></trkpt><trkpt lat="44.5167591606502" lon="11.19582649274387"><ele>51.0</ele><time>2026-04-25T13:34:18.941Z</time></trkpt><trkpt lat="44.51668869980989" lon="11.195432255714486"><ele>51.0</ele><time>2026-04-25T13:34:19.941Z</time></trkpt><trkpt lat="44.51660777881303" lon="11.195038961220368"><ele>51.5</ele><time>2026-04-25T13:34:20.941Z</time></trkpt><trkpt lat="44.516511032585875" lon="11.194647063842748"><ele>52.0</ele><time>2026-04-25T13:34:21.941Z</time></trkpt><trkpt lat="44.5164000413414" lon="11.194261294436204"><ele>52.5</ele><time>2026-04-25T13:34:22.941Z</time></trkpt><trkpt lat="44.516272750069014" lon="11.193885055761951"><ele>53.0</ele><time>2026-04-25T13:34:23.941Z</time></trkpt><trkpt lat="44.51613596555559" lon="11.193513496340461"><ele>52.5</ele><time>2026-04-25T13:34:24.941Z</time></trkpt><trkpt lat="44.51598150234345" lon="11.193158305348987"><ele>52.0</ele><time>2026-04-25T13:34:25.941Z</time></trkpt><trkpt lat="44.515810989214124" lon="11.192824466693573"><ele>52.0</ele><time>2026-04-25T13:34:26.941Z</time></trkpt><trkpt lat="44.515627862571954" lon="11.192507205068598"><ele>52.0</ele><time>2026-04-25T13:34:27.941Z</time></trkpt><trkpt lat="44.51543014126337" lon="11.19220531088496"><ele>53.0</ele><time>2026-04-25T13:34:28.941Z</time></trkpt><trkpt lat="44.51522824278853" lon="11.191934530576658"><ele>54.0</ele><time>2026-04-25T13:34:29.941Z</time></trkpt><trkpt lat="44.515017368778565" lon="11.19168500644409"><ele>52.0</ele><time>2026-04-25T13:34:30.941Z</time></trkpt><trkpt lat="44.51481351027694" lon="11.191426130253719"><ele>50.0</ele><time>2026-04-25T13:34:31.941Z</time></trkpt><trkpt lat="44.51461496293642" lon="11.191168916729428"><ele>52.0</ele><time>2026-04-25T13:34:32.941Z</time></trkpt><trkpt lat="44.514418594619286" lon="11.190925208572212"><ele>54.0</ele><time>2026-04-25T13:34:33.941Z</time></trkpt><trkpt lat="44.51422711472659" lon="11.190686157895316"><ele>53.5</ele><time>2026-04-25T13:34:34.941Z</time></trkpt><trkpt lat="44.51404465164576" lon="11.190447473749702"><ele>53.0</ele><time>2026-04-25T13:34:35.941Z</time></trkpt><trkpt lat="44.51387338246704" lon="11.190204757568972"><ele>53.5</ele><time>2026-04-25T13:34:36.941Z</time></trkpt><trkpt lat="44.5137157922322" lon="11.189954213889568"><ele>54.0</ele><time>2026-04-25T13:34:37.941Z</time></trkpt><trkpt lat="44.513567778771275" lon="11.189699972752036"><ele>52.5</ele><time>2026-04-25T13:34:38.941Z</time></trkpt><trkpt lat="44.513431665281495" lon="11.18943991860444"><ele>51.0</ele><time>2026-04-25T13:34:39.941Z</time></trkpt><trkpt lat="44.51330802212902" lon="11.189164645861785"><ele>50.5</ele><time>2026-04-25T13:34:40.941Z</time></trkpt><trkpt lat="44.51319704040681" lon="11.188880658463212"><ele>50.0</ele><time>2026-04-25T13:34:41.941Z</time></trkpt><trkpt lat="44.51310032855146" lon="11.188586365764232"><ele>50.0</ele><time>2026-04-25T13:34:42.941Z</time></trkpt><trkpt lat="44.51302403242806" lon="11.188283679690773"><ele>50.0</ele><time>2026-04-25T13:34:43.941Z</time></trkpt><trkpt lat="44.512972532286526" lon="11.18797772266837"><ele>51.0</ele><time>2026-04-25T13:34:44.941Z</time></trkpt><trkpt lat="44.512936960386305" lon="11.18765560915948"><ele>52.0</ele><time>2026-04-25T13:34:45.941Z</time></trkpt><trkpt lat="44.51292255203645" lon="11.187326929454567"><ele>52.0</ele><time>2026-04-25T13:34:46.941Z</time></trkpt><trkpt lat="44.51292361061023" lon="11.186991482589988"><ele>52.0</ele><time>2026-04-25T13:34:47.941Z</time></trkpt><trkpt lat="44.51294770414621" lon="11.186659400333022"><ele>51.0</ele><time>2026-04-25T13:34:48.941Z</time></trkpt><trkpt lat="44.51298965669082" lon="11.1863270868905"><ele>50.0</ele><time>2026-04-25T13:34:49.941Z</time></trkpt><trkpt lat="44.51303854396989" lon="11.186003104769402"><ele>50.0</ele><time>2026-04-25T13:34:50.941Z</time></trkpt><trkpt lat="44.51310567917709" lon="11.185668650152207"><ele>50.0</ele><time>2026-04-25T13:34:51.941Z</time></trkpt><trkpt lat="44.513195392955694" lon="11.185334520369478"><ele>50.0</ele><time>2026-04-25T13:34:52.941Z</time></trkpt><trkpt lat="44.51327927014822" lon="11.184993459533162"><ele>50.0</ele><time>2026-04-25T13:34:53.941Z</time></trkpt><trkpt lat="44.5133688182445" lon="11.184639649062879"><ele>50.5</ele><time>2026-04-25T13:34:54.941Z</time></trkpt><trkpt lat="44.51347685153866" lon="11.184290770977203"><ele>51.0</ele><time>2026-04-25T13:34:55.941Z</time></trkpt><trkpt lat="44.513603316041284" lon="11.183951141624437"><ele>50.5</ele><time>2026-04-25T13:34:56.941Z</time></trkpt><trkpt lat="44.513738881280055" lon="11.183600116498987"><ele>50.0</ele><time>2026-04-25T13:34:57.94Z</time></trkpt><trkpt lat="44.513870718076355" lon="11.183247124042566"><ele>49.5</ele><time>2026-04-25T13:34:58.94Z</time></trkpt><trkpt lat="44.51399793759194" lon="11.182886188563423"><ele>49.0</ele><time>2026-04-25T13:34:59.94Z</time></trkpt><trkpt lat="44.51412563738902" lon="11.182532153403244"><ele>49.5</ele><time>2026-04-25T13:35:00.94Z</time></trkpt><trkpt lat="44.514254184946076" lon="11.182174276139756"><ele>50.0</ele><time>2026-04-25T13:35:01.94Z</time></trkpt><trkpt lat="44.51437706754599" lon="11.181815402037419"><ele>50.0</ele><time>2026-04-25T13:35:02.94Z</time></trkpt><trkpt lat="44.51449654418399" lon="11.1814533020228"><ele>50.0</ele><time>2026-04-25T13:35:03.94Z</time></trkpt><trkpt lat="44.51462206915764" lon="11.181089553950613"><ele>48.5</ele><time>2026-04-25T13:35:04.94Z</time></trkpt><trkpt lat="44.51474905424575" lon="11.180731760013536"><ele>47.0</ele><time>2026-04-25T13:35:05.94Z</time></trkpt><trkpt lat="44.51487806689322" lon="11.180364213278741"><ele>47.0</ele><time>2026-04-25T13:35:06.94Z</time></trkpt><trkpt lat="44.51500795027138" lon="11.18000006283883"><ele>47.0</ele><time>2026-04-25T13:35:07.94Z</time></trkpt><trkpt lat="44.51513766991788" lon="11.17963853261778"><ele>46.5</ele><time>2026-04-25T13:35:08.94Z</time></trkpt><trkpt lat="44.515271185572175" lon="11.179271177877656"><ele>46.0</ele><time>2026-04-25T13:35:09.94Z</time></trkpt><trkpt lat="44.51540884773248" lon="11.17890847681068"><ele>46.0</ele><time>2026-04-25T13:35:10.94Z</time></trkpt><trkpt lat="44.5155468043843" lon="11.178544114377255"><ele>46.0</ele><time>2026-04-25T13:35:11.94Z</time></trkpt><trkpt lat="44.515685357249595" lon="11.178180280581087"><ele>47.0</ele><time>2026-04-25T13:35:12.94Z</time></trkpt><trkpt lat="44.51582149396663" lon="11.177816766661614"><ele>48.0</ele><time>2026-04-25T13:35:13.94Z</time></trkpt><trkpt lat="44.51595515409137" lon="11.177454144304958"><ele>48.5</ele><time>2026-04-25T13:35:14.94Z</time></trkpt><trkpt lat="44.516087924707115" lon="11.17709480031637"><ele>49.0</ele><time>2026-04-25T13:35:15.94Z</time></trkpt><trkpt lat="44.51621940068719" lon="11.176740883160715"><ele>49.5</ele><time>2026-04-25T13:35:16.94Z</time></trkpt><trkpt lat="44.51634946437548" lon="11.176381671537996"><ele>50.0</ele><time>2026-04-25T13:35:17.94Z</time></trkpt><trkpt lat="44.516479780839546" lon="11.176021745499494"><ele>52.0</ele><time>2026-04-25T13:35:18.94Z</time></trkpt><trkpt lat="44.51661114554793" lon="11.1756618534659"><ele>54.0</ele><time>2026-04-25T13:35:19.94Z</time></trkpt><trkpt lat="44.51674152037004" lon="11.175298080880145"><ele>54.0</ele><time>2026-04-25T13:35:20.94Z</time></trkpt><trkpt lat="44.51687145706296" lon="11.174935385460852"><ele>54.0</ele><time>2026-04-25T13:35:21.94Z</time></trkpt><trkpt lat="44.517000568464645" lon="11.174571750074785"><ele>53.0</ele><time>2026-04-25T13:35:22.94Z</time></trkpt><trkpt lat="44.517129681910774" lon="11.174208288357201"><ele>52.0</ele><time>2026-04-25T13:35:23.94Z</time></trkpt><trkpt lat="44.51725812655783" lon="11.173843506342497"><ele>52.0</ele><time>2026-04-25T13:35:24.94Z</time></trkpt><trkpt lat="44.51739517673571" lon="11.173479531111896"><ele>52.0</ele><time>2026-04-25T13:35:25.94Z</time></trkpt><trkpt lat="44.517527970158135" lon="11.173112043422673"><ele>51.0</ele><time>2026-04-25T13:35:26.94Z</time></trkpt><trkpt lat="44.5176626567836" lon="11.172739210217467"><ele>50.0</ele><time>2026-04-25T13:35:27.94Z</time></trkpt><trkpt lat="44.51779757076333" lon="11.172363311666645"><ele>49.5</ele><time>2026-04-25T13:35:28.94Z</time></trkpt><trkpt lat="44.51793063930079" lon="11.172000656484997"><ele>49.0</ele><time>2026-04-25T13:35:29.94Z</time></trkpt><trkpt lat="44.518062589475704" lon="11.171631871176833"><ele>50.0</ele><time>2026-04-25T13:35:30.94Z</time></trkpt><trkpt lat="44.51819264681733" lon="11.171262360106741"><ele>51.0</ele><time>2026-04-25T13:35:31.94Z</time></trkpt><trkpt lat="44.518321607985946" lon="11.170897246133494"><ele>50.5</ele><time>2026-04-25T13:35:32.94Z</time></trkpt><trkpt lat="44.51844952868417" lon="11.170533054054818"><ele>50.0</ele><time>2026-04-25T13:35:33.94Z</time></trkpt><trkpt lat="44.51857745342715" lon="11.170167014131176"><ele>50.5</ele><time>2026-04-25T13:35:34.94Z</time></trkpt><trkpt lat="44.518704802411136" lon="11.169801599893376"><ele>51.0</ele><time>2026-04-25T13:35:35.94Z</time></trkpt><trkpt lat="44.51883145783508" lon="11.16943312966784"><ele>51.0</ele><time>2026-04-25T13:35:36.94Z</time></trkpt><trkpt lat="44.5189579189905" lon="11.169065311996523"><ele>51.0</ele><time>2026-04-25T13:35:37.94Z</time></trkpt><trkpt lat="44.51908546129812" lon="11.168692963959346"><ele>52.0</ele><time>2026-04-25T13:35:38.94Z</time></trkpt><trkpt lat="44.51921500326107" lon="11.168317446220618"><ele>53.0</ele><time>2026-04-25T13:35:39.94Z</time></trkpt><trkpt lat="44.51934405538425" lon="11.16794164461731"><ele>53.0</ele><time>2026-04-25T13:35:40.94Z</time></trkpt><trkpt lat="44.51947109332511" lon="11.167564734359708"><ele>53.0</ele><time>2026-04-25T13:35:41.94Z</time></trkpt><trkpt lat="44.51959463180077" lon="11.167186447337384"><ele>52.0</ele><time>2026-04-25T13:35:42.94Z</time></trkpt><trkpt lat="44.51971926060784" lon="11.166813142828584"><ele>51.0</ele><time>2026-04-25T13:35:43.94Z</time></trkpt><trkpt lat="44.519845506957864" lon="11.166444586161731"><ele>51.0</ele><time>2026-04-25T13:35:44.94Z</time></trkpt><trkpt lat="44.51997037750659" lon="11.166078290660707"><ele>51.0</ele><time>2026-04-25T13:35:45.94Z</time></trkpt><trkpt lat="44.52009290475503" lon="11.165713241135682"><ele>51.0</ele><time>2026-04-25T13:35:46.94Z</time></trkpt><trkpt lat="44.52021426768822" lon="11.165347223122465"><ele>51.0</ele><time>2026-04-25T13:35:47.94Z</time></trkpt><trkpt lat="44.52033410833011" lon="11.16499278064141"><ele>50.5</ele><time>2026-04-25T13:35:48.94Z</time></trkpt><trkpt lat="44.52045468386947" lon="11.164639406812693"><ele>50.0</ele><time>2026-04-25T13:35:49.94Z</time></trkpt><trkpt lat="44.52057506765419" lon="11.16428517807115"><ele>49.5</ele><time>2026-04-25T13:35:50.94Z</time></trkpt><trkpt lat="44.52069915619609" lon="11.163927209006385"><ele>49.0</ele><time>2026-04-25T13:35:51.94Z</time></trkpt><trkpt lat="44.52081960618761" lon="11.16357602780036"><ele>49.0</ele><time>2026-04-25T13:35:52.94Z</time></trkpt><trkpt lat="44.52093668365356" lon="11.163222656667875"><ele>49.0</ele><time>2026-04-25T13:35:53.94Z</time></trkpt><trkpt lat="44.52105808107864" lon="11.162868358881868"><ele>50.0</ele><time>2026-04-25T13:35:54.94Z</time></trkpt><trkpt lat="44.521178376823066" lon="11.162509308606655"><ele>51.0</ele><time>2026-04-25T13:35:55.94Z</time></trkpt><trkpt lat="44.52129956034822" lon="11.16215147526061"><ele>51.0</ele><time>2026-04-25T13:35:56.94Z</time></trkpt><trkpt lat="44.52142044775561" lon="11.161790653185214"><ele>51.0</ele><time>2026-04-25T13:35:57.94Z</time></trkpt><trkpt lat="44.52154365860428" lon="11.16143355368857"><ele>52.0</ele><time>2026-04-25T13:35:58.94Z</time></trkpt><trkpt lat="44.521666485197386" lon="11.161075648634377"><ele>53.0</ele><time>2026-04-25T13:35:59.94Z</time></trkpt><trkpt lat="44.52178998578507" lon="11.160715392901619"><ele>53.0</ele><time>2026-04-25T13:36:00.94Z</time></trkpt><trkpt lat="44.521913191534786" lon="11.160351097082968"><ele>53.0</ele><time>2026-04-25T13:36:01.94Z</time></trkpt><trkpt lat="44.52203662575546" lon="11.159991153632738"><ele>52.5</ele><time>2026-04-25T13:36:02.94Z</time></trkpt><trkpt lat="44.52215884192726" lon="11.159635236330507"><ele>52.0</ele><time>2026-04-25T13:36:03.94Z</time></trkpt><trkpt lat="44.52228262483104" lon="11.159278197312709"><ele>51.0</ele><time>2026-04-25T13:36:04.94Z</time></trkpt><trkpt lat="44.522405562506535" lon="11.158916534943131"><ele>50.0</ele><time>2026-04-25T13:36:05.94Z</time></trkpt><trkpt lat="44.522528836092796" lon="11.158548860919991"><ele>50.0</ele><time>2026-04-25T13:36:06.941Z</time></trkpt><trkpt lat="44.522652568990026" lon="11.158178833774867"><ele>50.0</ele><time>2026-04-25T13:36:07.941Z</time></trkpt><trkpt lat="44.52277706644889" lon="11.157814193453959"><ele>50.0</ele><time>2026-04-25T13:36:08.941Z</time></trkpt><trkpt lat="44.52289981238921" lon="11.157452737173664"><ele>50.0</ele><time>2026-04-25T13:36:09.94Z</time></trkpt><trkpt lat="44.52302106490479" lon="11.157097995534366"><ele>50.0</ele><time>2026-04-25T13:36:10.941Z</time></trkpt><trkpt lat="44.52314160696828" lon="11.156743277396464"><ele>50.0</ele><time>2026-04-25T13:36:11.941Z</time></trkpt><trkpt lat="44.52326571136319" lon="11.156384564313802"><ele>50.0</ele><time>2026-04-25T13:36:12.94Z</time></trkpt><trkpt lat="44.52338625324173" lon="11.156033281362125"><ele>50.0</ele><time>2026-04-25T13:36:13.94Z</time></trkpt><trkpt lat="44.52350224075645" lon="11.155681788425587"><ele>50.5</ele><time>2026-04-25T13:36:14.94Z</time></trkpt><trkpt lat="44.523617914635395" lon="11.15532677774627"><ele>51.0</ele><time>2026-04-25T13:36:15.941Z</time></trkpt><trkpt lat="44.52373969411493" lon="11.154973719006604"><ele>50.5</ele><time>2026-04-25T13:36:16.94Z</time></trkpt><trkpt lat="44.523861432505726" lon="11.15461574081798"><ele>50.0</ele><time>2026-04-25T13:36:17.94Z</time></trkpt><trkpt lat="44.523979699873465" lon="11.154265406457293"><ele>50.0</ele><time>2026-04-25T13:36:18.94Z</time></trkpt><trkpt lat="44.52410131515379" lon="11.153916342133376"><ele>50.0</ele><time>2026-04-25T13:36:19.94Z</time></trkpt><trkpt lat="44.52422447392873" lon="11.153562517413894"><ele>50.0</ele><time>2026-04-25T13:36:20.94Z</time></trkpt><trkpt lat="44.52434724012345" lon="11.153207871150839"><ele>50.0</ele><time>2026-04-25T13:36:21.94Z</time></trkpt><trkpt lat="44.52446848385699" lon="11.152854360539171"><ele>51.0</ele><time>2026-04-25T13:36:22.94Z</time></trkpt><trkpt lat="44.524590025187344" lon="11.152496564886421"><ele>52.0</ele><time>2026-04-25T13:36:23.94Z</time></trkpt><trkpt lat="44.524712823571406" lon="11.152138586287231"><ele>52.5</ele><time>2026-04-25T13:36:24.94Z</time></trkpt><trkpt lat="44.52483245576487" lon="11.151787869117694"><ele>53.0</ele><time>2026-04-25T13:36:25.94Z</time></trkpt><trkpt lat="44.524954389522584" lon="11.15143857368994"><ele>53.0</ele><time>2026-04-25T13:36:26.94Z</time></trkpt><trkpt lat="44.52507291324446" lon="11.151089328376836"><ele>53.0</ele><time>2026-04-25T13:36:27.94Z</time></trkpt><trkpt lat="44.52518751767014" lon="11.15074499943498"><ele>53.0</ele><time>2026-04-25T13:36:28.94Z</time></trkpt><trkpt lat="44.52530169947608" lon="11.150414261196655"><ele>53.0</ele><time>2026-04-25T13:36:29.94Z</time></trkpt><trkpt lat="44.525411722289114" lon="11.150089140666504"><ele>52.5</ele><time>2026-04-25T13:36:30.94Z</time></trkpt><trkpt lat="44.52552181176549" lon="11.149771052243482"><ele>52.0</ele><time>2026-04-25T13:36:31.94Z</time></trkpt><trkpt lat="44.52562777669401" lon="11.149460016507144"><ele>52.0</ele><time>2026-04-25T13:36:32.94Z</time></trkpt><trkpt lat="44.52573288059293" lon="11.149150939616314"><ele>52.0</ele><time>2026-04-25T13:36:33.94Z</time></trkpt><trkpt lat="44.5258362608706" lon="11.148851274543997"><ele>52.0</ele><time>2026-04-25T13:36:34.94Z</time></trkpt><trkpt lat="44.525937552608646" lon="11.148553688559812"><ele>52.0</ele><time>2026-04-25T13:36:35.94Z</time></trkpt><trkpt lat="44.52603521802529" lon="11.148275353060066"><ele>52.0</ele><time>2026-04-25T13:36:36.94Z</time></trkpt><trkpt lat="44.52614459168552" lon="11.147970674220696"><ele>52.0</ele><time>2026-04-25T13:36:37.94Z</time></trkpt><trkpt lat="44.52625090504117" lon="11.147665613562804"><ele>51.0</ele><time>2026-04-25T13:36:38.94Z</time></trkpt><trkpt lat="44.526366968941154" lon="11.14734794477504"><ele>50.0</ele><time>2026-04-25T13:36:39.94Z</time></trkpt><trkpt lat="44.5264615256066" lon="11.147020215462284"><ele>50.0</ele><time>2026-04-25T13:36:40.94Z</time></trkpt><trkpt lat="44.5265696488791" lon="11.146700017162598"><ele>50.0</ele><time>2026-04-25T13:36:41.94Z</time></trkpt><trkpt lat="44.526679083283604" lon="11.146376934112878"><ele>51.0</ele><time>2026-04-25T13:36:42.94Z</time></trkpt><trkpt lat="44.52678752657785" lon="11.146058414390918"><ele>52.0</ele><time>2026-04-25T13:36:43.94Z</time></trkpt><trkpt lat="44.52689670503271" lon="11.145737735342957"><ele>52.0</ele><time>2026-04-25T13:36:44.94Z</time></trkpt><trkpt lat="44.5269980364957" lon="11.145440104475858"><ele>52.0</ele><time>2026-04-25T13:36:45.94Z</time></trkpt><trkpt lat="44.52710654302368" lon="11.145177591864401"><ele>52.0</ele><time>2026-04-25T13:36:46.94Z</time></trkpt><trkpt lat="44.527201199641986" lon="11.144917494999348"><ele>52.0</ele><time>2026-04-25T13:36:47.94Z</time></trkpt><trkpt lat="44.527320864036824" lon="11.144675097018547"><ele>52.0</ele><time>2026-04-25T13:36:48.94Z</time></trkpt><trkpt lat="44.52746107060133" lon="11.14445039972384"><ele>51.666666666666664</ele><time>2026-04-25T13:36:49.94Z</time></trkpt><trkpt lat="44.52761268456225" lon="11.14422676020584"><ele>51.33333333333333</ele><time>2026-04-25T13:36:50.94Z</time></trkpt><trkpt lat="44.52776112907306" lon="11.144011202634585"><ele>51.0</ele><time>2026-04-25T13:36:51.939Z</time></trkpt><trkpt lat="44.52791613427609" lon="11.143819029146696"><ele>51.66666666666667</ele><time>2026-04-25T13:36:52.939Z</time></trkpt><trkpt lat="44.528091594747266" lon="11.143727687572051"><ele>52.333333333333336</ele><time>2026-04-25T13:36:53.939Z</time></trkpt><trkpt lat="44.528265701820025" lon="11.143687436156899"><ele>53.0</ele><time>2026-04-25T13:36:54.939Z</time></trkpt><trkpt lat="44.528454837852635" lon="11.143708277350253"><ele>53.0</ele><time>2026-04-25T13:36:55.939Z</time></trkpt><trkpt lat="44.52863634490348" lon="11.143782145775901"><ele>53.0</ele><time>2026-04-25T13:36:56.939Z</time></trkpt><trkpt lat="44.52882217335645" lon="11.143889232987455"><ele>53.0</ele><time>2026-04-25T13:36:57.939Z</time></trkpt><trkpt lat="44.528995891089174" lon="11.144009556760823"><ele>52.66666666666667</ele><time>2026-04-25T13:36:58.939Z</time></trkpt><trkpt lat="44.52916444997771" lon="11.144132705254204"><ele>52.33333333333333</ele><time>2026-04-25T13:36:59.939Z</time></trkpt><trkpt lat="44.52932851991857" lon="11.144269598463794"><ele>52.0</ele><time>2026-04-25T13:37:00.939Z</time></trkpt><trkpt lat="44.529535794122665" lon="11.144295240321961"><ele>53.0</ele><time>2026-04-25T13:37:01.939Z</time></trkpt><trkpt lat="44.52970313915256" lon="11.144406343702334"><ele>54.0</ele><time>2026-04-25T13:37:02.939Z</time></trkpt><trkpt lat="44.52986162145915" lon="11.1445106482312"><ele>55.0</ele><time>2026-04-25T13:37:03.939Z</time></trkpt><trkpt lat="44.530013725768974" lon="11.144609909835177"><ele>55.0</ele><time>2026-04-25T13:37:04.939Z</time></trkpt><trkpt lat="44.530137017001636" lon="11.144690330130771"><ele>55.0</ele><time>2026-04-25T13:37:05.939Z</time></trkpt><trkpt lat="44.53023317156505" lon="11.144754565513924"><ele>55.0</ele><time>2026-04-25T13:37:06.939Z</time></trkpt><trkpt lat="44.53031903668075" lon="11.144810714073776"><ele>55.0</ele><time>2026-04-25T13:37:07.939Z</time></trkpt><trkpt lat="44.530379314866046" lon="11.144850911017405"><ele>55.0</ele><time>2026-04-25T13:37:08.939Z</time></trkpt><trkpt lat="44.53034035869811" lon="11.145150539748125"><ele>54.666666666666664</ele><time>2026-04-25T13:37:18.939Z</time></trkpt><trkpt lat="44.53022903118747" lon="11.145388588488744"><ele>54.33333333333333</ele><time>2026-04-25T13:37:31.939Z</time></trkpt><trkpt lat="44.53030268698778" lon="11.145177171003244"><ele>54.0</ele><time>2026-04-25T13:37:34.939Z</time></trkpt><trkpt lat="44.530228596019" lon="11.145388279629817"><ele>54.0</ele><time>2026-04-25T13:37:42.939Z</time></trkpt><trkpt lat="44.53031706909336" lon="11.14545107368666"><ele>54.00000000000001</ele><time>2026-04-25T13:37:45.939Z</time></trkpt><trkpt lat="44.53044687039993" lon="11.145273929476865"><ele>54.00000000000001</ele><time>2026-04-25T13:37:46.939Z</time></trkpt><trkpt lat="44.530524244741564" lon="11.145306200305674"><ele>54.0</ele><time>2026-04-25T13:37:47.939Z</time></trkpt><trkpt lat="44.53060787921225" lon="11.145343589256347"><ele>54.0</ele><time>2026-04-25T13:37:48.939Z</time></trkpt><trkpt lat="44.530695109605375" lon="11.145385799689038"><ele>53.800000000000004</ele><time>2026-04-25T13:37:49.939Z</time></trkpt><trkpt lat="44.530781781656366" lon="11.14543081244377"><ele>53.60000000000001</ele><time>2026-04-25T13:37:50.939Z</time></trkpt><trkpt lat="44.530879383709994" lon="11.145487271224761"><ele>53.4</ele><time>2026-04-25T13:37:51.939Z</time></trkpt><trkpt lat="44.530961744052306" lon="11.145548790961344"><ele>53.2</ele><time>2026-04-25T13:37:52.939Z</time></trkpt><trkpt lat="44.53103032758912" lon="11.145600665345821"><ele>53.0</ele><time>2026-04-25T13:37:53.939Z</time></trkpt><trkpt lat="44.53111915828311" lon="11.145580734504957"><ele>53.0</ele><time>2026-04-25T13:37:55.939Z</time></trkpt><trkpt lat="44.53120104173872" lon="11.145549630705828"><ele>53.0</ele><time>2026-04-25T13:41:20.938Z</time></trkpt><trkpt lat="44.531264079168345" lon="11.14554700078495"><ele>53.0</ele><time>2026-04-25T13:41:22.938Z</time></trkpt><trkpt lat="44.53135322611662" lon="11.14555505013862"><ele>53.0</ele><time>2026-04-25T13:41:24.938Z</time></trkpt><trkpt lat="44.531492658155074" lon="11.145728059569173"><ele>53.0</ele><time>2026-04-25T13:41:26.938Z</time></trkpt><trkpt lat="44.531525592160634" lon="11.145822456043973"><ele>52.333333333333336</ele><time>2026-04-25T13:41:27.938Z</time></trkpt><trkpt lat="44.53154652741668" lon="11.145920640169434"><ele>51.66666666666667</ele><time>2026-04-25T13:41:28.938Z</time></trkpt><trkpt lat="44.53154289506944" lon="11.14602298880763"><ele>51.0</ele><time>2026-04-25T13:41:29.938Z</time></trkpt><trkpt lat="44.53155482707105" lon="11.146124270200731"><ele>50.33333333333333</ele><time>2026-04-25T13:41:30.938Z</time></trkpt><trkpt lat="44.531550749542085" lon="11.146230924245046"><ele>49.666666666666664</ele><time>2026-04-25T13:41:31.938Z</time></trkpt><trkpt lat="44.531534652611036" lon="11.146342727989182"><ele>49.0</ele><time>2026-04-25T13:41:32.938Z</time></trkpt><trkpt lat="44.53150322387552" lon="11.146441900094938"><ele>48.99999999999999</ele><time>2026-04-25T13:41:33.938Z</time></trkpt><trkpt lat="44.53146020717908" lon="11.146530503737711"><ele>49.0</ele><time>2026-04-25T13:41:34.938Z</time></trkpt><trkpt lat="44.53141572190345" lon="11.146606552339467"><ele>49.0</ele><time>2026-04-25T13:41:35.938Z</time></trkpt><trkpt lat="44.53137043847745" lon="11.146670990992474"><ele>49.0</ele><time>2026-04-25T13:41:36.938Z</time></trkpt><trkpt lat="44.531271456286696" lon="11.146726928519795"><ele>48.99999999999999</ele><time>2026-04-25T13:41:38.938Z</time></trkpt><trkpt lat="44.53117017100966" lon="11.14677417486799"><ele>49.0</ele><time>2026-04-25T13:41:40.938Z</time></trkpt><trkpt lat="44.531105003730275" lon="11.146726257673503"><ele>49.0</ele><time>2026-04-25T13:41:41.938Z</time></trkpt><trkpt lat="44.53103931525902" lon="11.146722545788025"><ele>49.0</ele><time>2026-04-25T13:41:42.938Z</time></trkpt><trkpt lat="44.530929861374375" lon="11.146612907071281"><ele>49.0</ele><time>2026-04-25T13:41:44.938Z</time></trkpt><trkpt lat="44.53081673343631" lon="11.146536957459112"><ele>49.0</ele><time>2026-04-25T13:41:46.938Z</time></trkpt><trkpt lat="44.53070335100039" lon="11.146456600553028"><ele>49.2</ele><time>2026-04-25T13:41:48.938Z</time></trkpt><trkpt lat="44.53064707995139" lon="11.14641069440483"><ele>49.400000000000006</ele><time>2026-04-25T13:41:49.938Z</time></trkpt><trkpt lat="44.53059079847972" lon="11.146367699845229"><ele>49.6</ele><time>2026-04-25T13:41:50.938Z</time></trkpt><trkpt lat="44.5304653250433" lon="11.146285159728336"><ele>49.8</ele><time>2026-04-25T13:41:52.938Z</time></trkpt><trkpt lat="44.53038692431374" lon="11.14622616603035"><ele>50.0</ele><time>2026-04-25T13:41:53.938Z</time></trkpt><trkpt lat="44.53029292150893" lon="11.146157398642803"><ele>50.25</ele><time>2026-04-25T13:41:54.938Z</time></trkpt><trkpt lat="44.530197485557466" lon="11.14608604684027"><ele>50.5</ele><time>2026-04-25T13:41:55.938Z</time></trkpt><trkpt lat="44.53009171151388" lon="11.146008574544512"><ele>50.75</ele><time>2026-04-25T13:41:56.938Z</time></trkpt><trkpt lat="44.52998194292948" lon="11.145928513044883"><ele>51.0</ele><time>2026-04-25T13:41:57.938Z</time></trkpt><trkpt lat="44.52985864901074" lon="11.145840905405189"><ele>51.0</ele><time>2026-04-25T13:41:58.938Z</time></trkpt><trkpt lat="44.529731419261296" lon="11.1457516921706"><ele>51.0</ele><time>2026-04-25T13:41:59.938Z</time></trkpt><trkpt lat="44.52959839126391" lon="11.145663333332442"><ele>51.0</ele><time>2026-04-25T13:42:00.938Z</time></trkpt><trkpt lat="44.529466589979606" lon="11.145563334080231"><ele>51.0</ele><time>2026-04-25T13:42:01.938Z</time></trkpt><trkpt lat="44.52933162580159" lon="11.14546549537249"><ele>51.33333333333333</ele><time>2026-04-25T13:42:02.937Z</time></trkpt><trkpt lat="44.5291917324393" lon="11.145362623468282"><ele>51.666666666666664</ele><time>2026-04-25T13:42:03.937Z</time></trkpt><trkpt lat="44.52904584974587" lon="11.145256763097304"><ele>52.0</ele><time>2026-04-25T13:42:04.937Z</time></trkpt><trkpt lat="44.52889849496442" lon="11.14515146402426"><ele>52.0</ele><time>2026-04-25T13:42:05.937Z</time></trkpt><trkpt lat="44.52874607609844" lon="11.145038593913927"><ele>52.0</ele><time>2026-04-25T13:42:06.937Z</time></trkpt><trkpt lat="44.52858984028975" lon="11.144918970208717"><ele>52.0</ele><time>2026-04-25T13:42:07.937Z</time></trkpt><trkpt lat="44.52843138904797" lon="11.14479912484974"><ele>51.666666666666664</ele><time>2026-04-25T13:42:08.937Z</time></trkpt><trkpt lat="44.528274855195484" lon="11.144674054098697"><ele>51.33333333333333</ele><time>2026-04-25T13:42:09.937Z</time></trkpt><trkpt lat="44.5281192040553" lon="11.144555819792235"><ele>51.0</ele><time>2026-04-25T13:42:10.937Z</time></trkpt><trkpt lat="44.5279574047575" lon="11.144425029259333"><ele>50.66666666666667</ele><time>2026-04-25T13:42:11.937Z</time></trkpt><trkpt lat="44.527794269516214" lon="11.144304185309682"><ele>50.333333333333336</ele><time>2026-04-25T13:42:12.937Z</time></trkpt><trkpt lat="44.52761972465832" lon="11.144191282493306"><ele>50.0</ele><time>2026-04-25T13:42:13.937Z</time></trkpt><trkpt lat="44.52744662170379" lon="11.144083455398167"><ele>50.333333333333336</ele><time>2026-04-25T13:42:14.937Z</time></trkpt><trkpt lat="44.52727331156121" lon="11.143952849540717"><ele>50.66666666666667</ele><time>2026-04-25T13:42:15.937Z</time></trkpt><trkpt lat="44.52709356753467" lon="11.143823435147018"><ele>51.0</ele><time>2026-04-25T13:42:16.937Z</time></trkpt><trkpt lat="44.526908366041475" lon="11.143697383767014"><ele>51.66666666666667</ele><time>2026-04-25T13:42:17.937Z</time></trkpt><trkpt lat="44.52672130137497" lon="11.143579823733688"><ele>52.333333333333336</ele><time>2026-04-25T13:42:18.937Z</time></trkpt><trkpt lat="44.52653335386614" lon="11.143464239068804"><ele>53.0</ele><time>2026-04-25T13:42:19.937Z</time></trkpt><trkpt lat="44.52634074554562" lon="11.143347816457613"><ele>53.333333333333336</ele><time>2026-04-25T13:42:20.937Z</time></trkpt><trkpt lat="44.526143366123335" lon="11.143241968946825"><ele>53.66666666666667</ele><time>2026-04-25T13:42:21.938Z</time></trkpt><trkpt lat="44.52593905445642" lon="11.143144174352686"><ele>54.0</ele><time>2026-04-25T13:42:22.938Z</time></trkpt><trkpt lat="44.52573575147553" lon="11.143038435517354"><ele>53.66666666666667</ele><time>2026-04-25T13:42:23.938Z</time></trkpt><trkpt lat="44.52553230037867" lon="11.14293731902791"><ele>53.333333333333336</ele><time>2026-04-25T13:42:24.938Z</time></trkpt><trkpt lat="44.52533942814815" lon="11.142815060461594"><ele>53.0</ele><time>2026-04-25T13:42:25.938Z</time></trkpt><trkpt lat="44.52515123877883" lon="11.142717807785118"><ele>53.0</ele><time>2026-04-25T13:42:26.938Z</time></trkpt><trkpt lat="44.52497310158679" lon="11.142647665696243"><ele>53.0</ele><time>2026-04-25T13:42:27.937Z</time></trkpt><trkpt lat="44.52481316331603" lon="11.142543082294733"><ele>53.0</ele><time>2026-04-25T13:42:28.937Z</time></trkpt><trkpt lat="44.52465923425385" lon="11.142485299510515"><ele>52.5</ele><time>2026-04-25T13:42:29.937Z</time></trkpt><trkpt lat="44.52453321930696" lon="11.142400842110927"><ele>52.0</ele><time>2026-04-25T13:42:30.938Z</time></trkpt><trkpt lat="44.52441934962526" lon="11.142305603417505"><ele>51.5</ele><time>2026-04-25T13:42:31.937Z</time></trkpt><trkpt lat="44.52432568640682" lon="11.14222740785352"><ele>51.0</ele><time>2026-04-25T13:42:32.937Z</time></trkpt><trkpt lat="44.52422772911208" lon="11.142176448155938"><ele>51.4</ele><time>2026-04-25T13:42:33.937Z</time></trkpt><trkpt lat="44.52412776475992" lon="11.142124444334835"><ele>51.8</ele><time>2026-04-25T13:42:34.937Z</time></trkpt><trkpt lat="44.524033383916525" lon="11.142075345188196"><ele>52.199999999999996</ele><time>2026-04-25T13:42:35.937Z</time></trkpt><trkpt lat="44.52393783393892" lon="11.142025914552272"><ele>52.599999999999994</ele><time>2026-04-25T13:42:36.937Z</time></trkpt><trkpt lat="44.52380770317333" lon="11.14200275458719"><ele>53.0</ele><time>2026-04-25T13:42:37.937Z</time></trkpt><trkpt lat="44.52366112056015" lon="11.141966154859343"><ele>53.0</ele><time>2026-04-25T13:42:38.937Z</time></trkpt><trkpt lat="44.523503758545566" lon="11.141888288417634"><ele>53.0</ele><time>2026-04-25T13:42:39.937Z</time></trkpt><trkpt lat="44.52333695955017" lon="11.141796451379161"><ele>53.0</ele><time>2026-04-25T13:42:40.937Z</time></trkpt><trkpt lat="44.5231647593618" lon="11.141701236334624"><ele>53.0</ele><time>2026-04-25T13:42:41.937Z</time></trkpt><trkpt lat="44.522983441915194" lon="11.141603483816679"><ele>53.0</ele><time>2026-04-25T13:42:42.937Z</time></trkpt><trkpt lat="44.52278659794612" lon="11.141508756718062"><ele>53.0</ele><time>2026-04-25T13:42:43.937Z</time></trkpt><trkpt lat="44.52258637695786" lon="11.141404825465916"><ele>54.333333333333336</ele><time>2026-04-25T13:42:44.937Z</time></trkpt><trkpt lat="44.522387258158545" lon="11.141305837250544"><ele>55.66666666666667</ele><time>2026-04-25T13:42:45.937Z</time></trkpt><trkpt lat="44.52218891105908" lon="11.141206150194071"><ele>57.0</ele><time>2026-04-25T13:42:46.937Z</time></trkpt><trkpt lat="44.52198803878114" lon="11.14110198046766"><ele>57.0</ele><time>2026-04-25T13:42:47.937Z</time></trkpt><trkpt lat="44.52178478545212" lon="11.140993600358373"><ele>57.0</ele><time>2026-04-25T13:42:48.937Z</time></trkpt><trkpt lat="44.521584016652135" lon="11.140882191195358"><ele>57.0</ele><time>2026-04-25T13:42:49.937Z</time></trkpt><trkpt lat="44.52138771163107" lon="11.140769541910359"><ele>56.66666666666667</ele><time>2026-04-25T13:42:50.937Z</time></trkpt><trkpt lat="44.52121410366756" lon="11.140630748542977"><ele>56.333333333333336</ele><time>2026-04-25T13:42:51.937Z</time></trkpt><trkpt lat="44.5210463205538" lon="11.140513151291948"><ele>56.0</ele><time>2026-04-25T13:42:52.937Z</time></trkpt><trkpt lat="44.52089137899466" lon="11.140400203757837"><ele>56.0</ele><time>2026-04-25T13:42:53.937Z</time></trkpt><trkpt lat="44.520750978184395" lon="11.140297857639236"><ele>56.0</ele><time>2026-04-25T13:42:54.937Z</time></trkpt><trkpt lat="44.52061902447191" lon="11.140223054131466"><ele>56.0</ele><time>2026-04-25T13:42:55.937Z</time></trkpt><trkpt lat="44.520508191980554" lon="11.140135750483692"><ele>56.0</ele><time>2026-04-25T13:42:56.937Z</time></trkpt><trkpt lat="44.520413602831965" lon="11.140056538869688"><ele>56.199999999999996</ele><time>2026-04-25T13:42:57.937Z</time></trkpt><trkpt lat="44.520331171380775" lon="11.139983219333567"><ele>56.39999999999999</ele><time>2026-04-25T13:42:58.937Z</time></trkpt><trkpt lat="44.52027110161195" lon="11.139905650787345"><ele>56.6</ele><time>2026-04-25T13:42:59.937Z</time></trkpt><trkpt lat="44.520212769897" lon="11.139836639051932"><ele>56.8</ele><time>2026-04-25T13:43:00.937Z</time></trkpt><trkpt lat="44.52016798181158" lon="11.139680537147473"><ele>57.0</ele><time>2026-04-25T13:43:01.937Z</time></trkpt><trkpt lat="44.52017511835959" lon="11.139555040309382"><ele>56.8</ele><time>2026-04-25T13:43:02.937Z</time></trkpt><trkpt lat="44.520177994882545" lon="11.139422080097326"><ele>56.6</ele><time>2026-04-25T13:43:03.937Z</time></trkpt><trkpt lat="44.52022231886002" lon="11.139291527597072"><ele>56.39999999999999</ele><time>2026-04-25T13:43:04.937Z</time></trkpt><trkpt lat="44.520269086471714" lon="11.13916451824001"><ele>56.199999999999996</ele><time>2026-04-25T13:43:05.937Z</time></trkpt><trkpt lat="44.52032903766226" lon="11.139038867772975"><ele>56.0</ele><time>2026-04-25T13:43:06.937Z</time></trkpt><trkpt lat="44.52038229311224" lon="11.138893999197705"><ele>55.5</ele><time>2026-04-25T13:43:07.937Z</time></trkpt><trkpt lat="44.52044651667964" lon="11.138747477604038"><ele>55.0</ele><time>2026-04-25T13:43:08.937Z</time></trkpt><trkpt lat="44.520510895906554" lon="11.138589285593904"><ele>54.5</ele><time>2026-04-25T13:43:09.937Z</time></trkpt><trkpt lat="44.52058216121656" lon="11.138423967828246"><ele>54.0</ele><time>2026-04-25T13:43:10.937Z</time></trkpt><trkpt lat="44.5206631517792" lon="11.138249811235514"><ele>55.0</ele><time>2026-04-25T13:43:11.937Z</time></trkpt><trkpt lat="44.52074286253822" lon="11.138061739144973"><ele>56.0</ele><time>2026-04-25T13:43:12.937Z</time></trkpt><trkpt lat="44.52083064864292" lon="11.137863659427053"><ele>57.0</ele><time>2026-04-25T13:43:13.937Z</time></trkpt><trkpt lat="44.52091498447628" lon="11.137655612633274"><ele>57.0</ele><time>2026-04-25T13:43:14.937Z</time></trkpt><trkpt lat="44.52099431291146" lon="11.137439747283436"><ele>57.0</ele><time>2026-04-25T13:43:15.936Z</time></trkpt><trkpt lat="44.521053765090976" lon="11.137211615022645"><ele>57.0</ele><time>2026-04-25T13:43:16.936Z</time></trkpt><trkpt lat="44.52110631948646" lon="11.136972353818484"><ele>57.0</ele><time>2026-04-25T13:43:17.935Z</time></trkpt><trkpt lat="44.52110292542659" lon="11.136725121534031"><ele>57.0</ele><time>2026-04-25T13:43:18.935Z</time></trkpt><trkpt lat="44.52126074571709" lon="11.1365010169316"><ele>57.0</ele><time>2026-04-25T13:43:19.934Z</time></trkpt><trkpt lat="44.521364454076405" lon="11.136260224366088"><ele>56.66666666666667</ele><time>2026-04-25T13:43:20.934Z</time></trkpt><trkpt lat="44.52147595808958" lon="11.136014628348818"><ele>56.333333333333336</ele><time>2026-04-25T13:43:21.933Z</time></trkpt><trkpt lat="44.52158554670235" lon="11.135759067580542"><ele>56.0</ele><time>2026-04-25T13:43:22.933Z</time></trkpt><trkpt lat="44.52169464121464" lon="11.135485649864329"><ele>57.0</ele><time>2026-04-25T13:43:23.932Z</time></trkpt><trkpt lat="44.52180374793384" lon="11.135201560390772"><ele>58.0</ele><time>2026-04-25T13:43:24.932Z</time></trkpt><trkpt lat="44.5219064881247" lon="11.13490063117369"><ele>59.0</ele><time>2026-04-25T13:43:25.932Z</time></trkpt><trkpt lat="44.52200514783013" lon="11.134585451485997"><ele>60.0</ele><time>2026-04-25T13:43:26.931Z</time></trkpt><trkpt lat="44.52209824411238" lon="11.13425889994089"><ele>59.0</ele><time>2026-04-25T13:43:27.931Z</time></trkpt><trkpt lat="44.522183149547224" lon="11.133927174566612"><ele>58.0</ele><time>2026-04-25T13:43:28.931Z</time></trkpt><trkpt lat="44.52225518392419" lon="11.133589725832136"><ele>58.0</ele><time>2026-04-25T13:43:29.93Z</time></trkpt><trkpt lat="44.522313089538784" lon="11.133255272890437"><ele>58.0</ele><time>2026-04-25T13:43:30.93Z</time></trkpt><trkpt lat="44.52235782052945" lon="11.13291484246838"><ele>57.5</ele><time>2026-04-25T13:43:31.93Z</time></trkpt><trkpt lat="44.52239320750009" lon="11.132569668142024"><ele>57.0</ele><time>2026-04-25T13:43:32.93Z</time></trkpt><trkpt lat="44.52241686371643" lon="11.13222243446705"><ele>57.0</ele><time>2026-04-25T13:43:33.929Z</time></trkpt><trkpt lat="44.522431204553776" lon="11.131873846852681"><ele>57.0</ele><time>2026-04-25T13:43:34.929Z</time></trkpt><trkpt lat="44.522440698226134" lon="11.131518598902424"><ele>57.0</ele><time>2026-04-25T13:43:35.929Z</time></trkpt><trkpt lat="44.52244335718585" lon="11.131159340946382"><ele>57.0</ele><time>2026-04-25T13:43:36.929Z</time></trkpt><trkpt lat="44.52243621464721" lon="11.13079590981291"><ele>57.5</ele><time>2026-04-25T13:43:37.929Z</time></trkpt><trkpt lat="44.52243398321607" lon="11.130427034831811"><ele>58.0</ele><time>2026-04-25T13:43:38.928Z</time></trkpt><trkpt lat="44.52244134370586" lon="11.13004792434203"><ele>58.5</ele><time>2026-04-25T13:43:39.928Z</time></trkpt><trkpt lat="44.52244735464057" lon="11.129669016144055"><ele>59.0</ele><time>2026-04-25T13:43:40.928Z</time></trkpt><trkpt lat="44.522453395133105" lon="11.129285005192665"><ele>60.0</ele><time>2026-04-25T13:43:41.928Z</time></trkpt><trkpt lat="44.522457819873935" lon="11.128889650724894"><ele>61.0</ele><time>2026-04-25T13:43:42.928Z</time></trkpt><trkpt lat="44.52245646067049" lon="11.128492194494026"><ele>60.5</ele><time>2026-04-25T13:43:43.928Z</time></trkpt><trkpt lat="44.52244494691758" lon="11.128099865732601"><ele>60.0</ele><time>2026-04-25T13:43:44.928Z</time></trkpt><trkpt lat="44.52242382423459" lon="11.127712215242529"><ele>59.5</ele><time>2026-04-25T13:43:45.928Z</time></trkpt><trkpt lat="44.52238968755348" lon="11.127340467986576"><ele>59.0</ele><time>2026-04-25T13:43:46.927Z</time></trkpt><trkpt lat="44.52234896714304" lon="11.126976421620414"><ele>59.0</ele><time>2026-04-25T13:43:47.927Z</time></trkpt><trkpt lat="44.52230160232853" lon="11.126629087150828"><ele>59.0</ele><time>2026-04-25T13:43:48.927Z</time></trkpt><trkpt lat="44.52224289258957" lon="11.126299643522858"><ele>59.5</ele><time>2026-04-25T13:43:49.927Z</time></trkpt><trkpt lat="44.52217526136682" lon="11.125985881069266"><ele>60.0</ele><time>2026-04-25T13:43:50.927Z</time></trkpt><trkpt lat="44.522100799969216" lon="11.12568794232955"><ele>60.33333333333333</ele><time>2026-04-25T13:43:51.927Z</time></trkpt><trkpt lat="44.52202097016609" lon="11.125404310447976"><ele>60.666666666666664</ele><time>2026-04-25T13:43:52.927Z</time></trkpt><trkpt lat="44.52193547065704" lon="11.125125112131677"><ele>61.0</ele><time>2026-04-25T13:43:53.927Z</time></trkpt><trkpt lat="44.521840115663295" lon="11.124850707457421"><ele>61.0</ele><time>2026-04-25T13:43:54.927Z</time></trkpt><trkpt lat="44.521735847429085" lon="11.12458250207965"><ele>61.0</ele><time>2026-04-25T13:43:55.927Z</time></trkpt><trkpt lat="44.521622735102866" lon="11.12432548468937"><ele>61.0</ele><time>2026-04-25T13:43:56.927Z</time></trkpt><trkpt lat="44.52149992799377" lon="11.124070404601591"><ele>61.33333333333333</ele><time>2026-04-25T13:43:57.927Z</time></trkpt><trkpt lat="44.52136963284991" lon="11.123821173552603"><ele>61.66666666666667</ele><time>2026-04-25T13:43:58.927Z</time></trkpt><trkpt lat="44.52123247909629" lon="11.123580085390673"><ele>62.0</ele><time>2026-04-25T13:43:59.927Z</time></trkpt><trkpt lat="44.52109039772765" lon="11.123342765531584"><ele>62.0</ele><time>2026-04-25T13:44:00.927Z</time></trkpt><trkpt lat="44.5209432310219" lon="11.123111341473919"><ele>62.0</ele><time>2026-04-25T13:44:01.926Z</time></trkpt><trkpt lat="44.52079414357508" lon="11.122887908870737"><ele>62.0</ele><time>2026-04-25T13:44:02.926Z</time></trkpt><trkpt lat="44.520650332088955" lon="11.122669650487355"><ele>62.0</ele><time>2026-04-25T13:44:03.926Z</time></trkpt><trkpt lat="44.520497442231644" lon="11.122449156965224"><ele>62.0</ele><time>2026-04-25T13:44:04.926Z</time></trkpt><trkpt lat="44.52033105713571" lon="11.122222734828268"><ele>62.5</ele><time>2026-04-25T13:44:05.926Z</time></trkpt><trkpt lat="44.520158604337446" lon="11.121984209063855"><ele>63.0</ele><time>2026-04-25T13:44:06.926Z</time></trkpt><trkpt lat="44.51998413589851" lon="11.121736794538645"><ele>63.0</ele><time>2026-04-25T13:44:07.926Z</time></trkpt><trkpt lat="44.519812488329535" lon="11.12147773264123"><ele>63.0</ele><time>2026-04-25T13:44:08.926Z</time></trkpt><trkpt lat="44.51963850049912" lon="11.121217585597948"><ele>63.5</ele><time>2026-04-25T13:44:09.926Z</time></trkpt><trkpt lat="44.519459119615746" lon="11.12095829739801"><ele>64.0</ele><time>2026-04-25T13:44:10.926Z</time></trkpt><trkpt lat="44.51928029438658" lon="11.120701043593701"><ele>63.0</ele><time>2026-04-25T13:44:11.926Z</time></trkpt><trkpt lat="44.51910361557815" lon="11.120436070307514"><ele>62.0</ele><time>2026-04-25T13:44:12.926Z</time></trkpt><trkpt lat="44.51892822254647" lon="11.120176492480716"><ele>62.0</ele><time>2026-04-25T13:44:13.926Z</time></trkpt><trkpt lat="44.51875756451387" lon="11.119915426042027"><ele>62.0</ele><time>2026-04-25T13:44:14.926Z</time></trkpt><trkpt lat="44.51858826063291" lon="11.1196602917263"><ele>63.0</ele><time>2026-04-25T13:44:15.926Z</time></trkpt><trkpt lat="44.51842228825985" lon="11.119398983219021"><ele>64.0</ele><time>2026-04-25T13:44:16.926Z</time></trkpt><trkpt lat="44.51826571604324" lon="11.119137000911815"><ele>63.5</ele><time>2026-04-25T13:44:17.926Z</time></trkpt><trkpt lat="44.51811446626553" lon="11.118865716379142"><ele>63.0</ele><time>2026-04-25T13:44:18.926Z</time></trkpt><trkpt lat="44.517971444363255" lon="11.118584821763845"><ele>64.0</ele><time>2026-04-25T13:44:19.926Z</time></trkpt><trkpt lat="44.517835923939764" lon="11.11829258229019"><ele>65.0</ele><time>2026-04-25T13:44:20.926Z</time></trkpt><trkpt lat="44.51770711725103" lon="11.117984849214208"><ele>65.0</ele><time>2026-04-25T13:44:21.926Z</time></trkpt><trkpt lat="44.51759348533354" lon="11.117666298003307"><ele>65.0</ele><time>2026-04-25T13:44:22.926Z</time></trkpt><trkpt lat="44.517488805036194" lon="11.117362092824473"><ele>65.0</ele><time>2026-04-25T13:44:23.926Z</time></trkpt><trkpt lat="44.517390090375244" lon="11.117059642611157"><ele>65.0</ele><time>2026-04-25T13:44:24.926Z</time></trkpt><trkpt lat="44.51729062741335" lon="11.116763361512659"><ele>65.0</ele><time>2026-04-25T13:44:25.926Z</time></trkpt><trkpt lat="44.517196175753256" lon="11.116467318504517"><ele>65.0</ele><time>2026-04-25T13:44:26.926Z</time></trkpt><trkpt lat="44.51710189962748" lon="11.11617669412742"><ele>65.0</ele><time>2026-04-25T13:44:27.926Z</time></trkpt><trkpt lat="44.51700340464991" lon="11.115889911262732"><ele>65.0</ele><time>2026-04-25T13:44:28.926Z</time></trkpt><trkpt lat="44.51690122107079" lon="11.115601852690276"><ele>65.5</ele><time>2026-04-25T13:44:29.926Z</time></trkpt><trkpt lat="44.516798386728254" lon="11.115314836554267"><ele>66.0</ele><time>2026-04-25T13:44:30.926Z</time></trkpt><trkpt lat="44.51668062348049" lon="11.115019252684345"><ele>65.0</ele><time>2026-04-25T13:44:31.925Z</time></trkpt><trkpt lat="44.51656589319657" lon="11.11472585892449"><ele>64.0</ele><time>2026-04-25T13:44:32.925Z</time></trkpt><trkpt lat="44.516436405437226" lon="11.11441717722009"><ele>64.0</ele><time>2026-04-25T13:44:33.926Z</time></trkpt><trkpt lat="44.51633605745578" lon="11.114106525327355"><ele>64.0</ele><time>2026-04-25T13:44:34.925Z</time></trkpt><trkpt lat="44.51629957537087" lon="11.11384458642787"><ele>64.0</ele><time>2026-04-25T13:44:35.925Z</time></trkpt><trkpt lat="44.51623327585257" lon="11.113562838315307"><ele>64.33333333333333</ele><time>2026-04-25T13:44:36.926Z</time></trkpt><trkpt lat="44.516162729095015" lon="11.113289878659184"><ele>64.66666666666667</ele><time>2026-04-25T13:44:37.925Z</time></trkpt><trkpt lat="44.516067697383264" lon="11.113015356253507"><ele>65.0</ele><time>2026-04-25T13:44:38.925Z</time></trkpt><trkpt lat="44.51597785099708" lon="11.112736034277788"><ele>66.0</ele><time>2026-04-25T13:44:39.926Z</time></trkpt><trkpt lat="44.515887073499464" lon="11.112457110205018"><ele>67.0</ele><time>2026-04-25T13:44:40.925Z</time></trkpt><trkpt lat="44.5157969689179" lon="11.112171679317068"><ele>68.0</ele><time>2026-04-25T13:44:41.925Z</time></trkpt><trkpt lat="44.51571314489296" lon="11.111887682841981"><ele>68.0</ele><time>2026-04-25T13:44:42.925Z</time></trkpt><trkpt lat="44.515624192752206" lon="11.11160250093653"><ele>68.0</ele><time>2026-04-25T13:44:43.925Z</time></trkpt><trkpt lat="44.515534986045935" lon="11.111315882978175"><ele>68.0</ele><time>2026-04-25T13:44:44.925Z</time></trkpt><trkpt lat="44.51544330187273" lon="11.111029252891312"><ele>68.5</ele><time>2026-04-25T13:44:45.925Z</time></trkpt><trkpt lat="44.51535026270987" lon="11.110742385631886"><ele>69.0</ele><time>2026-04-25T13:44:46.925Z</time></trkpt><trkpt lat="44.51525372996397" lon="11.110456845453436"><ele>69.0</ele><time>2026-04-25T13:44:47.925Z</time></trkpt><trkpt lat="44.515153624286775" lon="11.11018284494879"><ele>69.0</ele><time>2026-04-25T13:44:48.925Z</time></trkpt><trkpt lat="44.51505384272082" lon="11.10990464366177"><ele>69.0</ele><time>2026-04-25T13:44:49.925Z</time></trkpt><trkpt lat="44.51494833606321" lon="11.109615872169206"><ele>69.0</ele><time>2026-04-25T13:44:50.925Z</time></trkpt><trkpt lat="44.514832488975905" lon="11.10932323714715"><ele>69.0</ele><time>2026-04-25T13:44:51.925Z</time></trkpt><trkpt lat="44.51469764383648" lon="11.109025963016608"><ele>68.5</ele><time>2026-04-25T13:44:52.925Z</time></trkpt><trkpt lat="44.51456027886715" lon="11.108718777260304"><ele>68.0</ele><time>2026-04-25T13:44:53.925Z</time></trkpt><trkpt lat="44.51442870885568" lon="11.108405975430024"><ele>68.5</ele><time>2026-04-25T13:44:54.925Z</time></trkpt><trkpt lat="44.514291474702695" lon="11.108113873290618"><ele>69.0</ele><time>2026-04-25T13:44:55.925Z</time></trkpt><trkpt lat="44.5141504552899" lon="11.107820069370835"><ele>69.0</ele><time>2026-04-25T13:44:56.925Z</time></trkpt><trkpt lat="44.51400130195714" lon="11.107516737474432"><ele>69.0</ele><time>2026-04-25T13:44:57.925Z</time></trkpt><trkpt lat="44.51385251789935" lon="11.107219695921465"><ele>69.5</ele><time>2026-04-25T13:44:58.925Z</time></trkpt><trkpt lat="44.513707750822206" lon="11.106914862421077"><ele>70.0</ele><time>2026-04-25T13:44:59.925Z</time></trkpt><trkpt lat="44.51356569546079" lon="11.10660503522387"><ele>70.0</ele><time>2026-04-25T13:45:00.925Z</time></trkpt><trkpt lat="44.51342573786297" lon="11.106312097897563"><ele>70.0</ele><time>2026-04-25T13:45:01.925Z</time></trkpt><trkpt lat="44.51328461350252" lon="11.106021592771455"><ele>69.5</ele><time>2026-04-25T13:45:02.925Z</time></trkpt><trkpt lat="44.513150662490055" lon="11.105734496859675"><ele>69.0</ele><time>2026-04-25T13:45:03.925Z</time></trkpt><trkpt lat="44.51301835568087" lon="11.105449470207454"><ele>69.5</ele><time>2026-04-25T13:45:04.925Z</time></trkpt><trkpt lat="44.51288795474166" lon="11.105167117391895"><ele>70.0</ele><time>2026-04-25T13:45:05.925Z</time></trkpt><trkpt lat="44.51276468755804" lon="11.10488604515335"><ele>70.0</ele><time>2026-04-25T13:45:06.925Z</time></trkpt><trkpt lat="44.51264562041951" lon="11.104608545145256"><ele>70.0</ele><time>2026-04-25T13:45:07.925Z</time></trkpt><trkpt lat="44.512536521151944" lon="11.104331965682334"><ele>69.66666666666666</ele><time>2026-04-25T13:45:08.925Z</time></trkpt><trkpt lat="44.51242951921267" lon="11.104054795929711"><ele>69.33333333333333</ele><time>2026-04-25T13:45:09.925Z</time></trkpt><trkpt lat="44.51233127077287" lon="11.10377782436236"><ele>69.0</ele><time>2026-04-25T13:45:10.925Z</time></trkpt><trkpt lat="44.512243369903146" lon="11.10349915323089"><ele>69.66666666666667</ele><time>2026-04-25T13:45:11.925Z</time></trkpt><trkpt lat="44.512163535135485" lon="11.103217979292005"><ele>70.33333333333334</ele><time>2026-04-25T13:45:12.925Z</time></trkpt><trkpt lat="44.51208810271172" lon="11.102935511151529"><ele>71.0</ele><time>2026-04-25T13:45:13.925Z</time></trkpt><trkpt lat="44.51201634266851" lon="11.102652983167344"><ele>71.33333333333334</ele><time>2026-04-25T13:45:14.925Z</time></trkpt><trkpt lat="44.51195139808616" lon="11.102367890645704"><ele>71.66666666666667</ele><time>2026-04-25T13:45:15.925Z</time></trkpt><trkpt lat="44.511891492940215" lon="11.102080606352336"><ele>72.0</ele><time>2026-04-25T13:45:16.925Z</time></trkpt><trkpt lat="44.51184167673323" lon="11.101788503434257"><ele>72.0</ele><time>2026-04-25T13:45:17.925Z</time></trkpt><trkpt lat="44.5117900006014" lon="11.101492159313505"><ele>72.0</ele><time>2026-04-25T13:45:18.925Z</time></trkpt><trkpt lat="44.51174871796024" lon="11.101195782999927"><ele>72.0</ele><time>2026-04-25T13:45:19.925Z</time></trkpt><trkpt lat="44.51171473999433" lon="11.100903309904083"><ele>72.33333333333333</ele><time>2026-04-25T13:45:20.925Z</time></trkpt><trkpt lat="44.51168353672715" lon="11.100609225298397"><ele>72.66666666666666</ele><time>2026-04-25T13:45:21.925Z</time></trkpt><trkpt lat="44.51166097603047" lon="11.100313898191903"><ele>73.0</ele><time>2026-04-25T13:45:22.925Z</time></trkpt><trkpt lat="44.51164905854159" lon="11.10001467142388"><ele>73.33333333333333</ele><time>2026-04-25T13:45:23.925Z</time></trkpt><trkpt lat="44.51164515670168" lon="11.099711447899674"><ele>73.66666666666667</ele><time>2026-04-25T13:45:24.925Z</time></trkpt><trkpt lat="44.511639369362626" lon="11.09941743181202"><ele>74.0</ele><time>2026-04-25T13:45:25.925Z</time></trkpt><trkpt lat="44.51164036087236" lon="11.099127712160064"><ele>74.66666666666667</ele><time>2026-04-25T13:45:26.925Z</time></trkpt><trkpt lat="44.51164598761466" lon="11.098840811939825"><ele>75.33333333333333</ele><time>2026-04-25T13:45:27.925Z</time></trkpt><trkpt lat="44.5116552227852" lon="11.098560158098344"><ele>76.0</ele><time>2026-04-25T13:45:28.925Z</time></trkpt><trkpt lat="44.51166958088651" lon="11.098282707772732"><ele>76.0</ele><time>2026-04-25T13:45:29.925Z</time></trkpt><trkpt lat="44.51169025278423" lon="11.098004341629073"><ele>76.0</ele><time>2026-04-25T13:45:30.925Z</time></trkpt><trkpt lat="44.51171097703106" lon="11.097717856915391"><ele>76.0</ele><time>2026-04-25T13:45:31.925Z</time></trkpt><trkpt lat="44.51173279872313" lon="11.097426570961257"><ele>76.0</ele><time>2026-04-25T13:45:32.925Z</time></trkpt><trkpt lat="44.51175555232926" lon="11.097135460098436"><ele>76.0</ele><time>2026-04-25T13:45:33.925Z</time></trkpt><trkpt lat="44.51177929601085" lon="11.096838247304072"><ele>76.0</ele><time>2026-04-25T13:45:34.925Z</time></trkpt><trkpt lat="44.51179959338556" lon="11.096527155105832"><ele>76.5</ele><time>2026-04-25T13:45:35.925Z</time></trkpt><trkpt lat="44.51181799699284" lon="11.096182430544056"><ele>77.0</ele><time>2026-04-25T13:45:36.925Z</time></trkpt><trkpt lat="44.511853880934275" lon="11.09581621227702"><ele>76.5</ele><time>2026-04-25T13:45:37.925Z</time></trkpt><trkpt lat="44.51188545448334" lon="11.095442365355584"><ele>76.0</ele><time>2026-04-25T13:45:38.925Z</time></trkpt><trkpt lat="44.51192388910939" lon="11.095068449300179"><ele>75.0</ele><time>2026-04-25T13:45:39.924Z</time></trkpt><trkpt lat="44.511960047135254" lon="11.094705047564485"><ele>74.0</ele><time>2026-04-25T13:45:40.924Z</time></trkpt><trkpt lat="44.51199039326549" lon="11.0943481182457"><ele>74.0</ele><time>2026-04-25T13:45:41.924Z</time></trkpt><trkpt lat="44.512016820687485" lon="11.093995844693033"><ele>74.0</ele><time>2026-04-25T13:45:42.924Z</time></trkpt><trkpt lat="44.512040545535406" lon="11.093646235327594"><ele>74.0</ele><time>2026-04-25T13:45:43.924Z</time></trkpt><trkpt lat="44.512065343043666" lon="11.093292185674834"><ele>74.0</ele><time>2026-04-25T13:45:44.924Z</time></trkpt><trkpt lat="44.512096862157215" lon="11.092932025774505"><ele>74.0</ele><time>2026-04-25T13:45:45.924Z</time></trkpt><trkpt lat="44.5121281231303" lon="11.09256409340982"><ele>74.0</ele><time>2026-04-25T13:45:46.924Z</time></trkpt><trkpt lat="44.51215648981817" lon="11.092196513006165"><ele>73.5</ele><time>2026-04-25T13:45:47.924Z</time></trkpt><trkpt lat="44.512184105619994" lon="11.091824880583578"><ele>73.0</ele><time>2026-04-25T13:45:48.924Z</time></trkpt><trkpt lat="44.51221542618665" lon="11.091444090221284"><ele>73.0</ele><time>2026-04-25T13:45:49.924Z</time></trkpt><trkpt lat="44.51225577390881" lon="11.091058617462497"><ele>73.0</ele><time>2026-04-25T13:45:50.924Z</time></trkpt><trkpt lat="44.512296511570135" lon="11.090675814390602"><ele>73.5</ele><time>2026-04-25T13:45:51.924Z</time></trkpt><trkpt lat="44.51232979461175" lon="11.09028967254448"><ele>74.0</ele><time>2026-04-25T13:45:52.924Z</time></trkpt><trkpt lat="44.51236232381821" lon="11.089897531141961"><ele>74.0</ele><time>2026-04-25T13:45:53.924Z</time></trkpt><trkpt lat="44.512394677846125" lon="11.089499406129908"><ele>74.0</ele><time>2026-04-25T13:45:54.924Z</time></trkpt><trkpt lat="44.51242805322831" lon="11.089099823098087"><ele>74.5</ele><time>2026-04-25T13:45:55.924Z</time></trkpt><trkpt lat="44.51246038462965" lon="11.088698566124153"><ele>75.0</ele><time>2026-04-25T13:45:56.924Z</time></trkpt><trkpt lat="44.51249085578084" lon="11.08829934630522"><ele>74.5</ele><time>2026-04-25T13:45:57.924Z</time></trkpt><trkpt lat="44.51252165208298" lon="11.087892820441807"><ele>74.0</ele><time>2026-04-25T13:45:58.924Z</time></trkpt><trkpt lat="44.5125564265898" lon="11.087485345899454"><ele>73.5</ele><time>2026-04-25T13:45:59.924Z</time></trkpt><trkpt lat="44.51259629277153" lon="11.087081387623487"><ele>73.0</ele><time>2026-04-25T13:46:00.924Z</time></trkpt><trkpt lat="44.51263847198966" lon="11.086682097031495"><ele>74.0</ele><time>2026-04-25T13:46:01.924Z</time></trkpt><trkpt lat="44.51268882093193" lon="11.0862838657656"><ele>75.0</ele><time>2026-04-25T13:46:02.924Z</time></trkpt><trkpt lat="44.51275894400208" lon="11.08588834778765"><ele>75.5</ele><time>2026-04-25T13:46:03.924Z</time></trkpt><trkpt lat="44.51283232523493" lon="11.08549888228342"><ele>76.0</ele><time>2026-04-25T13:46:04.924Z</time></trkpt><trkpt lat="44.512913446353174" lon="11.085108980384646"><ele>75.0</ele><time>2026-04-25T13:46:05.924Z</time></trkpt><trkpt lat="44.51300352439693" lon="11.084730173797565"><ele>74.0</ele><time>2026-04-25T13:46:06.924Z</time></trkpt><trkpt lat="44.513094542472274" lon="11.084356012481823"><ele>73.5</ele><time>2026-04-25T13:46:07.924Z</time></trkpt><trkpt lat="44.51319127121287" lon="11.083987831247256"><ele>73.0</ele><time>2026-04-25T13:46:08.924Z</time></trkpt><trkpt lat="44.51328942564986" lon="11.083619904557139"><ele>73.0</ele><time>2026-04-25T13:46:09.924Z</time></trkpt><trkpt lat="44.51338963008638" lon="11.083250254659022"><ele>73.0</ele><time>2026-04-25T13:46:10.924Z</time></trkpt><trkpt lat="44.51349411522994" lon="11.082885040286467"><ele>73.0</ele><time>2026-04-25T13:46:11.924Z</time></trkpt><trkpt lat="44.51359589885227" lon="11.082523771561613"><ele>73.0</ele><time>2026-04-25T13:46:12.924Z</time></trkpt><trkpt lat="44.51370159789894" lon="11.082169497375174"><ele>73.5</ele><time>2026-04-25T13:46:13.924Z</time></trkpt><trkpt lat="44.51380246667249" lon="11.081815138787075"><ele>74.0</ele><time>2026-04-25T13:46:14.924Z</time></trkpt><trkpt lat="44.513904633959584" lon="11.08146391836496"><ele>74.0</ele><time>2026-04-25T13:46:15.924Z</time></trkpt><trkpt lat="44.514002052237686" lon="11.081119735972"><ele>74.0</ele><time>2026-04-25T13:46:16.924Z</time></trkpt><trkpt lat="44.51409108547503" lon="11.080786726909512"><ele>73.5</ele><time>2026-04-25T13:46:17.924Z</time></trkpt><trkpt lat="44.514170018671734" lon="11.080478180453584"><ele>73.0</ele><time>2026-04-25T13:46:18.924Z</time></trkpt><trkpt lat="44.51423994396173" lon="11.080173652368305"><ele>73.33333333333333</ele><time>2026-04-25T13:46:19.924Z</time></trkpt><trkpt lat="44.51430979419235" lon="11.079877649796517"><ele>73.66666666666667</ele><time>2026-04-25T13:46:20.924Z</time></trkpt><trkpt lat="44.5143700589094" lon="11.07958908105899"><ele>74.0</ele><time>2026-04-25T13:46:21.924Z</time></trkpt><trkpt lat="44.51442472668875" lon="11.079303336770796"><ele>74.33333333333334</ele><time>2026-04-25T13:46:22.924Z</time></trkpt><trkpt lat="44.514464851694186" lon="11.079019990216024"><ele>74.66666666666667</ele><time>2026-04-25T13:46:23.924Z</time></trkpt><trkpt lat="44.51449645399679" lon="11.078735569305746"><ele>75.0</ele><time>2026-04-25T13:46:24.924Z</time></trkpt><trkpt lat="44.51452104313198" lon="11.07844753518545"><ele>74.0</ele><time>2026-04-25T13:46:25.924Z</time></trkpt><trkpt lat="44.51453199379473" lon="11.078163735323393"><ele>73.0</ele><time>2026-04-25T13:46:26.924Z</time></trkpt><trkpt lat="44.51453588410752" lon="11.077875165784423"><ele>72.0</ele><time>2026-04-25T13:46:27.924Z</time></trkpt><trkpt lat="44.51452817593668" lon="11.077580054430397"><ele>73.0</ele><time>2026-04-25T13:46:28.924Z</time></trkpt><trkpt lat="44.514514284306756" lon="11.07729066785965"><ele>74.0</ele><time>2026-04-25T13:46:29.924Z</time></trkpt><trkpt lat="44.5144844422987" lon="11.077004655542154"><ele>75.0</ele><time>2026-04-25T13:46:30.924Z</time></trkpt><trkpt lat="44.5144492406548" lon="11.076725134148761"><ele>74.33333333333333</ele><time>2026-04-25T13:46:31.924Z</time></trkpt><trkpt lat="44.51439853319305" lon="11.076443938225868"><ele>73.66666666666666</ele><time>2026-04-25T13:46:32.924Z</time></trkpt><trkpt lat="44.514341598491136" lon="11.076158116330255"><ele>73.0</ele><time>2026-04-25T13:46:33.924Z</time></trkpt><trkpt lat="44.514272845870885" lon="11.075875411993943"><ele>72.33333333333333</ele><time>2026-04-25T13:46:34.924Z</time></trkpt><trkpt lat="44.514196358378804" lon="11.07559358788306"><ele>71.66666666666667</ele><time>2026-04-25T13:46:35.924Z</time></trkpt><trkpt lat="44.51413391683931" lon="11.075310807651938"><ele>71.0</ele><time>2026-04-25T13:46:36.924Z</time></trkpt><trkpt lat="44.51402748272893" lon="11.075053170326024"><ele>71.0</ele><time>2026-04-25T13:46:37.924Z</time></trkpt><trkpt lat="44.51393524463187" lon="11.074801597422063"><ele>71.0</ele><time>2026-04-25T13:46:38.924Z</time></trkpt><trkpt lat="44.51382739934874" lon="11.074549191561008"><ele>71.0</ele><time>2026-04-25T13:46:39.924Z</time></trkpt><trkpt lat="44.51371001236022" lon="11.074295097748122"><ele>71.66666666666667</ele><time>2026-04-25T13:46:40.923Z</time></trkpt><trkpt lat="44.513592947770796" lon="11.074035422763163"><ele>72.33333333333333</ele><time>2026-04-25T13:46:41.923Z</time></trkpt><trkpt lat="44.51346458298716" lon="11.073790425699816"><ele>73.0</ele><time>2026-04-25T13:46:42.924Z</time></trkpt><trkpt lat="44.51332935744347" lon="11.073558115086383"><ele>73.0</ele><time>2026-04-25T13:46:43.923Z</time></trkpt><trkpt lat="44.51319171349019" lon="11.07332812440793"><ele>73.0</ele><time>2026-04-25T13:46:44.923Z</time></trkpt><trkpt lat="44.51305470091215" lon="11.0730923577064"><ele>73.0</ele><time>2026-04-25T13:46:45.923Z</time></trkpt><trkpt lat="44.51291437643859" lon="11.072858198251122"><ele>73.5</ele><time>2026-04-25T13:46:46.924Z</time></trkpt><trkpt lat="44.512768264404016" lon="11.072611058573159"><ele>74.0</ele><time>2026-04-25T13:46:47.924Z</time></trkpt><trkpt lat="44.51261926596573" lon="11.072351489029534"><ele>74.0</ele><time>2026-04-25T13:46:48.924Z</time></trkpt><trkpt lat="44.512458283058194" lon="11.072077668179917"><ele>74.0</ele><time>2026-04-25T13:46:49.924Z</time></trkpt><trkpt lat="44.51229764918403" lon="11.071796857886488"><ele>74.0</ele><time>2026-04-25T13:46:50.924Z</time></trkpt><trkpt lat="44.51212844818917" lon="11.071513242888956"><ele>74.0</ele><time>2026-04-25T13:46:51.924Z</time></trkpt><trkpt lat="44.51196169551308" lon="11.071216154864661"><ele>74.0</ele><time>2026-04-25T13:46:52.924Z</time></trkpt><trkpt lat="44.5117966559891" lon="11.070917182438885"><ele>74.0</ele><time>2026-04-25T13:46:53.924Z</time></trkpt><trkpt lat="44.51163225735529" lon="11.07061930743941"><ele>74.0</ele><time>2026-04-25T13:46:54.924Z</time></trkpt><trkpt lat="44.51147218852885" lon="11.0703221857729"><ele>74.0</ele><time>2026-04-25T13:46:55.924Z</time></trkpt><trkpt lat="44.511312627198855" lon="11.07002414256793"><ele>73.0</ele><time>2026-04-25T13:46:56.924Z</time></trkpt><trkpt lat="44.51115624470141" lon="11.069719623427739"><ele>72.0</ele><time>2026-04-25T13:46:57.924Z</time></trkpt><trkpt lat="44.511006322601894" lon="11.069418110633823"><ele>74.0</ele><time>2026-04-25T13:46:58.924Z</time></trkpt><trkpt lat="44.51085576204269" lon="11.069106135727584"><ele>76.0</ele><time>2026-04-25T13:46:59.924Z</time></trkpt><trkpt lat="44.51071170196183" lon="11.068791487452106"><ele>76.0</ele><time>2026-04-25T13:47:00.923Z</time></trkpt><trkpt lat="44.510572149218014" lon="11.068474373608836"><ele>76.0</ele><time>2026-04-25T13:47:01.923Z</time></trkpt><trkpt lat="44.510433810839096" lon="11.068159520586034"><ele>75.0</ele><time>2026-04-25T13:47:02.923Z</time></trkpt><trkpt lat="44.510298986880365" lon="11.067841057438859"><ele>74.0</ele><time>2026-04-25T13:47:03.923Z</time></trkpt><trkpt lat="44.510164630121324" lon="11.067519658024441"><ele>73.5</ele><time>2026-04-25T13:47:04.923Z</time></trkpt><trkpt lat="44.510031185816345" lon="11.067198679264669"><ele>73.0</ele><time>2026-04-25T13:47:05.923Z</time></trkpt><trkpt lat="44.509898602038824" lon="11.066878166379825"><ele>73.0</ele><time>2026-04-25T13:47:06.923Z</time></trkpt><trkpt lat="44.5097613546425" lon="11.066559786912212"><ele>73.0</ele><time>2026-04-25T13:47:07.923Z</time></trkpt><trkpt lat="44.5096270973154" lon="11.066245609502932"><ele>72.5</ele><time>2026-04-25T13:47:08.923Z</time></trkpt><trkpt lat="44.509493254850454" lon="11.065939503335407"><ele>72.0</ele><time>2026-04-25T13:47:09.923Z</time></trkpt><trkpt lat="44.5093549127114" lon="11.065632983884813"><ele>72.0</ele><time>2026-04-25T13:47:10.923Z</time></trkpt><trkpt lat="44.509220762721355" lon="11.06532255461631"><ele>72.0</ele><time>2026-04-25T13:47:11.923Z</time></trkpt><trkpt lat="44.50909866051987" lon="11.065013035399172"><ele>72.0</ele><time>2026-04-25T13:47:12.923Z</time></trkpt><trkpt lat="44.50897502209356" lon="11.064707414392949"><ele>72.0</ele><time>2026-04-25T13:47:13.923Z</time></trkpt><trkpt lat="44.50884365609709" lon="11.064387354076127"><ele>73.0</ele><time>2026-04-25T13:47:14.923Z</time></trkpt><trkpt lat="44.50872079152218" lon="11.064072885993916"><ele>74.0</ele><time>2026-04-25T13:47:15.923Z</time></trkpt><trkpt lat="44.50859522969523" lon="11.063769427053616"><ele>74.0</ele><time>2026-04-25T13:47:16.923Z</time></trkpt><trkpt lat="44.5084712815052" lon="11.063460745242972"><ele>74.0</ele><time>2026-04-25T13:47:17.923Z</time></trkpt><trkpt lat="44.5083424027691" lon="11.063152313708702"><ele>74.0</ele><time>2026-04-25T13:47:18.923Z</time></trkpt><trkpt lat="44.50821545873687" lon="11.062842372719242"><ele>74.0</ele><time>2026-04-25T13:47:19.923Z</time></trkpt><trkpt lat="44.50808877226041" lon="11.062533790298357"><ele>74.0</ele><time>2026-04-25T13:47:20.923Z</time></trkpt><trkpt lat="44.50796307318795" lon="11.062222260030115"><ele>74.0</ele><time>2026-04-25T13:47:21.923Z</time></trkpt><trkpt lat="44.507838570991474" lon="11.061915138783888"><ele>74.5</ele><time>2026-04-25T13:47:22.923Z</time></trkpt><trkpt lat="44.5077180184951" lon="11.061621716122621"><ele>75.0</ele><time>2026-04-25T13:47:23.923Z</time></trkpt><trkpt lat="44.50761126819552" lon="11.061348959701329"><ele>75.0</ele><time>2026-04-25T13:47:24.923Z</time></trkpt><trkpt lat="44.5074989499185" lon="11.061096615606088"><ele>75.0</ele><time>2026-04-25T13:47:25.923Z</time></trkpt><trkpt lat="44.50739589601681" lon="11.06085452408683"><ele>75.0</ele><time>2026-04-25T13:47:26.923Z</time></trkpt><trkpt lat="44.50730764269819" lon="11.06062629121594"><ele>75.0</ele><time>2026-04-25T13:47:27.923Z</time></trkpt><trkpt lat="44.50721040259731" lon="11.060396280720447"><ele>75.0</ele><time>2026-04-25T13:47:28.923Z</time></trkpt><trkpt lat="44.50711452177578" lon="11.060167363137674"><ele>75.0</ele><time>2026-04-25T13:47:29.923Z</time></trkpt><trkpt lat="44.507022685790076" lon="11.059925690166526"><ele>75.0</ele><time>2026-04-25T13:47:30.923Z</time></trkpt><trkpt lat="44.5069275077547" lon="11.05969407051995"><ele>75.0</ele><time>2026-04-25T13:47:31.923Z</time></trkpt><trkpt lat="44.50682940037264" lon="11.059455990301371"><ele>75.0</ele><time>2026-04-25T13:47:32.923Z</time></trkpt><trkpt lat="44.50673096077576" lon="11.059225217739037"><ele>75.0</ele><time>2026-04-25T13:47:33.923Z</time></trkpt><trkpt lat="44.506635440458" lon="11.058994266610117"><ele>75.0</ele><time>2026-04-25T13:47:34.923Z</time></trkpt><trkpt lat="44.5065379300399" lon="11.058760928250367"><ele>75.0</ele><time>2026-04-25T13:47:35.923Z</time></trkpt><trkpt lat="44.506445358479084" lon="11.058533604762202"><ele>75.0</ele><time>2026-04-25T13:47:36.923Z</time></trkpt><trkpt lat="44.5063494777144" lon="11.058300604326744"><ele>75.0</ele><time>2026-04-25T13:47:37.923Z</time></trkpt><trkpt lat="44.50625824967349" lon="11.058069025543922"><ele>75.0</ele><time>2026-04-25T13:47:38.923Z</time></trkpt><trkpt lat="44.506161420424164" lon="11.0578429180504"><ele>75.33333333333333</ele><time>2026-04-25T13:47:39.923Z</time></trkpt><trkpt lat="44.506066228366905" lon="11.057617789501103"><ele>75.66666666666666</ele><time>2026-04-25T13:47:40.923Z</time></trkpt><trkpt lat="44.50597956039658" lon="11.057398227129525"><ele>76.0</ele><time>2026-04-25T13:47:41.923Z</time></trkpt><trkpt lat="44.50588870369624" lon="11.057169824495602"><ele>76.33333333333333</ele><time>2026-04-25T13:47:42.923Z</time></trkpt><trkpt lat="44.50580201469161" lon="11.05694278960036"><ele>76.66666666666667</ele><time>2026-04-25T13:47:43.923Z</time></trkpt><trkpt lat="44.50571552578739" lon="11.056711171578142"><ele>77.0</ele><time>2026-04-25T13:47:44.923Z</time></trkpt><trkpt lat="44.50562279231126" lon="11.056493814749256"><ele>77.66666666666667</ele><time>2026-04-25T13:47:45.923Z</time></trkpt><trkpt lat="44.505530496370135" lon="11.056282664323135"><ele>78.33333333333333</ele><time>2026-04-25T13:47:46.923Z</time></trkpt><trkpt lat="44.505450676134934" lon="11.056061710154284"><ele>79.0</ele><time>2026-04-25T13:47:47.923Z</time></trkpt><trkpt lat="44.505365670435665" lon="11.05584910699796"><ele>79.0</ele><time>2026-04-25T13:47:48.923Z</time></trkpt><trkpt lat="44.50527594130024" lon="11.055633538957458"><ele>79.0</ele><time>2026-04-25T13:47:49.923Z</time></trkpt><trkpt lat="44.5051914460942" lon="11.055417849556896"><ele>79.0</ele><time>2026-04-25T13:47:50.923Z</time></trkpt><trkpt lat="44.50511319679187" lon="11.055191411369638"><ele>79.0</ele><time>2026-04-25T13:47:51.923Z</time></trkpt><trkpt lat="44.50504244859111" lon="11.054957949278233"><ele>79.0</ele><time>2026-04-25T13:47:52.923Z</time></trkpt><trkpt lat="44.5049780025431" lon="11.054715187175447"><ele>79.0</ele><time>2026-04-25T13:47:53.923Z</time></trkpt><trkpt lat="44.504917524391324" lon="11.054461335460717"><ele>79.0</ele><time>2026-04-25T13:47:54.923Z</time></trkpt><trkpt lat="44.50485855314754" lon="11.054197802034572"><ele>79.0</ele><time>2026-04-25T13:47:55.923Z</time></trkpt><trkpt lat="44.50480635556293" lon="11.053920194259172"><ele>79.0</ele><time>2026-04-25T13:47:56.923Z</time></trkpt><trkpt lat="44.50475844182303" lon="11.053641634861853"><ele>79.0</ele><time>2026-04-25T13:47:57.923Z</time></trkpt><trkpt lat="44.504721497788225" lon="11.053360550661637"><ele>79.0</ele><time>2026-04-25T13:47:58.923Z</time></trkpt><trkpt lat="44.504689481544425" lon="11.053069446758537"><ele>79.0</ele><time>2026-04-25T13:47:59.923Z</time></trkpt><trkpt lat="44.504663667166355" lon="11.05277854438206"><ele>79.0</ele><time>2026-04-25T13:48:00.923Z</time></trkpt><trkpt lat="44.504651201192296" lon="11.052487381270897"><ele>79.0</ele><time>2026-04-25T13:48:01.923Z</time></trkpt><trkpt lat="44.50464308763655" lon="11.052194534401972"><ele>79.0</ele><time>2026-04-25T13:48:02.923Z</time></trkpt><trkpt lat="44.50464437076746" lon="11.051914015131034"><ele>79.33333333333333</ele><time>2026-04-25T13:48:03.923Z</time></trkpt><trkpt lat="44.50465504011849" lon="11.051641443579866"><ele>79.66666666666667</ele><time>2026-04-25T13:48:04.923Z</time></trkpt><trkpt lat="44.50467540950915" lon="11.0513729151208"><ele>80.0</ele><time>2026-04-25T13:48:05.923Z</time></trkpt><trkpt lat="44.50470095471919" lon="11.051117902520307"><ele>80.0</ele><time>2026-04-25T13:48:06.923Z</time></trkpt><trkpt lat="44.50472865542217" lon="11.05086552916928"><ele>80.0</ele><time>2026-04-25T13:48:07.923Z</time></trkpt><trkpt lat="44.50475934008323" lon="11.050615644885035"><ele>80.0</ele><time>2026-04-25T13:48:08.923Z</time></trkpt><trkpt lat="44.504794401764734" lon="11.05037549031998"><ele>80.0</ele><time>2026-04-25T13:48:09.923Z</time></trkpt><trkpt lat="44.50483450257551" lon="11.050135745478078"><ele>80.0</ele><time>2026-04-25T13:48:10.923Z</time></trkpt><trkpt lat="44.50487769363341" lon="11.049894602686598"><ele>80.0</ele><time>2026-04-25T13:48:11.923Z</time></trkpt><trkpt lat="44.5049195980817" lon="11.049659691895483"><ele>80.0</ele><time>2026-04-25T13:48:12.923Z</time></trkpt><trkpt lat="44.504960809009724" lon="11.049431819019949"><ele>80.0</ele><time>2026-04-25T13:48:13.923Z</time></trkpt><trkpt lat="44.505000924811284" lon="11.049208169410377"><ele>80.0</ele><time>2026-04-25T13:48:14.923Z</time></trkpt><trkpt lat="44.50503954254669" lon="11.04899101936186"><ele>79.66666666666667</ele><time>2026-04-25T13:48:15.923Z</time></trkpt><trkpt lat="44.50507621453145" lon="11.048763966272388"><ele>79.33333333333333</ele><time>2026-04-25T13:48:16.923Z</time></trkpt><trkpt lat="44.505115833434616" lon="11.048537089530686"><ele>79.0</ele><time>2026-04-25T13:48:17.923Z</time></trkpt><trkpt lat="44.50515268270502" lon="11.048304837838703"><ele>79.0</ele><time>2026-04-25T13:48:18.923Z</time></trkpt><trkpt lat="44.505192516019065" lon="11.048063307212384"><ele>79.0</ele><time>2026-04-25T13:48:19.922Z</time></trkpt><trkpt lat="44.505231707355414" lon="11.047820016077678"><ele>79.0</ele><time>2026-04-25T13:48:20.922Z</time></trkpt><trkpt lat="44.50526268827164" lon="11.047579643547145"><ele>79.0</ele><time>2026-04-25T13:48:21.922Z</time></trkpt><trkpt lat="44.505291182506966" lon="11.04734473421164"><ele>79.0</ele><time>2026-04-25T13:48:22.922Z</time></trkpt><trkpt lat="44.50531289782319" lon="11.047121790268864"><ele>79.0</ele><time>2026-04-25T13:48:23.922Z</time></trkpt><trkpt lat="44.50533216545579" lon="11.046908804784296"><ele>79.0</ele><time>2026-04-25T13:48:24.922Z</time></trkpt><trkpt lat="44.505349497142625" lon="11.046697689327722"><ele>79.0</ele><time>2026-04-25T13:48:25.922Z</time></trkpt><trkpt lat="44.50536545177258" lon="11.046482024306542"><ele>79.0</ele><time>2026-04-25T13:48:26.922Z</time></trkpt><trkpt lat="44.50537923192574" lon="11.04626633537082"><ele>79.5</ele><time>2026-04-25T13:48:27.922Z</time></trkpt><trkpt lat="44.50539201075934" lon="11.046040227514288"><ele>80.0</ele><time>2026-04-25T13:48:28.922Z</time></trkpt><trkpt lat="44.50539210027857" lon="11.045830315032648"><ele>80.5</ele><time>2026-04-25T13:48:29.922Z</time></trkpt><trkpt lat="44.50539000844169" lon="11.045637628509636"><ele>81.0</ele><time>2026-04-25T13:48:30.922Z</time></trkpt><trkpt lat="44.50539261673333" lon="11.045466805931483"><ele>81.0</ele><time>2026-04-25T13:48:31.922Z</time></trkpt><trkpt lat="44.50539425947069" lon="11.045317159680218"><ele>81.0</ele><time>2026-04-25T13:48:32.922Z</time></trkpt><trkpt lat="44.505398066859435" lon="11.045189932784963"><ele>81.0</ele><time>2026-04-25T13:48:33.922Z</time></trkpt><trkpt lat="44.50539681383877" lon="11.045079438774215"><ele>81.0</ele><time>2026-04-25T13:48:34.922Z</time></trkpt><trkpt lat="44.50539477051316" lon="11.044970900282616"><ele>81.0</ele><time>2026-04-25T13:48:35.922Z</time></trkpt><trkpt lat="44.50539500762599" lon="11.044856263205475"><ele>81.0</ele><time>2026-04-25T13:48:36.922Z</time></trkpt><trkpt lat="44.50539569527907" lon="11.044719024292624"><ele>81.0</ele><time>2026-04-25T13:48:37.922Z</time></trkpt><trkpt lat="44.50540422565617" lon="11.04456266055498"><ele>81.0</ele><time>2026-04-25T13:48:38.922Z</time></trkpt><trkpt lat="44.50541024630686" lon="11.04439473066728"><ele>81.0</ele><time>2026-04-25T13:48:39.923Z</time></trkpt><trkpt lat="44.505409714854856" lon="11.04420767247683"><ele>81.0</ele><time>2026-04-25T13:48:40.922Z</time></trkpt><trkpt lat="44.50541351061946" lon="11.044009417641757"><ele>81.33333333333333</ele><time>2026-04-25T13:48:41.922Z</time></trkpt><trkpt lat="44.50541633882253" lon="11.043800032307756"><ele>81.66666666666666</ele><time>2026-04-25T13:48:42.923Z</time></trkpt><trkpt lat="44.50541881734992" lon="11.043578152990683"><ele>82.0</ele><time>2026-04-25T13:48:43.922Z</time></trkpt><trkpt lat="44.50542010631134" lon="11.043343612703419"><ele>81.0</ele><time>2026-04-25T13:48:44.922Z</time></trkpt><trkpt lat="44.505422782584006" lon="11.043099689722819"><ele>80.0</ele><time>2026-04-25T13:48:45.923Z</time></trkpt><trkpt lat="44.50542464624573" lon="11.042841871918935"><ele>79.0</ele><time>2026-04-25T13:48:46.922Z</time></trkpt><trkpt lat="44.5054287618833" lon="11.042578767808596"><ele>78.0</ele><time>2026-04-25T13:48:47.922Z</time></trkpt><trkpt lat="44.50543271712249" lon="11.042308511783654"><ele>77.0</ele><time>2026-04-25T13:48:48.922Z</time></trkpt><trkpt lat="44.505434257359674" lon="11.042019728873603"><ele>76.0</ele><time>2026-04-25T13:48:49.922Z</time></trkpt><trkpt lat="44.50544417799651" lon="11.041730920223143"><ele>76.5</ele><time>2026-04-25T13:48:50.922Z</time></trkpt><trkpt lat="44.50543566254194" lon="11.0414180912142"><ele>77.0</ele><time>2026-04-25T13:48:51.923Z</time></trkpt><trkpt lat="44.50543848613748" lon="11.041091512059984"><ele>77.0</ele><time>2026-04-25T13:48:52.922Z</time></trkpt><trkpt lat="44.50543178529912" lon="11.040757906936692"><ele>77.0</ele><time>2026-04-25T13:48:53.922Z</time></trkpt><trkpt lat="44.505421112211515" lon="11.040398820043952"><ele>77.0</ele><time>2026-04-25T13:48:54.922Z</time></trkpt><trkpt lat="44.505420542573" lon="11.040022716495024"><ele>77.0</ele><time>2026-04-25T13:48:55.922Z</time></trkpt><trkpt lat="44.505416667814785" lon="11.039631514678668"><ele>76.5</ele><time>2026-04-25T13:48:56.922Z</time></trkpt><trkpt lat="44.50541520098053" lon="11.039226920361719"><ele>76.0</ele><time>2026-04-25T13:48:57.922Z</time></trkpt><trkpt lat="44.50541096174345" lon="11.03880866392196"><ele>77.0</ele><time>2026-04-25T13:48:58.922Z</time></trkpt><trkpt lat="44.50541001336229" lon="11.038385858035323"><ele>78.0</ele><time>2026-04-25T13:48:59.922Z</time></trkpt><trkpt lat="44.505424005461876" lon="11.037952553946191"><ele>79.0</ele><time>2026-04-25T13:49:00.922Z</time></trkpt><trkpt lat="44.505428407481524" lon="11.037510746335025"><ele>80.0</ele><time>2026-04-25T13:49:01.922Z</time></trkpt><trkpt lat="44.50543086095966" lon="11.037067216232538"><ele>81.0</ele><time>2026-04-25T13:49:02.922Z</time></trkpt><trkpt lat="44.50543122261413" lon="11.036633231461426"><ele>82.0</ele><time>2026-04-25T13:49:03.922Z</time></trkpt><trkpt lat="44.50542968714498" lon="11.036211543286994"><ele>82.0</ele><time>2026-04-25T13:49:04.922Z</time></trkpt><trkpt lat="44.505426970057556" lon="11.035804316168083"><ele>82.0</ele><time>2026-04-25T13:49:05.922Z</time></trkpt><trkpt lat="44.505429618001564" lon="11.0354323567613"><ele>81.66666666666666</ele><time>2026-04-25T13:49:06.922Z</time></trkpt><trkpt lat="44.50542812146752" lon="11.035122284394607"><ele>81.33333333333333</ele><time>2026-04-25T13:49:07.922Z</time></trkpt><trkpt lat="44.50543302910031" lon="11.034840849864512"><ele>81.0</ele><time>2026-04-25T13:49:08.922Z</time></trkpt><trkpt lat="44.50543411540579" lon="11.034582777313386"><ele>81.0</ele><time>2026-04-25T13:49:09.922Z</time></trkpt><trkpt lat="44.505435018546216" lon="11.03434542908948"><ele>81.0</ele><time>2026-04-25T13:49:10.922Z</time></trkpt><trkpt lat="44.50543793832458" lon="11.034129152094307"><ele>81.0</ele><time>2026-04-25T13:49:11.922Z</time></trkpt><trkpt lat="44.50543983695505" lon="11.03392231093274"><ele>81.5</ele><time>2026-04-25T13:49:12.922Z</time></trkpt><trkpt lat="44.50543730029718" lon="11.033722164873657"><ele>82.0</ele><time>2026-04-25T13:49:13.922Z</time></trkpt><trkpt lat="44.50543608554666" lon="11.03351871938787"><ele>82.5</ele><time>2026-04-25T13:49:14.922Z</time></trkpt><trkpt lat="44.505436231688186" lon="11.03330918380736"><ele>83.0</ele><time>2026-04-25T13:49:15.922Z</time></trkpt><trkpt lat="44.50544294789895" lon="11.033092254691239"><ele>83.0</ele><time>2026-04-25T13:49:16.922Z</time></trkpt><trkpt lat="44.50544300365944" lon="11.032867134448853"><ele>83.0</ele><time>2026-04-25T13:49:17.922Z</time></trkpt><trkpt lat="44.50544300676253" lon="11.032643201150105"><ele>83.0</ele><time>2026-04-25T13:49:18.922Z</time></trkpt><trkpt lat="44.505444173145726" lon="11.032410425385134"><ele>83.0</ele><time>2026-04-25T13:49:19.922Z</time></trkpt><trkpt lat="44.505445545107264" lon="11.032160725293894"><ele>83.0</ele><time>2026-04-25T13:49:20.922Z</time></trkpt><trkpt lat="44.50545187329501" lon="11.031920099868882"><ele>83.0</ele><time>2026-04-25T13:49:21.922Z</time></trkpt><trkpt lat="44.50545255706618" lon="11.031672200838946"><ele>82.33333333333334</ele><time>2026-04-25T13:49:22.922Z</time></trkpt><trkpt lat="44.505453682429305" lon="11.031420199710087"><ele>81.66666666666667</ele><time>2026-04-25T13:49:23.922Z</time></trkpt><trkpt lat="44.505453725254675" lon="11.03116936297007"><ele>81.0</ele><time>2026-04-25T13:49:24.922Z</time></trkpt><trkpt lat="44.50544820497354" lon="11.030939966709635"><ele>81.33333333333333</ele><time>2026-04-25T13:49:25.922Z</time></trkpt><trkpt lat="44.50545076630319" lon="11.03071297135567"><ele>81.66666666666666</ele><time>2026-04-25T13:49:26.922Z</time></trkpt><trkpt lat="44.505451666730345" lon="11.030483043886932"><ele>82.0</ele><time>2026-04-25T13:49:27.922Z</time></trkpt><trkpt lat="44.50545049809199" lon="11.030245854795629"><ele>82.0</ele><time>2026-04-25T13:49:28.922Z</time></trkpt><trkpt lat="44.505457801654494" lon="11.030004598758927"><ele>82.0</ele><time>2026-04-25T13:49:29.922Z</time></trkpt><trkpt lat="44.50545859147299" lon="11.029763523905004"><ele>82.0</ele><time>2026-04-25T13:49:30.922Z</time></trkpt><trkpt lat="44.50545799893639" lon="11.029510488095466"><ele>81.66666666666666</ele><time>2026-04-25T13:49:31.922Z</time></trkpt><trkpt lat="44.50545992513485" lon="11.029250466170039"><ele>81.33333333333333</ele><time>2026-04-25T13:49:32.922Z</time></trkpt><trkpt lat="44.50546007636509" lon="11.028990862065584"><ele>81.0</ele><time>2026-04-25T13:49:33.922Z</time></trkpt><trkpt lat="44.50545643131545" lon="11.028734934744126"><ele>81.0</ele><time>2026-04-25T13:49:34.922Z</time></trkpt><trkpt lat="44.505453020305936" lon="11.028498060564727"><ele>81.0</ele><time>2026-04-25T13:49:35.922Z</time></trkpt><trkpt lat="44.50545502705905" lon="11.028266409455195"><ele>81.0</ele><time>2026-04-25T13:49:36.922Z</time></trkpt><trkpt lat="44.5054596894748" lon="11.028031096558648"><ele>81.33333333333333</ele><time>2026-04-25T13:49:37.922Z</time></trkpt><trkpt lat="44.50546905656969" lon="11.027792057119576"><ele>81.66666666666666</ele><time>2026-04-25T13:49:38.922Z</time></trkpt><trkpt lat="44.50548319756282" lon="11.02755403169549"><ele>82.0</ele><time>2026-04-25T13:49:39.922Z</time></trkpt><trkpt lat="44.50550189317771" lon="11.027317056852242"><ele>82.66666666666666</ele><time>2026-04-25T13:49:40.922Z</time></trkpt><trkpt lat="44.50552645730172" lon="11.02708038729291"><ele>83.33333333333333</ele><time>2026-04-25T13:49:41.922Z</time></trkpt><trkpt lat="44.50555719311413" lon="11.026843048504606"><ele>84.0</ele><time>2026-04-25T13:49:42.922Z</time></trkpt><trkpt lat="44.50559034130333" lon="11.026600609776555"><ele>84.0</ele><time>2026-04-25T13:49:43.922Z</time></trkpt><trkpt lat="44.50562516802082" lon="11.026359413798973"><ele>84.0</ele><time>2026-04-25T13:49:44.922Z</time></trkpt><trkpt lat="44.50566222899643" lon="11.026124292944012"><ele>84.0</ele><time>2026-04-25T13:49:45.922Z</time></trkpt><trkpt lat="44.50570521594912" lon="11.025904976106206"><ele>84.33333333333333</ele><time>2026-04-25T13:49:46.922Z</time></trkpt><trkpt lat="44.50575632912933" lon="11.025694233073757"><ele>84.66666666666666</ele><time>2026-04-25T13:49:47.922Z</time></trkpt><trkpt lat="44.50580800268358" lon="11.025483544047209"><ele>85.0</ele><time>2026-04-25T13:49:48.922Z</time></trkpt><trkpt lat="44.50586980190607" lon="11.02527521653834"><ele>85.0</ele><time>2026-04-25T13:49:49.922Z</time></trkpt><trkpt lat="44.505926103601766" lon="11.025070833399594"><ele>85.0</ele><time>2026-04-25T13:49:50.922Z</time></trkpt><trkpt lat="44.50599381795959" lon="11.024868449568757"><ele>85.0</ele><time>2026-04-25T13:49:51.922Z</time></trkpt><trkpt lat="44.506064132138114" lon="11.024667805298884"><ele>85.0</ele><time>2026-04-25T13:49:52.921Z</time></trkpt><trkpt lat="44.50613815610315" lon="11.024470165843557"><ele>85.0</ele><time>2026-04-25T13:49:53.921Z</time></trkpt><trkpt lat="44.506216015783664" lon="11.024270677156725"><ele>85.0</ele><time>2026-04-25T13:49:54.921Z</time></trkpt><trkpt lat="44.50630757278416" lon="11.024065506780076"><ele>85.66666666666666</ele><time>2026-04-25T13:49:55.921Z</time></trkpt><trkpt lat="44.506401581919064" lon="11.023859833982506"><ele>86.33333333333333</ele><time>2026-04-25T13:49:56.921Z</time></trkpt><trkpt lat="44.50649439402159" lon="11.023652997395041"><ele>87.0</ele><time>2026-04-25T13:49:57.921Z</time></trkpt><trkpt lat="44.50658192910613" lon="11.023449972797993"><ele>88.0</ele><time>2026-04-25T13:49:58.921Z</time></trkpt><trkpt lat="44.50666563315499" lon="11.023253499067227"><ele>89.0</ele><time>2026-04-25T13:49:59.921Z</time></trkpt><trkpt lat="44.50674679535358" lon="11.023067608186665"><ele>90.0</ele><time>2026-04-25T13:50:00.921Z</time></trkpt><trkpt lat="44.50682754846374" lon="11.022899990448115"><ele>90.0</ele><time>2026-04-25T13:50:01.921Z</time></trkpt><trkpt lat="44.5069144096701" lon="11.02274688862603"><ele>90.0</ele><time>2026-04-25T13:50:02.921Z</time></trkpt><trkpt lat="44.50702263983824" lon="11.022606819383327"><ele>90.0</ele><time>2026-04-25T13:50:03.921Z</time></trkpt><trkpt lat="44.507151944444125" lon="11.022485527398498"><ele>90.0</ele><time>2026-04-25T13:50:04.921Z</time></trkpt><trkpt lat="44.5072863982591" lon="11.022384412671487"><ele>90.0</ele><time>2026-04-25T13:50:05.921Z</time></trkpt><trkpt lat="44.50742759493289" lon="11.022297568878516"><ele>90.0</ele><time>2026-04-25T13:50:06.921Z</time></trkpt><trkpt lat="44.507579027149774" lon="11.022231825668996"><ele>90.0</ele><time>2026-04-25T13:50:07.921Z</time></trkpt><trkpt lat="44.50773320263697" lon="11.022187126997586"><ele>90.0</ele><time>2026-04-25T13:50:08.921Z</time></trkpt><trkpt lat="44.5078883178198" lon="11.02216135758615"><ele>90.0</ele><time>2026-04-25T13:50:09.921Z</time></trkpt><trkpt lat="44.50804182292564" lon="11.022148499199831"><ele>90.0</ele><time>2026-04-25T13:50:10.921Z</time></trkpt><trkpt lat="44.508185110248476" lon="11.022152341871768"><ele>89.6</ele><time>2026-04-25T13:50:11.921Z</time></trkpt><trkpt lat="44.50830438788077" lon="11.022164089245129"><ele>89.2</ele><time>2026-04-25T13:50:12.921Z</time></trkpt><trkpt lat="44.50840513812093" lon="11.022192950632324"><ele>88.80000000000001</ele><time>2026-04-25T13:50:13.921Z</time></trkpt><trkpt lat="44.50848075939758" lon="11.022233521327113"><ele>88.4</ele><time>2026-04-25T13:50:14.921Z</time></trkpt><trkpt lat="44.50854467597332" lon="11.022308488802214"><ele>88.0</ele><time>2026-04-25T13:50:16.921Z</time></trkpt><trkpt lat="44.50858008264543" lon="11.022383748870107"><ele>88.0</ele><time>2026-04-25T13:50:18.921Z</time></trkpt><trkpt lat="44.508600916820484" lon="11.022470692932703"><ele>88.0</ele><time>2026-04-25T13:50:19.921Z</time></trkpt><trkpt lat="44.508612769901106" lon="11.022577982754793"><ele>88.0</ele><time>2026-04-25T13:50:20.921Z</time></trkpt><trkpt lat="44.50860381623839" lon="11.022693362184373"><ele>88.0</ele><time>2026-04-25T13:50:21.921Z</time></trkpt><trkpt lat="44.50855673469854" lon="11.022790446150701"><ele>88.0</ele><time>2026-04-25T13:50:22.921Z</time></trkpt><trkpt lat="44.50848598005987" lon="11.022852754810273"><ele>88.0</ele><time>2026-04-25T13:50:23.921Z</time></trkpt><trkpt lat="44.50840354309795" lon="11.022891677646385"><ele>88.0</ele><time>2026-04-25T13:50:24.921Z</time></trkpt><trkpt lat="44.50832053692007" lon="11.022911745173795"><ele>88.0</ele><time>2026-04-25T13:50:25.921Z</time></trkpt><trkpt lat="44.5082391769181" lon="11.022931459373343"><ele>88.0</ele><time>2026-04-25T13:50:26.921Z</time></trkpt><trkpt lat="44.508147870232065" lon="11.022953398279446"><ele>88.0</ele><time>2026-04-25T13:50:27.921Z</time></trkpt><trkpt lat="44.5080389779417" lon="11.022988584179298"><ele>88.0</ele><time>2026-04-25T13:50:28.921Z</time></trkpt><trkpt lat="44.507924779608686" lon="11.023020826741233"><ele>88.0</ele><time>2026-04-25T13:50:29.921Z</time></trkpt><trkpt lat="44.50780280877982" lon="11.023057693990063"><ele>88.0</ele><time>2026-04-25T13:50:30.921Z</time></trkpt><trkpt lat="44.50766718313804" lon="11.023088292567094"><ele>88.0</ele><time>2026-04-25T13:50:31.921Z</time></trkpt><trkpt lat="44.507526988394645" lon="11.023122883906824"><ele>88.0</ele><time>2026-04-25T13:50:32.921Z</time></trkpt><trkpt lat="44.50738609857105" lon="11.023162889827118"><ele>88.0</ele><time>2026-04-25T13:50:33.921Z</time></trkpt><trkpt lat="44.507238128172276" lon="11.023206288990364"><ele>88.0</ele><time>2026-04-25T13:50:34.921Z</time></trkpt><trkpt lat="44.507080059580176" lon="11.023229855383942"><ele>88.0</ele><time>2026-04-25T13:50:35.921Z</time></trkpt><trkpt lat="44.50691284809075" lon="11.023216657073641"><ele>88.66666666666666</ele><time>2026-04-25T13:50:36.921Z</time></trkpt><trkpt lat="44.50674507855059" lon="11.023185785396066"><ele>89.33333333333333</ele><time>2026-04-25T13:50:37.921Z</time></trkpt><trkpt lat="44.5065760490336" lon="11.023143401426399"><ele>90.0</ele><time>2026-04-25T13:50:38.921Z</time></trkpt><trkpt lat="44.50641045619522" lon="11.023099961902263"><ele>90.0</ele><time>2026-04-25T13:50:39.921Z</time></trkpt><trkpt lat="44.506245902812715" lon="11.023041168406582"><ele>90.0</ele><time>2026-04-25T13:50:40.921Z</time></trkpt><trkpt lat="44.50608167792315" lon="11.022969229837564"><ele>90.0</ele><time>2026-04-25T13:50:41.921Z</time></trkpt><trkpt lat="44.5059328145778" lon="11.02290450405353"><ele>90.0</ele><time>2026-04-25T13:50:42.921Z</time></trkpt><trkpt lat="44.50579476334699" lon="11.022856221310288"><ele>90.0</ele><time>2026-04-25T13:50:43.921Z</time></trkpt><trkpt lat="44.50564993949459" lon="11.02282614575458"><ele>90.0</ele><time>2026-04-25T13:50:44.921Z</time></trkpt><trkpt lat="44.50550183110937" lon="11.022804387077457"><ele>90.0</ele><time>2026-04-25T13:50:45.922Z</time></trkpt><trkpt lat="44.50534901653892" lon="11.022790615898522"><ele>90.25</ele><time>2026-04-25T13:50:46.921Z</time></trkpt><trkpt lat="44.505204156111574" lon="11.022780490626637"><ele>90.5</ele><time>2026-04-25T13:50:47.921Z</time></trkpt><trkpt lat="44.505049490038346" lon="11.022772639103392"><ele>90.75</ele><time>2026-04-25T13:50:48.921Z</time></trkpt><trkpt lat="44.50491027349622" lon="11.022758971270592"><ele>91.0</ele><time>2026-04-25T13:50:49.921Z</time></trkpt><trkpt lat="44.50477267404502" lon="11.022739782135773"><ele>91.0</ele><time>2026-04-25T13:50:50.921Z</time></trkpt><trkpt lat="44.50462835939515" lon="11.022711596787763"><ele>91.0</ele><time>2026-04-25T13:50:51.922Z</time></trkpt><trkpt lat="44.504494895189666" lon="11.022676474355539"><ele>91.0</ele><time>2026-04-25T13:50:52.921Z</time></trkpt><trkpt lat="44.50435843960845" lon="11.022633818610506"><ele>91.0</ele><time>2026-04-25T13:50:53.921Z</time></trkpt><trkpt lat="44.504235974433655" lon="11.022603361413974"><ele>91.25</ele><time>2026-04-25T13:50:54.921Z</time></trkpt><trkpt lat="44.50410733676591" lon="11.022558905980508"><ele>91.5</ele><time>2026-04-25T13:50:55.921Z</time></trkpt><trkpt lat="44.50398321237473" lon="11.022505819300198"><ele>91.75</ele><time>2026-04-25T13:50:56.921Z</time></trkpt><trkpt lat="44.5038659745748" lon="11.022450611947509"><ele>92.0</ele><time>2026-04-25T13:50:57.921Z</time></trkpt><trkpt lat="44.503750070354606" lon="11.022398212745317"><ele>92.25</ele><time>2026-04-25T13:50:58.921Z</time></trkpt><trkpt lat="44.5036317872163" lon="11.022342191623293"><ele>92.5</ele><time>2026-04-25T13:50:59.92Z</time></trkpt><trkpt lat="44.503516095773556" lon="11.022279603131759"><ele>92.75</ele><time>2026-04-25T13:51:00.92Z</time></trkpt><trkpt lat="44.503399451483304" lon="11.022225850119781"><ele>93.0</ele><time>2026-04-25T13:51:01.92Z</time></trkpt><trkpt lat="44.50329588476561" lon="11.022177900688066"><ele>93.0</ele><time>2026-04-25T13:51:02.92Z</time></trkpt><trkpt lat="44.50319266776652" lon="11.022141043423956"><ele>93.0</ele><time>2026-04-25T13:51:03.92Z</time></trkpt><trkpt lat="44.503100668514264" lon="11.022106460212628"><ele>93.0</ele><time>2026-04-25T13:51:04.92Z</time></trkpt><trkpt lat="44.50301835465593" lon="11.02207850035647"><ele>93.0</ele><time>2026-04-25T13:51:05.92Z</time></trkpt><trkpt lat="44.502938402885114" lon="11.022052695608252"><ele>93.0</ele><time>2026-04-25T13:51:06.92Z</time></trkpt><trkpt lat="44.50286903402902" lon="11.022029905571264"><ele>93.0</ele><time>2026-04-25T13:51:07.92Z</time></trkpt><trkpt lat="44.50280489431943" lon="11.022010482607195"><ele>93.14285714285715</ele><time>2026-04-25T13:51:08.92Z</time></trkpt><trkpt lat="44.50274195916893" lon="11.021985302845266"><ele>93.28571428571429</ele><time>2026-04-25T13:51:09.92Z</time></trkpt><trkpt lat="44.502677303004134" lon="11.021952728126621"><ele>93.42857142857143</ele><time>2026-04-25T13:51:10.92Z</time></trkpt><trkpt lat="44.50261779002613" lon="11.021906300056198"><ele>93.57142857142858</ele><time>2026-04-25T13:51:11.92Z</time></trkpt><trkpt lat="44.50254979002319" lon="11.021851899767558"><ele>93.71428571428571</ele><time>2026-04-25T13:51:12.92Z</time></trkpt><trkpt lat="44.502482333845066" lon="11.021806610173316"><ele>93.85714285714286</ele><time>2026-04-25T13:51:13.92Z</time></trkpt><trkpt lat="44.50240332994477" lon="11.021751143686217"><ele>94.0</ele><time>2026-04-25T13:51:14.92Z</time></trkpt><trkpt lat="44.50231141898696" lon="11.02168441233816"><ele>94.25</ele><time>2026-04-25T13:51:15.92Z</time></trkpt><trkpt lat="44.50220921268851" lon="11.02162143711886"><ele>94.5</ele><time>2026-04-25T13:51:16.92Z</time></trkpt><trkpt lat="44.50210464163542" lon="11.021558670251448"><ele>94.75</ele><time>2026-04-25T13:51:17.92Z</time></trkpt><trkpt lat="44.50199403850214" lon="11.02149596371119"><ele>95.0</ele><time>2026-04-25T13:51:18.92Z</time></trkpt><trkpt lat="44.50187764407586" lon="11.0214355854131"><ele>95.25</ele><time>2026-04-25T13:51:19.92Z</time></trkpt><trkpt lat="44.501755574744315" lon="11.021377676668434"><ele>95.5</ele><time>2026-04-25T13:51:20.92Z</time></trkpt><trkpt lat="44.50163049341812" lon="11.021316258358834"><ele>95.75</ele><time>2026-04-25T13:51:21.92Z</time></trkpt><trkpt lat="44.50151024177792" lon="11.02125624216881"><ele>96.0</ele><time>2026-04-25T13:51:22.92Z</time></trkpt><trkpt lat="44.50138709017374" lon="11.02119629644307"><ele>96.0</ele><time>2026-04-25T13:51:23.92Z</time></trkpt><trkpt lat="44.50125988861285" lon="11.021134678177607"><ele>96.0</ele><time>2026-04-25T13:51:24.92Z</time></trkpt><trkpt lat="44.50113492168664" lon="11.02106802836238"><ele>96.0</ele><time>2026-04-25T13:51:25.92Z</time></trkpt><trkpt lat="44.501003351697435" lon="11.020999676796844"><ele>96.0</ele><time>2026-04-25T13:51:26.92Z</time></trkpt><trkpt lat="44.50087339561271" lon="11.020930813316138"><ele>96.0</ele><time>2026-04-25T13:51:27.92Z</time></trkpt><trkpt lat="44.500742712706376" lon="11.020867612354"><ele>96.0</ele><time>2026-04-25T13:51:28.92Z</time></trkpt><trkpt lat="44.500614899689104" lon="11.020806576723926"><ele>96.0</ele><time>2026-04-25T13:51:29.92Z</time></trkpt><trkpt lat="44.50048903010578" lon="11.020742772545502"><ele>96.0</ele><time>2026-04-25T13:51:30.92Z</time></trkpt><trkpt lat="44.500368551471354" lon="11.020682000943204"><ele>96.4</ele><time>2026-04-25T13:51:31.92Z</time></trkpt><trkpt lat="44.5002549608297" lon="11.020625689485628"><ele>96.8</ele><time>2026-04-25T13:51:32.92Z</time></trkpt><trkpt lat="44.500146637624795" lon="11.020573029040566"><ele>97.2</ele><time>2026-04-25T13:51:33.92Z</time></trkpt><trkpt lat="44.50004933156511" lon="11.02052672705339"><ele>97.60000000000001</ele><time>2026-04-25T13:51:34.92Z</time></trkpt><trkpt lat="44.499955781260084" lon="11.020456956063644"><ele>98.0</ele><time>2026-04-25T13:51:35.92Z</time></trkpt><trkpt lat="44.49983780260756" lon="11.020442383799788"><ele>98.0</ele><time>2026-04-25T13:51:36.92Z</time></trkpt><trkpt lat="44.49970560869726" lon="11.020391575788812"><ele>98.0</ele><time>2026-04-25T13:51:37.92Z</time></trkpt><trkpt lat="44.49956465816647" lon="11.020308153111506"><ele>98.0</ele><time>2026-04-25T13:51:38.92Z</time></trkpt><trkpt lat="44.499414050291136" lon="11.020216329016346"><ele>98.0</ele><time>2026-04-25T13:51:39.92Z</time></trkpt><trkpt lat="44.499265635059594" lon="11.020128842657561"><ele>98.0</ele><time>2026-04-25T13:51:40.92Z</time></trkpt><trkpt lat="44.49911532099344" lon="11.020047807022804"><ele>98.0</ele><time>2026-04-25T13:51:41.92Z</time></trkpt><trkpt lat="44.49897724656971" lon="11.01995366889694"><ele>98.0</ele><time>2026-04-25T13:51:42.92Z</time></trkpt><trkpt lat="44.49884402626233" lon="11.019885306069186"><ele>98.0</ele><time>2026-04-25T13:51:43.92Z</time></trkpt><trkpt lat="44.49870279483796" lon="11.019843314414494"><ele>98.0</ele><time>2026-04-25T13:51:44.92Z</time></trkpt><trkpt lat="44.49856647536109" lon="11.019778450558213"><ele>98.0</ele><time>2026-04-25T13:51:45.92Z</time></trkpt><trkpt lat="44.49842700348762" lon="11.019712706589392"><ele>98.33333333333333</ele><time>2026-04-25T13:51:46.92Z</time></trkpt><trkpt lat="44.49828721594102" lon="11.019639625881332"><ele>98.66666666666666</ele><time>2026-04-25T13:51:47.92Z</time></trkpt><trkpt lat="44.49815140632282" lon="11.019539071672959"><ele>99.0</ele><time>2026-04-25T13:51:48.92Z</time></trkpt><trkpt lat="44.49801096202855" lon="11.019467962168251"><ele>99.0</ele><time>2026-04-25T13:51:49.92Z</time></trkpt><trkpt lat="44.4978676265482" lon="11.019394561106813"><ele>99.0</ele><time>2026-04-25T13:51:50.92Z</time></trkpt><trkpt lat="44.49772087333647" lon="11.019329339423077"><ele>99.0</ele><time>2026-04-25T13:51:51.92Z</time></trkpt><trkpt lat="44.49758061637729" lon="11.019258573159565"><ele>99.0</ele><time>2026-04-25T13:51:52.92Z</time></trkpt><trkpt lat="44.497447739114726" lon="11.019191240685343"><ele>99.0</ele><time>2026-04-25T13:51:53.92Z</time></trkpt><trkpt lat="44.49731248976324" lon="11.019126781284966"><ele>99.0</ele><time>2026-04-25T13:51:54.92Z</time></trkpt><trkpt lat="44.497175401572356" lon="11.019054474993295"><ele>99.0</ele><time>2026-04-25T13:51:55.92Z</time></trkpt><trkpt lat="44.49703767507674" lon="11.018982524286146"><ele>99.75</ele><time>2026-04-25T13:51:56.92Z</time></trkpt><trkpt lat="44.49689871732428" lon="11.01891367878306"><ele>100.5</ele><time>2026-04-25T13:51:57.92Z</time></trkpt><trkpt lat="44.496759141707315" lon="11.018842626243657"><ele>101.25</ele><time>2026-04-25T13:51:58.92Z</time></trkpt><trkpt lat="44.49661880316802" lon="11.018772477853823"><ele>102.0</ele><time>2026-04-25T13:51:59.92Z</time></trkpt><trkpt lat="44.49648960612766" lon="11.018706012534766"><ele>102.0</ele><time>2026-04-25T13:52:00.92Z</time></trkpt><trkpt lat="44.49636435218899" lon="11.018643851603903"><ele>102.0</ele><time>2026-04-25T13:52:01.92Z</time></trkpt><trkpt lat="44.49624496067718" lon="11.018579834498007"><ele>102.0</ele><time>2026-04-25T13:52:02.92Z</time></trkpt><trkpt lat="44.49612793647361" lon="11.018524629866064"><ele>102.0</ele><time>2026-04-25T13:52:03.92Z</time></trkpt><trkpt lat="44.49601536567236" lon="11.018473722674592"><ele>102.0</ele><time>2026-04-25T13:52:04.92Z</time></trkpt><trkpt lat="44.495917903486784" lon="11.018423469990422"><ele>102.0</ele><time>2026-04-25T13:52:05.92Z</time></trkpt><trkpt lat="44.49581575969223" lon="11.018367079868835"><ele>102.0</ele><time>2026-04-25T13:52:06.92Z</time></trkpt><trkpt lat="44.49571339407869" lon="11.018313362221429"><ele>102.0</ele><time>2026-04-25T13:52:07.92Z</time></trkpt><trkpt lat="44.49561075352845" lon="11.018257871238587"><ele>102.0</ele><time>2026-04-25T13:52:08.92Z</time></trkpt><trkpt lat="44.49551079556414" lon="11.01820142280815"><ele>102.6</ele><time>2026-04-25T13:52:09.92Z</time></trkpt><trkpt lat="44.4954074881568" lon="11.018152157341348"><ele>103.19999999999999</ele><time>2026-04-25T13:52:10.92Z</time></trkpt><trkpt lat="44.495312468243" lon="11.01810373085743"><ele>103.8</ele><time>2026-04-25T13:52:11.92Z</time></trkpt><trkpt lat="44.495212765522645" lon="11.018053270117136"><ele>104.4</ele><time>2026-04-25T13:52:12.92Z</time></trkpt><trkpt lat="44.495114109049574" lon="11.018002523401238"><ele>105.0</ele><time>2026-04-25T13:52:13.92Z</time></trkpt><trkpt lat="44.495010686923884" lon="11.017957480898872"><ele>105.0</ele><time>2026-04-25T13:52:14.92Z</time></trkpt><trkpt lat="44.4949060017664" lon="11.017915549559335"><ele>105.0</ele><time>2026-04-25T13:52:15.92Z</time></trkpt><trkpt lat="44.49479838195162" lon="11.017858604457949"><ele>105.0</ele><time>2026-04-25T13:52:16.92Z</time></trkpt><trkpt lat="44.49469649998188" lon="11.017800768168614"><ele>105.0</ele><time>2026-04-25T13:52:17.919Z</time></trkpt><trkpt lat="44.49458571384166" lon="11.017743276663634"><ele>105.4</ele><time>2026-04-25T13:52:18.919Z</time></trkpt><trkpt lat="44.494473895998496" lon="11.017701028653283"><ele>105.8</ele><time>2026-04-25T13:52:19.919Z</time></trkpt><trkpt lat="44.494368984664234" lon="11.017626888807834"><ele>106.19999999999999</ele><time>2026-04-25T13:52:20.919Z</time></trkpt><trkpt lat="44.49427081510396" lon="11.017576640879643"><ele>106.6</ele><time>2026-04-25T13:52:21.919Z</time></trkpt><trkpt lat="44.4941849757381" lon="11.017533346205761"><ele>107.0</ele><time>2026-04-25T13:52:22.919Z</time></trkpt><trkpt lat="44.49410266974755" lon="11.017491972901466"><ele>106.83333333333333</ele><time>2026-04-25T13:52:23.919Z</time></trkpt><trkpt lat="44.49402160802617" lon="11.017451225048125"><ele>106.66666666666666</ele><time>2026-04-25T13:52:24.919Z</time></trkpt><trkpt lat="44.493944522319104" lon="11.017412475845958"><ele>106.5</ele><time>2026-04-25T13:52:25.919Z</time></trkpt><trkpt lat="44.49386522714442" lon="11.017372615909656"><ele>106.33333333333334</ele><time>2026-04-25T13:52:26.919Z</time></trkpt><trkpt lat="44.493777366033925" lon="11.017330296624394"><ele>106.16666666666667</ele><time>2026-04-25T13:52:27.919Z</time></trkpt><trkpt lat="44.49368617565171" lon="11.017316718970374"><ele>106.0</ele><time>2026-04-25T13:52:28.919Z</time></trkpt><trkpt lat="44.49359471465535" lon="11.017262514378633"><ele>106.4</ele><time>2026-04-25T13:52:29.919Z</time></trkpt><trkpt lat="44.493502355830195" lon="11.01722345725187"><ele>106.8</ele><time>2026-04-25T13:52:30.919Z</time></trkpt><trkpt lat="44.49341659346751" lon="11.017177720787506"><ele>107.20000000000002</ele><time>2026-04-25T13:52:31.919Z</time></trkpt><trkpt lat="44.493330560312586" lon="11.017135138043555"><ele>107.60000000000001</ele><time>2026-04-25T13:52:32.919Z</time></trkpt><trkpt lat="44.49324475249654" lon="11.017090339838296"><ele>108.0</ele><time>2026-04-25T13:52:33.919Z</time></trkpt><trkpt lat="44.49316856420489" lon="11.017027995730976"><ele>108.0</ele><time>2026-04-25T13:52:34.919Z</time></trkpt><trkpt lat="44.49309003280573" lon="11.016988096789513"><ele>108.0</ele><time>2026-04-25T13:52:35.919Z</time></trkpt><trkpt lat="44.49301231368238" lon="11.016948610543487"><ele>108.0</ele><time>2026-04-25T13:52:36.919Z</time></trkpt><trkpt lat="44.49293668677539" lon="11.016910645759358"><ele>108.0</ele><time>2026-04-25T13:52:37.919Z</time></trkpt><trkpt lat="44.49285965338345" lon="11.016873938489399"><ele>108.0</ele><time>2026-04-25T13:52:38.919Z</time></trkpt><trkpt lat="44.492783715098675" lon="11.016836552875441"><ele>108.0</ele><time>2026-04-25T13:52:39.919Z</time></trkpt><trkpt lat="44.49271012603816" lon="11.016805214560733"><ele>108.0</ele><time>2026-04-25T13:52:40.919Z</time></trkpt><trkpt lat="44.49263408063439" lon="11.01677537607513"><ele>108.0</ele><time>2026-04-25T13:52:41.919Z</time></trkpt><trkpt lat="44.49256097604534" lon="11.016714017894063"><ele>108.0</ele><time>2026-04-25T13:52:42.919Z</time></trkpt><trkpt lat="44.492475721310626" lon="11.016676009885428"><ele>108.0</ele><time>2026-04-25T13:52:43.919Z</time></trkpt><trkpt lat="44.492393034123275" lon="11.016639729167414"><ele>108.0</ele><time>2026-04-25T13:52:44.919Z</time></trkpt><trkpt lat="44.49230515137943" lon="11.016592128558981"><ele>108.0</ele><time>2026-04-25T13:52:45.919Z</time></trkpt><trkpt lat="44.492223822594696" lon="11.016545669541271"><ele>108.0</ele><time>2026-04-25T13:52:46.919Z</time></trkpt><trkpt lat="44.49214548988165" lon="11.01651175080257"><ele>108.0</ele><time>2026-04-25T13:52:47.919Z</time></trkpt><trkpt lat="44.492068653775014" lon="11.016479303990879"><ele>108.0</ele><time>2026-04-25T13:52:48.919Z</time></trkpt><trkpt lat="44.49200220212889" lon="11.01644531976718"><ele>108.0</ele><time>2026-04-25T13:52:49.919Z</time></trkpt><trkpt lat="44.49193830759602" lon="11.016416212934738"><ele>108.0</ele><time>2026-04-25T13:52:50.919Z</time></trkpt><trkpt lat="44.49187612297509" lon="11.016387740299974"><ele>108.0</ele><time>2026-04-25T13:52:51.921Z</time></trkpt><trkpt lat="44.491812484893885" lon="11.016350827202064"><ele>108.0</ele><time>2026-04-25T13:52:52.92Z</time></trkpt><trkpt lat="44.491708821940506" lon="11.016271640103293"><ele>108.25</ele><time>2026-04-25T13:52:54.92Z</time></trkpt><trkpt lat="44.49161693261245" lon="11.01617675271139"><ele>108.5</ele><time>2026-04-25T13:52:56.92Z</time></trkpt><trkpt lat="44.491548162112515" lon="11.016059853520986"><ele>108.75</ele><time>2026-04-25T13:52:58.92Z</time></trkpt><trkpt lat="44.49149240451746" lon="11.015946147285362"><ele>109.0</ele><time>2026-04-25T13:53:00.92Z</time></trkpt><trkpt lat="44.49135527201411" lon="11.015917548961134"><ele>109.0</ele><time>2026-04-25T13:53:02.919Z</time></trkpt><trkpt lat="44.49131218701694" lon="11.016002965786534"><ele>109.0</ele><time>2026-04-25T13:53:03.92Z</time></trkpt><trkpt lat="44.49118850108443" lon="11.01602676396998"><ele>109.0</ele><time>2026-04-25T13:53:05.92Z</time></trkpt><trkpt lat="44.491116328667644" lon="11.016024260591752"><ele>109.0</ele><time>2026-04-25T13:53:06.92Z</time></trkpt><trkpt lat="44.491029397920386" lon="11.015965477092045"><ele>109.0</ele><time>2026-04-25T13:53:07.92Z</time></trkpt><trkpt lat="44.49095053732253" lon="11.015912524937265"><ele>109.0</ele><time>2026-04-25T13:53:08.92Z</time></trkpt><trkpt lat="44.49084865718143" lon="11.015860824481987"><ele>109.0</ele><time>2026-04-25T13:53:09.92Z</time></trkpt><trkpt lat="44.4907255161788" lon="11.015814053810024"><ele>109.0</ele><time>2026-04-25T13:53:10.92Z</time></trkpt><trkpt lat="44.49059619540803" lon="11.015737308217398"><ele>109.0</ele><time>2026-04-25T13:53:11.92Z</time></trkpt><trkpt lat="44.49045338280031" lon="11.015666521482862"><ele>110.0</ele><time>2026-04-25T13:53:12.92Z</time></trkpt><trkpt lat="44.49032117606248" lon="11.01559329502322"><ele>111.0</ele><time>2026-04-25T13:53:13.92Z</time></trkpt><trkpt lat="44.49018773338765" lon="11.015511374886827"><ele>112.0</ele><time>2026-04-25T13:53:14.92Z</time></trkpt><trkpt lat="44.490049465993806" lon="11.015419244232996"><ele>113.0</ele><time>2026-04-25T13:53:15.92Z</time></trkpt><trkpt lat="44.489907364848925" lon="11.015314798215524"><ele>113.0</ele><time>2026-04-25T13:53:16.92Z</time></trkpt><trkpt lat="44.48976259078394" lon="11.01520480648866"><ele>113.0</ele><time>2026-04-25T13:53:17.92Z</time></trkpt><trkpt lat="44.48960797769148" lon="11.015105853920243"><ele>113.0</ele><time>2026-04-25T13:53:18.92Z</time></trkpt><trkpt lat="44.48944512815218" lon="11.015010501811723"><ele>113.0</ele><time>2026-04-25T13:53:19.92Z</time></trkpt><trkpt lat="44.48928733108408" lon="11.014908262254016"><ele>113.0</ele><time>2026-04-25T13:53:20.92Z</time></trkpt><trkpt lat="44.489122727761675" lon="11.014798302479447"><ele>113.0</ele><time>2026-04-25T13:53:21.92Z</time></trkpt><trkpt lat="44.488954281858966" lon="11.014683192541781"><ele>113.0</ele><time>2026-04-25T13:53:22.92Z</time></trkpt><trkpt lat="44.48878449929136" lon="11.014573676567874"><ele>113.0</ele><time>2026-04-25T13:53:23.92Z</time></trkpt><trkpt lat="44.48861823900712" lon="11.014466255574442"><ele>113.0</ele><time>2026-04-25T13:53:24.92Z</time></trkpt><trkpt lat="44.48845714681557" lon="11.014352932306132"><ele>113.33333333333333</ele><time>2026-04-25T13:53:25.92Z</time></trkpt><trkpt lat="44.48830201360729" lon="11.014246552054406"><ele>113.66666666666666</ele><time>2026-04-25T13:53:26.92Z</time></trkpt><trkpt lat="44.488156014376386" lon="11.014154266578341"><ele>114.0</ele><time>2026-04-25T13:53:27.92Z</time></trkpt><trkpt lat="44.48802319751252" lon="11.014058978392338"><ele>114.0</ele><time>2026-04-25T13:53:28.92Z</time></trkpt><trkpt lat="44.48789705773" lon="11.013977442512981"><ele>114.0</ele><time>2026-04-25T13:53:29.92Z</time></trkpt><trkpt lat="44.487802112515" lon="11.013925738328098"><ele>114.0</ele><time>2026-04-25T13:53:30.92Z</time></trkpt><trkpt lat="44.48773428022925" lon="11.013874297421694"><ele>114.0</ele><time>2026-04-25T13:53:31.92Z</time></trkpt><trkpt lat="44.487633719744046" lon="11.013795391300196"><ele>114.0</ele><time>2026-04-25T13:53:33.92Z</time></trkpt><trkpt lat="44.48756075479622" lon="11.013698446016654"><ele>114.0</ele><time>2026-04-25T13:53:35.92Z</time></trkpt><trkpt lat="44.48748801898084" lon="11.013760079757295"><ele>114.0</ele><time>2026-04-25T13:53:36.92Z</time></trkpt><trkpt lat="44.487351782098656" lon="11.013745587516562"><ele>114.0</ele><time>2026-04-25T13:53:38.92Z</time></trkpt><trkpt lat="44.48727231260347" lon="11.013708086474312"><ele>114.0</ele><time>2026-04-25T13:53:39.92Z</time></trkpt><trkpt lat="44.487191286954506" lon="11.013665540190313"><ele>114.0</ele><time>2026-04-25T13:53:40.92Z</time></trkpt><trkpt lat="44.487101581539" lon="11.013623295610573"><ele>114.4</ele><time>2026-04-25T13:53:41.92Z</time></trkpt><trkpt lat="44.48700899547073" lon="11.013590916075495"><ele>114.80000000000001</ele><time>2026-04-25T13:53:42.92Z</time></trkpt><trkpt lat="44.48690612114386" lon="11.01355018309356"><ele>115.19999999999999</ele><time>2026-04-25T13:53:43.92Z</time></trkpt><trkpt lat="44.48680645735431" lon="11.013511908969662"><ele>115.6</ele><time>2026-04-25T13:53:44.92Z</time></trkpt><trkpt lat="44.48671284655325" lon="11.013471499511367"><ele>116.0</ele><time>2026-04-25T13:53:45.92Z</time></trkpt><trkpt lat="44.48661996342766" lon="11.013438649656816"><ele>115.99999999999999</ele><time>2026-04-25T13:53:46.92Z</time></trkpt><trkpt lat="44.486540772508775" lon="11.013409624147863"><ele>116.0</ele><time>2026-04-25T13:53:47.92Z</time></trkpt><trkpt lat="44.48645863608188" lon="11.013376502063197"><ele>116.0</ele><time>2026-04-25T13:53:48.92Z</time></trkpt><trkpt lat="44.48637436001771" lon="11.013339233090951"><ele>116.0</ele><time>2026-04-25T13:53:49.92Z</time></trkpt><trkpt lat="44.486289860918234" lon="11.013303191940208"><ele>115.99999999999999</ele><time>2026-04-25T13:53:50.92Z</time></trkpt><trkpt lat="44.48620640819076" lon="11.013261901585771"><ele>116.0</ele><time>2026-04-25T13:53:51.92Z</time></trkpt><trkpt lat="44.48612237142999" lon="11.013215985720205"><ele>116.16666666666666</ele><time>2026-04-25T13:53:52.92Z</time></trkpt><trkpt lat="44.48603932188877" lon="11.013176020196337"><ele>116.33333333333333</ele><time>2026-04-25T13:53:53.92Z</time></trkpt><trkpt lat="44.48595596226963" lon="11.013129413219515"><ele>116.5</ele><time>2026-04-25T13:53:54.92Z</time></trkpt><trkpt lat="44.48587386682752" lon="11.013096675212449"><ele>116.66666666666666</ele><time>2026-04-25T13:53:55.92Z</time></trkpt><trkpt lat="44.485797015004955" lon="11.01303908820912"><ele>116.83333333333333</ele><time>2026-04-25T13:53:56.92Z</time></trkpt><trkpt lat="44.485717745881416" lon="11.012998200685514"><ele>117.0</ele><time>2026-04-25T13:53:57.92Z</time></trkpt><trkpt lat="44.4856369626252" lon="11.012959137406316"><ele>117.0</ele><time>2026-04-25T13:53:58.92Z</time></trkpt><trkpt lat="44.48555336981477" lon="11.012919486492683"><ele>117.0</ele><time>2026-04-25T13:53:59.92Z</time></trkpt><trkpt lat="44.485470373615364" lon="11.012878232150603"><ele>117.0</ele><time>2026-04-25T13:54:00.92Z</time></trkpt><trkpt lat="44.485390831726285" lon="11.012835166621446"><ele>117.0</ele><time>2026-04-25T13:54:01.92Z</time></trkpt><trkpt lat="44.485309649987045" lon="11.01278982402517"><ele>117.0</ele><time>2026-04-25T13:54:02.92Z</time></trkpt><trkpt lat="44.48522313835854" lon="11.01274720666374"><ele>117.0</ele><time>2026-04-25T13:54:03.92Z</time></trkpt><trkpt lat="44.48513243633574" lon="11.012699278385764"><ele>117.0</ele><time>2026-04-25T13:54:04.92Z</time></trkpt><trkpt lat="44.48503913268284" lon="11.01265083772235"><ele>116.99999999999999</ele><time>2026-04-25T13:54:05.92Z</time></trkpt><trkpt lat="44.48494788981546" lon="11.012606573099191"><ele>116.99999999999999</ele><time>2026-04-25T13:54:06.92Z</time></trkpt><trkpt lat="44.484860086075585" lon="11.01254432111298"><ele>117.0</ele><time>2026-04-25T13:54:07.92Z</time></trkpt><trkpt lat="44.484770330947285" lon="11.012495576003124"><ele>117.0</ele><time>2026-04-25T13:54:08.92Z</time></trkpt><trkpt lat="44.484672213194784" lon="11.012442289263694"><ele>117.0</ele><time>2026-04-25T13:54:09.92Z</time></trkpt><trkpt lat="44.484574860301805" lon="11.012389417405947"><ele>116.99999999999999</ele><time>2026-04-25T13:54:10.92Z</time></trkpt><trkpt lat="44.48446875682327" lon="11.012351643367698"><ele>116.99999999999999</ele><time>2026-04-25T13:54:11.92Z</time></trkpt><trkpt lat="44.48436745864401" lon="11.012299354826173"><ele>117.0</ele><time>2026-04-25T13:54:12.92Z</time></trkpt><trkpt lat="44.48426013156457" lon="11.012247983405175"><ele>117.0</ele><time>2026-04-25T13:54:13.92Z</time></trkpt><trkpt lat="44.484161628338576" lon="11.012167456665528"><ele>117.0</ele><time>2026-04-25T13:54:14.92Z</time></trkpt><trkpt lat="44.48406026051024" lon="11.012116440981368"><ele>117.0</ele><time>2026-04-25T13:54:15.919Z</time></trkpt><trkpt lat="44.483957181079504" lon="11.012070986583975"><ele>117.0</ele><time>2026-04-25T13:54:16.919Z</time></trkpt><trkpt lat="44.48384862807966" lon="11.012015082356998"><ele>117.0</ele><time>2026-04-25T13:54:17.919Z</time></trkpt><trkpt lat="44.48372566013898" lon="11.011949404473489"><ele>117.39999999999999</ele><time>2026-04-25T13:54:18.919Z</time></trkpt><trkpt lat="44.48361485217921" lon="11.01188776904417"><ele>117.79999999999998</ele><time>2026-04-25T13:54:19.919Z</time></trkpt><trkpt lat="44.48353614965944" lon="11.011839988641274"><ele>118.2</ele><time>2026-04-25T13:54:20.919Z</time></trkpt><trkpt lat="44.48347154306072" lon="11.01180435632593"><ele>118.6</ele><time>2026-04-25T13:54:21.919Z</time></trkpt><trkpt lat="44.48338348809378" lon="11.011753262019832"><ele>119.0</ele><time>2026-04-25T13:54:23.919Z</time></trkpt><trkpt lat="44.48329587274007" lon="11.011701647336876"><ele>119.0</ele><time>2026-04-25T13:54:45.919Z</time></trkpt><trkpt lat="44.48316843423511" lon="11.011635979714045"><ele>119.0</ele><time>2026-04-25T13:54:47.919Z</time></trkpt><trkpt lat="44.483086436832" lon="11.01158948636149"><ele>119.0</ele><time>2026-04-25T13:54:48.919Z</time></trkpt><trkpt lat="44.48299547762589" lon="11.01152570431714"><ele>119.0</ele><time>2026-04-25T13:54:49.919Z</time></trkpt><trkpt lat="44.482897748527385" lon="11.011460598961405"><ele>119.0</ele><time>2026-04-25T13:54:50.919Z</time></trkpt><trkpt lat="44.48278868258906" lon="11.011388944693122"><ele>119.75</ele><time>2026-04-25T13:54:51.919Z</time></trkpt><trkpt lat="44.48267202304158" lon="11.011307115468982"><ele>120.5</ele><time>2026-04-25T13:54:52.919Z</time></trkpt><trkpt lat="44.48254957734968" lon="11.011224612267661"><ele>121.25</ele><time>2026-04-25T13:54:53.919Z</time></trkpt><trkpt lat="44.48242499790021" lon="11.011140328518666"><ele>122.0</ele><time>2026-04-25T13:54:54.919Z</time></trkpt><trkpt lat="44.48229768479342" lon="11.011045483405951"><ele>122.0</ele><time>2026-04-25T13:54:55.919Z</time></trkpt><trkpt lat="44.48216539446959" lon="11.010956060770049"><ele>122.0</ele><time>2026-04-25T13:54:56.919Z</time></trkpt><trkpt lat="44.482025669814064" lon="11.01085683491889"><ele>122.0</ele><time>2026-04-25T13:54:57.919Z</time></trkpt><trkpt lat="44.481885643192264" lon="11.010768185981199"><ele>122.33333333333333</ele><time>2026-04-25T13:54:58.919Z</time></trkpt><trkpt lat="44.481737942928696" lon="11.010682893464677"><ele>122.66666666666666</ele><time>2026-04-25T13:54:59.919Z</time></trkpt><trkpt lat="44.481598227307174" lon="11.010581444714648"><ele>123.0</ele><time>2026-04-25T13:55:00.919Z</time></trkpt><trkpt lat="44.48147054180779" lon="11.010489336464788"><ele>123.0</ele><time>2026-04-25T13:55:01.919Z</time></trkpt><trkpt lat="44.4813435008668" lon="11.010410936398975"><ele>123.0</ele><time>2026-04-25T13:55:02.919Z</time></trkpt><trkpt lat="44.48123163555995" lon="11.0103379155509"><ele>123.0</ele><time>2026-04-25T13:55:03.919Z</time></trkpt><trkpt lat="44.48113317825883" lon="11.010266506780667"><ele>123.0</ele><time>2026-04-25T13:55:04.919Z</time></trkpt><trkpt lat="44.481034830709916" lon="11.01019556883062"><ele>123.0</ele><time>2026-04-25T13:55:05.919Z</time></trkpt><trkpt lat="44.48094223658372" lon="11.010127835134949"><ele>123.00000000000001</ele><time>2026-04-25T13:55:06.919Z</time></trkpt><trkpt lat="44.48085584304408" lon="11.010066719197422"><ele>123.00000000000001</ele><time>2026-04-25T13:55:07.919Z</time></trkpt><trkpt lat="44.480777034330615" lon="11.010010143591831"><ele>123.0</ele><time>2026-04-25T13:55:08.919Z</time></trkpt><trkpt lat="44.480701030735204" lon="11.009956147204932"><ele>123.0</ele><time>2026-04-25T13:55:09.919Z</time></trkpt><trkpt lat="44.48063482666265" lon="11.009901539733002"><ele>123.0</ele><time>2026-04-25T13:55:10.919Z</time></trkpt><trkpt lat="44.48057194339464" lon="11.009857780597828"><ele>123.00000000000001</ele><time>2026-04-25T13:55:11.919Z</time></trkpt><trkpt lat="44.48047016771228" lon="11.009789872009549"><ele>123.00000000000001</ele><time>2026-04-25T13:55:13.919Z</time></trkpt><trkpt lat="44.48040483873928" lon="11.00971706551167"><ele>123.0</ele><time>2026-04-25T13:55:15.919Z</time></trkpt><trkpt lat="44.480324288092135" lon="11.009631742909743"><ele>123.0</ele><time>2026-04-25T13:55:33.919Z</time></trkpt><trkpt lat="44.480210146016354" lon="11.00955518988949"><ele>123.4</ele><time>2026-04-25T13:55:35.919Z</time></trkpt><trkpt lat="44.48012922137092" lon="11.009500194567034"><ele>123.80000000000001</ele><time>2026-04-25T13:55:36.919Z</time></trkpt><trkpt lat="44.48002737258858" lon="11.009430033160012"><ele>124.2</ele><time>2026-04-25T13:55:37.918Z</time></trkpt><trkpt lat="44.47992393900958" lon="11.009374334043503"><ele>124.6</ele><time>2026-04-25T13:55:38.918Z</time></trkpt><trkpt lat="44.47982077461426" lon="11.009311425628582"><ele>125.0</ele><time>2026-04-25T13:55:39.918Z</time></trkpt><trkpt lat="44.47971291275001" lon="11.009233854937966"><ele>125.0</ele><time>2026-04-25T13:55:40.918Z</time></trkpt><trkpt lat="44.47960274940636" lon="11.009154398079614"><ele>125.0</ele><time>2026-04-25T13:55:41.918Z</time></trkpt><trkpt lat="44.47949187006018" lon="11.009084256679241"><ele>125.0</ele><time>2026-04-25T13:55:42.918Z</time></trkpt><trkpt lat="44.47938024331462" lon="11.009008421476764"><ele>125.0</ele><time>2026-04-25T13:55:43.918Z</time></trkpt><trkpt lat="44.47928474545281" lon="11.008938910265973"><ele>125.0</ele><time>2026-04-25T13:55:44.918Z</time></trkpt><trkpt lat="44.479204692095834" lon="11.00889606883798"><ele>125.0</ele><time>2026-04-25T13:55:45.918Z</time></trkpt><trkpt lat="44.47913313415448" lon="11.008823514692473"><ele>125.0</ele><time>2026-04-25T13:55:47.918Z</time></trkpt><trkpt lat="44.47904133842681" lon="11.009074468630965"><ele>125.0</ele><time>2026-04-25T13:55:50.918Z</time></trkpt><trkpt lat="44.47900335964241" lon="11.009179189232462"><ele>125.0</ele><time>2026-04-25T13:55:51.918Z</time></trkpt><trkpt lat="44.478958572897874" lon="11.00930268155407"><ele>125.0</ele><time>2026-04-25T13:55:52.918Z</time></trkpt><trkpt lat="44.47890143009662" lon="11.009430448681428"><ele>125.0</ele><time>2026-04-25T13:55:53.918Z</time></trkpt><trkpt lat="44.478857866606575" lon="11.009548096992598"><ele>125.0</ele><time>2026-04-25T13:55:54.918Z</time></trkpt><trkpt lat="44.47882110608338" lon="11.00966086873096"><ele>125.0</ele><time>2026-04-25T13:55:55.918Z</time></trkpt><trkpt lat="44.47879392871238" lon="11.00975163824961"><ele>125.16666666666666</ele><time>2026-04-25T13:55:56.918Z</time></trkpt><trkpt lat="44.478765954246995" lon="11.009846704011155"><ele>125.33333333333333</ele><time>2026-04-25T13:55:58.918Z</time></trkpt><trkpt lat="44.47874464803552" lon="11.00994570918936"><ele>125.5</ele><time>2026-04-25T13:56:00.918Z</time></trkpt><trkpt lat="44.47869407774618" lon="11.010109104336022"><ele>125.66666666666666</ele><time>2026-04-25T13:56:02.918Z</time></trkpt><trkpt lat="44.478667109472255" lon="11.010216708075383"><ele>125.83333333333333</ele><time>2026-04-25T13:56:03.918Z</time></trkpt><trkpt lat="44.47861980536405" lon="11.010325717657924"><ele>126.0</ele><time>2026-04-25T13:56:04.918Z</time></trkpt><trkpt lat="44.47857990241693" lon="11.010396569923738"><ele>126.4</ele><time>2026-04-25T13:56:05.918Z</time></trkpt><trkpt lat="44.478520023585766" lon="11.010496285620748"><ele>126.8</ele><time>2026-04-25T13:56:08.918Z</time></trkpt><trkpt lat="44.47839377495171" lon="11.01042103979513"><ele>127.20000000000002</ele><time>2026-04-25T13:56:09.918Z</time></trkpt><trkpt lat="44.47834063022155" lon="11.010373357230012"><ele>127.60000000000001</ele><time>2026-04-25T13:56:10.918Z</time></trkpt><trkpt lat="44.47823606135342" lon="11.010356579228333"><ele>128.0</ele><time>2026-04-25T13:56:12.918Z</time></trkpt><trkpt lat="44.47817078953701" lon="11.010376758011676"><ele>127.99999999999999</ele><time>2026-04-25T13:56:14.918Z</time></trkpt><trkpt lat="44.47811318847214" lon="11.010429963073715"><ele>128.0</ele><time>2026-04-25T13:56:16.918Z</time></trkpt><trkpt lat="44.47806410962962" lon="11.010529435257702"><ele>128.0</ele><time>2026-04-25T13:56:18.918Z</time></trkpt><trkpt lat="44.478039105927046" lon="11.01061264789181"><ele>128.0</ele><time>2026-04-25T13:56:20.918Z</time></trkpt><trkpt lat="44.47799867505904" lon="11.010738497593426"><ele>127.99999999999999</ele><time>2026-04-25T13:56:22.918Z</time></trkpt><trkpt lat="44.477939367283746" lon="11.010893076814009"><ele>128.0</ele><time>2026-04-25T13:56:24.918Z</time></trkpt><trkpt lat="44.47782201300825" lon="11.010947160517622"><ele>128.20000000000002</ele><time>2026-04-25T13:56:26.918Z</time></trkpt><trkpt lat="44.477717926982265" lon="11.010961231937898"><ele>128.4</ele><time>2026-04-25T13:56:27.918Z</time></trkpt><trkpt lat="44.47761173851343" lon="11.010936012943763"><ele>128.60000000000002</ele><time>2026-04-25T13:56:28.918Z</time></trkpt><trkpt lat="44.47750561959942" lon="11.010908885176917"><ele>128.8</ele><time>2026-04-25T13:56:29.918Z</time></trkpt><trkpt lat="44.47741299129115" lon="11.010863103283791"><ele>129.0</ele><time>2026-04-25T13:56:30.918Z</time></trkpt><trkpt lat="44.477296352473736" lon="11.010830743340689"><ele>128.75</ele><time>2026-04-25T13:56:31.918Z</time></trkpt><trkpt lat="44.477164592861364" lon="11.010804176778553"><ele>128.5</ele><time>2026-04-25T13:56:32.918Z</time></trkpt><trkpt lat="44.47700225007624" lon="11.01078691679047"><ele>128.25</ele><time>2026-04-25T13:56:33.918Z</time></trkpt><trkpt lat="44.47685547505901" lon="11.01075615233446"><ele>128.0</ele><time>2026-04-25T13:56:34.918Z</time></trkpt><trkpt lat="44.47671888456281" lon="11.010720486342459"><ele>128.0</ele><time>2026-04-25T13:56:35.918Z</time></trkpt><trkpt lat="44.47658950682604" lon="11.010691514824952"><ele>128.0</ele><time>2026-04-25T13:56:36.918Z</time></trkpt><trkpt lat="44.47644787245137" lon="11.010661128697373"><ele>128.0</ele><time>2026-04-25T13:56:37.918Z</time></trkpt><trkpt lat="44.476309713230826" lon="11.010632915031222"><ele>128.0</ele><time>2026-04-25T13:56:38.918Z</time></trkpt><trkpt lat="44.47617511749302" lon="11.010596207113428"><ele>125.0</ele><time>2026-04-25T13:56:39.918Z</time></trkpt><trkpt lat="44.476043992090254" lon="11.010562173150044"><ele>122.0</ele><time>2026-04-25T13:56:40.918Z</time></trkpt><trkpt lat="44.47590754539186" lon="11.010534423346863"><ele>119.0</ele><time>2026-04-25T13:56:41.918Z</time></trkpt><trkpt lat="44.47576636235535" lon="11.010498641925153"><ele>116.0</ele><time>2026-04-25T13:56:42.918Z</time></trkpt><trkpt lat="44.47562440907071" lon="11.010459809787234"><ele>116.0</ele><time>2026-04-25T13:56:43.918Z</time></trkpt><trkpt lat="44.47547962606509" lon="11.010424977124137"><ele>116.0</ele><time>2026-04-25T13:56:44.918Z</time></trkpt><trkpt lat="44.47533434246574" lon="11.01039921559751"><ele>116.0</ele><time>2026-04-25T13:56:45.918Z</time></trkpt><trkpt lat="44.47518535580535" lon="11.010365377832644"><ele>116.0</ele><time>2026-04-25T13:56:46.918Z</time></trkpt><trkpt lat="44.47503797441775" lon="11.010322930589247"><ele>115.5</ele><time>2026-04-25T13:56:47.918Z</time></trkpt><trkpt lat="44.4748972673761" lon="11.01028428785958"><ele>115.0</ele><time>2026-04-25T13:56:48.918Z</time></trkpt><trkpt lat="44.47476058360562" lon="11.010250863261735"><ele>114.5</ele><time>2026-04-25T13:56:49.918Z</time></trkpt><trkpt lat="44.47462774757932" lon="11.010217190379498"><ele>114.0</ele><time>2026-04-25T13:56:50.918Z</time></trkpt><trkpt lat="44.4744966266395" lon="11.010188052613731"><ele>114.0</ele><time>2026-04-25T13:56:51.918Z</time></trkpt><trkpt lat="44.47436573436191" lon="11.010162351909985"><ele>114.0</ele><time>2026-04-25T13:56:52.918Z</time></trkpt><trkpt lat="44.474228766990585" lon="11.010129491327941"><ele>114.0</ele><time>2026-04-25T13:56:53.918Z</time></trkpt><trkpt lat="44.47408690723425" lon="11.01009499293497"><ele>114.0</ele><time>2026-04-25T13:56:54.918Z</time></trkpt><trkpt lat="44.47394133889083" lon="11.010063607067979"><ele>114.0</ele><time>2026-04-25T13:56:55.918Z</time></trkpt><trkpt lat="44.47378898613933" lon="11.010033584271614"><ele>114.0</ele><time>2026-04-25T13:56:56.917Z</time></trkpt><trkpt lat="44.473630721103646" lon="11.009997308376315"><ele>114.0</ele><time>2026-04-25T13:56:57.917Z</time></trkpt><trkpt lat="44.4734749707151" lon="11.00996448047998"><ele>113.5</ele><time>2026-04-25T13:56:58.917Z</time></trkpt><trkpt lat="44.47332396143771" lon="11.009927900456526"><ele>113.0</ele><time>2026-04-25T13:56:59.917Z</time></trkpt><trkpt lat="44.473180306714006" lon="11.009886781768339"><ele>112.5</ele><time>2026-04-25T13:57:00.917Z</time></trkpt><trkpt lat="44.47303760280929" lon="11.009847108708756"><ele>112.0</ele><time>2026-04-25T13:57:01.917Z</time></trkpt><trkpt lat="44.47288986890765" lon="11.009820163539382"><ele>112.0</ele><time>2026-04-25T13:57:02.917Z</time></trkpt><trkpt lat="44.47274168608065" lon="11.009791609558864"><ele>112.0</ele><time>2026-04-25T13:57:03.918Z</time></trkpt><trkpt lat="44.47259432342665" lon="11.009763413621682"><ele>112.0</ele><time>2026-04-25T13:57:04.917Z</time></trkpt><trkpt lat="44.47245077932949" lon="11.009730961953984"><ele>112.0</ele><time>2026-04-25T13:57:05.917Z</time></trkpt><trkpt lat="44.47230793284014" lon="11.009701455880323"><ele>112.0</ele><time>2026-04-25T13:57:06.918Z</time></trkpt><trkpt lat="44.47216925170648" lon="11.00964153293062"><ele>112.0</ele><time>2026-04-25T13:57:07.918Z</time></trkpt><trkpt lat="44.47202580632962" lon="11.009606960263252"><ele>112.0</ele><time>2026-04-25T13:57:08.918Z</time></trkpt><trkpt lat="44.47187878535692" lon="11.009571560720765"><ele>112.0</ele><time>2026-04-25T13:57:09.918Z</time></trkpt><trkpt lat="44.471734694289005" lon="11.009536730218695"><ele>112.0</ele><time>2026-04-25T13:57:10.918Z</time></trkpt><trkpt lat="44.47159082420994" lon="11.009499902219604"><ele>112.0</ele><time>2026-04-25T13:57:11.918Z</time></trkpt><trkpt lat="44.47144916579492" lon="11.009466057162673"><ele>112.0</ele><time>2026-04-25T13:57:12.918Z</time></trkpt><trkpt lat="44.47130257767742" lon="11.009453849868342"><ele>112.0</ele><time>2026-04-25T13:57:13.918Z</time></trkpt><trkpt lat="44.47115633824625" lon="11.009463536786548"><ele>112.33333333333334</ele><time>2026-04-25T13:57:14.918Z</time></trkpt><trkpt lat="44.47100928309695" lon="11.009485540956753"><ele>112.66666666666666</ele><time>2026-04-25T13:57:15.918Z</time></trkpt><trkpt lat="44.47084645062685" lon="11.009546825216821"><ele>113.0</ele><time>2026-04-25T13:57:16.917Z</time></trkpt><trkpt lat="44.47069751416609" lon="11.009648967661468"><ele>113.0</ele><time>2026-04-25T13:57:17.917Z</time></trkpt><trkpt lat="44.47055246275638" lon="11.009760530813331"><ele>113.0</ele><time>2026-04-25T13:57:18.917Z</time></trkpt><trkpt lat="44.4704171030165" lon="11.009891195401353"><ele>113.0</ele><time>2026-04-25T13:57:19.917Z</time></trkpt><trkpt lat="44.47026478760224" lon="11.00998003469076"><ele>113.25</ele><time>2026-04-25T13:57:20.917Z</time></trkpt><trkpt lat="44.47013362681652" lon="11.010088258552697"><ele>113.5</ele><time>2026-04-25T13:57:21.917Z</time></trkpt><trkpt lat="44.47000535326825" lon="11.010190476153568"><ele>113.75</ele><time>2026-04-25T13:57:22.917Z</time></trkpt><trkpt lat="44.46987910150076" lon="11.010293607782973"><ele>114.0</ele><time>2026-04-25T13:57:23.917Z</time></trkpt><trkpt lat="44.46975754450446" lon="11.010393248962558"><ele>114.0</ele><time>2026-04-25T13:57:24.917Z</time></trkpt><trkpt lat="44.46963662361872" lon="11.01048865398475"><ele>114.0</ele><time>2026-04-25T13:57:25.917Z</time></trkpt><trkpt lat="44.46952063289441" lon="11.010580628781188"><ele>114.0</ele><time>2026-04-25T13:57:26.917Z</time></trkpt><trkpt lat="44.46941112730647" lon="11.010667651160182"><ele>114.0</ele><time>2026-04-25T13:57:27.917Z</time></trkpt><trkpt lat="44.46930851625353" lon="11.010750342807485"><ele>113.80000000000001</ele><time>2026-04-25T13:57:28.917Z</time></trkpt><trkpt lat="44.46920759553898" lon="11.01083004121159"><ele>113.60000000000001</ele><time>2026-04-25T13:57:29.917Z</time></trkpt><trkpt lat="44.46911293150654" lon="11.010909832131851"><ele>113.4</ele><time>2026-04-25T13:57:30.917Z</time></trkpt><trkpt lat="44.469025303299496" lon="11.010990962756662"><ele>113.2</ele><time>2026-04-25T13:57:31.917Z</time></trkpt><trkpt lat="44.46894220489043" lon="11.011067704861338"><ele>113.0</ele><time>2026-04-25T13:57:32.917Z</time></trkpt><trkpt lat="44.4688540431294" lon="11.011144156143217"><ele>112.5</ele><time>2026-04-25T13:57:33.917Z</time></trkpt><trkpt lat="44.46876187358962" lon="11.011230557374468"><ele>112.0</ele><time>2026-04-25T13:57:34.917Z</time></trkpt><trkpt lat="44.46866643525247" lon="11.011322177791405"><ele>111.5</ele><time>2026-04-25T13:57:35.917Z</time></trkpt><trkpt lat="44.46856666295511" lon="11.011409611760538"><ele>111.0</ele><time>2026-04-25T13:57:36.917Z</time></trkpt><trkpt lat="44.46846726089443" lon="11.011506229210898"><ele>111.0</ele><time>2026-04-25T13:57:37.917Z</time></trkpt><trkpt lat="44.46837150129726" lon="11.01160925501228"><ele>111.0</ele><time>2026-04-25T13:57:38.917Z</time></trkpt><trkpt lat="44.46826865288869" lon="11.01171100983608"><ele>111.0</ele><time>2026-04-25T13:57:39.917Z</time></trkpt><trkpt lat="44.46816204318884" lon="11.011810726290857"><ele>111.0</ele><time>2026-04-25T13:57:40.917Z</time></trkpt><trkpt lat="44.46805684211141" lon="11.01191316742116"><ele>111.0</ele><time>2026-04-25T13:57:41.917Z</time></trkpt><trkpt lat="44.46794715862131" lon="11.012011647201614"><ele>111.0</ele><time>2026-04-25T13:57:42.917Z</time></trkpt><trkpt lat="44.46783238497182" lon="11.012105881695659"><ele>111.0</ele><time>2026-04-25T13:57:43.917Z</time></trkpt><trkpt lat="44.46772979221745" lon="11.012196047773418"><ele>111.0</ele><time>2026-04-25T13:57:44.917Z</time></trkpt><trkpt lat="44.46762848786095" lon="11.012273270442444"><ele>111.4</ele><time>2026-04-25T13:57:45.917Z</time></trkpt><trkpt lat="44.46755397543922" lon="11.012385830610256"><ele>111.8</ele><time>2026-04-25T13:57:46.917Z</time></trkpt><trkpt lat="44.46747202090276" lon="11.012461430914104"><ele>112.20000000000002</ele><time>2026-04-25T13:57:47.917Z</time></trkpt><trkpt lat="44.4673920270884" lon="11.012527651088542"><ele>112.60000000000001</ele><time>2026-04-25T13:57:48.917Z</time></trkpt><trkpt lat="44.46731516792564" lon="11.012599961896393"><ele>113.0</ele><time>2026-04-25T13:57:49.917Z</time></trkpt><trkpt lat="44.46723553675083" lon="11.012671388181609"><ele>113.2</ele><time>2026-04-25T13:57:50.917Z</time></trkpt><trkpt lat="44.467156998238906" lon="11.012743571997794"><ele>113.4</ele><time>2026-04-25T13:57:51.917Z</time></trkpt><trkpt lat="44.46707882562994" lon="11.012811249442002"><ele>113.60000000000001</ele><time>2026-04-25T13:57:52.917Z</time></trkpt><trkpt lat="44.467000797797766" lon="11.012881427060526"><ele>113.80000000000001</ele><time>2026-04-25T13:57:53.917Z</time></trkpt><trkpt lat="44.46692643595562" lon="11.012959113003925"><ele>114.0</ele><time>2026-04-25T13:57:54.917Z</time></trkpt><trkpt lat="44.466842041917694" lon="11.01303818362622"><ele>114.2</ele><time>2026-04-25T13:57:55.917Z</time></trkpt><trkpt lat="44.46675483560651" lon="11.013122546501435"><ele>114.4</ele><time>2026-04-25T13:57:56.917Z</time></trkpt><trkpt lat="44.46666585696759" lon="11.01320831430284"><ele>114.6</ele><time>2026-04-25T13:57:57.917Z</time></trkpt><trkpt lat="44.466576675508506" lon="11.01329076992237"><ele>114.8</ele><time>2026-04-25T13:57:58.917Z</time></trkpt><trkpt lat="44.46649073520028" lon="11.013374528229166"><ele>115.0</ele><time>2026-04-25T13:57:59.916Z</time></trkpt><trkpt lat="44.46640233150134" lon="11.013454898252812"><ele>115.0</ele><time>2026-04-25T13:58:00.916Z</time></trkpt><trkpt lat="44.466317264824625" lon="11.01353322680953"><ele>115.0</ele><time>2026-04-25T13:58:01.916Z</time></trkpt><trkpt lat="44.46623112364216" lon="11.01361120414133"><ele>115.0</ele><time>2026-04-25T13:58:02.916Z</time></trkpt><trkpt lat="44.46614450005223" lon="11.01369228418171"><ele>115.0</ele><time>2026-04-25T13:58:03.916Z</time></trkpt><trkpt lat="44.466051563428614" lon="11.013763717016866"><ele>115.0</ele><time>2026-04-25T13:58:04.916Z</time></trkpt><trkpt lat="44.46595581862773" lon="11.01382074394943"><ele>115.0</ele><time>2026-04-25T13:58:05.916Z</time></trkpt><trkpt lat="44.46585762837634" lon="11.013858840991054"><ele>115.0</ele><time>2026-04-25T13:58:06.916Z</time></trkpt><trkpt lat="44.465764951383875" lon="11.013866814336803"><ele>115.0</ele><time>2026-04-25T13:58:07.916Z</time></trkpt><trkpt lat="44.46566740497544" lon="11.013842846997894"><ele>115.0</ele><time>2026-04-25T13:58:08.916Z</time></trkpt><trkpt lat="44.4655562381723" lon="11.013837613690956"><ele>115.0</ele><time>2026-04-25T13:58:09.916Z</time></trkpt><trkpt lat="44.46544309508204" lon="11.013750317883407"><ele>116.5</ele><time>2026-04-25T13:58:10.916Z</time></trkpt><trkpt lat="44.465328361702554" lon="11.01367808535484"><ele>118.0</ele><time>2026-04-25T13:58:11.916Z</time></trkpt><trkpt lat="44.465206411095956" lon="11.013597236059438"><ele>119.5</ele><time>2026-04-25T13:58:12.916Z</time></trkpt><trkpt lat="44.46508442501778" lon="11.013519639555872"><ele>121.0</ele><time>2026-04-25T13:58:13.916Z</time></trkpt><trkpt lat="44.46495925964764" lon="11.013441948862816"><ele>121.0</ele><time>2026-04-25T13:58:14.916Z</time></trkpt><trkpt lat="44.46483322322765" lon="11.013365613106195"><ele>121.0</ele><time>2026-04-25T13:58:15.916Z</time></trkpt><trkpt lat="44.46471499404081" lon="11.013287370052689"><ele>121.0</ele><time>2026-04-25T13:58:16.916Z</time></trkpt><trkpt lat="44.464604959031554" lon="11.013215265677438"><ele>121.0</ele><time>2026-04-25T13:58:17.916Z</time></trkpt><trkpt lat="44.46449292984386" lon="11.013149764920572"><ele>121.5</ele><time>2026-04-25T13:58:18.916Z</time></trkpt><trkpt lat="44.46439028447259" lon="11.013081102716514"><ele>122.0</ele><time>2026-04-25T13:58:19.916Z</time></trkpt><trkpt lat="44.46428391815396" lon="11.01301222501736"><ele>122.5</ele><time>2026-04-25T13:58:20.916Z</time></trkpt><trkpt lat="44.46417935100584" lon="11.012941397921077"><ele>123.0</ele><time>2026-04-25T13:58:21.916Z</time></trkpt><trkpt lat="44.464074981151" lon="11.012867696473748"><ele>123.0</ele><time>2026-04-25T13:58:22.916Z</time></trkpt><trkpt lat="44.463970773959375" lon="11.012782728726313"><ele>123.0</ele><time>2026-04-25T13:58:23.916Z</time></trkpt><trkpt lat="44.463873492632935" lon="11.012674231412676"><ele>123.0</ele><time>2026-04-25T13:58:24.916Z</time></trkpt><trkpt lat="44.46378651594862" lon="11.012536654172658"><ele>123.0</ele><time>2026-04-25T13:58:25.916Z</time></trkpt><trkpt lat="44.46369247690426" lon="11.01239029392917"><ele>122.0</ele><time>2026-04-25T13:58:26.916Z</time></trkpt><trkpt lat="44.46359667263683" lon="11.01223127936423"><ele>121.0</ele><time>2026-04-25T13:58:27.916Z</time></trkpt><trkpt lat="44.463490834993145" lon="11.01208144451778"><ele>120.0</ele><time>2026-04-25T13:58:28.916Z</time></trkpt><trkpt lat="44.463391977297434" lon="11.011919821330427"><ele>120.0</ele><time>2026-04-25T13:58:29.916Z</time></trkpt><trkpt lat="44.4632921562717" lon="11.011762316394895"><ele>120.0</ele><time>2026-04-25T13:58:30.916Z</time></trkpt><trkpt lat="44.46318840735757" lon="11.011607680418626"><ele>120.0</ele><time>2026-04-25T13:58:31.916Z</time></trkpt><trkpt lat="44.46308616930808" lon="11.011455176197263"><ele>120.0</ele><time>2026-04-25T13:58:32.916Z</time></trkpt><trkpt lat="44.46298538359152" lon="11.011302030534516"><ele>120.0</ele><time>2026-04-25T13:58:33.916Z</time></trkpt><trkpt lat="44.46288813936952" lon="11.011148034320101"><ele>120.0</ele><time>2026-04-25T13:58:34.916Z</time></trkpt><trkpt lat="44.46278013982529" lon="11.010982952356919"><ele>121.0</ele><time>2026-04-25T13:58:35.916Z</time></trkpt><trkpt lat="44.46265365202023" lon="11.010793673037039"><ele>122.0</ele><time>2026-04-25T13:58:36.916Z</time></trkpt><trkpt lat="44.46252645198115" lon="11.01057700581582"><ele>123.0</ele><time>2026-04-25T13:58:37.916Z</time></trkpt><trkpt lat="44.4623910746382" lon="11.010361108038648"><ele>123.0</ele><time>2026-04-25T13:58:38.916Z</time></trkpt><trkpt lat="44.46225052509431" lon="11.010137404792305"><ele>123.0</ele><time>2026-04-25T13:58:39.916Z</time></trkpt><trkpt lat="44.462106580153865" lon="11.009915122343596"><ele>123.0</ele><time>2026-04-25T13:58:40.916Z</time></trkpt><trkpt lat="44.461963012479295" lon="11.009698842218882"><ele>124.0</ele><time>2026-04-25T13:58:41.916Z</time></trkpt><trkpt lat="44.46181905780224" lon="11.009485059533896"><ele>125.0</ele><time>2026-04-25T13:58:42.916Z</time></trkpt><trkpt lat="44.46168114141762" lon="11.009279743840425"><ele>126.0</ele><time>2026-04-25T13:58:43.916Z</time></trkpt><trkpt lat="44.46155691219568" lon="11.009074707361458"><ele>126.33333333333334</ele><time>2026-04-25T13:58:44.916Z</time></trkpt><trkpt lat="44.461429595725306" lon="11.008871652441192"><ele>126.66666666666667</ele><time>2026-04-25T13:58:45.916Z</time></trkpt><trkpt lat="44.46129670960782" lon="11.0086671234191"><ele>127.0</ele><time>2026-04-25T13:58:46.916Z</time></trkpt><trkpt lat="44.46116061841337" lon="11.008462443711991"><ele>127.33333333333334</ele><time>2026-04-25T13:58:47.916Z</time></trkpt><trkpt lat="44.46102180483751" lon="11.008248567397564"><ele>127.66666666666666</ele><time>2026-04-25T13:58:48.916Z</time></trkpt><trkpt lat="44.46088534443957" lon="11.008028043628347"><ele>128.0</ele><time>2026-04-25T13:58:49.916Z</time></trkpt><trkpt lat="44.46074997035471" lon="11.007805754131407"><ele>128.0</ele><time>2026-04-25T13:58:50.916Z</time></trkpt><trkpt lat="44.460606329391084" lon="11.00758465343862"><ele>128.0</ele><time>2026-04-25T13:58:51.916Z</time></trkpt><trkpt lat="44.46045457168401" lon="11.007367786918028"><ele>128.0</ele><time>2026-04-25T13:58:52.916Z</time></trkpt><trkpt lat="44.46030372801584" lon="11.007145562062817"><ele>128.66666666666666</ele><time>2026-04-25T13:58:53.916Z</time></trkpt><trkpt lat="44.46015629356102" lon="11.006915387018022"><ele>129.33333333333334</ele><time>2026-04-25T13:58:54.916Z</time></trkpt><trkpt lat="44.46001658613264" lon="11.006680623003753"><ele>130.0</ele><time>2026-04-25T13:58:55.916Z</time></trkpt><trkpt lat="44.459878213104574" lon="11.006438185724404"><ele>131.0</ele><time>2026-04-25T13:58:56.916Z</time></trkpt><trkpt lat="44.45974088492125" lon="11.006186841477838"><ele>132.0</ele><time>2026-04-25T13:58:57.916Z</time></trkpt><trkpt lat="44.45960957636561" lon="11.005931575323435"><ele>132.33333333333334</ele><time>2026-04-25T13:58:58.916Z</time></trkpt><trkpt lat="44.45948363883911" lon="11.005680647483258"><ele>132.66666666666669</ele><time>2026-04-25T13:58:59.916Z</time></trkpt><trkpt lat="44.45936235964226" lon="11.005434661017292"><ele>133.0</ele><time>2026-04-25T13:59:00.916Z</time></trkpt><trkpt lat="44.45924565060244" lon="11.005190507497968"><ele>134.0</ele><time>2026-04-25T13:59:01.916Z</time></trkpt><trkpt lat="44.45913003115525" lon="11.004949784796873"><ele>135.0</ele><time>2026-04-25T13:59:02.916Z</time></trkpt><trkpt lat="44.45902270694471" lon="11.004722010324754"><ele>136.0</ele><time>2026-04-25T13:59:03.916Z</time></trkpt><trkpt lat="44.458922044853175" lon="11.004509181716232"><ele>136.0</ele><time>2026-04-25T13:59:04.916Z</time></trkpt><trkpt lat="44.45882668842423" lon="11.004303298019751"><ele>136.0</ele><time>2026-04-25T13:59:05.916Z</time></trkpt><trkpt lat="44.4587345746104" lon="11.004119450887869"><ele>136.0</ele><time>2026-04-25T13:59:06.916Z</time></trkpt><trkpt lat="44.45864470686419" lon="11.003941890577893"><ele>137.0</ele><time>2026-04-25T13:59:07.916Z</time></trkpt><trkpt lat="44.45855802504462" lon="11.003768229745912"><ele>138.0</ele><time>2026-04-25T13:59:08.916Z</time></trkpt><trkpt lat="44.458472791094124" lon="11.003593775222722"><ele>139.0</ele><time>2026-04-25T13:59:09.916Z</time></trkpt><trkpt lat="44.458389765038" lon="11.00341604225001"><ele>139.33333333333334</ele><time>2026-04-25T13:59:10.916Z</time></trkpt><trkpt lat="44.4583043235226" lon="11.003233298858296"><ele>139.66666666666666</ele><time>2026-04-25T13:59:11.916Z</time></trkpt><trkpt lat="44.4582191320935" lon="11.003051187641542"><ele>140.0</ele><time>2026-04-25T13:59:12.916Z</time></trkpt><trkpt lat="44.45813890709658" lon="11.002871125257846"><ele>140.0</ele><time>2026-04-25T13:59:13.916Z</time></trkpt><trkpt lat="44.45805900372925" lon="11.00269760039703"><ele>140.0</ele><time>2026-04-25T13:59:14.916Z</time></trkpt><trkpt lat="44.45798860832237" lon="11.002524437034097"><ele>140.0</ele><time>2026-04-25T13:59:15.919Z</time></trkpt><trkpt lat="44.45791128344769" lon="11.002359082085173"><ele>140.0</ele><time>2026-04-25T13:59:16.92Z</time></trkpt><trkpt lat="44.457842873129636" lon="11.002171936586786"><ele>140.0</ele><time>2026-04-25T13:59:17.922Z</time></trkpt><trkpt lat="44.45777959978751" lon="11.00197481512382"><ele>140.0</ele><time>2026-04-25T13:59:18.924Z</time></trkpt><trkpt lat="44.45771602337834" lon="11.001768684646027"><ele>140.0</ele><time>2026-04-25T13:59:19.927Z</time></trkpt><trkpt lat="44.45765110901518" lon="11.001552641490171"><ele>139.0</ele><time>2026-04-25T13:59:20.928Z</time></trkpt><trkpt lat="44.457586291489626" lon="11.001332431776685"><ele>138.0</ele><time>2026-04-25T13:59:21.929Z</time></trkpt><trkpt lat="44.45751452367389" lon="11.001101520630078"><ele>137.0</ele><time>2026-04-25T13:59:22.931Z</time></trkpt><trkpt lat="44.4574447680356" lon="11.000864656924492"><ele>136.33333333333331</ele><time>2026-04-25T13:59:23.932Z</time></trkpt><trkpt lat="44.457372220679574" lon="11.000622884916215"><ele>135.66666666666666</ele><time>2026-04-25T13:59:24.933Z</time></trkpt><trkpt lat="44.45729292523365" lon="11.000365299576453"><ele>135.0</ele><time>2026-04-25T13:59:25.935Z</time></trkpt><trkpt lat="44.45721088169608" lon="11.000099339956632"><ele>135.0</ele><time>2026-04-25T13:59:26.936Z</time></trkpt><trkpt lat="44.45712712268973" lon="10.99983530637507"><ele>135.0</ele><time>2026-04-25T13:59:27.937Z</time></trkpt><trkpt lat="44.45704727258816" lon="10.999554301696856"><ele>135.0</ele><time>2026-04-25T13:59:28.938Z</time></trkpt><trkpt lat="44.45696170816861" lon="10.999268923961113"><ele>132.5</ele><time>2026-04-25T13:59:29.939Z</time></trkpt><trkpt lat="44.456870083063315" lon="10.99898685688227"><ele>130.0</ele><time>2026-04-25T13:59:30.94Z</time></trkpt><trkpt lat="44.45677665368733" lon="10.998694016603105"><ele>130.0</ele><time>2026-04-25T13:59:31.941Z</time></trkpt><trkpt lat="44.45669429718817" lon="10.998394496631768"><ele>130.0</ele><time>2026-04-25T13:59:32.941Z</time></trkpt><trkpt lat="44.456601210833156" lon="10.998090325602671"><ele>131.0</ele><time>2026-04-25T13:59:33.942Z</time></trkpt><trkpt lat="44.45650816573765" lon="10.997777546324748"><ele>132.0</ele><time>2026-04-25T13:59:34.943Z</time></trkpt><trkpt lat="44.45641232166972" lon="10.997462628782191"><ele>133.0</ele><time>2026-04-25T13:59:35.943Z</time></trkpt><trkpt lat="44.45631448101821" lon="10.997168035746496"><ele>134.0</ele><time>2026-04-25T13:59:36.944Z</time></trkpt><trkpt lat="44.45622417048827" lon="10.996864362015335"><ele>133.5</ele><time>2026-04-25T13:59:37.944Z</time></trkpt><trkpt lat="44.456139810122885" lon="10.996556264687005"><ele>133.0</ele><time>2026-04-25T13:59:38.945Z</time></trkpt><trkpt lat="44.45605343889918" lon="10.996264187323503"><ele>133.0</ele><time>2026-04-25T13:59:39.945Z</time></trkpt><trkpt lat="44.45595842344504" lon="10.995972194553502"><ele>133.0</ele><time>2026-04-25T13:59:40.946Z</time></trkpt><trkpt lat="44.455863274571186" lon="10.995675050355526"><ele>132.66666666666669</ele><time>2026-04-25T13:59:41.946Z</time></trkpt><trkpt lat="44.455765468614615" lon="10.99538581469315"><ele>132.33333333333334</ele><time>2026-04-25T13:59:42.947Z</time></trkpt><trkpt lat="44.455677543504834" lon="10.99511290349806"><ele>132.0</ele><time>2026-04-25T13:59:43.947Z</time></trkpt><trkpt lat="44.45558625824605" lon="10.99483695652076"><ele>131.33333333333334</ele><time>2026-04-25T13:59:44.948Z</time></trkpt><trkpt lat="44.45550521032757" lon="10.99456223462227"><ele>130.66666666666669</ele><time>2026-04-25T13:59:45.948Z</time></trkpt><trkpt lat="44.45543399653705" lon="10.994288091496035"><ele>130.0</ele><time>2026-04-25T13:59:46.948Z</time></trkpt><trkpt lat="44.45535149102825" lon="10.994004644528895"><ele>131.66666666666669</ele><time>2026-04-25T13:59:47.948Z</time></trkpt><trkpt lat="44.45526116696525" lon="10.993719559997333"><ele>133.33333333333334</ele><time>2026-04-25T13:59:48.949Z</time></trkpt><trkpt lat="44.45517657023786" lon="10.993434871108144"><ele>135.0</ele><time>2026-04-25T13:59:49.949Z</time></trkpt><trkpt lat="44.45508630423363" lon="10.993138298236103"><ele>135.5</ele><time>2026-04-25T13:59:50.949Z</time></trkpt><trkpt lat="44.45498808362942" lon="10.992842304476914"><ele>136.0</ele><time>2026-04-25T13:59:51.949Z</time></trkpt><trkpt lat="44.45489076590238" lon="10.992544181962941"><ele>136.0</ele><time>2026-04-25T13:59:52.95Z</time></trkpt><trkpt lat="44.454797958766555" lon="10.992240642195089"><ele>136.0</ele><time>2026-04-25T13:59:53.95Z</time></trkpt><trkpt lat="44.454701450987294" lon="10.991929541211968"><ele>139.0</ele><time>2026-04-25T13:59:54.95Z</time></trkpt><trkpt lat="44.45460031689587" lon="10.99161798585829"><ele>142.0</ele><time>2026-04-25T13:59:55.95Z</time></trkpt><trkpt lat="44.45450569093758" lon="10.991312165789614"><ele>142.0</ele><time>2026-04-25T13:59:56.95Z</time></trkpt><trkpt lat="44.454416608462274" lon="10.991025300689575"><ele>142.0</ele><time>2026-04-25T13:59:57.951Z</time></trkpt><trkpt lat="44.45433138440376" lon="10.99076112200825"><ele>142.0</ele><time>2026-04-25T13:59:58.951Z</time></trkpt><trkpt lat="44.45425518304825" lon="10.990496134181011"><ele>141.66666666666669</ele><time>2026-04-25T13:59:59.951Z</time></trkpt><trkpt lat="44.454178832869985" lon="10.990212556295665"><ele>141.33333333333334</ele><time>2026-04-25T14:00:00.951Z</time></trkpt><trkpt lat="44.45409745105604" lon="10.989934856968071"><ele>141.0</ele><time>2026-04-25T14:00:01.951Z</time></trkpt><trkpt lat="44.454007938967656" lon="10.989658151053284"><ele>141.0</ele><time>2026-04-25T14:00:02.951Z</time></trkpt><trkpt lat="44.45391982349805" lon="10.989374854380504"><ele>141.0</ele><time>2026-04-25T14:00:03.951Z</time></trkpt><trkpt lat="44.45383249878517" lon="10.98908941595201"><ele>141.0</ele><time>2026-04-25T14:00:04.951Z</time></trkpt><trkpt lat="44.45375204599408" lon="10.988796526131635"><ele>144.0</ele><time>2026-04-25T14:00:05.951Z</time></trkpt><trkpt lat="44.45366254101658" lon="10.988508586307633"><ele>147.0</ele><time>2026-04-25T14:00:06.952Z</time></trkpt><trkpt lat="44.453573861762926" lon="10.988216355773407"><ele>147.33333333333334</ele><time>2026-04-25T14:00:07.952Z</time></trkpt><trkpt lat="44.453488409171264" lon="10.987935315977404"><ele>147.66666666666669</ele><time>2026-04-25T14:00:08.952Z</time></trkpt><trkpt lat="44.453394890378924" lon="10.987666074472106"><ele>148.0</ele><time>2026-04-25T14:00:09.952Z</time></trkpt><trkpt lat="44.45329220815431" lon="10.98742268009953"><ele>148.33333333333334</ele><time>2026-04-25T14:00:10.952Z</time></trkpt><trkpt lat="44.45316869331081" lon="10.98721945120523"><ele>148.66666666666666</ele><time>2026-04-25T14:00:11.952Z</time></trkpt><trkpt lat="44.45300312604496" lon="10.987034008057524"><ele>149.0</ele><time>2026-04-25T14:00:12.952Z</time></trkpt><trkpt lat="44.452840240620496" lon="10.986870840481707"><ele>150.0</ele><time>2026-04-25T14:00:13.952Z</time></trkpt><trkpt lat="44.4526711740214" lon="10.986728716984903"><ele>151.0</ele><time>2026-04-25T14:00:14.952Z</time></trkpt><trkpt lat="44.45249703313144" lon="10.986620024102224"><ele>152.0</ele><time>2026-04-25T14:00:15.952Z</time></trkpt><trkpt lat="44.452331350984544" lon="10.986533429574244"><ele>152.0</ele><time>2026-04-25T14:00:16.952Z</time></trkpt><trkpt lat="44.45218454916789" lon="10.986437771208339"><ele>152.0</ele><time>2026-04-25T14:00:17.952Z</time></trkpt><trkpt lat="44.45204081136488" lon="10.986270500248025"><ele>152.0</ele><time>2026-04-25T14:00:18.952Z</time></trkpt><trkpt lat="44.45191240208113" lon="10.986129327128637"><ele>154.66666666666666</ele><time>2026-04-25T14:00:19.952Z</time></trkpt><trkpt lat="44.45178879684382" lon="10.985978048759677"><ele>157.33333333333334</ele><time>2026-04-25T14:00:20.952Z</time></trkpt><trkpt lat="44.45169205504655" lon="10.985817068780118"><ele>160.0</ele><time>2026-04-25T14:00:21.952Z</time></trkpt><trkpt lat="44.45160528828115" lon="10.985667189535357"><ele>160.0</ele><time>2026-04-25T14:00:22.952Z</time></trkpt><trkpt lat="44.45153711377712" lon="10.985544884750336"><ele>160.0</ele><time>2026-04-25T14:00:23.952Z</time></trkpt><trkpt lat="44.45148611844199" lon="10.985431698524495"><ele>160.0</ele><time>2026-04-25T14:00:24.952Z</time></trkpt><trkpt lat="44.45144706127305" lon="10.985327321099408"><ele>160.0</ele><time>2026-04-25T14:00:25.952Z</time></trkpt><trkpt lat="44.45143466544994" lon="10.985213663242089"><ele>160.0</ele><time>2026-04-25T14:00:26.952Z</time></trkpt><trkpt lat="44.45145276252998" lon="10.985097946645201"><ele>159.25</ele><time>2026-04-25T14:00:27.952Z</time></trkpt><trkpt lat="44.4514732844905" lon="10.984962175273402"><ele>158.5</ele><time>2026-04-25T14:00:28.952Z</time></trkpt><trkpt lat="44.45148808742338" lon="10.984800525371664"><ele>157.75</ele><time>2026-04-25T14:00:29.952Z</time></trkpt><trkpt lat="44.4514939396117" lon="10.984621496454066"><ele>157.0</ele><time>2026-04-25T14:00:30.952Z</time></trkpt><trkpt lat="44.45148901223817" lon="10.984422788775477"><ele>157.0</ele><time>2026-04-25T14:00:31.952Z</time></trkpt><trkpt lat="44.45149557113014" lon="10.984202355860072"><ele>157.0</ele><time>2026-04-25T14:00:32.952Z</time></trkpt><trkpt lat="44.451500825428596" lon="10.983970544774651"><ele>157.0</ele><time>2026-04-25T14:00:33.952Z</time></trkpt><trkpt lat="44.45150104471846" lon="10.983728380844667"><ele>156.66666666666669</ele><time>2026-04-25T14:00:34.952Z</time></trkpt><trkpt lat="44.45149841271113" lon="10.983465312244896"><ele>156.33333333333334</ele><time>2026-04-25T14:00:35.952Z</time></trkpt><trkpt lat="44.4514892953564" lon="10.983199244235717"><ele>156.0</ele><time>2026-04-25T14:00:36.952Z</time></trkpt><trkpt lat="44.45147661833999" lon="10.98290804869703"><ele>155.33333333333334</ele><time>2026-04-25T14:00:37.952Z</time></trkpt><trkpt lat="44.451449162744126" lon="10.982600714270319"><ele>154.66666666666669</ele><time>2026-04-25T14:00:38.952Z</time></trkpt><trkpt lat="44.45142896216447" lon="10.98228531510463"><ele>154.0</ele><time>2026-04-25T14:00:39.952Z</time></trkpt><trkpt lat="44.45141168544143" lon="10.981957064867126"><ele>152.0</ele><time>2026-04-25T14:00:40.952Z</time></trkpt><trkpt lat="44.45138010730021" lon="10.981585535378775"><ele>150.0</ele><time>2026-04-25T14:00:41.952Z</time></trkpt><trkpt lat="44.45134285118714" lon="10.98126128736651"><ele>150.0</ele><time>2026-04-25T14:00:42.952Z</time></trkpt><trkpt lat="44.45130076086355" lon="10.980956286195143"><ele>150.0</ele><time>2026-04-25T14:00:43.952Z</time></trkpt><trkpt lat="44.45126371094113" lon="10.9806702158498"><ele>150.0</ele><time>2026-04-25T14:00:44.952Z</time></trkpt><trkpt lat="44.45124260354823" lon="10.980389051195335"><ele>154.0</ele><time>2026-04-25T14:00:45.952Z</time></trkpt><trkpt lat="44.45124110421101" lon="10.98011931527419"><ele>158.0</ele><time>2026-04-25T14:00:46.952Z</time></trkpt><trkpt lat="44.451244249819254" lon="10.979865519163798"><ele>162.0</ele><time>2026-04-25T14:00:47.952Z</time></trkpt><trkpt lat="44.45121222761743" lon="10.979621422962797"><ele>162.0</ele><time>2026-04-25T14:00:48.952Z</time></trkpt><trkpt lat="44.45115225555515" lon="10.97936795959973"><ele>162.0</ele><time>2026-04-25T14:00:49.952Z</time></trkpt><trkpt lat="44.451085472560685" lon="10.979126517763678"><ele>162.0</ele><time>2026-04-25T14:00:50.952Z</time></trkpt><trkpt lat="44.45101712517074" lon="10.978899539916432"><ele>161.66666666666666</ele><time>2026-04-25T14:00:51.952Z</time></trkpt><trkpt lat="44.45091795860236" lon="10.978706665561726"><ele>161.33333333333331</ele><time>2026-04-25T14:00:52.952Z</time></trkpt><trkpt lat="44.45078508617677" lon="10.978536628775354"><ele>161.0</ele><time>2026-04-25T14:00:53.952Z</time></trkpt><trkpt lat="44.45064014613132" lon="10.978351134586475"><ele>161.0</ele><time>2026-04-25T14:00:54.952Z</time></trkpt><trkpt lat="44.450507513814216" lon="10.978143448586847"><ele>161.0</ele><time>2026-04-25T14:00:55.952Z</time></trkpt><trkpt lat="44.45039485769904" lon="10.977944249859593"><ele>161.0</ele><time>2026-04-25T14:00:56.952Z</time></trkpt><trkpt lat="44.45030587079443" lon="10.97775704562089"><ele>162.75</ele><time>2026-04-25T14:00:57.952Z</time></trkpt><trkpt lat="44.45026017423948" lon="10.977562952014262"><ele>164.5</ele><time>2026-04-25T14:00:58.952Z</time></trkpt><trkpt lat="44.450257134584845" lon="10.9773771598893"><ele>166.25</ele><time>2026-04-25T14:00:59.952Z</time></trkpt><trkpt lat="44.450319579042294" lon="10.977205489529409"><ele>168.0</ele><time>2026-04-25T14:01:00.952Z</time></trkpt><trkpt lat="44.45042033343569" lon="10.977049588587215"><ele>165.33333333333334</ele><time>2026-04-25T14:01:01.952Z</time></trkpt><trkpt lat="44.450544572316915" lon="10.976880218878927"><ele>162.66666666666669</ele><time>2026-04-25T14:01:02.952Z</time></trkpt><trkpt lat="44.450670346034215" lon="10.976678157759212"><ele>160.0</ele><time>2026-04-25T14:01:03.952Z</time></trkpt><trkpt lat="44.4507988899129" lon="10.976463096829994"><ele>159.66666666666669</ele><time>2026-04-25T14:01:04.952Z</time></trkpt><trkpt lat="44.45093160744578" lon="10.976246387836916"><ele>159.33333333333334</ele><time>2026-04-25T14:01:05.952Z</time></trkpt><trkpt lat="44.45105546376508" lon="10.976042875892626"><ele>159.0</ele><time>2026-04-25T14:01:06.952Z</time></trkpt><trkpt lat="44.45116329458181" lon="10.975859403895008"><ele>158.4</ele><time>2026-04-25T14:01:07.952Z</time></trkpt><trkpt lat="44.45124406979462" lon="10.975709671690009"><ele>157.8</ele><time>2026-04-25T14:01:08.952Z</time></trkpt><trkpt lat="44.45129423605722" lon="10.975584169984495"><ele>157.2</ele><time>2026-04-25T14:01:09.952Z</time></trkpt><trkpt lat="44.45129556329388" lon="10.975457067659502"><ele>156.6</ele><time>2026-04-25T14:01:10.952Z</time></trkpt><trkpt lat="44.45123820670496" lon="10.975339426593935"><ele>156.0</ele><time>2026-04-25T14:01:11.952Z</time></trkpt><trkpt lat="44.45116210290114" lon="10.975235185540567"><ele>156.0</ele><time>2026-04-25T14:01:12.952Z</time></trkpt><trkpt lat="44.45104512452458" lon="10.97513330251742"><ele>156.0</ele><time>2026-04-25T14:01:13.952Z</time></trkpt><trkpt lat="44.45092443043329" lon="10.974990273995157"><ele>156.0</ele><time>2026-04-25T14:01:14.952Z</time></trkpt><trkpt lat="44.45081182632705" lon="10.974822868915462"><ele>156.33333333333334</ele><time>2026-04-25T14:01:15.953Z</time></trkpt><trkpt lat="44.45068768844485" lon="10.974647429018917"><ele>156.66666666666669</ele><time>2026-04-25T14:01:16.953Z</time></trkpt><trkpt lat="44.450559114735526" lon="10.974463449896934"><ele>157.0</ele><time>2026-04-25T14:01:17.953Z</time></trkpt><trkpt lat="44.45043559947702" lon="10.974268848403424"><ele>158.0</ele><time>2026-04-25T14:01:18.953Z</time></trkpt><trkpt lat="44.4503113046677" lon="10.974068935329804"><ele>159.0</ele><time>2026-04-25T14:01:19.952Z</time></trkpt><trkpt lat="44.450190903383266" lon="10.973872403509723"><ele>160.0</ele><time>2026-04-25T14:01:20.952Z</time></trkpt><trkpt lat="44.45007520697884" lon="10.973670920930962"><ele>160.0</ele><time>2026-04-25T14:01:21.953Z</time></trkpt><trkpt lat="44.449967862839124" lon="10.97347910523792"><ele>160.0</ele><time>2026-04-25T14:01:22.952Z</time></trkpt><trkpt lat="44.44985815832977" lon="10.973320170637654"><ele>160.0</ele><time>2026-04-25T14:01:23.952Z</time></trkpt><trkpt lat="44.44975358388312" lon="10.973216773342767"><ele>159.5</ele><time>2026-04-25T14:01:24.953Z</time></trkpt><trkpt lat="44.44963224880552" lon="10.97315224709187"><ele>159.0</ele><time>2026-04-25T14:01:25.952Z</time></trkpt><trkpt lat="44.44948933568533" lon="10.973105077277342"><ele>158.5</ele><time>2026-04-25T14:01:26.952Z</time></trkpt><trkpt lat="44.44931866854859" lon="10.97307869412503"><ele>158.0</ele><time>2026-04-25T14:01:27.953Z</time></trkpt><trkpt lat="44.44916245389568" lon="10.972998915455847"><ele>159.25</ele><time>2026-04-25T14:01:28.953Z</time></trkpt><trkpt lat="44.44901703248221" lon="10.972905706297281"><ele>160.5</ele><time>2026-04-25T14:01:29.953Z</time></trkpt><trkpt lat="44.4488840279994" lon="10.97284849405603"><ele>161.75</ele><time>2026-04-25T14:01:30.952Z</time></trkpt><trkpt lat="44.448769132826094" lon="10.972809009329925"><ele>163.0</ele><time>2026-04-25T14:01:31.952Z</time></trkpt><trkpt lat="44.44867664085915" lon="10.972757843447672"><ele>163.0</ele><time>2026-04-25T14:01:32.952Z</time></trkpt><trkpt lat="44.44861174546428" lon="10.97267413397599"><ele>163.0</ele><time>2026-04-25T14:01:33.952Z</time></trkpt><trkpt lat="44.44858557556431" lon="10.972568710636146"><ele>163.0</ele><time>2026-04-25T14:01:34.952Z</time></trkpt><trkpt lat="44.44861978275846" lon="10.972470520299597"><ele>163.0</ele><time>2026-04-25T14:01:35.952Z</time></trkpt><trkpt lat="44.448698245706915" lon="10.97241338800465"><ele>163.0</ele><time>2026-04-25T14:01:36.952Z</time></trkpt><trkpt lat="44.44879150193249" lon="10.972420639437553"><ele>163.0</ele><time>2026-04-25T14:01:37.952Z</time></trkpt><trkpt lat="44.44887095952305" lon="10.972539810942544"><ele>163.0</ele><time>2026-04-25T14:01:38.952Z</time></trkpt><trkpt lat="44.44898951335472" lon="10.972612348255137"><ele>163.0</ele><time>2026-04-25T14:01:39.952Z</time></trkpt><trkpt lat="44.44910175919455" lon="10.972663337712817"><ele>163.0</ele><time>2026-04-25T14:01:40.952Z</time></trkpt><trkpt lat="44.44920361755555" lon="10.97268167330473"><ele>163.0</ele><time>2026-04-25T14:01:41.952Z</time></trkpt><trkpt lat="44.44929143908143" lon="10.972683650398048"><ele>163.0</ele><time>2026-04-25T14:01:42.952Z</time></trkpt><trkpt lat="44.44938873096646" lon="10.972699907358136"><ele>163.0</ele><time>2026-04-25T14:01:43.952Z</time></trkpt><trkpt lat="44.44950357743731" lon="10.972722560670244"><ele>163.0</ele><time>2026-04-25T14:01:44.952Z</time></trkpt><trkpt lat="44.44962142810418" lon="10.972750368354383"><ele>163.0</ele><time>2026-04-25T14:01:45.952Z</time></trkpt><trkpt lat="44.4497452078164" lon="10.97279277378651"><ele>163.0</ele><time>2026-04-25T14:01:46.952Z</time></trkpt><trkpt lat="44.449893153103034" lon="10.97276860070362"><ele>161.33333333333334</ele><time>2026-04-25T14:01:47.952Z</time></trkpt><trkpt lat="44.45004806700717" lon="10.972732021553595"><ele>159.66666666666666</ele><time>2026-04-25T14:01:48.952Z</time></trkpt><trkpt lat="44.45018765054576" lon="10.972617387830716"><ele>158.0</ele><time>2026-04-25T14:01:49.952Z</time></trkpt><trkpt lat="44.4502902706216" lon="10.97243249065387"><ele>155.66666666666666</ele><time>2026-04-25T14:01:50.952Z</time></trkpt><trkpt lat="44.45036651815724" lon="10.972199883954302"><ele>153.33333333333334</ele><time>2026-04-25T14:01:51.952Z</time></trkpt><trkpt lat="44.45042691008043" lon="10.971966389330584"><ele>151.0</ele><time>2026-04-25T14:01:52.952Z</time></trkpt><trkpt lat="44.45050448307083" lon="10.97173655104992"><ele>150.33333333333334</ele><time>2026-04-25T14:01:53.952Z</time></trkpt><trkpt lat="44.45058462362553" lon="10.971511226105289"><ele>149.66666666666666</ele><time>2026-04-25T14:01:54.952Z</time></trkpt><trkpt lat="44.45066063635952" lon="10.971303741086484"><ele>149.0</ele><time>2026-04-25T14:01:55.952Z</time></trkpt><trkpt lat="44.45074782285254" lon="10.971105236233468"><ele>149.0</ele><time>2026-04-25T14:01:56.952Z</time></trkpt><trkpt lat="44.45086747531515" lon="10.970969708263182"><ele>149.0</ele><time>2026-04-25T14:01:57.952Z</time></trkpt><trkpt lat="44.45098605931219" lon="10.970851911097697"><ele>149.0</ele><time>2026-04-25T14:01:58.952Z</time></trkpt><trkpt lat="44.451120980468744" lon="10.97075646554251"><ele>147.75</ele><time>2026-04-25T14:01:59.952Z</time></trkpt><trkpt lat="44.45125693192823" lon="10.970696369339292"><ele>146.5</ele><time>2026-04-25T14:02:00.952Z</time></trkpt><trkpt lat="44.45140525774639" lon="10.970645332791761"><ele>145.25</ele><time>2026-04-25T14:02:01.952Z</time></trkpt><trkpt lat="44.45155625622316" lon="10.970611265310664"><ele>144.0</ele><time>2026-04-25T14:02:02.952Z</time></trkpt><trkpt lat="44.45170028490872" lon="10.970611653413954"><ele>144.0</ele><time>2026-04-25T14:02:03.952Z</time></trkpt><trkpt lat="44.4518507245803" lon="10.970650983193146"><ele>144.0</ele><time>2026-04-25T14:02:04.952Z</time></trkpt><trkpt lat="44.45198309863748" lon="10.97068731587891"><ele>144.0</ele><time>2026-04-25T14:02:05.952Z</time></trkpt><trkpt lat="44.452084533939704" lon="10.970804084740816"><ele>144.0</ele><time>2026-04-25T14:02:06.952Z</time></trkpt><trkpt lat="44.45217919774691" lon="10.970895434684701"><ele>143.75</ele><time>2026-04-25T14:02:07.952Z</time></trkpt><trkpt lat="44.4522586699739" lon="10.971002793435108"><ele>143.5</ele><time>2026-04-25T14:02:08.952Z</time></trkpt><trkpt lat="44.45235365351077" lon="10.97113663060856"><ele>143.25</ele><time>2026-04-25T14:02:09.952Z</time></trkpt><trkpt lat="44.45244183820026" lon="10.97125500135431"><ele>143.0</ele><time>2026-04-25T14:02:10.952Z</time></trkpt><trkpt lat="44.452529834415174" lon="10.971390778810735"><ele>143.0</ele><time>2026-04-25T14:02:11.952Z</time></trkpt><trkpt lat="44.45261671673234" lon="10.97154161745257"><ele>143.0</ele><time>2026-04-25T14:02:12.952Z</time></trkpt><trkpt lat="44.45270144104067" lon="10.971697104066127"><ele>143.0</ele><time>2026-04-25T14:02:13.952Z</time></trkpt><trkpt lat="44.45276854119859" lon="10.97184436270033"><ele>143.0</ele><time>2026-04-25T14:02:14.952Z</time></trkpt><trkpt lat="44.45282430856753" lon="10.971988247493876"><ele>143.5</ele><time>2026-04-25T14:02:15.952Z</time></trkpt><trkpt lat="44.452881804017586" lon="10.972112272468289"><ele>144.0</ele><time>2026-04-25T14:02:16.952Z</time></trkpt><trkpt lat="44.452959670836854" lon="10.972219977029646"><ele>144.5</ele><time>2026-04-25T14:02:17.952Z</time></trkpt><trkpt lat="44.45306758492107" lon="10.97226940413732"><ele>145.0</ele><time>2026-04-25T14:02:18.952Z</time></trkpt><trkpt lat="44.45319131631775" lon="10.972288425317005"><ele>142.0</ele><time>2026-04-25T14:02:19.952Z</time></trkpt><trkpt lat="44.45331583706606" lon="10.972300934663997"><ele>139.0</ele><time>2026-04-25T14:02:20.952Z</time></trkpt><trkpt lat="44.4534440355203" lon="10.972335123609831"><ele>136.0</ele><time>2026-04-25T14:02:21.952Z</time></trkpt><trkpt lat="44.4535774126652" lon="10.972315303324535"><ele>133.0</ele><time>2026-04-25T14:02:22.952Z</time></trkpt><trkpt lat="44.453709917099744" lon="10.972293301625053"><ele>133.0</ele><time>2026-04-25T14:02:23.952Z</time></trkpt><trkpt lat="44.45384586126386" lon="10.9722595709382"><ele>133.0</ele><time>2026-04-25T14:02:24.952Z</time></trkpt><trkpt lat="44.45397604155315" lon="10.972206234648354"><ele>133.0</ele><time>2026-04-25T14:02:25.952Z</time></trkpt><trkpt lat="44.4540987846367" lon="10.972156159435183"><ele>133.0</ele><time>2026-04-25T14:02:26.952Z</time></trkpt><trkpt lat="44.45420679840536" lon="10.972085009029751"><ele>133.0</ele><time>2026-04-25T14:02:27.952Z</time></trkpt><trkpt lat="44.45429450764075" lon="10.971996533973535"><ele>133.0</ele><time>2026-04-25T14:02:28.952Z</time></trkpt><trkpt lat="44.45436173168354" lon="10.97187202057397"><ele>133.0</ele><time>2026-04-25T14:02:29.952Z</time></trkpt><trkpt lat="44.454401496022136" lon="10.971702506650963"><ele>133.0</ele><time>2026-04-25T14:02:30.952Z</time></trkpt><trkpt lat="44.454407331803594" lon="10.971512118111935"><ele>133.25</ele><time>2026-04-25T14:02:31.952Z</time></trkpt><trkpt lat="44.45439466367397" lon="10.971310934625407"><ele>133.5</ele><time>2026-04-25T14:02:32.952Z</time></trkpt><trkpt lat="44.45439442487205" lon="10.971109298834763"><ele>133.75</ele><time>2026-04-25T14:02:33.952Z</time></trkpt><trkpt lat="44.45439149819225" lon="10.970915613446072"><ele>134.0</ele><time>2026-04-25T14:02:34.952Z</time></trkpt><trkpt lat="44.45438543264112" lon="10.970725093004104"><ele>134.75</ele><time>2026-04-25T14:02:35.952Z</time></trkpt><trkpt lat="44.45437306674973" lon="10.970533364250233"><ele>135.5</ele><time>2026-04-25T14:02:36.952Z</time></trkpt><trkpt lat="44.45435765681438" lon="10.970339908607068"><ele>136.25</ele><time>2026-04-25T14:02:37.952Z</time></trkpt><trkpt lat="44.454345522269556" lon="10.970137326491239"><ele>137.0</ele><time>2026-04-25T14:02:38.952Z</time></trkpt><trkpt lat="44.45433445296473" lon="10.969928146076809"><ele>137.0</ele><time>2026-04-25T14:02:39.952Z</time></trkpt><trkpt lat="44.45432474724757" lon="10.969714905839998"><ele>137.0</ele><time>2026-04-25T14:02:40.952Z</time></trkpt><trkpt lat="44.454313834584575" lon="10.969493599919268"><ele>137.0</ele><time>2026-04-25T14:02:41.952Z</time></trkpt><trkpt lat="44.45429632759556" lon="10.969268953071447"><ele>137.33333333333331</ele><time>2026-04-25T14:02:42.952Z</time></trkpt><trkpt lat="44.45428981587691" lon="10.969023605660418"><ele>137.66666666666666</ele><time>2026-04-25T14:02:43.952Z</time></trkpt><trkpt lat="44.45426788874055" lon="10.968781603987207"><ele>138.0</ele><time>2026-04-25T14:02:44.952Z</time></trkpt><trkpt lat="44.454250342339805" lon="10.968535450268092"><ele>138.0</ele><time>2026-04-25T14:02:45.952Z</time></trkpt><trkpt lat="44.4542246918555" lon="10.968293780231086"><ele>138.0</ele><time>2026-04-25T14:02:46.952Z</time></trkpt><trkpt lat="44.454193805760376" lon="10.968058665798859"><ele>138.0</ele><time>2026-04-25T14:02:47.952Z</time></trkpt><trkpt lat="44.45415703965328" lon="10.967813977632792"><ele>138.0</ele><time>2026-04-25T14:02:48.952Z</time></trkpt><trkpt lat="44.454111897471215" lon="10.96756693923443"><ele>138.0</ele><time>2026-04-25T14:02:49.952Z</time></trkpt><trkpt lat="44.454060971156935" lon="10.967316335477804"><ele>138.0</ele><time>2026-04-25T14:02:50.952Z</time></trkpt><trkpt lat="44.45400494010037" lon="10.967069389333787"><ele>138.0</ele><time>2026-04-25T14:02:51.952Z</time></trkpt><trkpt lat="44.4539457636727" lon="10.966812823495104"><ele>138.0</ele><time>2026-04-25T14:02:52.952Z</time></trkpt><trkpt lat="44.45389269399392" lon="10.966568456891904"><ele>138.0</ele><time>2026-04-25T14:02:53.952Z</time></trkpt><trkpt lat="44.45384206408943" lon="10.96632765084329"><ele>138.66666666666666</ele><time>2026-04-25T14:02:54.952Z</time></trkpt><trkpt lat="44.453793519410105" lon="10.966094627922322"><ele>139.33333333333331</ele><time>2026-04-25T14:02:55.952Z</time></trkpt><trkpt lat="44.45376354092587" lon="10.965858209949499"><ele>140.0</ele><time>2026-04-25T14:02:56.952Z</time></trkpt><trkpt lat="44.453758703506445" lon="10.96561886013375"><ele>141.0</ele><time>2026-04-25T14:02:57.952Z</time></trkpt><trkpt lat="44.45377331077217" lon="10.96538445096861"><ele>142.0</ele><time>2026-04-25T14:02:58.952Z</time></trkpt><trkpt lat="44.453783503166086" lon="10.965168264215825"><ele>143.0</ele><time>2026-04-25T14:02:59.952Z</time></trkpt><trkpt lat="44.453796250686835" lon="10.964988483731744"><ele>143.0</ele><time>2026-04-25T14:03:00.952Z</time></trkpt><trkpt lat="44.45381408458217" lon="10.9648536359618"><ele>143.0</ele><time>2026-04-25T14:03:01.952Z</time></trkpt><trkpt lat="44.453826685990265" lon="10.96474553909767"><ele>143.0</ele><time>2026-04-25T14:03:02.952Z</time></trkpt><trkpt lat="44.45386667207896" lon="10.964647303218223"><ele>143.0</ele><time>2026-04-25T14:03:04.952Z</time></trkpt><trkpt lat="44.45393017189173" lon="10.964595902978107"><ele>143.0</ele><time>2026-04-25T14:03:11.952Z</time></trkpt><trkpt lat="44.45393975792671" lon="10.964433668721666"><ele>143.0</ele><time>2026-04-25T14:03:13.952Z</time></trkpt><trkpt lat="44.45389702339456" lon="10.96432595367835"><ele>143.0</ele><time>2026-04-25T14:03:14.952Z</time></trkpt><trkpt lat="44.453857105718185" lon="10.96422080776214"><ele>143.0</ele><time>2026-04-25T14:03:15.952Z</time></trkpt><trkpt lat="44.453806105743446" lon="10.9640979544327"><ele>143.0</ele><time>2026-04-25T14:03:16.952Z</time></trkpt><trkpt lat="44.45375599963509" lon="10.963980200706954"><ele>143.0</ele><time>2026-04-25T14:03:17.952Z</time></trkpt><trkpt lat="44.45370135231189" lon="10.963842668472562"><ele>143.0</ele><time>2026-04-25T14:03:18.952Z</time></trkpt><trkpt lat="44.45363951631469" lon="10.963704565049772"><ele>142.5</ele><time>2026-04-25T14:03:19.952Z</time></trkpt><trkpt lat="44.453573041390605" lon="10.963542529571399"><ele>142.0</ele><time>2026-04-25T14:03:20.952Z</time></trkpt><trkpt lat="44.45350270694455" lon="10.963384660656262"><ele>141.5</ele><time>2026-04-25T14:03:21.952Z</time></trkpt><trkpt lat="44.45343546972077" lon="10.96322689077653"><ele>141.0</ele><time>2026-04-25T14:03:22.953Z</time></trkpt><trkpt lat="44.453369638518495" lon="10.963064137231452"><ele>141.0</ele><time>2026-04-25T14:03:23.953Z</time></trkpt><trkpt lat="44.45330275097652" lon="10.962894511445356"><ele>141.0</ele><time>2026-04-25T14:03:24.953Z</time></trkpt><trkpt lat="44.453237312552524" lon="10.962721665727212"><ele>141.0</ele><time>2026-04-25T14:03:25.952Z</time></trkpt><trkpt lat="44.45316877340429" lon="10.962547545272225"><ele>141.0</ele><time>2026-04-25T14:03:26.952Z</time></trkpt><trkpt lat="44.453101688201905" lon="10.962364086197091"><ele>142.25</ele><time>2026-04-25T14:03:27.953Z</time></trkpt><trkpt lat="44.45304656330465" lon="10.962173228200886"><ele>143.5</ele><time>2026-04-25T14:03:28.953Z</time></trkpt><trkpt lat="44.45300938875641" lon="10.961978863813684"><ele>144.75</ele><time>2026-04-25T14:03:29.953Z</time></trkpt><trkpt lat="44.45298423756082" lon="10.961779907197366"><ele>146.0</ele><time>2026-04-25T14:03:30.953Z</time></trkpt><trkpt lat="44.45297145293487" lon="10.96157743420553"><ele>146.75</ele><time>2026-04-25T14:03:31.953Z</time></trkpt><trkpt lat="44.452960929331674" lon="10.961377748237048"><ele>147.5</ele><time>2026-04-25T14:03:32.953Z</time></trkpt><trkpt lat="44.45297511422749" lon="10.961172789449877"><ele>148.25</ele><time>2026-04-25T14:03:33.953Z</time></trkpt><trkpt lat="44.453002359270464" lon="10.96097341825726"><ele>149.0</ele><time>2026-04-25T14:03:34.953Z</time></trkpt><trkpt lat="44.453022048917866" lon="10.960780616292588"><ele>149.0</ele><time>2026-04-25T14:03:35.953Z</time></trkpt><trkpt lat="44.45306630069485" lon="10.96058173328206"><ele>149.0</ele><time>2026-04-25T14:03:36.953Z</time></trkpt><trkpt lat="44.45308923900713" lon="10.960361539379884"><ele>149.0</ele><time>2026-04-25T14:03:37.953Z</time></trkpt><trkpt lat="44.453108754291826" lon="10.96016625775383"><ele>149.0</ele><time>2026-04-25T14:03:38.953Z</time></trkpt><trkpt lat="44.45313214631549" lon="10.959984412523903"><ele>148.75</ele><time>2026-04-25T14:03:39.953Z</time></trkpt><trkpt lat="44.453158765535825" lon="10.95980739954238"><ele>148.5</ele><time>2026-04-25T14:03:40.953Z</time></trkpt><trkpt lat="44.45317345290537" lon="10.959628142319772"><ele>148.25</ele><time>2026-04-25T14:03:41.953Z</time></trkpt><trkpt lat="44.45318118135381" lon="10.959443200749273"><ele>148.0</ele><time>2026-04-25T14:03:42.953Z</time></trkpt><trkpt lat="44.45317838287616" lon="10.959244753805692"><ele>149.33333333333334</ele><time>2026-04-25T14:03:43.953Z</time></trkpt><trkpt lat="44.453174168898315" lon="10.959032708523646"><ele>150.66666666666666</ele><time>2026-04-25T14:03:44.953Z</time></trkpt><trkpt lat="44.45316431827333" lon="10.9588096865466"><ele>152.0</ele><time>2026-04-25T14:03:45.953Z</time></trkpt><trkpt lat="44.45314195463269" lon="10.958560531654049"><ele>152.66666666666666</ele><time>2026-04-25T14:03:46.953Z</time></trkpt><trkpt lat="44.4531283844215" lon="10.958289298906402"><ele>153.33333333333334</ele><time>2026-04-25T14:03:47.953Z</time></trkpt><trkpt lat="44.453108022213655" lon="10.95800825550295"><ele>154.0</ele><time>2026-04-25T14:03:48.953Z</time></trkpt><trkpt lat="44.45307866328803" lon="10.95770725130461"><ele>154.33333333333334</ele><time>2026-04-25T14:03:49.953Z</time></trkpt><trkpt lat="44.453048044806145" lon="10.957400987071415"><ele>154.66666666666666</ele><time>2026-04-25T14:03:50.953Z</time></trkpt><trkpt lat="44.45302119339257" lon="10.957088459377275"><ele>155.0</ele><time>2026-04-25T14:03:51.953Z</time></trkpt><trkpt lat="44.452999270507945" lon="10.956793409520516"><ele>154.33333333333331</ele><time>2026-04-25T14:03:52.953Z</time></trkpt><trkpt lat="44.45297712382312" lon="10.95652161658659"><ele>153.66666666666666</ele><time>2026-04-25T14:03:53.953Z</time></trkpt><trkpt lat="44.45295990811449" lon="10.95626457819675"><ele>153.0</ele><time>2026-04-25T14:03:54.953Z</time></trkpt><trkpt lat="44.452940675555126" lon="10.95602863388578"><ele>149.0</ele><time>2026-04-25T14:03:55.953Z</time></trkpt><trkpt lat="44.45291734098707" lon="10.955803287853625"><ele>145.0</ele><time>2026-04-25T14:03:56.953Z</time></trkpt><trkpt lat="44.45289144278652" lon="10.955577168586565"><ele>141.0</ele><time>2026-04-25T14:03:57.953Z</time></trkpt><trkpt lat="44.45286606830131" lon="10.955354886146678"><ele>141.0</ele><time>2026-04-25T14:03:58.953Z</time></trkpt><trkpt lat="44.4528313676018" lon="10.955150950146514"><ele>141.0</ele><time>2026-04-25T14:03:59.953Z</time></trkpt><trkpt lat="44.45278747601987" lon="10.954940881956807"><ele>141.0</ele><time>2026-04-25T14:04:00.953Z</time></trkpt><trkpt lat="44.45271427943971" lon="10.954713122058848"><ele>141.66666666666666</ele><time>2026-04-25T14:04:01.953Z</time></trkpt><trkpt lat="44.45262847889962" lon="10.954474914405477"><ele>142.33333333333331</ele><time>2026-04-25T14:04:02.953Z</time></trkpt><trkpt lat="44.45253104326327" lon="10.954208842970948"><ele>143.0</ele><time>2026-04-25T14:04:03.953Z</time></trkpt><trkpt lat="44.452421237130494" lon="10.953932542372398"><ele>144.0</ele><time>2026-04-25T14:04:04.953Z</time></trkpt><trkpt lat="44.45230676374599" lon="10.953640814921336"><ele>145.0</ele><time>2026-04-25T14:04:05.953Z</time></trkpt><trkpt lat="44.45219176748847" lon="10.953344469107753"><ele>144.5</ele><time>2026-04-25T14:04:06.953Z</time></trkpt><trkpt lat="44.45205424757302" lon="10.9530308920496"><ele>144.0</ele><time>2026-04-25T14:04:07.953Z</time></trkpt><trkpt lat="44.45190341398216" lon="10.952683335594765"><ele>145.0</ele><time>2026-04-25T14:04:08.953Z</time></trkpt><trkpt lat="44.45175752564466" lon="10.95230021873068"><ele>146.0</ele><time>2026-04-25T14:04:09.953Z</time></trkpt><trkpt lat="44.451610028474796" lon="10.95190992940886"><ele>146.5</ele><time>2026-04-25T14:04:10.953Z</time></trkpt><trkpt lat="44.45144848083166" lon="10.951515117435475"><ele>147.0</ele><time>2026-04-25T14:04:11.953Z</time></trkpt><trkpt lat="44.45128872530407" lon="10.951123021797601"><ele>146.0</ele><time>2026-04-25T14:04:12.953Z</time></trkpt><trkpt lat="44.45113148958182" lon="10.950734027314068"><ele>145.0</ele><time>2026-04-25T14:04:13.953Z</time></trkpt><trkpt lat="44.45097844245564" lon="10.950352249652298"><ele>145.0</ele><time>2026-04-25T14:04:14.953Z</time></trkpt><trkpt lat="44.45083360344217" lon="10.949980047236298"><ele>145.0</ele><time>2026-04-25T14:04:15.953Z</time></trkpt><trkpt lat="44.45068557502703" lon="10.94961934592136"><ele>145.0</ele><time>2026-04-25T14:04:16.953Z</time></trkpt><trkpt lat="44.45054193623536" lon="10.949272231911642"><ele>145.0</ele><time>2026-04-25T14:04:17.953Z</time></trkpt><trkpt lat="44.45041055416773" lon="10.948939745656673"><ele>145.5</ele><time>2026-04-25T14:04:18.953Z</time></trkpt><trkpt lat="44.45028826852227" lon="10.948636144067883"><ele>146.0</ele><time>2026-04-25T14:04:19.953Z</time></trkpt><trkpt lat="44.45016001281778" lon="10.94835854601395"><ele>148.5</ele><time>2026-04-25T14:04:20.953Z</time></trkpt><trkpt lat="44.45000406306881" lon="10.948120126295791"><ele>151.0</ele><time>2026-04-25T14:04:21.953Z</time></trkpt><trkpt lat="44.4498384729037" lon="10.947898247916916"><ele>151.0</ele><time>2026-04-25T14:04:22.953Z</time></trkpt><trkpt lat="44.44965424868445" lon="10.94770382208384"><ele>151.0</ele><time>2026-04-25T14:04:23.953Z</time></trkpt><trkpt lat="44.44946137986821" lon="10.947536753753976"><ele>152.0</ele><time>2026-04-25T14:04:24.953Z</time></trkpt><trkpt lat="44.449253829851216" lon="10.94738082360063"><ele>153.0</ele><time>2026-04-25T14:04:25.953Z</time></trkpt><trkpt lat="44.449043738275364" lon="10.947226246778571"><ele>153.0</ele><time>2026-04-25T14:04:26.953Z</time></trkpt><trkpt lat="44.44883224773433" lon="10.947079641475646"><ele>153.0</ele><time>2026-04-25T14:04:27.953Z</time></trkpt><trkpt lat="44.44861850376405" lon="10.946927083765116"><ele>152.0</ele><time>2026-04-25T14:04:28.953Z</time></trkpt><trkpt lat="44.44840860441644" lon="10.946767600505652"><ele>151.0</ele><time>2026-04-25T14:04:29.953Z</time></trkpt><trkpt lat="44.448195162373175" lon="10.946611956473047"><ele>153.5</ele><time>2026-04-25T14:04:30.953Z</time></trkpt><trkpt lat="44.44797831016902" lon="10.946453208345906"><ele>156.0</ele><time>2026-04-25T14:04:31.953Z</time></trkpt><trkpt lat="44.44776025826168" lon="10.946287092219588"><ele>156.0</ele><time>2026-04-25T14:04:32.953Z</time></trkpt><trkpt lat="44.44753938337582" lon="10.946121105943087"><ele>156.0</ele><time>2026-04-25T14:04:33.953Z</time></trkpt><trkpt lat="44.44732033030601" lon="10.945968431553919"><ele>156.0</ele><time>2026-04-25T14:04:34.953Z</time></trkpt><trkpt lat="44.447118724412164" lon="10.945819142898012"><ele>156.0</ele><time>2026-04-25T14:04:35.953Z</time></trkpt><trkpt lat="44.446942256465846" lon="10.94565687541407"><ele>156.0</ele><time>2026-04-25T14:04:36.953Z</time></trkpt><trkpt lat="44.446798337281244" lon="10.945502265685583"><ele>156.0</ele><time>2026-04-25T14:04:37.953Z</time></trkpt><trkpt lat="44.446682887148604" lon="10.945271375477216"><ele>156.0</ele><time>2026-04-25T14:04:38.953Z</time></trkpt><trkpt lat="44.44658941141939" lon="10.945008629936126"><ele>156.0</ele><time>2026-04-25T14:04:39.953Z</time></trkpt><trkpt lat="44.446494534105646" lon="10.944720652021093"><ele>154.0</ele><time>2026-04-25T14:04:40.953Z</time></trkpt><trkpt lat="44.44639248472877" lon="10.944413339581432"><ele>152.0</ele><time>2026-04-25T14:04:41.953Z</time></trkpt><trkpt lat="44.44628852804987" lon="10.944094953564766"><ele>152.0</ele><time>2026-04-25T14:04:42.953Z</time></trkpt><trkpt lat="44.446179522701534" lon="10.943770793698189"><ele>152.0</ele><time>2026-04-25T14:04:43.953Z</time></trkpt><trkpt lat="44.44606883337081" lon="10.943442839199067"><ele>154.0</ele><time>2026-04-25T14:04:44.953Z</time></trkpt><trkpt lat="44.44595016132317" lon="10.943109476461288"><ele>156.0</ele><time>2026-04-25T14:04:45.953Z</time></trkpt><trkpt lat="44.44581220613736" lon="10.942785514058036"><ele>160.5</ele><time>2026-04-25T14:04:46.952Z</time></trkpt><trkpt lat="44.44565742444394" lon="10.942454675616977"><ele>165.0</ele><time>2026-04-25T14:04:47.952Z</time></trkpt><trkpt lat="44.44548785970964" lon="10.942135922136922"><ele>161.5</ele><time>2026-04-25T14:04:48.952Z</time></trkpt><trkpt lat="44.44530611264868" lon="10.941815097899104"><ele>158.0</ele><time>2026-04-25T14:04:49.952Z</time></trkpt><trkpt lat="44.44511411472169" lon="10.941513846264348"><ele>158.0</ele><time>2026-04-25T14:04:50.952Z</time></trkpt><trkpt lat="44.44490924760148" lon="10.941217854537712"><ele>158.0</ele><time>2026-04-25T14:04:51.952Z</time></trkpt><trkpt lat="44.44469349313042" lon="10.940938190773132"><ele>157.0</ele><time>2026-04-25T14:04:52.952Z</time></trkpt><trkpt lat="44.44446565747772" lon="10.940672609152726"><ele>156.0</ele><time>2026-04-25T14:04:53.952Z</time></trkpt><trkpt lat="44.444234863145695" lon="10.940419367500812"><ele>156.0</ele><time>2026-04-25T14:04:54.952Z</time></trkpt><trkpt lat="44.444003765836804" lon="10.940161962469785"><ele>156.0</ele><time>2026-04-25T14:04:55.952Z</time></trkpt><trkpt lat="44.44377983569983" lon="10.939917425986618"><ele>157.0</ele><time>2026-04-25T14:04:56.952Z</time></trkpt><trkpt lat="44.443560529120546" lon="10.939675813735022"><ele>158.0</ele><time>2026-04-25T14:04:57.952Z</time></trkpt><trkpt lat="44.44334636274265" lon="10.939422965524024"><ele>158.0</ele><time>2026-04-25T14:04:58.952Z</time></trkpt><trkpt lat="44.44314452673212" lon="10.939147391776762"><ele>158.0</ele><time>2026-04-25T14:04:59.952Z</time></trkpt><trkpt lat="44.442956127198784" lon="10.93885282995182"><ele>158.0</ele><time>2026-04-25T14:05:00.952Z</time></trkpt><trkpt lat="44.442771321099336" lon="10.938556117438955"><ele>158.0</ele><time>2026-04-25T14:05:01.952Z</time></trkpt><trkpt lat="44.44259611550871" lon="10.938260060604069"><ele>161.5</ele><time>2026-04-25T14:05:02.952Z</time></trkpt><trkpt lat="44.44240733334692" lon="10.937965656414379"><ele>165.0</ele><time>2026-04-25T14:05:03.952Z</time></trkpt><trkpt lat="44.442213563496935" lon="10.937689293279632"><ele>165.0</ele><time>2026-04-25T14:05:04.952Z</time></trkpt><trkpt lat="44.44198948054388" lon="10.937442298643864"><ele>165.0</ele><time>2026-04-25T14:05:05.952Z</time></trkpt><trkpt lat="44.441755616101965" lon="10.937244443901358"><ele>165.0</ele><time>2026-04-25T14:05:06.952Z</time></trkpt><trkpt lat="44.441516654966975" lon="10.937063007579061"><ele>165.0</ele><time>2026-04-25T14:05:07.952Z</time></trkpt><trkpt lat="44.441268019959246" lon="10.93688219077028"><ele>163.5</ele><time>2026-04-25T14:05:08.952Z</time></trkpt><trkpt lat="44.441023449969" lon="10.936698552009817"><ele>162.0</ele><time>2026-04-25T14:05:09.952Z</time></trkpt><trkpt lat="44.44078111571191" lon="10.936517908777851"><ele>162.0</ele><time>2026-04-25T14:05:10.952Z</time></trkpt><trkpt lat="44.440542466589655" lon="10.936336576297334"><ele>162.0</ele><time>2026-04-25T14:05:11.952Z</time></trkpt><trkpt lat="44.44031644000694" lon="10.936161380961279"><ele>159.0</ele><time>2026-04-25T14:05:12.952Z</time></trkpt><trkpt lat="44.44010617560508" lon="10.935997728536595"><ele>156.0</ele><time>2026-04-25T14:05:13.952Z</time></trkpt><trkpt lat="44.439907594051284" lon="10.935845002397748"><ele>157.33333333333334</ele><time>2026-04-25T14:05:14.952Z</time></trkpt><trkpt lat="44.43971966767278" lon="10.935695621580916"><ele>158.66666666666669</ele><time>2026-04-25T14:05:15.952Z</time></trkpt><trkpt lat="44.43954427680874" lon="10.93554918894153"><ele>160.0</ele><time>2026-04-25T14:05:16.952Z</time></trkpt><trkpt lat="44.43938518888943" lon="10.935396156360264"><ele>160.0</ele><time>2026-04-25T14:05:17.952Z</time></trkpt><trkpt lat="44.439240727571956" lon="10.935233008782147"><ele>160.0</ele><time>2026-04-25T14:05:18.952Z</time></trkpt><trkpt lat="44.43910500429229" lon="10.935044277778912"><ele>160.0</ele><time>2026-04-25T14:05:19.952Z</time></trkpt><trkpt lat="44.438979525273645" lon="10.93483773346124"><ele>159.66666666666669</ele><time>2026-04-25T14:05:20.952Z</time></trkpt><trkpt lat="44.43884969880377" lon="10.934612144974295"><ele>159.33333333333334</ele><time>2026-04-25T14:05:21.952Z</time></trkpt><trkpt lat="44.43871349840549" lon="10.934378307996893"><ele>159.0</ele><time>2026-04-25T14:05:22.952Z</time></trkpt><trkpt lat="44.43856484561379" lon="10.934121573740269"><ele>161.5</ele><time>2026-04-25T14:05:23.952Z</time></trkpt><trkpt lat="44.43841774571407" lon="10.933831060094324"><ele>164.0</ele><time>2026-04-25T14:05:24.952Z</time></trkpt><trkpt lat="44.43826133105109" lon="10.933545852253896"><ele>162.0</ele><time>2026-04-25T14:05:25.952Z</time></trkpt><trkpt lat="44.43808466752157" lon="10.933281981587305"><ele>160.0</ele><time>2026-04-25T14:05:26.952Z</time></trkpt><trkpt lat="44.43788493030937" lon="10.933047105108676"><ele>160.0</ele><time>2026-04-25T14:05:27.952Z</time></trkpt><trkpt lat="44.437663082637364" lon="10.93283657227364"><ele>160.0</ele><time>2026-04-25T14:05:28.952Z</time></trkpt><trkpt lat="44.43742896971094" lon="10.932657223787256"><ele>161.0</ele><time>2026-04-25T14:05:29.952Z</time></trkpt><trkpt lat="44.437184189940076" lon="10.932477218033972"><ele>162.0</ele><time>2026-04-25T14:05:30.952Z</time></trkpt><trkpt lat="44.436946361255075" lon="10.932291194511368"><ele>162.0</ele><time>2026-04-25T14:05:31.952Z</time></trkpt><trkpt lat="44.43670227891906" lon="10.93210043612786"><ele>162.0</ele><time>2026-04-25T14:05:32.952Z</time></trkpt><trkpt lat="44.4364517890527" lon="10.931898809850404"><ele>164.0</ele><time>2026-04-25T14:05:33.952Z</time></trkpt><trkpt lat="44.43620302083823" lon="10.931696336269034"><ele>166.0</ele><time>2026-04-25T14:05:34.952Z</time></trkpt><trkpt lat="44.435951856854054" lon="10.931489769243912"><ele>166.0</ele><time>2026-04-25T14:05:35.952Z</time></trkpt><trkpt lat="44.435699858434454" lon="10.931281606810305"><ele>166.0</ele><time>2026-04-25T14:05:36.952Z</time></trkpt><trkpt lat="44.43544952906034" lon="10.93107517701394"><ele>166.0</ele><time>2026-04-25T14:05:37.951Z</time></trkpt><trkpt lat="44.435203278850764" lon="10.930877434286513"><ele>166.0</ele><time>2026-04-25T14:05:38.951Z</time></trkpt><trkpt lat="44.434956080728746" lon="10.930675460342473"><ele>166.0</ele><time>2026-04-25T14:05:39.952Z</time></trkpt><trkpt lat="44.43470940441905" lon="10.930471017668445"><ele>166.0</ele><time>2026-04-25T14:05:40.952Z</time></trkpt><trkpt lat="44.434462398992586" lon="10.930264880564485"><ele>166.0</ele><time>2026-04-25T14:05:41.952Z</time></trkpt><trkpt lat="44.43421874673784" lon="10.930061955336157"><ele>166.0</ele><time>2026-04-25T14:05:42.952Z</time></trkpt><trkpt lat="44.433978084200945" lon="10.929862241315629"><ele>164.5</ele><time>2026-04-25T14:05:43.952Z</time></trkpt><trkpt lat="44.43374232357545" lon="10.929682123626968"><ele>163.0</ele><time>2026-04-25T14:05:44.952Z</time></trkpt><trkpt lat="44.4335063564005" lon="10.929522011805645"><ele>163.0</ele><time>2026-04-25T14:05:45.952Z</time></trkpt><trkpt lat="44.4332684188733" lon="10.92937492268026"><ele>163.0</ele><time>2026-04-25T14:05:46.952Z</time></trkpt><trkpt lat="44.43302728646326" lon="10.929242871956829"><ele>166.0</ele><time>2026-04-25T14:05:47.952Z</time></trkpt><trkpt lat="44.43278403541068" lon="10.929112827010842"><ele>169.0</ele><time>2026-04-25T14:05:48.952Z</time></trkpt><trkpt lat="44.43253677209128" lon="10.928987629576898"><ele>169.0</ele><time>2026-04-25T14:05:49.952Z</time></trkpt><trkpt lat="44.43229189549423" lon="10.928869453510186"><ele>169.0</ele><time>2026-04-25T14:05:50.952Z</time></trkpt><trkpt lat="44.432047761620964" lon="10.9287521740005"><ele>167.0</ele><time>2026-04-25T14:05:51.952Z</time></trkpt><trkpt lat="44.43180111448725" lon="10.92863744548662"><ele>165.0</ele><time>2026-04-25T14:05:52.952Z</time></trkpt><trkpt lat="44.43156619980861" lon="10.928520526876554"><ele>165.0</ele><time>2026-04-25T14:05:53.952Z</time></trkpt><trkpt lat="44.43134621093389" lon="10.928402651763939"><ele>165.0</ele><time>2026-04-25T14:05:54.952Z</time></trkpt><trkpt lat="44.4311349921357" lon="10.92829502400881"><ele>166.5</ele><time>2026-04-25T14:05:55.952Z</time></trkpt><trkpt lat="44.430927214668465" lon="10.92816784873742"><ele>168.0</ele><time>2026-04-25T14:05:56.952Z</time></trkpt><trkpt lat="44.43072497109224" lon="10.92801453676968"><ele>168.0</ele><time>2026-04-25T14:05:57.952Z</time></trkpt><trkpt lat="44.43053027904117" lon="10.927836069355704"><ele>168.0</ele><time>2026-04-25T14:05:58.952Z</time></trkpt><trkpt lat="44.430347294275755" lon="10.92764826217723"><ele>168.0</ele><time>2026-04-25T14:05:59.952Z</time></trkpt><trkpt lat="44.43018764253588" lon="10.927423303051656"><ele>168.0</ele><time>2026-04-25T14:06:00.952Z</time></trkpt><trkpt lat="44.43004388583135" lon="10.927179723958023"><ele>168.0</ele><time>2026-04-25T14:06:01.952Z</time></trkpt><trkpt lat="44.429928133587225" lon="10.926887889417566"><ele>168.0</ele><time>2026-04-25T14:06:02.952Z</time></trkpt><trkpt lat="44.429820714922556" lon="10.926587915191412"><ele>167.5</ele><time>2026-04-25T14:06:03.952Z</time></trkpt><trkpt lat="44.429712317193875" lon="10.926296428249145"><ele>167.0</ele><time>2026-04-25T14:06:04.952Z</time></trkpt><trkpt lat="44.42960996281056" lon="10.925998705749382"><ele>167.33333333333331</ele><time>2026-04-25T14:06:05.952Z</time></trkpt><trkpt lat="44.42951296974902" lon="10.925736873936614"><ele>167.66666666666666</ele><time>2026-04-25T14:06:06.952Z</time></trkpt><trkpt lat="44.429409309922754" lon="10.925499267259259"><ele>168.0</ele><time>2026-04-25T14:06:07.952Z</time></trkpt><trkpt lat="44.429300016732824" lon="10.925280846633408"><ele>168.0</ele><time>2026-04-25T14:06:08.952Z</time></trkpt><trkpt lat="44.42916923951359" lon="10.925099586379186"><ele>168.0</ele><time>2026-04-25T14:06:09.952Z</time></trkpt><trkpt lat="44.429015537916705" lon="10.92496178229908"><ele>168.0</ele><time>2026-04-25T14:06:10.952Z</time></trkpt><trkpt lat="44.4288474079428" lon="10.924853592479858"><ele>168.0</ele><time>2026-04-25T14:06:11.952Z</time></trkpt><trkpt lat="44.42866165144946" lon="10.924782696199912"><ele>168.0</ele><time>2026-04-25T14:06:12.952Z</time></trkpt><trkpt lat="44.428468769241114" lon="10.924727989774096"><ele>168.0</ele><time>2026-04-25T14:06:13.952Z</time></trkpt><trkpt lat="44.428270786178196" lon="10.924682683957975"><ele>168.0</ele><time>2026-04-25T14:06:14.952Z</time></trkpt><trkpt lat="44.42806729733731" lon="10.92464136472914"><ele>168.0</ele><time>2026-04-25T14:06:15.952Z</time></trkpt><trkpt lat="44.427858078533966" lon="10.924602286092727"><ele>168.0</ele><time>2026-04-25T14:06:16.952Z</time></trkpt><trkpt lat="44.427648541314475" lon="10.924556129051595"><ele>167.33333333333334</ele><time>2026-04-25T14:06:17.952Z</time></trkpt><trkpt lat="44.4274300517751" lon="10.924533106961121"><ele>166.66666666666669</ele><time>2026-04-25T14:06:18.952Z</time></trkpt><trkpt lat="44.42721472174346" lon="10.924473074613976"><ele>166.0</ele><time>2026-04-25T14:06:19.952Z</time></trkpt><trkpt lat="44.42699400076486" lon="10.924436021016108"><ele>166.0</ele><time>2026-04-25T14:06:20.952Z</time></trkpt><trkpt lat="44.42677344224313" lon="10.92439870020457"><ele>166.0</ele><time>2026-04-25T14:06:21.952Z</time></trkpt><trkpt lat="44.42654893711923" lon="10.92436118971836"><ele>166.0</ele><time>2026-04-25T14:06:22.952Z</time></trkpt><trkpt lat="44.42632218127796" lon="10.924349314950042"><ele>166.5</ele><time>2026-04-25T14:06:23.952Z</time></trkpt><trkpt lat="44.42609747745191" lon="10.92430878303937"><ele>167.0</ele><time>2026-04-25T14:06:24.952Z</time></trkpt><trkpt lat="44.42587120317725" lon="10.924269889791125"><ele>167.5</ele><time>2026-04-25T14:06:25.952Z</time></trkpt><trkpt lat="44.42564193787315" lon="10.924229013963284"><ele>168.0</ele><time>2026-04-25T14:06:26.952Z</time></trkpt><trkpt lat="44.42541068248657" lon="10.924184039978899"><ele>169.0</ele><time>2026-04-25T14:06:27.952Z</time></trkpt><trkpt lat="44.42518640521273" lon="10.924081415603746"><ele>170.0</ele><time>2026-04-25T14:06:28.952Z</time></trkpt><trkpt lat="44.42493113719614" lon="10.92410961530459"><ele>170.0</ele><time>2026-04-25T14:06:29.952Z</time></trkpt><trkpt lat="44.424691297411144" lon="10.924078283988306"><ele>170.0</ele><time>2026-04-25T14:06:30.952Z</time></trkpt><trkpt lat="44.42444560601341" lon="10.924068388160824"><ele>171.5</ele><time>2026-04-25T14:06:31.952Z</time></trkpt><trkpt lat="44.424202789499915" lon="10.924095876409371"><ele>173.0</ele><time>2026-04-25T14:06:32.952Z</time></trkpt><trkpt lat="44.42397211424566" lon="10.92412605435851"><ele>172.5</ele><time>2026-04-25T14:06:33.952Z</time></trkpt><trkpt lat="44.42374019528605" lon="10.924159630398858"><ele>172.0</ele><time>2026-04-25T14:06:34.952Z</time></trkpt><trkpt lat="44.42350268782115" lon="10.924205158442996"><ele>170.0</ele><time>2026-04-25T14:06:35.952Z</time></trkpt><trkpt lat="44.42326758191979" lon="10.924248536083066"><ele>168.0</ele><time>2026-04-25T14:06:36.952Z</time></trkpt><trkpt lat="44.42303468098788" lon="10.924272847455402"><ele>168.5</ele><time>2026-04-25T14:06:37.952Z</time></trkpt><trkpt lat="44.422798242144395" lon="10.924286935487515"><ele>169.0</ele><time>2026-04-25T14:06:38.952Z</time></trkpt><trkpt lat="44.422567297343114" lon="10.924279908333238"><ele>169.0</ele><time>2026-04-25T14:06:39.952Z</time></trkpt><trkpt lat="44.42233731369336" lon="10.924265627338992"><ele>169.0</ele><time>2026-04-25T14:06:40.952Z</time></trkpt><trkpt lat="44.422128781438886" lon="10.92422621153716"><ele>169.0</ele><time>2026-04-25T14:06:41.952Z</time></trkpt><trkpt lat="44.42190671133941" lon="10.92415900143991"><ele>169.66666666666669</ele><time>2026-04-25T14:06:42.952Z</time></trkpt><trkpt lat="44.42170692212969" lon="10.92409971425403"><ele>170.33333333333334</ele><time>2026-04-25T14:06:43.952Z</time></trkpt><trkpt lat="44.42147395523845" lon="10.924047855378886"><ele>171.0</ele><time>2026-04-25T14:06:44.952Z</time></trkpt><trkpt lat="44.421286951777134" lon="10.923988840924586"><ele>171.0</ele><time>2026-04-25T14:06:45.952Z</time></trkpt><trkpt lat="44.421101555486224" lon="10.923928467405338"><ele>171.0</ele><time>2026-04-25T14:06:46.952Z</time></trkpt><trkpt lat="44.420915121704724" lon="10.923865536297082"><ele>171.0</ele><time>2026-04-25T14:06:47.952Z</time></trkpt><trkpt lat="44.420729100803314" lon="10.923802993445763"><ele>171.0</ele><time>2026-04-25T14:06:48.952Z</time></trkpt><trkpt lat="44.420546940030704" lon="10.923741970905114"><ele>171.0</ele><time>2026-04-25T14:06:49.952Z</time></trkpt><trkpt lat="44.42036738058126" lon="10.923678192111627"><ele>171.0</ele><time>2026-04-25T14:06:50.952Z</time></trkpt><trkpt lat="44.420201144652644" lon="10.923605928492028"><ele>170.25</ele><time>2026-04-25T14:06:51.952Z</time></trkpt><trkpt lat="44.420051650566485" lon="10.923532116432584"><ele>169.5</ele><time>2026-04-25T14:06:52.952Z</time></trkpt><trkpt lat="44.41991087342777" lon="10.92346644797319"><ele>168.75</ele><time>2026-04-25T14:06:53.952Z</time></trkpt><trkpt lat="44.419781647407014" lon="10.923403680182668"><ele>168.0</ele><time>2026-04-25T14:06:54.952Z</time></trkpt><trkpt lat="44.41965716880905" lon="10.92334184994552"><ele>169.5</ele><time>2026-04-25T14:06:55.952Z</time></trkpt><trkpt lat="44.41953474078953" lon="10.923277099532813"><ele>171.0</ele><time>2026-04-25T14:06:56.952Z</time></trkpt><trkpt lat="44.41941841213374" lon="10.923204495836721"><ele>172.5</ele><time>2026-04-25T14:06:57.952Z</time></trkpt><trkpt lat="44.41930077358188" lon="10.923127850083276"><ele>174.0</ele><time>2026-04-25T14:06:58.952Z</time></trkpt><trkpt lat="44.4191813321965" lon="10.923042638757842"><ele>174.0</ele><time>2026-04-25T14:06:59.952Z</time></trkpt><trkpt lat="44.41906164015301" lon="10.922943975733757"><ele>174.0</ele><time>2026-04-25T14:07:00.952Z</time></trkpt><trkpt lat="44.41894356232439" lon="10.922831698584572"><ele>174.0</ele><time>2026-04-25T14:07:01.952Z</time></trkpt><trkpt lat="44.418831950215846" lon="10.92269972707713"><ele>174.0</ele><time>2026-04-25T14:07:02.952Z</time></trkpt><trkpt lat="44.41872994787129" lon="10.922550386503863"><ele>174.66666666666666</ele><time>2026-04-25T14:07:03.952Z</time></trkpt><trkpt lat="44.418631613366244" lon="10.922389964614755"><ele>175.33333333333331</ele><time>2026-04-25T14:07:04.952Z</time></trkpt><trkpt lat="44.4185343681461" lon="10.922226128659267"><ele>176.0</ele><time>2026-04-25T14:07:05.952Z</time></trkpt><trkpt lat="44.418462459759084" lon="10.922012284086737"><ele>176.0</ele><time>2026-04-25T14:07:06.952Z</time></trkpt><trkpt lat="44.418358029854325" lon="10.921848351914303"><ele>176.0</ele><time>2026-04-25T14:07:07.952Z</time></trkpt><trkpt lat="44.41823506976857" lon="10.921708035357996"><ele>176.0</ele><time>2026-04-25T14:07:08.952Z</time></trkpt><trkpt lat="44.418104969046844" lon="10.921565898075032"><ele>176.66666666666666</ele><time>2026-04-25T14:07:09.952Z</time></trkpt><trkpt lat="44.417993501041025" lon="10.92142253427201"><ele>177.33333333333334</ele><time>2026-04-25T14:07:10.952Z</time></trkpt><trkpt lat="44.41787284104652" lon="10.921299340851595"><ele>178.0</ele><time>2026-04-25T14:07:11.952Z</time></trkpt><trkpt lat="44.417754048374" lon="10.921172574996213"><ele>178.0</ele><time>2026-04-25T14:07:12.952Z</time></trkpt><trkpt lat="44.41762462548841" lon="10.921051827030713"><ele>178.0</ele><time>2026-04-25T14:07:13.952Z</time></trkpt><trkpt lat="44.41751409064573" lon="10.92091973390356"><ele>178.0</ele><time>2026-04-25T14:07:14.952Z</time></trkpt><trkpt lat="44.41740391549355" lon="10.920799561092188"><ele>178.0</ele><time>2026-04-25T14:07:15.952Z</time></trkpt><trkpt lat="44.41729145050996" lon="10.920693761583887"><ele>178.5</ele><time>2026-04-25T14:07:16.952Z</time></trkpt><trkpt lat="44.417145229231444" lon="10.920643382181636"><ele>179.0</ele><time>2026-04-25T14:07:17.952Z</time></trkpt><trkpt lat="44.417005052949165" lon="10.920586886789781"><ele>179.5</ele><time>2026-04-25T14:07:18.952Z</time></trkpt><trkpt lat="44.41685842918991" lon="10.920546259255696"><ele>180.0</ele><time>2026-04-25T14:07:19.952Z</time></trkpt><trkpt lat="44.416711735914355" lon="10.92050894276795"><ele>180.0</ele><time>2026-04-25T14:07:20.952Z</time></trkpt><trkpt lat="44.41657067848179" lon="10.920453300905958"><ele>180.0</ele><time>2026-04-25T14:07:21.952Z</time></trkpt><trkpt lat="44.41642973754838" lon="10.92039624321301"><ele>180.0</ele><time>2026-04-25T14:07:22.952Z</time></trkpt><trkpt lat="44.416293519741316" lon="10.920343429703857"><ele>180.0</ele><time>2026-04-25T14:07:23.952Z</time></trkpt><trkpt lat="44.416155158943376" lon="10.920258167162544"><ele>180.25</ele><time>2026-04-25T14:07:24.952Z</time></trkpt><trkpt lat="44.41603923368298" lon="10.920133804084838"><ele>180.5</ele><time>2026-04-25T14:07:25.952Z</time></trkpt><trkpt lat="44.41594234315954" lon="10.919980233216695"><ele>180.75</ele><time>2026-04-25T14:07:26.952Z</time></trkpt><trkpt lat="44.41585719619364" lon="10.919816283274022"><ele>181.0</ele><time>2026-04-25T14:07:27.952Z</time></trkpt><trkpt lat="44.41577450001025" lon="10.919640153532415"><ele>181.0</ele><time>2026-04-25T14:07:28.952Z</time></trkpt><trkpt lat="44.415683087871344" lon="10.919473302413673"><ele>181.0</ele><time>2026-04-25T14:07:29.952Z</time></trkpt><trkpt lat="44.41556562323358" lon="10.919349946928351"><ele>181.0</ele><time>2026-04-25T14:07:30.952Z</time></trkpt><trkpt lat="44.415437452190595" lon="10.919261740005728"><ele>181.0</ele><time>2026-04-25T14:07:31.952Z</time></trkpt><trkpt lat="44.41529263829665" lon="10.91920026489865"><ele>180.66666666666669</ele><time>2026-04-25T14:07:32.952Z</time></trkpt><trkpt lat="44.415137747459056" lon="10.919160469264071"><ele>180.33333333333334</ele><time>2026-04-25T14:07:33.952Z</time></trkpt><trkpt lat="44.414980984760334" lon="10.91912823267174"><ele>180.0</ele><time>2026-04-25T14:07:34.952Z</time></trkpt><trkpt lat="44.414834902821966" lon="10.919078200032953"><ele>180.0</ele><time>2026-04-25T14:07:35.952Z</time></trkpt><trkpt lat="44.41470108598087" lon="10.91904013566317"><ele>180.0</ele><time>2026-04-25T14:07:36.952Z</time></trkpt><trkpt lat="44.41458060898345" lon="10.919055437934563"><ele>180.0</ele><time>2026-04-25T14:07:37.951Z</time></trkpt><trkpt lat="44.41448998952621" lon="10.919142589999241"><ele>180.0</ele><time>2026-04-25T14:07:38.951Z</time></trkpt><trkpt lat="44.414437772264826" lon="10.919283189847967"><ele>185.0</ele><time>2026-04-25T14:07:39.952Z</time></trkpt><trkpt lat="44.41441182044661" lon="10.919451300223965"><ele>190.0</ele><time>2026-04-25T14:07:40.951Z</time></trkpt><trkpt lat="44.41441853774835" lon="10.919650190626689"><ele>195.0</ele><time>2026-04-25T14:07:41.951Z</time></trkpt><trkpt lat="44.414389692669516" lon="10.919834513306188"><ele>200.0</ele><time>2026-04-25T14:07:42.952Z</time></trkpt><trkpt lat="44.41435464552074" lon="10.920008302531613"><ele>197.25</ele><time>2026-04-25T14:07:43.952Z</time></trkpt><trkpt lat="44.414310194951426" lon="10.920171336493159"><ele>194.5</ele><time>2026-04-25T14:07:44.952Z</time></trkpt><trkpt lat="44.414277564716244" lon="10.920348245209754"><ele>191.75</ele><time>2026-04-25T14:07:45.952Z</time></trkpt><trkpt lat="44.414212487203656" lon="10.920496783736457"><ele>189.0</ele><time>2026-04-25T14:07:46.952Z</time></trkpt><trkpt lat="44.41414729873119" lon="10.92064748011244"><ele>189.0</ele><time>2026-04-25T14:07:47.952Z</time></trkpt><trkpt lat="44.41405356071471" lon="10.920762772306414"><ele>189.0</ele><time>2026-04-25T14:07:48.952Z</time></trkpt><trkpt lat="44.413938693411055" lon="10.920843880079628"><ele>189.0</ele><time>2026-04-25T14:07:49.952Z</time></trkpt><trkpt lat="44.413815467097066" lon="10.920937104700686"><ele>189.0</ele><time>2026-04-25T14:07:50.952Z</time></trkpt><trkpt lat="44.413695804813145" lon="10.921039838868458"><ele>188.75</ele><time>2026-04-25T14:07:51.952Z</time></trkpt><trkpt lat="44.413581064536125" lon="10.921131147461683"><ele>188.5</ele><time>2026-04-25T14:07:52.952Z</time></trkpt><trkpt lat="44.41346195845058" lon="10.921176089636624"><ele>188.25</ele><time>2026-04-25T14:07:53.952Z</time></trkpt><trkpt lat="44.41333661755452" lon="10.921165692958382"><ele>188.0</ele><time>2026-04-25T14:07:54.952Z</time></trkpt><trkpt lat="44.41320864286273" lon="10.921143096031752"><ele>188.0</ele><time>2026-04-25T14:07:55.952Z</time></trkpt><trkpt lat="44.413077553266156" lon="10.921081506956863"><ele>188.0</ele><time>2026-04-25T14:07:56.952Z</time></trkpt><trkpt lat="44.41294801406616" lon="10.921020520133597"><ele>188.0</ele><time>2026-04-25T14:07:57.952Z</time></trkpt><trkpt lat="44.41281833835891" lon="10.920964722754134"><ele>188.0</ele><time>2026-04-25T14:07:58.952Z</time></trkpt><trkpt lat="44.41268120781885" lon="10.92092497896095"><ele>191.75</ele><time>2026-04-25T14:07:59.952Z</time></trkpt><trkpt lat="44.412545760192565" lon="10.920878410440634"><ele>195.5</ele><time>2026-04-25T14:08:00.952Z</time></trkpt><trkpt lat="44.41242990351301" lon="10.920792816426808"><ele>199.25</ele><time>2026-04-25T14:08:01.952Z</time></trkpt><trkpt lat="44.41231382846189" lon="10.920718339866156"><ele>203.0</ele><time>2026-04-25T14:08:02.952Z</time></trkpt><trkpt lat="44.41219227415059" lon="10.920664735026817"><ele>202.5</ele><time>2026-04-25T14:08:03.952Z</time></trkpt><trkpt lat="44.412072385146" lon="10.920603002354161"><ele>202.0</ele><time>2026-04-25T14:08:04.952Z</time></trkpt><trkpt lat="44.41194201126361" lon="10.920591397433334"><ele>201.5</ele><time>2026-04-25T14:08:05.952Z</time></trkpt><trkpt lat="44.411813618122" lon="10.920644620245989"><ele>201.0</ele><time>2026-04-25T14:08:06.952Z</time></trkpt><trkpt lat="44.411687140075934" lon="10.920756442673902"><ele>200.0</ele><time>2026-04-25T14:08:07.952Z</time></trkpt><trkpt lat="44.41156708585311" lon="10.92090807059676"><ele>199.0</ele><time>2026-04-25T14:08:08.952Z</time></trkpt><trkpt lat="44.41145695184798" lon="10.921070304019034"><ele>198.0</ele><time>2026-04-25T14:08:09.952Z</time></trkpt><trkpt lat="44.411333517670755" lon="10.921226814666712"><ele>197.66666666666669</ele><time>2026-04-25T14:08:10.952Z</time></trkpt><trkpt lat="44.41120309425108" lon="10.921358067079867"><ele>197.33333333333334</ele><time>2026-04-25T14:08:11.952Z</time></trkpt><trkpt lat="44.41110580648892" lon="10.921523579161672"><ele>197.0</ele><time>2026-04-25T14:08:12.952Z</time></trkpt><trkpt lat="44.41099280813999" lon="10.92163967727512"><ele>197.0</ele><time>2026-04-25T14:08:13.952Z</time></trkpt><trkpt lat="44.41086583288852" lon="10.921714146928934"><ele>197.0</ele><time>2026-04-25T14:08:14.952Z</time></trkpt><trkpt lat="44.41071621925588" lon="10.921728353135455"><ele>197.0</ele><time>2026-04-25T14:08:15.952Z</time></trkpt><trkpt lat="44.410571652688226" lon="10.921655113942807"><ele>197.0</ele><time>2026-04-25T14:08:16.952Z</time></trkpt><trkpt lat="44.41044101314079" lon="10.92156261242259"><ele>193.33333333333334</ele><time>2026-04-25T14:08:17.952Z</time></trkpt><trkpt lat="44.410332795507955" lon="10.921411325724456"><ele>189.66666666666669</ele><time>2026-04-25T14:08:18.952Z</time></trkpt><trkpt lat="44.410249225597376" lon="10.921237702685962"><ele>186.0</ele><time>2026-04-25T14:08:19.952Z</time></trkpt><trkpt lat="44.410142161320564" lon="10.921041458579719"><ele>189.33333333333331</ele><time>2026-04-25T14:08:20.952Z</time></trkpt><trkpt lat="44.41006555319916" lon="10.920839500294273"><ele>192.66666666666666</ele><time>2026-04-25T14:08:21.952Z</time></trkpt><trkpt lat="44.409965036838926" lon="10.920690418151855"><ele>196.0</ele><time>2026-04-25T14:08:22.952Z</time></trkpt><trkpt lat="44.409834412907124" lon="10.920576199783353"><ele>196.0</ele><time>2026-04-25T14:08:23.952Z</time></trkpt><trkpt lat="44.40967187473834" lon="10.920532109885414"><ele>196.0</ele><time>2026-04-25T14:08:24.952Z</time></trkpt><trkpt lat="44.40950319222939" lon="10.920522051856087"><ele>196.0</ele><time>2026-04-25T14:08:25.952Z</time></trkpt><trkpt lat="44.40932669833403" lon="10.92055147606569"><ele>194.33333333333331</ele><time>2026-04-25T14:08:26.952Z</time></trkpt><trkpt lat="44.40916745572682" lon="10.920586140794871"><ele>192.66666666666666</ele><time>2026-04-25T14:08:27.952Z</time></trkpt><trkpt lat="44.40901560950967" lon="10.920621857559082"><ele>191.0</ele><time>2026-04-25T14:08:28.952Z</time></trkpt><trkpt lat="44.40886062512171" lon="10.92065873076366"><ele>192.33333333333331</ele><time>2026-04-25T14:08:29.952Z</time></trkpt><trkpt lat="44.408705120892456" lon="10.920692175424518"><ele>193.66666666666666</ele><time>2026-04-25T14:08:30.952Z</time></trkpt><trkpt lat="44.4085443986149" lon="10.920720592429"><ele>195.0</ele><time>2026-04-25T14:08:31.952Z</time></trkpt><trkpt lat="44.40837481589176" lon="10.920750479443772"><ele>195.0</ele><time>2026-04-25T14:08:32.952Z</time></trkpt><trkpt lat="44.40818085534115" lon="10.920733282519118"><ele>195.0</ele><time>2026-04-25T14:08:33.952Z</time></trkpt><trkpt lat="44.40794784454402" lon="10.920735990162818"><ele>195.0</ele><time>2026-04-25T14:08:34.952Z</time></trkpt><trkpt lat="44.40769955099893" lon="10.920752506217829"><ele>194.66666666666669</ele><time>2026-04-25T14:08:35.952Z</time></trkpt><trkpt lat="44.40747443183099" lon="10.920731593194535"><ele>194.33333333333334</ele><time>2026-04-25T14:08:36.952Z</time></trkpt><trkpt lat="44.40726158779896" lon="10.920658656242686"><ele>194.0</ele><time>2026-04-25T14:08:37.952Z</time></trkpt><trkpt lat="44.40703513780441" lon="10.920498363423407"><ele>190.5</ele><time>2026-04-25T14:08:38.952Z</time></trkpt><trkpt lat="44.40676820878612" lon="10.920334210820608"><ele>187.0</ele><time>2026-04-25T14:08:39.952Z</time></trkpt><trkpt lat="44.406471719807975" lon="10.920217335900608"><ele>186.0</ele><time>2026-04-25T14:08:40.952Z</time></trkpt><trkpt lat="44.40616406989798" lon="10.920143307958854"><ele>185.0</ele><time>2026-04-25T14:08:41.952Z</time></trkpt><trkpt lat="44.40587692318658" lon="10.920093520551243"><ele>191.0</ele><time>2026-04-25T14:08:42.952Z</time></trkpt><trkpt lat="44.40562739328012" lon="10.920063668789593"><ele>197.0</ele><time>2026-04-25T14:08:43.952Z</time></trkpt><trkpt lat="44.405390902636256" lon="10.920058726817176"><ele>193.33333333333334</ele><time>2026-04-25T14:08:44.952Z</time></trkpt><trkpt lat="44.40516745147759" lon="10.920101640516531"><ele>189.66666666666669</ele><time>2026-04-25T14:08:45.952Z</time></trkpt><trkpt lat="44.404977734875615" lon="10.920151212337998"><ele>186.0</ele><time>2026-04-25T14:08:46.952Z</time></trkpt><trkpt lat="44.40480570487516" lon="10.92020094033317"><ele>186.5</ele><time>2026-04-25T14:08:47.952Z</time></trkpt><trkpt lat="44.40465860784622" lon="10.920230371662626"><ele>187.0</ele><time>2026-04-25T14:08:48.952Z</time></trkpt><trkpt lat="44.40452429111954" lon="10.920250178822261"><ele>187.5</ele><time>2026-04-25T14:08:49.952Z</time></trkpt><trkpt lat="44.40438969841264" lon="10.9203012193692"><ele>188.0</ele><time>2026-04-25T14:08:50.952Z</time></trkpt><trkpt lat="44.40424144574358" lon="10.920442482633748"><ele>188.0</ele><time>2026-04-25T14:08:51.952Z</time></trkpt><trkpt lat="44.40405872211591" lon="10.9206750599754"><ele>188.0</ele><time>2026-04-25T14:08:52.952Z</time></trkpt><trkpt lat="44.403846151932264" lon="10.920909683386085"><ele>187.66666666666666</ele><time>2026-04-25T14:08:53.952Z</time></trkpt><trkpt lat="44.40364426495281" lon="10.921100528042977"><ele>187.33333333333334</ele><time>2026-04-25T14:08:54.952Z</time></trkpt><trkpt lat="44.403466185419965" lon="10.921213156825656"><ele>187.0</ele><time>2026-04-25T14:08:55.952Z</time></trkpt><trkpt lat="44.403291122263376" lon="10.921250320624731"><ele>187.0</ele><time>2026-04-25T14:08:56.952Z</time></trkpt><trkpt lat="44.40307774571459" lon="10.921237922859152"><ele>187.0</ele><time>2026-04-25T14:08:57.952Z</time></trkpt><trkpt lat="44.4028231690384" lon="10.921228257240648"><ele>185.5</ele><time>2026-04-25T14:08:58.952Z</time></trkpt><trkpt lat="44.4025532331751" lon="10.921210122867183"><ele>184.0</ele><time>2026-04-25T14:08:59.952Z</time></trkpt><trkpt lat="44.40228088530346" lon="10.921202177255866"><ele>184.5</ele><time>2026-04-25T14:09:00.952Z</time></trkpt><trkpt lat="44.40200800573812" lon="10.921228013139197"><ele>185.0</ele><time>2026-04-25T14:09:01.952Z</time></trkpt><trkpt lat="44.401753725476304" lon="10.921273788596512"><ele>185.0</ele><time>2026-04-25T14:09:02.952Z</time></trkpt><trkpt lat="44.4015188545437" lon="10.921318465042264"><ele>185.0</ele><time>2026-04-25T14:09:03.952Z</time></trkpt><trkpt lat="44.40129794884845" lon="10.921323817809984"><ele>185.0</ele><time>2026-04-25T14:09:04.952Z</time></trkpt><trkpt lat="44.401096093216694" lon="10.921278244172104"><ele>185.0</ele><time>2026-04-25T14:09:05.952Z</time></trkpt><trkpt lat="44.40091921554525" lon="10.921187432382425"><ele>185.0</ele><time>2026-04-25T14:09:06.952Z</time></trkpt><trkpt lat="44.40071400281829" lon="10.921069612007054"><ele>185.0</ele><time>2026-04-25T14:09:07.952Z</time></trkpt><trkpt lat="44.400526232321425" lon="10.920962184476425"><ele>185.0</ele><time>2026-04-25T14:09:08.952Z</time></trkpt><trkpt lat="44.40036795986152" lon="10.920888453995705"><ele>185.0</ele><time>2026-04-25T14:09:09.952Z</time></trkpt><trkpt lat="44.40023017619873" lon="10.9208005350479"><ele>186.0</ele><time>2026-04-25T14:09:10.952Z</time></trkpt><trkpt lat="44.40010707621615" lon="10.920711630150555"><ele>187.0</ele><time>2026-04-25T14:09:11.952Z</time></trkpt><trkpt lat="44.39999811064934" lon="10.920599170213828"><ele>188.0</ele><time>2026-04-25T14:09:12.952Z</time></trkpt><trkpt lat="44.399884464517285" lon="10.920504570508163"><ele>189.0</ele><time>2026-04-25T14:09:13.952Z</time></trkpt><trkpt lat="44.39978368288198" lon="10.920387517522453"><ele>189.0</ele><time>2026-04-25T14:09:14.952Z</time></trkpt><trkpt lat="44.39967788254371" lon="10.92027117830795"><ele>189.0</ele><time>2026-04-25T14:09:15.952Z</time></trkpt><trkpt lat="44.399547808416216" lon="10.920175963409049"><ele>189.0</ele><time>2026-04-25T14:09:16.952Z</time></trkpt><trkpt lat="44.399361265601875" lon="10.920060421459478"><ele>189.0</ele><time>2026-04-25T14:09:17.951Z</time></trkpt><trkpt lat="44.39913747962743" lon="10.919961940789042"><ele>189.0</ele><time>2026-04-25T14:09:18.951Z</time></trkpt><trkpt lat="44.398932829547036" lon="10.919883103952484"><ele>189.0</ele><time>2026-04-25T14:09:19.951Z</time></trkpt><trkpt lat="44.3987657910985" lon="10.919806579906199"><ele>189.0</ele><time>2026-04-25T14:09:20.951Z</time></trkpt><trkpt lat="44.39860674016093" lon="10.919734195611905"><ele>189.0</ele><time>2026-04-25T14:09:21.951Z</time></trkpt><trkpt lat="44.39847228529483" lon="10.919684030071886"><ele>189.0</ele><time>2026-04-25T14:09:22.951Z</time></trkpt><trkpt lat="44.39834773923337" lon="10.919637570039743"><ele>189.0</ele><time>2026-04-25T14:09:23.951Z</time></trkpt><trkpt lat="44.39821856395084" lon="10.91959201159012"><ele>189.0</ele><time>2026-04-25T14:09:24.951Z</time></trkpt><trkpt lat="44.39808392808103" lon="10.919535958938551"><ele>189.0</ele><time>2026-04-25T14:09:25.951Z</time></trkpt><trkpt lat="44.39794977914423" lon="10.91947149710011"><ele>189.0</ele><time>2026-04-25T14:09:26.951Z</time></trkpt><trkpt lat="44.39780714300583" lon="10.919439237865394"><ele>189.0</ele><time>2026-04-25T14:09:27.951Z</time></trkpt><trkpt lat="44.39762860269628" lon="10.919422651199962"><ele>189.66666666666666</ele><time>2026-04-25T14:09:28.951Z</time></trkpt><trkpt lat="44.39741647177225" lon="10.919485498083764"><ele>190.33333333333331</ele><time>2026-04-25T14:09:29.951Z</time></trkpt><trkpt lat="44.39723439645099" lon="10.919531582453708"><ele>191.0</ele><time>2026-04-25T14:09:30.951Z</time></trkpt><trkpt lat="44.39707215813991" lon="10.919540576666101"><ele>191.5</ele><time>2026-04-25T14:09:31.951Z</time></trkpt><trkpt lat="44.39692489427589" lon="10.919568003799085"><ele>192.0</ele><time>2026-04-25T14:09:32.951Z</time></trkpt><trkpt lat="44.396794323801835" lon="10.919555202885634"><ele>192.5</ele><time>2026-04-25T14:09:33.951Z</time></trkpt><trkpt lat="44.39665518878532" lon="10.919523183612444"><ele>193.0</ele><time>2026-04-25T14:09:34.951Z</time></trkpt><trkpt lat="44.39652166038804" lon="10.919470840265433"><ele>193.0</ele><time>2026-04-25T14:09:35.951Z</time></trkpt><trkpt lat="44.396393010551684" lon="10.91940275043365"><ele>193.0</ele><time>2026-04-25T14:09:36.951Z</time></trkpt><trkpt lat="44.39626548631839" lon="10.91932478443896"><ele>193.0</ele><time>2026-04-25T14:09:37.951Z</time></trkpt><trkpt lat="44.396141935240976" lon="10.91924165868516"><ele>193.0</ele><time>2026-04-25T14:09:38.951Z</time></trkpt><trkpt lat="44.39601783685844" lon="10.919169233214067"><ele>196.0</ele><time>2026-04-25T14:09:39.952Z</time></trkpt><trkpt lat="44.39589665072654" lon="10.919096622290567"><ele>199.0</ele><time>2026-04-25T14:09:40.952Z</time></trkpt><trkpt lat="44.395775226700756" lon="10.91901742835429"><ele>202.0</ele><time>2026-04-25T14:09:41.952Z</time></trkpt><trkpt lat="44.39564137367315" lon="10.918932161964543"><ele>205.0</ele><time>2026-04-25T14:09:42.952Z</time></trkpt><trkpt lat="44.395504685388815" lon="10.918827358780959"><ele>204.0</ele><time>2026-04-25T14:09:43.951Z</time></trkpt><trkpt lat="44.395365341475035" lon="10.918739400901176"><ele>203.0</ele><time>2026-04-25T14:09:44.951Z</time></trkpt><trkpt lat="44.39524254344766" lon="10.918670140768993"><ele>202.0</ele><time>2026-04-25T14:09:45.952Z</time></trkpt><trkpt lat="44.39511816253821" lon="10.918622043767854"><ele>201.0</ele><time>2026-04-25T14:09:46.952Z</time></trkpt><trkpt lat="44.394994945651966" lon="10.91857815248874"><ele>201.0</ele><time>2026-04-25T14:09:47.952Z</time></trkpt><trkpt lat="44.394870818810325" lon="10.9185374556135"><ele>201.0</ele><time>2026-04-25T14:09:48.952Z</time></trkpt><trkpt lat="44.39474471148373" lon="10.91848343351436"><ele>201.0</ele><time>2026-04-25T14:09:49.951Z</time></trkpt><trkpt lat="44.39461518409638" lon="10.918445922651912"><ele>201.0</ele><time>2026-04-25T14:09:50.951Z</time></trkpt><trkpt lat="44.39447353086384" lon="10.918401507721875"><ele>205.33333333333331</ele><time>2026-04-25T14:09:51.952Z</time></trkpt><trkpt lat="44.39432820508623" lon="10.918357156283534"><ele>209.66666666666666</ele><time>2026-04-25T14:09:52.952Z</time></trkpt><trkpt lat="44.39418162741219" lon="10.91829879837544"><ele>214.0</ele><time>2026-04-25T14:09:53.952Z</time></trkpt><trkpt lat="44.39403659580157" lon="10.918250239645108"><ele>214.0</ele><time>2026-04-25T14:09:54.952Z</time></trkpt><trkpt lat="44.39389002426328" lon="10.918201165299372"><ele>214.0</ele><time>2026-04-25T14:09:55.952Z</time></trkpt><trkpt lat="44.39375055612059" lon="10.918154469320598"><ele>214.0</ele><time>2026-04-25T14:09:56.952Z</time></trkpt><trkpt lat="44.393616690260835" lon="10.91811045226729"><ele>214.0</ele><time>2026-04-25T14:09:57.952Z</time></trkpt><trkpt lat="44.393481199798316" lon="10.918066013742147"><ele>212.25</ele><time>2026-04-25T14:09:58.952Z</time></trkpt><trkpt lat="44.39334162612534" lon="10.918034229253987"><ele>210.5</ele><time>2026-04-25T14:09:59.952Z</time></trkpt><trkpt lat="44.39320359526332" lon="10.917980478320688"><ele>208.75</ele><time>2026-04-25T14:10:00.952Z</time></trkpt><trkpt lat="44.393063001918755" lon="10.91792735488931"><ele>207.0</ele><time>2026-04-25T14:10:01.952Z</time></trkpt><trkpt lat="44.39291902670734" lon="10.917867998989086"><ele>205.0</ele><time>2026-04-25T14:10:02.952Z</time></trkpt><trkpt lat="44.39277354027988" lon="10.917817147474347"><ele>203.0</ele><time>2026-04-25T14:10:03.952Z</time></trkpt><trkpt lat="44.3926234586707" lon="10.917768159805869"><ele>201.0</ele><time>2026-04-25T14:10:04.952Z</time></trkpt><trkpt lat="44.39244737659973" lon="10.917712410593762"><ele>201.0</ele><time>2026-04-25T14:10:05.952Z</time></trkpt><trkpt lat="44.39223054525819" lon="10.917608430683998"><ele>201.0</ele><time>2026-04-25T14:10:06.952Z</time></trkpt><trkpt lat="44.391999515005026" lon="10.917530992031407"><ele>204.0</ele><time>2026-04-25T14:10:07.952Z</time></trkpt><trkpt lat="44.3917526880503" lon="10.9174107471805"><ele>207.0</ele><time>2026-04-25T14:10:08.952Z</time></trkpt><trkpt lat="44.39148010043666" lon="10.917302589912257"><ele>203.0</ele><time>2026-04-25T14:10:09.952Z</time></trkpt><trkpt lat="44.39120170771391" lon="10.917186853385513"><ele>199.0</ele><time>2026-04-25T14:10:10.952Z</time></trkpt><trkpt lat="44.39092155069951" lon="10.917080017242089"><ele>199.0</ele><time>2026-04-25T14:10:11.952Z</time></trkpt><trkpt lat="44.39066005367696" lon="10.916988976758258"><ele>199.0</ele><time>2026-04-25T14:10:12.952Z</time></trkpt><trkpt lat="44.39041337302595" lon="10.916880579741916"><ele>199.5</ele><time>2026-04-25T14:10:13.952Z</time></trkpt><trkpt lat="44.39017169968901" lon="10.916774500828103"><ele>200.0</ele><time>2026-04-25T14:10:14.952Z</time></trkpt><trkpt lat="44.38993745134584" lon="10.916659020746852"><ele>200.0</ele><time>2026-04-25T14:10:15.952Z</time></trkpt><trkpt lat="44.38971222261969" lon="10.916541918283475"><ele>200.0</ele><time>2026-04-25T14:10:16.952Z</time></trkpt><trkpt lat="44.389500135981244" lon="10.916425832885967"><ele>198.0</ele><time>2026-04-25T14:10:17.952Z</time></trkpt><trkpt lat="44.389303044383595" lon="10.916322024717243"><ele>196.0</ele><time>2026-04-25T14:10:18.952Z</time></trkpt><trkpt lat="44.38911675104971" lon="10.916219252395324"><ele>194.0</ele><time>2026-04-25T14:10:19.952Z</time></trkpt><trkpt lat="44.38894133673577" lon="10.9160977825567"><ele>194.33333333333334</ele><time>2026-04-25T14:10:20.952Z</time></trkpt><trkpt lat="44.38875849008728" lon="10.915953697043959"><ele>194.66666666666669</ele><time>2026-04-25T14:10:21.952Z</time></trkpt><trkpt lat="44.38857587512477" lon="10.91578961695218"><ele>195.0</ele><time>2026-04-25T14:10:22.952Z</time></trkpt><trkpt lat="44.38839251121501" lon="10.915622647017969"><ele>195.0</ele><time>2026-04-25T14:10:23.952Z</time></trkpt><trkpt lat="44.38820219951883" lon="10.915445267190886"><ele>195.0</ele><time>2026-04-25T14:10:24.952Z</time></trkpt><trkpt lat="44.38800837725498" lon="10.915256093518408"><ele>195.0</ele><time>2026-04-25T14:10:25.952Z</time></trkpt><trkpt lat="44.38781203930988" lon="10.915065468257456"><ele>195.0</ele><time>2026-04-25T14:10:26.952Z</time></trkpt><trkpt lat="44.38761126083719" lon="10.914875442060563"><ele>195.0</ele><time>2026-04-25T14:10:27.952Z</time></trkpt><trkpt lat="44.38741069990676" lon="10.914686239265594"><ele>195.0</ele><time>2026-04-25T14:10:28.952Z</time></trkpt><trkpt lat="44.38720566829153" lon="10.914499499694701"><ele>194.5</ele><time>2026-04-25T14:10:29.952Z</time></trkpt><trkpt lat="44.387004265033134" lon="10.914315699914727"><ele>194.0</ele><time>2026-04-25T14:10:30.952Z</time></trkpt><trkpt lat="44.38680096098059" lon="10.914130620701247"><ele>196.0</ele><time>2026-04-25T14:10:31.952Z</time></trkpt><trkpt lat="44.386597579312344" lon="10.913944225423535"><ele>198.0</ele><time>2026-04-25T14:10:32.952Z</time></trkpt><trkpt lat="44.38639295107994" lon="10.91375604497706"><ele>197.5</ele><time>2026-04-25T14:10:33.952Z</time></trkpt><trkpt lat="44.38618515090505" lon="10.913565008253263"><ele>197.0</ele><time>2026-04-25T14:10:34.952Z</time></trkpt><trkpt lat="44.385976536347435" lon="10.913370290349548"><ele>197.0</ele><time>2026-04-25T14:10:35.952Z</time></trkpt><trkpt lat="44.38576884120019" lon="10.913175737856914"><ele>197.0</ele><time>2026-04-25T14:10:36.952Z</time></trkpt><trkpt lat="44.38556391168885" lon="10.912980003478271"><ele>197.0</ele><time>2026-04-25T14:10:37.952Z</time></trkpt><trkpt lat="44.385348348305854" lon="10.91281118412289"><ele>197.0</ele><time>2026-04-25T14:10:38.952Z</time></trkpt><trkpt lat="44.3851130997881" lon="10.912686990196146"><ele>197.0</ele><time>2026-04-25T14:10:39.952Z</time></trkpt><trkpt lat="44.38485815096393" lon="10.912598432637703"><ele>197.0</ele><time>2026-04-25T14:10:40.952Z</time></trkpt><trkpt lat="44.38458885702607" lon="10.912516125384466"><ele>200.0</ele><time>2026-04-25T14:10:41.952Z</time></trkpt><trkpt lat="44.38431065682224" lon="10.912435698351393"><ele>203.0</ele><time>2026-04-25T14:10:42.952Z</time></trkpt><trkpt lat="44.384030870095124" lon="10.91236052676077"><ele>201.0</ele><time>2026-04-25T14:10:43.952Z</time></trkpt><trkpt lat="44.383742922773024" lon="10.91227228167395"><ele>199.0</ele><time>2026-04-25T14:10:44.952Z</time></trkpt><trkpt lat="44.38344735142196" lon="10.9121918442327"><ele>199.0</ele><time>2026-04-25T14:10:45.952Z</time></trkpt><trkpt lat="44.38314661712094" lon="10.912130542751317"><ele>199.0</ele><time>2026-04-25T14:10:46.952Z</time></trkpt><trkpt lat="44.38284433436107" lon="10.912098616093628"><ele>200.5</ele><time>2026-04-25T14:10:47.952Z</time></trkpt><trkpt lat="44.382541427468496" lon="10.912118390220051"><ele>202.0</ele><time>2026-04-25T14:10:48.952Z</time></trkpt><trkpt lat="44.382237182648076" lon="10.912160480581933"><ele>204.5</ele><time>2026-04-25T14:10:49.952Z</time></trkpt><trkpt lat="44.3819309089389" lon="10.912230204135865"><ele>207.0</ele><time>2026-04-25T14:10:50.952Z</time></trkpt><trkpt lat="44.38162581335561" lon="10.912314798283525"><ele>209.5</ele><time>2026-04-25T14:10:51.952Z</time></trkpt><trkpt lat="44.38132174518339" lon="10.912403936843317"><ele>212.0</ele><time>2026-04-25T14:10:52.952Z</time></trkpt><trkpt lat="44.381019915560856" lon="10.912495284581665"><ele>209.0</ele><time>2026-04-25T14:10:53.952Z</time></trkpt><trkpt lat="44.38072060091523" lon="10.912589916770676"><ele>206.0</ele><time>2026-04-25T14:10:54.952Z</time></trkpt><trkpt lat="44.38043057761147" lon="10.912690926833687"><ele>206.0</ele><time>2026-04-25T14:10:55.952Z</time></trkpt><trkpt lat="44.38016581921958" lon="10.912799096649094"><ele>206.0</ele><time>2026-04-25T14:10:56.952Z</time></trkpt><trkpt lat="44.379924548162954" lon="10.912934034614555"><ele>206.0</ele><time>2026-04-25T14:10:57.952Z</time></trkpt><trkpt lat="44.37969343217329" lon="10.913119227575317"><ele>206.0</ele><time>2026-04-25T14:10:58.952Z</time></trkpt><trkpt lat="44.379466330522824" lon="10.913361853568603"><ele>207.5</ele><time>2026-04-25T14:10:59.952Z</time></trkpt><trkpt lat="44.37923734605899" lon="10.913616848194216"><ele>209.0</ele><time>2026-04-25T14:11:00.952Z</time></trkpt><trkpt lat="44.37902433668989" lon="10.913866132316636"><ele>210.5</ele><time>2026-04-25T14:11:01.952Z</time></trkpt><trkpt lat="44.37880387237156" lon="10.914125639770667"><ele>212.0</ele><time>2026-04-25T14:11:02.952Z</time></trkpt><trkpt lat="44.37855900505433" lon="10.914368303091251"><ele>212.0</ele><time>2026-04-25T14:11:03.952Z</time></trkpt><trkpt lat="44.37832390346223" lon="10.914615809859523"><ele>212.0</ele><time>2026-04-25T14:11:04.952Z</time></trkpt><trkpt lat="44.378127655174296" lon="10.91485513030534"><ele>213.0</ele><time>2026-04-25T14:11:05.952Z</time></trkpt><trkpt lat="44.37793479126502" lon="10.915053280724425"><ele>214.0</ele><time>2026-04-25T14:11:06.952Z</time></trkpt><trkpt lat="44.377724596745814" lon="10.915211037692869"><ele>214.0</ele><time>2026-04-25T14:11:07.952Z</time></trkpt><trkpt lat="44.377477696355186" lon="10.915344719188742"><ele>214.0</ele><time>2026-04-25T14:11:08.952Z</time></trkpt><trkpt lat="44.37723535311133" lon="10.915459288051933"><ele>216.0</ele><time>2026-04-25T14:11:09.952Z</time></trkpt><trkpt lat="44.37699058195089" lon="10.915553074117062"><ele>218.0</ele><time>2026-04-25T14:11:10.952Z</time></trkpt><trkpt lat="44.37677671494272" lon="10.915632869605924"><ele>218.0</ele><time>2026-04-25T14:11:11.952Z</time></trkpt><trkpt lat="44.37658823464704" lon="10.915696171983273"><ele>218.0</ele><time>2026-04-25T14:11:12.952Z</time></trkpt><trkpt lat="44.37641243976276" lon="10.915706594855484"><ele>218.0</ele><time>2026-04-25T14:11:13.952Z</time></trkpt><trkpt lat="44.3762323042917" lon="10.91565075446473"><ele>215.66666666666669</ele><time>2026-04-25T14:11:14.952Z</time></trkpt><trkpt lat="44.37606281149413" lon="10.915540722956642"><ele>213.33333333333331</ele><time>2026-04-25T14:11:15.952Z</time></trkpt><trkpt lat="44.37591698875939" lon="10.915340905903513"><ele>211.0</ele><time>2026-04-25T14:11:16.952Z</time></trkpt><trkpt lat="44.37577324917478" lon="10.91510893257761"><ele>212.0</ele><time>2026-04-25T14:11:17.952Z</time></trkpt><trkpt lat="44.37560580469955" lon="10.914915631906677"><ele>213.0</ele><time>2026-04-25T14:11:18.952Z</time></trkpt><trkpt lat="44.37541878210906" lon="10.914766535927807"><ele>214.0</ele><time>2026-04-25T14:11:19.952Z</time></trkpt><trkpt lat="44.37518702509338" lon="10.914659717952592"><ele>214.0</ele><time>2026-04-25T14:11:20.952Z</time></trkpt><trkpt lat="44.374934852327584" lon="10.914537730056905"><ele>214.0</ele><time>2026-04-25T14:11:21.952Z</time></trkpt><trkpt lat="44.374680150729105" lon="10.914381642814067"><ele>218.0</ele><time>2026-04-25T14:11:22.952Z</time></trkpt><trkpt lat="44.37442099858491" lon="10.91423001906909"><ele>222.0</ele><time>2026-04-25T14:11:23.952Z</time></trkpt><trkpt lat="44.37418234786317" lon="10.914098141670094"><ele>222.0</ele><time>2026-04-25T14:11:24.952Z</time></trkpt><trkpt lat="44.373963934844035" lon="10.913982763097417"><ele>222.0</ele><time>2026-04-25T14:11:25.952Z</time></trkpt><trkpt lat="44.37373484562249" lon="10.91392693402682"><ele>219.0</ele><time>2026-04-25T14:11:26.952Z</time></trkpt><trkpt lat="44.37347130548897" lon="10.913939882698866"><ele>216.0</ele><time>2026-04-25T14:11:27.952Z</time></trkpt><trkpt lat="44.373181214557846" lon="10.914009078158092"><ele>217.5</ele><time>2026-04-25T14:11:28.951Z</time></trkpt><trkpt lat="44.37286879152154" lon="10.914112359743651"><ele>219.0</ele><time>2026-04-25T14:11:29.951Z</time></trkpt><trkpt lat="44.37254576241986" lon="10.914224218236425"><ele>214.0</ele><time>2026-04-25T14:11:30.951Z</time></trkpt><trkpt lat="44.372212620733826" lon="10.914311493288569"><ele>209.0</ele><time>2026-04-25T14:11:31.951Z</time></trkpt><trkpt lat="44.3718808706175" lon="10.914376982529774"><ele>209.0</ele><time>2026-04-25T14:11:32.951Z</time></trkpt><trkpt lat="44.37156531877317" lon="10.914384982508226"><ele>209.0</ele><time>2026-04-25T14:11:33.951Z</time></trkpt><trkpt lat="44.3712648499544" lon="10.914334326755464"><ele>210.0</ele><time>2026-04-25T14:11:34.951Z</time></trkpt><trkpt lat="44.370985008853296" lon="10.914300952523341"><ele>211.0</ele><time>2026-04-25T14:11:35.951Z</time></trkpt><trkpt lat="44.37071346885545" lon="10.914270581386448"><ele>211.5</ele><time>2026-04-25T14:11:36.951Z</time></trkpt><trkpt lat="44.37046006883627" lon="10.914234327312016"><ele>212.0</ele><time>2026-04-25T14:11:37.951Z</time></trkpt><trkpt lat="44.370204568261435" lon="10.914238598097727"><ele>212.0</ele><time>2026-04-25T14:11:38.951Z</time></trkpt><trkpt lat="44.36993682865249" lon="10.914318508868103"><ele>212.0</ele><time>2026-04-25T14:11:39.951Z</time></trkpt><trkpt lat="44.369652728602624" lon="10.914452394384767"><ele>213.5</ele><time>2026-04-25T14:11:40.951Z</time></trkpt><trkpt lat="44.369365797579036" lon="10.914580011966542"><ele>215.0</ele><time>2026-04-25T14:11:41.951Z</time></trkpt><trkpt lat="44.36908073224418" lon="10.914697747030893"><ele>218.0</ele><time>2026-04-25T14:11:42.951Z</time></trkpt><trkpt lat="44.36880480845662" lon="10.91481076223953"><ele>221.0</ele><time>2026-04-25T14:11:43.951Z</time></trkpt><trkpt lat="44.36853735420588" lon="10.914923728942583"><ele>221.0</ele><time>2026-04-25T14:11:44.951Z</time></trkpt><trkpt lat="44.36827625825817" lon="10.915038568311092"><ele>221.0</ele><time>2026-04-25T14:11:45.952Z</time></trkpt><trkpt lat="44.36802181539907" lon="10.915158269780548"><ele>216.0</ele><time>2026-04-25T14:11:46.951Z</time></trkpt><trkpt lat="44.367764759448086" lon="10.915274700232397"><ele>211.0</ele><time>2026-04-25T14:11:47.951Z</time></trkpt><trkpt lat="44.36751116514982" lon="10.915399236804294"><ele>211.0</ele><time>2026-04-25T14:11:48.952Z</time></trkpt><trkpt lat="44.3672769151093" lon="10.915519416505765"><ele>211.0</ele><time>2026-04-25T14:11:49.951Z</time></trkpt><trkpt lat="44.36704879694018" lon="10.915627988511806"><ele>211.33333333333331</ele><time>2026-04-25T14:11:50.951Z</time></trkpt><trkpt lat="44.3668367172942" lon="10.915730661367173"><ele>211.66666666666669</ele><time>2026-04-25T14:11:51.952Z</time></trkpt><trkpt lat="44.3666353725934" lon="10.915819853895375"><ele>212.0</ele><time>2026-04-25T14:11:52.952Z</time></trkpt><trkpt lat="44.36644493706243" lon="10.915905624418798"><ele>214.0</ele><time>2026-04-25T14:11:53.952Z</time></trkpt><trkpt lat="44.36625579529822" lon="10.915990049727839"><ele>216.0</ele><time>2026-04-25T14:11:54.952Z</time></trkpt><trkpt lat="44.366062763167236" lon="10.91607887456278"><ele>218.0</ele><time>2026-04-25T14:11:55.951Z</time></trkpt><trkpt lat="44.36587058535087" lon="10.916157842762264"><ele>218.0</ele><time>2026-04-25T14:11:56.951Z</time></trkpt><trkpt lat="44.36567974398573" lon="10.916230773844235"><ele>218.0</ele><time>2026-04-25T14:11:57.952Z</time></trkpt><trkpt lat="44.36548134939021" lon="10.916290855520096"><ele>218.0</ele><time>2026-04-25T14:11:58.952Z</time></trkpt><trkpt lat="44.36528766096305" lon="10.916350936973679"><ele>220.0</ele><time>2026-04-25T14:11:59.952Z</time></trkpt><trkpt lat="44.36509150416828" lon="10.916414972412763"><ele>222.0</ele><time>2026-04-25T14:12:00.952Z</time></trkpt><trkpt lat="44.36489534659943" lon="10.91648118704381"><ele>224.0</ele><time>2026-04-25T14:12:01.952Z</time></trkpt><trkpt lat="44.36470050324365" lon="10.916551285470948"><ele>222.0</ele><time>2026-04-25T14:12:02.952Z</time></trkpt><trkpt lat="44.36450831389039" lon="10.91661002295175"><ele>220.0</ele><time>2026-04-25T14:12:03.952Z</time></trkpt><trkpt lat="44.364313499633624" lon="10.916674075041795"><ele>218.0</ele><time>2026-04-25T14:12:04.951Z</time></trkpt><trkpt lat="44.3641284216379" lon="10.91674371524692"><ele>218.0</ele><time>2026-04-25T14:12:05.951Z</time></trkpt><trkpt lat="44.36393220144425" lon="10.916782076810598"><ele>218.0</ele><time>2026-04-25T14:12:06.951Z</time></trkpt><trkpt lat="44.363747163366234" lon="10.916837576583445"><ele>218.0</ele><time>2026-04-25T14:12:07.951Z</time></trkpt><trkpt lat="44.36356320139062" lon="10.916893380311924"><ele>222.33333333333334</ele><time>2026-04-25T14:12:08.951Z</time></trkpt><trkpt lat="44.36337820373402" lon="10.916946882674065"><ele>226.66666666666669</ele><time>2026-04-25T14:12:09.951Z</time></trkpt><trkpt lat="44.363200124208184" lon="10.916972349018264"><ele>231.0</ele><time>2026-04-25T14:12:10.951Z</time></trkpt><trkpt lat="44.36301690252036" lon="10.91697214651216"><ele>231.33333333333331</ele><time>2026-04-25T14:12:11.951Z</time></trkpt><trkpt lat="44.362834246940686" lon="10.916957793803661"><ele>231.66666666666666</ele><time>2026-04-25T14:12:12.951Z</time></trkpt><trkpt lat="44.36264931547678" lon="10.916959739753969"><ele>232.0</ele><time>2026-04-25T14:12:13.951Z</time></trkpt><trkpt lat="44.3624699870911" lon="10.91692089158665"><ele>232.0</ele><time>2026-04-25T14:12:14.951Z</time></trkpt><trkpt lat="44.362294614071665" lon="10.916891910846685"><ele>232.0</ele><time>2026-04-25T14:12:15.951Z</time></trkpt><trkpt lat="44.36212001947077" lon="10.916880772177418"><ele>232.0</ele><time>2026-04-25T14:12:16.951Z</time></trkpt><trkpt lat="44.3619419023548" lon="10.91688192774939"><ele>232.0</ele><time>2026-04-25T14:12:17.951Z</time></trkpt><trkpt lat="44.36177536838119" lon="10.916936586365798"><ele>232.0</ele><time>2026-04-25T14:12:18.951Z</time></trkpt><trkpt lat="44.361615557669815" lon="10.917017470393697"><ele>232.0</ele><time>2026-04-25T14:12:19.951Z</time></trkpt><trkpt lat="44.361477392024256" lon="10.917171647483912"><ele>235.66666666666666</ele><time>2026-04-25T14:12:20.951Z</time></trkpt><trkpt lat="44.361333664060744" lon="10.91731772142272"><ele>239.33333333333331</ele><time>2026-04-25T14:12:21.951Z</time></trkpt><trkpt lat="44.36120665581134" lon="10.91748300654397"><ele>243.0</ele><time>2026-04-25T14:12:22.951Z</time></trkpt><trkpt lat="44.36107618394466" lon="10.91764462118671"><ele>243.0</ele><time>2026-04-25T14:12:23.951Z</time></trkpt><trkpt lat="44.36095698138165" lon="10.91781766528786"><ele>243.0</ele><time>2026-04-25T14:12:24.951Z</time></trkpt><trkpt lat="44.36082098019387" lon="10.917950359550087"><ele>243.0</ele><time>2026-04-25T14:12:25.951Z</time></trkpt><trkpt lat="44.36069032526432" lon="10.918098002092918"><ele>243.0</ele><time>2026-04-25T14:12:26.951Z</time></trkpt><trkpt lat="44.360554661373854" lon="10.918245843053649"><ele>243.0</ele><time>2026-04-25T14:12:27.951Z</time></trkpt><trkpt lat="44.36043404757219" lon="10.918387798729853"><ele>243.0</ele><time>2026-04-25T14:12:28.951Z</time></trkpt><trkpt lat="44.360317930056524" lon="10.91852010991191"><ele>242.0</ele><time>2026-04-25T14:12:29.951Z</time></trkpt><trkpt lat="44.36020167792812" lon="10.918646368076178"><ele>241.0</ele><time>2026-04-25T14:12:30.951Z</time></trkpt><trkpt lat="44.360090979765474" lon="10.918760596450669"><ele>240.0</ele><time>2026-04-25T14:12:31.951Z</time></trkpt><trkpt lat="44.35998392875854" lon="10.918862623594109"><ele>239.0</ele><time>2026-04-25T14:12:32.951Z</time></trkpt><trkpt lat="44.3598790565573" lon="10.91895814538673"><ele>239.0</ele><time>2026-04-25T14:12:33.951Z</time></trkpt><trkpt lat="44.35977770055804" lon="10.919044842228347"><ele>238.99999999999997</ele><time>2026-04-25T14:12:34.951Z</time></trkpt><trkpt lat="44.35967829514573" lon="10.919120120660796"><ele>238.99999999999997</ele><time>2026-04-25T14:12:35.951Z</time></trkpt><trkpt lat="44.3595816508705" lon="10.919181181011952"><ele>239.0</ele><time>2026-04-25T14:12:36.951Z</time></trkpt><trkpt lat="44.359479965970216" lon="10.919231614903685"><ele>239.0</ele><time>2026-04-25T14:12:37.951Z</time></trkpt><trkpt lat="44.35937295908971" lon="10.919281899881229"><ele>237.39999999999998</ele><time>2026-04-25T14:12:38.951Z</time></trkpt><trkpt lat="44.35926636829971" lon="10.919334611710099"><ele>235.79999999999998</ele><time>2026-04-25T14:12:39.951Z</time></trkpt><trkpt lat="44.359169873791885" lon="10.919382936395552"><ele>234.20000000000002</ele><time>2026-04-25T14:12:40.951Z</time></trkpt><trkpt lat="44.35907737316714" lon="10.919430086944908"><ele>232.60000000000002</ele><time>2026-04-25T14:12:41.951Z</time></trkpt><trkpt lat="44.35898443912675" lon="10.919470830465281"><ele>231.0</ele><time>2026-04-25T14:12:42.951Z</time></trkpt><trkpt lat="44.35890408356735" lon="10.919506733838045"><ele>233.8</ele><time>2026-04-25T14:12:43.951Z</time></trkpt><trkpt lat="44.35884032016072" lon="10.919538222600403"><ele>236.60000000000002</ele><time>2026-04-25T14:12:44.951Z</time></trkpt><trkpt lat="44.35874986489984" lon="10.919563264249772"><ele>239.4</ele><time>2026-04-25T14:12:46.951Z</time></trkpt><trkpt lat="44.358637441493" lon="10.919487243310412"><ele>242.2</ele><time>2026-04-25T14:13:07.951Z</time></trkpt><trkpt lat="44.35856457579965" lon="10.919464898131453"><ele>245.0</ele><time>2026-04-25T14:13:08.951Z</time></trkpt><trkpt lat="44.35847034363589" lon="10.919499593957502"><ele>245.0</ele><time>2026-04-25T14:13:09.951Z</time></trkpt><trkpt lat="44.35834932218661" lon="10.919600064035675"><ele>245.0</ele><time>2026-04-25T14:13:10.951Z</time></trkpt><trkpt lat="44.3581878979037" lon="10.91977197256903"><ele>245.0</ele><time>2026-04-25T14:13:11.951Z</time></trkpt><trkpt lat="44.35798620756913" lon="10.919945985123533"><ele>242.75</ele><time>2026-04-25T14:13:12.951Z</time></trkpt><trkpt lat="44.357834242250604" lon="10.92010447362536"><ele>240.5</ele><time>2026-04-25T14:13:13.951Z</time></trkpt><trkpt lat="44.357720679396294" lon="10.920149806184579"><ele>238.25</ele><time>2026-04-25T14:13:14.951Z</time></trkpt><trkpt lat="44.35761947567077" lon="10.920135581915563"><ele>236.0</ele><time>2026-04-25T14:13:15.951Z</time></trkpt><trkpt lat="44.357516428766885" lon="10.920022499774683"><ele>242.66666666666669</ele><time>2026-04-25T14:13:16.951Z</time></trkpt><trkpt lat="44.357364788532244" lon="10.919882783113488"><ele>249.33333333333331</ele><time>2026-04-25T14:13:17.951Z</time></trkpt><trkpt lat="44.35717580065893" lon="10.919767140515866"><ele>256.0</ele><time>2026-04-25T14:13:18.951Z</time></trkpt><trkpt lat="44.356962366342486" lon="10.919687194364505"><ele>257.0</ele><time>2026-04-25T14:13:19.951Z</time></trkpt><trkpt lat="44.35669666479534" lon="10.919679788737486"><ele>258.0</ele><time>2026-04-25T14:13:20.951Z</time></trkpt><trkpt lat="44.356451903311154" lon="10.91964121562698"><ele>260.0</ele><time>2026-04-25T14:13:21.951Z</time></trkpt><trkpt lat="44.356242917225345" lon="10.919621185627808"><ele>262.0</ele><time>2026-04-25T14:13:22.951Z</time></trkpt><trkpt lat="44.35606914411481" lon="10.919644536008688"><ele>264.0</ele><time>2026-04-25T14:13:23.951Z</time></trkpt><trkpt lat="44.35590252354424" lon="10.919710891139637"><ele>264.0</ele><time>2026-04-25T14:13:24.951Z</time></trkpt><trkpt lat="44.35575155878117" lon="10.919799083946529"><ele>264.0</ele><time>2026-04-25T14:13:25.951Z</time></trkpt><trkpt lat="44.35561852869573" lon="10.919824435590687"><ele>264.0</ele><time>2026-04-25T14:13:26.951Z</time></trkpt><trkpt lat="44.35550717614467" lon="10.919784056146323"><ele>264.0</ele><time>2026-04-25T14:13:27.951Z</time></trkpt><trkpt lat="44.35539227444491" lon="10.919659579940383"><ele>262.0</ele><time>2026-04-25T14:13:28.951Z</time></trkpt><trkpt lat="44.35526432423963" lon="10.919461346480777"><ele>260.0</ele><time>2026-04-25T14:13:29.951Z</time></trkpt><trkpt lat="44.355102823481054" lon="10.919251968162214"><ele>258.0</ele><time>2026-04-25T14:13:30.951Z</time></trkpt><trkpt lat="44.35501116218611" lon="10.919043686515097"><ele>262.3333333333333</ele><time>2026-04-25T14:13:31.951Z</time></trkpt><trkpt lat="44.35495793578512" lon="10.91883225550298"><ele>266.66666666666663</ele><time>2026-04-25T14:13:32.951Z</time></trkpt><trkpt lat="44.35493135739817" lon="10.918591619350675"><ele>271.0</ele><time>2026-04-25T14:13:33.951Z</time></trkpt><trkpt lat="44.35483673024004" lon="10.918435890739685"><ele>271.5</ele><time>2026-04-25T14:13:34.951Z</time></trkpt><trkpt lat="44.354684142317105" lon="10.918331542271499"><ele>272.0</ele><time>2026-04-25T14:13:35.951Z</time></trkpt><trkpt lat="44.35454499563191" lon="10.918235872665544"><ele>272.5</ele><time>2026-04-25T14:13:36.951Z</time></trkpt><trkpt lat="44.354486154501444" lon="10.918136862599823"><ele>273.0</ele><time>2026-04-25T14:13:37.951Z</time></trkpt><trkpt lat="44.35458489980825" lon="10.91799733999299"><ele>273.0</ele><time>2026-04-25T14:13:39.951Z</time></trkpt><trkpt lat="44.35470288426559" lon="10.91801874903872"><ele>273.0</ele><time>2026-04-25T14:13:40.951Z</time></trkpt><trkpt lat="44.35485444975013" lon="10.918112020854752"><ele>273.0</ele><time>2026-04-25T14:13:41.951Z</time></trkpt><trkpt lat="44.35504572732039" lon="10.91822207873955"><ele>272.3333333333333</ele><time>2026-04-25T14:13:42.951Z</time></trkpt><trkpt lat="44.355246340815384" lon="10.918332121208838"><ele>271.66666666666663</ele><time>2026-04-25T14:13:43.951Z</time></trkpt><trkpt lat="44.35539365189955" lon="10.918438718578837"><ele>271.0</ele><time>2026-04-25T14:13:44.951Z</time></trkpt><trkpt lat="44.35550584136023" lon="10.918499990436395"><ele>271.75</ele><time>2026-04-25T14:13:45.951Z</time></trkpt><trkpt lat="44.35561528188809" lon="10.918471719820987"><ele>272.5</ele><time>2026-04-25T14:13:46.951Z</time></trkpt><trkpt lat="44.35573042302457" lon="10.918367848870847"><ele>273.25</ele><time>2026-04-25T14:13:47.951Z</time></trkpt><trkpt lat="44.3558508073809" lon="10.918220053380288"><ele>274.0</ele><time>2026-04-25T14:13:48.951Z</time></trkpt><trkpt lat="44.35597173248224" lon="10.918050758054878"><ele>278.0</ele><time>2026-04-25T14:13:49.951Z</time></trkpt><trkpt lat="44.35613539906362" lon="10.917979503130207"><ele>282.0</ele><time>2026-04-25T14:13:50.951Z</time></trkpt><trkpt lat="44.35631567640518" lon="10.917938120146868"><ele>286.0</ele><time>2026-04-25T14:13:51.951Z</time></trkpt><trkpt lat="44.35649898074403" lon="10.917907552385502"><ele>286.0</ele><time>2026-04-25T14:13:52.951Z</time></trkpt><trkpt lat="44.35666884303652" lon="10.917841423408865"><ele>286.0</ele><time>2026-04-25T14:13:53.951Z</time></trkpt><trkpt lat="44.35682062915512" lon="10.917736982391057"><ele>286.0</ele><time>2026-04-25T14:13:54.952Z</time></trkpt><trkpt lat="44.356959473182684" lon="10.917631964950269"><ele>286.0</ele><time>2026-04-25T14:13:55.952Z</time></trkpt><trkpt lat="44.357105060243946" lon="10.91766356479643"><ele>286.0</ele><time>2026-04-25T14:13:56.952Z</time></trkpt><trkpt lat="44.35726315887618" lon="10.917744864104167"><ele>286.0</ele><time>2026-04-25T14:13:57.952Z</time></trkpt><trkpt lat="44.357423117254775" lon="10.917815785111907"><ele>287.0</ele><time>2026-04-25T14:13:58.951Z</time></trkpt><trkpt lat="44.35756857839662" lon="10.917839879232792"><ele>288.0</ele><time>2026-04-25T14:13:59.951Z</time></trkpt><trkpt lat="44.35772086540405" lon="10.917761834590461"><ele>289.0</ele><time>2026-04-25T14:14:00.952Z</time></trkpt><trkpt lat="44.35788228910016" lon="10.917613414647418"><ele>292.66666666666663</ele><time>2026-04-25T14:14:01.951Z</time></trkpt><trkpt lat="44.35805655511419" lon="10.917474125991893"><ele>296.3333333333333</ele><time>2026-04-25T14:14:02.951Z</time></trkpt><trkpt lat="44.35818522748936" lon="10.917388453009346"><ele>300.0</ele><time>2026-04-25T14:14:03.951Z</time></trkpt><trkpt lat="44.35826440743019" lon="10.917276643142635"><ele>300.0</ele><time>2026-04-25T14:14:04.952Z</time></trkpt><trkpt lat="44.35826362827564" lon="10.917117557244072"><ele>300.0</ele><time>2026-04-25T14:14:05.952Z</time></trkpt><trkpt lat="44.358262167209986" lon="10.91689710900533"><ele>300.0</ele><time>2026-04-25T14:14:06.952Z</time></trkpt><trkpt lat="44.35825470063158" lon="10.916630668383133"><ele>302.0</ele><time>2026-04-25T14:14:07.952Z</time></trkpt><trkpt lat="44.35826271957332" lon="10.91641304454302"><ele>304.0</ele><time>2026-04-25T14:14:08.952Z</time></trkpt><trkpt lat="44.35825968504419" lon="10.91626011318906"><ele>306.0</ele><time>2026-04-25T14:14:09.952Z</time></trkpt><trkpt lat="44.3582180065919" lon="10.916163968073896"><ele>308.0</ele><time>2026-04-25T14:14:10.952Z</time></trkpt><trkpt lat="44.358014416680156" lon="10.91623809213086"><ele>307.5</ele><time>2026-04-25T14:14:12.952Z</time></trkpt><trkpt lat="44.358002341561956" lon="10.916439109007397"><ele>307.0</ele><time>2026-04-25T14:14:13.952Z</time></trkpt><trkpt lat="44.3579983747286" lon="10.916655748068463"><ele>306.5</ele><time>2026-04-25T14:14:14.952Z</time></trkpt><trkpt lat="44.35798642587926" lon="10.916833305305857"><ele>306.0</ele><time>2026-04-25T14:14:15.952Z</time></trkpt><trkpt lat="44.357912285912185" lon="10.916923626952437"><ele>306.0</ele><time>2026-04-25T14:14:16.952Z</time></trkpt><trkpt lat="44.35779466402322" lon="10.916913088545448"><ele>306.0</ele><time>2026-04-25T14:14:17.952Z</time></trkpt><trkpt lat="44.35768829866215" lon="10.916829799822992"><ele>306.0</ele><time>2026-04-25T14:14:18.952Z</time></trkpt><trkpt lat="44.35759193066113" lon="10.916703420165039"><ele>306.0</ele><time>2026-04-25T14:14:19.952Z</time></trkpt><trkpt lat="44.35748951319437" lon="10.916550326656902"><ele>310.3333333333333</ele><time>2026-04-25T14:14:20.952Z</time></trkpt><trkpt lat="44.35736696688197" lon="10.916381174097616"><ele>314.66666666666663</ele><time>2026-04-25T14:14:21.952Z</time></trkpt><trkpt lat="44.35724336561983" lon="10.916230598986665"><ele>319.0</ele><time>2026-04-25T14:14:22.952Z</time></trkpt><trkpt lat="44.357108244451" lon="10.916145919825627"><ele>319.2</ele><time>2026-04-25T14:14:23.952Z</time></trkpt><trkpt lat="44.356966332913636" lon="10.916140163442735"><ele>319.4</ele><time>2026-04-25T14:14:24.952Z</time></trkpt><trkpt lat="44.3568367172709" lon="10.916167881695507"><ele>319.6</ele><time>2026-04-25T14:14:25.952Z</time></trkpt><trkpt lat="44.356754502533164" lon="10.916130297859043"><ele>319.8</ele><time>2026-04-25T14:14:26.952Z</time></trkpt><trkpt lat="44.356706729273874" lon="10.916044115347034"><ele>320.0</ele><time>2026-04-25T14:14:28.952Z</time></trkpt><trkpt lat="44.35681299844325" lon="10.91590562344715"><ele>323.0</ele><time>2026-04-25T14:14:29.952Z</time></trkpt><trkpt lat="44.356957896207234" lon="10.915854856447252"><ele>326.0</ele><time>2026-04-25T14:14:30.952Z</time></trkpt><trkpt lat="44.35711431511318" lon="10.915815127174659"><ele>329.0</ele><time>2026-04-25T14:14:31.952Z</time></trkpt><trkpt lat="44.357264343622305" lon="10.915781632443391"><ele>329.0</ele><time>2026-04-25T14:14:32.952Z</time></trkpt><trkpt lat="44.357367721937656" lon="10.91567508256065"><ele>329.0</ele><time>2026-04-25T14:14:33.952Z</time></trkpt><trkpt lat="44.35738915284736" lon="10.91550035517227"><ele>329.0</ele><time>2026-04-25T14:14:34.952Z</time></trkpt><trkpt lat="44.35743230913761" lon="10.915247574950737"><ele>329.0</ele><time>2026-04-25T14:14:35.952Z</time></trkpt><trkpt lat="44.35746643365456" lon="10.914959354183605"><ele>333.33333333333337</ele><time>2026-04-25T14:14:36.952Z</time></trkpt><trkpt lat="44.357497781959005" lon="10.914694162418074"><ele>337.6666666666667</ele><time>2026-04-25T14:14:37.952Z</time></trkpt><trkpt lat="44.357571611686474" lon="10.91446833177859"><ele>342.0</ele><time>2026-04-25T14:14:38.952Z</time></trkpt><trkpt lat="44.35764668848381" lon="10.914279237713792"><ele>341.75</ele><time>2026-04-25T14:14:39.952Z</time></trkpt><trkpt lat="44.35773372238623" lon="10.914137656376715"><ele>341.5</ele><time>2026-04-25T14:14:40.952Z</time></trkpt><trkpt lat="44.35787476360801" lon="10.914116477770103"><ele>341.25</ele><time>2026-04-25T14:14:41.952Z</time></trkpt><trkpt lat="44.357992468705795" lon="10.914047739697791"><ele>341.0</ele><time>2026-04-25T14:14:42.952Z</time></trkpt><trkpt lat="44.35807808670651" lon="10.91398242760436"><ele>341.0</ele><time>2026-04-25T14:14:43.952Z</time></trkpt><trkpt lat="44.358079677417855" lon="10.913867537635804"><ele>341.0</ele><time>2026-04-25T14:14:44.952Z</time></trkpt><trkpt lat="44.35803093499796" lon="10.913788575550209"><ele>341.0</ele><time>2026-04-25T14:14:45.952Z</time></trkpt><trkpt lat="44.35782754517747" lon="10.913744380456441"><ele>341.0</ele><time>2026-04-25T14:14:46.952Z</time></trkpt><trkpt lat="44.35765736442808" lon="10.913809034783899"><ele>341.33333333333337</ele><time>2026-04-25T14:14:47.952Z</time></trkpt><trkpt lat="44.35751641005037" lon="10.913990607044532"><ele>341.6666666666667</ele><time>2026-04-25T14:14:48.952Z</time></trkpt><trkpt lat="44.35735418201665" lon="10.914200769844822"><ele>342.0</ele><time>2026-04-25T14:14:49.951Z</time></trkpt><trkpt lat="44.357210656082096" lon="10.914432220651786"><ele>347.3333333333333</ele><time>2026-04-25T14:14:50.951Z</time></trkpt><trkpt lat="44.35705055015713" lon="10.914598774613705"><ele>352.66666666666663</ele><time>2026-04-25T14:14:51.951Z</time></trkpt><trkpt lat="44.35690568015438" lon="10.91471957566389"><ele>358.0</ele><time>2026-04-25T14:14:52.951Z</time></trkpt><trkpt lat="44.35675758626306" lon="10.914844825077234"><ele>358.0</ele><time>2026-04-25T14:14:53.951Z</time></trkpt><trkpt lat="44.356615279840575" lon="10.914890864799764"><ele>358.0</ele><time>2026-04-25T14:14:54.951Z</time></trkpt><trkpt lat="44.35648725536105" lon="10.91489689574171"><ele>358.0</ele><time>2026-04-25T14:14:55.951Z</time></trkpt><trkpt lat="44.35636236274539" lon="10.914863663629982"><ele>358.0</ele><time>2026-04-25T14:14:56.951Z</time></trkpt><trkpt lat="44.35622701431271" lon="10.914796608333218"><ele>357.0</ele><time>2026-04-25T14:14:57.951Z</time></trkpt><trkpt lat="44.35607153325376" lon="10.914711970547835"><ele>356.0</ele><time>2026-04-25T14:14:58.951Z</time></trkpt><trkpt lat="44.355935852652834" lon="10.91462812601879"><ele>355.0</ele><time>2026-04-25T14:14:59.951Z</time></trkpt><trkpt lat="44.35582294142962" lon="10.914511514002506"><ele>355.0</ele><time>2026-04-25T14:15:00.951Z</time></trkpt><trkpt lat="44.35574348692236" lon="10.914352065341935"><ele>355.0</ele><time>2026-04-25T14:15:01.951Z</time></trkpt><trkpt lat="44.35565372379051" lon="10.914146957038337"><ele>355.0</ele><time>2026-04-25T14:15:02.951Z</time></trkpt><trkpt lat="44.35554702507051" lon="10.91404936648969"><ele>355.0</ele><time>2026-04-25T14:15:03.951Z</time></trkpt><trkpt lat="44.35540818502013" lon="10.913961315251111"><ele>359.66666666666663</ele><time>2026-04-25T14:15:04.951Z</time></trkpt><trkpt lat="44.35520353386416" lon="10.913959108486202"><ele>364.3333333333333</ele><time>2026-04-25T14:15:05.951Z</time></trkpt><trkpt lat="44.35498427575359" lon="10.913930394060284"><ele>369.0</ele><time>2026-04-25T14:15:06.951Z</time></trkpt><trkpt lat="44.35478038236517" lon="10.913845584252256"><ele>369.0</ele><time>2026-04-25T14:15:07.951Z</time></trkpt><trkpt lat="44.35462282369448" lon="10.913790014280456"><ele>369.0</ele><time>2026-04-25T14:15:08.951Z</time></trkpt><trkpt lat="44.35454894369019" lon="10.913743537527544"><ele>369.0</ele><time>2026-04-25T14:15:09.951Z</time></trkpt><trkpt lat="44.354652476010195" lon="10.913541647122184"><ele>369.0</ele><time>2026-04-25T14:15:12.951Z</time></trkpt><trkpt lat="44.354786577428285" lon="10.913545399887795"><ele>369.0</ele><time>2026-04-25T14:15:13.951Z</time></trkpt><trkpt lat="44.35494677373687" lon="10.913586532388349"><ele>369.0</ele><time>2026-04-25T14:15:14.951Z</time></trkpt><trkpt lat="44.35512994879649" lon="10.913576422722661"><ele>369.0</ele><time>2026-04-25T14:15:15.952Z</time></trkpt><trkpt lat="44.35529938582516" lon="10.91346525968533"><ele>376.0</ele><time>2026-04-25T14:15:16.952Z</time></trkpt><trkpt lat="44.35551504873724" lon="10.913321513650837"><ele>383.0</ele><time>2026-04-25T14:15:17.953Z</time></trkpt><trkpt lat="44.355727767238214" lon="10.913258610009862"><ele>384.6666666666667</ele><time>2026-04-25T14:15:18.953Z</time></trkpt><trkpt lat="44.355895366448834" lon="10.913273699932587"><ele>386.33333333333337</ele><time>2026-04-25T14:15:19.954Z</time></trkpt><trkpt lat="44.356065337471335" lon="10.913330410419578"><ele>388.0</ele><time>2026-04-25T14:15:20.954Z</time></trkpt><trkpt lat="44.35625327573573" lon="10.913390515050311"><ele>388.0</ele><time>2026-04-25T14:15:21.955Z</time></trkpt><trkpt lat="44.356416299353185" lon="10.913419579825051"><ele>388.0</ele><time>2026-04-25T14:15:22.955Z</time></trkpt><trkpt lat="44.356541987239744" lon="10.913431212373927"><ele>388.0</ele><time>2026-04-25T14:15:23.955Z</time></trkpt><trkpt lat="44.35666332744521" lon="10.913388754536838"><ele>388.0</ele><time>2026-04-25T14:15:24.956Z</time></trkpt><trkpt lat="44.35674468466067" lon="10.913236606293834"><ele>388.0</ele><time>2026-04-25T14:15:25.956Z</time></trkpt><trkpt lat="44.356761637651154" lon="10.913062056273771"><ele>388.0</ele><time>2026-04-25T14:15:26.956Z</time></trkpt><trkpt lat="44.356750515883675" lon="10.912852620823221"><ele>388.0</ele><time>2026-04-25T14:15:27.957Z</time></trkpt><trkpt lat="44.35674651212168" lon="10.912565593783716"><ele>392.6666666666667</ele><time>2026-04-25T14:15:28.957Z</time></trkpt><trkpt lat="44.35676846802941" lon="10.912357305345571"><ele>397.33333333333337</ele><time>2026-04-25T14:15:29.957Z</time></trkpt><trkpt lat="44.356863692039" lon="10.912184499783628"><ele>402.0</ele><time>2026-04-25T14:15:30.957Z</time></trkpt><trkpt lat="44.35693474310365" lon="10.911985820323638"><ele>402.0</ele><time>2026-04-25T14:15:31.958Z</time></trkpt><trkpt lat="44.357005933366395" lon="10.911823028679244"><ele>402.0</ele><time>2026-04-25T14:15:32.958Z</time></trkpt><trkpt lat="44.357029514447284" lon="10.911723270587075"><ele>402.0</ele><time>2026-04-25T14:15:33.958Z</time></trkpt><trkpt lat="44.35697745448124" lon="10.91163834951527"><ele>402.0</ele><time>2026-04-25T14:15:34.958Z</time></trkpt><trkpt lat="44.35688703240214" lon="10.911618789117679"><ele>402.0</ele><time>2026-04-25T14:15:35.958Z</time></trkpt><trkpt lat="44.356801759493834" lon="10.91171794915563"><ele>402.0</ele><time>2026-04-25T14:15:36.958Z</time></trkpt><trkpt lat="44.356721359888326" lon="10.911881880443236"><ele>402.0</ele><time>2026-04-25T14:15:37.959Z</time></trkpt><trkpt lat="44.356649158476024" lon="10.912039241694401"><ele>402.0</ele><time>2026-04-25T14:15:38.959Z</time></trkpt><trkpt lat="44.35655528283363" lon="10.91221761382139"><ele>402.0</ele><time>2026-04-25T14:15:39.959Z</time></trkpt><trkpt lat="44.356453719507925" lon="10.912350649401164"><ele>402.75</ele><time>2026-04-25T14:15:40.959Z</time></trkpt><trkpt lat="44.35635897797262" lon="10.912379307926003"><ele>403.5</ele><time>2026-04-25T14:15:41.959Z</time></trkpt><trkpt lat="44.35623117980572" lon="10.912336918906663"><ele>404.25</ele><time>2026-04-25T14:15:42.959Z</time></trkpt><trkpt lat="44.3561182763333" lon="10.912185765830072"><ele>405.0</ele><time>2026-04-25T14:15:43.959Z</time></trkpt><trkpt lat="44.355993611767566" lon="10.911992757836158"><ele>405.0</ele><time>2026-04-25T14:15:44.959Z</time></trkpt><trkpt lat="44.35583595036478" lon="10.911776085708297"><ele>405.0</ele><time>2026-04-25T14:15:45.959Z</time></trkpt><trkpt lat="44.355667052476605" lon="10.9115678301542"><ele>405.0</ele><time>2026-04-25T14:15:46.959Z</time></trkpt><trkpt lat="44.355477332521616" lon="10.911371498790247"><ele>407.0</ele><time>2026-04-25T14:15:47.96Z</time></trkpt><trkpt lat="44.355295419467645" lon="10.911192944947311"><ele>409.0</ele><time>2026-04-25T14:15:48.96Z</time></trkpt><trkpt lat="44.35513384357163" lon="10.911047320381648"><ele>411.0</ele><time>2026-04-25T14:15:49.96Z</time></trkpt><trkpt lat="44.35498217277648" lon="10.910947887876477"><ele>415.33333333333337</ele><time>2026-04-25T14:15:50.96Z</time></trkpt><trkpt lat="44.35481148096704" lon="10.910865313017641"><ele>419.6666666666667</ele><time>2026-04-25T14:15:51.96Z</time></trkpt><trkpt lat="44.354630650778994" lon="10.910778364633135"><ele>424.0</ele><time>2026-04-25T14:15:52.96Z</time></trkpt><trkpt lat="44.354456210750534" lon="10.910668678818709"><ele>424.0</ele><time>2026-04-25T14:15:53.96Z</time></trkpt><trkpt lat="44.354289897633286" lon="10.910586038991696"><ele>424.0</ele><time>2026-04-25T14:15:54.96Z</time></trkpt><trkpt lat="44.354150681046235" lon="10.910513167856086"><ele>424.0</ele><time>2026-04-25T14:15:55.96Z</time></trkpt><trkpt lat="44.354028731909615" lon="10.910444586343289"><ele>424.00000000000006</ele><time>2026-04-25T14:15:56.96Z</time></trkpt><trkpt lat="44.353941292967086" lon="10.910390115566482"><ele>424.0</ele><time>2026-04-25T14:15:57.961Z</time></trkpt><trkpt lat="44.3538765880117" lon="10.910339349971258"><ele>424.0</ele><time>2026-04-25T14:15:58.961Z</time></trkpt><trkpt lat="44.35382640664653" lon="10.910262965251011"><ele>424.0</ele><time>2026-04-25T14:15:59.961Z</time></trkpt><trkpt lat="44.353815283752695" lon="10.91013114688079"><ele>424.00000000000006</ele><time>2026-04-25T14:16:00.961Z</time></trkpt><trkpt lat="44.35377092386966" lon="10.910050072440626"><ele>424.0</ele><time>2026-04-25T14:16:01.96Z</time></trkpt><trkpt lat="44.35371912367229" lon="10.909928726059807"><ele>426.2</ele><time>2026-04-25T14:16:03.961Z</time></trkpt><trkpt lat="44.35365650674341" lon="10.909840913593468"><ele>428.4</ele><time>2026-04-25T14:16:05.961Z</time></trkpt><trkpt lat="44.35357400007941" lon="10.909802025178495"><ele>430.6</ele><time>2026-04-25T14:16:07.961Z</time></trkpt><trkpt lat="44.35349143828496" lon="10.909744491159687"><ele>432.8</ele><time>2026-04-25T14:16:09.96Z</time></trkpt><trkpt lat="44.353399470802366" lon="10.909668997085989"><ele>435.0</ele><time>2026-04-25T14:16:11.961Z</time></trkpt><trkpt lat="44.35330178862076" lon="10.90965322557555"><ele>435.0</ele><time>2026-04-25T14:16:13.961Z</time></trkpt><trkpt lat="44.35320744292853" lon="10.909607906288722"><ele>435.0</ele><time>2026-04-25T14:16:15.961Z</time></trkpt><trkpt lat="44.353097019085475" lon="10.909610154041616"><ele>435.0</ele><time>2026-04-25T14:16:17.961Z</time></trkpt><trkpt lat="44.35298865267031" lon="10.909615777820871"><ele>435.0</ele><time>2026-04-25T14:16:19.961Z</time></trkpt><trkpt lat="44.352866371595404" lon="10.909569290316526"><ele>435.0</ele><time>2026-04-25T14:16:21.961Z</time></trkpt><trkpt lat="44.35279465000919" lon="10.909518812074706"><ele>433.2</ele><time>2026-04-25T14:16:22.961Z</time></trkpt><trkpt lat="44.35271932047299" lon="10.909447922172234"><ele>431.4</ele><time>2026-04-25T14:16:23.961Z</time></trkpt><trkpt lat="44.35263495943441" lon="10.909364944741677"><ele>429.6</ele><time>2026-04-25T14:16:24.961Z</time></trkpt><trkpt lat="44.35253979749468" lon="10.909271055898191"><ele>427.8</ele><time>2026-04-25T14:16:25.961Z</time></trkpt><trkpt lat="44.35243779287043" lon="10.909167697918294"><ele>426.0</ele><time>2026-04-25T14:16:26.961Z</time></trkpt><trkpt lat="44.35233654026089" lon="10.909054419836655"><ele>427.75</ele><time>2026-04-25T14:16:27.961Z</time></trkpt><trkpt lat="44.35223502262926" lon="10.90893338700813"><ele>429.5</ele><time>2026-04-25T14:16:28.961Z</time></trkpt><trkpt lat="44.352127183952696" lon="10.908788173225766"><ele>431.25</ele><time>2026-04-25T14:16:29.961Z</time></trkpt><trkpt lat="44.35200710586376" lon="10.908643996842105"><ele>433.0</ele><time>2026-04-25T14:16:30.961Z</time></trkpt><trkpt lat="44.35188437716477" lon="10.908498372440901"><ele>437.6666666666667</ele><time>2026-04-25T14:16:31.961Z</time></trkpt><trkpt lat="44.35176613338923" lon="10.908347869377504"><ele>442.33333333333337</ele><time>2026-04-25T14:16:32.961Z</time></trkpt><trkpt lat="44.35164998633456" lon="10.908198908072734"><ele>447.0</ele><time>2026-04-25T14:16:33.961Z</time></trkpt><trkpt lat="44.35153145567421" lon="10.908047419474418"><ele>447.0</ele><time>2026-04-25T14:16:34.961Z</time></trkpt><trkpt lat="44.3514309842854" lon="10.907869516433509"><ele>447.0</ele><time>2026-04-25T14:16:35.961Z</time></trkpt><trkpt lat="44.351335358119584" lon="10.907700066325352"><ele>447.0</ele><time>2026-04-25T14:16:36.961Z</time></trkpt><trkpt lat="44.351236043545335" lon="10.907562223940776"><ele>447.40000000000003</ele><time>2026-04-25T14:16:37.961Z</time></trkpt><trkpt lat="44.35112225272999" lon="10.907463145478438"><ele>447.80000000000007</ele><time>2026-04-25T14:16:38.961Z</time></trkpt><trkpt lat="44.35101975284202" lon="10.90739958833749"><ele>448.2</ele><time>2026-04-25T14:16:39.961Z</time></trkpt><trkpt lat="44.3509484682183" lon="10.907328315405001"><ele>448.6</ele><time>2026-04-25T14:16:40.961Z</time></trkpt><trkpt lat="44.3509373816174" lon="10.907224051601185"><ele>449.0</ele><time>2026-04-25T14:16:41.961Z</time></trkpt><trkpt lat="44.350987682233225" lon="10.907122678144013"><ele>449.0</ele><time>2026-04-25T14:16:42.961Z</time></trkpt><trkpt lat="44.35108487566114" lon="10.907080840154077"><ele>449.0</ele><time>2026-04-25T14:16:43.961Z</time></trkpt><trkpt lat="44.35119656601974" lon="10.907144308382433"><ele>449.0</ele><time>2026-04-25T14:16:44.961Z</time></trkpt><trkpt lat="44.35130411448822" lon="10.907287963385228"><ele>449.0</ele><time>2026-04-25T14:16:45.961Z</time></trkpt><trkpt lat="44.351408613720366" lon="10.907442452095856"><ele>448.5</ele><time>2026-04-25T14:16:46.961Z</time></trkpt><trkpt lat="44.35152095790636" lon="10.907577243781134"><ele>448.0</ele><time>2026-04-25T14:16:47.961Z</time></trkpt><trkpt lat="44.35164433600991" lon="10.907686963773834"><ele>447.5</ele><time>2026-04-25T14:16:48.961Z</time></trkpt><trkpt lat="44.35178498890257" lon="10.907760533197317"><ele>447.0</ele><time>2026-04-25T14:16:49.961Z</time></trkpt><trkpt lat="44.35196810276659" lon="10.90778863748297"><ele>447.0</ele><time>2026-04-25T14:16:50.961Z</time></trkpt><trkpt lat="44.35215919773727" lon="10.90781454804111"><ele>447.0</ele><time>2026-04-25T14:16:51.961Z</time></trkpt><trkpt lat="44.35236199584656" lon="10.90784832852099"><ele>447.0</ele><time>2026-04-25T14:16:52.961Z</time></trkpt><trkpt lat="44.35255625473554" lon="10.907880303492465"><ele>450.66666666666663</ele><time>2026-04-25T14:16:53.961Z</time></trkpt><trkpt lat="44.352757084515" lon="10.907910653987404"><ele>454.3333333333333</ele><time>2026-04-25T14:16:54.961Z</time></trkpt><trkpt lat="44.35295488836923" lon="10.907952939350238"><ele>458.0</ele><time>2026-04-25T14:16:55.961Z</time></trkpt><trkpt lat="44.353148995078946" lon="10.90797368276009"><ele>460.3333333333333</ele><time>2026-04-25T14:16:56.961Z</time></trkpt><trkpt lat="44.35335784563352" lon="10.907966595638888"><ele>462.66666666666663</ele><time>2026-04-25T14:16:57.961Z</time></trkpt><trkpt lat="44.35356149032126" lon="10.907946349342648"><ele>465.0</ele><time>2026-04-25T14:16:58.961Z</time></trkpt><trkpt lat="44.35373118434609" lon="10.907937590534614"><ele>465.0</ele><time>2026-04-25T14:16:59.961Z</time></trkpt><trkpt lat="44.353873711158776" lon="10.907916743954306"><ele>465.0</ele><time>2026-04-25T14:17:00.961Z</time></trkpt><trkpt lat="44.35396872468828" lon="10.907868860559171"><ele>465.0</ele><time>2026-04-25T14:17:01.961Z</time></trkpt><trkpt lat="44.354041443602796" lon="10.907770558718335"><ele>465.0</ele><time>2026-04-25T14:17:02.961Z</time></trkpt><trkpt lat="44.35409521943838" lon="10.907618221994262"><ele>469.66666666666663</ele><time>2026-04-25T14:17:03.961Z</time></trkpt><trkpt lat="44.354155207403515" lon="10.907415334348556"><ele>474.3333333333333</ele><time>2026-04-25T14:17:04.961Z</time></trkpt><trkpt lat="44.35424115672233" lon="10.907237388531541"><ele>479.0</ele><time>2026-04-25T14:17:05.961Z</time></trkpt><trkpt lat="44.354385866074885" lon="10.907149715779287"><ele>479.0</ele><time>2026-04-25T14:17:06.961Z</time></trkpt><trkpt lat="44.35450524945626" lon="10.907048491741145"><ele>479.0</ele><time>2026-04-25T14:17:07.961Z</time></trkpt><trkpt lat="44.35461252786288" lon="10.906991237701103"><ele>479.0</ele><time>2026-04-25T14:17:08.961Z</time></trkpt><trkpt lat="44.354675331367275" lon="10.906885962805239"><ele>479.0</ele><time>2026-04-25T14:17:09.961Z</time></trkpt><trkpt lat="44.35465094579072" lon="10.906734381353093"><ele>481.25</ele><time>2026-04-25T14:17:10.961Z</time></trkpt><trkpt lat="44.35460412418125" lon="10.906615086304537"><ele>483.5</ele><time>2026-04-25T14:17:11.961Z</time></trkpt><trkpt lat="44.3544906287232" lon="10.906555740122144"><ele>485.75</ele><time>2026-04-25T14:17:12.961Z</time></trkpt><trkpt lat="44.35434573602919" lon="10.906534706502004"><ele>488.0</ele><time>2026-04-25T14:17:13.961Z</time></trkpt><trkpt lat="44.354191160302854" lon="10.906517515869524"><ele>488.0</ele><time>2026-04-25T14:17:14.961Z</time></trkpt><trkpt lat="44.35404032906543" lon="10.906418306146266"><ele>488.0</ele><time>2026-04-25T14:17:15.961Z</time></trkpt><trkpt lat="44.35392213052477" lon="10.906295501751426"><ele>488.0</ele><time>2026-04-25T14:17:16.961Z</time></trkpt><trkpt lat="44.3538056013021" lon="10.906126490372992"><ele>491.3333333333333</ele><time>2026-04-25T14:17:17.961Z</time></trkpt><trkpt lat="44.35367861180381" lon="10.90595533463453"><ele>494.66666666666663</ele><time>2026-04-25T14:17:18.961Z</time></trkpt><trkpt lat="44.3535365023101" lon="10.905784107832302"><ele>498.0</ele><time>2026-04-25T14:17:19.961Z</time></trkpt><trkpt lat="44.35340419735282" lon="10.905605446252983"><ele>498.0</ele><time>2026-04-25T14:17:20.961Z</time></trkpt><trkpt lat="44.35327666724094" lon="10.90544634123576"><ele>498.0</ele><time>2026-04-25T14:17:21.961Z</time></trkpt><trkpt lat="44.353156301896995" lon="10.905325803325487"><ele>498.0</ele><time>2026-04-25T14:17:22.961Z</time></trkpt><trkpt lat="44.353022351683386" lon="10.905253230775122"><ele>498.66666666666663</ele><time>2026-04-25T14:17:23.961Z</time></trkpt><trkpt lat="44.352862685908335" lon="10.905229379211166"><ele>499.3333333333333</ele><time>2026-04-25T14:17:24.961Z</time></trkpt><trkpt lat="44.352684609754704" lon="10.90524667426633"><ele>500.0</ele><time>2026-04-25T14:17:25.961Z</time></trkpt><trkpt lat="44.352536395905574" lon="10.905147735000853"><ele>500.0</ele><time>2026-04-25T14:17:26.961Z</time></trkpt><trkpt lat="44.35241219332589" lon="10.905022891463398"><ele>500.0</ele><time>2026-04-25T14:17:27.961Z</time></trkpt><trkpt lat="44.3522779295423" lon="10.904853270589516"><ele>500.0</ele><time>2026-04-25T14:17:28.961Z</time></trkpt><trkpt lat="44.35211996788098" lon="10.904676028914515"><ele>500.0</ele><time>2026-04-25T14:17:29.961Z</time></trkpt><trkpt lat="44.351967518396584" lon="10.904465702212319"><ele>500.0</ele><time>2026-04-25T14:17:30.961Z</time></trkpt><trkpt lat="44.35181131966283" lon="10.904251627168062"><ele>500.0</ele><time>2026-04-25T14:17:31.961Z</time></trkpt><trkpt lat="44.351646351685204" lon="10.904033664547676"><ele>500.5</ele><time>2026-04-25T14:17:32.961Z</time></trkpt><trkpt lat="44.351463884425954" lon="10.903818348525556"><ele>501.0</ele><time>2026-04-25T14:17:33.961Z</time></trkpt><trkpt lat="44.35130296530015" lon="10.903615065967232"><ele>502.0</ele><time>2026-04-25T14:17:34.961Z</time></trkpt><trkpt lat="44.35114732750755" lon="10.903425730080398"><ele>503.0</ele><time>2026-04-25T14:17:35.961Z</time></trkpt><trkpt lat="44.35097797581607" lon="10.903268838502512"><ele>504.0</ele><time>2026-04-25T14:17:36.961Z</time></trkpt><trkpt lat="44.35079194271757" lon="10.903135118071688"><ele>504.0</ele><time>2026-04-25T14:17:37.961Z</time></trkpt><trkpt lat="44.35058667950992" lon="10.903023954075747"><ele>504.0</ele><time>2026-04-25T14:17:38.961Z</time></trkpt><trkpt lat="44.35041211112885" lon="10.902877656130055"><ele>504.0</ele><time>2026-04-25T14:17:39.961Z</time></trkpt><trkpt lat="44.350252519264515" lon="10.902716628202295"><ele>506.0</ele><time>2026-04-25T14:17:40.961Z</time></trkpt><trkpt lat="44.35009904088967" lon="10.902535694960822"><ele>508.0</ele><time>2026-04-25T14:17:41.961Z</time></trkpt><trkpt lat="44.349931225547714" lon="10.90234884933108"><ele>510.0</ele><time>2026-04-25T14:17:42.961Z</time></trkpt><trkpt lat="44.349770815194255" lon="10.902136289470207"><ele>507.0</ele><time>2026-04-25T14:17:43.961Z</time></trkpt><trkpt lat="44.349602379961" lon="10.901926083947213"><ele>504.0</ele><time>2026-04-25T14:17:44.961Z</time></trkpt><trkpt lat="44.34942280920311" lon="10.901715933857224"><ele>511.0</ele><time>2026-04-25T14:17:45.961Z</time></trkpt><trkpt lat="44.349249055733914" lon="10.901511398530308"><ele>518.0</ele><time>2026-04-25T14:17:46.961Z</time></trkpt><trkpt lat="44.34906931529656" lon="10.901318861572468"><ele>518.0</ele><time>2026-04-25T14:17:47.961Z</time></trkpt><trkpt lat="44.34888320105499" lon="10.90114929176793"><ele>518.0</ele><time>2026-04-25T14:17:48.961Z</time></trkpt><trkpt lat="44.34869281207063" lon="10.90103052670476"><ele>518.0</ele><time>2026-04-25T14:17:49.961Z</time></trkpt><trkpt lat="44.34850320386629" lon="10.900933327482198"><ele>520.0</ele><time>2026-04-25T14:17:50.961Z</time></trkpt><trkpt lat="44.348334196182655" lon="10.900846915720978"><ele>522.0</ele><time>2026-04-25T14:17:51.961Z</time></trkpt><trkpt lat="44.34819409511945" lon="10.900716777735965"><ele>524.0</ele><time>2026-04-25T14:17:52.961Z</time></trkpt><trkpt lat="44.348078434414695" lon="10.90053474234372"><ele>524.3333333333333</ele><time>2026-04-25T14:17:53.961Z</time></trkpt><trkpt lat="44.34793243425333" lon="10.900345539584581"><ele>524.6666666666666</ele><time>2026-04-25T14:17:54.961Z</time></trkpt><trkpt lat="44.34779381498942" lon="10.900116329465646"><ele>525.0</ele><time>2026-04-25T14:17:55.961Z</time></trkpt><trkpt lat="44.34764717983735" lon="10.899902540891976"><ele>525.0</ele><time>2026-04-25T14:17:56.961Z</time></trkpt><trkpt lat="44.347501718937984" lon="10.899693138273967"><ele>525.0</ele><time>2026-04-25T14:17:57.961Z</time></trkpt><trkpt lat="44.34736463053439" lon="10.899502315923062"><ele>525.0</ele><time>2026-04-25T14:17:58.961Z</time></trkpt><trkpt lat="44.34724272591059" lon="10.89929499977907"><ele>528.6666666666666</ele><time>2026-04-25T14:17:59.961Z</time></trkpt><trkpt lat="44.347158853038756" lon="10.899037706120442"><ele>532.3333333333333</ele><time>2026-04-25T14:18:00.961Z</time></trkpt><trkpt lat="44.34708771267502" lon="10.898774133230951"><ele>536.0</ele><time>2026-04-25T14:18:01.961Z</time></trkpt><trkpt lat="44.34701391561315" lon="10.898502004094105"><ele>537.3333333333333</ele><time>2026-04-25T14:18:02.961Z</time></trkpt><trkpt lat="44.34694993897897" lon="10.898226715172425"><ele>538.6666666666666</ele><time>2026-04-25T14:18:03.962Z</time></trkpt><trkpt lat="44.346894663098745" lon="10.897960300512269"><ele>540.0</ele><time>2026-04-25T14:18:04.961Z</time></trkpt><trkpt lat="44.34686224597312" lon="10.897689483296233"><ele>542.0</ele><time>2026-04-25T14:18:05.961Z</time></trkpt><trkpt lat="44.34686083569157" lon="10.897412251249218"><ele>544.0</ele><time>2026-04-25T14:18:06.962Z</time></trkpt><trkpt lat="44.34686941455706" lon="10.897120274567332"><ele>546.0</ele><time>2026-04-25T14:18:07.961Z</time></trkpt><trkpt lat="44.34687581249164" lon="10.896810849876791"><ele>547.6666666666666</ele><time>2026-04-25T14:18:08.961Z</time></trkpt><trkpt lat="44.34687980406974" lon="10.896502224240248"><ele>549.3333333333333</ele><time>2026-04-25T14:18:09.962Z</time></trkpt><trkpt lat="44.34687665336387" lon="10.896197939696082"><ele>551.0</ele><time>2026-04-25T14:18:10.961Z</time></trkpt><trkpt lat="44.3468682203354" lon="10.895881836244039"><ele>552.0</ele><time>2026-04-25T14:18:11.961Z</time></trkpt><trkpt lat="44.346869742232975" lon="10.89559298774729"><ele>553.0</ele><time>2026-04-25T14:18:12.962Z</time></trkpt><trkpt lat="44.34687208432603" lon="10.895334690709266"><ele>554.0</ele><time>2026-04-25T14:18:13.962Z</time></trkpt><trkpt lat="44.34688004216449" lon="10.895105130907728"><ele>556.0</ele><time>2026-04-25T14:18:14.962Z</time></trkpt><trkpt lat="44.346924019246124" lon="10.894913388696823"><ele>558.0</ele><time>2026-04-25T14:18:15.962Z</time></trkpt><trkpt lat="44.346982162987835" lon="10.894737982862056"><ele>560.0</ele><time>2026-04-25T14:18:16.961Z</time></trkpt><trkpt lat="44.34706575893819" lon="10.894583522912034"><ele>562.0</ele><time>2026-04-25T14:18:17.961Z</time></trkpt><trkpt lat="44.34716089701955" lon="10.894389460845087"><ele>561.0</ele><time>2026-04-25T14:18:18.961Z</time></trkpt><trkpt lat="44.34727255996978" lon="10.894208067163863"><ele>560.0</ele><time>2026-04-25T14:18:19.961Z</time></trkpt><trkpt lat="44.34739028846084" lon="10.894013993209299"><ele>559.0</ele><time>2026-04-25T14:18:20.961Z</time></trkpt><trkpt lat="44.34750956596356" lon="10.893820125281522"><ele>559.0</ele><time>2026-04-25T14:18:21.961Z</time></trkpt><trkpt lat="44.347633505029705" lon="10.893614398434961"><ele>559.0</ele><time>2026-04-25T14:18:22.961Z</time></trkpt><trkpt lat="44.34777668825566" lon="10.89341987093802"><ele>559.0</ele><time>2026-04-25T14:18:23.961Z</time></trkpt><trkpt lat="44.347894987208065" lon="10.893196649106486"><ele>561.3333333333334</ele><time>2026-04-25T14:18:24.961Z</time></trkpt><trkpt lat="44.34800378364306" lon="10.892971713088649"><ele>563.6666666666666</ele><time>2026-04-25T14:18:25.961Z</time></trkpt><trkpt lat="44.34810976232876" lon="10.892752516356955"><ele>566.0</ele><time>2026-04-25T14:18:26.961Z</time></trkpt><trkpt lat="44.34821653911117" lon="10.89255291895291"><ele>568.0</ele><time>2026-04-25T14:18:27.961Z</time></trkpt><trkpt lat="44.348328585019004" lon="10.892385978259698"><ele>570.0</ele><time>2026-04-25T14:18:28.961Z</time></trkpt><trkpt lat="44.34843469352946" lon="10.892236466939307"><ele>572.0</ele><time>2026-04-25T14:18:29.961Z</time></trkpt><trkpt lat="44.34853956878222" lon="10.892131313354273"><ele>574.0</ele><time>2026-04-25T14:18:30.961Z</time></trkpt><trkpt lat="44.34862587466677" lon="10.892051245504632"><ele>574.0</ele><time>2026-04-25T14:18:31.961Z</time></trkpt><trkpt lat="44.34867852597366" lon="10.891956114351913"><ele>574.0</ele><time>2026-04-25T14:18:32.961Z</time></trkpt><trkpt lat="44.34866334040816" lon="10.891841157650772"><ele>574.0</ele><time>2026-04-25T14:18:33.961Z</time></trkpt><trkpt lat="44.34861441905465" lon="10.891751077631953"><ele>574.0</ele><time>2026-04-25T14:18:34.961Z</time></trkpt><trkpt lat="44.34854906855022" lon="10.891718568266581"><ele>574.0</ele><time>2026-04-25T14:18:35.961Z</time></trkpt><trkpt lat="44.34847393481902" lon="10.891758701938299"><ele>574.0</ele><time>2026-04-25T14:18:36.961Z</time></trkpt><trkpt lat="44.348380210523786" lon="10.891863801691576"><ele>574.0</ele><time>2026-04-25T14:18:37.961Z</time></trkpt><trkpt lat="44.34827593979563" lon="10.891994494344152"><ele>574.0</ele><time>2026-04-25T14:18:38.961Z</time></trkpt><trkpt lat="44.34815319397662" lon="10.892119721047877"><ele>574.0</ele><time>2026-04-25T14:18:39.961Z</time></trkpt><trkpt lat="44.3480429333667" lon="10.892267506918657"><ele>574.0</ele><time>2026-04-25T14:18:40.961Z</time></trkpt><trkpt lat="44.34792255356231" lon="10.89243531428808"><ele>576.3333333333334</ele><time>2026-04-25T14:18:41.961Z</time></trkpt><trkpt lat="44.34783415100772" lon="10.892642085985127"><ele>578.6666666666666</ele><time>2026-04-25T14:18:42.961Z</time></trkpt><trkpt lat="44.347706482432024" lon="10.89282161245495"><ele>581.0</ele><time>2026-04-25T14:18:43.961Z</time></trkpt><trkpt lat="44.347586335080614" lon="10.892947451131361"><ele>581.0</ele><time>2026-04-25T14:18:44.961Z</time></trkpt><trkpt lat="44.34744446784908" lon="10.893034670818455"><ele>581.0</ele><time>2026-04-25T14:18:45.961Z</time></trkpt><trkpt lat="44.347237446389705" lon="10.893148374751853"><ele>581.0</ele><time>2026-04-25T14:18:46.961Z</time></trkpt><trkpt lat="44.347043705592526" lon="10.893262055374503"><ele>579.6666666666666</ele><time>2026-04-25T14:18:47.961Z</time></trkpt><trkpt lat="44.34683543074614" lon="10.89336283094865"><ele>578.3333333333334</ele><time>2026-04-25T14:18:48.961Z</time></trkpt><trkpt lat="44.34665905779613" lon="10.893430780603998"><ele>577.0</ele><time>2026-04-25T14:18:49.961Z</time></trkpt><trkpt lat="44.34648155876103" lon="10.893461818341313"><ele>584.6666666666667</ele><time>2026-04-25T14:18:50.961Z</time></trkpt><trkpt lat="44.346321750420394" lon="10.893568759275263"><ele>592.3333333333334</ele><time>2026-04-25T14:18:51.961Z</time></trkpt><trkpt lat="44.346164845008765" lon="10.89375894914362"><ele>600.0</ele><time>2026-04-25T14:18:52.961Z</time></trkpt><trkpt lat="44.34602921565409" lon="10.893966248513548"><ele>600.0</ele><time>2026-04-25T14:18:53.961Z</time></trkpt><trkpt lat="44.345903571646424" lon="10.894146730641594"><ele>600.0</ele><time>2026-04-25T14:18:54.961Z</time></trkpt><trkpt lat="44.34575941695758" lon="10.89426624124965"><ele>600.0</ele><time>2026-04-25T14:18:55.961Z</time></trkpt><trkpt lat="44.34560732325992" lon="10.894310174225126"><ele>601.3333333333334</ele><time>2026-04-25T14:18:56.961Z</time></trkpt><trkpt lat="44.34547324890104" lon="10.894275202243948"><ele>602.6666666666667</ele><time>2026-04-25T14:18:57.961Z</time></trkpt><trkpt lat="44.34530590634879" lon="10.894190026475664"><ele>604.0</ele><time>2026-04-25T14:18:58.961Z</time></trkpt><trkpt lat="44.345132655350355" lon="10.894064748731463"><ele>604.0</ele><time>2026-04-25T14:18:59.961Z</time></trkpt><trkpt lat="44.34496288781808" lon="10.893878111460875"><ele>604.0</ele><time>2026-04-25T14:19:00.961Z</time></trkpt><trkpt lat="44.34478276374664" lon="10.893707144115576"><ele>604.0</ele><time>2026-04-25T14:19:01.961Z</time></trkpt><trkpt lat="44.34459271636551" lon="10.893519191848844"><ele>613.0</ele><time>2026-04-25T14:19:02.961Z</time></trkpt><trkpt lat="44.344383639988735" lon="10.893361047836855"><ele>622.0</ele><time>2026-04-25T14:19:03.961Z</time></trkpt><trkpt lat="44.34416188695807" lon="10.893207456108835"><ele>622.0</ele><time>2026-04-25T14:19:04.961Z</time></trkpt><trkpt lat="44.3439436558807" lon="10.893056405137493"><ele>622.0</ele><time>2026-04-25T14:19:05.961Z</time></trkpt><trkpt lat="44.343719691434664" lon="10.892893472867197"><ele>625.0</ele><time>2026-04-25T14:19:06.961Z</time></trkpt><trkpt lat="44.34352041637263" lon="10.892729456981463"><ele>628.0</ele><time>2026-04-25T14:19:07.961Z</time></trkpt><trkpt lat="44.34334868807908" lon="10.892574978917365"><ele>631.0</ele><time>2026-04-25T14:19:08.961Z</time></trkpt><trkpt lat="44.343177131172645" lon="10.892450510688654"><ele>631.6666666666667</ele><time>2026-04-25T14:19:09.961Z</time></trkpt><trkpt lat="44.34297940015604" lon="10.89241430297042"><ele>632.3333333333334</ele><time>2026-04-25T14:19:10.961Z</time></trkpt><trkpt lat="44.34277545874272" lon="10.8924348001069"><ele>633.0</ele><time>2026-04-25T14:19:11.961Z</time></trkpt><trkpt lat="44.34258025804215" lon="10.892444058032181"><ele>633.0</ele><time>2026-04-25T14:19:12.961Z</time></trkpt><trkpt lat="44.342416285094885" lon="10.892518973981204"><ele>633.0</ele><time>2026-04-25T14:19:13.961Z</time></trkpt><trkpt lat="44.3422603506673" lon="10.892626135903418"><ele>633.0</ele><time>2026-04-25T14:19:14.961Z</time></trkpt><trkpt lat="44.342119025296945" lon="10.892870813146882"><ele>630.3333333333334</ele><time>2026-04-25T14:19:15.961Z</time></trkpt><trkpt lat="44.34197256496913" lon="10.893101066576765"><ele>627.6666666666667</ele><time>2026-04-25T14:19:16.961Z</time></trkpt><trkpt lat="44.34180887494799" lon="10.893243581410177"><ele>625.0</ele><time>2026-04-25T14:19:17.961Z</time></trkpt><trkpt lat="44.34162254166621" lon="10.893327236947895"><ele>625.0</ele><time>2026-04-25T14:19:18.961Z</time></trkpt><trkpt lat="44.341422185247026" lon="10.893369424977879"><ele>625.0</ele><time>2026-04-25T14:19:19.961Z</time></trkpt><trkpt lat="44.34125140267539" lon="10.893355596083655"><ele>625.0</ele><time>2026-04-25T14:19:20.961Z</time></trkpt><trkpt lat="44.34112773437427" lon="10.893278950666044"><ele>625.5</ele><time>2026-04-25T14:19:21.961Z</time></trkpt><trkpt lat="44.34104074007424" lon="10.89314519542862"><ele>626.0</ele><time>2026-04-25T14:19:22.961Z</time></trkpt><trkpt lat="44.34104269195349" lon="10.892964824003192"><ele>626.5</ele><time>2026-04-25T14:19:23.961Z</time></trkpt><trkpt lat="44.34112609072553" lon="10.8928257670242"><ele>627.0</ele><time>2026-04-25T14:19:24.961Z</time></trkpt><trkpt lat="44.341258165034745" lon="10.892726360922197"><ele>626.3333333333334</ele><time>2026-04-25T14:19:25.961Z</time></trkpt><trkpt lat="44.341395676022046" lon="10.892624931769335"><ele>625.6666666666667</ele><time>2026-04-25T14:19:26.961Z</time></trkpt><trkpt lat="44.341535931171656" lon="10.89250338547575"><ele>625.0</ele><time>2026-04-25T14:19:27.961Z</time></trkpt><trkpt lat="44.34167913974128" lon="10.892371518327257"><ele>629.3333333333334</ele><time>2026-04-25T14:19:28.961Z</time></trkpt><trkpt lat="44.34183394034424" lon="10.892257795332046"><ele>633.6666666666666</ele><time>2026-04-25T14:19:29.961Z</time></trkpt><trkpt lat="44.34200671141313" lon="10.892198580144798"><ele>638.0</ele><time>2026-04-25T14:19:30.961Z</time></trkpt><trkpt lat="44.342178055655616" lon="10.892143105060512"><ele>636.75</ele><time>2026-04-25T14:19:31.961Z</time></trkpt><trkpt lat="44.34233513618618" lon="10.89208481955794"><ele>635.5</ele><time>2026-04-25T14:19:32.961Z</time></trkpt><trkpt lat="44.342481438161144" lon="10.892049308051323"><ele>634.25</ele><time>2026-04-25T14:19:33.961Z</time></trkpt><trkpt lat="44.34260152330009" lon="10.89199953323059"><ele>633.0</ele><time>2026-04-25T14:19:34.961Z</time></trkpt><trkpt lat="44.34269690412006" lon="10.891934072803465"><ele>633.0</ele><time>2026-04-25T14:19:35.961Z</time></trkpt><trkpt lat="44.34273119878258" lon="10.891799236803598"><ele>633.0</ele><time>2026-04-25T14:19:36.961Z</time></trkpt><trkpt lat="44.34277916736002" lon="10.891666506102387"><ele>633.0</ele><time>2026-04-25T14:19:37.961Z</time></trkpt><trkpt lat="44.34279759938287" lon="10.891518579934324"><ele>633.0</ele><time>2026-04-25T14:19:38.961Z</time></trkpt><trkpt lat="44.34276336155794" lon="10.891397664812775"><ele>633.0</ele><time>2026-04-25T14:19:39.961Z</time></trkpt><trkpt lat="44.34272568292178" lon="10.891260081895568"><ele>636.2</ele><time>2026-04-25T14:19:40.961Z</time></trkpt><trkpt lat="44.3426802507561" lon="10.891119222830731"><ele>639.4</ele><time>2026-04-25T14:19:41.961Z</time></trkpt><trkpt lat="44.342643231152636" lon="10.890996143910622"><ele>642.6</ele><time>2026-04-25T14:19:42.961Z</time></trkpt><trkpt lat="44.34255551374738" lon="10.890893938960438"><ele>645.8000000000001</ele><time>2026-04-25T14:19:43.961Z</time></trkpt><trkpt lat="44.34245532538163" lon="10.890802342837175"><ele>649.0</ele><time>2026-04-25T14:19:44.961Z</time></trkpt><trkpt lat="44.342349683154374" lon="10.890699649862237"><ele>649.0</ele><time>2026-04-25T14:19:45.961Z</time></trkpt><trkpt lat="44.34223506672267" lon="10.890597246079912"><ele>649.0</ele><time>2026-04-25T14:19:46.961Z</time></trkpt><trkpt lat="44.342134168236804" lon="10.890515717584451"><ele>649.0</ele><time>2026-04-25T14:19:47.961Z</time></trkpt><trkpt lat="44.342052755123504" lon="10.890407629508173"><ele>649.0</ele><time>2026-04-25T14:19:48.961Z</time></trkpt><trkpt lat="44.34196258184778" lon="10.890323210739107"><ele>650.0</ele><time>2026-04-25T14:19:49.961Z</time></trkpt><trkpt lat="44.34186695146588" lon="10.890237755934132"><ele>651.0</ele><time>2026-04-25T14:19:50.961Z</time></trkpt><trkpt lat="44.34177016607638" lon="10.890162108866214"><ele>652.0</ele><time>2026-04-25T14:19:51.961Z</time></trkpt><trkpt lat="44.34167163143586" lon="10.890082810205367"><ele>653.0</ele><time>2026-04-25T14:19:52.961Z</time></trkpt><trkpt lat="44.341575632458195" lon="10.890011360952851"><ele>654.0</ele><time>2026-04-25T14:19:53.961Z</time></trkpt><trkpt lat="44.341477176185904" lon="10.889949110075863"><ele>658.8000000000001</ele><time>2026-04-25T14:19:54.961Z</time></trkpt><trkpt lat="44.341381199048584" lon="10.889879100221123"><ele>663.6</ele><time>2026-04-25T14:19:55.961Z</time></trkpt><trkpt lat="44.34128718804842" lon="10.889808443991202"><ele>668.4</ele><time>2026-04-25T14:19:56.961Z</time></trkpt><trkpt lat="44.34119329950966" lon="10.889728478237581"><ele>673.2</ele><time>2026-04-25T14:19:57.961Z</time></trkpt><trkpt lat="44.34110353950078" lon="10.889641197623847"><ele>678.0</ele><time>2026-04-25T14:19:58.961Z</time></trkpt><trkpt lat="44.34101912559429" lon="10.889547191661785"><ele>678.0</ele><time>2026-04-25T14:19:59.961Z</time></trkpt><trkpt lat="44.34093001033092" lon="10.889448586243802"><ele>678.0</ele><time>2026-04-25T14:20:00.961Z</time></trkpt><trkpt lat="44.34084317800929" lon="10.889341971097615"><ele>678.0</ele><time>2026-04-25T14:20:01.961Z</time></trkpt><trkpt lat="44.34075561677649" lon="10.889226390318179"><ele>678.0</ele><time>2026-04-25T14:20:02.961Z</time></trkpt><trkpt lat="44.340665199692694" lon="10.889104036722731"><ele>680.5</ele><time>2026-04-25T14:20:03.961Z</time></trkpt><trkpt lat="44.34056608671551" lon="10.888971697668454"><ele>683.0</ele><time>2026-04-25T14:20:04.961Z</time></trkpt><trkpt lat="44.34045967726504" lon="10.888839354246503"><ele>685.5</ele><time>2026-04-25T14:20:05.961Z</time></trkpt><trkpt lat="44.34035320841812" lon="10.888691535776385"><ele>688.0</ele><time>2026-04-25T14:20:06.961Z</time></trkpt><trkpt lat="44.340238527280384" lon="10.888538939945631"><ele>682.0</ele><time>2026-04-25T14:20:07.961Z</time></trkpt><trkpt lat="44.34012058428553" lon="10.888376968853121"><ele>676.0</ele><time>2026-04-25T14:20:08.961Z</time></trkpt><trkpt lat="44.339994498779134" lon="10.888226779271077"><ele>670.0</ele><time>2026-04-25T14:20:09.962Z</time></trkpt><trkpt lat="44.339866838848884" lon="10.888073216459615"><ele>670.0</ele><time>2026-04-25T14:20:10.962Z</time></trkpt><trkpt lat="44.339740873704905" lon="10.887922100364928"><ele>670.0</ele><time>2026-04-25T14:20:11.962Z</time></trkpt><trkpt lat="44.339603008976546" lon="10.887762866261449"><ele>670.0</ele><time>2026-04-25T14:20:12.962Z</time></trkpt><trkpt lat="44.33949590697065" lon="10.887546097517957"><ele>679.3333333333334</ele><time>2026-04-25T14:20:13.962Z</time></trkpt><trkpt lat="44.3394421615067" lon="10.88733403744766"><ele>688.6666666666666</ele><time>2026-04-25T14:20:14.962Z</time></trkpt><trkpt lat="44.33939684678561" lon="10.887100868562927"><ele>698.0</ele><time>2026-04-25T14:20:15.963Z</time></trkpt><trkpt lat="44.339360515623596" lon="10.88689548825652"><ele>694.3333333333333</ele><time>2026-04-25T14:20:16.962Z</time></trkpt><trkpt lat="44.339304883720565" lon="10.88667135494648"><ele>690.6666666666666</ele><time>2026-04-25T14:20:17.962Z</time></trkpt><trkpt lat="44.33925525084662" lon="10.88646211341286"><ele>687.0</ele><time>2026-04-25T14:20:18.963Z</time></trkpt><trkpt lat="44.33918316610447" lon="10.886296576399493"><ele>687.0</ele><time>2026-04-25T14:20:19.962Z</time></trkpt><trkpt lat="44.339093031510316" lon="10.886163402996669"><ele>687.0</ele><time>2026-04-25T14:20:20.962Z</time></trkpt><trkpt lat="44.3389812799461" lon="10.886073030704576"><ele>687.0</ele><time>2026-04-25T14:20:21.962Z</time></trkpt><trkpt lat="44.338848256386804" lon="10.886026371947086"><ele>687.0</ele><time>2026-04-25T14:20:22.963Z</time></trkpt><trkpt lat="44.33870490136174" lon="10.885986224972122"><ele>688.6666666666666</ele><time>2026-04-25T14:20:23.963Z</time></trkpt><trkpt lat="44.33855737587099" lon="10.885953483814072"><ele>690.3333333333333</ele><time>2026-04-25T14:20:24.963Z</time></trkpt><trkpt lat="44.33840524152683" lon="10.885893829731268"><ele>692.0</ele><time>2026-04-25T14:20:25.962Z</time></trkpt><trkpt lat="44.33829587010455" lon="10.88575381963863"><ele>692.0</ele><time>2026-04-25T14:20:26.962Z</time></trkpt><trkpt lat="44.33818541125085" lon="10.885592767383908"><ele>692.0</ele><time>2026-04-25T14:20:27.962Z</time></trkpt><trkpt lat="44.338059699141375" lon="10.885427800804809"><ele>692.0</ele><time>2026-04-25T14:20:28.962Z</time></trkpt><trkpt lat="44.337944758973485" lon="10.88524246868518"><ele>698.3333333333333</ele><time>2026-04-25T14:20:29.962Z</time></trkpt><trkpt lat="44.33786704803774" lon="10.885019225130456"><ele>704.6666666666666</ele><time>2026-04-25T14:20:30.962Z</time></trkpt><trkpt lat="44.3377912031889" lon="10.884796014575256"><ele>711.0</ele><time>2026-04-25T14:20:31.962Z</time></trkpt><trkpt lat="44.337733536195884" lon="10.884551071023921"><ele>711.0</ele><time>2026-04-25T14:20:32.962Z</time></trkpt><trkpt lat="44.33769569964542" lon="10.884303544311745"><ele>711.0</ele><time>2026-04-25T14:20:33.962Z</time></trkpt><trkpt lat="44.33766870355178" lon="10.884060079248545"><ele>711.0</ele><time>2026-04-25T14:20:34.962Z</time></trkpt><trkpt lat="44.337656772318645" lon="10.883816223628893"><ele>708.6666666666666</ele><time>2026-04-25T14:20:35.962Z</time></trkpt><trkpt lat="44.337673252884684" lon="10.883592849890116"><ele>706.3333333333333</ele><time>2026-04-25T14:20:36.962Z</time></trkpt><trkpt lat="44.33773005625422" lon="10.883364587449655"><ele>704.0</ele><time>2026-04-25T14:20:37.962Z</time></trkpt><trkpt lat="44.33778542877827" lon="10.883163526413368"><ele>703.75</ele><time>2026-04-25T14:20:38.962Z</time></trkpt><trkpt lat="44.337790961790006" lon="10.882970226226888"><ele>703.5</ele><time>2026-04-25T14:20:39.962Z</time></trkpt><trkpt lat="44.33778421660527" lon="10.88276076684567"><ele>703.25</ele><time>2026-04-25T14:20:40.962Z</time></trkpt><trkpt lat="44.337743253489634" lon="10.882545325807516"><ele>703.0</ele><time>2026-04-25T14:20:41.962Z</time></trkpt><trkpt lat="44.337678868805824" lon="10.882319674779971"><ele>703.0</ele><time>2026-04-25T14:20:42.962Z</time></trkpt><trkpt lat="44.337610467583794" lon="10.882128278810509"><ele>703.0</ele><time>2026-04-25T14:20:43.962Z</time></trkpt><trkpt lat="44.3375332889566" lon="10.881989553828602"><ele>703.0</ele><time>2026-04-25T14:20:44.962Z</time></trkpt><trkpt lat="44.33747202591855" lon="10.881896789205285"><ele>703.0</ele><time>2026-04-25T14:20:45.962Z</time></trkpt><trkpt lat="44.33738776717994" lon="10.881887700067427"><ele>703.0</ele><time>2026-04-25T14:20:46.962Z</time></trkpt><trkpt lat="44.337326531975314" lon="10.881939961990751"><ele>703.0</ele><time>2026-04-25T14:20:47.962Z</time></trkpt><trkpt lat="44.33728491920025" lon="10.882043071132085"><ele>703.0</ele><time>2026-04-25T14:20:48.962Z</time></trkpt><trkpt lat="44.33724818605694" lon="10.882204016230082"><ele>703.0</ele><time>2026-04-25T14:20:49.962Z</time></trkpt><trkpt lat="44.337212484796645" lon="10.88241300508563"><ele>703.0</ele><time>2026-04-25T14:20:50.962Z</time></trkpt><trkpt lat="44.33716674654048" lon="10.882618069778223"><ele>704.0</ele><time>2026-04-25T14:20:51.962Z</time></trkpt><trkpt lat="44.337114900329496" lon="10.882815508957579"><ele>705.0</ele><time>2026-04-25T14:20:52.962Z</time></trkpt><trkpt lat="44.33704591925646" lon="10.882981657604711"><ele>706.0</ele><time>2026-04-25T14:20:53.962Z</time></trkpt><trkpt lat="44.336944346148066" lon="10.883089143475674"><ele>707.0</ele><time>2026-04-25T14:20:54.962Z</time></trkpt><trkpt lat="44.33680671869863" lon="10.883159707946232"><ele>707.0</ele><time>2026-04-25T14:20:55.962Z</time></trkpt><trkpt lat="44.33665090066786" lon="10.883165814217824"><ele>707.0</ele><time>2026-04-25T14:20:56.962Z</time></trkpt><trkpt lat="44.336483997745255" lon="10.883164915319663"><ele>707.0</ele><time>2026-04-25T14:20:57.962Z</time></trkpt><trkpt lat="44.3363238036762" lon="10.883080614324102"><ele>710.0</ele><time>2026-04-25T14:20:58.962Z</time></trkpt><trkpt lat="44.33617674039674" lon="10.882950396743368"><ele>713.0</ele><time>2026-04-25T14:20:59.962Z</time></trkpt><trkpt lat="44.33604972684763" lon="10.882775275919336"><ele>716.0</ele><time>2026-04-25T14:21:00.962Z</time></trkpt><trkpt lat="44.335950807786176" lon="10.882574139586874"><ele>716.0</ele><time>2026-04-25T14:21:01.962Z</time></trkpt><trkpt lat="44.335881515994515" lon="10.882334543370531"><ele>716.0</ele><time>2026-04-25T14:21:02.962Z</time></trkpt><trkpt lat="44.33583443020293" lon="10.882075228020932"><ele>716.0</ele><time>2026-04-25T14:21:03.962Z</time></trkpt><trkpt lat="44.33578600452922" lon="10.88180719995052"><ele>715.0</ele><time>2026-04-25T14:21:04.962Z</time></trkpt><trkpt lat="44.33575497174757" lon="10.881526989398788"><ele>714.0</ele><time>2026-04-25T14:21:05.962Z</time></trkpt><trkpt lat="44.33574845610762" lon="10.881246322713444"><ele>713.0</ele><time>2026-04-25T14:21:06.962Z</time></trkpt><trkpt lat="44.33576979519163" lon="10.880977211131523"><ele>713.6666666666666</ele><time>2026-04-25T14:21:07.962Z</time></trkpt><trkpt lat="44.33579893786104" lon="10.880713679539795"><ele>714.3333333333334</ele><time>2026-04-25T14:21:08.962Z</time></trkpt><trkpt lat="44.335808755620654" lon="10.880453110417685"><ele>715.0</ele><time>2026-04-25T14:21:09.962Z</time></trkpt><trkpt lat="44.335801135465864" lon="10.880180316085932"><ele>715.6666666666667</ele><time>2026-04-25T14:21:10.962Z</time></trkpt><trkpt lat="44.33579099792474" lon="10.879907819254665"><ele>716.3333333333334</ele><time>2026-04-25T14:21:11.962Z</time></trkpt><trkpt lat="44.33578863968538" lon="10.879652861419588"><ele>717.0</ele><time>2026-04-25T14:21:12.962Z</time></trkpt><trkpt lat="44.33581426868824" lon="10.879421901276466"><ele>718.6666666666666</ele><time>2026-04-25T14:21:13.962Z</time></trkpt><trkpt lat="44.33587398862339" lon="10.879217039049342"><ele>720.3333333333333</ele><time>2026-04-25T14:21:14.962Z</time></trkpt><trkpt lat="44.33595284497825" lon="10.879028233274425"><ele>722.0</ele><time>2026-04-25T14:21:15.962Z</time></trkpt><trkpt lat="44.33606369255469" lon="10.878877519633317"><ele>722.0</ele><time>2026-04-25T14:21:16.962Z</time></trkpt><trkpt lat="44.33614042294343" lon="10.878751281281"><ele>722.0</ele><time>2026-04-25T14:21:17.962Z</time></trkpt><trkpt lat="44.33620213554891" lon="10.878656839162803"><ele>722.0</ele><time>2026-04-25T14:21:18.962Z</time></trkpt><trkpt lat="44.336244233820466" lon="10.878585330138849"><ele>722.0</ele><time>2026-04-25T14:21:19.962Z</time></trkpt><trkpt lat="44.33628347962988" lon="10.878505002358212"><ele>722.0</ele><time>2026-04-25T14:21:21.962Z</time></trkpt><trkpt lat="44.33627596817261" lon="10.878407824872058"><ele>722.0</ele><time>2026-04-25T14:21:28.962Z</time></trkpt><trkpt lat="44.33636459450426" lon="10.878386328506885"><ele>722.1666666666666</ele><time>2026-04-25T14:21:29.962Z</time></trkpt><trkpt lat="44.33641290581276" lon="10.878291657748537"><ele>722.3333333333333</ele><time>2026-04-25T14:21:34.962Z</time></trkpt><trkpt lat="44.336453719151976" lon="10.878201201989551"><ele>722.5</ele><time>2026-04-25T14:21:36.962Z</time></trkpt><trkpt lat="44.33650452855008" lon="10.87813036102639"><ele>722.6666666666666</ele><time>2026-04-25T14:21:37.962Z</time></trkpt><trkpt lat="44.33654885390083" lon="10.878021888200013"><ele>722.8333333333334</ele><time>2026-04-25T14:21:38.962Z</time></trkpt><trkpt lat="44.33657632883163" lon="10.877872653900084"><ele>723.0</ele><time>2026-04-25T14:21:39.962Z</time></trkpt><trkpt lat="44.33660372712396" lon="10.877721095765551"><ele>724.25</ele><time>2026-04-25T14:21:40.962Z</time></trkpt><trkpt lat="44.33663680237898" lon="10.877560169786586"><ele>725.5</ele><time>2026-04-25T14:21:41.962Z</time></trkpt><trkpt lat="44.336659481691726" lon="10.87737889515618"><ele>726.75</ele><time>2026-04-25T14:21:42.962Z</time></trkpt><trkpt lat="44.3366896049552" lon="10.877182753494468"><ele>728.0</ele><time>2026-04-25T14:21:43.962Z</time></trkpt><trkpt lat="44.33674278284626" lon="10.87697269649491"><ele>729.0</ele><time>2026-04-25T14:21:44.962Z</time></trkpt><trkpt lat="44.33681468851713" lon="10.876757344050887"><ele>730.0</ele><time>2026-04-25T14:21:45.962Z</time></trkpt><trkpt lat="44.33686911027375" lon="10.876522868703855"><ele>731.0</ele><time>2026-04-25T14:21:46.962Z</time></trkpt><trkpt lat="44.33690201427796" lon="10.876270529062353"><ele>731.0</ele><time>2026-04-25T14:21:47.962Z</time></trkpt><trkpt lat="44.33696225144924" lon="10.876033274917935"><ele>731.0</ele><time>2026-04-25T14:21:48.962Z</time></trkpt><trkpt lat="44.33708298177387" lon="10.875826643866962"><ele>731.0</ele><time>2026-04-25T14:21:49.962Z</time></trkpt><trkpt lat="44.33722130009774" lon="10.875624047304019"><ele>731.0</ele><time>2026-04-25T14:21:50.962Z</time></trkpt><trkpt lat="44.33734499985744" lon="10.875407044548034"><ele>731.0</ele><time>2026-04-25T14:21:51.962Z</time></trkpt><trkpt lat="44.337449415936995" lon="10.875164545251643"><ele>731.0</ele><time>2026-04-25T14:21:52.962Z</time></trkpt><trkpt lat="44.33754073527978" lon="10.874911259107312"><ele>731.0</ele><time>2026-04-25T14:21:53.962Z</time></trkpt><trkpt lat="44.33761717338723" lon="10.874669837109014"><ele>731.0</ele><time>2026-04-25T14:21:54.962Z</time></trkpt><trkpt lat="44.33768955779517" lon="10.874431963462776"><ele>731.0</ele><time>2026-04-25T14:21:55.962Z</time></trkpt><trkpt lat="44.33774917861044" lon="10.874179748179897"><ele>731.3333333333333</ele><time>2026-04-25T14:21:56.962Z</time></trkpt><trkpt lat="44.33779094074411" lon="10.87391181432598"><ele>731.6666666666666</ele><time>2026-04-25T14:21:57.962Z</time></trkpt><trkpt lat="44.33782686797693" lon="10.873632936609665"><ele>732.0</ele><time>2026-04-25T14:21:58.962Z</time></trkpt><trkpt lat="44.337887077712665" lon="10.873346695655759"><ele>730.0</ele><time>2026-04-25T14:21:59.962Z</time></trkpt><trkpt lat="44.337966820226825" lon="10.873058481874336"><ele>728.0</ele><time>2026-04-25T14:22:00.962Z</time></trkpt><trkpt lat="44.33804618891487" lon="10.872769511354033"><ele>726.0</ele><time>2026-04-25T14:22:01.962Z</time></trkpt><trkpt lat="44.33812354210617" lon="10.872468944943455"><ele>725.0</ele><time>2026-04-25T14:22:02.962Z</time></trkpt><trkpt lat="44.33819082786526" lon="10.872165717539243"><ele>724.0</ele><time>2026-04-25T14:22:03.962Z</time></trkpt><trkpt lat="44.338248969061745" lon="10.87186257500615"><ele>723.3333333333334</ele><time>2026-04-25T14:22:04.962Z</time></trkpt><trkpt lat="44.33830933420827" lon="10.871563500966696"><ele>722.6666666666666</ele><time>2026-04-25T14:22:05.962Z</time></trkpt><trkpt lat="44.33837092131217" lon="10.87127405771189"><ele>722.0</ele><time>2026-04-25T14:22:06.962Z</time></trkpt><trkpt lat="44.338437377924656" lon="10.87098944050963"><ele>723.3333333333333</ele><time>2026-04-25T14:22:07.962Z</time></trkpt><trkpt lat="44.33851039128303" lon="10.87070803392489"><ele>724.6666666666666</ele><time>2026-04-25T14:22:08.962Z</time></trkpt><trkpt lat="44.338569127763016" lon="10.870427966286448"><ele>726.0</ele><time>2026-04-25T14:22:09.962Z</time></trkpt><trkpt lat="44.338633667686835" lon="10.870159095024126"><ele>726.0</ele><time>2026-04-25T14:22:10.962Z</time></trkpt><trkpt lat="44.338714410281085" lon="10.869901362899752"><ele>726.0</ele><time>2026-04-25T14:22:11.962Z</time></trkpt><trkpt lat="44.33883039527899" lon="10.86967324624236"><ele>726.0</ele><time>2026-04-25T14:22:12.962Z</time></trkpt><trkpt lat="44.338930028363094" lon="10.869433702441848"><ele>731.0</ele><time>2026-04-25T14:22:13.962Z</time></trkpt><trkpt lat="44.33904150155786" lon="10.869239452908735"><ele>736.0</ele><time>2026-04-25T14:22:14.962Z</time></trkpt><trkpt lat="44.339147959328116" lon="10.869069683348277"><ele>741.0</ele><time>2026-04-25T14:22:15.963Z</time></trkpt><trkpt lat="44.33925423383608" lon="10.86891969774467"><ele>741.0</ele><time>2026-04-25T14:22:16.962Z</time></trkpt><trkpt lat="44.33934457776072" lon="10.868786081868958"><ele>741.0</ele><time>2026-04-25T14:22:17.962Z</time></trkpt><trkpt lat="44.339399604460745" lon="10.86865039281569"><ele>741.0</ele><time>2026-04-25T14:22:18.962Z</time></trkpt><trkpt lat="44.33941236746006" lon="10.868490509673187"><ele>741.0</ele><time>2026-04-25T14:22:19.962Z</time></trkpt><trkpt lat="44.33936888641512" lon="10.868334261038784"><ele>742.6666666666666</ele><time>2026-04-25T14:22:20.962Z</time></trkpt><trkpt lat="44.33923386514291" lon="10.868181714076956"><ele>744.3333333333333</ele><time>2026-04-25T14:22:21.963Z</time></trkpt><trkpt lat="44.339080959217085" lon="10.868079761349826"><ele>746.0</ele><time>2026-04-25T14:22:22.963Z</time></trkpt><trkpt lat="44.33889492215852" lon="10.868008059539804"><ele>749.0</ele><time>2026-04-25T14:22:23.963Z</time></trkpt><trkpt lat="44.33870741378386" lon="10.868020683355518"><ele>752.0</ele><time>2026-04-25T14:22:24.962Z</time></trkpt><trkpt lat="44.338540039823954" lon="10.867979240249785"><ele>755.0</ele><time>2026-04-25T14:22:25.963Z</time></trkpt><trkpt lat="44.338466386451294" lon="10.8678924086493"><ele>755.0</ele><time>2026-04-25T14:22:26.963Z</time></trkpt><trkpt lat="44.338329690132035" lon="10.867753206495777"><ele>755.0</ele><time>2026-04-25T14:22:27.963Z</time></trkpt><trkpt lat="44.33821979414334" lon="10.867584570590902"><ele>755.0</ele><time>2026-04-25T14:22:28.962Z</time></trkpt><trkpt lat="44.33816691427612" lon="10.867378016595652"><ele>755.3333333333333</ele><time>2026-04-25T14:22:29.962Z</time></trkpt><trkpt lat="44.33816062988822" lon="10.867171556274263"><ele>755.6666666666666</ele><time>2026-04-25T14:22:30.962Z</time></trkpt><trkpt lat="44.338164730313615" lon="10.866939761598536"><ele>756.0</ele><time>2026-04-25T14:22:31.962Z</time></trkpt><trkpt lat="44.33818833555789" lon="10.866694228895476"><ele>756.6666666666666</ele><time>2026-04-25T14:22:32.962Z</time></trkpt><trkpt lat="44.33823930603333" lon="10.866464456283042"><ele>757.3333333333333</ele><time>2026-04-25T14:22:33.962Z</time></trkpt><trkpt lat="44.338296191271546" lon="10.866224274081265"><ele>758.0</ele><time>2026-04-25T14:22:34.962Z</time></trkpt><trkpt lat="44.3383551174343" lon="10.865973389707325"><ele>759.0</ele><time>2026-04-25T14:22:35.962Z</time></trkpt><trkpt lat="44.33841590486727" lon="10.865713586313019"><ele>760.0</ele><time>2026-04-25T14:22:36.962Z</time></trkpt><trkpt lat="44.3384771497905" lon="10.865452277160436"><ele>761.0</ele><time>2026-04-25T14:22:37.962Z</time></trkpt><trkpt lat="44.33853673741089" lon="10.86519975427046"><ele>763.3333333333333</ele><time>2026-04-25T14:22:38.962Z</time></trkpt><trkpt lat="44.33858622157938" lon="10.86493773852384"><ele>765.6666666666666</ele><time>2026-04-25T14:22:39.962Z</time></trkpt><trkpt lat="44.33864747377951" lon="10.864690226294915"><ele>768.0</ele><time>2026-04-25T14:22:40.962Z</time></trkpt><trkpt lat="44.33869210978657" lon="10.864438459957361"><ele>770.6666666666667</ele><time>2026-04-25T14:22:41.962Z</time></trkpt><trkpt lat="44.33869792320451" lon="10.864183933007068"><ele>773.3333333333334</ele><time>2026-04-25T14:22:42.962Z</time></trkpt><trkpt lat="44.33867000764604" lon="10.863924718900977"><ele>776.0</ele><time>2026-04-25T14:22:43.962Z</time></trkpt><trkpt lat="44.338626723564296" lon="10.863659587335183"><ele>776.0</ele><time>2026-04-25T14:22:44.962Z</time></trkpt><trkpt lat="44.33859403869334" lon="10.863391407517609"><ele>776.0</ele><time>2026-04-25T14:22:45.962Z</time></trkpt><trkpt lat="44.33855603634785" lon="10.863139597294584"><ele>776.0</ele><time>2026-04-25T14:22:46.962Z</time></trkpt><trkpt lat="44.33851785736303" lon="10.862897025935727"><ele>776.0</ele><time>2026-04-25T14:22:47.962Z</time></trkpt><trkpt lat="44.33842484594368" lon="10.862651460613936"><ele>776.0</ele><time>2026-04-25T14:22:48.962Z</time></trkpt><trkpt lat="44.338325098963224" lon="10.862396405717588"><ele>776.0</ele><time>2026-04-25T14:22:49.962Z</time></trkpt><trkpt lat="44.338227046466365" lon="10.862148670013791"><ele>775.6666666666667</ele><time>2026-04-25T14:22:50.962Z</time></trkpt><trkpt lat="44.33813679762318" lon="10.861922292985241"><ele>775.3333333333333</ele><time>2026-04-25T14:22:51.962Z</time></trkpt><trkpt lat="44.33805720289668" lon="10.861715217026063"><ele>775.0</ele><time>2026-04-25T14:22:52.962Z</time></trkpt><trkpt lat="44.3379809570418" lon="10.861522267765078"><ele>775.6666666666666</ele><time>2026-04-25T14:22:53.962Z</time></trkpt><trkpt lat="44.33791441294768" lon="10.861333517058627"><ele>776.3333333333333</ele><time>2026-04-25T14:22:54.962Z</time></trkpt><trkpt lat="44.33788558439609" lon="10.861128577760153"><ele>777.0</ele><time>2026-04-25T14:22:55.962Z</time></trkpt><trkpt lat="44.33793154303278" lon="10.860912134467767"><ele>775.0</ele><time>2026-04-25T14:22:56.962Z</time></trkpt><trkpt lat="44.33799484572276" lon="10.860672957161416"><ele>773.0</ele><time>2026-04-25T14:22:57.962Z</time></trkpt><trkpt lat="44.33807787795831" lon="10.860440830676566"><ele>771.0</ele><time>2026-04-25T14:22:58.962Z</time></trkpt><trkpt lat="44.33813664963521" lon="10.860207517709489"><ele>770.6666666666667</ele><time>2026-04-25T14:22:59.962Z</time></trkpt><trkpt lat="44.33818358916006" lon="10.859987753011177"><ele>770.3333333333334</ele><time>2026-04-25T14:23:00.962Z</time></trkpt><trkpt lat="44.33823452021839" lon="10.859769202218715"><ele>770.0</ele><time>2026-04-25T14:23:01.962Z</time></trkpt><trkpt lat="44.33828775765836" lon="10.85954658824145"><ele>770.0</ele><time>2026-04-25T14:23:02.962Z</time></trkpt><trkpt lat="44.33834962243358" lon="10.859315986072204"><ele>770.0</ele><time>2026-04-25T14:23:03.962Z</time></trkpt><trkpt lat="44.33841029648768" lon="10.859078891131556"><ele>770.0</ele><time>2026-04-25T14:23:04.962Z</time></trkpt><trkpt lat="44.33846780610414" lon="10.858835079829458"><ele>772.0</ele><time>2026-04-25T14:23:05.962Z</time></trkpt><trkpt lat="44.33852947882893" lon="10.858595183309703"><ele>774.0</ele><time>2026-04-25T14:23:06.962Z</time></trkpt><trkpt lat="44.338589978973424" lon="10.8583575600164"><ele>776.0</ele><time>2026-04-25T14:23:07.962Z</time></trkpt><trkpt lat="44.33869454268504" lon="10.858207656267922"><ele>776.75</ele><time>2026-04-25T14:23:08.962Z</time></trkpt><trkpt lat="44.33878593195049" lon="10.85806274382647"><ele>777.5</ele><time>2026-04-25T14:23:09.962Z</time></trkpt><trkpt lat="44.338888464569266" lon="10.857952445536093"><ele>778.25</ele><time>2026-04-25T14:23:10.962Z</time></trkpt><trkpt lat="44.338972372294194" lon="10.857839931945465"><ele>779.0</ele><time>2026-04-25T14:23:11.962Z</time></trkpt><trkpt lat="44.33906941252205" lon="10.85773900129185"><ele>779.25</ele><time>2026-04-25T14:23:12.962Z</time></trkpt><trkpt lat="44.33914685119803" lon="10.857606121665833"><ele>779.5</ele><time>2026-04-25T14:23:13.962Z</time></trkpt><trkpt lat="44.33919627150763" lon="10.85744821987781"><ele>779.75</ele><time>2026-04-25T14:23:14.962Z</time></trkpt><trkpt lat="44.339205678951586" lon="10.857250819617242"><ele>780.0</ele><time>2026-04-25T14:23:15.962Z</time></trkpt><trkpt lat="44.33915088891567" lon="10.857023580230079"><ele>780.0</ele><time>2026-04-25T14:23:16.962Z</time></trkpt><trkpt lat="44.33907729108155" lon="10.856790691952096"><ele>780.0</ele><time>2026-04-25T14:23:17.962Z</time></trkpt><trkpt lat="44.338958188420264" lon="10.856551091405944"><ele>780.0</ele><time>2026-04-25T14:23:18.962Z</time></trkpt><trkpt lat="44.33883325617694" lon="10.8563015031635"><ele>777.6666666666667</ele><time>2026-04-25T14:23:19.962Z</time></trkpt><trkpt lat="44.338764130485245" lon="10.856014212118122"><ele>775.3333333333334</ele><time>2026-04-25T14:23:20.962Z</time></trkpt><trkpt lat="44.33869831578536" lon="10.855730264224055"><ele>773.0</ele><time>2026-04-25T14:23:21.962Z</time></trkpt><trkpt lat="44.3386152825808" lon="10.855464699985102"><ele>772.6666666666667</ele><time>2026-04-25T14:23:22.962Z</time></trkpt><trkpt lat="44.33848422791044" lon="10.855242822502925"><ele>772.3333333333333</ele><time>2026-04-25T14:23:23.962Z</time></trkpt><trkpt lat="44.33837938018594" lon="10.855016618525687"><ele>772.0</ele><time>2026-04-25T14:23:24.962Z</time></trkpt><trkpt lat="44.33832284203465" lon="10.85477303324066"><ele>772.0</ele><time>2026-04-25T14:23:25.962Z</time></trkpt><trkpt lat="44.33827595792255" lon="10.854538630103894"><ele>772.0</ele><time>2026-04-25T14:23:26.962Z</time></trkpt><trkpt lat="44.338247303528014" lon="10.854363726476821"><ele>772.0</ele><time>2026-04-25T14:23:27.962Z</time></trkpt><trkpt lat="44.33826814386822" lon="10.854217763060966"><ele>772.0</ele><time>2026-04-25T14:23:28.962Z</time></trkpt><trkpt lat="44.33835533626913" lon="10.854089236011019"><ele>771.3333333333333</ele><time>2026-04-25T14:23:29.962Z</time></trkpt><trkpt lat="44.33850133838341" lon="10.853994306213053"><ele>770.6666666666667</ele><time>2026-04-25T14:23:30.962Z</time></trkpt><trkpt lat="44.338671242074696" lon="10.853910246198776"><ele>770.0</ele><time>2026-04-25T14:23:31.962Z</time></trkpt><trkpt lat="44.33885829539611" lon="10.853816763674683"><ele>771.75</ele><time>2026-04-25T14:23:32.962Z</time></trkpt><trkpt lat="44.33900464397105" lon="10.853717681943147"><ele>773.5</ele><time>2026-04-25T14:23:33.962Z</time></trkpt><trkpt lat="44.339111063936244" lon="10.853634069490825"><ele>775.25</ele><time>2026-04-25T14:23:34.962Z</time></trkpt><trkpt lat="44.33917309657819" lon="10.853481684862937"><ele>777.0</ele><time>2026-04-25T14:23:35.962Z</time></trkpt><trkpt lat="44.339189811064976" lon="10.853277807934635"><ele>777.0</ele><time>2026-04-25T14:23:36.962Z</time></trkpt><trkpt lat="44.33914823490061" lon="10.853074792384794"><ele>777.0</ele><time>2026-04-25T14:23:37.962Z</time></trkpt><trkpt lat="44.33904304735008" lon="10.852860262944574"><ele>777.0</ele><time>2026-04-25T14:23:38.962Z</time></trkpt><trkpt lat="44.33890070741557" lon="10.852637859212427"><ele>773.0</ele><time>2026-04-25T14:23:39.962Z</time></trkpt><trkpt lat="44.338780607602935" lon="10.852438697933255"><ele>769.0</ele><time>2026-04-25T14:23:40.962Z</time></trkpt><trkpt lat="44.33870081282571" lon="10.852272930921057"><ele>765.0</ele><time>2026-04-25T14:23:41.962Z</time></trkpt><trkpt lat="44.338673606330296" lon="10.852102291798973"><ele>765.0</ele><time>2026-04-25T14:23:42.962Z</time></trkpt><trkpt lat="44.33874183405219" lon="10.851889934466529"><ele>765.0</ele><time>2026-04-25T14:23:43.962Z</time></trkpt><trkpt lat="44.3387737484826" lon="10.851607175018538"><ele>765.0</ele><time>2026-04-25T14:23:44.962Z</time></trkpt><trkpt lat="44.3388381239058" lon="10.851326240632128"><ele>765.5</ele><time>2026-04-25T14:23:45.962Z</time></trkpt><trkpt lat="44.338878726164204" lon="10.851096498775382"><ele>766.0</ele><time>2026-04-25T14:23:46.962Z</time></trkpt><trkpt lat="44.338911698342514" lon="10.850928627390886"><ele>766.5</ele><time>2026-04-25T14:23:47.962Z</time></trkpt><trkpt lat="44.33889883983214" lon="10.850780895370772"><ele>767.0</ele><time>2026-04-25T14:23:48.962Z</time></trkpt><trkpt lat="44.338803926459754" lon="10.850652801447447"><ele>767.3333333333333</ele><time>2026-04-25T14:23:49.962Z</time></trkpt><trkpt lat="44.33864522295789" lon="10.850555039974765"><ele>767.6666666666666</ele><time>2026-04-25T14:23:50.962Z</time></trkpt><trkpt lat="44.3384585298644" lon="10.850455615613821"><ele>768.0</ele><time>2026-04-25T14:23:51.962Z</time></trkpt><trkpt lat="44.33823826113169" lon="10.850376648074139"><ele>762.5</ele><time>2026-04-25T14:23:52.962Z</time></trkpt><trkpt lat="44.33800967898899" lon="10.850279134340806"><ele>757.0</ele><time>2026-04-25T14:23:53.962Z</time></trkpt><trkpt lat="44.33779100834112" lon="10.850168655584383"><ele>760.3333333333334</ele><time>2026-04-25T14:23:54.962Z</time></trkpt><trkpt lat="44.33760027585526" lon="10.850009903083157"><ele>763.6666666666666</ele><time>2026-04-25T14:23:55.962Z</time></trkpt><trkpt lat="44.33743425021607" lon="10.849816091353825"><ele>767.0</ele><time>2026-04-25T14:23:56.962Z</time></trkpt><trkpt lat="44.33725216010644" lon="10.849686704839996"><ele>763.0</ele><time>2026-04-25T14:23:57.962Z</time></trkpt><trkpt lat="44.33705104801772" lon="10.849635201107116"><ele>759.0</ele><time>2026-04-25T14:23:58.962Z</time></trkpt><trkpt lat="44.33686996281845" lon="10.849533415294541"><ele>755.0</ele><time>2026-04-25T14:23:59.962Z</time></trkpt><trkpt lat="44.33668194050362" lon="10.849353051996344"><ele>758.0</ele><time>2026-04-25T14:24:00.962Z</time></trkpt><trkpt lat="44.33648360860224" lon="10.849178205429991"><ele>761.0</ele><time>2026-04-25T14:24:01.962Z</time></trkpt><trkpt lat="44.336278821610136" lon="10.849018962821205"><ele>761.0</ele><time>2026-04-25T14:24:02.962Z</time></trkpt><trkpt lat="44.336083325313325" lon="10.848915492567931"><ele>761.0</ele><time>2026-04-25T14:24:03.962Z</time></trkpt><trkpt lat="44.33588448166818" lon="10.848924333608766"><ele>761.0</ele><time>2026-04-25T14:24:04.962Z</time></trkpt><trkpt lat="44.33569807378475" lon="10.84897663878142"><ele>761.0</ele><time>2026-04-25T14:24:05.962Z</time></trkpt><trkpt lat="44.33555431166949" lon="10.848986306589453"><ele>761.0</ele><time>2026-04-25T14:24:06.962Z</time></trkpt><trkpt lat="44.3354222526307" lon="10.848895782891125"><ele>761.0</ele><time>2026-04-25T14:24:07.962Z</time></trkpt><trkpt lat="44.33528983422158" lon="10.848719797170125"><ele>761.3333333333333</ele><time>2026-04-25T14:24:08.962Z</time></trkpt><trkpt lat="44.33516416405204" lon="10.848537835166237"><ele>761.6666666666666</ele><time>2026-04-25T14:24:09.962Z</time></trkpt><trkpt lat="44.33503912446713" lon="10.848424772078898"><ele>762.0</ele><time>2026-04-25T14:24:10.962Z</time></trkpt><trkpt lat="44.33490577894585" lon="10.848412927285764"><ele>757.6666666666666</ele><time>2026-04-25T14:24:11.962Z</time></trkpt><trkpt lat="44.33477621039605" lon="10.848501435655306"><ele>753.3333333333333</ele><time>2026-04-25T14:24:12.962Z</time></trkpt><trkpt lat="44.33467377831314" lon="10.848684449881446"><ele>749.0</ele><time>2026-04-25T14:24:13.962Z</time></trkpt><trkpt lat="44.334601479650075" lon="10.848901810725321"><ele>748.6666666666666</ele><time>2026-04-25T14:24:14.962Z</time></trkpt><trkpt lat="44.33451167691671" lon="10.849056988944092"><ele>748.3333333333334</ele><time>2026-04-25T14:24:15.962Z</time></trkpt><trkpt lat="44.33438403309032" lon="10.849108895222491"><ele>748.0</ele><time>2026-04-25T14:24:16.962Z</time></trkpt><trkpt lat="44.33420978138523" lon="10.84913474010455"><ele>748.0</ele><time>2026-04-25T14:24:17.962Z</time></trkpt><trkpt lat="44.33404153859244" lon="10.849113870231356"><ele>748.0</ele><time>2026-04-25T14:24:18.962Z</time></trkpt><trkpt lat="44.33391887290638" lon="10.849015909109053"><ele>748.0</ele><time>2026-04-25T14:24:19.962Z</time></trkpt><trkpt lat="44.333802190173415" lon="10.848865376613318"><ele>747.0</ele><time>2026-04-25T14:24:20.962Z</time></trkpt><trkpt lat="44.33370594399807" lon="10.848749011434073"><ele>746.0</ele><time>2026-04-25T14:24:21.963Z</time></trkpt><trkpt lat="44.333576963609" lon="10.848761703856933"><ele>745.0</ele><time>2026-04-25T14:24:22.963Z</time></trkpt><trkpt lat="44.33342161318696" lon="10.84888124116214"><ele>744.0</ele><time>2026-04-25T14:24:23.963Z</time></trkpt><trkpt lat="44.33323420053044" lon="10.848938003970762"><ele>740.6666666666666</ele><time>2026-04-25T14:24:24.963Z</time></trkpt><trkpt lat="44.33302990067923" lon="10.848916039561546"><ele>737.3333333333333</ele><time>2026-04-25T14:24:25.963Z</time></trkpt><trkpt lat="44.3328490814167" lon="10.848868620221499"><ele>734.0</ele><time>2026-04-25T14:24:26.963Z</time></trkpt><trkpt lat="44.332713995451215" lon="10.848766967299484"><ele>734.0</ele><time>2026-04-25T14:24:27.963Z</time></trkpt><trkpt lat="44.33264206756787" lon="10.848599497030495"><ele>734.0</ele><time>2026-04-25T14:24:28.963Z</time></trkpt><trkpt lat="44.33257576638134" lon="10.848389786125082"><ele>734.0</ele><time>2026-04-25T14:24:29.963Z</time></trkpt><trkpt lat="44.3325127732842" lon="10.848226748951214"><ele>734.0</ele><time>2026-04-25T14:24:30.963Z</time></trkpt><trkpt lat="44.33243478960197" lon="10.848121120999723"><ele>734.0</ele><time>2026-04-25T14:24:31.963Z</time></trkpt><trkpt lat="44.33230759259953" lon="10.848114933402778"><ele>734.0</ele><time>2026-04-25T14:24:32.963Z</time></trkpt><trkpt lat="44.332160284333476" lon="10.84821377038414"><ele>734.0</ele><time>2026-04-25T14:24:33.962Z</time></trkpt><trkpt lat="44.332028174206606" lon="10.848357634882083"><ele>734.0</ele><time>2026-04-25T14:24:34.963Z</time></trkpt><trkpt lat="44.331903956076836" lon="10.848394931350512"><ele>734.0</ele><time>2026-04-25T14:24:35.963Z</time></trkpt><trkpt lat="44.33177726686379" lon="10.848258138215487"><ele>734.0</ele><time>2026-04-25T14:24:36.963Z</time></trkpt><trkpt lat="44.331684918667435" lon="10.84807583108624"><ele>734.0</ele><time>2026-04-25T14:24:37.963Z</time></trkpt><trkpt lat="44.331603319225025" lon="10.847860643683966"><ele>731.6666666666666</ele><time>2026-04-25T14:24:38.963Z</time></trkpt><trkpt lat="44.331523152961964" lon="10.847602351604763"><ele>729.3333333333334</ele><time>2026-04-25T14:24:39.963Z</time></trkpt><trkpt lat="44.33143702327594" lon="10.847347990670674"><ele>727.0</ele><time>2026-04-25T14:24:40.963Z</time></trkpt><trkpt lat="44.33134034293507" lon="10.847094890614533"><ele>727.0</ele><time>2026-04-25T14:24:41.963Z</time></trkpt><trkpt lat="44.33122273084626" lon="10.846829041178982"><ele>727.0</ele><time>2026-04-25T14:24:42.963Z</time></trkpt><trkpt lat="44.331100264671065" lon="10.846569631119927"><ele>727.0</ele><time>2026-04-25T14:24:43.963Z</time></trkpt><trkpt lat="44.33099523166055" lon="10.846319550555878"><ele>727.3333333333334</ele><time>2026-04-25T14:24:44.963Z</time></trkpt><trkpt lat="44.33090361934396" lon="10.846085479742657"><ele>727.6666666666666</ele><time>2026-04-25T14:24:45.963Z</time></trkpt><trkpt lat="44.3308250086033" lon="10.845862684311154"><ele>728.0</ele><time>2026-04-25T14:24:46.963Z</time></trkpt><trkpt lat="44.33076322765288" lon="10.845661685718472"><ele>729.25</ele><time>2026-04-25T14:24:47.963Z</time></trkpt><trkpt lat="44.33068710767547" lon="10.845483628983489"><ele>730.5</ele><time>2026-04-25T14:24:48.963Z</time></trkpt><trkpt lat="44.33057647854746" lon="10.845358430347273"><ele>731.75</ele><time>2026-04-25T14:24:49.963Z</time></trkpt><trkpt lat="44.33043557817873" lon="10.845294464844878"><ele>733.0</ele><time>2026-04-25T14:24:50.963Z</time></trkpt><trkpt lat="44.3302693995272" lon="10.845291710823785"><ele>730.75</ele><time>2026-04-25T14:24:51.963Z</time></trkpt><trkpt lat="44.33011519682766" lon="10.845284841738687"><ele>728.5</ele><time>2026-04-25T14:24:52.963Z</time></trkpt><trkpt lat="44.32999084949264" lon="10.8452095887913"><ele>726.25</ele><time>2026-04-25T14:24:53.963Z</time></trkpt><trkpt lat="44.32990215879843" lon="10.845097052701847"><ele>724.0</ele><time>2026-04-25T14:24:54.963Z</time></trkpt><trkpt lat="44.32986925556408" lon="10.844955437281207"><ele>724.0</ele><time>2026-04-25T14:24:55.963Z</time></trkpt><trkpt lat="44.3298565028924" lon="10.844767362526289"><ele>724.0</ele><time>2026-04-25T14:24:56.963Z</time></trkpt><trkpt lat="44.32983519392202" lon="10.84455050140286"><ele>724.0</ele><time>2026-04-25T14:24:57.963Z</time></trkpt><trkpt lat="44.32982818207046" lon="10.844312832370967"><ele>724.6666666666667</ele><time>2026-04-25T14:24:58.963Z</time></trkpt><trkpt lat="44.329798426326356" lon="10.84409683067927"><ele>725.3333333333334</ele><time>2026-04-25T14:24:59.963Z</time></trkpt><trkpt lat="44.32977667077659" lon="10.843865925199214"><ele>726.0</ele><time>2026-04-25T14:25:00.963Z</time></trkpt><trkpt lat="44.32975338813662" lon="10.84363831153281"><ele>724.25</ele><time>2026-04-25T14:25:01.963Z</time></trkpt><trkpt lat="44.329765640993706" lon="10.843437146986048"><ele>722.5</ele><time>2026-04-25T14:25:02.963Z</time></trkpt><trkpt lat="44.329817486716436" lon="10.843263077312708"><ele>720.75</ele><time>2026-04-25T14:25:03.963Z</time></trkpt><trkpt lat="44.3299041301012" lon="10.843100356082934"><ele>719.0</ele><time>2026-04-25T14:25:04.963Z</time></trkpt><trkpt lat="44.33004248844842" lon="10.84299232127156"><ele>719.0</ele><time>2026-04-25T14:25:05.963Z</time></trkpt><trkpt lat="44.33017920083619" lon="10.842874239720445"><ele>719.0</ele><time>2026-04-25T14:25:06.963Z</time></trkpt><trkpt lat="44.33031595794696" lon="10.842736193879556"><ele>719.0</ele><time>2026-04-25T14:25:07.963Z</time></trkpt><trkpt lat="44.330464543209494" lon="10.84261261766432"><ele>717.3333333333333</ele><time>2026-04-25T14:25:08.963Z</time></trkpt><trkpt lat="44.33062971023448" lon="10.842517934097433"><ele>715.6666666666666</ele><time>2026-04-25T14:25:09.963Z</time></trkpt><trkpt lat="44.330818322923584" lon="10.84247714581179"><ele>714.0</ele><time>2026-04-25T14:25:10.963Z</time></trkpt><trkpt lat="44.3310079148743" lon="10.842410901708147"><ele>714.0</ele><time>2026-04-25T14:25:11.963Z</time></trkpt><trkpt lat="44.33119180333035" lon="10.84229222112811"><ele>714.0</ele><time>2026-04-25T14:25:12.963Z</time></trkpt><trkpt lat="44.33136710775452" lon="10.842169556977538"><ele>714.0</ele><time>2026-04-25T14:25:13.963Z</time></trkpt><trkpt lat="44.33153942518817" lon="10.84204031473192"><ele>713.0</ele><time>2026-04-25T14:25:14.963Z</time></trkpt><trkpt lat="44.3316881412434" lon="10.841934110999215"><ele>712.0</ele><time>2026-04-25T14:25:15.963Z</time></trkpt><trkpt lat="44.33181729474815" lon="10.84184384695327"><ele>711.0</ele><time>2026-04-25T14:25:16.963Z</time></trkpt><trkpt lat="44.33190317495036" lon="10.841748312843846"><ele>710.0</ele><time>2026-04-25T14:25:17.963Z</time></trkpt><trkpt lat="44.331934550410196" lon="10.841606439326855"><ele>710.0</ele><time>2026-04-25T14:25:18.963Z</time></trkpt><trkpt lat="44.331899506736036" lon="10.841459725874836"><ele>710.0</ele><time>2026-04-25T14:25:19.963Z</time></trkpt><trkpt lat="44.331808200409284" lon="10.841328419380249"><ele>710.0</ele><time>2026-04-25T14:25:20.963Z</time></trkpt><trkpt lat="44.33164767209901" lon="10.841283999167064"><ele>710.0</ele><time>2026-04-25T14:25:21.963Z</time></trkpt><trkpt lat="44.331469008178864" lon="10.841257162735403"><ele>706.6666666666666</ele><time>2026-04-25T14:25:22.963Z</time></trkpt><trkpt lat="44.33128255279928" lon="10.841213034020214"><ele>703.3333333333334</ele><time>2026-04-25T14:25:23.963Z</time></trkpt><trkpt lat="44.33111126007061" lon="10.841142306581762"><ele>700.0</ele><time>2026-04-25T14:25:24.963Z</time></trkpt><trkpt lat="44.33094960037857" lon="10.841074074531916"><ele>700.0</ele><time>2026-04-25T14:25:25.963Z</time></trkpt><trkpt lat="44.3308249657077" lon="10.84100367544013"><ele>700.0</ele><time>2026-04-25T14:25:26.963Z</time></trkpt><trkpt lat="44.33072984082907" lon="10.840914235278623"><ele>700.0</ele><time>2026-04-25T14:25:27.963Z</time></trkpt><trkpt lat="44.33067766639694" lon="10.840791210458379"><ele>700.0</ele><time>2026-04-25T14:25:28.963Z</time></trkpt><trkpt lat="44.33065329590495" lon="10.840629382672283"><ele>701.25</ele><time>2026-04-25T14:25:29.963Z</time></trkpt><trkpt lat="44.33062978738029" lon="10.840427810635655"><ele>702.5</ele><time>2026-04-25T14:25:30.963Z</time></trkpt><trkpt lat="44.330622749646615" lon="10.840221736272087"><ele>703.75</ele><time>2026-04-25T14:25:31.963Z</time></trkpt><trkpt lat="44.3306141460625" lon="10.840011000093671"><ele>705.0</ele><time>2026-04-25T14:25:32.963Z</time></trkpt><trkpt lat="44.33060924884619" lon="10.839797818696175"><ele>705.0</ele><time>2026-04-25T14:25:33.963Z</time></trkpt><trkpt lat="44.33059432233283" lon="10.839582178291145"><ele>705.0</ele><time>2026-04-25T14:25:34.963Z</time></trkpt><trkpt lat="44.330570184537855" lon="10.83936750531509"><ele>705.0</ele><time>2026-04-25T14:25:35.963Z</time></trkpt><trkpt lat="44.33051792803167" lon="10.839166247592578"><ele>700.0</ele><time>2026-04-25T14:25:36.963Z</time></trkpt><trkpt lat="44.33046575874159" lon="10.838967472826356"><ele>695.0</ele><time>2026-04-25T14:25:37.963Z</time></trkpt><trkpt lat="44.33041242121078" lon="10.83877191931233"><ele>690.0</ele><time>2026-04-25T14:25:38.963Z</time></trkpt><trkpt lat="44.33035325402712" lon="10.838579727781282"><ele>690.0</ele><time>2026-04-25T14:25:39.963Z</time></trkpt><trkpt lat="44.330306914032356" lon="10.838380702840716"><ele>690.0</ele><time>2026-04-25T14:25:40.963Z</time></trkpt><trkpt lat="44.330233467892135" lon="10.838194209490492"><ele>690.0</ele><time>2026-04-25T14:25:41.963Z</time></trkpt><trkpt lat="44.33015456407106" lon="10.838030600795667"><ele>690.0</ele><time>2026-04-25T14:25:42.963Z</time></trkpt><trkpt lat="44.33008026962267" lon="10.837872445389337"><ele>690.0</ele><time>2026-04-25T14:25:43.963Z</time></trkpt><trkpt lat="44.33002501524432" lon="10.837703903975598"><ele>690.0</ele><time>2026-04-25T14:25:44.963Z</time></trkpt><trkpt lat="44.32999591794259" lon="10.83752389504905"><ele>690.0</ele><time>2026-04-25T14:25:45.963Z</time></trkpt><trkpt lat="44.33000642634919" lon="10.837339049728525"><ele>690.0</ele><time>2026-04-25T14:25:46.963Z</time></trkpt><trkpt lat="44.33002600019322" lon="10.83714678907775"><ele>689.75</ele><time>2026-04-25T14:25:47.963Z</time></trkpt><trkpt lat="44.33005856351083" lon="10.836949355842584"><ele>689.5</ele><time>2026-04-25T14:25:48.963Z</time></trkpt><trkpt lat="44.33012602702749" lon="10.836775752210848"><ele>689.25</ele><time>2026-04-25T14:25:49.963Z</time></trkpt><trkpt lat="44.33020034877492" lon="10.836595733946195"><ele>689.0</ele><time>2026-04-25T14:25:50.963Z</time></trkpt><trkpt lat="44.330281324183055" lon="10.836406787437205"><ele>687.0</ele><time>2026-04-25T14:25:51.963Z</time></trkpt><trkpt lat="44.33035303543689" lon="10.836217638417082"><ele>685.0</ele><time>2026-04-25T14:25:52.963Z</time></trkpt><trkpt lat="44.330428541051205" lon="10.836026015267851"><ele>683.0</ele><time>2026-04-25T14:25:53.963Z</time></trkpt><trkpt lat="44.33050016633859" lon="10.835845303978509"><ele>684.2</ele><time>2026-04-25T14:25:54.963Z</time></trkpt><trkpt lat="44.33055836564712" lon="10.835670375683621"><ele>685.4</ele><time>2026-04-25T14:25:55.963Z</time></trkpt><trkpt lat="44.330601591977306" lon="10.835510370250526"><ele>686.6</ele><time>2026-04-25T14:25:56.963Z</time></trkpt><trkpt lat="44.3306243605223" lon="10.835371695522001"><ele>687.8000000000001</ele><time>2026-04-25T14:25:57.963Z</time></trkpt><trkpt lat="44.33063628672847" lon="10.835258910283873"><ele>689.0</ele><time>2026-04-25T14:25:58.963Z</time></trkpt><trkpt lat="44.33063789274046" lon="10.835159363441653"><ele>687.6</ele><time>2026-04-25T14:25:59.963Z</time></trkpt><trkpt lat="44.33057170781455" lon="10.835101957236079"><ele>686.2</ele><time>2026-04-25T14:26:01.963Z</time></trkpt><trkpt lat="44.330467658056875" lon="10.835118408030254"><ele>684.8000000000001</ele><time>2026-04-25T14:26:29.964Z</time></trkpt><trkpt lat="44.33040943991444" lon="10.835181700317625"><ele>683.4000000000001</ele><time>2026-04-25T14:26:30.963Z</time></trkpt><trkpt lat="44.33035770484324" lon="10.835291963083089"><ele>682.0</ele><time>2026-04-25T14:26:31.964Z</time></trkpt><trkpt lat="44.33029402423276" lon="10.835404307443582"><ele>681.0</ele><time>2026-04-25T14:26:32.964Z</time></trkpt><trkpt lat="44.33022359771041" lon="10.835509040834252"><ele>680.0</ele><time>2026-04-25T14:26:33.964Z</time></trkpt><trkpt lat="44.33014637643349" lon="10.835622075717417"><ele>679.0</ele><time>2026-04-25T14:26:34.963Z</time></trkpt><trkpt lat="44.330065264920485" lon="10.835741144212488"><ele>678.0</ele><time>2026-04-25T14:26:35.963Z</time></trkpt><trkpt lat="44.32998435894591" lon="10.83586367008921"><ele>677.75</ele><time>2026-04-25T14:26:36.964Z</time></trkpt><trkpt lat="44.3299039229472" lon="10.83598797123023"><ele>677.5</ele><time>2026-04-25T14:26:37.963Z</time></trkpt><trkpt lat="44.329821625313095" lon="10.836111456419538"><ele>677.25</ele><time>2026-04-25T14:26:38.963Z</time></trkpt><trkpt lat="44.329736113446074" lon="10.836228457574192"><ele>677.0</ele><time>2026-04-25T14:26:39.963Z</time></trkpt><trkpt lat="44.329646174640736" lon="10.836339169286772"><ele>677.0</ele><time>2026-04-25T14:26:40.964Z</time></trkpt><trkpt lat="44.329561357396834" lon="10.8364486696566"><ele>677.0</ele><time>2026-04-25T14:26:41.964Z</time></trkpt><trkpt lat="44.329485859837696" lon="10.83654700478896"><ele>677.0</ele><time>2026-04-25T14:26:42.964Z</time></trkpt><trkpt lat="44.329411513788145" lon="10.836607212661438"><ele>677.0</ele><time>2026-04-25T14:26:43.964Z</time></trkpt><trkpt lat="44.32932976588672" lon="10.83662119972087"><ele>677.0</ele><time>2026-04-25T14:26:44.964Z</time></trkpt><trkpt lat="44.32925417321252" lon="10.83663332663775"><ele>677.0</ele><time>2026-04-25T14:26:45.964Z</time></trkpt><trkpt lat="44.32917754012733" lon="10.836677995431662"><ele>677.0</ele><time>2026-04-25T14:26:46.964Z</time></trkpt><trkpt lat="44.32911258531945" lon="10.836752648873063"><ele>677.0</ele><time>2026-04-25T14:26:47.964Z</time></trkpt><trkpt lat="44.329051425343565" lon="10.836833561490069"><ele>677.0</ele><time>2026-04-25T14:26:48.964Z</time></trkpt><trkpt lat="44.32898087466971" lon="10.836885721481888"><ele>677.0</ele><time>2026-04-25T14:26:49.964Z</time></trkpt><trkpt lat="44.32889284350202" lon="10.836910938835594"><ele>677.0</ele><time>2026-04-25T14:26:50.964Z</time></trkpt><trkpt lat="44.3287961027212" lon="10.836926749816477"><ele>677.25</ele><time>2026-04-25T14:26:51.964Z</time></trkpt><trkpt lat="44.32869245964446" lon="10.83694259960714"><ele>677.5</ele><time>2026-04-25T14:26:52.964Z</time></trkpt><trkpt lat="44.32857955311797" lon="10.836964610554075"><ele>677.75</ele><time>2026-04-25T14:26:53.964Z</time></trkpt><trkpt lat="44.32846106235793" lon="10.836987846592278"><ele>678.0</ele><time>2026-04-25T14:26:54.964Z</time></trkpt><trkpt lat="44.328337971710745" lon="10.837014824681162"><ele>678.0</ele><time>2026-04-25T14:26:55.964Z</time></trkpt><trkpt lat="44.32820981301289" lon="10.837041665506458"><ele>678.0</ele><time>2026-04-25T14:26:56.964Z</time></trkpt><trkpt lat="44.32807668002763" lon="10.83707175033977"><ele>678.0</ele><time>2026-04-25T14:26:57.964Z</time></trkpt><trkpt lat="44.32795523016802" lon="10.837092379966617"><ele>678.0</ele><time>2026-04-25T14:26:58.964Z</time></trkpt><trkpt lat="44.32783449279596" lon="10.83710919418371"><ele>678.0</ele><time>2026-04-25T14:26:59.964Z</time></trkpt><trkpt lat="44.32769905948615" lon="10.83709470596789"><ele>678.0</ele><time>2026-04-25T14:27:00.964Z</time></trkpt><trkpt lat="44.327567931088225" lon="10.837143607795756"><ele>678.0</ele><time>2026-04-25T14:27:01.964Z</time></trkpt><trkpt lat="44.32743171659797" lon="10.837163350372842"><ele>678.0</ele><time>2026-04-25T14:27:02.964Z</time></trkpt><trkpt lat="44.327289045101935" lon="10.837192144229387"><ele>678.0</ele><time>2026-04-25T14:27:03.964Z</time></trkpt><trkpt lat="44.327145122286616" lon="10.837220308056626"><ele>678.0</ele><time>2026-04-25T14:27:04.964Z</time></trkpt><trkpt lat="44.32699789032476" lon="10.837200341456992"><ele>678.0</ele><time>2026-04-25T14:27:05.964Z</time></trkpt><trkpt lat="44.326860907563926" lon="10.837222385916471"><ele>678.0</ele><time>2026-04-25T14:27:06.964Z</time></trkpt><trkpt lat="44.32673834580798" lon="10.8372949163216"><ele>678.0</ele><time>2026-04-25T14:27:07.964Z</time></trkpt><trkpt lat="44.32661599519984" lon="10.837329438818891"><ele>678.0</ele><time>2026-04-25T14:27:08.964Z</time></trkpt><trkpt lat="44.326497052179704" lon="10.837377196770701"><ele>678.0</ele><time>2026-04-25T14:27:09.964Z</time></trkpt><trkpt lat="44.32637687228562" lon="10.837414621288666"><ele>678.0</ele><time>2026-04-25T14:27:10.964Z</time></trkpt><trkpt lat="44.32625264903414" lon="10.837456991214129"><ele>678.75</ele><time>2026-04-25T14:27:11.964Z</time></trkpt><trkpt lat="44.3261193629191" lon="10.837470745185703"><ele>679.5</ele><time>2026-04-25T14:27:12.964Z</time></trkpt><trkpt lat="44.32599013706885" lon="10.837508775406585"><ele>680.25</ele><time>2026-04-25T14:27:13.964Z</time></trkpt><trkpt lat="44.32585846143549" lon="10.837526936339575"><ele>681.0</ele><time>2026-04-25T14:27:14.964Z</time></trkpt><trkpt lat="44.3257254697513" lon="10.837530519370635"><ele>681.0</ele><time>2026-04-25T14:27:15.964Z</time></trkpt><trkpt lat="44.32559392486614" lon="10.837526151922761"><ele>681.0</ele><time>2026-04-25T14:27:16.964Z</time></trkpt><trkpt lat="44.325467331350076" lon="10.837513581814356"><ele>681.0</ele><time>2026-04-25T14:27:17.964Z</time></trkpt><trkpt lat="44.325340318468996" lon="10.837497431081443"><ele>681.0</ele><time>2026-04-25T14:27:18.964Z</time></trkpt><trkpt lat="44.32520865204502" lon="10.837480715944599"><ele>681.1999999999999</ele><time>2026-04-25T14:27:19.964Z</time></trkpt><trkpt lat="44.32508270704972" lon="10.837473809978016"><ele>681.4</ele><time>2026-04-25T14:27:20.964Z</time></trkpt><trkpt lat="44.32497937615292" lon="10.837476085292028"><ele>681.6</ele><time>2026-04-25T14:27:21.964Z</time></trkpt><trkpt lat="44.3248714683618" lon="10.837482919844737"><ele>681.8</ele><time>2026-04-25T14:27:22.964Z</time></trkpt><trkpt lat="44.32477470861349" lon="10.837502733627586"><ele>682.0</ele><time>2026-04-25T14:27:23.964Z</time></trkpt><trkpt lat="44.324688442201406" lon="10.83752457740546"><ele>682.0</ele><time>2026-04-25T14:27:24.964Z</time></trkpt><trkpt lat="44.32460818889997" lon="10.83756488244842"><ele>682.0</ele><time>2026-04-25T14:27:25.964Z</time></trkpt><trkpt lat="44.324534349043034" lon="10.837583677978234"><ele>682.0</ele><time>2026-04-25T14:27:26.964Z</time></trkpt><trkpt lat="44.32446298630604" lon="10.837599500293928"><ele>682.0</ele><time>2026-04-25T14:27:27.964Z</time></trkpt><trkpt lat="44.32435232711385" lon="10.837618071504542"><ele>682.0</ele><time>2026-04-25T14:27:29.964Z</time></trkpt><trkpt lat="44.324258420898275" lon="10.837634561864308"><ele>682.0</ele><time>2026-04-25T14:27:31.964Z</time></trkpt><trkpt lat="44.32419436054103" lon="10.837642090314127"><ele>682.0</ele><time>2026-04-25T14:27:32.964Z</time></trkpt><trkpt lat="44.32411020224428" lon="10.837647656163782"><ele>682.0</ele><time>2026-04-25T14:27:33.964Z</time></trkpt><trkpt lat="44.32401413636564" lon="10.837646959061988"><ele>682.0</ele><time>2026-04-25T14:27:34.964Z</time></trkpt><trkpt lat="44.3239182231247" lon="10.837624960681406"><ele>682.0</ele><time>2026-04-25T14:27:35.964Z</time></trkpt><trkpt lat="44.32380664735654" lon="10.83760299796838"><ele>682.0</ele><time>2026-04-25T14:27:36.964Z</time></trkpt><trkpt lat="44.323688510605564" lon="10.83757097892459"><ele>681.25</ele><time>2026-04-25T14:27:37.964Z</time></trkpt><trkpt lat="44.32356556827135" lon="10.837519233153783"><ele>680.5</ele><time>2026-04-25T14:27:38.964Z</time></trkpt><trkpt lat="44.32343842908008" lon="10.83744047736576"><ele>679.75</ele><time>2026-04-25T14:27:39.964Z</time></trkpt><trkpt lat="44.323301794195274" lon="10.837359167373629"><ele>679.0</ele><time>2026-04-25T14:27:40.964Z</time></trkpt><trkpt lat="44.3231598580483" lon="10.837275436737675"><ele>678.6666666666667</ele><time>2026-04-25T14:27:41.964Z</time></trkpt><trkpt lat="44.32301079049284" lon="10.837183617763671"><ele>678.3333333333334</ele><time>2026-04-25T14:27:42.964Z</time></trkpt><trkpt lat="44.322861847086095" lon="10.837091965391156"><ele>678.0</ele><time>2026-04-25T14:27:43.964Z</time></trkpt><trkpt lat="44.32270608092078" lon="10.837001385057674"><ele>678.0</ele><time>2026-04-25T14:27:44.964Z</time></trkpt><trkpt lat="44.322555939234725" lon="10.836911472324807"><ele>678.0</ele><time>2026-04-25T14:27:45.964Z</time></trkpt><trkpt lat="44.32240614876181" lon="10.83681805830001"><ele>678.0</ele><time>2026-04-25T14:27:46.964Z</time></trkpt><trkpt lat="44.32225029515724" lon="10.83673388412396"><ele>679.3333333333334</ele><time>2026-04-25T14:27:47.964Z</time></trkpt><trkpt lat="44.322092669208935" lon="10.83665078429747"><ele>680.6666666666667</ele><time>2026-04-25T14:27:48.964Z</time></trkpt><trkpt lat="44.3219401142563" lon="10.836561827999905"><ele>682.0</ele><time>2026-04-25T14:27:49.964Z</time></trkpt><trkpt lat="44.321790931416565" lon="10.836460767754053"><ele>682.0</ele><time>2026-04-25T14:27:50.964Z</time></trkpt><trkpt lat="44.32164954179601" lon="10.836353643412025"><ele>682.0</ele><time>2026-04-25T14:27:51.964Z</time></trkpt><trkpt lat="44.321513704366204" lon="10.83624675150588"><ele>682.0</ele><time>2026-04-25T14:27:52.964Z</time></trkpt><trkpt lat="44.3213717215315" lon="10.836139829494675"><ele>682.3333333333334</ele><time>2026-04-25T14:27:53.964Z</time></trkpt><trkpt lat="44.32121941284989" lon="10.83602279669028"><ele>682.6666666666666</ele><time>2026-04-25T14:27:54.964Z</time></trkpt><trkpt lat="44.321058609883636" lon="10.83588152261789"><ele>683.0</ele><time>2026-04-25T14:27:55.964Z</time></trkpt><trkpt lat="44.32091870019845" lon="10.83574925161919"><ele>683.0</ele><time>2026-04-25T14:27:56.964Z</time></trkpt><trkpt lat="44.32077959586356" lon="10.835631612139148"><ele>683.0</ele><time>2026-04-25T14:27:57.964Z</time></trkpt><trkpt lat="44.320647959345585" lon="10.835528874456"><ele>683.0</ele><time>2026-04-25T14:27:58.964Z</time></trkpt><trkpt lat="44.32052185711656" lon="10.835424096239947"><ele>683.0</ele><time>2026-04-25T14:27:59.964Z</time></trkpt><trkpt lat="44.32039017192103" lon="10.835318198248078"><ele>683.0</ele><time>2026-04-25T14:28:00.964Z</time></trkpt><trkpt lat="44.3202380683175" lon="10.83520884037742"><ele>683.0</ele><time>2026-04-25T14:28:01.964Z</time></trkpt><trkpt lat="44.32007284484009" lon="10.835070554006315"><ele>683.0</ele><time>2026-04-25T14:28:02.964Z</time></trkpt><trkpt lat="44.31989617018695" lon="10.834919321594885"><ele>683.0</ele><time>2026-04-25T14:28:03.964Z</time></trkpt><trkpt lat="44.31970623673671" lon="10.834756755539763"><ele>683.0</ele><time>2026-04-25T14:28:04.964Z</time></trkpt><trkpt lat="44.319510216636104" lon="10.83458387246737"><ele>682.5</ele><time>2026-04-25T14:28:05.964Z</time></trkpt><trkpt lat="44.31930622106051" lon="10.8344208760507"><ele>682.0</ele><time>2026-04-25T14:28:06.964Z</time></trkpt><trkpt lat="44.31909839104117" lon="10.834262809296753"><ele>683.0</ele><time>2026-04-25T14:28:07.964Z</time></trkpt><trkpt lat="44.318886239455786" lon="10.834105763619124"><ele>684.0</ele><time>2026-04-25T14:28:08.964Z</time></trkpt><trkpt lat="44.3186757929915" lon="10.833958133461397"><ele>684.0</ele><time>2026-04-25T14:28:09.964Z</time></trkpt><trkpt lat="44.31846523300998" lon="10.83382218665603"><ele>684.0</ele><time>2026-04-25T14:28:10.964Z</time></trkpt><trkpt lat="44.31825311373936" lon="10.833696714964821"><ele>682.0</ele><time>2026-04-25T14:28:11.964Z</time></trkpt><trkpt lat="44.31803837912428" lon="10.833576560923142"><ele>680.0</ele><time>2026-04-25T14:28:12.964Z</time></trkpt><trkpt lat="44.31782523827472" lon="10.83345323670276"><ele>681.3333333333333</ele><time>2026-04-25T14:28:13.964Z</time></trkpt><trkpt lat="44.31761906942849" lon="10.83332501425422"><ele>682.6666666666666</ele><time>2026-04-25T14:28:14.964Z</time></trkpt><trkpt lat="44.317417214635455" lon="10.833196743661947"><ele>684.0</ele><time>2026-04-25T14:28:15.964Z</time></trkpt><trkpt lat="44.31721319154139" lon="10.833076390084159"><ele>684.0</ele><time>2026-04-25T14:28:16.964Z</time></trkpt><trkpt lat="44.31700697996204" lon="10.83297376298542"><ele>684.0</ele><time>2026-04-25T14:28:17.964Z</time></trkpt><trkpt lat="44.31679682539617" lon="10.832878258450334"><ele>684.0</ele><time>2026-04-25T14:28:18.964Z</time></trkpt><trkpt lat="44.31658226497308" lon="10.832791074499244"><ele>683.5</ele><time>2026-04-25T14:28:19.964Z</time></trkpt><trkpt lat="44.31635860344187" lon="10.832727560446155"><ele>683.0</ele><time>2026-04-25T14:28:20.964Z</time></trkpt><trkpt lat="44.31613451997102" lon="10.832676185998602"><ele>683.0</ele><time>2026-04-25T14:28:21.964Z</time></trkpt><trkpt lat="44.31591114566591" lon="10.832648397711681"><ele>683.0</ele><time>2026-04-25T14:28:22.964Z</time></trkpt><trkpt lat="44.31569250408934" lon="10.832627784020326"><ele>683.0</ele><time>2026-04-25T14:28:23.964Z</time></trkpt><trkpt lat="44.31547987733145" lon="10.832595620488863"><ele>684.6666666666666</ele><time>2026-04-25T14:28:24.964Z</time></trkpt><trkpt lat="44.315279265301946" lon="10.832579009728542"><ele>686.3333333333334</ele><time>2026-04-25T14:28:25.964Z</time></trkpt><trkpt lat="44.31509196510453" lon="10.832555718998293"><ele>688.0</ele><time>2026-04-25T14:28:26.964Z</time></trkpt><trkpt lat="44.31492536355515" lon="10.83252102100666"><ele>688.0</ele><time>2026-04-25T14:28:27.964Z</time></trkpt><trkpt lat="44.31480106320243" lon="10.832488604954854"><ele>688.0</ele><time>2026-04-25T14:28:28.964Z</time></trkpt><trkpt lat="44.31472381597134" lon="10.832447610826067"><ele>688.0</ele><time>2026-04-25T14:28:29.964Z</time></trkpt><trkpt lat="44.31467487749032" lon="10.832378745345043"><ele>688.0</ele><time>2026-04-25T14:28:32.965Z</time></trkpt><trkpt lat="44.31460499280121" lon="10.832355619147737"><ele>688.0</ele><time>2026-04-25T14:28:36.964Z</time></trkpt><trkpt lat="44.31453204717577" lon="10.832316744813554"><ele>688.0</ele><time>2026-04-25T14:28:38.964Z</time></trkpt><trkpt lat="44.31447700623089" lon="10.832266731794002"><ele>688.0</ele><time>2026-04-25T14:37:52.966Z</time></trkpt><trkpt lat="44.31441253025049" lon="10.832314715197752"><ele>688.0</ele><time>2026-04-25T14:37:56.966Z</time></trkpt><trkpt lat="44.3143371164887" lon="10.832337261088044"><ele>688.0</ele><time>2026-04-25T14:38:00.966Z</time></trkpt><trkpt lat="44.314269132608956" lon="10.832356794912515"><ele>688.0</ele><time>2026-04-25T14:38:05.966Z</time></trkpt><trkpt lat="44.314183277876204" lon="10.83236541085627"><ele>688.0</ele><time>2026-04-25T14:38:08.966Z</time></trkpt><trkpt lat="44.314077125436114" lon="10.832359943674756"><ele>688.0</ele><time>2026-04-25T14:38:10.966Z</time></trkpt><trkpt lat="44.31396697970308" lon="10.832345598894978"><ele>689.0</ele><time>2026-04-25T14:38:12.966Z</time></trkpt><trkpt lat="44.313862084062016" lon="10.832330610441705"><ele>690.0</ele><time>2026-04-25T14:38:14.966Z</time></trkpt><trkpt lat="44.313757274101185" lon="10.832318037993884"><ele>691.0</ele><time>2026-04-25T14:38:16.966Z</time></trkpt><trkpt lat="44.313652916270684" lon="10.832307636516584"><ele>692.0</ele><time>2026-04-25T14:38:18.966Z</time></trkpt><trkpt lat="44.3135470972522" lon="10.832294943142864"><ele>693.0</ele><time>2026-04-25T14:38:20.966Z</time></trkpt><trkpt lat="44.31343976777623" lon="10.83227555097537"><ele>693.0</ele><time>2026-04-25T14:38:22.966Z</time></trkpt><trkpt lat="44.31333145391392" lon="10.832267795781224"><ele>693.0</ele><time>2026-04-25T14:38:24.966Z</time></trkpt><trkpt lat="44.313195883691165" lon="10.832251563841776"><ele>693.0</ele><time>2026-04-25T14:38:26.966Z</time></trkpt><trkpt lat="44.31311219819388" lon="10.832249511793643"><ele>693.0</ele><time>2026-04-25T14:38:27.966Z</time></trkpt><trkpt lat="44.31302595754637" lon="10.832252448317034"><ele>693.0</ele><time>2026-04-25T14:38:28.966Z</time></trkpt><trkpt lat="44.312936768864105" lon="10.832243787597914"><ele>693.4</ele><time>2026-04-25T14:38:29.966Z</time></trkpt><trkpt lat="44.31285069966308" lon="10.832227952918982"><ele>693.8</ele><time>2026-04-25T14:38:30.966Z</time></trkpt><trkpt lat="44.31277008927392" lon="10.832191345263562"><ele>694.2</ele><time>2026-04-25T14:38:31.966Z</time></trkpt><trkpt lat="44.31268895227405" lon="10.832128321116024"><ele>694.6</ele><time>2026-04-25T14:38:32.966Z</time></trkpt><trkpt lat="44.312612181805164" lon="10.832035847367466"><ele>695.0</ele><time>2026-04-25T14:38:33.966Z</time></trkpt><trkpt lat="44.312561604967534" lon="10.831912958447466"><ele>696.0</ele><time>2026-04-25T14:38:34.966Z</time></trkpt><trkpt lat="44.31252520097637" lon="10.831770367625758"><ele>697.0</ele><time>2026-04-25T14:38:35.966Z</time></trkpt><trkpt lat="44.31250406019797" lon="10.831611424539947"><ele>698.0</ele><time>2026-04-25T14:38:36.966Z</time></trkpt><trkpt lat="44.31250147092341" lon="10.831443158717784"><ele>699.0</ele><time>2026-04-25T14:38:37.966Z</time></trkpt><trkpt lat="44.31249940226308" lon="10.831272775999402"><ele>699.0</ele><time>2026-04-25T14:38:38.966Z</time></trkpt><trkpt lat="44.312492660573795" lon="10.831098326482769"><ele>699.0</ele><time>2026-04-25T14:38:39.966Z</time></trkpt><trkpt lat="44.31248169815632" lon="10.830923407914169"><ele>699.0</ele><time>2026-04-25T14:38:40.966Z</time></trkpt><trkpt lat="44.31247198655001" lon="10.830744191951423"><ele>699.0</ele><time>2026-04-25T14:38:41.966Z</time></trkpt><trkpt lat="44.31246449305086" lon="10.830564566672116"><ele>700.0</ele><time>2026-04-25T14:38:42.966Z</time></trkpt><trkpt lat="44.312451670312" lon="10.830384582551844"><ele>701.0</ele><time>2026-04-25T14:38:43.966Z</time></trkpt><trkpt lat="44.31243238320235" lon="10.830204164553981"><ele>702.0</ele><time>2026-04-25T14:38:44.966Z</time></trkpt><trkpt lat="44.31240276546338" lon="10.830026689291266"><ele>703.0</ele><time>2026-04-25T14:38:45.966Z</time></trkpt><trkpt lat="44.312365339658996" lon="10.829850366016418"><ele>704.0</ele><time>2026-04-25T14:38:46.966Z</time></trkpt><trkpt lat="44.312331065491286" lon="10.829670006915844"><ele>705.0</ele><time>2026-04-25T14:38:47.966Z</time></trkpt><trkpt lat="44.31229999483315" lon="10.829496731042347"><ele>706.0</ele><time>2026-04-25T14:38:48.966Z</time></trkpt><trkpt lat="44.31227235146983" lon="10.82932024380569"><ele>707.0</ele><time>2026-04-25T14:38:49.966Z</time></trkpt><trkpt lat="44.31225327445404" lon="10.829126719811974"><ele>708.75</ele><time>2026-04-25T14:38:50.966Z</time></trkpt><trkpt lat="44.31223119468073" lon="10.828927556993165"><ele>710.5</ele><time>2026-04-25T14:38:51.966Z</time></trkpt><trkpt lat="44.3122095957507" lon="10.8287313789054"><ele>712.25</ele><time>2026-04-25T14:38:52.966Z</time></trkpt><trkpt lat="44.312197244273975" lon="10.828530324438331"><ele>714.0</ele><time>2026-04-25T14:38:53.966Z</time></trkpt><trkpt lat="44.31218478270353" lon="10.828321166150278"><ele>714.0</ele><time>2026-04-25T14:38:54.966Z</time></trkpt><trkpt lat="44.31217275039538" lon="10.828109057910483"><ele>714.0</ele><time>2026-04-25T14:38:55.966Z</time></trkpt><trkpt lat="44.31215792477825" lon="10.827894620358196"><ele>714.0</ele><time>2026-04-25T14:38:56.966Z</time></trkpt><trkpt lat="44.31214564804543" lon="10.827675915683292"><ele>713.3333333333334</ele><time>2026-04-25T14:38:57.966Z</time></trkpt><trkpt lat="44.31213587756062" lon="10.827455098199598"><ele>712.6666666666667</ele><time>2026-04-25T14:38:58.966Z</time></trkpt><trkpt lat="44.31212820674193" lon="10.827230862688115"><ele>712.0</ele><time>2026-04-25T14:38:59.966Z</time></trkpt><trkpt lat="44.31211449986815" lon="10.827003596224632"><ele>712.0</ele><time>2026-04-25T14:39:00.966Z</time></trkpt><trkpt lat="44.31210117194012" lon="10.826779469630798"><ele>712.0</ele><time>2026-04-25T14:39:01.966Z</time></trkpt><trkpt lat="44.312087786205204" lon="10.82655087090804"><ele>712.0</ele><time>2026-04-25T14:39:02.966Z</time></trkpt><trkpt lat="44.312072540671" lon="10.826325392639614"><ele>712.0</ele><time>2026-04-25T14:39:03.966Z</time></trkpt><trkpt lat="44.31204763783634" lon="10.826108024828377"><ele>712.0</ele><time>2026-04-25T14:39:04.966Z</time></trkpt><trkpt lat="44.31201057880003" lon="10.825900793674775"><ele>712.0</ele><time>2026-04-25T14:39:05.966Z</time></trkpt><trkpt lat="44.31196700841832" lon="10.825694664410204"><ele>712.6666666666667</ele><time>2026-04-25T14:39:06.966Z</time></trkpt><trkpt lat="44.31194749872872" lon="10.825481472710077"><ele>713.3333333333334</ele><time>2026-04-25T14:39:07.966Z</time></trkpt><trkpt lat="44.31191647609747" lon="10.825273247515737"><ele>714.0</ele><time>2026-04-25T14:39:08.967Z</time></trkpt><trkpt lat="44.3118845952677" lon="10.82505977269342"><ele>715.3333333333334</ele><time>2026-04-25T14:39:09.966Z</time></trkpt><trkpt lat="44.31184274015399" lon="10.824848446131437"><ele>716.6666666666667</ele><time>2026-04-25T14:39:10.966Z</time></trkpt><trkpt lat="44.311770987740644" lon="10.824647263386963"><ele>718.0</ele><time>2026-04-25T14:39:11.966Z</time></trkpt><trkpt lat="44.311668747667895" lon="10.824465494978813"><ele>718.0</ele><time>2026-04-25T14:39:12.966Z</time></trkpt><trkpt lat="44.31153953512229" lon="10.824304187927964"><ele>718.0</ele><time>2026-04-25T14:39:13.966Z</time></trkpt><trkpt lat="44.311386711164666" lon="10.824180484973857"><ele>718.0</ele><time>2026-04-25T14:39:14.967Z</time></trkpt><trkpt lat="44.311225151270804" lon="10.824066398675658"><ele>718.0</ele><time>2026-04-25T14:39:15.966Z</time></trkpt><trkpt lat="44.311082764857595" lon="10.823912958531443"><ele>718.0</ele><time>2026-04-25T14:39:16.966Z</time></trkpt><trkpt lat="44.310949804080245" lon="10.823756714586562"><ele>718.0</ele><time>2026-04-25T14:39:17.966Z</time></trkpt><trkpt lat="44.31082998628975" lon="10.823578788945385"><ele>715.6666666666667</ele><time>2026-04-25T14:39:18.966Z</time></trkpt><trkpt lat="44.31072416050013" lon="10.823380998274178"><ele>713.3333333333334</ele><time>2026-04-25T14:39:19.966Z</time></trkpt><trkpt lat="44.31063003455697" lon="10.823163989352917"><ele>711.0</ele><time>2026-04-25T14:39:20.966Z</time></trkpt><trkpt lat="44.31054163939535" lon="10.82293940064699"><ele>711.0</ele><time>2026-04-25T14:39:21.966Z</time></trkpt><trkpt lat="44.310460250894444" lon="10.82271606439905"><ele>711.0</ele><time>2026-04-25T14:39:22.966Z</time></trkpt><trkpt lat="44.31038563789133" lon="10.822510593275075"><ele>711.0</ele><time>2026-04-25T14:39:23.966Z</time></trkpt><trkpt lat="44.31031144930285" lon="10.822328870414212"><ele>715.0</ele><time>2026-04-25T14:39:24.966Z</time></trkpt><trkpt lat="44.31022291471158" lon="10.822204793368405"><ele>719.0</ele><time>2026-04-25T14:39:25.966Z</time></trkpt><trkpt lat="44.31013620713124" lon="10.822115720676102"><ele>723.0</ele><time>2026-04-25T14:39:26.966Z</time></trkpt><trkpt lat="44.31002825478448" lon="10.82209315753636"><ele>727.0</ele><time>2026-04-25T14:39:27.966Z</time></trkpt><trkpt lat="44.30990931472678" lon="10.822129821874508"><ele>727.0</ele><time>2026-04-25T14:39:28.966Z</time></trkpt><trkpt lat="44.30978220355286" lon="10.822157408942155"><ele>727.0</ele><time>2026-04-25T14:39:29.966Z</time></trkpt><trkpt lat="44.30965021057425" lon="10.822170283514138"><ele>727.0</ele><time>2026-04-25T14:39:30.966Z</time></trkpt><trkpt lat="44.30952409649055" lon="10.822144555464575"><ele>727.0</ele><time>2026-04-25T14:39:31.966Z</time></trkpt><trkpt lat="44.30940491202001" lon="10.822061120991819"><ele>727.6666666666667</ele><time>2026-04-25T14:39:32.966Z</time></trkpt><trkpt lat="44.30930948160791" lon="10.821904665588853"><ele>728.3333333333334</ele><time>2026-04-25T14:39:33.966Z</time></trkpt><trkpt lat="44.30921015749328" lon="10.821744076677076"><ele>729.0</ele><time>2026-04-25T14:39:34.966Z</time></trkpt><trkpt lat="44.30912275284226" lon="10.821564946668964"><ele>729.0</ele><time>2026-04-25T14:39:35.966Z</time></trkpt><trkpt lat="44.30903691240206" lon="10.821390312774508"><ele>729.0</ele><time>2026-04-25T14:39:36.966Z</time></trkpt><trkpt lat="44.30899347535323" lon="10.821200647823282"><ele>729.0</ele><time>2026-04-25T14:39:37.966Z</time></trkpt><trkpt lat="44.308959818003565" lon="10.821019699010606"><ele>729.0</ele><time>2026-04-25T14:39:38.966Z</time></trkpt><trkpt lat="44.30892369583755" lon="10.820812967263707"><ele>727.0</ele><time>2026-04-25T14:39:39.966Z</time></trkpt><trkpt lat="44.30888675945388" lon="10.820600495711561"><ele>725.0</ele><time>2026-04-25T14:39:40.966Z</time></trkpt><trkpt lat="44.30883893070991" lon="10.8204001589966"><ele>723.0</ele><time>2026-04-25T14:39:41.966Z</time></trkpt><trkpt lat="44.30879802883089" lon="10.820198371454284"><ele>724.0</ele><time>2026-04-25T14:39:42.966Z</time></trkpt><trkpt lat="44.30873144570435" lon="10.820008118567042"><ele>725.0</ele><time>2026-04-25T14:39:43.966Z</time></trkpt><trkpt lat="44.30864324184215" lon="10.819824553916483"><ele>726.0</ele><time>2026-04-25T14:39:44.966Z</time></trkpt><trkpt lat="44.308543480880346" lon="10.81965205338997"><ele>726.0</ele><time>2026-04-25T14:39:45.966Z</time></trkpt><trkpt lat="44.30844036709815" lon="10.819489921405276"><ele>726.0</ele><time>2026-04-25T14:39:46.966Z</time></trkpt><trkpt lat="44.308328231133" lon="10.819329608081059"><ele>726.0</ele><time>2026-04-25T14:39:47.966Z</time></trkpt><trkpt lat="44.30821331896132" lon="10.819172307455272"><ele>724.0</ele><time>2026-04-25T14:39:48.966Z</time></trkpt><trkpt lat="44.30809082737895" lon="10.819020476005447"><ele>722.0</ele><time>2026-04-25T14:39:49.966Z</time></trkpt><trkpt lat="44.30798441856619" lon="10.81885422326519"><ele>720.0</ele><time>2026-04-25T14:39:50.966Z</time></trkpt><trkpt lat="44.307889197932916" lon="10.8186685052935"><ele>720.0</ele><time>2026-04-25T14:39:51.966Z</time></trkpt><trkpt lat="44.30779994607074" lon="10.818484622817223"><ele>720.0</ele><time>2026-04-25T14:39:52.966Z</time></trkpt><trkpt lat="44.30771846793386" lon="10.818291510649173"><ele>720.0</ele><time>2026-04-25T14:39:53.966Z</time></trkpt><trkpt lat="44.30764242117208" lon="10.818100498860224"><ele>723.0</ele><time>2026-04-25T14:39:54.966Z</time></trkpt><trkpt lat="44.30759888943814" lon="10.81790403515333"><ele>726.0</ele><time>2026-04-25T14:39:55.966Z</time></trkpt><trkpt lat="44.307576115508255" lon="10.817707258852625"><ele>729.0</ele><time>2026-04-25T14:39:56.966Z</time></trkpt><trkpt lat="44.307565604616975" lon="10.817510518137896"><ele>732.0</ele><time>2026-04-25T14:39:57.966Z</time></trkpt><trkpt lat="44.307552684808115" lon="10.817302858326679"><ele>735.3333333333334</ele><time>2026-04-25T14:39:58.966Z</time></trkpt><trkpt lat="44.30753979701204" lon="10.817097976478069"><ele>738.6666666666667</ele><time>2026-04-25T14:39:59.966Z</time></trkpt><trkpt lat="44.307542329209056" lon="10.8168823423501"><ele>742.0</ele><time>2026-04-25T14:40:00.966Z</time></trkpt><trkpt lat="44.30755388748056" lon="10.816664958159791"><ele>743.3333333333334</ele><time>2026-04-25T14:40:01.966Z</time></trkpt><trkpt lat="44.30755589261178" lon="10.816453009085945"><ele>744.6666666666666</ele><time>2026-04-25T14:40:02.966Z</time></trkpt><trkpt lat="44.30754867814346" lon="10.816239269425852"><ele>746.0</ele><time>2026-04-25T14:40:03.966Z</time></trkpt><trkpt lat="44.3075297316082" lon="10.81601916892275"><ele>748.0</ele><time>2026-04-25T14:40:04.966Z</time></trkpt><trkpt lat="44.30751201431492" lon="10.81579422604432"><ele>750.0</ele><time>2026-04-25T14:40:05.966Z</time></trkpt><trkpt lat="44.30750626921547" lon="10.815566223617633"><ele>752.0</ele><time>2026-04-25T14:40:06.966Z</time></trkpt><trkpt lat="44.307508761212304" lon="10.81533494710005"><ele>753.6666666666666</ele><time>2026-04-25T14:40:07.966Z</time></trkpt><trkpt lat="44.307508198690684" lon="10.81510024627604"><ele>755.3333333333334</ele><time>2026-04-25T14:40:08.966Z</time></trkpt><trkpt lat="44.30750164448164" lon="10.814862254192633"><ele>757.0</ele><time>2026-04-25T14:40:09.966Z</time></trkpt><trkpt lat="44.30750405098087" lon="10.81462588174199"><ele>757.0</ele><time>2026-04-25T14:40:10.966Z</time></trkpt><trkpt lat="44.30753129404442" lon="10.814394608370955"><ele>757.0</ele><time>2026-04-25T14:40:11.966Z</time></trkpt><trkpt lat="44.30758504317862" lon="10.814174633910948"><ele>757.0</ele><time>2026-04-25T14:40:12.966Z</time></trkpt><trkpt lat="44.30765173918801" lon="10.813951507134199"><ele>756.6666666666667</ele><time>2026-04-25T14:40:13.966Z</time></trkpt><trkpt lat="44.30771915769528" lon="10.813714587283187"><ele>756.3333333333334</ele><time>2026-04-25T14:40:14.966Z</time></trkpt><trkpt lat="44.30779702461949" lon="10.813476502008776"><ele>756.0</ele><time>2026-04-25T14:40:15.966Z</time></trkpt><trkpt lat="44.30788482709213" lon="10.81323539530162"><ele>756.6666666666666</ele><time>2026-04-25T14:40:16.966Z</time></trkpt><trkpt lat="44.30798160383387" lon="10.813003341030583"><ele>757.3333333333333</ele><time>2026-04-25T14:40:17.966Z</time></trkpt><trkpt lat="44.30807599314304" lon="10.81275991874162"><ele>758.0</ele><time>2026-04-25T14:40:18.966Z</time></trkpt><trkpt lat="44.3081701672947" lon="10.812523344983122"><ele>760.3333333333333</ele><time>2026-04-25T14:40:19.966Z</time></trkpt><trkpt lat="44.30826552434975" lon="10.812284607437585"><ele>762.6666666666666</ele><time>2026-04-25T14:40:20.966Z</time></trkpt><trkpt lat="44.308354724415786" lon="10.812060926080264"><ele>765.0</ele><time>2026-04-25T14:40:21.966Z</time></trkpt><trkpt lat="44.30843604491774" lon="10.811861914403256"><ele>763.25</ele><time>2026-04-25T14:40:22.966Z</time></trkpt><trkpt lat="44.30851080845041" lon="10.811699872331392"><ele>761.5</ele><time>2026-04-25T14:40:23.966Z</time></trkpt><trkpt lat="44.30859711203576" lon="10.811574888228163"><ele>759.75</ele><time>2026-04-25T14:40:24.966Z</time></trkpt><trkpt lat="44.3087100036641" lon="10.81151736802219"><ele>758.0</ele><time>2026-04-25T14:40:25.966Z</time></trkpt><trkpt lat="44.308826390014495" lon="10.811552349912724"><ele>757.25</ele><time>2026-04-25T14:40:26.966Z</time></trkpt><trkpt lat="44.30893931668015" lon="10.81161924397233"><ele>756.5</ele><time>2026-04-25T14:40:27.966Z</time></trkpt><trkpt lat="44.30906111637135" lon="10.811709864510657"><ele>755.75</ele><time>2026-04-25T14:40:28.966Z</time></trkpt><trkpt lat="44.30920837826378" lon="10.811822386047787"><ele>755.0</ele><time>2026-04-25T14:40:29.966Z</time></trkpt><trkpt lat="44.30936500461281" lon="10.811939310787185"><ele>762.0</ele><time>2026-04-25T14:40:30.966Z</time></trkpt><trkpt lat="44.30953889611107" lon="10.812054750953811"><ele>769.0</ele><time>2026-04-25T14:40:31.966Z</time></trkpt><trkpt lat="44.30972012559801" lon="10.812116540356797"><ele>776.0</ele><time>2026-04-25T14:40:32.966Z</time></trkpt><trkpt lat="44.30990027758362" lon="10.812144584364871"><ele>776.6666666666667</ele><time>2026-04-25T14:40:33.966Z</time></trkpt><trkpt lat="44.31009002507995" lon="10.812082162984613"><ele>777.3333333333333</ele><time>2026-04-25T14:40:34.966Z</time></trkpt><trkpt lat="44.310269060517996" lon="10.811972791446573"><ele>778.0</ele><time>2026-04-25T14:40:35.966Z</time></trkpt><trkpt lat="44.31043385542488" lon="10.811830821545716"><ele>771.6666666666666</ele><time>2026-04-25T14:40:36.966Z</time></trkpt><trkpt lat="44.31057807104613" lon="10.811701707232322"><ele>765.3333333333333</ele><time>2026-04-25T14:40:37.966Z</time></trkpt><trkpt lat="44.31073091034939" lon="10.8116015080444"><ele>759.0</ele><time>2026-04-25T14:40:38.966Z</time></trkpt><trkpt lat="44.31092349913077" lon="10.81161025544143"><ele>759.0</ele><time>2026-04-25T14:40:39.966Z</time></trkpt><trkpt lat="44.311110095180396" lon="10.81165575329407"><ele>759.0</ele><time>2026-04-25T14:40:40.966Z</time></trkpt><trkpt lat="44.311284020004955" lon="10.811758096179842"><ele>759.0</ele><time>2026-04-25T14:40:41.966Z</time></trkpt><trkpt lat="44.311455948844866" lon="10.811924231166515"><ele>765.0</ele><time>2026-04-25T14:40:42.966Z</time></trkpt><trkpt lat="44.31162241544979" lon="10.812094862164507"><ele>771.0</ele><time>2026-04-25T14:40:43.966Z</time></trkpt><trkpt lat="44.31180882861297" lon="10.812210218144587"><ele>777.0</ele><time>2026-04-25T14:40:44.966Z</time></trkpt><trkpt lat="44.31201345186884" lon="10.81226563885249"><ele>777.0</ele><time>2026-04-25T14:40:45.966Z</time></trkpt><trkpt lat="44.31222121592692" lon="10.812246372689255"><ele>777.0</ele><time>2026-04-25T14:40:46.966Z</time></trkpt><trkpt lat="44.31239827977811" lon="10.812168149075852"><ele>777.0</ele><time>2026-04-25T14:40:47.966Z</time></trkpt><trkpt lat="44.31256858480766" lon="10.812055518611714"><ele>771.6666666666666</ele><time>2026-04-25T14:40:48.966Z</time></trkpt><trkpt lat="44.312741840930066" lon="10.811988072201558"><ele>766.3333333333333</ele><time>2026-04-25T14:40:49.966Z</time></trkpt><trkpt lat="44.312917166265066" lon="10.811972475911535"><ele>761.0</ele><time>2026-04-25T14:40:50.966Z</time></trkpt><trkpt lat="44.31307878782094" lon="10.812011348019864"><ele>759.0</ele><time>2026-04-25T14:40:51.966Z</time></trkpt><trkpt lat="44.313233327694604" lon="10.812033359276093"><ele>757.0</ele><time>2026-04-25T14:40:52.966Z</time></trkpt><trkpt lat="44.31338065772586" lon="10.812016933557077"><ele>755.0</ele><time>2026-04-25T14:40:53.966Z</time></trkpt><trkpt lat="44.31353062000306" lon="10.811964741908076"><ele>755.0</ele><time>2026-04-25T14:40:54.966Z</time></trkpt><trkpt lat="44.31369913873213" lon="10.811897583517693"><ele>755.0</ele><time>2026-04-25T14:40:55.966Z</time></trkpt><trkpt lat="44.31389385509483" lon="10.811864451849479"><ele>755.0</ele><time>2026-04-25T14:40:56.966Z</time></trkpt><trkpt lat="44.31411950027346" lon="10.811818313288251"><ele>753.0</ele><time>2026-04-25T14:40:57.966Z</time></trkpt><trkpt lat="44.31436797629946" lon="10.811843905737483"><ele>751.0</ele><time>2026-04-25T14:40:58.966Z</time></trkpt><trkpt lat="44.31461901893559" lon="10.811821219694192"><ele>739.5</ele><time>2026-04-25T14:40:59.966Z</time></trkpt><trkpt lat="44.314873860834275" lon="10.811796855393679"><ele>728.0</ele><time>2026-04-25T14:41:00.966Z</time></trkpt><trkpt lat="44.3151256000045" lon="10.811778377075772"><ele>728.0</ele><time>2026-04-25T14:41:01.966Z</time></trkpt><trkpt lat="44.315371580935896" lon="10.811769606571977"><ele>728.0</ele><time>2026-04-25T14:41:02.966Z</time></trkpt><trkpt lat="44.31561320998464" lon="10.811750182892515"><ele>728.5</ele><time>2026-04-25T14:41:03.966Z</time></trkpt><trkpt lat="44.315852890648245" lon="10.811696548714437"><ele>729.0</ele><time>2026-04-25T14:41:04.966Z</time></trkpt><trkpt lat="44.316088820433606" lon="10.811641393120935"><ele>729.0</ele><time>2026-04-25T14:41:05.966Z</time></trkpt><trkpt lat="44.31631458724631" lon="10.811565566541072"><ele>729.0</ele><time>2026-04-25T14:41:06.966Z</time></trkpt><trkpt lat="44.31651775513326" lon="10.811475699856267"><ele>729.0</ele><time>2026-04-25T14:41:07.966Z</time></trkpt><trkpt lat="44.31669120705501" lon="10.811382713091172"><ele>730.0</ele><time>2026-04-25T14:41:08.965Z</time></trkpt><trkpt lat="44.31684570340521" lon="10.811274660611693"><ele>731.0</ele><time>2026-04-25T14:41:09.965Z</time></trkpt><trkpt lat="44.31697511226227" lon="10.811151322367872"><ele>732.0</ele><time>2026-04-25T14:41:10.966Z</time></trkpt><trkpt lat="44.317052248626474" lon="10.810987323612766"><ele>725.6666666666666</ele><time>2026-04-25T14:41:11.966Z</time></trkpt><trkpt lat="44.31710349886798" lon="10.810787420607536"><ele>719.3333333333333</ele><time>2026-04-25T14:41:12.966Z</time></trkpt><trkpt lat="44.31711963434455" lon="10.810547806705953"><ele>713.0</ele><time>2026-04-25T14:41:13.966Z</time></trkpt><trkpt lat="44.31708332658492" lon="10.810286394713456"><ele>712.0</ele><time>2026-04-25T14:41:14.966Z</time></trkpt><trkpt lat="44.317049497252896" lon="10.810009667097347"><ele>711.0</ele><time>2026-04-25T14:41:15.966Z</time></trkpt><trkpt lat="44.31700517524739" lon="10.80972750080836"><ele>710.0</ele><time>2026-04-25T14:41:16.966Z</time></trkpt><trkpt lat="44.31696396312323" lon="10.809458992187073"><ele>710.3333333333333</ele><time>2026-04-25T14:41:17.966Z</time></trkpt><trkpt lat="44.31696581852052" lon="10.809186750364411"><ele>710.6666666666666</ele><time>2026-04-25T14:41:18.966Z</time></trkpt><trkpt lat="44.31703942614768" lon="10.80892765686458"><ele>711.0</ele><time>2026-04-25T14:41:19.966Z</time></trkpt><trkpt lat="44.317149574040194" lon="10.80867738221684"><ele>710.0</ele><time>2026-04-25T14:41:20.966Z</time></trkpt><trkpt lat="44.31724737276942" lon="10.808408897074537"><ele>709.0</ele><time>2026-04-25T14:41:21.966Z</time></trkpt><trkpt lat="44.31732385868162" lon="10.808164562050985"><ele>708.0</ele><time>2026-04-25T14:41:22.966Z</time></trkpt><trkpt lat="44.317347419966225" lon="10.807915658375283"><ele>709.0</ele><time>2026-04-25T14:41:23.966Z</time></trkpt><trkpt lat="44.31732680806828" lon="10.80765290583469"><ele>710.0</ele><time>2026-04-25T14:41:24.966Z</time></trkpt><trkpt lat="44.31727541552457" lon="10.807367235800934"><ele>711.0</ele><time>2026-04-25T14:41:25.966Z</time></trkpt><trkpt lat="44.31720318776326" lon="10.807072764772935"><ele>711.5</ele><time>2026-04-25T14:41:26.966Z</time></trkpt><trkpt lat="44.31711356288589" lon="10.806777056395953"><ele>712.0</ele><time>2026-04-25T14:41:27.966Z</time></trkpt><trkpt lat="44.3170159558229" lon="10.80646738563849"><ele>712.0</ele><time>2026-04-25T14:41:28.966Z</time></trkpt><trkpt lat="44.31692315229274" lon="10.806157113195045"><ele>712.0</ele><time>2026-04-25T14:41:29.966Z</time></trkpt><trkpt lat="44.31683680964976" lon="10.80587522533913"><ele>715.0</ele><time>2026-04-25T14:41:30.966Z</time></trkpt><trkpt lat="44.31675127926641" lon="10.805643831305643"><ele>718.0</ele><time>2026-04-25T14:41:31.966Z</time></trkpt><trkpt lat="44.3166566378848" lon="10.805444861697662"><ele>721.0</ele><time>2026-04-25T14:41:32.966Z</time></trkpt><trkpt lat="44.31652333674322" lon="10.805299062619444"><ele>721.0</ele><time>2026-04-25T14:41:33.966Z</time></trkpt><trkpt lat="44.31635089895699" lon="10.805189353929867"><ele>721.0</ele><time>2026-04-25T14:41:34.966Z</time></trkpt><trkpt lat="44.31615345899241" lon="10.805076870092787"><ele>721.0</ele><time>2026-04-25T14:41:35.966Z</time></trkpt><trkpt lat="44.315951403443904" lon="10.804950097110165"><ele>721.0</ele><time>2026-04-25T14:41:36.966Z</time></trkpt><trkpt lat="44.3157519478969" lon="10.804831970746719"><ele>721.0</ele><time>2026-04-25T14:41:37.966Z</time></trkpt><trkpt lat="44.31557103702829" lon="10.80473784030052"><ele>721.0</ele><time>2026-04-25T14:41:38.966Z</time></trkpt><trkpt lat="44.315405541440064" lon="10.804652067743207"><ele>718.3333333333334</ele><time>2026-04-25T14:41:39.966Z</time></trkpt><trkpt lat="44.31527525301752" lon="10.804534246224723"><ele>715.6666666666666</ele><time>2026-04-25T14:41:40.966Z</time></trkpt><trkpt lat="44.31517687558704" lon="10.80438098455813"><ele>713.0</ele><time>2026-04-25T14:41:41.966Z</time></trkpt><trkpt lat="44.31511221225967" lon="10.804184130685838"><ele>713.0</ele><time>2026-04-25T14:41:42.966Z</time></trkpt><trkpt lat="44.31507982993178" lon="10.803941943663162"><ele>713.0</ele><time>2026-04-25T14:41:43.966Z</time></trkpt><trkpt lat="44.315098426761836" lon="10.803677120155411"><ele>713.0</ele><time>2026-04-25T14:41:44.966Z</time></trkpt><trkpt lat="44.31509014418037" lon="10.80339171208264"><ele>712.3333333333333</ele><time>2026-04-25T14:41:45.966Z</time></trkpt><trkpt lat="44.31507044229046" lon="10.803120588347442"><ele>711.6666666666666</ele><time>2026-04-25T14:41:46.966Z</time></trkpt><trkpt lat="44.31501127373108" lon="10.802875235737469"><ele>711.0</ele><time>2026-04-25T14:41:47.966Z</time></trkpt><trkpt lat="44.31495021971419" lon="10.802633867913665"><ele>712.3333333333334</ele><time>2026-04-25T14:41:48.966Z</time></trkpt><trkpt lat="44.314884599837704" lon="10.802410899028073"><ele>713.6666666666667</ele><time>2026-04-25T14:41:49.966Z</time></trkpt><trkpt lat="44.31485037931076" lon="10.80217176632524"><ele>715.0</ele><time>2026-04-25T14:41:50.966Z</time></trkpt><trkpt lat="44.314796237329006" lon="10.801959826145684"><ele>715.0</ele><time>2026-04-25T14:41:51.966Z</time></trkpt><trkpt lat="44.314754281029316" lon="10.801757865093869"><ele>715.0</ele><time>2026-04-25T14:41:52.966Z</time></trkpt><trkpt lat="44.314753206651474" lon="10.801554300783133"><ele>715.0</ele><time>2026-04-25T14:41:53.966Z</time></trkpt><trkpt lat="44.31478546299464" lon="10.801351826996251"><ele>715.0</ele><time>2026-04-25T14:41:54.966Z</time></trkpt><trkpt lat="44.31483913320494" lon="10.801140550804467"><ele>712.6666666666667</ele><time>2026-04-25T14:41:55.966Z</time></trkpt><trkpt lat="44.314907843523734" lon="10.800937457851903"><ele>710.3333333333334</ele><time>2026-04-25T14:41:56.966Z</time></trkpt><trkpt lat="44.31496448596473" lon="10.800733061231952"><ele>708.0</ele><time>2026-04-25T14:41:57.966Z</time></trkpt><trkpt lat="44.3150119309948" lon="10.800545568524779"><ele>708.0</ele><time>2026-04-25T14:41:58.966Z</time></trkpt><trkpt lat="44.3150607655399" lon="10.800385715290934"><ele>708.0</ele><time>2026-04-25T14:41:59.966Z</time></trkpt><trkpt lat="44.315106319722766" lon="10.80024921692808"><ele>708.0</ele><time>2026-04-25T14:42:00.966Z</time></trkpt><trkpt lat="44.315134178755336" lon="10.800146553813171"><ele>708.0</ele><time>2026-04-25T14:42:01.966Z</time></trkpt><trkpt lat="44.31516309674558" lon="10.80005916614066"><ele>708.0</ele><time>2026-04-25T14:42:02.966Z</time></trkpt><trkpt lat="44.315188155660366" lon="10.799953882684415"><ele>708.4</ele><time>2026-04-25T14:42:03.966Z</time></trkpt><trkpt lat="44.31521318691077" lon="10.799825691376634"><ele>708.8</ele><time>2026-04-25T14:42:04.966Z</time></trkpt><trkpt lat="44.31525534933326" lon="10.799683166154157"><ele>709.2</ele><time>2026-04-25T14:42:05.966Z</time></trkpt><trkpt lat="44.31527171565319" lon="10.799528140472244"><ele>709.6</ele><time>2026-04-25T14:42:06.966Z</time></trkpt><trkpt lat="44.31524813697904" lon="10.799381582133607"><ele>710.0</ele><time>2026-04-25T14:42:07.966Z</time></trkpt><trkpt lat="44.31519493311272" lon="10.799225553544177"><ele>710.0</ele><time>2026-04-25T14:42:08.966Z</time></trkpt><trkpt lat="44.31513580290041" lon="10.799045384356445"><ele>710.0</ele><time>2026-04-25T14:42:09.966Z</time></trkpt><trkpt lat="44.3150821408042" lon="10.798839231572028"><ele>710.0</ele><time>2026-04-25T14:42:10.966Z</time></trkpt><trkpt lat="44.31502016350383" lon="10.798627841828228"><ele>709.3333333333333</ele><time>2026-04-25T14:42:11.966Z</time></trkpt><trkpt lat="44.314917827035394" lon="10.798456412601583"><ele>708.6666666666666</ele><time>2026-04-25T14:42:12.966Z</time></trkpt><trkpt lat="44.314789399903326" lon="10.798300122254128"><ele>708.0</ele><time>2026-04-25T14:42:13.966Z</time></trkpt><trkpt lat="44.31464531323426" lon="10.79814235472577"><ele>708.0</ele><time>2026-04-25T14:42:14.966Z</time></trkpt><trkpt lat="44.31449606515744" lon="10.79795733343957"><ele>708.0</ele><time>2026-04-25T14:42:15.966Z</time></trkpt><trkpt lat="44.31434411961106" lon="10.797770864189047"><ele>708.0</ele><time>2026-04-25T14:42:16.966Z</time></trkpt><trkpt lat="44.31419897171564" lon="10.797584547757046"><ele>707.6666666666666</ele><time>2026-04-25T14:42:17.966Z</time></trkpt><trkpt lat="44.31405958177345" lon="10.797387458345485"><ele>707.3333333333333</ele><time>2026-04-25T14:42:18.966Z</time></trkpt><trkpt lat="44.31393123867145" lon="10.797185491786976"><ele>707.0</ele><time>2026-04-25T14:42:19.966Z</time></trkpt><trkpt lat="44.31380611697412" lon="10.79697799164194"><ele>710.3333333333333</ele><time>2026-04-25T14:42:20.966Z</time></trkpt><trkpt lat="44.31367136818072" lon="10.796775286600898"><ele>713.6666666666666</ele><time>2026-04-25T14:42:21.966Z</time></trkpt><trkpt lat="44.31354328153912" lon="10.796564647658101"><ele>717.0</ele><time>2026-04-25T14:42:22.966Z</time></trkpt><trkpt lat="44.31341263055151" lon="10.796366161197911"><ele>717.0</ele><time>2026-04-25T14:42:23.966Z</time></trkpt><trkpt lat="44.313287723618174" lon="10.796159550812384"><ele>717.0</ele><time>2026-04-25T14:42:24.966Z</time></trkpt><trkpt lat="44.3131696974766" lon="10.795946210672541"><ele>717.0</ele><time>2026-04-25T14:42:25.966Z</time></trkpt><trkpt lat="44.31305208831435" lon="10.79572339001339"><ele>717.6666666666666</ele><time>2026-04-25T14:42:26.966Z</time></trkpt><trkpt lat="44.312938301587074" lon="10.79550596103458"><ele>718.3333333333333</ele><time>2026-04-25T14:42:27.966Z</time></trkpt><trkpt lat="44.31282562577987" lon="10.795276679045267"><ele>719.0</ele><time>2026-04-25T14:42:28.966Z</time></trkpt><trkpt lat="44.312707204012625" lon="10.795056465338444"><ele>719.0</ele><time>2026-04-25T14:42:29.966Z</time></trkpt><trkpt lat="44.312581605365146" lon="10.794846636538317"><ele>719.0</ele><time>2026-04-25T14:42:30.966Z</time></trkpt><trkpt lat="44.31246200601593" lon="10.794626456158156"><ele>719.0</ele><time>2026-04-25T14:42:31.966Z</time></trkpt><trkpt lat="44.312364550217595" lon="10.794380614407823"><ele>718.0</ele><time>2026-04-25T14:42:32.966Z</time></trkpt><trkpt lat="44.312286154912975" lon="10.794127421855416"><ele>717.0</ele><time>2026-04-25T14:42:33.966Z</time></trkpt><trkpt lat="44.312222105677684" lon="10.793859740030278"><ele>716.0</ele><time>2026-04-25T14:42:34.966Z</time></trkpt><trkpt lat="44.31215058898882" lon="10.793592406443668"><ele>715.0</ele><time>2026-04-25T14:42:35.966Z</time></trkpt><trkpt lat="44.31208775921771" lon="10.793316366701603"><ele>714.0</ele><time>2026-04-25T14:42:36.966Z</time></trkpt><trkpt lat="44.31202657553646" lon="10.793039740902282"><ele>713.0</ele><time>2026-04-25T14:42:37.966Z</time></trkpt><trkpt lat="44.311959901187464" lon="10.792768221017251"><ele>715.3333333333333</ele><time>2026-04-25T14:42:38.966Z</time></trkpt><trkpt lat="44.311896325760635" lon="10.792492993342547"><ele>717.6666666666666</ele><time>2026-04-25T14:42:39.966Z</time></trkpt><trkpt lat="44.311834458441155" lon="10.792214491511274"><ele>720.0</ele><time>2026-04-25T14:42:40.966Z</time></trkpt><trkpt lat="44.311771620387944" lon="10.791938987603164"><ele>722.0</ele><time>2026-04-25T14:42:41.966Z</time></trkpt><trkpt lat="44.31171642351701" lon="10.791655164235106"><ele>724.0</ele><time>2026-04-25T14:42:42.966Z</time></trkpt><trkpt lat="44.31164690641365" lon="10.791370794892716"><ele>726.0</ele><time>2026-04-25T14:42:43.965Z</time></trkpt><trkpt lat="44.31157377411605" lon="10.79108154645065"><ele>724.6666666666666</ele><time>2026-04-25T14:42:44.965Z</time></trkpt><trkpt lat="44.31152086045886" lon="10.790789412281484"><ele>723.3333333333333</ele><time>2026-04-25T14:42:45.965Z</time></trkpt><trkpt lat="44.3114492137051" lon="10.7905217211136"><ele>722.0</ele><time>2026-04-25T14:42:46.965Z</time></trkpt><trkpt lat="44.31136903045133" lon="10.790298894054814"><ele>721.6666666666666</ele><time>2026-04-25T14:42:47.965Z</time></trkpt><trkpt lat="44.311333887722654" lon="10.790088363049627"><ele>721.3333333333334</ele><time>2026-04-25T14:42:48.965Z</time></trkpt><trkpt lat="44.311354346664736" lon="10.789892239243516"><ele>721.0</ele><time>2026-04-25T14:42:49.965Z</time></trkpt><trkpt lat="44.31142005217672" lon="10.789694373374962"><ele>727.3333333333334</ele><time>2026-04-25T14:42:50.965Z</time></trkpt><trkpt lat="44.311489486341834" lon="10.789482817065029"><ele>733.6666666666666</ele><time>2026-04-25T14:42:51.965Z</time></trkpt><trkpt lat="44.31154584141216" lon="10.789277859483974"><ele>740.0</ele><time>2026-04-25T14:42:52.965Z</time></trkpt><trkpt lat="44.31157479282768" lon="10.789082652411405"><ele>740.0</ele><time>2026-04-25T14:42:53.965Z</time></trkpt><trkpt lat="44.31153728701713" lon="10.788858564170102"><ele>740.0</ele><time>2026-04-25T14:42:54.965Z</time></trkpt><trkpt lat="44.31140493176164" lon="10.788703816218344"><ele>740.0</ele><time>2026-04-25T14:42:55.965Z</time></trkpt><trkpt lat="44.31127689759723" lon="10.788558967355177"><ele>738.5</ele><time>2026-04-25T14:42:56.965Z</time></trkpt><trkpt lat="44.3111758151143" lon="10.78841755478619"><ele>737.0</ele><time>2026-04-25T14:42:57.965Z</time></trkpt><trkpt lat="44.31113064592606" lon="10.788293129786382"><ele>735.5</ele><time>2026-04-25T14:42:58.965Z</time></trkpt><trkpt lat="44.311176246969204" lon="10.788155468225584"><ele>734.0</ele><time>2026-04-25T14:42:59.965Z</time></trkpt><trkpt lat="44.311244232329635" lon="10.78804256627228"><ele>734.0</ele><time>2026-04-25T14:43:00.965Z</time></trkpt><trkpt lat="44.311345586201725" lon="10.787881642721922"><ele>734.0</ele><time>2026-04-25T14:43:01.965Z</time></trkpt><trkpt lat="44.311442733223984" lon="10.787685137120508"><ele>734.0</ele><time>2026-04-25T14:43:02.965Z</time></trkpt><trkpt lat="44.311504441517236" lon="10.787440561556853"><ele>737.0</ele><time>2026-04-25T14:43:03.965Z</time></trkpt><trkpt lat="44.31157448043524" lon="10.787167018337263"><ele>740.0</ele><time>2026-04-25T14:43:04.965Z</time></trkpt><trkpt lat="44.31162667801859" lon="10.78687568514706"><ele>743.0</ele><time>2026-04-25T14:43:05.965Z</time></trkpt><trkpt lat="44.31167136154236" lon="10.786576988836144"><ele>743.0</ele><time>2026-04-25T14:43:06.965Z</time></trkpt><trkpt lat="44.31170747905551" lon="10.786306311817576"><ele>743.0</ele><time>2026-04-25T14:43:07.965Z</time></trkpt><trkpt lat="44.31176646621114" lon="10.786074067577752"><ele>743.0</ele><time>2026-04-25T14:43:08.965Z</time></trkpt><trkpt lat="44.31186105820212" lon="10.785861173495094"><ele>741.3333333333333</ele><time>2026-04-25T14:43:09.965Z</time></trkpt><trkpt lat="44.31196552165509" lon="10.785629976375528"><ele>739.6666666666666</ele><time>2026-04-25T14:43:10.965Z</time></trkpt><trkpt lat="44.31202494715378" lon="10.785352857238532"><ele>738.0</ele><time>2026-04-25T14:43:11.965Z</time></trkpt><trkpt lat="44.31201055529034" lon="10.78500599850316"><ele>737.5</ele><time>2026-04-25T14:43:12.965Z</time></trkpt><trkpt lat="44.311954018581176" lon="10.784694921210196"><ele>737.0</ele><time>2026-04-25T14:43:13.966Z</time></trkpt><trkpt lat="44.311891691977564" lon="10.784396123064022"><ele>738.3333333333333</ele><time>2026-04-25T14:43:14.966Z</time></trkpt><trkpt lat="44.31183279996862" lon="10.784110699908668"><ele>739.6666666666666</ele><time>2026-04-25T14:43:15.966Z</time></trkpt><trkpt lat="44.31179471054188" lon="10.783875070484498"><ele>741.0</ele><time>2026-04-25T14:43:16.966Z</time></trkpt><trkpt lat="44.31177283956887" lon="10.783654371235457"><ele>740.3333333333334</ele><time>2026-04-25T14:43:17.966Z</time></trkpt><trkpt lat="44.311765546986344" lon="10.783372600960817"><ele>739.6666666666667</ele><time>2026-04-25T14:43:18.966Z</time></trkpt><trkpt lat="44.31177708307656" lon="10.78306766700248"><ele>739.0</ele><time>2026-04-25T14:43:19.966Z</time></trkpt><trkpt lat="44.31179761031692" lon="10.78274179716082"><ele>738.0</ele><time>2026-04-25T14:43:20.966Z</time></trkpt><trkpt lat="44.311817280001236" lon="10.782413632022743"><ele>737.0</ele><time>2026-04-25T14:43:21.966Z</time></trkpt><trkpt lat="44.31183508595523" lon="10.78208464762186"><ele>739.0</ele><time>2026-04-25T14:43:22.966Z</time></trkpt><trkpt lat="44.31184362101693" lon="10.781758476949687"><ele>741.0</ele><time>2026-04-25T14:43:23.966Z</time></trkpt><trkpt lat="44.31182252635437" lon="10.781427951553708"><ele>741.0</ele><time>2026-04-25T14:43:24.966Z</time></trkpt><trkpt lat="44.3117606270272" lon="10.781118991744723"><ele>741.0</ele><time>2026-04-25T14:43:25.965Z</time></trkpt><trkpt lat="44.3117177726564" lon="10.78082970814517"><ele>741.0</ele><time>2026-04-25T14:43:26.966Z</time></trkpt><trkpt lat="44.31165298381086" lon="10.78057112145042"><ele>742.6666666666666</ele><time>2026-04-25T14:43:27.966Z</time></trkpt><trkpt lat="44.311568613228694" lon="10.78035273923192"><ele>744.3333333333333</ele><time>2026-04-25T14:43:28.966Z</time></trkpt><trkpt lat="44.31146463565513" lon="10.780160744235346"><ele>746.0</ele><time>2026-04-25T14:43:29.966Z</time></trkpt><trkpt lat="44.311335711243444" lon="10.780017360368268"><ele>746.25</ele><time>2026-04-25T14:43:30.966Z</time></trkpt><trkpt lat="44.311197831469315" lon="10.779928240453694"><ele>746.5</ele><time>2026-04-25T14:43:31.966Z</time></trkpt><trkpt lat="44.31107324275725" lon="10.77985773465787"><ele>746.75</ele><time>2026-04-25T14:43:32.966Z</time></trkpt><trkpt lat="44.31098244518325" lon="10.779758981444422"><ele>747.0</ele><time>2026-04-25T14:43:33.966Z</time></trkpt><trkpt lat="44.31093256949568" lon="10.779629248690684"><ele>747.0</ele><time>2026-04-25T14:43:34.966Z</time></trkpt><trkpt lat="44.31092509453924" lon="10.779517030738369"><ele>747.0</ele><time>2026-04-25T14:43:35.966Z</time></trkpt><trkpt lat="44.310946634940265" lon="10.779378828809485"><ele>747.0</ele><time>2026-04-25T14:43:36.966Z</time></trkpt><trkpt lat="44.310983236903105" lon="10.779246508529152"><ele>747.0</ele><time>2026-04-25T14:43:37.966Z</time></trkpt><trkpt lat="44.31103539668115" lon="10.77911348469321"><ele>747.0</ele><time>2026-04-25T14:43:38.966Z</time></trkpt><trkpt lat="44.311082187089006" lon="10.778976226909657"><ele>747.0</ele><time>2026-04-25T14:43:39.965Z</time></trkpt><trkpt lat="44.31111380183691" lon="10.778831591238887"><ele>747.0</ele><time>2026-04-25T14:43:40.965Z</time></trkpt><trkpt lat="44.311117939803935" lon="10.778680156977961"><ele>747.0</ele><time>2026-04-25T14:43:41.965Z</time></trkpt><trkpt lat="44.311106288655694" lon="10.778513215310937"><ele>747.0</ele><time>2026-04-25T14:43:42.965Z</time></trkpt><trkpt lat="44.31110173128136" lon="10.77834160305946"><ele>746.5</ele><time>2026-04-25T14:43:43.965Z</time></trkpt><trkpt lat="44.31109273303863" lon="10.778170004394262"><ele>746.0</ele><time>2026-04-25T14:43:44.965Z</time></trkpt><trkpt lat="44.31108381822621" lon="10.777996126886794"><ele>745.5</ele><time>2026-04-25T14:43:45.965Z</time></trkpt><trkpt lat="44.31107312697737" lon="10.77782504453147"><ele>745.0</ele><time>2026-04-25T14:43:46.965Z</time></trkpt><trkpt lat="44.311067334466316" lon="10.777650814965515"><ele>745.0</ele><time>2026-04-25T14:43:47.965Z</time></trkpt><trkpt lat="44.31106331603755" lon="10.777481588227777"><ele>745.0</ele><time>2026-04-25T14:43:48.965Z</time></trkpt><trkpt lat="44.3110698256911" lon="10.777320221530283"><ele>745.0</ele><time>2026-04-25T14:43:49.965Z</time></trkpt><trkpt lat="44.31111209923347" lon="10.777163091853396"><ele>745.0</ele><time>2026-04-25T14:43:50.965Z</time></trkpt><trkpt lat="44.31113113655737" lon="10.777026811429822"><ele>745.0</ele><time>2026-04-25T14:43:51.965Z</time></trkpt><trkpt lat="44.311245045927414" lon="10.77691313180139"><ele>745.0</ele><time>2026-04-25T14:43:52.965Z</time></trkpt><trkpt lat="44.31135093754682" lon="10.776845325536984"><ele>745.0</ele><time>2026-04-25T14:43:53.965Z</time></trkpt><trkpt lat="44.31144694838862" lon="10.776776510642582"><ele>745.0</ele><time>2026-04-25T14:43:54.965Z</time></trkpt><trkpt lat="44.31154366709296" lon="10.776703307607548"><ele>744.75</ele><time>2026-04-25T14:43:55.965Z</time></trkpt><trkpt lat="44.31162952413886" lon="10.776589024843489"><ele>744.5</ele><time>2026-04-25T14:43:56.965Z</time></trkpt><trkpt lat="44.31169898240138" lon="10.77644031327204"><ele>744.25</ele><time>2026-04-25T14:43:57.965Z</time></trkpt><trkpt lat="44.311740161073175" lon="10.776266424355617"><ele>744.0</ele><time>2026-04-25T14:43:58.965Z</time></trkpt><trkpt lat="44.31176044146728" lon="10.776086433879062"><ele>742.75</ele><time>2026-04-25T14:43:59.965Z</time></trkpt><trkpt lat="44.3117722425441" lon="10.77590297263309"><ele>741.5</ele><time>2026-04-25T14:44:00.965Z</time></trkpt><trkpt lat="44.31177608608191" lon="10.775713381145406"><ele>740.25</ele><time>2026-04-25T14:44:01.965Z</time></trkpt><trkpt lat="44.311751999656316" lon="10.775496288333615"><ele>739.0</ele><time>2026-04-25T14:44:02.965Z</time></trkpt><trkpt lat="44.3117206197208" lon="10.775251456895015"><ele>736.6666666666667</ele><time>2026-04-25T14:44:03.965Z</time></trkpt><trkpt lat="44.311676938203654" lon="10.774983899192218"><ele>734.3333333333334</ele><time>2026-04-25T14:44:04.965Z</time></trkpt><trkpt lat="44.311630786783276" lon="10.774710962263034"><ele>732.0</ele><time>2026-04-25T14:44:05.965Z</time></trkpt><trkpt lat="44.31157407508135" lon="10.774443903615252"><ele>730.6666666666666</ele><time>2026-04-25T14:44:06.965Z</time></trkpt><trkpt lat="44.311523913238034" lon="10.774168939826621"><ele>729.3333333333333</ele><time>2026-04-25T14:44:07.965Z</time></trkpt><trkpt lat="44.311504538318246" lon="10.77389094614208"><ele>728.0</ele><time>2026-04-25T14:44:08.965Z</time></trkpt><trkpt lat="44.31150312394503" lon="10.773617799914097"><ele>729.0</ele><time>2026-04-25T14:44:09.965Z</time></trkpt><trkpt lat="44.31150795565151" lon="10.773347332969358"><ele>730.0</ele><time>2026-04-25T14:44:10.965Z</time></trkpt><trkpt lat="44.31150842214876" lon="10.77308519114538"><ele>731.0</ele><time>2026-04-25T14:44:11.965Z</time></trkpt><trkpt lat="44.31151878029349" lon="10.772832698546141"><ele>731.6666666666666</ele><time>2026-04-25T14:44:12.965Z</time></trkpt><trkpt lat="44.311551721438896" lon="10.772597518180504"><ele>732.3333333333334</ele><time>2026-04-25T14:44:13.965Z</time></trkpt><trkpt lat="44.311596613317484" lon="10.772377154047671"><ele>733.0</ele><time>2026-04-25T14:44:14.965Z</time></trkpt><trkpt lat="44.31164557777352" lon="10.77216647585943"><ele>733.0</ele><time>2026-04-25T14:44:15.965Z</time></trkpt><trkpt lat="44.31169688208924" lon="10.771964321601152"><ele>733.0</ele><time>2026-04-25T14:44:16.965Z</time></trkpt><trkpt lat="44.3117711847073" lon="10.771766722073036"><ele>733.0</ele><time>2026-04-25T14:44:17.965Z</time></trkpt><trkpt lat="44.3118696179406" lon="10.771590866174382"><ele>735.6666666666667</ele><time>2026-04-25T14:44:18.965Z</time></trkpt><trkpt lat="44.311976743702765" lon="10.771427745181516"><ele>738.3333333333334</ele><time>2026-04-25T14:44:19.965Z</time></trkpt><trkpt lat="44.31206586633569" lon="10.771249770874752"><ele>741.0</ele><time>2026-04-25T14:44:20.965Z</time></trkpt><trkpt lat="44.31213204689518" lon="10.77104085636845"><ele>742.6666666666666</ele><time>2026-04-25T14:44:21.965Z</time></trkpt><trkpt lat="44.31216921930275" lon="10.770815363246555"><ele>744.3333333333333</ele><time>2026-04-25T14:44:22.965Z</time></trkpt><trkpt lat="44.312175759922056" lon="10.770586469182023"><ele>746.0</ele><time>2026-04-25T14:44:23.965Z</time></trkpt><trkpt lat="44.31217036504059" lon="10.770364112625456"><ele>748.3333333333333</ele><time>2026-04-25T14:44:24.965Z</time></trkpt><trkpt lat="44.3121611436036" lon="10.770137824719127"><ele>750.6666666666666</ele><time>2026-04-25T14:44:25.965Z</time></trkpt><trkpt lat="44.312140978062864" lon="10.769915468811456"><ele>753.0</ele><time>2026-04-25T14:44:26.965Z</time></trkpt><trkpt lat="44.312102386889386" lon="10.769699998777316"><ele>753.0</ele><time>2026-04-25T14:44:27.965Z</time></trkpt><trkpt lat="44.31206032552974" lon="10.769484456187792"><ele>753.0</ele><time>2026-04-25T14:44:28.965Z</time></trkpt><trkpt lat="44.3120244890698" lon="10.76927727889284"><ele>753.0</ele><time>2026-04-25T14:44:29.965Z</time></trkpt><trkpt lat="44.31198588633014" lon="10.769081826518887"><ele>754.5</ele><time>2026-04-25T14:44:30.965Z</time></trkpt><trkpt lat="44.3119446443233" lon="10.768890305760378"><ele>756.0</ele><time>2026-04-25T14:44:31.965Z</time></trkpt><trkpt lat="44.31190270795794" lon="10.768702368425378"><ele>757.5</ele><time>2026-04-25T14:44:32.965Z</time></trkpt><trkpt lat="44.31186538968794" lon="10.76852767507668"><ele>759.0</ele><time>2026-04-25T14:44:33.965Z</time></trkpt><trkpt lat="44.31181879306522" lon="10.768355484091986"><ele>759.0</ele><time>2026-04-25T14:44:34.965Z</time></trkpt><trkpt lat="44.31176254496333" lon="10.768181056837802"><ele>759.0</ele><time>2026-04-25T14:44:35.965Z</time></trkpt><trkpt lat="44.31170432646982" lon="10.768009391439133"><ele>759.0</ele><time>2026-04-25T14:44:36.965Z</time></trkpt><trkpt lat="44.31164950773718" lon="10.767837606298508"><ele>759.0</ele><time>2026-04-25T14:44:37.965Z</time></trkpt><trkpt lat="44.31159389967618" lon="10.767673882465699"><ele>758.5</ele><time>2026-04-25T14:44:38.965Z</time></trkpt><trkpt lat="44.311550866660596" lon="10.767502286574247"><ele>758.0</ele><time>2026-04-25T14:44:39.965Z</time></trkpt><trkpt lat="44.31152521302953" lon="10.767326844691228"><ele>757.5</ele><time>2026-04-25T14:44:40.965Z</time></trkpt><trkpt lat="44.311518170732874" lon="10.767148694503295"><ele>757.0</ele><time>2026-04-25T14:44:41.965Z</time></trkpt><trkpt lat="44.31151456536605" lon="10.766968647186037"><ele>758.0</ele><time>2026-04-25T14:44:42.965Z</time></trkpt><trkpt lat="44.31152018293546" lon="10.766790189858495"><ele>759.0</ele><time>2026-04-25T14:44:43.965Z</time></trkpt><trkpt lat="44.311536543382225" lon="10.766619547679017"><ele>760.0</ele><time>2026-04-25T14:44:44.965Z</time></trkpt><trkpt lat="44.31157999030045" lon="10.766469959924716"><ele>761.0</ele><time>2026-04-25T14:44:45.965Z</time></trkpt><trkpt lat="44.31164137772549" lon="10.76634153447091"><ele>761.0</ele><time>2026-04-25T14:44:46.965Z</time></trkpt><trkpt lat="44.3117225478441" lon="10.766232422517382"><ele>761.0</ele><time>2026-04-25T14:44:47.965Z</time></trkpt><trkpt lat="44.31183039544006" lon="10.766183816453244"><ele>761.0</ele><time>2026-04-25T14:44:48.965Z</time></trkpt><trkpt lat="44.3119356063928" lon="10.766140912337832"><ele>761.0</ele><time>2026-04-25T14:44:49.965Z</time></trkpt><trkpt lat="44.312033609376904" lon="10.766075949793954"><ele>761.0</ele><time>2026-04-25T14:44:50.965Z</time></trkpt><trkpt lat="44.312104589828955" lon="10.765963745859338"><ele>761.5</ele><time>2026-04-25T14:44:51.965Z</time></trkpt><trkpt lat="44.3121286185558" lon="10.765811203037568"><ele>762.0</ele><time>2026-04-25T14:44:52.965Z</time></trkpt><trkpt lat="44.31214338147681" lon="10.765651160682996"><ele>762.5</ele><time>2026-04-25T14:44:53.965Z</time></trkpt><trkpt lat="44.31214981554224" lon="10.765468008339091"><ele>763.0</ele><time>2026-04-25T14:44:54.965Z</time></trkpt><trkpt lat="44.31217336667865" lon="10.765272777059293"><ele>765.0</ele><time>2026-04-25T14:44:55.965Z</time></trkpt><trkpt lat="44.31216470384217" lon="10.76505978524458"><ele>767.0</ele><time>2026-04-25T14:44:56.965Z</time></trkpt><trkpt lat="44.31218791194404" lon="10.764850648742138"><ele>769.0</ele><time>2026-04-25T14:44:57.965Z</time></trkpt><trkpt lat="44.312195551467134" lon="10.764638066393228"><ele>769.0</ele><time>2026-04-25T14:44:58.965Z</time></trkpt><trkpt lat="44.31220428527988" lon="10.76440667134276"><ele>769.0</ele><time>2026-04-25T14:44:59.965Z</time></trkpt><trkpt lat="44.3122264313845" lon="10.764177398273866"><ele>769.0</ele><time>2026-04-25T14:45:00.965Z</time></trkpt><trkpt lat="44.31227760582244" lon="10.763963206061955"><ele>768.6666666666666</ele><time>2026-04-25T14:45:01.965Z</time></trkpt><trkpt lat="44.312348137591464" lon="10.763768031732335"><ele>768.3333333333333</ele><time>2026-04-25T14:45:02.965Z</time></trkpt><trkpt lat="44.31244524045493" lon="10.763599579186005"><ele>768.0</ele><time>2026-04-25T14:45:03.965Z</time></trkpt><trkpt lat="44.31253189285198" lon="10.763437183741095"><ele>770.0</ele><time>2026-04-25T14:45:04.965Z</time></trkpt><trkpt lat="44.312575791269076" lon="10.763250863658962"><ele>772.0</ele><time>2026-04-25T14:45:05.965Z</time></trkpt><trkpt lat="44.31256175827168" lon="10.763074549915075"><ele>774.0</ele><time>2026-04-25T14:45:06.965Z</time></trkpt><trkpt lat="44.31249637810765" lon="10.76291795549813"><ele>776.0</ele><time>2026-04-25T14:45:07.965Z</time></trkpt><trkpt lat="44.31241953582516" lon="10.762738743740888"><ele>776.5</ele><time>2026-04-25T14:45:08.965Z</time></trkpt><trkpt lat="44.31233901158712" lon="10.762545653332106"><ele>777.0</ele><time>2026-04-25T14:45:09.965Z</time></trkpt><trkpt lat="44.31229299700415" lon="10.76235998073645"><ele>777.5</ele><time>2026-04-25T14:45:10.965Z</time></trkpt><trkpt lat="44.31227126049288" lon="10.762168792996722"><ele>778.0</ele><time>2026-04-25T14:45:11.965Z</time></trkpt><trkpt lat="44.31231832645861" lon="10.761987054520423"><ele>782.0</ele><time>2026-04-25T14:45:12.965Z</time></trkpt><trkpt lat="44.31241096919917" lon="10.761831685041933"><ele>786.0</ele><time>2026-04-25T14:45:13.965Z</time></trkpt><trkpt lat="44.31254675202886" lon="10.761731162249678"><ele>790.0</ele><time>2026-04-25T14:45:14.965Z</time></trkpt><trkpt lat="44.31269650445003" lon="10.761667866154585"><ele>790.0</ele><time>2026-04-25T14:45:15.965Z</time></trkpt><trkpt lat="44.312831047729496" lon="10.761573235451118"><ele>790.0</ele><time>2026-04-25T14:45:16.965Z</time></trkpt><trkpt lat="44.31292124855989" lon="10.76142085716179"><ele>790.0</ele><time>2026-04-25T14:45:17.965Z</time></trkpt><trkpt lat="44.31300059359758" lon="10.76123536594129"><ele>790.0</ele><time>2026-04-25T14:45:18.965Z</time></trkpt><trkpt lat="44.31309459813239" lon="10.761047951361956"><ele>790.5</ele><time>2026-04-25T14:45:19.967Z</time></trkpt><trkpt lat="44.31323350560307" lon="10.760943938701844"><ele>791.0</ele><time>2026-04-25T14:45:20.966Z</time></trkpt><trkpt lat="44.31334016520281" lon="10.76083887808652"><ele>791.5</ele><time>2026-04-25T14:45:21.966Z</time></trkpt><trkpt lat="44.31338842043934" lon="10.76070898294939"><ele>792.0</ele><time>2026-04-25T14:45:22.967Z</time></trkpt><trkpt lat="44.31336867026543" lon="10.760559930978928"><ele>792.0</ele><time>2026-04-25T14:45:23.966Z</time></trkpt><trkpt lat="44.313293776858885" lon="10.760409394162126"><ele>792.0</ele><time>2026-04-25T14:45:24.966Z</time></trkpt><trkpt lat="44.31320013425508" lon="10.7602555489502"><ele>792.0</ele><time>2026-04-25T14:45:25.967Z</time></trkpt><trkpt lat="44.31309965865816" lon="10.760093931363885"><ele>792.0</ele><time>2026-04-25T14:45:26.966Z</time></trkpt><trkpt lat="44.313025109220796" lon="10.759907783468943"><ele>792.25</ele><time>2026-04-25T14:45:27.966Z</time></trkpt><trkpt lat="44.312978050352946" lon="10.759705347726122"><ele>792.5</ele><time>2026-04-25T14:45:28.967Z</time></trkpt><trkpt lat="44.31296575084697" lon="10.759514725264268"><ele>792.75</ele><time>2026-04-25T14:45:29.966Z</time></trkpt><trkpt lat="44.31299467345331" lon="10.759321881937629"><ele>793.0</ele><time>2026-04-25T14:45:30.966Z</time></trkpt><trkpt lat="44.31306937361577" lon="10.75914436569412"><ele>794.25</ele><time>2026-04-25T14:45:31.966Z</time></trkpt><trkpt lat="44.31320478312785" lon="10.759042424263583"><ele>795.5</ele><time>2026-04-25T14:45:32.966Z</time></trkpt><trkpt lat="44.31330718875427" lon="10.75894163910284"><ele>796.75</ele><time>2026-04-25T14:45:33.966Z</time></trkpt><trkpt lat="44.31334588980312" lon="10.758778877274317"><ele>798.0</ele><time>2026-04-25T14:45:34.966Z</time></trkpt><trkpt lat="44.31331136159598" lon="10.758601298973435"><ele>799.0</ele><time>2026-04-25T14:45:35.966Z</time></trkpt><trkpt lat="44.313217728078534" lon="10.758419641435907"><ele>800.0</ele><time>2026-04-25T14:45:36.966Z</time></trkpt><trkpt lat="44.31309245902173" lon="10.758205153460818"><ele>801.0</ele><time>2026-04-25T14:45:37.966Z</time></trkpt><trkpt lat="44.312953395880015" lon="10.757975594218296"><ele>803.0</ele><time>2026-04-25T14:45:38.966Z</time></trkpt><trkpt lat="44.31280994392007" lon="10.75775136671972"><ele>805.0</ele><time>2026-04-25T14:45:39.966Z</time></trkpt><trkpt lat="44.31266338530463" lon="10.757555436707657"><ele>807.0</ele><time>2026-04-25T14:45:40.966Z</time></trkpt><trkpt lat="44.31256642046853" lon="10.757353372641138"><ele>808.0</ele><time>2026-04-25T14:45:41.966Z</time></trkpt><trkpt lat="44.312523763263464" lon="10.757134499940124"><ele>809.0</ele><time>2026-04-25T14:45:42.966Z</time></trkpt><trkpt lat="44.31253851862258" lon="10.756905433164942"><ele>810.0</ele><time>2026-04-25T14:45:43.966Z</time></trkpt><trkpt lat="44.312617424986556" lon="10.756679859483503"><ele>811.0</ele><time>2026-04-25T14:45:44.966Z</time></trkpt><trkpt lat="44.312744686723946" lon="10.756460962958137"><ele>812.0</ele><time>2026-04-25T14:45:45.966Z</time></trkpt><trkpt lat="44.31286915937966" lon="10.756233044871012"><ele>813.0</ele><time>2026-04-25T14:45:46.966Z</time></trkpt><trkpt lat="44.31292998308952" lon="10.756013442117512"><ele>813.6666666666667</ele><time>2026-04-25T14:45:47.966Z</time></trkpt><trkpt lat="44.312942727876376" lon="10.755787677982289"><ele>814.3333333333334</ele><time>2026-04-25T14:45:48.966Z</time></trkpt><trkpt lat="44.3128853519885" lon="10.755552106915951"><ele>815.0</ele><time>2026-04-25T14:45:49.966Z</time></trkpt><trkpt lat="44.31277502430814" lon="10.755312852683506"><ele>815.0</ele><time>2026-04-25T14:45:50.966Z</time></trkpt><trkpt lat="44.31263158666199" lon="10.75504770467906"><ele>815.0</ele><time>2026-04-25T14:45:51.966Z</time></trkpt><trkpt lat="44.312485943794854" lon="10.75475336409315"><ele>815.0</ele><time>2026-04-25T14:45:52.966Z</time></trkpt><trkpt lat="44.31234780245966" lon="10.754504774241411"><ele>815.0</ele><time>2026-04-25T14:45:53.966Z</time></trkpt><trkpt lat="44.31215319485798" lon="10.754284648906388"><ele>817.5</ele><time>2026-04-25T14:45:54.966Z</time></trkpt><trkpt lat="44.31192648740268" lon="10.754055180277213"><ele>820.0</ele><time>2026-04-25T14:45:55.966Z</time></trkpt><trkpt lat="44.311754557537554" lon="10.753803199697211"><ele>820.0</ele><time>2026-04-25T14:45:56.966Z</time></trkpt><trkpt lat="44.311636104940206" lon="10.753587196510209"><ele>820.0</ele><time>2026-04-25T14:45:57.966Z</time></trkpt><trkpt lat="44.31151032828871" lon="10.753420114582676"><ele>820.0</ele><time>2026-04-25T14:45:58.966Z</time></trkpt><trkpt lat="44.31133072486791" lon="10.753295103482035"><ele>824.0</ele><time>2026-04-25T14:45:59.966Z</time></trkpt><trkpt lat="44.31116693983218" lon="10.753234485967617"><ele>828.0</ele><time>2026-04-25T14:46:00.966Z</time></trkpt><trkpt lat="44.31111067336233" lon="10.753058902184867"><ele>832.0</ele><time>2026-04-25T14:46:01.966Z</time></trkpt><trkpt lat="44.31109618952744" lon="10.752830105493732"><ele>832.6666666666666</ele><time>2026-04-25T14:46:02.966Z</time></trkpt><trkpt lat="44.31108226317796" lon="10.752516482196208"><ele>833.3333333333333</ele><time>2026-04-25T14:46:03.966Z</time></trkpt><trkpt lat="44.311023261943596" lon="10.752219573676422"><ele>834.0</ele><time>2026-04-25T14:46:04.966Z</time></trkpt><trkpt lat="44.31090794252615" lon="10.751914280822847"><ele>833.0</ele><time>2026-04-25T14:46:05.966Z</time></trkpt><trkpt lat="44.310714942615206" lon="10.751683025146368"><ele>832.0</ele><time>2026-04-25T14:46:06.966Z</time></trkpt><trkpt lat="44.31061786488345" lon="10.751488689927001"><ele>831.0</ele><time>2026-04-25T14:46:07.966Z</time></trkpt><trkpt lat="44.31061384673609" lon="10.751283178341263"><ele>831.0</ele><time>2026-04-25T14:46:08.966Z</time></trkpt><trkpt lat="44.31063399695571" lon="10.751050867746585"><ele>831.0</ele><time>2026-04-25T14:46:09.966Z</time></trkpt><trkpt lat="44.31070348722381" lon="10.75084103739813"><ele>831.0</ele><time>2026-04-25T14:46:10.966Z</time></trkpt><trkpt lat="44.310866183949585" lon="10.750727027003895"><ele>832.6666666666667</ele><time>2026-04-25T14:46:11.966Z</time></trkpt><trkpt lat="44.31097565585275" lon="10.750559135808285"><ele>834.3333333333334</ele><time>2026-04-25T14:46:12.966Z</time></trkpt><trkpt lat="44.311025570476026" lon="10.75036308871826"><ele>836.0</ele><time>2026-04-25T14:46:13.966Z</time></trkpt><trkpt lat="44.31104406195444" lon="10.750080822124954"><ele>838.6666666666667</ele><time>2026-04-25T14:46:14.966Z</time></trkpt><trkpt lat="44.31106969100242" lon="10.749778104429641"><ele>841.3333333333333</ele><time>2026-04-25T14:46:15.966Z</time></trkpt><trkpt lat="44.31116750960317" lon="10.749533307808962"><ele>844.0</ele><time>2026-04-25T14:46:16.966Z</time></trkpt><trkpt lat="44.31131790987361" lon="10.749341397618728"><ele>844.5</ele><time>2026-04-25T14:46:17.966Z</time></trkpt><trkpt lat="44.31145194939893" lon="10.749186559238437"><ele>845.0</ele><time>2026-04-25T14:46:18.966Z</time></trkpt><trkpt lat="44.31153753235253" lon="10.749054931207485"><ele>845.5</ele><time>2026-04-25T14:46:19.966Z</time></trkpt><trkpt lat="44.311566571442775" lon="10.748913965795412"><ele>846.0</ele><time>2026-04-25T14:46:20.966Z</time></trkpt><trkpt lat="44.311527186271604" lon="10.748798309070189"><ele>846.0</ele><time>2026-04-25T14:46:21.966Z</time></trkpt><trkpt lat="44.31143015367462" lon="10.74874916515144"><ele>846.0</ele><time>2026-04-25T14:46:22.966Z</time></trkpt><trkpt lat="44.3112923065003" lon="10.748757300138358"><ele>846.0</ele><time>2026-04-25T14:46:23.966Z</time></trkpt><trkpt lat="44.311133008840464" lon="10.748825293293008"><ele>846.0</ele><time>2026-04-25T14:46:24.966Z</time></trkpt><trkpt lat="44.31095993978153" lon="10.748886483126165"><ele>847.0</ele><time>2026-04-25T14:46:25.966Z</time></trkpt><trkpt lat="44.31077528594671" lon="10.748895683568392"><ele>848.0</ele><time>2026-04-25T14:46:26.966Z</time></trkpt><trkpt lat="44.31063564167498" lon="10.748850873839016"><ele>849.0</ele><time>2026-04-25T14:46:27.966Z</time></trkpt><trkpt lat="44.31050417541305" lon="10.748724489495507"><ele>848.0</ele><time>2026-04-25T14:46:28.966Z</time></trkpt><trkpt lat="44.31038359683907" lon="10.748545742357793"><ele>847.0</ele><time>2026-04-25T14:46:29.966Z</time></trkpt><trkpt lat="44.31031432477864" lon="10.748402580969778"><ele>846.0</ele><time>2026-04-25T14:46:30.966Z</time></trkpt><trkpt lat="44.310302028795334" lon="10.748253117947641"><ele>845.0</ele><time>2026-04-25T14:46:31.966Z</time></trkpt><trkpt lat="44.310365507907854" lon="10.748063210916625"><ele>845.0</ele><time>2026-04-25T14:46:32.966Z</time></trkpt><trkpt lat="44.310487504692034" lon="10.74786280994858"><ele>845.0</ele><time>2026-04-25T14:46:33.966Z</time></trkpt><trkpt lat="44.310601506550064" lon="10.74763092998601"><ele>845.0</ele><time>2026-04-25T14:46:34.966Z</time></trkpt><trkpt lat="44.31066821434903" lon="10.747354016178127"><ele>853.3333333333334</ele><time>2026-04-25T14:46:35.966Z</time></trkpt><trkpt lat="44.31068237558201" lon="10.747044145785479"><ele>861.6666666666667</ele><time>2026-04-25T14:46:36.966Z</time></trkpt><trkpt lat="44.31066749056571" lon="10.746749160990664"><ele>870.0</ele><time>2026-04-25T14:46:37.966Z</time></trkpt><trkpt lat="44.310662469678746" lon="10.746491215739944"><ele>871.0</ele><time>2026-04-25T14:46:38.966Z</time></trkpt><trkpt lat="44.31069485311609" lon="10.746265710158218"><ele>872.0</ele><time>2026-04-25T14:46:39.966Z</time></trkpt><trkpt lat="44.31073896988888" lon="10.746018831026591"><ele>873.0</ele><time>2026-04-25T14:46:40.966Z</time></trkpt><trkpt lat="44.31076329034661" lon="10.745750477364986"><ele>872.6666666666667</ele><time>2026-04-25T14:46:41.966Z</time></trkpt><trkpt lat="44.31080154191528" lon="10.74548778057033"><ele>872.3333333333334</ele><time>2026-04-25T14:46:42.966Z</time></trkpt><trkpt lat="44.31083726678418" lon="10.745181978621844"><ele>872.0</ele><time>2026-04-25T14:46:43.966Z</time></trkpt><trkpt lat="44.310815743321214" lon="10.744855019683866"><ele>872.0</ele><time>2026-04-25T14:46:44.966Z</time></trkpt><trkpt lat="44.310810633200816" lon="10.744524350616276"><ele>872.0</ele><time>2026-04-25T14:46:45.966Z</time></trkpt><trkpt lat="44.31084268838859" lon="10.744204111054907"><ele>870.5</ele><time>2026-04-25T14:46:46.966Z</time></trkpt><trkpt lat="44.31089749462671" lon="10.743891150498422"><ele>869.0</ele><time>2026-04-25T14:46:47.966Z</time></trkpt><trkpt lat="44.310962804264676" lon="10.743589378067265"><ele>869.0</ele><time>2026-04-25T14:46:48.966Z</time></trkpt><trkpt lat="44.3110001831537" lon="10.743302613630187"><ele>869.0</ele><time>2026-04-25T14:46:49.966Z</time></trkpt><trkpt lat="44.31099122504772" lon="10.743039558525833"><ele>869.0</ele><time>2026-04-25T14:46:50.966Z</time></trkpt><trkpt lat="44.31095985831338" lon="10.742774996477879"><ele>870.0</ele><time>2026-04-25T14:46:51.966Z</time></trkpt><trkpt lat="44.31089946385527" lon="10.742484428423618"><ele>871.0</ele><time>2026-04-25T14:46:52.966Z</time></trkpt><trkpt lat="44.31083386550206" lon="10.742187080902404"><ele>872.0</ele><time>2026-04-25T14:46:53.966Z</time></trkpt><trkpt lat="44.31074829801904" lon="10.741906323334685"><ele>874.0</ele><time>2026-04-25T14:46:54.966Z</time></trkpt><trkpt lat="44.310654899584016" lon="10.741650826616768"><ele>876.0</ele><time>2026-04-25T14:46:55.966Z</time></trkpt><trkpt lat="44.31056574668444" lon="10.741423570587317"><ele>878.0</ele><time>2026-04-25T14:46:56.966Z</time></trkpt><trkpt lat="44.310452447280376" lon="10.741249650938846"><ele>878.3333333333334</ele><time>2026-04-25T14:46:57.966Z</time></trkpt><trkpt lat="44.31029012380763" lon="10.741137519103363"><ele>878.6666666666667</ele><time>2026-04-25T14:46:58.966Z</time></trkpt><trkpt lat="44.310091908660304" lon="10.741068001659055"><ele>879.0</ele><time>2026-04-25T14:46:59.966Z</time></trkpt><trkpt lat="44.309874876109724" lon="10.74102499893328"><ele>874.3333333333333</ele><time>2026-04-25T14:47:00.966Z</time></trkpt><trkpt lat="44.30966487627211" lon="10.74100115152562"><ele>869.6666666666666</ele><time>2026-04-25T14:47:01.966Z</time></trkpt><trkpt lat="44.3094919744439" lon="10.74094186353186"><ele>865.0</ele><time>2026-04-25T14:47:02.966Z</time></trkpt><trkpt lat="44.30936909520883" lon="10.740844757198444"><ele>865.0</ele><time>2026-04-25T14:47:03.966Z</time></trkpt><trkpt lat="44.30928711307919" lon="10.740685350395413"><ele>865.0</ele><time>2026-04-25T14:47:04.966Z</time></trkpt><trkpt lat="44.30923795082919" lon="10.74048952888209"><ele>865.0</ele><time>2026-04-25T14:47:05.966Z</time></trkpt><trkpt lat="44.30920538017473" lon="10.740263685802105"><ele>866.0</ele><time>2026-04-25T14:47:06.966Z</time></trkpt><trkpt lat="44.309167085838844" lon="10.740024235977026"><ele>867.0</ele><time>2026-04-25T14:47:07.966Z</time></trkpt><trkpt lat="44.3091180541262" lon="10.739793724161306"><ele>868.0</ele><time>2026-04-25T14:47:08.966Z</time></trkpt><trkpt lat="44.30906812674642" lon="10.73958149480442"><ele>865.6666666666666</ele><time>2026-04-25T14:47:09.966Z</time></trkpt><trkpt lat="44.30901981086659" lon="10.739373189396394"><ele>863.3333333333333</ele><time>2026-04-25T14:47:10.966Z</time></trkpt><trkpt lat="44.30895245533871" lon="10.739166568617087"><ele>861.0</ele><time>2026-04-25T14:47:11.966Z</time></trkpt><trkpt lat="44.30886750956138" lon="10.73897062222187"><ele>860.0</ele><time>2026-04-25T14:47:12.966Z</time></trkpt><trkpt lat="44.30878242342036" lon="10.738781279757733"><ele>859.0</ele><time>2026-04-25T14:47:13.966Z</time></trkpt><trkpt lat="44.30867400817714" lon="10.73859931044494"><ele>858.0</ele><time>2026-04-25T14:47:14.966Z</time></trkpt><trkpt lat="44.3085627197201" lon="10.738416577341047"><ele>857.0</ele><time>2026-04-25T14:47:15.964Z</time></trkpt><trkpt lat="44.30846187470657" lon="10.738241184628304"><ele>856.0</ele><time>2026-04-25T14:47:16.963Z</time></trkpt><trkpt lat="44.30838700525226" lon="10.738062741036762"><ele>855.0</ele><time>2026-04-25T14:47:17.962Z</time></trkpt><trkpt lat="44.30832871522632" lon="10.737877782082808"><ele>853.3333333333333</ele><time>2026-04-25T14:47:18.961Z</time></trkpt><trkpt lat="44.30828064765081" lon="10.737683302686854"><ele>851.6666666666666</ele><time>2026-04-25T14:47:19.96Z</time></trkpt><trkpt lat="44.30822757527063" lon="10.737486682951005"><ele>850.0</ele><time>2026-04-25T14:47:20.958Z</time></trkpt><trkpt lat="44.308177850658524" lon="10.737284220229906"><ele>850.0</ele><time>2026-04-25T14:47:21.957Z</time></trkpt><trkpt lat="44.30813055802466" lon="10.737085682011681"><ele>850.0</ele><time>2026-04-25T14:47:22.957Z</time></trkpt><trkpt lat="44.30808479803646" lon="10.736871028188668"><ele>850.0</ele><time>2026-04-25T14:47:23.956Z</time></trkpt><trkpt lat="44.30805411223615" lon="10.736657643614434"><ele>849.75</ele><time>2026-04-25T14:47:24.955Z</time></trkpt><trkpt lat="44.30801530149087" lon="10.736448762175206"><ele>849.5</ele><time>2026-04-25T14:47:25.955Z</time></trkpt><trkpt lat="44.307979500561096" lon="10.736241180550222"><ele>849.25</ele><time>2026-04-25T14:47:26.954Z</time></trkpt><trkpt lat="44.307935691813526" lon="10.736058542813522"><ele>849.0</ele><time>2026-04-25T14:47:27.953Z</time></trkpt><trkpt lat="44.30792435396992" lon="10.73584668787118"><ele>849.0</ele><time>2026-04-25T14:47:28.953Z</time></trkpt><trkpt lat="44.307901243305004" lon="10.735641777754804"><ele>849.0</ele><time>2026-04-25T14:47:29.952Z</time></trkpt><trkpt lat="44.307877646835735" lon="10.735442952756742"><ele>849.0</ele><time>2026-04-25T14:47:30.952Z</time></trkpt><trkpt lat="44.30788111812716" lon="10.735242322681257"><ele>849.0</ele><time>2026-04-25T14:47:31.951Z</time></trkpt><trkpt lat="44.30786095723274" lon="10.735044719152622"><ele>848.5</ele><time>2026-04-25T14:47:32.951Z</time></trkpt><trkpt lat="44.30786620752901" lon="10.73484350630098"><ele>848.0</ele><time>2026-04-25T14:47:33.95Z</time></trkpt><trkpt lat="44.307858683350666" lon="10.734640484268086"><ele>847.5</ele><time>2026-04-25T14:47:34.95Z</time></trkpt><trkpt lat="44.3078509649747" lon="10.734431698852296"><ele>847.0</ele><time>2026-04-25T14:47:35.949Z</time></trkpt><trkpt lat="44.30784360857387" lon="10.734230732644635"><ele>846.5</ele><time>2026-04-25T14:47:36.949Z</time></trkpt><trkpt lat="44.30783559889222" lon="10.734011915342068"><ele>846.0</ele><time>2026-04-25T14:47:37.948Z</time></trkpt><trkpt lat="44.307828957376756" lon="10.73380784165152"><ele>845.5</ele><time>2026-04-25T14:47:38.948Z</time></trkpt><trkpt lat="44.30782189839642" lon="10.733606964920577"><ele>845.0</ele><time>2026-04-25T14:47:39.948Z</time></trkpt><trkpt lat="44.30781020154816" lon="10.733419417021343"><ele>845.0</ele><time>2026-04-25T14:47:40.947Z</time></trkpt><trkpt lat="44.307780517153034" lon="10.733233354600559"><ele>845.0</ele><time>2026-04-25T14:47:41.947Z</time></trkpt><trkpt lat="44.30772488578857" lon="10.733068924455525"><ele>845.0</ele><time>2026-04-25T14:47:42.947Z</time></trkpt><trkpt lat="44.3076612876189" lon="10.732915594238943"><ele>845.0</ele><time>2026-04-25T14:47:43.947Z</time></trkpt><trkpt lat="44.30759559218214" lon="10.732760894869191"><ele>845.75</ele><time>2026-04-25T14:47:44.946Z</time></trkpt><trkpt lat="44.307514721025875" lon="10.732611976042996"><ele>846.5</ele><time>2026-04-25T14:47:45.946Z</time></trkpt><trkpt lat="44.30744985253511" lon="10.73244855842628"><ele>847.25</ele><time>2026-04-25T14:47:46.946Z</time></trkpt><trkpt lat="44.30738256796943" lon="10.732285587856154"><ele>848.0</ele><time>2026-04-25T14:47:47.946Z</time></trkpt><trkpt lat="44.30734484517559" lon="10.732099214520362"><ele>848.0</ele><time>2026-04-25T14:47:48.946Z</time></trkpt><trkpt lat="44.30729780611862" lon="10.731937260149474"><ele>848.0</ele><time>2026-04-25T14:47:49.946Z</time></trkpt><trkpt lat="44.307248763551854" lon="10.731796285847826"><ele>848.0</ele><time>2026-04-25T14:47:50.945Z</time></trkpt><trkpt lat="44.3071877273345" lon="10.731667612227087"><ele>848.0</ele><time>2026-04-25T14:47:51.945Z</time></trkpt><trkpt lat="44.30714563589386" lon="10.731540399893873"><ele>848.0</ele><time>2026-04-25T14:47:52.945Z</time></trkpt><trkpt lat="44.30711766526453" lon="10.731411550481868"><ele>847.1666666666667</ele><time>2026-04-25T14:47:53.945Z</time></trkpt><trkpt lat="44.30709259206863" lon="10.731286752599797"><ele>846.3333333333334</ele><time>2026-04-25T14:47:54.945Z</time></trkpt><trkpt lat="44.30706441613943" lon="10.731172641340608"><ele>845.5</ele><time>2026-04-25T14:47:55.945Z</time></trkpt><trkpt lat="44.30703224538927" lon="10.73108648208238"><ele>844.6666666666667</ele><time>2026-04-25T14:47:56.945Z</time></trkpt><trkpt lat="44.30701026162502" lon="10.73097818725387"><ele>843.8333333333334</ele><time>2026-04-25T14:47:58.944Z</time></trkpt><trkpt lat="44.30690378200988" lon="10.730956102304638"><ele>843.0</ele><time>2026-04-25T14:48:00.944Z</time></trkpt><trkpt lat="44.30687905328617" lon="10.73086924733488"><ele>843.0</ele><time>2026-04-25T14:48:01.944Z</time></trkpt><trkpt lat="44.30681921446155" lon="10.730784698078121"><ele>843.0</ele><time>2026-04-25T14:48:02.944Z</time></trkpt><trkpt lat="44.30677381615795" lon="10.730669586144534"><ele>843.0</ele><time>2026-04-25T14:48:03.944Z</time></trkpt><trkpt lat="44.306710099013614" lon="10.730570685660561"><ele>843.0</ele><time>2026-04-25T14:48:04.944Z</time></trkpt><trkpt lat="44.306622129775526" lon="10.730475081218772"><ele>843.0</ele><time>2026-04-25T14:48:05.944Z</time></trkpt><trkpt lat="44.30653720273402" lon="10.730395235332145"><ele>843.0</ele><time>2026-04-25T14:48:06.944Z</time></trkpt><trkpt lat="44.30647368608256" lon="10.730302816904713"><ele>843.0</ele><time>2026-04-25T14:48:07.944Z</time></trkpt><trkpt lat="44.30642467119307" lon="10.730218103671048"><ele>843.0</ele><time>2026-04-25T14:48:08.944Z</time></trkpt><trkpt lat="44.30640855706017" lon="10.730126280767355"><ele>843.0</ele><time>2026-04-25T14:48:09.944Z</time></trkpt><trkpt lat="44.306426379461755" lon="10.730014419920805"><ele>843.0</ele><time>2026-04-25T14:48:10.944Z</time></trkpt><trkpt lat="44.306462903882604" lon="10.729891534915446"><ele>843.0</ele><time>2026-04-25T14:48:11.944Z</time></trkpt><trkpt lat="44.30649809390723" lon="10.729772577579922"><ele>842.8</ele><time>2026-04-25T14:48:12.943Z</time></trkpt><trkpt lat="44.30652548238797" lon="10.729642485447828"><ele>842.5999999999999</ele><time>2026-04-25T14:48:13.943Z</time></trkpt><trkpt lat="44.30651912353964" lon="10.729513547799854"><ele>842.4000000000001</ele><time>2026-04-25T14:48:14.943Z</time></trkpt><trkpt lat="44.306459447854046" lon="10.729398564572843"><ele>842.2</ele><time>2026-04-25T14:48:15.943Z</time></trkpt><trkpt lat="44.30636517265918" lon="10.72930589257789"><ele>842.0</ele><time>2026-04-25T14:48:16.943Z</time></trkpt><trkpt lat="44.30625971451359" lon="10.72921226975027"><ele>835.75</ele><time>2026-04-25T14:48:17.943Z</time></trkpt><trkpt lat="44.30616498751451" lon="10.729105253786209"><ele>829.5</ele><time>2026-04-25T14:48:18.943Z</time></trkpt><trkpt lat="44.306079345266895" lon="10.728969237269432"><ele>823.25</ele><time>2026-04-25T14:48:19.943Z</time></trkpt><trkpt lat="44.30600179131578" lon="10.728811807026831"><ele>817.0</ele><time>2026-04-25T14:48:20.943Z</time></trkpt><trkpt lat="44.305916439355315" lon="10.728681254575385"><ele>819.5</ele><time>2026-04-25T14:48:21.943Z</time></trkpt><trkpt lat="44.305832780248785" lon="10.728555325139588"><ele>822.0</ele><time>2026-04-25T14:48:22.943Z</time></trkpt><trkpt lat="44.305749246572795" lon="10.728434021197842"><ele>824.5</ele><time>2026-04-25T14:48:23.943Z</time></trkpt><trkpt lat="44.30565896094013" lon="10.728337517909571"><ele>827.0</ele><time>2026-04-25T14:48:24.943Z</time></trkpt><trkpt lat="44.3055409679387" lon="10.728311409962522"><ele>821.75</ele><time>2026-04-25T14:48:25.943Z</time></trkpt><trkpt lat="44.30540511329425" lon="10.728293299811023"><ele>816.5</ele><time>2026-04-25T14:48:26.943Z</time></trkpt><trkpt lat="44.30528736382036" lon="10.728272021780981"><ele>811.25</ele><time>2026-04-25T14:48:27.943Z</time></trkpt><trkpt lat="44.30516046277905" lon="10.728209461516817"><ele>806.0</ele><time>2026-04-25T14:48:28.943Z</time></trkpt><trkpt lat="44.3050451009414" lon="10.728133497163917"><ele>806.0</ele><time>2026-04-25T14:48:29.943Z</time></trkpt><trkpt lat="44.304930401205795" lon="10.728031949507171"><ele>806.0</ele><time>2026-04-25T14:48:30.943Z</time></trkpt><trkpt lat="44.30481741219086" lon="10.727938034109377"><ele>806.0</ele><time>2026-04-25T14:48:31.943Z</time></trkpt><trkpt lat="44.30471989381124" lon="10.727817147532681"><ele>806.0</ele><time>2026-04-25T14:48:32.943Z</time></trkpt><trkpt lat="44.30461640474847" lon="10.727723452131583"><ele>805.0</ele><time>2026-04-25T14:48:33.943Z</time></trkpt><trkpt lat="44.30451432477375" lon="10.727639074700106"><ele>804.0</ele><time>2026-04-25T14:48:34.943Z</time></trkpt><trkpt lat="44.30439573368172" lon="10.727576191211751"><ele>803.0</ele><time>2026-04-25T14:48:35.943Z</time></trkpt><trkpt lat="44.304290196093994" lon="10.727456586306262"><ele>802.0</ele><time>2026-04-25T14:48:36.943Z</time></trkpt><trkpt lat="44.30414512639992" lon="10.727516709905913"><ele>802.0</ele><time>2026-04-25T14:48:37.943Z</time></trkpt><trkpt lat="44.3040133426841" lon="10.727512645356418"><ele>802.0</ele><time>2026-04-25T14:48:38.943Z</time></trkpt><trkpt lat="44.30387594654217" lon="10.727517840605113"><ele>802.0</ele><time>2026-04-25T14:48:39.943Z</time></trkpt><trkpt lat="44.30373719537662" lon="10.72748803197419"><ele>802.0</ele><time>2026-04-25T14:48:40.943Z</time></trkpt><trkpt lat="44.303606040167246" lon="10.7274250557149"><ele>799.5</ele><time>2026-04-25T14:48:41.943Z</time></trkpt><trkpt lat="44.30348104833945" lon="10.727328643329225"><ele>797.0</ele><time>2026-04-25T14:48:42.943Z</time></trkpt><trkpt lat="44.30335492620752" lon="10.727224998947488"><ele>794.5</ele><time>2026-04-25T14:48:43.943Z</time></trkpt><trkpt lat="44.30323250851249" lon="10.727121761105817"><ele>792.0</ele><time>2026-04-25T14:48:44.943Z</time></trkpt><trkpt lat="44.30309724518218" lon="10.727078427602926"><ele>791.0</ele><time>2026-04-25T14:48:45.943Z</time></trkpt><trkpt lat="44.3029529147781" lon="10.727048846456661"><ele>790.0</ele><time>2026-04-25T14:48:46.943Z</time></trkpt><trkpt lat="44.30283904421689" lon="10.72701234362373"><ele>789.0</ele><time>2026-04-25T14:48:47.943Z</time></trkpt><trkpt lat="44.30273128120512" lon="10.726992869027656"><ele>788.0</ele><time>2026-04-25T14:48:48.943Z</time></trkpt><trkpt lat="44.30266871830446" lon="10.727008214615294"><ele>787.0</ele><time>2026-04-25T14:48:49.943Z</time></trkpt><trkpt lat="44.30259706047424" lon="10.727045611851668"><ele>787.0</ele><time>2026-04-25T14:48:52.943Z</time></trkpt><trkpt lat="44.30251506237054" lon="10.727177729951142"><ele>787.0</ele><time>2026-04-25T14:48:54.943Z</time></trkpt><trkpt lat="44.30248449861682" lon="10.727304592586508"><ele>787.0</ele><time>2026-04-25T14:48:55.943Z</time></trkpt><trkpt lat="44.30244561542595" lon="10.727432020422572"><ele>787.0</ele><time>2026-04-25T14:48:56.943Z</time></trkpt><trkpt lat="44.30242301132258" lon="10.727545197662153"><ele>787.0</ele><time>2026-04-25T14:48:57.943Z</time></trkpt><trkpt lat="44.30240593261005" lon="10.72765219942039"><ele>786.9999999999999</ele><time>2026-04-25T14:48:58.943Z</time></trkpt><trkpt lat="44.30238700548766" lon="10.727742344168268"><ele>787.0</ele><time>2026-04-25T14:48:59.943Z</time></trkpt><trkpt lat="44.302347317997786" lon="10.727886187013375"><ele>787.0</ele><time>2026-04-25T14:49:01.943Z</time></trkpt><trkpt lat="44.302401580357866" lon="10.727808129220472"><ele>787.0</ele><time>2026-04-25T14:50:32.943Z</time></trkpt><trkpt lat="44.30238645751674" lon="10.727706716468843"><ele>786.9999999999999</ele><time>2026-04-25T14:50:33.943Z</time></trkpt><trkpt lat="44.30240772984779" lon="10.727591299086003"><ele>787.0</ele><time>2026-04-25T14:50:34.943Z</time></trkpt><trkpt lat="44.3024489688019" lon="10.72737098190166"><ele>787.0</ele><time>2026-04-25T14:50:35.943Z</time></trkpt><trkpt lat="44.302515364056326" lon="10.72725622058811"><ele>787.0</ele><time>2026-04-25T14:50:36.943Z</time></trkpt><trkpt lat="44.30256656445576" lon="10.727147169142608"><ele>787.0</ele><time>2026-04-25T14:50:37.943Z</time></trkpt><trkpt lat="44.30264546994664" lon="10.727075667564055"><ele>787.0</ele><time>2026-04-25T14:50:38.943Z</time></trkpt><trkpt lat="44.30274796919561" lon="10.72704103409694"><ele>787.0</ele><time>2026-04-25T14:50:39.943Z</time></trkpt><trkpt lat="44.30287440203429" lon="10.727056543215909"><ele>787.0</ele><time>2026-04-25T14:50:40.943Z</time></trkpt><trkpt lat="44.30301642503408" lon="10.727098770757662"><ele>787.0</ele><time>2026-04-25T14:50:41.943Z</time></trkpt><trkpt lat="44.303170004900984" lon="10.727158366609784"><ele>787.0</ele><time>2026-04-25T14:50:42.943Z</time></trkpt><trkpt lat="44.303324544329385" lon="10.727235713780432"><ele>788.6666666666666</ele><time>2026-04-25T14:50:43.943Z</time></trkpt><trkpt lat="44.30347828101587" lon="10.727351438403868"><ele>790.3333333333333</ele><time>2026-04-25T14:50:44.943Z</time></trkpt><trkpt lat="44.30360491894915" lon="10.727475090762455"><ele>792.0</ele><time>2026-04-25T14:50:45.943Z</time></trkpt><trkpt lat="44.30375334720055" lon="10.727547286804912"><ele>795.3333333333333</ele><time>2026-04-25T14:50:46.943Z</time></trkpt><trkpt lat="44.30392421540414" lon="10.727571177081867"><ele>798.6666666666666</ele><time>2026-04-25T14:50:47.943Z</time></trkpt><trkpt lat="44.30410907288944" lon="10.727566631289463"><ele>802.0</ele><time>2026-04-25T14:50:48.943Z</time></trkpt><trkpt lat="44.304281435585324" lon="10.727576000470066"><ele>802.0</ele><time>2026-04-25T14:50:49.943Z</time></trkpt><trkpt lat="44.30444112353394" lon="10.727636041472506"><ele>802.0</ele><time>2026-04-25T14:50:50.943Z</time></trkpt><trkpt lat="44.30459371689001" lon="10.727741219677727"><ele>802.0</ele><time>2026-04-25T14:50:51.943Z</time></trkpt><trkpt lat="44.30474284706011" lon="10.727899800357957"><ele>803.3333333333333</ele><time>2026-04-25T14:50:52.943Z</time></trkpt><trkpt lat="44.304917941136566" lon="10.72803205813173"><ele>804.6666666666667</ele><time>2026-04-25T14:50:53.943Z</time></trkpt><trkpt lat="44.305059908420105" lon="10.728166869689819"><ele>806.0</ele><time>2026-04-25T14:50:54.943Z</time></trkpt><trkpt lat="44.30519109334533" lon="10.728277690861253"><ele>806.0</ele><time>2026-04-25T14:50:55.943Z</time></trkpt><trkpt lat="44.30534515880441" lon="10.728322428377997"><ele>806.0</ele><time>2026-04-25T14:50:56.943Z</time></trkpt><trkpt lat="44.30549945486932" lon="10.728354221275355"><ele>806.0</ele><time>2026-04-25T14:50:57.943Z</time></trkpt><trkpt lat="44.30565311866822" lon="10.728370890051345"><ele>808.75</ele><time>2026-04-25T14:50:58.943Z</time></trkpt><trkpt lat="44.30576131631964" lon="10.72846017090907"><ele>811.5</ele><time>2026-04-25T14:50:59.943Z</time></trkpt><trkpt lat="44.30583256193938" lon="10.728596273978656"><ele>814.25</ele><time>2026-04-25T14:51:00.943Z</time></trkpt><trkpt lat="44.30592998742072" lon="10.728756732996532"><ele>817.0</ele><time>2026-04-25T14:51:01.943Z</time></trkpt><trkpt lat="44.30602635835794" lon="10.728947757246761"><ele>817.0</ele><time>2026-04-25T14:51:02.943Z</time></trkpt><trkpt lat="44.30615042886572" lon="10.729153509639886"><ele>817.0</ele><time>2026-04-25T14:51:03.943Z</time></trkpt><trkpt lat="44.30629862741676" lon="10.729296953255346"><ele>817.0</ele><time>2026-04-25T14:51:04.943Z</time></trkpt><trkpt lat="44.30641710856724" lon="10.729443450676051"><ele>818.0</ele><time>2026-04-25T14:51:05.943Z</time></trkpt><trkpt lat="44.30648781031531" lon="10.729573374159983"><ele>819.0</ele><time>2026-04-25T14:51:06.943Z</time></trkpt><trkpt lat="44.30650411295626" lon="10.729666545526037"><ele>820.0</ele><time>2026-04-25T14:51:07.943Z</time></trkpt><trkpt lat="44.30647065324902" lon="10.729773126960204"><ele>821.0</ele><time>2026-04-25T14:51:08.943Z</time></trkpt><trkpt lat="44.30643236648551" lon="10.729917347038452"><ele>822.0</ele><time>2026-04-25T14:51:09.943Z</time></trkpt><trkpt lat="44.30639858254706" lon="10.730080645729556"><ele>822.0</ele><time>2026-04-25T14:51:10.943Z</time></trkpt><trkpt lat="44.3063879978929" lon="10.73019817660861"><ele>822.0</ele><time>2026-04-25T14:51:11.943Z</time></trkpt><trkpt lat="44.30640134133779" lon="10.730287444191283"><ele>822.0</ele><time>2026-04-25T14:51:12.943Z</time></trkpt><trkpt lat="44.30644740273515" lon="10.730375443592122"><ele>822.0</ele><time>2026-04-25T14:51:13.943Z</time></trkpt><trkpt lat="44.306515635668056" lon="10.730408627644072"><ele>822.0</ele><time>2026-04-25T14:51:14.943Z</time></trkpt><trkpt lat="44.306574356662715" lon="10.73045546112585"><ele>822.0</ele><time>2026-04-25T14:51:18.943Z</time></trkpt><trkpt lat="44.30663128474594" lon="10.730546599423999"><ele>825.5</ele><time>2026-04-25T14:51:20.943Z</time></trkpt><trkpt lat="44.30669493278029" lon="10.730622888445355"><ele>829.0</ele><time>2026-04-25T14:51:21.943Z</time></trkpt><trkpt lat="44.30677607573269" lon="10.730702789315629"><ele>832.5</ele><time>2026-04-25T14:51:22.943Z</time></trkpt><trkpt lat="44.306819773036224" lon="10.730828096699547"><ele>836.0</ele><time>2026-04-25T14:51:23.943Z</time></trkpt><trkpt lat="44.30685895582921" lon="10.730931026410556"><ele>839.5</ele><time>2026-04-25T14:51:24.943Z</time></trkpt><trkpt lat="44.30691171278325" lon="10.730993229545781"><ele>843.0</ele><time>2026-04-25T14:51:25.943Z</time></trkpt><trkpt lat="44.306978820096546" lon="10.731037271612234"><ele>843.0</ele><time>2026-04-25T14:51:27.943Z</time></trkpt><trkpt lat="44.30701085720994" lon="10.730890634502844"><ele>843.0</ele><time>2026-04-25T14:51:32.943Z</time></trkpt><trkpt lat="44.30699673428662" lon="10.730700467671557"><ele>843.0</ele><time>2026-04-25T14:51:34.943Z</time></trkpt><trkpt lat="44.30701295352433" lon="10.730536783510578"><ele>843.0</ele><time>2026-04-25T14:51:35.943Z</time></trkpt><trkpt lat="44.3070241366868" lon="10.730375196927755"><ele>842.75</ele><time>2026-04-25T14:51:36.943Z</time></trkpt><trkpt lat="44.307020029005805" lon="10.730183841575457"><ele>842.5</ele><time>2026-04-25T14:51:37.944Z</time></trkpt><trkpt lat="44.3070383385156" lon="10.729976091948812"><ele>842.25</ele><time>2026-04-25T14:51:38.943Z</time></trkpt><trkpt lat="44.30705315421181" lon="10.729762167452982"><ele>842.0</ele><time>2026-04-25T14:51:39.943Z</time></trkpt><trkpt lat="44.307058377602395" lon="10.729556362386509"><ele>841.6666666666667</ele><time>2026-04-25T14:51:40.944Z</time></trkpt><trkpt lat="44.30703271801226" lon="10.729365638025678"><ele>841.3333333333333</ele><time>2026-04-25T14:51:41.944Z</time></trkpt><trkpt lat="44.30697030192828" lon="10.729158188625464"><ele>841.0</ele><time>2026-04-25T14:51:42.944Z</time></trkpt><trkpt lat="44.30689779348885" lon="10.728948274898075"><ele>841.0</ele><time>2026-04-25T14:51:43.943Z</time></trkpt><trkpt lat="44.30682002822085" lon="10.72871840444027"><ele>841.0</ele><time>2026-04-25T14:51:44.944Z</time></trkpt><trkpt lat="44.306735860188645" lon="10.728494806764825"><ele>841.0</ele><time>2026-04-25T14:51:45.944Z</time></trkpt><trkpt lat="44.30665819831989" lon="10.728260082837446"><ele>840.75</ele><time>2026-04-25T14:51:46.944Z</time></trkpt><trkpt lat="44.30657723906662" lon="10.728075170816522"><ele>840.5</ele><time>2026-04-25T14:51:47.943Z</time></trkpt><trkpt lat="44.306488240105125" lon="10.727910337336594"><ele>840.25</ele><time>2026-04-25T14:51:48.943Z</time></trkpt><trkpt lat="44.30639626619631" lon="10.727751048853683"><ele>840.0</ele><time>2026-04-25T14:51:49.944Z</time></trkpt><trkpt lat="44.30631234646922" lon="10.727572892084712"><ele>838.6666666666667</ele><time>2026-04-25T14:51:50.943Z</time></trkpt><trkpt lat="44.30623813433715" lon="10.727384029250622"><ele>837.3333333333334</ele><time>2026-04-25T14:51:51.943Z</time></trkpt><trkpt lat="44.30617494459559" lon="10.727177575665534"><ele>836.0</ele><time>2026-04-25T14:51:52.943Z</time></trkpt><trkpt lat="44.3061168599123" lon="10.726960067091328"><ele>836.6666666666667</ele><time>2026-04-25T14:51:53.943Z</time></trkpt><trkpt lat="44.30606854003212" lon="10.726733329760027"><ele>837.3333333333333</ele><time>2026-04-25T14:51:54.943Z</time></trkpt><trkpt lat="44.30604465116346" lon="10.726498366678278"><ele>838.0</ele><time>2026-04-25T14:51:55.943Z</time></trkpt><trkpt lat="44.30606702317805" lon="10.726255293428405"><ele>838.6666666666666</ele><time>2026-04-25T14:51:56.943Z</time></trkpt><trkpt lat="44.30610878224399" lon="10.726006432692952"><ele>839.3333333333333</ele><time>2026-04-25T14:51:57.943Z</time></trkpt><trkpt lat="44.30612745204877" lon="10.725742729406415"><ele>840.0</ele><time>2026-04-25T14:51:58.943Z</time></trkpt><trkpt lat="44.30611750961979" lon="10.725480045246487"><ele>840.0</ele><time>2026-04-25T14:51:59.943Z</time></trkpt><trkpt lat="44.30608373830871" lon="10.725262018655961"><ele>840.0</ele><time>2026-04-25T14:52:00.943Z</time></trkpt><trkpt lat="44.306072833220796" lon="10.725089626087428"><ele>840.0</ele><time>2026-04-25T14:52:01.943Z</time></trkpt><trkpt lat="44.306115606511774" lon="10.724925261578036"><ele>840.0</ele><time>2026-04-25T14:52:02.943Z</time></trkpt><trkpt lat="44.306207443897456" lon="10.724789222909301"><ele>841.0</ele><time>2026-04-25T14:52:03.943Z</time></trkpt><trkpt lat="44.3063262126423" lon="10.72465941867748"><ele>842.0</ele><time>2026-04-25T14:52:04.943Z</time></trkpt><trkpt lat="44.30643470957587" lon="10.724530749698001"><ele>843.0</ele><time>2026-04-25T14:52:05.943Z</time></trkpt><trkpt lat="44.30647702195248" lon="10.724386927971954"><ele>844.0</ele><time>2026-04-25T14:52:06.943Z</time></trkpt><trkpt lat="44.30646766663791" lon="10.724242594401066"><ele>845.25</ele><time>2026-04-25T14:52:07.943Z</time></trkpt><trkpt lat="44.30641180039591" lon="10.724107401069656"><ele>846.5</ele><time>2026-04-25T14:52:08.943Z</time></trkpt><trkpt lat="44.30630653047994" lon="10.723977927925436"><ele>847.75</ele><time>2026-04-25T14:52:09.943Z</time></trkpt><trkpt lat="44.30617710617491" lon="10.723847954770083"><ele>849.0</ele><time>2026-04-25T14:52:10.943Z</time></trkpt><trkpt lat="44.3060336693359" lon="10.72370214130049"><ele>847.3333333333333</ele><time>2026-04-25T14:52:11.943Z</time></trkpt><trkpt lat="44.30589302977653" lon="10.72352925817879"><ele>845.6666666666666</ele><time>2026-04-25T14:52:12.943Z</time></trkpt><trkpt lat="44.30576255357237" lon="10.723350104168514"><ele>844.0</ele><time>2026-04-25T14:52:13.943Z</time></trkpt><trkpt lat="44.30569235998263" lon="10.723136874235824"><ele>844.0</ele><time>2026-04-25T14:52:14.943Z</time></trkpt><trkpt lat="44.30562116417844" lon="10.7229373445386"><ele>844.0</ele><time>2026-04-25T14:52:15.943Z</time></trkpt><trkpt lat="44.30553999438986" lon="10.7227746225552"><ele>844.0</ele><time>2026-04-25T14:52:16.943Z</time></trkpt><trkpt lat="44.30546541061644" lon="10.72266582403281"><ele>844.0</ele><time>2026-04-25T14:52:17.943Z</time></trkpt><trkpt lat="44.305349651631445" lon="10.722632683742525"><ele>843.3333333333333</ele><time>2026-04-25T14:52:18.943Z</time></trkpt><trkpt lat="44.305204886935634" lon="10.72262986633982"><ele>842.6666666666667</ele><time>2026-04-25T14:52:19.943Z</time></trkpt><trkpt lat="44.30503208278231" lon="10.72262686654762"><ele>842.0</ele><time>2026-04-25T14:52:20.943Z</time></trkpt><trkpt lat="44.30485661562549" lon="10.72255839817405"><ele>842.0</ele><time>2026-04-25T14:52:21.943Z</time></trkpt><trkpt lat="44.30467551442665" lon="10.722465978536388"><ele>842.0</ele><time>2026-04-25T14:52:22.943Z</time></trkpt><trkpt lat="44.30449028795245" lon="10.722362512683022"><ele>842.0</ele><time>2026-04-25T14:52:23.943Z</time></trkpt><trkpt lat="44.304313571311766" lon="10.722252431537381"><ele>842.0</ele><time>2026-04-25T14:52:24.943Z</time></trkpt><trkpt lat="44.304166036450475" lon="10.722082060879709"><ele>842.0</ele><time>2026-04-25T14:52:25.943Z</time></trkpt><trkpt lat="44.30404362257679" lon="10.72190376447279"><ele>842.0</ele><time>2026-04-25T14:52:26.943Z</time></trkpt><trkpt lat="44.30392894701606" lon="10.721755876947862"><ele>843.0000000000001</ele><time>2026-04-25T14:52:27.943Z</time></trkpt><trkpt lat="44.303834554018565" lon="10.721625473904657"><ele>844.0</ele><time>2026-04-25T14:52:28.943Z</time></trkpt><trkpt lat="44.303763619210415" lon="10.721532563123594"><ele>845.0</ele><time>2026-04-25T14:52:29.943Z</time></trkpt><trkpt lat="44.30372711338468" lon="10.721456492668148"><ele>846.0</ele><time>2026-04-25T14:52:30.943Z</time></trkpt><trkpt lat="44.30366251597868" lon="10.721481777494521"><ele>847.0000000000001</ele><time>2026-04-25T14:52:31.943Z</time></trkpt><trkpt lat="44.30359045251519" lon="10.721492822785242"><ele>848.0</ele><time>2026-04-25T14:52:33.943Z</time></trkpt><trkpt lat="44.303518131565454" lon="10.721461287411728"><ele>848.0</ele><time>2026-04-25T14:52:34.943Z</time></trkpt><trkpt lat="44.30342039015297" lon="10.721394176198356"><ele>848.0</ele><time>2026-04-25T14:52:35.943Z</time></trkpt><trkpt lat="44.3033117953155" lon="10.721309289940603"><ele>848.0</ele><time>2026-04-25T14:52:36.943Z</time></trkpt><trkpt lat="44.30320683533793" lon="10.721196622422553"><ele>848.0</ele><time>2026-04-25T14:52:37.943Z</time></trkpt><trkpt lat="44.30310144437423" lon="10.721088581083766"><ele>848.4</ele><time>2026-04-25T14:52:38.943Z</time></trkpt><trkpt lat="44.30297601790318" lon="10.721043448677458"><ele>848.8</ele><time>2026-04-25T14:52:39.943Z</time></trkpt><trkpt lat="44.30286110507735" lon="10.721031815771605"><ele>849.2</ele><time>2026-04-25T14:52:40.943Z</time></trkpt><trkpt lat="44.30276702265518" lon="10.721047224615743"><ele>849.6</ele><time>2026-04-25T14:52:41.943Z</time></trkpt><trkpt lat="44.302706707680336" lon="10.721100888760855"><ele>850.0</ele><time>2026-04-25T14:52:42.943Z</time></trkpt><trkpt lat="44.302679649015765" lon="10.721203594622905"><ele>850.0</ele><time>2026-04-25T14:52:43.943Z</time></trkpt><trkpt lat="44.30274525240844" lon="10.721386528513616"><ele>850.0</ele><time>2026-04-25T14:52:45.943Z</time></trkpt><trkpt lat="44.30286782811332" lon="10.721419582124184"><ele>850.0</ele><time>2026-04-25T14:52:46.943Z</time></trkpt><trkpt lat="44.30296250597488" lon="10.721475254747238"><ele>850.0</ele><time>2026-04-25T14:52:47.943Z</time></trkpt><trkpt lat="44.30304576706761" lon="10.721590606561676"><ele>849.3333333333333</ele><time>2026-04-25T14:52:48.943Z</time></trkpt><trkpt lat="44.30312728632647" lon="10.7217830853572"><ele>848.6666666666667</ele><time>2026-04-25T14:52:49.943Z</time></trkpt><trkpt lat="44.30321636304581" lon="10.721984260624764"><ele>848.0</ele><time>2026-04-25T14:52:50.943Z</time></trkpt><trkpt lat="44.30329331949725" lon="10.722215809938374"><ele>844.3333333333334</ele><time>2026-04-25T14:52:51.943Z</time></trkpt><trkpt lat="44.303362347158945" lon="10.722478824098653"><ele>840.6666666666667</ele><time>2026-04-25T14:52:52.943Z</time></trkpt><trkpt lat="44.303428092816674" lon="10.72272528202395"><ele>837.0</ele><time>2026-04-25T14:52:53.943Z</time></trkpt><trkpt lat="44.30349486878128" lon="10.72295749520902"><ele>833.3333333333333</ele><time>2026-04-25T14:52:54.943Z</time></trkpt><trkpt lat="44.30355893222118" lon="10.723176522421966"><ele>829.6666666666666</ele><time>2026-04-25T14:52:55.943Z</time></trkpt><trkpt lat="44.30363084156648" lon="10.723374600584881"><ele>826.0</ele><time>2026-04-25T14:52:56.943Z</time></trkpt><trkpt lat="44.30376207446001" lon="10.72351725867082"><ele>825.5</ele><time>2026-04-25T14:52:57.943Z</time></trkpt><trkpt lat="44.30389843266315" lon="10.723659297154976"><ele>825.0</ele><time>2026-04-25T14:52:58.943Z</time></trkpt><trkpt lat="44.30401512755149" lon="10.72378665889743"><ele>824.5</ele><time>2026-04-25T14:52:59.943Z</time></trkpt><trkpt lat="44.30409578461191" lon="10.7238833344938"><ele>824.0</ele><time>2026-04-25T14:53:00.943Z</time></trkpt><trkpt lat="44.30412839768506" lon="10.7239979894752"><ele>824.0</ele><time>2026-04-25T14:53:01.943Z</time></trkpt><trkpt lat="44.304121712029854" lon="10.724137803177685"><ele>824.0</ele><time>2026-04-25T14:53:02.943Z</time></trkpt><trkpt lat="44.304086528304516" lon="10.724290364672108"><ele>824.0</ele><time>2026-04-25T14:53:03.943Z</time></trkpt><trkpt lat="44.30401014929119" lon="10.72439939701357"><ele>824.0</ele><time>2026-04-25T14:53:04.943Z</time></trkpt><trkpt lat="44.303915077441204" lon="10.724468542423459"><ele>824.0</ele><time>2026-04-25T14:53:05.943Z</time></trkpt><trkpt lat="44.303787480851376" lon="10.724514862271546"><ele>820.25</ele><time>2026-04-25T14:53:06.943Z</time></trkpt><trkpt lat="44.30365159487163" lon="10.724562025555633"><ele>816.5</ele><time>2026-04-25T14:53:07.943Z</time></trkpt><trkpt lat="44.30351782827613" lon="10.724618936792249"><ele>812.75</ele><time>2026-04-25T14:53:08.943Z</time></trkpt><trkpt lat="44.303374757657465" lon="10.724663371741478"><ele>809.0</ele><time>2026-04-25T14:53:09.943Z</time></trkpt><trkpt lat="44.30324732651175" lon="10.724753649988378"><ele>809.0</ele><time>2026-04-25T14:53:10.943Z</time></trkpt><trkpt lat="44.303134075273555" lon="10.724870493202802"><ele>809.0</ele><time>2026-04-25T14:53:11.943Z</time></trkpt><trkpt lat="44.303013472668866" lon="10.72496155117217"><ele>809.0</ele><time>2026-04-25T14:53:12.943Z</time></trkpt><trkpt lat="44.30291683249026" lon="10.725082720340295"><ele>809.0</ele><time>2026-04-25T14:53:13.943Z</time></trkpt><trkpt lat="44.30284315047596" lon="10.72524287910477"><ele>804.6666666666667</ele><time>2026-04-25T14:53:14.942Z</time></trkpt><trkpt lat="44.302795378929574" lon="10.72545321777475"><ele>800.3333333333333</ele><time>2026-04-25T14:53:15.942Z</time></trkpt><trkpt lat="44.30271525386611" lon="10.725699127040004"><ele>796.0</ele><time>2026-04-25T14:53:16.942Z</time></trkpt><trkpt lat="44.302650083942304" lon="10.72597837095585"><ele>794.6666666666666</ele><time>2026-04-25T14:53:17.942Z</time></trkpt><trkpt lat="44.30258940247496" lon="10.726248882207006"><ele>793.3333333333333</ele><time>2026-04-25T14:53:18.942Z</time></trkpt><trkpt lat="44.30255574909968" lon="10.726516363757844"><ele>792.0</ele><time>2026-04-25T14:53:19.942Z</time></trkpt><trkpt lat="44.30255942967075" lon="10.72678246320154"><ele>790.3333333333333</ele><time>2026-04-25T14:53:20.942Z</time></trkpt><trkpt lat="44.302545042978" lon="10.727024375244525"><ele>788.6666666666666</ele><time>2026-04-25T14:53:21.942Z</time></trkpt><trkpt lat="44.302511501474285" lon="10.727250748789556"><ele>787.0</ele><time>2026-04-25T14:53:22.942Z</time></trkpt><trkpt lat="44.302437950021364" lon="10.727443557198102"><ele>787.0</ele><time>2026-04-25T14:53:23.942Z</time></trkpt><trkpt lat="44.30240198556456" lon="10.727622661939"><ele>787.0</ele><time>2026-04-25T14:53:24.942Z</time></trkpt><trkpt lat="44.302389796780844" lon="10.727771324811249"><ele>787.0</ele><time>2026-04-25T14:53:25.942Z</time></trkpt><trkpt lat="44.30237066113348" lon="10.727871730117808"><ele>787.0</ele><time>2026-04-25T14:53:26.942Z</time></trkpt><trkpt lat="44.302335219224204" lon="10.72794916301569"><ele>787.0</ele><time>2026-04-25T14:53:31.942Z</time></trkpt><trkpt lat="44.30231880359731" lon="10.728045636286474"><ele>786.2</ele><time>2026-04-25T14:59:12.943Z</time></trkpt><trkpt lat="44.30229964852971" lon="10.728231108717168"><ele>785.4000000000001</ele><time>2026-04-25T14:59:14.943Z</time></trkpt><trkpt lat="44.30227788583488" lon="10.728352278301779"><ele>784.5999999999999</ele><time>2026-04-25T14:59:15.943Z</time></trkpt><trkpt lat="44.30225484953235" lon="10.728483046592425"><ele>783.8</ele><time>2026-04-25T14:59:16.943Z</time></trkpt><trkpt lat="44.30222954659392" lon="10.728633860923717"><ele>783.0</ele><time>2026-04-25T14:59:17.943Z</time></trkpt><trkpt lat="44.302206056082305" lon="10.728782617957066"><ele>781.25</ele><time>2026-04-25T14:59:18.943Z</time></trkpt><trkpt lat="44.302167513609206" lon="10.728919613579757"><ele>779.5</ele><time>2026-04-25T14:59:19.943Z</time></trkpt><trkpt lat="44.30209279805943" lon="10.729032663766695"><ele>777.75</ele><time>2026-04-25T14:59:20.943Z</time></trkpt><trkpt lat="44.301975363917705" lon="10.729107067192592"><ele>776.0</ele><time>2026-04-25T14:59:21.943Z</time></trkpt><trkpt lat="44.30183712892616" lon="10.729093990994455"><ele>776.0</ele><time>2026-04-25T14:59:22.943Z</time></trkpt><trkpt lat="44.30167518294308" lon="10.72908723562976"><ele>776.0</ele><time>2026-04-25T14:59:23.943Z</time></trkpt><trkpt lat="44.30150875067913" lon="10.729078417741933"><ele>776.0</ele><time>2026-04-25T14:59:24.943Z</time></trkpt><trkpt lat="44.301332735571165" lon="10.72906777920853"><ele>774.0</ele><time>2026-04-25T14:59:25.943Z</time></trkpt><trkpt lat="44.30115824853913" lon="10.729028987796488"><ele>772.0</ele><time>2026-04-25T14:59:26.943Z</time></trkpt><trkpt lat="44.30098002828308" lon="10.728977631932734"><ele>770.0</ele><time>2026-04-25T14:59:27.943Z</time></trkpt><trkpt lat="44.30080472463079" lon="10.728931311527521"><ele>770.0</ele><time>2026-04-25T14:59:28.943Z</time></trkpt><trkpt lat="44.30063678886743" lon="10.72887954437235"><ele>770.0</ele><time>2026-04-25T14:59:29.943Z</time></trkpt><trkpt lat="44.3004741812423" lon="10.728816802506586"><ele>770.0</ele><time>2026-04-25T14:59:30.943Z</time></trkpt><trkpt lat="44.30032052444207" lon="10.728763066996528"><ele>769.25</ele><time>2026-04-25T14:59:31.943Z</time></trkpt><trkpt lat="44.30017505856686" lon="10.728710846533074"><ele>768.5</ele><time>2026-04-25T14:59:32.943Z</time></trkpt><trkpt lat="44.300033472366735" lon="10.728661242518283"><ele>767.75</ele><time>2026-04-25T14:59:33.943Z</time></trkpt><trkpt lat="44.29989746198667" lon="10.728610141431112"><ele>767.0</ele><time>2026-04-25T14:59:34.943Z</time></trkpt><trkpt lat="44.2997661203716" lon="10.728570053083477"><ele>765.6</ele><time>2026-04-25T14:59:35.943Z</time></trkpt><trkpt lat="44.299645960034695" lon="10.728549516502257"><ele>764.2</ele><time>2026-04-25T14:59:36.943Z</time></trkpt><trkpt lat="44.29956389689863" lon="10.728539818843029"><ele>762.8</ele><time>2026-04-25T14:59:37.943Z</time></trkpt><trkpt lat="44.29947806038723" lon="10.72856959016512"><ele>761.4</ele><time>2026-04-25T14:59:39.943Z</time></trkpt><trkpt lat="44.29942288786089" lon="10.72862352932317"><ele>760.0</ele><time>2026-04-25T14:59:50.943Z</time></trkpt><trkpt lat="44.29955877422898" lon="10.7285850074622"><ele>760.0</ele><time>2026-04-25T15:00:01.943Z</time></trkpt><trkpt lat="44.299739711161" lon="10.728589022708366"><ele>760.0</ele><time>2026-04-25T15:00:02.943Z</time></trkpt><trkpt lat="44.29988979073132" lon="10.728628040865173"><ele>760.0</ele><time>2026-04-25T15:00:03.943Z</time></trkpt><trkpt lat="44.30006370090931" lon="10.728690801577558"><ele>762.3333333333334</ele><time>2026-04-25T15:00:04.943Z</time></trkpt><trkpt lat="44.30025330268283" lon="10.728749470546655"><ele>764.6666666666666</ele><time>2026-04-25T15:00:05.943Z</time></trkpt><trkpt lat="44.30045788489924" lon="10.728819414109484"><ele>767.0</ele><time>2026-04-25T15:00:06.943Z</time></trkpt><trkpt lat="44.30067050473003" lon="10.72892898984981"><ele>768.0</ele><time>2026-04-25T15:00:07.943Z</time></trkpt><trkpt lat="44.300877284956194" lon="10.728993873713561"><ele>769.0</ele><time>2026-04-25T15:00:08.943Z</time></trkpt><trkpt lat="44.3010456485318" lon="10.729044952904351"><ele>770.0</ele><time>2026-04-25T15:00:09.943Z</time></trkpt><trkpt lat="44.301195124571734" lon="10.729086176091256"><ele>770.0</ele><time>2026-04-25T15:00:10.943Z</time></trkpt><trkpt lat="44.30135778508891" lon="10.729116037147982"><ele>770.0</ele><time>2026-04-25T15:00:11.943Z</time></trkpt><trkpt lat="44.301534199952926" lon="10.72912616214918"><ele>770.0</ele><time>2026-04-25T15:00:12.943Z</time></trkpt><trkpt lat="44.30172220829471" lon="10.729114108492633"><ele>771.5</ele><time>2026-04-25T15:00:13.943Z</time></trkpt><trkpt lat="44.301895926973046" lon="10.729123567198718"><ele>773.0</ele><time>2026-04-25T15:00:14.943Z</time></trkpt><trkpt lat="44.302033734500256" lon="10.729098633452855"><ele>774.5</ele><time>2026-04-25T15:00:15.943Z</time></trkpt><trkpt lat="44.30213522365004" lon="10.729017149716851"><ele>776.0</ele><time>2026-04-25T15:00:16.943Z</time></trkpt><trkpt lat="44.3022076948089" lon="10.728874314803711"><ele>776.0</ele><time>2026-04-25T15:00:17.942Z</time></trkpt><trkpt lat="44.302246709641935" lon="10.728690258671772"><ele>776.0</ele><time>2026-04-25T15:00:18.942Z</time></trkpt><trkpt lat="44.30227718641719" lon="10.728473552077503"><ele>776.0</ele><time>2026-04-25T15:00:19.942Z</time></trkpt><trkpt lat="44.30232956988153" lon="10.728234153048339"><ele>778.3333333333334</ele><time>2026-04-25T15:00:20.942Z</time></trkpt><trkpt lat="44.30235860382505" lon="10.727977185777435"><ele>780.6666666666667</ele><time>2026-04-25T15:00:21.942Z</time></trkpt><trkpt lat="44.30241584147525" lon="10.72773449390109"><ele>783.0</ele><time>2026-04-25T15:00:22.942Z</time></trkpt><trkpt lat="44.30244945821412" lon="10.727516910446159"><ele>783.8</ele><time>2026-04-25T15:00:23.942Z</time></trkpt><trkpt lat="44.30249460603247" lon="10.727339160321334"><ele>784.5999999999999</ele><time>2026-04-25T15:00:24.942Z</time></trkpt><trkpt lat="44.302545155060066" lon="10.727206895761235"><ele>785.4000000000001</ele><time>2026-04-25T15:00:25.942Z</time></trkpt><trkpt lat="44.30260102564155" lon="10.727114235250868"><ele>786.2</ele><time>2026-04-25T15:00:26.942Z</time></trkpt><trkpt lat="44.302656111519894" lon="10.727018803683226"><ele>787.0</ele><time>2026-04-25T15:00:28.942Z</time></trkpt><trkpt lat="44.302587534783456" lon="10.727008432284016"><ele>787.0</ele><time>2026-04-25T15:00:31.942Z</time></trkpt><trkpt lat="44.302511585767995" lon="10.727142878069424"><ele>787.0</ele><time>2026-04-25T15:00:32.942Z</time></trkpt><trkpt lat="44.30246982775725" lon="10.727329725299015"><ele>787.0</ele><time>2026-04-25T15:00:33.942Z</time></trkpt><trkpt lat="44.30241357746863" lon="10.727573295613222"><ele>787.0</ele><time>2026-04-25T15:00:34.942Z</time></trkpt><trkpt lat="44.302363117668015" lon="10.727859992142925"><ele>785.0</ele><time>2026-04-25T15:00:35.942Z</time></trkpt><trkpt lat="44.30231001869669" lon="10.728175130182585"><ele>783.0</ele><time>2026-04-25T15:00:36.942Z</time></trkpt><trkpt lat="44.302253758080134" lon="10.728479152370753"><ele>781.25</ele><time>2026-04-25T15:00:37.942Z</time></trkpt><trkpt lat="44.30221075922486" lon="10.728725504025768"><ele>779.5</ele><time>2026-04-25T15:00:38.942Z</time></trkpt><trkpt lat="44.30216137270836" lon="10.728911570699978"><ele>777.75</ele><time>2026-04-25T15:00:39.942Z</time></trkpt><trkpt lat="44.30207208911674" lon="10.729032082701378"><ele>776.0</ele><time>2026-04-25T15:00:40.942Z</time></trkpt><trkpt lat="44.30196017807548" lon="10.729102215663733"><ele>776.0</ele><time>2026-04-25T15:00:41.942Z</time></trkpt><trkpt lat="44.30180890987682" lon="10.729097914620462"><ele>776.0</ele><time>2026-04-25T15:00:42.942Z</time></trkpt><trkpt lat="44.3016346871721" lon="10.729066069664386"><ele>776.0</ele><time>2026-04-25T15:00:43.942Z</time></trkpt><trkpt lat="44.30143698609396" lon="10.729045539235857"><ele>774.0</ele><time>2026-04-25T15:00:44.942Z</time></trkpt><trkpt lat="44.301230486232235" lon="10.729010349390155"><ele>772.0</ele><time>2026-04-25T15:00:45.942Z</time></trkpt><trkpt lat="44.30104818426117" lon="10.72893585055636"><ele>770.0</ele><time>2026-04-25T15:00:46.942Z</time></trkpt><trkpt lat="44.30089175232071" lon="10.728874572056483"><ele>770.0</ele><time>2026-04-25T15:00:47.942Z</time></trkpt><trkpt lat="44.30077383531054" lon="10.728826420085067"><ele>770.0</ele><time>2026-04-25T15:00:48.942Z</time></trkpt><trkpt lat="44.30069041222615" lon="10.7288151633103"><ele>770.0</ele><time>2026-04-25T15:00:49.942Z</time></trkpt><trkpt lat="44.300624666009384" lon="10.728862784313453"><ele>770.0</ele><time>2026-04-25T15:00:51.942Z</time></trkpt><trkpt lat="44.300516103771635" lon="10.728810794115402"><ele>770.0</ele><time>2026-04-25T15:01:18.942Z</time></trkpt><trkpt lat="44.300424145959376" lon="10.728792262520109"><ele>769.25</ele><time>2026-04-25T15:01:19.942Z</time></trkpt><trkpt lat="44.30030807385396" lon="10.72876289337732"><ele>768.5</ele><time>2026-04-25T15:01:20.942Z</time></trkpt><trkpt lat="44.30018294723923" lon="10.728720747606104"><ele>767.75</ele><time>2026-04-25T15:01:21.942Z</time></trkpt><trkpt lat="44.30003715023902" lon="10.728676418568169"><ele>767.0</ele><time>2026-04-25T15:01:22.942Z</time></trkpt><trkpt lat="44.29987431640933" lon="10.728625551454359"><ele>764.6666666666666</ele><time>2026-04-25T15:01:23.942Z</time></trkpt><trkpt lat="44.299703500919115" lon="10.728589599961657"><ele>762.3333333333334</ele><time>2026-04-25T15:01:24.942Z</time></trkpt><trkpt lat="44.299522546123065" lon="10.728585515315762"><ele>760.0</ele><time>2026-04-25T15:01:25.942Z</time></trkpt><trkpt lat="44.29936341344524" lon="10.7286517727962"><ele>760.0</ele><time>2026-04-25T15:01:26.942Z</time></trkpt><trkpt lat="44.29920800791431" lon="10.728744858016062"><ele>760.0</ele><time>2026-04-25T15:01:27.942Z</time></trkpt><trkpt lat="44.299071789227575" lon="10.728849418816266"><ele>760.0</ele><time>2026-04-25T15:01:28.942Z</time></trkpt><trkpt lat="44.29894782929245" lon="10.728972068690819"><ele>758.25</ele><time>2026-04-25T15:01:29.942Z</time></trkpt><trkpt lat="44.298834509714474" lon="10.72911819723986"><ele>756.5</ele><time>2026-04-25T15:01:30.942Z</time></trkpt><trkpt lat="44.298716545004424" lon="10.72925921184154"><ele>754.75</ele><time>2026-04-25T15:01:31.942Z</time></trkpt><trkpt lat="44.298623015964864" lon="10.729344626646489"><ele>753.0</ele><time>2026-04-25T15:01:32.942Z</time></trkpt><trkpt lat="44.2985269821303" lon="10.729368421035458"><ele>753.0</ele><time>2026-04-25T15:01:33.942Z</time></trkpt><trkpt lat="44.29842139630284" lon="10.729332217626611"><ele>753.0</ele><time>2026-04-25T15:01:34.942Z</time></trkpt><trkpt lat="44.29832135070814" lon="10.729218984591755"><ele>753.0</ele><time>2026-04-25T15:01:35.942Z</time></trkpt><trkpt lat="44.298218707370225" lon="10.729076011823153"><ele>753.0</ele><time>2026-04-25T15:01:36.942Z</time></trkpt><trkpt lat="44.29809774606127" lon="10.728943885937529"><ele>751.0</ele><time>2026-04-25T15:01:37.942Z</time></trkpt><trkpt lat="44.29796848804219" lon="10.728791669610933"><ele>749.0</ele><time>2026-04-25T15:01:38.942Z</time></trkpt><trkpt lat="44.2978292367683" lon="10.72863233334365"><ele>747.0</ele><time>2026-04-25T15:01:39.942Z</time></trkpt><trkpt lat="44.2976762500653" lon="10.728460231993228"><ele>747.0</ele><time>2026-04-25T15:01:40.942Z</time></trkpt><trkpt lat="44.29751503200024" lon="10.728280036044966"><ele>747.0</ele><time>2026-04-25T15:01:41.942Z</time></trkpt><trkpt lat="44.29735568917807" lon="10.728087751489623"><ele>747.0</ele><time>2026-04-25T15:01:42.942Z</time></trkpt><trkpt lat="44.29718804708474" lon="10.727911291410683"><ele>746.0</ele><time>2026-04-25T15:01:43.942Z</time></trkpt><trkpt lat="44.297025109557794" lon="10.727726715638493"><ele>745.0</ele><time>2026-04-25T15:01:44.942Z</time></trkpt><trkpt lat="44.29687876343445" lon="10.727552837265515"><ele>744.0</ele><time>2026-04-25T15:01:45.942Z</time></trkpt><trkpt lat="44.296750726652064" lon="10.72736721934879"><ele>744.0</ele><time>2026-04-25T15:01:46.942Z</time></trkpt><trkpt lat="44.29664192924088" lon="10.727159201345028"><ele>744.0</ele><time>2026-04-25T15:01:47.942Z</time></trkpt><trkpt lat="44.296515585027635" lon="10.726966148961703"><ele>744.0</ele><time>2026-04-25T15:01:48.942Z</time></trkpt><trkpt lat="44.29636672644237" lon="10.72677435591106"><ele>740.0</ele><time>2026-04-25T15:01:49.942Z</time></trkpt><trkpt lat="44.296205919729715" lon="10.726603497607478"><ele>736.0</ele><time>2026-04-25T15:01:50.942Z</time></trkpt><trkpt lat="44.29606798272208" lon="10.726420542763076"><ele>732.0</ele><time>2026-04-25T15:01:51.942Z</time></trkpt><trkpt lat="44.295944105740716" lon="10.726195019814657"><ele>734.3333333333334</ele><time>2026-04-25T15:01:52.942Z</time></trkpt><trkpt lat="44.29583158873993" lon="10.725942960037601"><ele>736.6666666666667</ele><time>2026-04-25T15:01:53.942Z</time></trkpt><trkpt lat="44.29572221075316" lon="10.725679108547283"><ele>739.0</ele><time>2026-04-25T15:01:54.942Z</time></trkpt><trkpt lat="44.2955980436669" lon="10.725444001110475"><ele>735.0</ele><time>2026-04-25T15:01:55.942Z</time></trkpt><trkpt lat="44.295482052727856" lon="10.72523510922902"><ele>731.0</ele><time>2026-04-25T15:01:56.942Z</time></trkpt><trkpt lat="44.29533007753772" lon="10.725088249155048"><ele>727.0</ele><time>2026-04-25T15:01:57.942Z</time></trkpt><trkpt lat="44.29515425100963" lon="10.724995078922129"><ele>727.0</ele><time>2026-04-25T15:01:58.942Z</time></trkpt><trkpt lat="44.294958981319624" lon="10.724956450262637"><ele>727.0</ele><time>2026-04-25T15:01:59.942Z</time></trkpt><trkpt lat="44.29475214707634" lon="10.724981458720048"><ele>727.0</ele><time>2026-04-25T15:02:00.942Z</time></trkpt><trkpt lat="44.294543778313546" lon="10.725067615322901"><ele>726.0</ele><time>2026-04-25T15:02:01.942Z</time></trkpt><trkpt lat="44.29433820531576" lon="10.72518459506613"><ele>725.0</ele><time>2026-04-25T15:02:02.942Z</time></trkpt><trkpt lat="44.294149146941734" lon="10.725327967797636"><ele>724.0</ele><time>2026-04-25T15:02:03.942Z</time></trkpt><trkpt lat="44.2939907403093" lon="10.725468289040473"><ele>720.0</ele><time>2026-04-25T15:02:04.942Z</time></trkpt><trkpt lat="44.293846303470296" lon="10.725555743106815"><ele>716.0</ele><time>2026-04-25T15:02:05.942Z</time></trkpt><trkpt lat="44.293696879152016" lon="10.725559751473655"><ele>712.0</ele><time>2026-04-25T15:02:06.942Z</time></trkpt><trkpt lat="44.293531086402034" lon="10.72552794697437"><ele>712.0</ele><time>2026-04-25T15:02:07.941Z</time></trkpt><trkpt lat="44.29334758288195" lon="10.725492728855793"><ele>712.0</ele><time>2026-04-25T15:02:08.941Z</time></trkpt><trkpt lat="44.293163842670445" lon="10.725463385573626"><ele>712.0</ele><time>2026-04-25T15:02:09.942Z</time></trkpt><trkpt lat="44.29299833609887" lon="10.725438255623036"><ele>712.25</ele><time>2026-04-25T15:02:10.942Z</time></trkpt><trkpt lat="44.292855900720326" lon="10.72536285116021"><ele>712.5</ele><time>2026-04-25T15:02:11.942Z</time></trkpt><trkpt lat="44.29273831520889" lon="10.72525685939213"><ele>712.75</ele><time>2026-04-25T15:02:12.942Z</time></trkpt><trkpt lat="44.292632867531246" lon="10.72513137372285"><ele>713.0</ele><time>2026-04-25T15:02:13.942Z</time></trkpt><trkpt lat="44.29253569528809" lon="10.724967083263081"><ele>713.0</ele><time>2026-04-25T15:02:14.942Z</time></trkpt><trkpt lat="44.292431969832755" lon="10.724784167485877"><ele>713.0</ele><time>2026-04-25T15:02:15.942Z</time></trkpt><trkpt lat="44.29232020992384" lon="10.724576996355351"><ele>713.0</ele><time>2026-04-25T15:02:16.942Z</time></trkpt><trkpt lat="44.29218703143863" lon="10.724364946839794"><ele>709.0</ele><time>2026-04-25T15:02:17.942Z</time></trkpt><trkpt lat="44.292065783578465" lon="10.724124989681782"><ele>705.0</ele><time>2026-04-25T15:02:18.942Z</time></trkpt><trkpt lat="44.291967582008105" lon="10.723893040547171"><ele>701.0</ele><time>2026-04-25T15:02:19.942Z</time></trkpt><trkpt lat="44.291877490798434" lon="10.723670574496385"><ele>705.0</ele><time>2026-04-25T15:02:20.942Z</time></trkpt><trkpt lat="44.29175736610582" lon="10.723493302043327"><ele>709.0</ele><time>2026-04-25T15:02:21.942Z</time></trkpt><trkpt lat="44.29159948951903" lon="10.723357002899379"><ele>713.0</ele><time>2026-04-25T15:02:22.942Z</time></trkpt><trkpt lat="44.29142784474331" lon="10.723250159409645"><ele>712.6666666666666</ele><time>2026-04-25T15:02:23.942Z</time></trkpt><trkpt lat="44.29128455293366" lon="10.723076694072782"><ele>712.3333333333334</ele><time>2026-04-25T15:02:24.942Z</time></trkpt><trkpt lat="44.29115452567025" lon="10.722845147268835"><ele>712.0</ele><time>2026-04-25T15:02:25.942Z</time></trkpt><trkpt lat="44.291013253378914" lon="10.722643798352964"><ele>712.0</ele><time>2026-04-25T15:02:26.942Z</time></trkpt><trkpt lat="44.29081877702392" lon="10.722484646367867"><ele>712.0</ele><time>2026-04-25T15:02:27.942Z</time></trkpt><trkpt lat="44.29061313724367" lon="10.722320392284534"><ele>708.3333333333334</ele><time>2026-04-25T15:02:28.942Z</time></trkpt><trkpt lat="44.290414459609885" lon="10.722163040965478"><ele>704.6666666666666</ele><time>2026-04-25T15:02:29.942Z</time></trkpt><trkpt lat="44.29022298335985" lon="10.722048263651802"><ele>701.0</ele><time>2026-04-25T15:02:30.942Z</time></trkpt><trkpt lat="44.29003836664705" lon="10.72196776464939"><ele>703.6666666666666</ele><time>2026-04-25T15:02:31.942Z</time></trkpt><trkpt lat="44.28986949452044" lon="10.721887157956308"><ele>706.3333333333334</ele><time>2026-04-25T15:02:32.942Z</time></trkpt><trkpt lat="44.28971949992812" lon="10.721779429674637"><ele>709.0</ele><time>2026-04-25T15:02:33.942Z</time></trkpt><trkpt lat="44.28959131723468" lon="10.721606586613067"><ele>709.0</ele><time>2026-04-25T15:02:34.942Z</time></trkpt><trkpt lat="44.289479788196736" lon="10.721439388485372"><ele>709.0</ele><time>2026-04-25T15:02:35.942Z</time></trkpt><trkpt lat="44.289379220820365" lon="10.721334288935221"><ele>709.0</ele><time>2026-04-25T15:02:36.942Z</time></trkpt><trkpt lat="44.28926979255361" lon="10.721294525757468"><ele>709.0</ele><time>2026-04-25T15:02:37.942Z</time></trkpt><trkpt lat="44.28914147061648" lon="10.721320353414418"><ele>709.0</ele><time>2026-04-25T15:02:38.942Z</time></trkpt><trkpt lat="44.28901762775403" lon="10.721417042301093"><ele>709.0</ele><time>2026-04-25T15:02:39.942Z</time></trkpt><trkpt lat="44.28891622805869" lon="10.721601823106885"><ele>709.0</ele><time>2026-04-25T15:02:40.942Z</time></trkpt><trkpt lat="44.288847724196636" lon="10.721847328678889"><ele>710.3333333333334</ele><time>2026-04-25T15:02:41.942Z</time></trkpt><trkpt lat="44.28875508060739" lon="10.722126107932137"><ele>711.6666666666666</ele><time>2026-04-25T15:02:42.942Z</time></trkpt><trkpt lat="44.28865188275964" lon="10.72236502532335"><ele>713.0</ele><time>2026-04-25T15:02:43.942Z</time></trkpt><trkpt lat="44.28855761027465" lon="10.722540536170683"><ele>713.0</ele><time>2026-04-25T15:02:44.942Z</time></trkpt><trkpt lat="44.288451502262085" lon="10.722639273047596"><ele>713.0</ele><time>2026-04-25T15:02:45.942Z</time></trkpt><trkpt lat="44.28829793828198" lon="10.722711962542663"><ele>713.0</ele><time>2026-04-25T15:02:46.942Z</time></trkpt><trkpt lat="44.2881190709174" lon="10.722788312885635"><ele>704.6666666666666</ele><time>2026-04-25T15:02:47.942Z</time></trkpt><trkpt lat="44.28791100633792" lon="10.72287996610757"><ele>696.3333333333334</ele><time>2026-04-25T15:02:48.942Z</time></trkpt><trkpt lat="44.28772107171635" lon="10.722978740726118"><ele>688.0</ele><time>2026-04-25T15:02:49.942Z</time></trkpt><trkpt lat="44.28757897691781" lon="10.723054009698387"><ele>688.0</ele><time>2026-04-25T15:02:50.942Z</time></trkpt><trkpt lat="44.28743526058244" lon="10.723081881918862"><ele>688.0</ele><time>2026-04-25T15:02:51.942Z</time></trkpt><trkpt lat="44.28727987079062" lon="10.723050658913102"><ele>688.0</ele><time>2026-04-25T15:02:52.942Z</time></trkpt><trkpt lat="44.287119708939606" lon="10.72296212163867"><ele>685.3333333333334</ele><time>2026-04-25T15:02:53.942Z</time></trkpt><trkpt lat="44.28694044028536" lon="10.722916783392543"><ele>682.6666666666666</ele><time>2026-04-25T15:02:54.942Z</time></trkpt><trkpt lat="44.286741225943224" lon="10.722913295031539"><ele>680.0</ele><time>2026-04-25T15:02:55.942Z</time></trkpt><trkpt lat="44.28653687108222" lon="10.722904732982188"><ele>678.3333333333333</ele><time>2026-04-25T15:02:56.942Z</time></trkpt><trkpt lat="44.28633364654554" lon="10.722856431645363"><ele>676.6666666666666</ele><time>2026-04-25T15:02:57.942Z</time></trkpt><trkpt lat="44.28613783099151" lon="10.722810617259569"><ele>675.0</ele><time>2026-04-25T15:02:58.942Z</time></trkpt><trkpt lat="44.28595082599712" lon="10.72282792664542"><ele>675.0</ele><time>2026-04-25T15:02:59.942Z</time></trkpt><trkpt lat="44.28577441351212" lon="10.722885627756888"><ele>675.0</ele><time>2026-04-25T15:03:00.942Z</time></trkpt><trkpt lat="44.28562735505005" lon="10.722940169991803"><ele>675.0</ele><time>2026-04-25T15:03:01.942Z</time></trkpt><trkpt lat="44.285494959014244" lon="10.722930771640714"><ele>673.6666666666666</ele><time>2026-04-25T15:03:02.942Z</time></trkpt><trkpt lat="44.28537028678523" lon="10.72284402531129"><ele>672.3333333333333</ele><time>2026-04-25T15:03:03.942Z</time></trkpt><trkpt lat="44.28526186846599" lon="10.72268198354055"><ele>671.0</ele><time>2026-04-25T15:03:04.942Z</time></trkpt><trkpt lat="44.28519285334074" lon="10.722475290157261"><ele>671.0</ele><time>2026-04-25T15:03:05.942Z</time></trkpt><trkpt lat="44.28515643529541" lon="10.72226183306041"><ele>671.0</ele><time>2026-04-25T15:03:06.942Z</time></trkpt><trkpt lat="44.2850722871623" lon="10.72212288614843"><ele>671.0</ele><time>2026-04-25T15:03:07.942Z</time></trkpt><trkpt lat="44.28494556584032" lon="10.722056152636535"><ele>671.0</ele><time>2026-04-25T15:03:08.942Z</time></trkpt><trkpt lat="44.28478766208349" lon="10.722073176071165"><ele>667.75</ele><time>2026-04-25T15:03:09.942Z</time></trkpt><trkpt lat="44.28463821477217" lon="10.722121291766618"><ele>664.5</ele><time>2026-04-25T15:03:10.942Z</time></trkpt><trkpt lat="44.28449935955114" lon="10.722089808422028"><ele>661.25</ele><time>2026-04-25T15:03:11.942Z</time></trkpt><trkpt lat="44.28437614580377" lon="10.721979297732656"><ele>658.0</ele><time>2026-04-25T15:03:12.942Z</time></trkpt><trkpt lat="44.284303698355856" lon="10.721804840563598"><ele>658.0</ele><time>2026-04-25T15:03:13.942Z</time></trkpt><trkpt lat="44.28429178421811" lon="10.721600972208222"><ele>658.0</ele><time>2026-04-25T15:03:14.942Z</time></trkpt><trkpt lat="44.28428771376568" lon="10.721337092004642"><ele>658.0</ele><time>2026-04-25T15:03:15.942Z</time></trkpt><trkpt lat="44.284226664849434" lon="10.721154762487407"><ele>661.0</ele><time>2026-04-25T15:03:16.942Z</time></trkpt><trkpt lat="44.284115021776195" lon="10.721015039935539"><ele>664.0</ele><time>2026-04-25T15:03:17.942Z</time></trkpt><trkpt lat="44.28394201462885" lon="10.72092915657984"><ele>667.0</ele><time>2026-04-25T15:03:18.942Z</time></trkpt><trkpt lat="44.28376191396681" lon="10.720799526955684"><ele>660.0</ele><time>2026-04-25T15:03:19.942Z</time></trkpt><trkpt lat="44.283601223563785" lon="10.720604603818531"><ele>653.0</ele><time>2026-04-25T15:03:20.942Z</time></trkpt><trkpt lat="44.28347160545057" lon="10.720448670770757"><ele>646.0</ele><time>2026-04-25T15:03:21.942Z</time></trkpt><trkpt lat="44.28332350309411" lon="10.720374134802556"><ele>646.0</ele><time>2026-04-25T15:03:22.942Z</time></trkpt><trkpt lat="44.28314310078753" lon="10.720400437074119"><ele>646.0</ele><time>2026-04-25T15:03:23.942Z</time></trkpt><trkpt lat="44.28294969206374" lon="10.72044045308241"><ele>646.0</ele><time>2026-04-25T15:03:24.942Z</time></trkpt><trkpt lat="44.282757781356565" lon="10.720432974477182"><ele>643.6666666666667</ele><time>2026-04-25T15:03:25.942Z</time></trkpt><trkpt lat="44.28259486011829" lon="10.720395795802652"><ele>641.3333333333334</ele><time>2026-04-25T15:03:26.942Z</time></trkpt><trkpt lat="44.282456163839974" lon="10.720328382272479"><ele>639.0</ele><time>2026-04-25T15:03:27.942Z</time></trkpt><trkpt lat="44.28232989227963" lon="10.720184179296266"><ele>639.3333333333334</ele><time>2026-04-25T15:03:28.942Z</time></trkpt><trkpt lat="44.282204341378836" lon="10.71997883053655"><ele>639.6666666666667</ele><time>2026-04-25T15:03:29.942Z</time></trkpt><trkpt lat="44.28208078737462" lon="10.719805394101918"><ele>640.0</ele><time>2026-04-25T15:03:30.942Z</time></trkpt><trkpt lat="44.281918351744885" lon="10.719705811236425"><ele>640.0</ele><time>2026-04-25T15:03:31.942Z</time></trkpt><trkpt lat="44.28172526056915" lon="10.719626060991368"><ele>640.0</ele><time>2026-04-25T15:03:32.942Z</time></trkpt><trkpt lat="44.28152651364652" lon="10.71949935239363"><ele>640.0</ele><time>2026-04-25T15:03:33.941Z</time></trkpt><trkpt lat="44.28133971107" lon="10.719347212642637"><ele>640.6666666666667</ele><time>2026-04-25T15:03:34.941Z</time></trkpt><trkpt lat="44.28116224389024" lon="10.719217560031089"><ele>641.3333333333334</ele><time>2026-04-25T15:03:35.941Z</time></trkpt><trkpt lat="44.28097504662489" lon="10.719161117168582"><ele>642.0</ele><time>2026-04-25T15:03:36.941Z</time></trkpt><trkpt lat="44.2807791492284" lon="10.719164020130783"><ele>637.0</ele><time>2026-04-25T15:03:37.941Z</time></trkpt><trkpt lat="44.28059033075664" lon="10.719168366529319"><ele>632.0</ele><time>2026-04-25T15:03:38.941Z</time></trkpt><trkpt lat="44.280413401362466" lon="10.719078160000294"><ele>627.0</ele><time>2026-04-25T15:03:39.941Z</time></trkpt><trkpt lat="44.28023036486076" lon="10.718926859593646"><ele>627.0</ele><time>2026-04-25T15:03:40.941Z</time></trkpt><trkpt lat="44.280019316362974" lon="10.718781861328482"><ele>627.0</ele><time>2026-04-25T15:03:41.941Z</time></trkpt><trkpt lat="44.2797881592621" lon="10.718649829665127"><ele>627.0</ele><time>2026-04-25T15:03:42.941Z</time></trkpt><trkpt lat="44.27955199804919" lon="10.718507463360451"><ele>627.0</ele><time>2026-04-25T15:03:43.941Z</time></trkpt><trkpt lat="44.279312575651836" lon="10.718367552593483"><ele>627.0</ele><time>2026-04-25T15:03:44.941Z</time></trkpt><trkpt lat="44.27909177794471" lon="10.718238134250202"><ele>627.0</ele><time>2026-04-25T15:03:45.941Z</time></trkpt><trkpt lat="44.27891419254" lon="10.718124398705077"><ele>627.0</ele><time>2026-04-25T15:03:46.941Z</time></trkpt><trkpt lat="44.27874065544168" lon="10.718053864666482"><ele>625.3333333333334</ele><time>2026-04-25T15:03:47.941Z</time></trkpt><trkpt lat="44.278561124180776" lon="10.718070182189146"><ele>623.6666666666667</ele><time>2026-04-25T15:03:48.941Z</time></trkpt><trkpt lat="44.27836119845755" lon="10.718150806710558"><ele>622.0</ele><time>2026-04-25T15:03:49.941Z</time></trkpt><trkpt lat="44.27815486159252" lon="10.718282121133816"><ele>620.0</ele><time>2026-04-25T15:03:50.941Z</time></trkpt><trkpt lat="44.27796486009155" lon="10.718408646469735"><ele>618.0</ele><time>2026-04-25T15:03:51.941Z</time></trkpt><trkpt lat="44.27780787743369" lon="10.71851501000005"><ele>616.0</ele><time>2026-04-25T15:03:52.941Z</time></trkpt><trkpt lat="44.27767581617361" lon="10.718555501610236"><ele>616.0</ele><time>2026-04-25T15:03:53.941Z</time></trkpt><trkpt lat="44.277547299341045" lon="10.71850717162489"><ele>616.0</ele><time>2026-04-25T15:03:54.941Z</time></trkpt><trkpt lat="44.27742797271636" lon="10.71837579003051"><ele>616.0</ele><time>2026-04-25T15:03:55.941Z</time></trkpt><trkpt lat="44.277313593428254" lon="10.718145119102315"><ele>613.6666666666667</ele><time>2026-04-25T15:03:56.941Z</time></trkpt><trkpt lat="44.27720130094772" lon="10.717895243310753"><ele>611.3333333333334</ele><time>2026-04-25T15:03:57.941Z</time></trkpt><trkpt lat="44.2771230938483" lon="10.717614041342692"><ele>609.0</ele><time>2026-04-25T15:03:58.941Z</time></trkpt><trkpt lat="44.277059636126424" lon="10.71738643965667"><ele>609.0</ele><time>2026-04-25T15:03:59.941Z</time></trkpt><trkpt lat="44.276987270727815" lon="10.717205178160354"><ele>609.0</ele><time>2026-04-25T15:04:00.941Z</time></trkpt><trkpt lat="44.27688593327317" lon="10.717077878175898"><ele>609.0</ele><time>2026-04-25T15:04:01.941Z</time></trkpt><trkpt lat="44.27673793634264" lon="10.717041779556174"><ele>609.0</ele><time>2026-04-25T15:04:02.941Z</time></trkpt><trkpt lat="44.27656168703439" lon="10.717070917539921"><ele>607.6666666666666</ele><time>2026-04-25T15:04:03.941Z</time></trkpt><trkpt lat="44.276374096524215" lon="10.717174451216867"><ele>606.3333333333333</ele><time>2026-04-25T15:04:04.941Z</time></trkpt><trkpt lat="44.276169154874985" lon="10.717279847582518"><ele>605.0</ele><time>2026-04-25T15:04:05.941Z</time></trkpt><trkpt lat="44.27596713015891" lon="10.717397545108875"><ele>605.0</ele><time>2026-04-25T15:04:06.941Z</time></trkpt><trkpt lat="44.2757501160374" lon="10.717515476728117"><ele>605.0</ele><time>2026-04-25T15:04:07.941Z</time></trkpt><trkpt lat="44.275550555490874" lon="10.717643329109938"><ele>603.0</ele><time>2026-04-25T15:04:08.941Z</time></trkpt><trkpt lat="44.275363693086426" lon="10.71780424606056"><ele>601.0</ele><time>2026-04-25T15:04:09.941Z</time></trkpt><trkpt lat="44.27519898514391" lon="10.718003723690147"><ele>599.0</ele><time>2026-04-25T15:04:10.941Z</time></trkpt><trkpt lat="44.275053916470384" lon="10.718191597732812"><ele>599.0</ele><time>2026-04-25T15:04:11.941Z</time></trkpt><trkpt lat="44.27493464722807" lon="10.718319658282137"><ele>599.0</ele><time>2026-04-25T15:04:12.941Z</time></trkpt><trkpt lat="44.27480406319786" lon="10.718382240023713"><ele>599.0</ele><time>2026-04-25T15:04:13.941Z</time></trkpt><trkpt lat="44.27464962477241" lon="10.718395689027078"><ele>599.0</ele><time>2026-04-25T15:04:14.941Z</time></trkpt><trkpt lat="44.27447922985739" lon="10.718372579477299"><ele>599.6666666666666</ele><time>2026-04-25T15:04:15.941Z</time></trkpt><trkpt lat="44.274294740266086" lon="10.718283483033163"><ele>600.3333333333334</ele><time>2026-04-25T15:04:16.941Z</time></trkpt><trkpt lat="44.2741029342367" lon="10.718206803114084"><ele>601.0</ele><time>2026-04-25T15:04:17.941Z</time></trkpt><trkpt lat="44.27392290138177" lon="10.718159220312344"><ele>599.6666666666667</ele><time>2026-04-25T15:04:18.941Z</time></trkpt><trkpt lat="44.27375149201774" lon="10.718129254299487"><ele>598.3333333333334</ele><time>2026-04-25T15:04:19.941Z</time></trkpt><trkpt lat="44.273570238918346" lon="10.718128694172258"><ele>597.0</ele><time>2026-04-25T15:04:20.941Z</time></trkpt><trkpt lat="44.27337775735843" lon="10.718151327083453"><ele>597.0</ele><time>2026-04-25T15:04:21.941Z</time></trkpt><trkpt lat="44.27317895045483" lon="10.718169054930913"><ele>597.0</ele><time>2026-04-25T15:04:22.941Z</time></trkpt><trkpt lat="44.27297438132661" lon="10.718123763588427"><ele>597.0</ele><time>2026-04-25T15:04:23.941Z</time></trkpt><trkpt lat="44.27277224746486" lon="10.718054682776257"><ele>596.0</ele><time>2026-04-25T15:04:24.941Z</time></trkpt><trkpt lat="44.27259230886019" lon="10.71799291005379"><ele>595.0</ele><time>2026-04-25T15:04:25.941Z</time></trkpt><trkpt lat="44.272435847266856" lon="10.717909043078523"><ele>594.0</ele><time>2026-04-25T15:04:26.941Z</time></trkpt><trkpt lat="44.272321260265244" lon="10.717749175054058"><ele>592.6666666666666</ele><time>2026-04-25T15:04:27.941Z</time></trkpt><trkpt lat="44.2722271862756" lon="10.717525350899008"><ele>591.3333333333333</ele><time>2026-04-25T15:04:28.941Z</time></trkpt><trkpt lat="44.27212998881121" lon="10.717279135668994"><ele>590.0</ele><time>2026-04-25T15:04:29.941Z</time></trkpt><trkpt lat="44.27201175866284" lon="10.717079431480519"><ele>590.0</ele><time>2026-04-25T15:04:30.941Z</time></trkpt><trkpt lat="44.27186119206579" lon="10.71695280297819"><ele>590.0</ele><time>2026-04-25T15:04:31.941Z</time></trkpt><trkpt lat="44.27171159949713" lon="10.716886591546508"><ele>590.0</ele><time>2026-04-25T15:04:32.941Z</time></trkpt><trkpt lat="44.271568619323226" lon="10.716836819681337"><ele>590.8</ele><time>2026-04-25T15:04:33.941Z</time></trkpt><trkpt lat="44.27144040039975" lon="10.716793761005153"><ele>591.6</ele><time>2026-04-25T15:04:34.941Z</time></trkpt><trkpt lat="44.271326672885394" lon="10.71676038400761"><ele>592.4</ele><time>2026-04-25T15:04:35.941Z</time></trkpt><trkpt lat="44.27122516315837" lon="10.716727070647206"><ele>593.2</ele><time>2026-04-25T15:04:36.941Z</time></trkpt><trkpt lat="44.27114826062041" lon="10.716698356970387"><ele>594.0</ele><time>2026-04-25T15:04:37.941Z</time></trkpt><trkpt lat="44.271042545358654" lon="10.716647099322481"><ele>594.0</ele><time>2026-04-25T15:04:39.941Z</time></trkpt><trkpt lat="44.27094945748157" lon="10.716610051101233"><ele>594.0</ele><time>2026-04-25T15:05:26.94Z</time></trkpt><trkpt lat="44.270882488247025" lon="10.716583834131264"><ele>594.0</ele><time>2026-04-25T15:05:27.94Z</time></trkpt><trkpt lat="44.27079372228071" lon="10.716524931144734"><ele>594.0</ele><time>2026-04-25T15:05:28.94Z</time></trkpt><trkpt lat="44.27069207567658" lon="10.716418514292211"><ele>594.0</ele><time>2026-04-25T15:05:29.94Z</time></trkpt><trkpt lat="44.27058054079638" lon="10.716302034530742"><ele>594.0</ele><time>2026-04-25T15:05:30.94Z</time></trkpt><trkpt lat="44.27046687785717" lon="10.716175141711235"><ele>594.0</ele><time>2026-04-25T15:05:31.94Z</time></trkpt><trkpt lat="44.27032022074896" lon="10.716052835579701"><ele>594.0</ele><time>2026-04-25T15:05:32.94Z</time></trkpt><trkpt lat="44.270151457871926" lon="10.71596822594142"><ele>594.0</ele><time>2026-04-25T15:05:33.94Z</time></trkpt><trkpt lat="44.26997750488406" lon="10.71593104733511"><ele>594.0</ele><time>2026-04-25T15:05:34.94Z</time></trkpt><trkpt lat="44.269786801048" lon="10.715929315919883"><ele>594.0</ele><time>2026-04-25T15:05:35.94Z</time></trkpt><trkpt lat="44.26958518652236" lon="10.715939886948235"><ele>593.3333333333334</ele><time>2026-04-25T15:05:36.94Z</time></trkpt><trkpt lat="44.269392753996016" lon="10.71593252439339"><ele>592.6666666666667</ele><time>2026-04-25T15:05:37.94Z</time></trkpt><trkpt lat="44.26919186439827" lon="10.71591849338137"><ele>592.0</ele><time>2026-04-25T15:05:38.94Z</time></trkpt><trkpt lat="44.26899041181303" lon="10.715938116909475"><ele>592.6666666666667</ele><time>2026-04-25T15:05:39.94Z</time></trkpt><trkpt lat="44.26879501448944" lon="10.71602076737373"><ele>593.3333333333334</ele><time>2026-04-25T15:05:40.94Z</time></trkpt><trkpt lat="44.268613076519905" lon="10.716123022345215"><ele>594.0</ele><time>2026-04-25T15:05:41.94Z</time></trkpt><trkpt lat="44.26843847054649" lon="10.71619209189634"><ele>592.0</ele><time>2026-04-25T15:05:42.94Z</time></trkpt><trkpt lat="44.26827126337504" lon="10.7161975495464"><ele>590.0</ele><time>2026-04-25T15:05:43.94Z</time></trkpt><trkpt lat="44.268100669068055" lon="10.71614121656007"><ele>588.0</ele><time>2026-04-25T15:05:44.94Z</time></trkpt><trkpt lat="44.267912764406326" lon="10.716042269318125"><ele>588.0</ele><time>2026-04-25T15:05:45.94Z</time></trkpt><trkpt lat="44.2677122991211" lon="10.71591425924604"><ele>588.0</ele><time>2026-04-25T15:05:46.94Z</time></trkpt><trkpt lat="44.26750257653477" lon="10.71579150713155"><ele>588.0</ele><time>2026-04-25T15:05:47.94Z</time></trkpt><trkpt lat="44.267282872414185" lon="10.715673134388672"><ele>585.6666666666666</ele><time>2026-04-25T15:05:48.94Z</time></trkpt><trkpt lat="44.267074011845686" lon="10.715549460584155"><ele>583.3333333333333</ele><time>2026-04-25T15:05:49.94Z</time></trkpt><trkpt lat="44.2668823740477" lon="10.715436538184917"><ele>581.0</ele><time>2026-04-25T15:05:50.94Z</time></trkpt><trkpt lat="44.26670228358472" lon="10.715311049812874"><ele>579.3333333333333</ele><time>2026-04-25T15:05:51.94Z</time></trkpt><trkpt lat="44.266543673638715" lon="10.715130724846535"><ele>577.6666666666666</ele><time>2026-04-25T15:05:52.94Z</time></trkpt><trkpt lat="44.26641806243629" lon="10.714902215826042"><ele>576.0</ele><time>2026-04-25T15:05:53.94Z</time></trkpt><trkpt lat="44.266313129181675" lon="10.714650468849051"><ele>577.6666666666666</ele><time>2026-04-25T15:05:54.94Z</time></trkpt><trkpt lat="44.26623381610101" lon="10.714362064434408"><ele>579.3333333333333</ele><time>2026-04-25T15:05:55.94Z</time></trkpt><trkpt lat="44.2661705895516" lon="10.714094305696158"><ele>581.0</ele><time>2026-04-25T15:05:56.94Z</time></trkpt><trkpt lat="44.266096495048394" lon="10.713885111055527"><ele>581.0</ele><time>2026-04-25T15:05:57.94Z</time></trkpt><trkpt lat="44.26596995212444" lon="10.713736490047182"><ele>581.0</ele><time>2026-04-25T15:05:58.94Z</time></trkpt><trkpt lat="44.26578837819537" lon="10.713635780511128"><ele>581.0</ele><time>2026-04-25T15:05:59.94Z</time></trkpt><trkpt lat="44.26557250212912" lon="10.713556692648446"><ele>580.5</ele><time>2026-04-25T15:06:00.94Z</time></trkpt><trkpt lat="44.26533746360584" lon="10.713495918879126"><ele>580.0</ele><time>2026-04-25T15:06:01.94Z</time></trkpt><trkpt lat="44.2651104538469" lon="10.713437005727974"><ele>580.0</ele><time>2026-04-25T15:06:02.94Z</time></trkpt><trkpt lat="44.26492408982948" lon="10.713377580020849"><ele>580.0</ele><time>2026-04-25T15:06:03.94Z</time></trkpt><trkpt lat="44.264768850149416" lon="10.713281794255105"><ele>580.0</ele><time>2026-04-25T15:06:04.94Z</time></trkpt><trkpt lat="44.26462144353075" lon="10.7131015912357"><ele>572.0</ele><time>2026-04-25T15:06:05.94Z</time></trkpt><trkpt lat="44.26444367742836" lon="10.712930776620466"><ele>564.0</ele><time>2026-04-25T15:06:06.94Z</time></trkpt><trkpt lat="44.264223134980746" lon="10.712822048828254"><ele>565.0</ele><time>2026-04-25T15:06:07.94Z</time></trkpt><trkpt lat="44.26398478692526" lon="10.712732570567454"><ele>566.0</ele><time>2026-04-25T15:06:08.94Z</time></trkpt><trkpt lat="44.2637653011094" lon="10.712619413483491"><ele>566.0</ele><time>2026-04-25T15:06:09.94Z</time></trkpt><trkpt lat="44.263569918773605" lon="10.71248055990645"><ele>566.0</ele><time>2026-04-25T15:06:10.94Z</time></trkpt><trkpt lat="44.26338218600758" lon="10.712349316424454"><ele>566.0</ele><time>2026-04-25T15:06:11.94Z</time></trkpt><trkpt lat="44.26318635620522" lon="10.71227675507039"><ele>563.0</ele><time>2026-04-25T15:06:12.94Z</time></trkpt><trkpt lat="44.262966958353964" lon="10.712267362362681"><ele>560.0</ele><time>2026-04-25T15:06:13.94Z</time></trkpt><trkpt lat="44.26272809051444" lon="10.71228974844193"><ele>560.0</ele><time>2026-04-25T15:06:14.94Z</time></trkpt><trkpt lat="44.262498193053" lon="10.712296556826189"><ele>560.0</ele><time>2026-04-25T15:06:15.94Z</time></trkpt><trkpt lat="44.26228837095599" lon="10.712301073874952"><ele>560.0</ele><time>2026-04-25T15:06:16.94Z</time></trkpt><trkpt lat="44.26210470948535" lon="10.712241615056342"><ele>558.0</ele><time>2026-04-25T15:06:17.94Z</time></trkpt><trkpt lat="44.26193159531969" lon="10.71210981312712"><ele>556.0</ele><time>2026-04-25T15:06:18.941Z</time></trkpt><trkpt lat="44.261766990521984" lon="10.711979700941676"><ele>554.0</ele><time>2026-04-25T15:06:19.941Z</time></trkpt><trkpt lat="44.26157667234309" lon="10.711913997178991"><ele>555.3333333333333</ele><time>2026-04-25T15:06:20.941Z</time></trkpt><trkpt lat="44.26135943942268" lon="10.71190223011745"><ele>556.6666666666666</ele><time>2026-04-25T15:06:21.94Z</time></trkpt><trkpt lat="44.261128742937366" lon="10.711930024060491"><ele>558.0</ele><time>2026-04-25T15:06:22.94Z</time></trkpt><trkpt lat="44.26088585215604" lon="10.711935757256219"><ele>553.5</ele><time>2026-04-25T15:06:23.94Z</time></trkpt><trkpt lat="44.26064446404215" lon="10.711923697448501"><ele>549.0</ele><time>2026-04-25T15:06:24.941Z</time></trkpt><trkpt lat="44.26039793053499" lon="10.711917329464137"><ele>548.5</ele><time>2026-04-25T15:06:25.941Z</time></trkpt><trkpt lat="44.260161848615546" lon="10.711870846498053"><ele>548.0</ele><time>2026-04-25T15:06:26.941Z</time></trkpt><trkpt lat="44.25995012583473" lon="10.711792324941127"><ele>544.6666666666666</ele><time>2026-04-25T15:06:27.941Z</time></trkpt><trkpt lat="44.259774257260496" lon="10.711688536470529"><ele>541.3333333333334</ele><time>2026-04-25T15:06:28.94Z</time></trkpt><trkpt lat="44.25961403865676" lon="10.71161944843465"><ele>538.0</ele><time>2026-04-25T15:06:29.94Z</time></trkpt><trkpt lat="44.259450485926195" lon="10.71162821782865"><ele>538.0</ele><time>2026-04-25T15:06:30.94Z</time></trkpt><trkpt lat="44.259305638885465" lon="10.71169225764712"><ele>538.0</ele><time>2026-04-25T15:06:31.94Z</time></trkpt><trkpt lat="44.25917750781301" lon="10.711827356817231"><ele>538.0</ele><time>2026-04-25T15:06:32.94Z</time></trkpt><trkpt lat="44.2590628995256" lon="10.712017181703855"><ele>546.0</ele><time>2026-04-25T15:06:33.94Z</time></trkpt><trkpt lat="44.25894481520252" lon="10.712221527453487"><ele>554.0</ele><time>2026-04-25T15:06:34.94Z</time></trkpt><trkpt lat="44.258805915206665" lon="10.712352177672322"><ele>562.0</ele><time>2026-04-25T15:06:35.94Z</time></trkpt><trkpt lat="44.25865616102715" lon="10.71240453708284"><ele>562.0</ele><time>2026-04-25T15:06:36.94Z</time></trkpt><trkpt lat="44.25850459060849" lon="10.712373427404366"><ele>562.0</ele><time>2026-04-25T15:06:37.94Z</time></trkpt><trkpt lat="44.258371091913425" lon="10.712279272063148"><ele>562.0</ele><time>2026-04-25T15:06:38.94Z</time></trkpt><trkpt lat="44.25825609850132" lon="10.712089894986816"><ele>567.0</ele><time>2026-04-25T15:06:39.94Z</time></trkpt><trkpt lat="44.258157179774905" lon="10.711845788682899"><ele>572.0</ele><time>2026-04-25T15:06:40.94Z</time></trkpt><trkpt lat="44.25804479872756" lon="10.711595677098874"><ele>577.0</ele><time>2026-04-25T15:06:41.94Z</time></trkpt><trkpt lat="44.25792185885297" lon="10.711342810341682"><ele>577.0</ele><time>2026-04-25T15:06:42.94Z</time></trkpt><trkpt lat="44.25779289275818" lon="10.711081318570926"><ele>577.0</ele><time>2026-04-25T15:06:43.94Z</time></trkpt><trkpt lat="44.257660671315776" lon="10.710810870109231"><ele>571.5</ele><time>2026-04-25T15:06:44.94Z</time></trkpt><trkpt lat="44.257534136398675" lon="10.71053329917211"><ele>566.0</ele><time>2026-04-25T15:06:45.94Z</time></trkpt><trkpt lat="44.25740192713364" lon="10.710261753330306"><ele>576.0</ele><time>2026-04-25T15:06:46.94Z</time></trkpt><trkpt lat="44.25726969229413" lon="10.709982105586771"><ele>586.0</ele><time>2026-04-25T15:06:47.94Z</time></trkpt><trkpt lat="44.25714111972629" lon="10.70970505294199"><ele>586.0</ele><time>2026-04-25T15:06:48.94Z</time></trkpt><trkpt lat="44.2570168515927" lon="10.709422594397308"><ele>586.0</ele><time>2026-04-25T15:06:49.94Z</time></trkpt><trkpt lat="44.25689112885298" lon="10.709136759330557"><ele>598.5</ele><time>2026-04-25T15:06:50.94Z</time></trkpt><trkpt lat="44.25676724629021" lon="10.70884798761985"><ele>611.0</ele><time>2026-04-25T15:06:51.94Z</time></trkpt><trkpt lat="44.25664007668246" lon="10.708558098574192"><ele>625.0</ele><time>2026-04-25T15:06:52.94Z</time></trkpt><trkpt lat="44.2565159861735" lon="10.70826694284071"><ele>639.0</ele><time>2026-04-25T15:06:53.94Z</time></trkpt><trkpt lat="44.25638995956717" lon="10.707975350061606"><ele>673.0</ele><time>2026-04-25T15:06:54.94Z</time></trkpt><trkpt lat="44.256252487766496" lon="10.707643774004833"><ele>707.0</ele><time>2026-04-25T15:06:56.082Z</time></trkpt><trkpt lat="44.256131116779194" lon="10.707353769890535"><ele>660.0</ele><time>2026-04-25T15:06:57.082Z</time></trkpt><trkpt lat="44.25287426683927" lon="10.693125757068366"><ele>659.0</ele><time>2026-04-25T15:07:43.939Z</time></trkpt><trkpt lat="44.253080793932966" lon="10.692714136622333"><ele>658.0</ele><time>2026-04-25T15:07:44.939Z</time></trkpt><trkpt lat="44.25300586677205" lon="10.692476028336305"><ele>658.0</ele><time>2026-04-25T15:07:45.939Z</time></trkpt><trkpt lat="44.252986987300204" lon="10.69215657630465"><ele>658.0</ele><time>2026-04-25T15:07:46.939Z</time></trkpt><trkpt lat="44.25294186689709" lon="10.691809033457586"><ele>653.5</ele><time>2026-04-25T15:07:47.939Z</time></trkpt><trkpt lat="44.25286480723867" lon="10.691485956884382"><ele>649.0</ele><time>2026-04-25T15:07:48.939Z</time></trkpt><trkpt lat="44.25276000366806" lon="10.691172889572188"><ele>641.5</ele><time>2026-04-25T15:07:49.939Z</time></trkpt><trkpt lat="44.25262066596147" lon="10.690873820652218"><ele>634.0</ele><time>2026-04-25T15:07:50.939Z</time></trkpt><trkpt lat="44.252456711594064" lon="10.69059025805549"><ele>640.5</ele><time>2026-04-25T15:07:51.939Z</time></trkpt><trkpt lat="44.25227068453523" lon="10.690336324868326"><ele>647.0</ele><time>2026-04-25T15:07:52.939Z</time></trkpt><trkpt lat="44.25207231743513" lon="10.69008173352151"><ele>647.0</ele><time>2026-04-25T15:07:53.939Z</time></trkpt><trkpt lat="44.25187135252491" lon="10.689829659738916"><ele>647.0</ele><time>2026-04-25T15:07:54.939Z</time></trkpt><trkpt lat="44.25166708105725" lon="10.689572854797646"><ele>639.5</ele><time>2026-04-25T15:07:55.939Z</time></trkpt><trkpt lat="44.25147139331267" lon="10.689316393854348"><ele>632.0</ele><time>2026-04-25T15:07:56.939Z</time></trkpt><trkpt lat="44.25129204632136" lon="10.689037058463345"><ele>643.5</ele><time>2026-04-25T15:07:57.939Z</time></trkpt><trkpt lat="44.25113668149451" lon="10.688732715657467"><ele>655.0</ele><time>2026-04-25T15:07:58.939Z</time></trkpt><trkpt lat="44.25100614012031" lon="10.68840630551343"><ele>655.0</ele><time>2026-04-25T15:07:59.939Z</time></trkpt><trkpt lat="44.250901160246755" lon="10.688050353509395"><ele>655.0</ele><time>2026-04-25T15:08:00.939Z</time></trkpt><trkpt lat="44.250824451561876" lon="10.687673813001151"><ele>649.0</ele><time>2026-04-25T15:08:01.939Z</time></trkpt><trkpt lat="44.250768601951954" lon="10.68732054892564"><ele>643.0</ele><time>2026-04-25T15:08:02.939Z</time></trkpt><trkpt lat="44.25068247095741" lon="10.687007808527621"><ele>647.3333333333334</ele><time>2026-04-25T15:08:03.939Z</time></trkpt><trkpt lat="44.25057304692711" lon="10.686728056664538"><ele>651.6666666666666</ele><time>2026-04-25T15:08:04.939Z</time></trkpt><trkpt lat="44.250447924586936" lon="10.686487505199212"><ele>656.0</ele><time>2026-04-25T15:08:05.939Z</time></trkpt><trkpt lat="44.25031311952424" lon="10.686264890245242"><ele>645.5</ele><time>2026-04-25T15:08:06.939Z</time></trkpt><trkpt lat="44.250009074379086" lon="10.68599906918138"><ele>635.0</ele><time>2026-04-25T15:08:07.939Z</time></trkpt><trkpt lat="44.249756691514385" lon="10.685821227632752"><ele>656.0</ele><time>2026-04-25T15:08:08.939Z</time></trkpt><trkpt lat="44.249543683265166" lon="10.685599838271376"><ele>677.0</ele><time>2026-04-25T15:08:09.939Z</time></trkpt><trkpt lat="44.24936655102814" lon="10.685322937957897"><ele>661.5</ele><time>2026-04-25T15:08:10.939Z</time></trkpt><trkpt lat="44.249215877316075" lon="10.685023554711304"><ele>646.0</ele><time>2026-04-25T15:08:11.939Z</time></trkpt><trkpt lat="44.24907850610471" lon="10.68471521044615"><ele>649.5</ele><time>2026-04-25T15:08:12.939Z</time></trkpt><trkpt lat="44.24894340595192" lon="10.684440243035327"><ele>653.0</ele><time>2026-04-25T15:08:13.939Z</time></trkpt><trkpt lat="44.24878345187494" lon="10.684200210329074"><ele>653.0</ele><time>2026-04-25T15:08:14.939Z</time></trkpt><trkpt lat="44.248593638139525" lon="10.683983576794038"><ele>653.0</ele><time>2026-04-25T15:08:15.939Z</time></trkpt><trkpt lat="44.24838855815878" lon="10.683767661137813"><ele>648.0</ele><time>2026-04-25T15:08:16.939Z</time></trkpt><trkpt lat="44.24816111486217" lon="10.68357729009166"><ele>643.0</ele><time>2026-04-25T15:08:17.939Z</time></trkpt><trkpt lat="44.247931223522706" lon="10.68338273584309"><ele>643.0</ele><time>2026-04-25T15:08:18.939Z</time></trkpt><trkpt lat="44.24770673822763" lon="10.68318133418043"><ele>643.0</ele><time>2026-04-25T15:08:19.939Z</time></trkpt><trkpt lat="44.2474723579717" lon="10.682978687423828"><ele>642.0</ele><time>2026-04-25T15:08:20.939Z</time></trkpt><trkpt lat="44.2472422228056" lon="10.682777834774805"><ele>641.0</ele><time>2026-04-25T15:08:21.939Z</time></trkpt><trkpt lat="44.247015977315066" lon="10.682579122547152"><ele>641.0</ele><time>2026-04-25T15:08:22.939Z</time></trkpt><trkpt lat="44.24679983766311" lon="10.682385512620279"><ele>641.0</ele><time>2026-04-25T15:08:23.939Z</time></trkpt><trkpt lat="44.24659324564182" lon="10.682205090478671"><ele>646.0</ele><time>2026-04-25T15:08:24.94Z</time></trkpt><trkpt lat="44.246401704031875" lon="10.682025316652517"><ele>651.0</ele><time>2026-04-25T15:08:25.94Z</time></trkpt><trkpt lat="44.246215809643374" lon="10.681827165889274"><ele>651.0</ele><time>2026-04-25T15:08:26.94Z</time></trkpt><trkpt lat="44.24604499879008" lon="10.681621899021996"><ele>651.0</ele><time>2026-04-25T15:08:27.941Z</time></trkpt><trkpt lat="44.2458834924424" lon="10.68142027127737"><ele>651.0</ele><time>2026-04-25T15:08:28.94Z</time></trkpt><trkpt lat="44.245741852051836" lon="10.68123282152963"><ele>665.0</ele><time>2026-04-25T15:08:29.94Z</time></trkpt><trkpt lat="44.24562540540467" lon="10.68106399083529"><ele>679.0</ele><time>2026-04-25T15:08:30.941Z</time></trkpt><trkpt lat="44.245545844345955" lon="10.68087648159905"><ele>693.0</ele><time>2026-04-25T15:08:31.94Z</time></trkpt><trkpt lat="44.2455072490456" lon="10.680686985653878"><ele>693.0</ele><time>2026-04-25T15:08:32.94Z</time></trkpt><trkpt lat="44.24550168343331" lon="10.680464198429364"><ele>693.0</ele><time>2026-04-25T15:08:33.941Z</time></trkpt><trkpt lat="44.245509697783" lon="10.680203822520578"><ele>693.0</ele><time>2026-04-25T15:08:34.94Z</time></trkpt><trkpt lat="44.245526221137446" lon="10.679930217792187"><ele>692.3333333333334</ele><time>2026-04-25T15:08:35.94Z</time></trkpt><trkpt lat="44.24553340149663" lon="10.679696320771477"><ele>691.6666666666667</ele><time>2026-04-25T15:08:36.94Z</time></trkpt><trkpt lat="44.24557256391682" lon="10.679494730813808"><ele>691.0</ele><time>2026-04-25T15:08:37.941Z</time></trkpt><trkpt lat="44.24567102595695" lon="10.679305362299791"><ele>676.0</ele><time>2026-04-25T15:08:38.941Z</time></trkpt><trkpt lat="44.245800655793964" lon="10.679095278271998"><ele>661.0</ele><time>2026-04-25T15:08:39.941Z</time></trkpt><trkpt lat="44.245952305439054" lon="10.678883766452248"><ele>646.0</ele><time>2026-04-25T15:08:40.941Z</time></trkpt><trkpt lat="44.24610963271968" lon="10.678673992030776"><ele>641.6666666666667</ele><time>2026-04-25T15:08:41.941Z</time></trkpt><trkpt lat="44.24627667424346" lon="10.678508802872525"><ele>637.3333333333334</ele><time>2026-04-25T15:08:42.941Z</time></trkpt><trkpt lat="44.246453518700726" lon="10.678380517755565"><ele>633.0</ele><time>2026-04-25T15:08:43.941Z</time></trkpt><trkpt lat="44.24661912073498" lon="10.678264669029904"><ele>633.0</ele><time>2026-04-25T15:08:44.941Z</time></trkpt><trkpt lat="44.246762611756225" lon="10.678180082849112"><ele>633.0</ele><time>2026-04-25T15:08:45.941Z</time></trkpt><trkpt lat="44.24686285767696" lon="10.678075049062896"><ele>633.0</ele><time>2026-04-25T15:08:46.941Z</time></trkpt><trkpt lat="44.24692307631441" lon="10.677922537705266"><ele>633.0</ele><time>2026-04-25T15:08:47.941Z</time></trkpt><trkpt lat="44.24691862145225" lon="10.677748250110438"><ele>636.0</ele><time>2026-04-25T15:08:48.941Z</time></trkpt><trkpt lat="44.2468522177612" lon="10.677549696343855"><ele>639.0</ele><time>2026-04-25T15:08:49.941Z</time></trkpt><trkpt lat="44.24674669488849" lon="10.677336402171415"><ele>642.0</ele><time>2026-04-25T15:08:50.94Z</time></trkpt><trkpt lat="44.24662995112071" lon="10.677117087165511"><ele>635.0</ele><time>2026-04-25T15:08:51.94Z</time></trkpt><trkpt lat="44.246500937497316" lon="10.676907482733844"><ele>628.0</ele><time>2026-04-25T15:08:52.94Z</time></trkpt><trkpt lat="44.24638991449541" lon="10.676664875015417"><ele>621.0</ele><time>2026-04-25T15:08:53.94Z</time></trkpt><trkpt lat="44.246338145023586" lon="10.676392147905261"><ele>635.3333333333334</ele><time>2026-04-25T15:08:54.94Z</time></trkpt><trkpt lat="44.246296410604984" lon="10.676100023643547"><ele>649.6666666666667</ele><time>2026-04-25T15:08:55.94Z</time></trkpt><trkpt lat="44.24623252307958" lon="10.675804097069975"><ele>664.0</ele><time>2026-04-25T15:08:56.94Z</time></trkpt><trkpt lat="44.2461415480197" lon="10.675532026401402"><ele>664.0</ele><time>2026-04-25T15:08:57.94Z</time></trkpt><trkpt lat="44.24601500961112" lon="10.675275687105083"><ele>664.0</ele><time>2026-04-25T15:08:58.94Z</time></trkpt><trkpt lat="44.24587531712543" lon="10.675041216133534"><ele>664.0</ele><time>2026-04-25T15:08:59.94Z</time></trkpt><trkpt lat="44.24571086239432" lon="10.674870998872493"><ele>662.0</ele><time>2026-04-25T15:09:00.94Z</time></trkpt><trkpt lat="44.24556825562939" lon="10.674750531173581"><ele>660.0</ele><time>2026-04-25T15:09:01.94Z</time></trkpt><trkpt lat="44.245458195293175" lon="10.674638124944405"><ele>658.0</ele><time>2026-04-25T15:09:02.94Z</time></trkpt><trkpt lat="44.24541037087459" lon="10.67447653655439"><ele>656.0</ele><time>2026-04-25T15:09:03.94Z</time></trkpt><trkpt lat="44.24541139395953" lon="10.674254626327846"><ele>652.6666666666666</ele><time>2026-04-25T15:09:04.94Z</time></trkpt><trkpt lat="44.24544496625949" lon="10.674044432937214"><ele>649.3333333333334</ele><time>2026-04-25T15:09:05.94Z</time></trkpt><trkpt lat="44.24553595632351" lon="10.67388173383422"><ele>646.0</ele><time>2026-04-25T15:09:06.94Z</time></trkpt><trkpt lat="44.245682962891266" lon="10.67373074726024"><ele>643.3333333333334</ele><time>2026-04-25T15:09:07.94Z</time></trkpt><trkpt lat="44.24580350013662" lon="10.6735705193946"><ele>640.6666666666666</ele><time>2026-04-25T15:09:08.94Z</time></trkpt><trkpt lat="44.245854770065705" lon="10.67337182892653"><ele>638.0</ele><time>2026-04-25T15:09:09.94Z</time></trkpt><trkpt lat="44.24586147736957" lon="10.673114595468716"><ele>638.0</ele><time>2026-04-25T15:09:10.94Z</time></trkpt><trkpt lat="44.245880795746785" lon="10.672821938519327"><ele>638.0</ele><time>2026-04-25T15:09:11.94Z</time></trkpt><trkpt lat="44.24590533382514" lon="10.672515611581328"><ele>638.0</ele><time>2026-04-25T15:09:12.94Z</time></trkpt><trkpt lat="44.24595773098191" lon="10.672234332217652"><ele>644.3333333333333</ele><time>2026-04-25T15:09:13.94Z</time></trkpt><trkpt lat="44.24601560713076" lon="10.671975594185115"><ele>650.6666666666666</ele><time>2026-04-25T15:09:14.94Z</time></trkpt><trkpt lat="44.24606085528717" lon="10.67169538078153"><ele>657.0</ele><time>2026-04-25T15:09:15.94Z</time></trkpt><trkpt lat="44.246060049731916" lon="10.671412470750699"><ele>660.0</ele><time>2026-04-25T15:09:16.94Z</time></trkpt><trkpt lat="44.24602240580872" lon="10.671170696995825"><ele>663.0</ele><time>2026-04-25T15:09:17.94Z</time></trkpt><trkpt lat="44.24602338287589" lon="10.670964431133438"><ele>666.0</ele><time>2026-04-25T15:09:18.94Z</time></trkpt><trkpt lat="44.24608760897073" lon="10.670776306130183"><ele>667.6666666666666</ele><time>2026-04-25T15:09:19.94Z</time></trkpt><trkpt lat="44.246219282530376" lon="10.6705934368193"><ele>669.3333333333333</ele><time>2026-04-25T15:09:20.94Z</time></trkpt><trkpt lat="44.24636633621089" lon="10.670416635833734"><ele>671.0</ele><time>2026-04-25T15:09:21.94Z</time></trkpt><trkpt lat="44.24646769603649" lon="10.670241932149755"><ele>670.3333333333333</ele><time>2026-04-25T15:09:22.94Z</time></trkpt><trkpt lat="44.24650264315833" lon="10.670034662532036"><ele>669.6666666666666</ele><time>2026-04-25T15:09:23.94Z</time></trkpt><trkpt lat="44.24649378779347" lon="10.669779458709911"><ele>669.0</ele><time>2026-04-25T15:09:24.94Z</time></trkpt><trkpt lat="44.246418016191186" lon="10.66950883768366"><ele>663.3333333333334</ele><time>2026-04-25T15:09:25.94Z</time></trkpt><trkpt lat="44.246315635950815" lon="10.669237759365549"><ele>657.6666666666667</ele><time>2026-04-25T15:09:26.94Z</time></trkpt><trkpt lat="44.2462248690071" lon="10.66903715969506"><ele>652.0</ele><time>2026-04-25T15:09:27.94Z</time></trkpt><trkpt lat="44.246138801207486" lon="10.668879017375424"><ele>652.0</ele><time>2026-04-25T15:09:28.94Z</time></trkpt><trkpt lat="44.24601388494554" lon="10.668802893796574"><ele>652.0</ele><time>2026-04-25T15:09:29.94Z</time></trkpt><trkpt lat="44.24584177652924" lon="10.668836546881455"><ele>652.0</ele><time>2026-04-25T15:09:30.94Z</time></trkpt><trkpt lat="44.245641626992786" lon="10.66897319070029"><ele>654.0</ele><time>2026-04-25T15:09:31.94Z</time></trkpt><trkpt lat="44.2453961355311" lon="10.669081709658254"><ele>656.0</ele><time>2026-04-25T15:09:32.94Z</time></trkpt><trkpt lat="44.245145405791234" lon="10.669168109227483"><ele>656.0</ele><time>2026-04-25T15:09:33.94Z</time></trkpt><trkpt lat="44.244909624024494" lon="10.669206647672873"><ele>656.0</ele><time>2026-04-25T15:09:34.94Z</time></trkpt><trkpt lat="44.24473092225509" lon="10.66919924458359"><ele>656.0</ele><time>2026-04-25T15:09:35.94Z</time></trkpt><trkpt lat="44.24456353894418" lon="10.669137144324283"><ele>664.3333333333333</ele><time>2026-04-25T15:09:36.94Z</time></trkpt><trkpt lat="44.24438066720035" lon="10.669043063000238"><ele>672.6666666666666</ele><time>2026-04-25T15:09:37.94Z</time></trkpt><trkpt lat="44.244229488816245" lon="10.668903461393509"><ele>681.0</ele><time>2026-04-25T15:09:38.94Z</time></trkpt><trkpt lat="44.244112902039745" lon="10.668703462992157"><ele>669.0</ele><time>2026-04-25T15:09:39.94Z</time></trkpt><trkpt lat="44.244006449892744" lon="10.668434110260735"><ele>657.0</ele><time>2026-04-25T15:09:40.94Z</time></trkpt><trkpt lat="44.243916453723614" lon="10.66813197553638"><ele>669.0</ele><time>2026-04-25T15:09:41.94Z</time></trkpt><trkpt lat="44.24384783109553" lon="10.667854571501568"><ele>681.0</ele><time>2026-04-25T15:09:42.94Z</time></trkpt><trkpt lat="44.24379547956087" lon="10.667600465152136"><ele>693.0</ele><time>2026-04-25T15:09:43.94Z</time></trkpt><trkpt lat="44.243754756187876" lon="10.66738829096622"><ele>693.0</ele><time>2026-04-25T15:09:44.94Z</time></trkpt><trkpt lat="44.24370450545863" lon="10.667224433004593"><ele>693.0</ele><time>2026-04-25T15:09:45.94Z</time></trkpt><trkpt lat="44.243650754285504" lon="10.667086108883254"><ele>693.0</ele><time>2026-04-25T15:09:46.94Z</time></trkpt><trkpt lat="44.2436198205864" lon="10.666943188441016"><ele>693.0</ele><time>2026-04-25T15:09:47.94Z</time></trkpt><trkpt lat="44.243672118312716" lon="10.66678552843878"><ele>693.5</ele><time>2026-04-25T15:09:48.94Z</time></trkpt><trkpt lat="44.243725200668464" lon="10.666646064177556"><ele>694.0</ele><time>2026-04-25T15:09:49.94Z</time></trkpt><trkpt lat="44.24374709426084" lon="10.666485739206143"><ele>694.5</ele><time>2026-04-25T15:09:50.94Z</time></trkpt><trkpt lat="44.24376075761059" lon="10.666332770621622"><ele>695.0</ele><time>2026-04-25T15:09:51.94Z</time></trkpt><trkpt lat="44.24371821499415" lon="10.666161194622141"><ele>692.0</ele><time>2026-04-25T15:09:52.94Z</time></trkpt><trkpt lat="44.243649211931945" lon="10.665904676611875"><ele>689.0</ele><time>2026-04-25T15:09:53.94Z</time></trkpt><trkpt lat="44.2435786333218" lon="10.665607618392455"><ele>686.0</ele><time>2026-04-25T15:09:54.94Z</time></trkpt><trkpt lat="44.24351188572536" lon="10.665284713891095"><ele>682.3333333333333</ele><time>2026-04-25T15:09:55.94Z</time></trkpt><trkpt lat="44.243442407311065" lon="10.665015696805645"><ele>678.6666666666666</ele><time>2026-04-25T15:09:56.94Z</time></trkpt><trkpt lat="44.24340249374388" lon="10.664758204221364"><ele>675.0</ele><time>2026-04-25T15:09:57.94Z</time></trkpt><trkpt lat="44.24339775529482" lon="10.664502647793684"><ele>672.6666666666666</ele><time>2026-04-25T15:09:58.94Z</time></trkpt><trkpt lat="44.24340247908238" lon="10.664244018970802"><ele>670.3333333333333</ele><time>2026-04-25T15:09:59.94Z</time></trkpt><trkpt lat="44.243445644276406" lon="10.663966288451373"><ele>668.0</ele><time>2026-04-25T15:10:00.94Z</time></trkpt><trkpt lat="44.24346617592301" lon="10.663680227041846"><ele>670.3333333333333</ele><time>2026-04-25T15:10:01.94Z</time></trkpt><trkpt lat="44.24350079469374" lon="10.663363666630543"><ele>672.6666666666666</ele><time>2026-04-25T15:10:02.94Z</time></trkpt><trkpt lat="44.243541612895875" lon="10.663063257682635"><ele>675.0</ele><time>2026-04-25T15:10:03.94Z</time></trkpt><trkpt lat="44.243570717304294" lon="10.662788656474705"><ele>677.0</ele><time>2026-04-25T15:10:04.94Z</time></trkpt><trkpt lat="44.243563199768616" lon="10.662509504447538"><ele>679.0</ele><time>2026-04-25T15:10:05.94Z</time></trkpt><trkpt lat="44.243532421591254" lon="10.66220648055385"><ele>681.0</ele><time>2026-04-25T15:10:06.94Z</time></trkpt><trkpt lat="44.24353359602499" lon="10.66189654676102"><ele>682.6666666666666</ele><time>2026-04-25T15:10:07.94Z</time></trkpt><trkpt lat="44.24352916409241" lon="10.661600239176376"><ele>684.3333333333333</ele><time>2026-04-25T15:10:08.94Z</time></trkpt><trkpt lat="44.24351994337217" lon="10.661333219966531"><ele>686.0</ele><time>2026-04-25T15:10:09.94Z</time></trkpt><trkpt lat="44.24353784033459" lon="10.661067047701058"><ele>690.3333333333333</ele><time>2026-04-25T15:10:10.94Z</time></trkpt><trkpt lat="44.24361156796903" lon="10.660801714359733"><ele>694.6666666666666</ele><time>2026-04-25T15:10:11.94Z</time></trkpt><trkpt lat="44.24371255713998" lon="10.660526593493538"><ele>699.0</ele><time>2026-04-25T15:10:12.94Z</time></trkpt><trkpt lat="44.243814714307" lon="10.660255184806617"><ele>703.3333333333334</ele><time>2026-04-25T15:10:13.94Z</time></trkpt><trkpt lat="44.24387897910711" lon="10.660003077969682"><ele>707.6666666666667</ele><time>2026-04-25T15:10:14.94Z</time></trkpt><trkpt lat="44.24391028860434" lon="10.659706016982367"><ele>712.0</ele><time>2026-04-25T15:10:15.94Z</time></trkpt><trkpt lat="44.243944935426214" lon="10.65940384398353"><ele>712.0</ele><time>2026-04-25T15:10:16.94Z</time></trkpt><trkpt lat="44.243955866323574" lon="10.659089319517385"><ele>712.0</ele><time>2026-04-25T15:10:17.94Z</time></trkpt><trkpt lat="44.24395060992094" lon="10.658778355302477"><ele>712.0</ele><time>2026-04-25T15:10:18.94Z</time></trkpt><trkpt lat="44.24391693165334" lon="10.65845954947786"><ele>712.0</ele><time>2026-04-25T15:10:19.94Z</time></trkpt><trkpt lat="44.243870556404524" lon="10.658144861512127"><ele>712.0</ele><time>2026-04-25T15:10:20.94Z</time></trkpt><trkpt lat="44.24383005010373" lon="10.65787140863656"><ele>712.0</ele><time>2026-04-25T15:10:21.94Z</time></trkpt><trkpt lat="44.24376464680785" lon="10.65763273979748"><ele>703.6666666666667</ele><time>2026-04-25T15:10:22.94Z</time></trkpt><trkpt lat="44.243645791108925" lon="10.657404310695458"><ele>695.3333333333334</ele><time>2026-04-25T15:10:23.94Z</time></trkpt><trkpt lat="44.2435034314648" lon="10.657188948095616"><ele>687.0</ele><time>2026-04-25T15:10:24.94Z</time></trkpt><trkpt lat="44.24336081123543" lon="10.65703370673113"><ele>683.0</ele><time>2026-04-25T15:10:25.94Z</time></trkpt><trkpt lat="44.24318172656704" lon="10.656943030893338"><ele>679.0</ele><time>2026-04-25T15:10:26.94Z</time></trkpt><trkpt lat="44.2429567592392" lon="10.656915339261515"><ele>675.0</ele><time>2026-04-25T15:10:27.94Z</time></trkpt><trkpt lat="44.24271130298963" lon="10.656878554120972"><ele>675.0</ele><time>2026-04-25T15:10:28.94Z</time></trkpt><trkpt lat="44.2424686333347" lon="10.65682589897352"><ele>675.0</ele><time>2026-04-25T15:10:29.94Z</time></trkpt><trkpt lat="44.24222762731897" lon="10.656783275588946"><ele>685.0</ele><time>2026-04-25T15:10:30.94Z</time></trkpt><trkpt lat="44.241989633179635" lon="10.656688054718266"><ele>695.0</ele><time>2026-04-25T15:10:31.94Z</time></trkpt><trkpt lat="44.24174868824996" lon="10.656540253164975"><ele>695.0</ele><time>2026-04-25T15:10:32.94Z</time></trkpt><trkpt lat="44.241517472312914" lon="10.656352902744892"><ele>695.0</ele><time>2026-04-25T15:10:33.94Z</time></trkpt><trkpt lat="44.24127338096669" lon="10.656165877316552"><ele>691.5</ele><time>2026-04-25T15:10:34.94Z</time></trkpt><trkpt lat="44.24101855074695" lon="10.656020256645085"><ele>688.0</ele><time>2026-04-25T15:10:35.94Z</time></trkpt><trkpt lat="44.2407529414728" lon="10.655912831255787"><ele>692.0</ele><time>2026-04-25T15:10:36.94Z</time></trkpt><trkpt lat="44.24047877780444" lon="10.655804731604189"><ele>696.0</ele><time>2026-04-25T15:10:37.94Z</time></trkpt><trkpt lat="44.24020566208596" lon="10.655695867627433"><ele>696.0</ele><time>2026-04-25T15:10:38.94Z</time></trkpt><trkpt lat="44.239943993316786" lon="10.655586218668864"><ele>696.0</ele><time>2026-04-25T15:10:39.94Z</time></trkpt><trkpt lat="44.239694730744944" lon="10.655504376660556"><ele>698.0</ele><time>2026-04-25T15:10:40.941Z</time></trkpt><trkpt lat="44.23944068341086" lon="10.655488870023293"><ele>700.0</ele><time>2026-04-25T15:10:41.941Z</time></trkpt><trkpt lat="44.239178157104256" lon="10.65550879222402"><ele>701.0</ele><time>2026-04-25T15:10:42.94Z</time></trkpt><trkpt lat="44.23890773144832" lon="10.655537605039017"><ele>702.0</ele><time>2026-04-25T15:10:43.94Z</time></trkpt><trkpt lat="44.23866258513456" lon="10.6555601947994"><ele>702.0</ele><time>2026-04-25T15:10:44.94Z</time></trkpt><trkpt lat="44.238434764534645" lon="10.655537590671633"><ele>702.0</ele><time>2026-04-25T15:10:45.94Z</time></trkpt><trkpt lat="44.238243733174784" lon="10.655458125487453"><ele>702.0</ele><time>2026-04-25T15:10:46.94Z</time></trkpt><trkpt lat="44.238088936671225" lon="10.65532837334383"><ele>711.0</ele><time>2026-04-25T15:10:47.94Z</time></trkpt><trkpt lat="44.237957678271265" lon="10.655129182399568"><ele>720.0</ele><time>2026-04-25T15:10:48.94Z</time></trkpt><trkpt lat="44.2378761617042" lon="10.65487802028393"><ele>729.0</ele><time>2026-04-25T15:10:49.94Z</time></trkpt><trkpt lat="44.23784446231614" lon="10.65458849708095"><ele>725.3333333333334</ele><time>2026-04-25T15:10:50.94Z</time></trkpt><trkpt lat="44.23785600937076" lon="10.654282284670712"><ele>721.6666666666667</ele><time>2026-04-25T15:10:51.94Z</time></trkpt><trkpt lat="44.23784190395771" lon="10.654005323160234"><ele>718.0</ele><time>2026-04-25T15:10:52.94Z</time></trkpt><trkpt lat="44.23776740293075" lon="10.653757249646395"><ele>708.3333333333334</ele><time>2026-04-25T15:10:53.94Z</time></trkpt><trkpt lat="44.23763523774277" lon="10.653548799749421"><ele>698.6666666666666</ele><time>2026-04-25T15:10:54.94Z</time></trkpt><trkpt lat="44.23745907471263" lon="10.653423555474037"><ele>689.0</ele><time>2026-04-25T15:10:55.94Z</time></trkpt><trkpt lat="44.237249556186896" lon="10.65336623997676"><ele>689.0</ele><time>2026-04-25T15:10:56.94Z</time></trkpt><trkpt lat="44.23700371229211" lon="10.653380038043615"><ele>689.0</ele><time>2026-04-25T15:10:57.94Z</time></trkpt><trkpt lat="44.23672776650688" lon="10.65345209156364"><ele>689.5</ele><time>2026-04-25T15:10:58.94Z</time></trkpt><trkpt lat="44.236450897845536" lon="10.653557248637199"><ele>690.0</ele><time>2026-04-25T15:10:59.94Z</time></trkpt><trkpt lat="44.23620272816995" lon="10.653680782864575"><ele>698.0</ele><time>2026-04-25T15:11:00.94Z</time></trkpt><trkpt lat="44.23599996517821" lon="10.653772991654867"><ele>706.0</ele><time>2026-04-25T15:11:01.94Z</time></trkpt><trkpt lat="44.23582114996587" lon="10.65381720791345"><ele>714.0</ele><time>2026-04-25T15:11:02.94Z</time></trkpt><trkpt lat="44.235668158765016" lon="10.653843564340495"><ele>712.5</ele><time>2026-04-25T15:11:03.94Z</time></trkpt><trkpt lat="44.2355276051501" lon="10.653864160251988"><ele>711.0</ele><time>2026-04-25T15:11:04.94Z</time></trkpt><trkpt lat="44.235396923540236" lon="10.653876867724641"><ele>709.5</ele><time>2026-04-25T15:11:05.94Z</time></trkpt><trkpt lat="44.2352604083489" lon="10.653921692758988"><ele>708.0</ele><time>2026-04-25T15:11:06.94Z</time></trkpt><trkpt lat="44.23513526699233" lon="10.654001153326767"><ele>708.0</ele><time>2026-04-25T15:11:07.94Z</time></trkpt><trkpt lat="44.23501770087004" lon="10.654083433483814"><ele>708.0</ele><time>2026-04-25T15:11:08.94Z</time></trkpt><trkpt lat="44.2349101611175" lon="10.654169004563359"><ele>708.0</ele><time>2026-04-25T15:11:09.94Z</time></trkpt><trkpt lat="44.23480224758501" lon="10.65425300586112"><ele>708.0</ele><time>2026-04-25T15:11:10.94Z</time></trkpt><trkpt lat="44.234699366119926" lon="10.654346746791896"><ele>706.75</ele><time>2026-04-25T15:11:11.94Z</time></trkpt><trkpt lat="44.234596470629725" lon="10.654442286304153"><ele>705.5</ele><time>2026-04-25T15:11:12.94Z</time></trkpt><trkpt lat="44.2344939820266" lon="10.654532497301023"><ele>704.25</ele><time>2026-04-25T15:11:13.94Z</time></trkpt><trkpt lat="44.23439812541972" lon="10.65462805619407"><ele>703.0</ele><time>2026-04-25T15:11:14.94Z</time></trkpt><trkpt lat="44.23430582403828" lon="10.654724638220653"><ele>706.75</ele><time>2026-04-25T15:11:15.94Z</time></trkpt><trkpt lat="44.2342097350214" lon="10.654817251872872"><ele>710.5</ele><time>2026-04-25T15:11:16.94Z</time></trkpt><trkpt lat="44.234118569258754" lon="10.654907121477658"><ele>714.25</ele><time>2026-04-25T15:11:17.94Z</time></trkpt><trkpt lat="44.23402515248486" lon="10.655003059277085"><ele>718.0</ele><time>2026-04-25T15:11:18.94Z</time></trkpt><trkpt lat="44.23392832464792" lon="10.655091320171586"><ele>718.0</ele><time>2026-04-25T15:11:19.94Z</time></trkpt><trkpt lat="44.23382114547036" lon="10.655158671231879"><ele>718.0</ele><time>2026-04-25T15:11:20.94Z</time></trkpt><trkpt lat="44.23371024949568" lon="10.655209843731832"><ele>718.0</ele><time>2026-04-25T15:11:21.94Z</time></trkpt><trkpt lat="44.233598601964" lon="10.655252251680977"><ele>718.0</ele><time>2026-04-25T15:11:22.94Z</time></trkpt><trkpt lat="44.23350979893704" lon="10.655276102989173"><ele>718.0</ele><time>2026-04-25T15:11:23.94Z</time></trkpt><trkpt lat="44.23344231183913" lon="10.655282190115837"><ele>718.0</ele><time>2026-04-25T15:11:24.94Z</time></trkpt><trkpt lat="44.23332973993316" lon="10.655265291892396"><ele>718.0</ele><time>2026-04-25T15:11:26.94Z</time></trkpt><trkpt lat="44.23322116343633" lon="10.65519987649641"><ele>718.0</ele><time>2026-04-25T15:11:28.94Z</time></trkpt><trkpt lat="44.2331076277925" lon="10.655197281028993"><ele>718.0</ele><time>2026-04-25T15:11:30.94Z</time></trkpt><trkpt lat="44.23302636988837" lon="10.655308324466601"><ele>719.5</ele><time>2026-04-25T15:11:32.939Z</time></trkpt><trkpt lat="44.23292577672547" lon="10.655402582737079"><ele>721.0</ele><time>2026-04-25T15:11:34.939Z</time></trkpt><trkpt lat="44.23286094983176" lon="10.655416720226553"><ele>722.5</ele><time>2026-04-25T15:11:35.939Z</time></trkpt><trkpt lat="44.23279147382198" lon="10.655438609106085"><ele>724.0</ele><time>2026-04-25T15:11:36.939Z</time></trkpt><trkpt lat="44.232719650473115" lon="10.65548272703895"><ele>725.5</ele><time>2026-04-25T15:11:37.939Z</time></trkpt><trkpt lat="44.23263703641344" lon="10.655557833103561"><ele>727.0</ele><time>2026-04-25T15:11:38.939Z</time></trkpt><trkpt lat="44.2325426282807" lon="10.65565905939341"><ele>727.0</ele><time>2026-04-25T15:11:39.939Z</time></trkpt><trkpt lat="44.23247899738981" lon="10.655792383042556"><ele>727.0</ele><time>2026-04-25T15:11:40.939Z</time></trkpt><trkpt lat="44.23241466843524" lon="10.655941520579898"><ele>727.0</ele><time>2026-04-25T15:11:41.939Z</time></trkpt><trkpt lat="44.23232458931101" lon="10.65607567458526"><ele>727.0</ele><time>2026-04-25T15:11:42.939Z</time></trkpt><trkpt lat="44.232211814623604" lon="10.656166800404671"><ele>726.0</ele><time>2026-04-25T15:11:43.939Z</time></trkpt><trkpt lat="44.23208143903603" lon="10.656199337520507"><ele>725.0</ele><time>2026-04-25T15:11:44.939Z</time></trkpt><trkpt lat="44.23194818520983" lon="10.65616855466962"><ele>724.0</ele><time>2026-04-25T15:11:45.939Z</time></trkpt><trkpt lat="44.23182120537645" lon="10.65608188640994"><ele>723.0</ele><time>2026-04-25T15:11:46.939Z</time></trkpt><trkpt lat="44.23170528828112" lon="10.65595964777489"><ele>723.0</ele><time>2026-04-25T15:11:47.939Z</time></trkpt><trkpt lat="44.23158707249237" lon="10.6558493038748"><ele>723.0</ele><time>2026-04-25T15:11:48.939Z</time></trkpt><trkpt lat="44.23145653186429" lon="10.65575826133605"><ele>723.0</ele><time>2026-04-25T15:11:49.939Z</time></trkpt><trkpt lat="44.231324882930096" lon="10.65565922618213"><ele>723.0</ele><time>2026-04-25T15:11:50.939Z</time></trkpt><trkpt lat="44.23120020821392" lon="10.655568817752492"><ele>722.0</ele><time>2026-04-25T15:11:51.939Z</time></trkpt><trkpt lat="44.23106193064707" lon="10.655498221140975"><ele>721.0</ele><time>2026-04-25T15:11:52.939Z</time></trkpt><trkpt lat="44.23093040624632" lon="10.655423742096339"><ele>720.0</ele><time>2026-04-25T15:11:53.939Z</time></trkpt><trkpt lat="44.23080961310022" lon="10.655321268758437"><ele>719.0</ele><time>2026-04-25T15:11:54.939Z</time></trkpt><trkpt lat="44.2307208624603" lon="10.65516875834391"><ele>719.0</ele><time>2026-04-25T15:11:55.939Z</time></trkpt><trkpt lat="44.230656044355136" lon="10.654959943111978"><ele>719.0</ele><time>2026-04-25T15:11:56.939Z</time></trkpt><trkpt lat="44.230596276857945" lon="10.65475977931"><ele>719.0</ele><time>2026-04-25T15:11:57.939Z</time></trkpt><trkpt lat="44.23050183573071" lon="10.654618367984071"><ele>723.25</ele><time>2026-04-25T15:11:58.939Z</time></trkpt><trkpt lat="44.230425478077024" lon="10.654450909344474"><ele>727.5</ele><time>2026-04-25T15:11:59.939Z</time></trkpt><trkpt lat="44.230357483250216" lon="10.654296836669086"><ele>731.75</ele><time>2026-04-25T15:12:00.939Z</time></trkpt><trkpt lat="44.230312046130074" lon="10.654155262877147"><ele>736.0</ele><time>2026-04-25T15:12:01.939Z</time></trkpt><trkpt lat="44.23032396076303" lon="10.654007150899297"><ele>736.0</ele><time>2026-04-25T15:12:02.939Z</time></trkpt><trkpt lat="44.23037301530635" lon="10.653867294539461"><ele>736.0</ele><time>2026-04-25T15:12:03.939Z</time></trkpt><trkpt lat="44.23046323865531" lon="10.653730498764773"><ele>736.0</ele><time>2026-04-25T15:12:04.939Z</time></trkpt><trkpt lat="44.23055603199514" lon="10.653603755388838"><ele>736.0</ele><time>2026-04-25T15:12:05.939Z</time></trkpt><trkpt lat="44.23063866840568" lon="10.65348257472595"><ele>733.1999999999999</ele><time>2026-04-25T15:12:06.939Z</time></trkpt><trkpt lat="44.230738603180114" lon="10.653395804949703"><ele>730.4</ele><time>2026-04-25T15:12:07.939Z</time></trkpt><trkpt lat="44.23084598436679" lon="10.653337856596231"><ele>727.6</ele><time>2026-04-25T15:12:08.939Z</time></trkpt><trkpt lat="44.2309240310385" lon="10.653261592704661"><ele>724.8</ele><time>2026-04-25T15:12:09.939Z</time></trkpt><trkpt lat="44.230958585148" lon="10.653136347155833"><ele>722.0</ele><time>2026-04-25T15:12:10.939Z</time></trkpt><trkpt lat="44.23094817806362" lon="10.652985648893905"><ele>722.0</ele><time>2026-04-25T15:12:11.939Z</time></trkpt><trkpt lat="44.23092237663359" lon="10.652819525960734"><ele>722.0</ele><time>2026-04-25T15:12:12.939Z</time></trkpt><trkpt lat="44.230896428355976" lon="10.652645681827169"><ele>722.0</ele><time>2026-04-25T15:12:13.939Z</time></trkpt><trkpt lat="44.23088598782648" lon="10.652467214070612"><ele>722.0</ele><time>2026-04-25T15:12:14.939Z</time></trkpt><trkpt lat="44.230864640831555" lon="10.652285778397202"><ele>721.75</ele><time>2026-04-25T15:12:15.939Z</time></trkpt><trkpt lat="44.2308385033887" lon="10.652098443732378"><ele>721.5</ele><time>2026-04-25T15:12:16.939Z</time></trkpt><trkpt lat="44.230815123360514" lon="10.651904599355666"><ele>721.25</ele><time>2026-04-25T15:12:17.939Z</time></trkpt><trkpt lat="44.23079299704493" lon="10.651725267375996"><ele>721.0</ele><time>2026-04-25T15:12:18.939Z</time></trkpt><trkpt lat="44.230770756637405" lon="10.651547831763684"><ele>721.0</ele><time>2026-04-25T15:12:19.939Z</time></trkpt><trkpt lat="44.23074414067661" lon="10.651371324895564"><ele>721.0</ele><time>2026-04-25T15:12:20.939Z</time></trkpt><trkpt lat="44.23072374330365" lon="10.651197741440733"><ele>721.0</ele><time>2026-04-25T15:12:21.939Z</time></trkpt><trkpt lat="44.2307033715341" lon="10.651027200876717"><ele>721.0</ele><time>2026-04-25T15:12:22.939Z</time></trkpt><trkpt lat="44.23070094204702" lon="10.650847234980345"><ele>721.25</ele><time>2026-04-25T15:12:23.939Z</time></trkpt><trkpt lat="44.23072018993605" lon="10.650679004760555"><ele>721.5</ele><time>2026-04-25T15:12:24.939Z</time></trkpt><trkpt lat="44.23075363952553" lon="10.650512347483351"><ele>721.75</ele><time>2026-04-25T15:12:25.939Z</time></trkpt><trkpt lat="44.23079445359278" lon="10.650343617270241"><ele>722.0</ele><time>2026-04-25T15:12:26.939Z</time></trkpt><trkpt lat="44.23082343857238" lon="10.650171930833306"><ele>722.0</ele><time>2026-04-25T15:12:27.939Z</time></trkpt><trkpt lat="44.2308269229582" lon="10.649994242778638"><ele>722.0</ele><time>2026-04-25T15:12:28.939Z</time></trkpt><trkpt lat="44.230813230971485" lon="10.649808584462518"><ele>722.0</ele><time>2026-04-25T15:12:29.939Z</time></trkpt><trkpt lat="44.23077818439143" lon="10.64962645644831"><ele>722.0</ele><time>2026-04-25T15:12:30.939Z</time></trkpt><trkpt lat="44.230729388619366" lon="10.64944681522435"><ele>720.75</ele><time>2026-04-25T15:12:31.939Z</time></trkpt><trkpt lat="44.23066430679269" lon="10.64928538860993"><ele>719.5</ele><time>2026-04-25T15:12:32.939Z</time></trkpt><trkpt lat="44.23057101494031" lon="10.649142723250264"><ele>718.25</ele><time>2026-04-25T15:12:33.939Z</time></trkpt><trkpt lat="44.230455553796425" lon="10.64904187541861"><ele>717.0</ele><time>2026-04-25T15:12:34.939Z</time></trkpt><trkpt lat="44.23031306925388" lon="10.648999894547085"><ele>721.3333333333334</ele><time>2026-04-25T15:12:35.939Z</time></trkpt><trkpt lat="44.23015701399725" lon="10.648998907953956"><ele>725.6666666666667</ele><time>2026-04-25T15:12:36.94Z</time></trkpt><trkpt lat="44.229978411349634" lon="10.649003540224557"><ele>730.0</ele><time>2026-04-25T15:12:37.94Z</time></trkpt><trkpt lat="44.22980302258291" lon="10.648930028811689"><ele>734.0</ele><time>2026-04-25T15:12:38.94Z</time></trkpt><trkpt lat="44.229615014972175" lon="10.648846864561847"><ele>738.0</ele><time>2026-04-25T15:12:39.94Z</time></trkpt><trkpt lat="44.229425093872216" lon="10.648824419000869"><ele>742.0</ele><time>2026-04-25T15:12:40.94Z</time></trkpt><trkpt lat="44.22925178182439" lon="10.648822920759118"><ele>742.0</ele><time>2026-04-25T15:12:41.94Z</time></trkpt><trkpt lat="44.22909243957288" lon="10.648771700520381"><ele>742.0</ele><time>2026-04-25T15:12:42.94Z</time></trkpt><trkpt lat="44.22894068509932" lon="10.648647928879896"><ele>742.0</ele><time>2026-04-25T15:12:43.94Z</time></trkpt><trkpt lat="44.22881391472698" lon="10.648475390566329"><ele>741.6666666666667</ele><time>2026-04-25T15:12:44.94Z</time></trkpt><trkpt lat="44.2287279296211" lon="10.648267843998509"><ele>741.3333333333334</ele><time>2026-04-25T15:12:45.94Z</time></trkpt><trkpt lat="44.22868816990436" lon="10.648019248824019"><ele>741.0</ele><time>2026-04-25T15:12:46.94Z</time></trkpt><trkpt lat="44.22867646386633" lon="10.647773512156425"><ele>741.0</ele><time>2026-04-25T15:12:47.94Z</time></trkpt><trkpt lat="44.22864080968035" lon="10.647567053505087"><ele>741.0</ele><time>2026-04-25T15:12:48.94Z</time></trkpt><trkpt lat="44.22854042640827" lon="10.647385283900693"><ele>741.0</ele><time>2026-04-25T15:12:49.94Z</time></trkpt><trkpt lat="44.2284072109667" lon="10.647188214331363"><ele>741.0</ele><time>2026-04-25T15:12:50.94Z</time></trkpt><trkpt lat="44.22830347945248" lon="10.646971003469874"><ele>741.0</ele><time>2026-04-25T15:12:51.94Z</time></trkpt><trkpt lat="44.22823148819203" lon="10.646788801806943"><ele>741.0</ele><time>2026-04-25T15:12:52.94Z</time></trkpt><trkpt lat="44.22810807863427" lon="10.646670771450989"><ele>747.0</ele><time>2026-04-25T15:12:53.94Z</time></trkpt><trkpt lat="44.2279351487668" lon="10.646582502064634"><ele>753.0</ele><time>2026-04-25T15:12:54.94Z</time></trkpt><trkpt lat="44.22777504764214" lon="10.646497230163565"><ele>759.0</ele><time>2026-04-25T15:12:55.94Z</time></trkpt><trkpt lat="44.2276824725322" lon="10.646365318663218"><ele>759.0</ele><time>2026-04-25T15:12:56.94Z</time></trkpt><trkpt lat="44.227659379871966" lon="10.646163468387208"><ele>759.0</ele><time>2026-04-25T15:12:57.94Z</time></trkpt><trkpt lat="44.227701842284134" lon="10.645963348714064"><ele>759.0</ele><time>2026-04-25T15:12:58.939Z</time></trkpt><trkpt lat="44.227825158514584" lon="10.645810271830806"><ele>758.25</ele><time>2026-04-25T15:12:59.939Z</time></trkpt><trkpt lat="44.227964508710436" lon="10.645700494470539"><ele>757.5</ele><time>2026-04-25T15:13:00.939Z</time></trkpt><trkpt lat="44.228030801676674" lon="10.645565290662333"><ele>756.75</ele><time>2026-04-25T15:13:01.939Z</time></trkpt><trkpt lat="44.228021127193394" lon="10.645405343855142"><ele>756.0</ele><time>2026-04-25T15:13:02.939Z</time></trkpt><trkpt lat="44.227989317417105" lon="10.645208235308463"><ele>754.6666666666666</ele><time>2026-04-25T15:13:03.939Z</time></trkpt><trkpt lat="44.22795423741589" lon="10.644967508675572"><ele>753.3333333333333</ele><time>2026-04-25T15:13:04.939Z</time></trkpt><trkpt lat="44.22785470566236" lon="10.644727111561362"><ele>752.0</ele><time>2026-04-25T15:13:05.939Z</time></trkpt><trkpt lat="44.22776319221108" lon="10.6445013092488"><ele>749.3333333333333</ele><time>2026-04-25T15:13:06.939Z</time></trkpt><trkpt lat="44.22767728083443" lon="10.644311801568687"><ele>746.6666666666666</ele><time>2026-04-25T15:13:07.939Z</time></trkpt><trkpt lat="44.22757546432497" lon="10.644124713592257"><ele>744.0</ele><time>2026-04-25T15:13:08.939Z</time></trkpt><trkpt lat="44.22749613998855" lon="10.643961333946251"><ele>744.0</ele><time>2026-04-25T15:13:09.939Z</time></trkpt><trkpt lat="44.22748028322699" lon="10.643726135726604"><ele>744.0</ele><time>2026-04-25T15:13:10.939Z</time></trkpt><trkpt lat="44.22750997803492" lon="10.643444599652488"><ele>744.0</ele><time>2026-04-25T15:13:11.939Z</time></trkpt><trkpt lat="44.22751157262471" lon="10.643193657847771"><ele>742.3333333333334</ele><time>2026-04-25T15:13:12.939Z</time></trkpt><trkpt lat="44.22747733315497" lon="10.642936914434992"><ele>740.6666666666667</ele><time>2026-04-25T15:13:13.939Z</time></trkpt><trkpt lat="44.22744658085693" lon="10.642664005883168"><ele>739.0</ele><time>2026-04-25T15:13:14.939Z</time></trkpt><trkpt lat="44.22742721418892" lon="10.642434841439423"><ele>736.6666666666667</ele><time>2026-04-25T15:13:15.939Z</time></trkpt><trkpt lat="44.22735826875939" lon="10.642241108579851"><ele>734.3333333333334</ele><time>2026-04-25T15:13:16.939Z</time></trkpt><trkpt lat="44.2272308073371" lon="10.642102712348782"><ele>732.0</ele><time>2026-04-25T15:13:17.939Z</time></trkpt><trkpt lat="44.2270718206712" lon="10.642030039537087"><ele>737.5</ele><time>2026-04-25T15:13:18.939Z</time></trkpt><trkpt lat="44.22690172911139" lon="10.642002203589493"><ele>743.0</ele><time>2026-04-25T15:13:19.939Z</time></trkpt><trkpt lat="44.22677781277356" lon="10.641928143078475"><ele>748.5</ele><time>2026-04-25T15:13:20.939Z</time></trkpt><trkpt lat="44.226677516455304" lon="10.64179092098862"><ele>754.0</ele><time>2026-04-25T15:13:21.939Z</time></trkpt><trkpt lat="44.2266184447644" lon="10.641601049315176"><ele>754.0</ele><time>2026-04-25T15:13:22.939Z</time></trkpt><trkpt lat="44.226546106756025" lon="10.64135567340982"><ele>754.0</ele><time>2026-04-25T15:13:23.939Z</time></trkpt><trkpt lat="44.22647396636345" lon="10.641049483527016"><ele>754.0</ele><time>2026-04-25T15:13:24.939Z</time></trkpt><trkpt lat="44.22639645994999" lon="10.640740901574294"><ele>757.6666666666667</ele><time>2026-04-25T15:13:25.939Z</time></trkpt><trkpt lat="44.226313630235566" lon="10.640454781731597"><ele>761.3333333333334</ele><time>2026-04-25T15:13:26.939Z</time></trkpt><trkpt lat="44.226223003954516" lon="10.640219137946907"><ele>765.0</ele><time>2026-04-25T15:13:27.939Z</time></trkpt><trkpt lat="44.226110399253564" lon="10.640036346506927"><ele>765.0</ele><time>2026-04-25T15:13:28.939Z</time></trkpt><trkpt lat="44.22602015849945" lon="10.639877667469444"><ele>765.0</ele><time>2026-04-25T15:13:29.939Z</time></trkpt><trkpt lat="44.226014708024415" lon="10.639675294562133"><ele>765.0</ele><time>2026-04-25T15:13:30.939Z</time></trkpt><trkpt lat="44.22601670615255" lon="10.639432610039206"><ele>759.3333333333334</ele><time>2026-04-25T15:13:31.939Z</time></trkpt><trkpt lat="44.22596220451315" lon="10.63924278515017"><ele>753.6666666666667</ele><time>2026-04-25T15:13:32.939Z</time></trkpt><trkpt lat="44.22582856329805" lon="10.639082111801025"><ele>748.0</ele><time>2026-04-25T15:13:33.939Z</time></trkpt><trkpt lat="44.225661792040704" lon="10.638903855352433"><ele>750.3333333333334</ele><time>2026-04-25T15:13:34.939Z</time></trkpt><trkpt lat="44.22549624852696" lon="10.638703301275333"><ele>752.6666666666666</ele><time>2026-04-25T15:13:35.939Z</time></trkpt><trkpt lat="44.22533571238275" lon="10.638488141657762"><ele>755.0</ele><time>2026-04-25T15:13:36.939Z</time></trkpt><trkpt lat="44.22513831548886" lon="10.638332680060099"><ele>755.0</ele><time>2026-04-25T15:13:37.939Z</time></trkpt><trkpt lat="44.224960684976274" lon="10.638176240412468"><ele>755.0</ele><time>2026-04-25T15:13:38.939Z</time></trkpt><trkpt lat="44.22483193746128" lon="10.63795187163239"><ele>755.0</ele><time>2026-04-25T15:13:39.939Z</time></trkpt><trkpt lat="44.224711758367626" lon="10.637739178354401"><ele>751.3333333333333</ele><time>2026-04-25T15:13:40.939Z</time></trkpt><trkpt lat="44.224559104506184" lon="10.637595286786073"><ele>747.6666666666666</ele><time>2026-04-25T15:13:41.939Z</time></trkpt><trkpt lat="44.22437002019886" lon="10.637507754215479"><ele>744.0</ele><time>2026-04-25T15:13:42.939Z</time></trkpt><trkpt lat="44.22415021800309" lon="10.637458770038625"><ele>749.5</ele><time>2026-04-25T15:13:43.939Z</time></trkpt><trkpt lat="44.22391903835309" lon="10.637446904670247"><ele>755.0</ele><time>2026-04-25T15:13:44.939Z</time></trkpt><trkpt lat="44.223672287276095" lon="10.637440070359832"><ele>755.0</ele><time>2026-04-25T15:13:45.939Z</time></trkpt><trkpt lat="44.22343141836235" lon="10.63740724212594"><ele>755.0</ele><time>2026-04-25T15:13:46.939Z</time></trkpt><trkpt lat="44.223190651590755" lon="10.637384399525278"><ele>761.6666666666666</ele><time>2026-04-25T15:13:47.939Z</time></trkpt><trkpt lat="44.22296822999205" lon="10.637351325573292"><ele>768.3333333333333</ele><time>2026-04-25T15:13:48.939Z</time></trkpt><trkpt lat="44.222760426623815" lon="10.637298333669847"><ele>775.0</ele><time>2026-04-25T15:13:49.939Z</time></trkpt><trkpt lat="44.222576947391026" lon="10.637214467255085"><ele>775.0</ele><time>2026-04-25T15:13:50.939Z</time></trkpt><trkpt lat="44.22240631933415" lon="10.637058125718028"><ele>775.0</ele><time>2026-04-25T15:13:51.939Z</time></trkpt><trkpt lat="44.22224493020392" lon="10.636878704153895"><ele>775.0</ele><time>2026-04-25T15:13:52.939Z</time></trkpt><trkpt lat="44.22207871746932" lon="10.636726451514624"><ele>770.6666666666666</ele><time>2026-04-25T15:13:53.939Z</time></trkpt><trkpt lat="44.22188571826839" lon="10.636616967312856"><ele>766.3333333333333</ele><time>2026-04-25T15:13:54.939Z</time></trkpt><trkpt lat="44.22168942268346" lon="10.63654192340684"><ele>762.0</ele><time>2026-04-25T15:13:55.939Z</time></trkpt><trkpt lat="44.22151070987901" lon="10.636456787740475"><ele>762.0</ele><time>2026-04-25T15:13:56.939Z</time></trkpt><trkpt lat="44.22133911201941" lon="10.636344612777929"><ele>762.0</ele><time>2026-04-25T15:13:57.939Z</time></trkpt><trkpt lat="44.221185668071136" lon="10.636168456547013"><ele>762.0</ele><time>2026-04-25T15:13:58.939Z</time></trkpt><trkpt lat="44.22102275917401" lon="10.635974383169097"><ele>762.0</ele><time>2026-04-25T15:13:59.939Z</time></trkpt><trkpt lat="44.2208632046367" lon="10.635832128695093"><ele>762.0</ele><time>2026-04-25T15:14:00.939Z</time></trkpt><trkpt lat="44.220716788292556" lon="10.63571658250791"><ele>762.0</ele><time>2026-04-25T15:14:01.939Z</time></trkpt><trkpt lat="44.2206179820852" lon="10.635579259067038"><ele>761.6666666666666</ele><time>2026-04-25T15:14:02.939Z</time></trkpt><trkpt lat="44.22057143371872" lon="10.635342874720948"><ele>761.3333333333333</ele><time>2026-04-25T15:14:03.939Z</time></trkpt><trkpt lat="44.22053289955482" lon="10.63507953180364"><ele>761.0</ele><time>2026-04-25T15:14:04.939Z</time></trkpt><trkpt lat="44.22046559012457" lon="10.634850161032267"><ele>761.0</ele><time>2026-04-25T15:14:05.939Z</time></trkpt><trkpt lat="44.220358517915294" lon="10.634672776676505"><ele>761.0</ele><time>2026-04-25T15:14:06.939Z</time></trkpt><trkpt lat="44.220218363993354" lon="10.63456155076008"><ele>761.0</ele><time>2026-04-25T15:14:07.939Z</time></trkpt><trkpt lat="44.22007223041437" lon="10.634502502342563"><ele>761.0</ele><time>2026-04-25T15:14:08.939Z</time></trkpt><trkpt lat="44.219853814360285" lon="10.634544922118621"><ele>761.0</ele><time>2026-04-25T15:14:09.939Z</time></trkpt><trkpt lat="44.21966278134468" lon="10.634595548771063"><ele>761.0</ele><time>2026-04-25T15:14:10.939Z</time></trkpt><trkpt lat="44.21950787817807" lon="10.634608939677786"><ele>764.6666666666666</ele><time>2026-04-25T15:14:11.939Z</time></trkpt><trkpt lat="44.21933713768339" lon="10.634491759504336"><ele>768.3333333333333</ele><time>2026-04-25T15:14:12.939Z</time></trkpt><trkpt lat="44.21915396469889" lon="10.63432862485865"><ele>772.0</ele><time>2026-04-25T15:14:13.939Z</time></trkpt><trkpt lat="44.218963353956724" lon="10.634294564918793"><ele>764.0</ele><time>2026-04-25T15:14:14.939Z</time></trkpt><trkpt lat="44.21875744459863" lon="10.634320377402744"><ele>756.0</ele><time>2026-04-25T15:14:15.939Z</time></trkpt><trkpt lat="44.218555541998406" lon="10.634338715907832"><ele>748.0</ele><time>2026-04-25T15:14:16.939Z</time></trkpt><trkpt lat="44.218364648034544" lon="10.634278451926694"><ele>748.0</ele><time>2026-04-25T15:14:17.939Z</time></trkpt><trkpt lat="44.21818694190812" lon="10.634183295389697"><ele>748.0</ele><time>2026-04-25T15:14:18.939Z</time></trkpt><trkpt lat="44.218028551373656" lon="10.634027403760143"><ele>748.0</ele><time>2026-04-25T15:14:19.939Z</time></trkpt><trkpt lat="44.2179007505729" lon="10.633805761395733"><ele>750.6666666666667</ele><time>2026-04-25T15:14:20.939Z</time></trkpt><trkpt lat="44.217794510820674" lon="10.633592304919395"><ele>753.3333333333334</ele><time>2026-04-25T15:14:21.939Z</time></trkpt><trkpt lat="44.21768623640346" lon="10.633413851696933"><ele>756.0</ele><time>2026-04-25T15:14:22.939Z</time></trkpt><trkpt lat="44.21758470327194" lon="10.633267477359444"><ele>756.0</ele><time>2026-04-25T15:14:23.939Z</time></trkpt><trkpt lat="44.21750938728041" lon="10.633150759652324"><ele>756.0</ele><time>2026-04-25T15:14:24.939Z</time></trkpt><trkpt lat="44.21741821049475" lon="10.63308433692964"><ele>756.0</ele><time>2026-04-25T15:14:25.939Z</time></trkpt><trkpt lat="44.217329565429985" lon="10.633039199360946"><ele>756.0</ele><time>2026-04-25T15:14:26.939Z</time></trkpt><trkpt lat="44.21724615919537" lon="10.632992299774441"><ele>756.0</ele><time>2026-04-25T15:14:27.939Z</time></trkpt><trkpt lat="44.217189091268864" lon="10.632918154768166"><ele>759.8333333333334</ele><time>2026-04-25T15:14:28.939Z</time></trkpt><trkpt lat="44.217154402548374" lon="10.63278811371745"><ele>763.6666666666667</ele><time>2026-04-25T15:14:29.939Z</time></trkpt><trkpt lat="44.21714345371166" lon="10.63266670436887"><ele>767.5</ele><time>2026-04-25T15:14:30.939Z</time></trkpt><trkpt lat="44.21711931228799" lon="10.632570668822378"><ele>771.3333333333334</ele><time>2026-04-25T15:14:31.939Z</time></trkpt><trkpt lat="44.2171041783511" lon="10.63247006531104"><ele>775.1666666666667</ele><time>2026-04-25T15:14:32.939Z</time></trkpt><trkpt lat="44.217067427146226" lon="10.632381825637054"><ele>779.0</ele><time>2026-04-25T15:14:33.939Z</time></trkpt><trkpt lat="44.2170270070662" lon="10.63227927772678"><ele>779.0</ele><time>2026-04-25T15:14:34.939Z</time></trkpt><trkpt lat="44.2169846677725" lon="10.632183953301128"><ele>779.0</ele><time>2026-04-25T15:14:35.939Z</time></trkpt><trkpt lat="44.216926145739315" lon="10.632071411098508"><ele>779.0</ele><time>2026-04-25T15:14:36.939Z</time></trkpt><trkpt lat="44.216871161029495" lon="10.631958444849328"><ele>779.0</ele><time>2026-04-25T15:14:37.939Z</time></trkpt><trkpt lat="44.216806550930364" lon="10.631847746374133"><ele>779.0</ele><time>2026-04-25T15:14:38.939Z</time></trkpt><trkpt lat="44.216717705699665" lon="10.631753453007613"><ele>776.75</ele><time>2026-04-25T15:14:39.939Z</time></trkpt><trkpt lat="44.21660593163321" lon="10.631666781643467"><ele>774.5</ele><time>2026-04-25T15:14:40.939Z</time></trkpt><trkpt lat="44.21649607704703" lon="10.63158693106601"><ele>772.25</ele><time>2026-04-25T15:14:41.939Z</time></trkpt><trkpt lat="44.216380571101084" lon="10.631510966699746"><ele>770.0</ele><time>2026-04-25T15:14:42.94Z</time></trkpt><trkpt lat="44.21628919605713" lon="10.631445087479598"><ele>770.0</ele><time>2026-04-25T15:14:43.94Z</time></trkpt><trkpt lat="44.21619057349675" lon="10.631372957493246"><ele>770.0</ele><time>2026-04-25T15:14:44.94Z</time></trkpt><trkpt lat="44.2161058198591" lon="10.631272146612881"><ele>770.0</ele><time>2026-04-25T15:14:45.94Z</time></trkpt><trkpt lat="44.21601845476263" lon="10.63114945396583"><ele>770.0</ele><time>2026-04-25T15:14:46.939Z</time></trkpt><trkpt lat="44.21593619930285" lon="10.631035398823915"><ele>763.8</ele><time>2026-04-25T15:14:47.939Z</time></trkpt><trkpt lat="44.21584644193756" lon="10.630948378454303"><ele>757.6</ele><time>2026-04-25T15:14:48.939Z</time></trkpt><trkpt lat="44.21574535234252" lon="10.630903233230388"><ele>751.4000000000001</ele><time>2026-04-25T15:14:49.939Z</time></trkpt><trkpt lat="44.21564702351348" lon="10.630871620488243"><ele>745.2</ele><time>2026-04-25T15:14:50.939Z</time></trkpt><trkpt lat="44.215555215858515" lon="10.630844097343047"><ele>739.0</ele><time>2026-04-25T15:14:51.94Z</time></trkpt><trkpt lat="44.21547068425152" lon="10.63082084946542"><ele>738.5</ele><time>2026-04-25T15:14:52.939Z</time></trkpt><trkpt lat="44.215393296475334" lon="10.630794682906604"><ele>738.0</ele><time>2026-04-25T15:14:53.939Z</time></trkpt><trkpt lat="44.21532935930391" lon="10.630769359237828"><ele>737.5</ele><time>2026-04-25T15:14:54.94Z</time></trkpt><trkpt lat="44.2152709257361" lon="10.63064347192443"><ele>737.0</ele><time>2026-04-25T15:14:56.939Z</time></trkpt><trkpt lat="44.215283913224845" lon="10.630553944886536"><ele>736.5</ele><time>2026-04-25T15:14:57.939Z</time></trkpt><trkpt lat="44.21529703105147" lon="10.630457047598872"><ele>736.0</ele><time>2026-04-25T15:14:58.939Z</time></trkpt><trkpt lat="44.21529946648306" lon="10.630356840054832"><ele>734.8333333333334</ele><time>2026-04-25T15:14:59.939Z</time></trkpt><trkpt lat="44.21530444420205" lon="10.63025703983422"><ele>733.6666666666667</ele><time>2026-04-25T15:15:00.939Z</time></trkpt><trkpt lat="44.21530277559533" lon="10.63015388876564"><ele>732.5</ele><time>2026-04-25T15:15:01.939Z</time></trkpt><trkpt lat="44.21530783584659" lon="10.630044829382951"><ele>731.3333333333334</ele><time>2026-04-25T15:15:02.939Z</time></trkpt><trkpt lat="44.21531362705984" lon="10.629920012825938"><ele>730.1666666666666</ele><time>2026-04-25T15:15:03.939Z</time></trkpt><trkpt lat="44.21531125355426" lon="10.629780205095848"><ele>729.0</ele><time>2026-04-25T15:15:04.939Z</time></trkpt><trkpt lat="44.21525939948994" lon="10.629647272244975"><ele>729.0</ele><time>2026-04-25T15:15:05.939Z</time></trkpt><trkpt lat="44.21518344396126" lon="10.62952970757613"><ele>729.0</ele><time>2026-04-25T15:15:06.939Z</time></trkpt><trkpt lat="44.215092116953564" lon="10.629412290538161"><ele>729.0</ele><time>2026-04-25T15:15:07.939Z</time></trkpt><trkpt lat="44.21498917297746" lon="10.62932497545773"><ele>729.0</ele><time>2026-04-25T15:15:08.939Z</time></trkpt><trkpt lat="44.214878031784856" lon="10.629276928389862"><ele>733.75</ele><time>2026-04-25T15:15:09.939Z</time></trkpt><trkpt lat="44.2147623669329" lon="10.629270192211344"><ele>738.5</ele><time>2026-04-25T15:15:10.939Z</time></trkpt><trkpt lat="44.21462754445417" lon="10.629279003050879"><ele>743.25</ele><time>2026-04-25T15:15:11.939Z</time></trkpt><trkpt lat="44.21448061844894" lon="10.629323167315514"><ele>748.0</ele><time>2026-04-25T15:15:12.939Z</time></trkpt><trkpt lat="44.21427118549308" lon="10.629397185049786"><ele>748.0</ele><time>2026-04-25T15:15:13.939Z</time></trkpt><trkpt lat="44.214015769975774" lon="10.629468434630628"><ele>748.0</ele><time>2026-04-25T15:15:14.939Z</time></trkpt><trkpt lat="44.21379751260365" lon="10.62953986131838"><ele>743.75</ele><time>2026-04-25T15:15:15.939Z</time></trkpt><trkpt lat="44.21362204060522" lon="10.629596459122984"><ele>739.5</ele><time>2026-04-25T15:15:16.939Z</time></trkpt><trkpt lat="44.21348035150525" lon="10.629648706296049"><ele>735.25</ele><time>2026-04-25T15:15:17.939Z</time></trkpt><trkpt lat="44.21336780812298" lon="10.62968376772624"><ele>731.0</ele><time>2026-04-25T15:15:18.939Z</time></trkpt><trkpt lat="44.21328506628564" lon="10.62969446784016"><ele>731.0</ele><time>2026-04-25T15:15:19.939Z</time></trkpt><trkpt lat="44.21320909494642" lon="10.629679100232048"><ele>731.0</ele><time>2026-04-25T15:15:20.939Z</time></trkpt><trkpt lat="44.21313432952226" lon="10.629618461365064"><ele>731.0</ele><time>2026-04-25T15:15:21.939Z</time></trkpt><trkpt lat="44.21306833711722" lon="10.629528869437701"><ele>731.0</ele><time>2026-04-25T15:15:22.939Z</time></trkpt><trkpt lat="44.213010512270074" lon="10.629433130863644"><ele>731.0</ele><time>2026-04-25T15:15:23.939Z</time></trkpt><trkpt lat="44.21294348419422" lon="10.629295708490389"><ele>734.6666666666666</ele><time>2026-04-25T15:15:24.939Z</time></trkpt><trkpt lat="44.21287180478112" lon="10.629111926102118"><ele>738.3333333333334</ele><time>2026-04-25T15:15:25.939Z</time></trkpt><trkpt lat="44.212788833640765" lon="10.628863668957864"><ele>742.0</ele><time>2026-04-25T15:15:26.939Z</time></trkpt><trkpt lat="44.21270821804048" lon="10.62860100797088"><ele>744.6666666666667</ele><time>2026-04-25T15:15:27.939Z</time></trkpt><trkpt lat="44.21261535441226" lon="10.628326774923112"><ele>747.3333333333334</ele><time>2026-04-25T15:15:28.939Z</time></trkpt><trkpt lat="44.21253584466521" lon="10.628041966482758"><ele>750.0</ele><time>2026-04-25T15:15:29.939Z</time></trkpt><trkpt lat="44.21242538020368" lon="10.62778696964757"><ele>750.3333333333334</ele><time>2026-04-25T15:15:30.939Z</time></trkpt><trkpt lat="44.21234034240582" lon="10.627546961615158"><ele>750.6666666666667</ele><time>2026-04-25T15:15:31.939Z</time></trkpt><trkpt lat="44.212249604611856" lon="10.627337236274924"><ele>751.0</ele><time>2026-04-25T15:15:32.939Z</time></trkpt><trkpt lat="44.21218102135898" lon="10.62711705626096"><ele>747.3333333333334</ele><time>2026-04-25T15:15:33.939Z</time></trkpt><trkpt lat="44.21215126643803" lon="10.626873072551582"><ele>743.6666666666666</ele><time>2026-04-25T15:15:34.939Z</time></trkpt><trkpt lat="44.21215838346009" lon="10.626612690645128"><ele>740.0</ele><time>2026-04-25T15:15:35.939Z</time></trkpt><trkpt lat="44.21219123896595" lon="10.626348120929883"><ele>737.6666666666666</ele><time>2026-04-25T15:15:36.939Z</time></trkpt><trkpt lat="44.21223513103427" lon="10.62607416198796"><ele>735.3333333333334</ele><time>2026-04-25T15:15:37.939Z</time></trkpt><trkpt lat="44.21228412535107" lon="10.625821090632197"><ele>733.0</ele><time>2026-04-25T15:15:38.939Z</time></trkpt><trkpt lat="44.21230096552599" lon="10.625579919662474"><ele>733.0</ele><time>2026-04-25T15:15:39.939Z</time></trkpt><trkpt lat="44.21230357218883" lon="10.625346953544135"><ele>733.0</ele><time>2026-04-25T15:15:40.939Z</time></trkpt><trkpt lat="44.21229085528676" lon="10.6251250015145"><ele>733.0</ele><time>2026-04-25T15:15:41.939Z</time></trkpt><trkpt lat="44.212261272496754" lon="10.62491539855756"><ele>732.75</ele><time>2026-04-25T15:15:42.939Z</time></trkpt><trkpt lat="44.21222597441251" lon="10.624719097666631"><ele>732.5</ele><time>2026-04-25T15:15:43.939Z</time></trkpt><trkpt lat="44.21218330525238" lon="10.624547555748757"><ele>732.25</ele><time>2026-04-25T15:15:44.939Z</time></trkpt><trkpt lat="44.21213925225121" lon="10.624389736300557"><ele>732.0</ele><time>2026-04-25T15:15:45.939Z</time></trkpt><trkpt lat="44.2120937594037" lon="10.624225569141519"><ele>734.0</ele><time>2026-04-25T15:15:46.939Z</time></trkpt><trkpt lat="44.21206332807094" lon="10.624055747753543"><ele>736.0</ele><time>2026-04-25T15:15:47.939Z</time></trkpt><trkpt lat="44.21200661230263" lon="10.623893514319912"><ele>738.0</ele><time>2026-04-25T15:15:48.939Z</time></trkpt><trkpt lat="44.21192536548698" lon="10.623737801309467"><ele>740.0</ele><time>2026-04-25T15:15:49.939Z</time></trkpt><trkpt lat="44.211810021830374" lon="10.623603572951529"><ele>738.3333333333333</ele><time>2026-04-25T15:15:50.939Z</time></trkpt><trkpt lat="44.21166508080799" lon="10.623492016313941"><ele>736.6666666666666</ele><time>2026-04-25T15:15:51.939Z</time></trkpt><trkpt lat="44.2115167905768" lon="10.62336556199383"><ele>735.0</ele><time>2026-04-25T15:15:52.939Z</time></trkpt><trkpt lat="44.211362497337014" lon="10.62324957104078"><ele>735.0</ele><time>2026-04-25T15:15:53.939Z</time></trkpt><trkpt lat="44.211217995650685" lon="10.623123807143227"><ele>735.0</ele><time>2026-04-25T15:15:54.939Z</time></trkpt><trkpt lat="44.21109970414782" lon="10.622931726669533"><ele>735.0</ele><time>2026-04-25T15:15:55.939Z</time></trkpt><trkpt lat="44.21099471996128" lon="10.622702584941866"><ele>736.0</ele><time>2026-04-25T15:15:56.939Z</time></trkpt><trkpt lat="44.21088789399781" lon="10.622457478544275"><ele>737.0</ele><time>2026-04-25T15:15:57.939Z</time></trkpt><trkpt lat="44.21076090491805" lon="10.622231522735621"><ele>738.0</ele><time>2026-04-25T15:15:58.939Z</time></trkpt><trkpt lat="44.21063030051052" lon="10.622004521993162"><ele>740.6666666666666</ele><time>2026-04-25T15:15:59.939Z</time></trkpt><trkpt lat="44.210495669963514" lon="10.621791614202605"><ele>743.3333333333333</ele><time>2026-04-25T15:16:00.939Z</time></trkpt><trkpt lat="44.2103552818644" lon="10.621603426631454"><ele>746.0</ele><time>2026-04-25T15:16:01.939Z</time></trkpt><trkpt lat="44.210209453711926" lon="10.621428801932371"><ele>746.0</ele><time>2026-04-25T15:16:02.939Z</time></trkpt><trkpt lat="44.21005352320885" lon="10.621266526552702"><ele>746.0</ele><time>2026-04-25T15:16:03.939Z</time></trkpt><trkpt lat="44.209900391292706" lon="10.621104700783908"><ele>746.0</ele><time>2026-04-25T15:16:04.939Z</time></trkpt><trkpt lat="44.20975531595985" lon="10.620926860920306"><ele>746.0</ele><time>2026-04-25T15:16:05.939Z</time></trkpt><trkpt lat="44.209617219249566" lon="10.620769900263385"><ele>746.0</ele><time>2026-04-25T15:16:06.939Z</time></trkpt><trkpt lat="44.209490425438496" lon="10.620630366448996"><ele>746.0</ele><time>2026-04-25T15:16:07.939Z</time></trkpt><trkpt lat="44.20937189909345" lon="10.62049934656899"><ele>746.0</ele><time>2026-04-25T15:16:08.939Z</time></trkpt><trkpt lat="44.20926260969844" lon="10.62038032540015"><ele>746.0</ele><time>2026-04-25T15:16:09.939Z</time></trkpt><trkpt lat="44.20915551331994" lon="10.620270874779118"><ele>746.0</ele><time>2026-04-25T15:16:10.939Z</time></trkpt><trkpt lat="44.209038726546616" lon="10.62016061169154"><ele>746.0</ele><time>2026-04-25T15:16:11.939Z</time></trkpt><trkpt lat="44.20892031826284" lon="10.62002662493373"><ele>749.0</ele><time>2026-04-25T15:16:12.939Z</time></trkpt><trkpt lat="44.20878890912633" lon="10.619900799646024"><ele>752.0</ele><time>2026-04-25T15:16:13.939Z</time></trkpt><trkpt lat="44.20865418496113" lon="10.619765982032625"><ele>755.0</ele><time>2026-04-25T15:16:14.939Z</time></trkpt><trkpt lat="44.208525954546836" lon="10.619636819147562"><ele>755.0</ele><time>2026-04-25T15:16:15.939Z</time></trkpt><trkpt lat="44.20841658038131" lon="10.61951315942681"><ele>755.0</ele><time>2026-04-25T15:16:16.939Z</time></trkpt><trkpt lat="44.208312392850125" lon="10.619399164519379"><ele>755.0</ele><time>2026-04-25T15:16:17.939Z</time></trkpt><trkpt lat="44.208213235125136" lon="10.619305227542887"><ele>755.0</ele><time>2026-04-25T15:16:18.939Z</time></trkpt><trkpt lat="44.20812450500071" lon="10.619207152070253"><ele>755.4</ele><time>2026-04-25T15:16:19.939Z</time></trkpt><trkpt lat="44.208045616292" lon="10.61910336356202"><ele>755.8</ele><time>2026-04-25T15:16:20.939Z</time></trkpt><trkpt lat="44.20798186000021" lon="10.618984709389533"><ele>756.2</ele><time>2026-04-25T15:16:21.939Z</time></trkpt><trkpt lat="44.20793435742138" lon="10.61885844963242"><ele>756.6</ele><time>2026-04-25T15:16:22.939Z</time></trkpt><trkpt lat="44.20790116648114" lon="10.618729912894802"><ele>757.0</ele><time>2026-04-25T15:16:23.939Z</time></trkpt><trkpt lat="44.207846118487" lon="10.618627935198592"><ele>760.0</ele><time>2026-04-25T15:16:24.939Z</time></trkpt><trkpt lat="44.20775795796702" lon="10.61856354817876"><ele>763.0</ele><time>2026-04-25T15:16:25.939Z</time></trkpt><trkpt lat="44.20767268773525" lon="10.618486608830953"><ele>766.0</ele><time>2026-04-25T15:16:26.939Z</time></trkpt><trkpt lat="44.20758000947674" lon="10.618448488175167"><ele>769.0</ele><time>2026-04-25T15:16:27.939Z</time></trkpt><trkpt lat="44.207465186524104" lon="10.618439321212032"><ele>772.0</ele><time>2026-04-25T15:16:28.939Z</time></trkpt><trkpt lat="44.20737146001833" lon="10.618391831710953"><ele>771.2</ele><time>2026-04-25T15:16:29.939Z</time></trkpt><trkpt lat="44.20726857368667" lon="10.618333241174449"><ele>770.4000000000001</ele><time>2026-04-25T15:16:30.939Z</time></trkpt><trkpt lat="44.207169183290276" lon="10.618257843378547"><ele>769.5999999999999</ele><time>2026-04-25T15:16:31.939Z</time></trkpt><trkpt lat="44.207069736179974" lon="10.618192156578571"><ele>768.8</ele><time>2026-04-25T15:16:32.939Z</time></trkpt><trkpt lat="44.206984313470016" lon="10.61812594342862"><ele>768.0</ele><time>2026-04-25T15:16:33.939Z</time></trkpt><trkpt lat="44.206903131599475" lon="10.618071078091528"><ele>768.0</ele><time>2026-04-25T15:16:34.939Z</time></trkpt><trkpt lat="44.20683632245797" lon="10.618005715636283"><ele>768.0</ele><time>2026-04-25T15:16:35.939Z</time></trkpt><trkpt lat="44.20677986433705" lon="10.617942436361487"><ele>768.0</ele><time>2026-04-25T15:16:36.939Z</time></trkpt><trkpt lat="44.20672709247672" lon="10.617889570895368"><ele>768.0</ele><time>2026-04-25T15:16:37.939Z</time></trkpt><trkpt lat="44.20667268298841" lon="10.617830952978053"><ele>768.0</ele><time>2026-04-25T15:16:38.939Z</time></trkpt><trkpt lat="44.20658303579016" lon="10.617731223422584"><ele>768.0</ele><time>2026-04-25T15:16:40.939Z</time></trkpt><trkpt lat="44.20651643816918" lon="10.617637830141682"><ele>769.5999999999999</ele><time>2026-04-25T15:16:42.939Z</time></trkpt><trkpt lat="44.20646894719555" lon="10.61757576523398"><ele>771.1999999999999</ele><time>2026-04-25T15:16:43.939Z</time></trkpt><trkpt lat="44.20639724810327" lon="10.617506529071838"><ele>772.8</ele><time>2026-04-25T15:16:44.939Z</time></trkpt><trkpt lat="44.20631236970877" lon="10.617424053480024"><ele>774.4</ele><time>2026-04-25T15:16:45.939Z</time></trkpt><trkpt lat="44.206231101995286" lon="10.617336976083411"><ele>776.0</ele><time>2026-04-25T15:16:46.939Z</time></trkpt><trkpt lat="44.20614713464462" lon="10.617257939698813"><ele>776.0000000000001</ele><time>2026-04-25T15:16:47.939Z</time></trkpt><trkpt lat="44.20608307474121" lon="10.617160992488774"><ele>776.0</ele><time>2026-04-25T15:16:48.94Z</time></trkpt><trkpt lat="44.2060334294712" lon="10.617081620435112"><ele>776.0</ele><time>2026-04-25T15:16:49.939Z</time></trkpt><trkpt lat="44.205968888569274" lon="10.61698090412333"><ele>776.0</ele><time>2026-04-25T15:16:52.939Z</time></trkpt><trkpt lat="44.20587717286153" lon="10.616954291172101"><ele>776.0000000000001</ele><time>2026-04-25T15:16:54.94Z</time></trkpt><trkpt lat="44.20581279402566" lon="10.616947646373351"><ele>776.0</ele><time>2026-04-25T15:17:01.939Z</time></trkpt><trkpt lat="44.20574601415787" lon="10.616932895830582"><ele>777.0</ele><time>2026-04-25T15:18:18.938Z</time></trkpt><trkpt lat="44.20566991158777" lon="10.616908024455656"><ele>778.0</ele><time>2026-04-25T15:18:20.938Z</time></trkpt><trkpt lat="44.20557313241409" lon="10.616887833437529"><ele>779.0</ele><time>2026-04-25T15:18:22.938Z</time></trkpt><trkpt lat="44.20547780508326" lon="10.616863138248823"><ele>780.0</ele><time>2026-04-25T15:18:24.938Z</time></trkpt><trkpt lat="44.20538323434962" lon="10.616836892642057"><ele>781.0</ele><time>2026-04-25T15:18:26.938Z</time></trkpt><trkpt lat="44.20526219787129" lon="10.61679393614712"><ele>780.9999999999999</ele><time>2026-04-25T15:18:28.938Z</time></trkpt><trkpt lat="44.20519775852286" lon="10.616779026064753"><ele>781.0</ele><time>2026-04-25T15:18:29.938Z</time></trkpt><trkpt lat="44.20508094597837" lon="10.616715343050934"><ele>781.0</ele><time>2026-04-25T15:18:31.938Z</time></trkpt><trkpt lat="44.20501562063768" lon="10.61669582230112"><ele>781.0</ele><time>2026-04-25T15:18:32.938Z</time></trkpt><trkpt lat="44.204949863503465" lon="10.616677560136605"><ele>780.9999999999999</ele><time>2026-04-25T15:18:33.938Z</time></trkpt><trkpt lat="44.20488598529658" lon="10.616660801718414"><ele>781.0</ele><time>2026-04-25T15:18:34.938Z</time></trkpt><trkpt lat="44.204782828806586" lon="10.61662567127646"><ele>781.2857142857143</ele><time>2026-04-25T15:18:36.938Z</time></trkpt><trkpt lat="44.20472052503701" lon="10.61660355885175"><ele>781.5714285714287</ele><time>2026-04-25T15:18:37.938Z</time></trkpt><trkpt lat="44.20465173144566" lon="10.616594746041187"><ele>781.8571428571429</ele><time>2026-04-25T15:18:38.938Z</time></trkpt><trkpt lat="44.20458699619853" lon="10.61657494650488"><ele>782.1428571428571</ele><time>2026-04-25T15:18:39.938Z</time></trkpt><trkpt lat="44.20452336098901" lon="10.616599610084831"><ele>782.4285714285714</ele><time>2026-04-25T15:18:40.938Z</time></trkpt><trkpt lat="44.204447577037506" lon="10.616601750278281"><ele>782.7142857142857</ele><time>2026-04-25T15:18:41.938Z</time></trkpt><trkpt lat="44.204375135544836" lon="10.616611415721813"><ele>783.0</ele><time>2026-04-25T15:18:42.938Z</time></trkpt><trkpt lat="44.204302220420516" lon="10.616636829232156"><ele>783.0</ele><time>2026-04-25T15:18:43.938Z</time></trkpt><trkpt lat="44.20423054584563" lon="10.616666317430452"><ele>783.0</ele><time>2026-04-25T15:18:44.938Z</time></trkpt><trkpt lat="44.20416078302142" lon="10.61670692346319"><ele>783.0</ele><time>2026-04-25T15:18:45.938Z</time></trkpt><trkpt lat="44.20408948987972" lon="10.616741819345242"><ele>783.0</ele><time>2026-04-25T15:18:46.938Z</time></trkpt><trkpt lat="44.2040253894054" lon="10.616786736366233"><ele>783.0</ele><time>2026-04-25T15:18:47.938Z</time></trkpt><trkpt lat="44.2039661120631" lon="10.61683122908611"><ele>783.0</ele><time>2026-04-25T15:18:48.938Z</time></trkpt><trkpt lat="44.20390827094959" lon="10.616868716928295"><ele>783.0</ele><time>2026-04-25T15:18:49.938Z</time></trkpt><trkpt lat="44.20384085340235" lon="10.616899444319994"><ele>782.5999999999999</ele><time>2026-04-25T15:18:50.938Z</time></trkpt><trkpt lat="44.20376204218974" lon="10.61694877284535"><ele>782.1999999999999</ele><time>2026-04-25T15:18:51.938Z</time></trkpt><trkpt lat="44.20367295061818" lon="10.617021556504282"><ele>781.8</ele><time>2026-04-25T15:18:52.938Z</time></trkpt><trkpt lat="44.203585052636136" lon="10.617083462892905"><ele>781.4</ele><time>2026-04-25T15:18:53.938Z</time></trkpt><trkpt lat="44.20348666681133" lon="10.617130638830082"><ele>781.0</ele><time>2026-04-25T15:18:54.939Z</time></trkpt><trkpt lat="44.203385577450675" lon="10.617151345888225"><ele>779.5999999999999</ele><time>2026-04-25T15:18:55.939Z</time></trkpt><trkpt lat="44.20329008343475" lon="10.617155082018058"><ele>778.2</ele><time>2026-04-25T15:18:56.939Z</time></trkpt><trkpt lat="44.20321528328803" lon="10.617103545287188"><ele>776.8</ele><time>2026-04-25T15:18:57.94Z</time></trkpt><trkpt lat="44.20315344655267" lon="10.617005143074024"><ele>775.4000000000001</ele><time>2026-04-25T15:18:58.939Z</time></trkpt><trkpt lat="44.20311283910469" lon="10.61689303294667"><ele>774.0</ele><time>2026-04-25T15:18:59.939Z</time></trkpt><trkpt lat="44.20307261038923" lon="10.616775334127396"><ele>773.0</ele><time>2026-04-25T15:19:00.94Z</time></trkpt><trkpt lat="44.20304571332516" lon="10.61664726675396"><ele>772.0</ele><time>2026-04-25T15:19:01.94Z</time></trkpt><trkpt lat="44.20302846668177" lon="10.61649900969904"><ele>771.0</ele><time>2026-04-25T15:19:02.94Z</time></trkpt><trkpt lat="44.20301021128193" lon="10.616344709148201"><ele>770.0</ele><time>2026-04-25T15:19:03.94Z</time></trkpt><trkpt lat="44.20297302387765" lon="10.616188648809786"><ele>769.0</ele><time>2026-04-25T15:19:04.94Z</time></trkpt><trkpt lat="44.20291840051203" lon="10.616035078463742"><ele>769.0</ele><time>2026-04-25T15:19:05.94Z</time></trkpt><trkpt lat="44.202846519318115" lon="10.615882250416922"><ele>769.0</ele><time>2026-04-25T15:19:06.939Z</time></trkpt><trkpt lat="44.20277297219809" lon="10.61573642560917"><ele>769.0</ele><time>2026-04-25T15:19:07.939Z</time></trkpt><trkpt lat="44.20271209708807" lon="10.615579360380774"><ele>769.0</ele><time>2026-04-25T15:19:08.939Z</time></trkpt><trkpt lat="44.20266591209391" lon="10.61541996640393"><ele>767.75</ele><time>2026-04-25T15:19:09.939Z</time></trkpt><trkpt lat="44.20261247022316" lon="10.615266415585712"><ele>766.5</ele><time>2026-04-25T15:19:10.939Z</time></trkpt><trkpt lat="44.20253679098076" lon="10.61513529570452"><ele>765.25</ele><time>2026-04-25T15:19:11.939Z</time></trkpt><trkpt lat="44.20243770463784" lon="10.615040126053392"><ele>764.0</ele><time>2026-04-25T15:19:12.939Z</time></trkpt><trkpt lat="44.20232033512599" lon="10.614987773267904"><ele>764.0</ele><time>2026-04-25T15:19:13.939Z</time></trkpt><trkpt lat="44.20219661598335" lon="10.614979047459057"><ele>764.0</ele><time>2026-04-25T15:19:14.939Z</time></trkpt><trkpt lat="44.20207825411753" lon="10.615012585127502"><ele>764.0</ele><time>2026-04-25T15:19:15.939Z</time></trkpt><trkpt lat="44.201951249800146" lon="10.615067668245466"><ele>764.0</ele><time>2026-04-25T15:19:16.939Z</time></trkpt><trkpt lat="44.20184570629892" lon="10.615069336073375"><ele>764.0</ele><time>2026-04-25T15:19:17.939Z</time></trkpt><trkpt lat="44.20173201923754" lon="10.615091768592151"><ele>764.0</ele><time>2026-04-25T15:19:18.939Z</time></trkpt><trkpt lat="44.2016257499178" lon="10.615112730907637"><ele>764.0</ele><time>2026-04-25T15:19:19.939Z</time></trkpt><trkpt lat="44.201518562110756" lon="10.615134852671073"><ele>764.0</ele><time>2026-04-25T15:19:20.939Z</time></trkpt><trkpt lat="44.20141502047174" lon="10.615156060374808"><ele>764.0</ele><time>2026-04-25T15:19:21.939Z</time></trkpt><trkpt lat="44.20131730698904" lon="10.615183884731627"><ele>767.6</ele><time>2026-04-25T15:19:22.939Z</time></trkpt><trkpt lat="44.20122052222167" lon="10.615201224665672"><ele>771.2</ele><time>2026-04-25T15:19:23.939Z</time></trkpt><trkpt lat="44.201128415312006" lon="10.615171061446075"><ele>774.8000000000001</ele><time>2026-04-25T15:19:24.939Z</time></trkpt><trkpt lat="44.201050693630634" lon="10.615095837985677"><ele>778.4000000000001</ele><time>2026-04-25T15:19:25.939Z</time></trkpt><trkpt lat="44.20099488469943" lon="10.614986834319408"><ele>782.0</ele><time>2026-04-25T15:19:26.939Z</time></trkpt><trkpt lat="44.20094888129123" lon="10.61485633473074"><ele>782.0</ele><time>2026-04-25T15:19:27.939Z</time></trkpt><trkpt lat="44.20090871233547" lon="10.614721771295768"><ele>782.0</ele><time>2026-04-25T15:19:28.939Z</time></trkpt><trkpt lat="44.20087236957762" lon="10.614581894376288"><ele>782.0</ele><time>2026-04-25T15:19:29.939Z</time></trkpt><trkpt lat="44.200833752255406" lon="10.614438678550028"><ele>782.0</ele><time>2026-04-25T15:19:30.939Z</time></trkpt><trkpt lat="44.20079369642005" lon="10.614296421262639"><ele>782.0</ele><time>2026-04-25T15:19:31.939Z</time></trkpt><trkpt lat="44.20074901553532" lon="10.614146453464787"><ele>781.5</ele><time>2026-04-25T15:19:32.939Z</time></trkpt><trkpt lat="44.20071498257327" lon="10.61398985279795"><ele>781.0</ele><time>2026-04-25T15:19:33.939Z</time></trkpt><trkpt lat="44.20070143203187" lon="10.613819944690217"><ele>780.5</ele><time>2026-04-25T15:19:34.939Z</time></trkpt><trkpt lat="44.200702842959465" lon="10.613654174697242"><ele>780.0</ele><time>2026-04-25T15:19:35.939Z</time></trkpt><trkpt lat="44.20072066708583" lon="10.613487689798426"><ele>779.6</ele><time>2026-04-25T15:19:36.939Z</time></trkpt><trkpt lat="44.20075465205326" lon="10.613341207654916"><ele>779.2</ele><time>2026-04-25T15:19:37.939Z</time></trkpt><trkpt lat="44.200779070101085" lon="10.613214630691447"><ele>778.8</ele><time>2026-04-25T15:19:38.939Z</time></trkpt><trkpt lat="44.200767884908984" lon="10.613092994797153"><ele>778.4</ele><time>2026-04-25T15:19:39.939Z</time></trkpt><trkpt lat="44.20073131282454" lon="10.612992618436415"><ele>778.0</ele><time>2026-04-25T15:19:40.939Z</time></trkpt><trkpt lat="44.20066755112781" lon="10.612907586710653"><ele>781.1666666666666</ele><time>2026-04-25T15:19:41.939Z</time></trkpt><trkpt lat="44.20060163031028" lon="10.612832693153726"><ele>784.3333333333333</ele><time>2026-04-25T15:19:42.939Z</time></trkpt><trkpt lat="44.20052940687522" lon="10.612756967463486"><ele>787.5</ele><time>2026-04-25T15:19:43.939Z</time></trkpt><trkpt lat="44.20047062740621" lon="10.612664465923833"><ele>790.6666666666667</ele><time>2026-04-25T15:19:44.939Z</time></trkpt><trkpt lat="44.200423798463376" lon="10.612557566523895"><ele>793.8333333333334</ele><time>2026-04-25T15:19:45.939Z</time></trkpt><trkpt lat="44.20038671328152" lon="10.612438771615443"><ele>797.0</ele><time>2026-04-25T15:19:46.939Z</time></trkpt><trkpt lat="44.200362963022144" lon="10.612310931813404"><ele>797.0</ele><time>2026-04-25T15:19:47.939Z</time></trkpt><trkpt lat="44.2003595750307" lon="10.612174951532285"><ele>797.0</ele><time>2026-04-25T15:19:48.939Z</time></trkpt><trkpt lat="44.20035986467627" lon="10.612025060104127"><ele>797.0</ele><time>2026-04-25T15:19:49.939Z</time></trkpt><trkpt lat="44.20037545761473" lon="10.611895116418195"><ele>797.0</ele><time>2026-04-25T15:19:50.939Z</time></trkpt><trkpt lat="44.20037972833989" lon="10.611789894311338"><ele>797.0</ele><time>2026-04-25T15:19:51.939Z</time></trkpt><trkpt lat="44.20035891539375" lon="10.611679601531144"><ele>795.6666666666667</ele><time>2026-04-25T15:19:52.939Z</time></trkpt><trkpt lat="44.20029685648805" lon="10.611538633516671"><ele>794.3333333333333</ele><time>2026-04-25T15:19:53.939Z</time></trkpt><trkpt lat="44.20020981191416" lon="10.611332058810778"><ele>793.0</ele><time>2026-04-25T15:19:54.939Z</time></trkpt><trkpt lat="44.20010587129707" lon="10.611058843424308"><ele>792.0</ele><time>2026-04-25T15:19:55.939Z</time></trkpt><trkpt lat="44.19998399706114" lon="10.610802733947635"><ele>791.0</ele><time>2026-04-25T15:19:56.939Z</time></trkpt><trkpt lat="44.19987591499889" lon="10.610602339080133"><ele>790.0</ele><time>2026-04-25T15:19:57.939Z</time></trkpt><trkpt lat="44.19975090599899" lon="10.610455098195333"><ele>792.3333333333333</ele><time>2026-04-25T15:19:58.939Z</time></trkpt><trkpt lat="44.199591105487826" lon="10.610377777097844"><ele>794.6666666666667</ele><time>2026-04-25T15:19:59.939Z</time></trkpt><trkpt lat="44.19941078072208" lon="10.610307360720784"><ele>797.0</ele><time>2026-04-25T15:20:00.939Z</time></trkpt><trkpt lat="44.199221681334315" lon="10.610237600732567"><ele>797.0</ele><time>2026-04-25T15:20:01.939Z</time></trkpt><trkpt lat="44.19901647005675" lon="10.610220633040909"><ele>797.0</ele><time>2026-04-25T15:20:02.939Z</time></trkpt><trkpt lat="44.198814895023396" lon="10.610224352715305"><ele>797.0</ele><time>2026-04-25T15:20:03.939Z</time></trkpt><trkpt lat="44.1986350899657" lon="10.610219398242174"><ele>800.6666666666667</ele><time>2026-04-25T15:20:04.939Z</time></trkpt><trkpt lat="44.19848547450147" lon="10.610182404527333"><ele>804.3333333333333</ele><time>2026-04-25T15:20:05.939Z</time></trkpt><trkpt lat="44.19834354022607" lon="10.610054609721642"><ele>808.0</ele><time>2026-04-25T15:20:06.939Z</time></trkpt><trkpt lat="44.19820761109333" lon="10.609903758300481"><ele>810.6666666666666</ele><time>2026-04-25T15:20:07.939Z</time></trkpt><trkpt lat="44.19807549884993" lon="10.609767701212082"><ele>813.3333333333333</ele><time>2026-04-25T15:20:08.939Z</time></trkpt><trkpt lat="44.197936589007725" lon="10.609646924604224"><ele>816.0</ele><time>2026-04-25T15:20:09.939Z</time></trkpt><trkpt lat="44.19779783053606" lon="10.609527212326567"><ele>815.3333333333333</ele><time>2026-04-25T15:20:10.939Z</time></trkpt><trkpt lat="44.19765245773866" lon="10.609415317905743"><ele>814.6666666666666</ele><time>2026-04-25T15:20:11.939Z</time></trkpt><trkpt lat="44.19750743752177" lon="10.60929313021191"><ele>814.0</ele><time>2026-04-25T15:20:12.939Z</time></trkpt><trkpt lat="44.197363461345674" lon="10.609149677854411"><ele>817.3333333333333</ele><time>2026-04-25T15:20:13.939Z</time></trkpt><trkpt lat="44.197227258171736" lon="10.609003385399484"><ele>820.6666666666667</ele><time>2026-04-25T15:20:14.939Z</time></trkpt><trkpt lat="44.19710087846605" lon="10.608831155121392"><ele>824.0</ele><time>2026-04-25T15:20:15.939Z</time></trkpt><trkpt lat="44.196977031974875" lon="10.608656629511916"><ele>824.0</ele><time>2026-04-25T15:20:16.939Z</time></trkpt><trkpt lat="44.196843128537594" lon="10.608480548234821"><ele>824.0</ele><time>2026-04-25T15:20:17.939Z</time></trkpt><trkpt lat="44.19670723080916" lon="10.608305463139256"><ele>824.0</ele><time>2026-04-25T15:20:18.939Z</time></trkpt><trkpt lat="44.19657866170024" lon="10.608117435140727"><ele>833.0</ele><time>2026-04-25T15:20:19.939Z</time></trkpt><trkpt lat="44.196466552291696" lon="10.607906361354898"><ele>842.0</ele><time>2026-04-25T15:20:20.939Z</time></trkpt><trkpt lat="44.19635997857217" lon="10.607681628257383"><ele>851.0</ele><time>2026-04-25T15:20:21.939Z</time></trkpt><trkpt lat="44.19625200029257" lon="10.607451978940865"><ele>851.0</ele><time>2026-04-25T15:20:22.939Z</time></trkpt><trkpt lat="44.19613506322286" lon="10.607229960996824"><ele>851.0</ele><time>2026-04-25T15:20:23.939Z</time></trkpt><trkpt lat="44.196012897499855" lon="10.607010406875888"><ele>851.0</ele><time>2026-04-25T15:20:24.939Z</time></trkpt><trkpt lat="44.19588074303178" lon="10.6068052481191"><ele>849.3333333333334</ele><time>2026-04-25T15:20:25.939Z</time></trkpt><trkpt lat="44.195773715691324" lon="10.606632441324459"><ele>847.6666666666667</ele><time>2026-04-25T15:20:26.939Z</time></trkpt><trkpt lat="44.19566064692441" lon="10.606522744884757"><ele>846.0</ele><time>2026-04-25T15:20:27.939Z</time></trkpt><trkpt lat="44.19550899415824" lon="10.606495088004806"><ele>846.0</ele><time>2026-04-25T15:20:28.939Z</time></trkpt><trkpt lat="44.195322867986945" lon="10.606526868837069"><ele>846.0</ele><time>2026-04-25T15:20:29.939Z</time></trkpt><trkpt lat="44.19509210550461" lon="10.606568764277338"><ele>846.0</ele><time>2026-04-25T15:20:30.939Z</time></trkpt><trkpt lat="44.194895161255495" lon="10.606573194144334"><ele>851.5</ele><time>2026-04-25T15:20:31.939Z</time></trkpt><trkpt lat="44.19474020874165" lon="10.60654730930078"><ele>857.0</ele><time>2026-04-25T15:20:32.939Z</time></trkpt><trkpt lat="44.19462238328872" lon="10.606475245685404"><ele>862.5</ele><time>2026-04-25T15:20:33.939Z</time></trkpt><trkpt lat="44.19455668746797" lon="10.606307061706127"><ele>868.0</ele><time>2026-04-25T15:20:34.939Z</time></trkpt><trkpt lat="44.194547639199136" lon="10.606090672108289"><ele>868.0</ele><time>2026-04-25T15:20:35.939Z</time></trkpt><trkpt lat="44.19463847223518" lon="10.605841681059795"><ele>868.0</ele><time>2026-04-25T15:20:36.939Z</time></trkpt><trkpt lat="44.194694518347156" lon="10.605629433525472"><ele>868.0</ele><time>2026-04-25T15:20:37.939Z</time></trkpt><trkpt lat="44.19472211315451" lon="10.605432327605882"><ele>870.6666666666666</ele><time>2026-04-25T15:20:38.939Z</time></trkpt><trkpt lat="44.19470265945951" lon="10.605216748994465"><ele>873.3333333333333</ele><time>2026-04-25T15:20:39.939Z</time></trkpt><trkpt lat="44.19463179656162" lon="10.604981944714458"><ele>876.0</ele><time>2026-04-25T15:20:40.939Z</time></trkpt><trkpt lat="44.19462222633653" lon="10.60472642724042"><ele>877.0</ele><time>2026-04-25T15:20:41.939Z</time></trkpt><trkpt lat="44.19467118404551" lon="10.604480554037506"><ele>878.0</ele><time>2026-04-25T15:20:42.939Z</time></trkpt><trkpt lat="44.19470345583348" lon="10.60425628028711"><ele>879.0</ele><time>2026-04-25T15:20:43.939Z</time></trkpt><trkpt lat="44.19468944191417" lon="10.604074858184154"><ele>879.0</ele><time>2026-04-25T15:20:44.939Z</time></trkpt><trkpt lat="44.194636459803135" lon="10.603905541338937"><ele>879.0</ele><time>2026-04-25T15:20:45.939Z</time></trkpt><trkpt lat="44.194538536171564" lon="10.603796311176565"><ele>879.0</ele><time>2026-04-25T15:20:46.939Z</time></trkpt><trkpt lat="44.19441104348997" lon="10.603708852039992"><ele>879.0</ele><time>2026-04-25T15:20:47.939Z</time></trkpt><trkpt lat="44.19433494492327" lon="10.60358558567368"><ele>878.5</ele><time>2026-04-25T15:20:48.939Z</time></trkpt><trkpt lat="44.1943494936665" lon="10.60345413376783"><ele>878.0</ele><time>2026-04-25T15:20:49.939Z</time></trkpt><trkpt lat="44.19441056812927" lon="10.603317255164072"><ele>877.5</ele><time>2026-04-25T15:20:50.938Z</time></trkpt><trkpt lat="44.19452789468553" lon="10.603210159091624"><ele>877.0</ele><time>2026-04-25T15:20:51.938Z</time></trkpt><trkpt lat="44.19461957766314" lon="10.603095769629187"><ele>877.0</ele><time>2026-04-25T15:20:52.938Z</time></trkpt><trkpt lat="44.1946579476757" lon="10.60296571198947"><ele>877.0</ele><time>2026-04-25T15:20:53.938Z</time></trkpt><trkpt lat="44.19464836769826" lon="10.60282547126295"><ele>877.0</ele><time>2026-04-25T15:20:54.938Z</time></trkpt><trkpt lat="44.194584414500795" lon="10.602640322543936"><ele>877.0</ele><time>2026-04-25T15:20:55.938Z</time></trkpt><trkpt lat="44.19452393518361" lon="10.602455398764326"><ele>880.0</ele><time>2026-04-25T15:20:56.938Z</time></trkpt><trkpt lat="44.19451628697632" lon="10.602269435196394"><ele>883.0</ele><time>2026-04-25T15:20:57.938Z</time></trkpt><trkpt lat="44.19457412803041" lon="10.602103707685279"><ele>886.0</ele><time>2026-04-25T15:20:58.938Z</time></trkpt><trkpt lat="44.19465782540675" lon="10.601960034312397"><ele>889.0</ele><time>2026-04-25T15:20:59.938Z</time></trkpt><trkpt lat="44.19471741130321" lon="10.601817862102298"><ele>888.6</ele><time>2026-04-25T15:21:00.939Z</time></trkpt><trkpt lat="44.194758430177735" lon="10.601698390816964"><ele>888.2</ele><time>2026-04-25T15:21:01.939Z</time></trkpt><trkpt lat="44.194771010801524" lon="10.601550568916652"><ele>887.8000000000001</ele><time>2026-04-25T15:21:02.939Z</time></trkpt><trkpt lat="44.19477958078324" lon="10.601391597353912"><ele>887.4000000000001</ele><time>2026-04-25T15:21:03.939Z</time></trkpt><trkpt lat="44.1947880600506" lon="10.601268650494847"><ele>887.0</ele><time>2026-04-25T15:21:04.939Z</time></trkpt><trkpt lat="44.194842644876516" lon="10.60116464593367"><ele>887.0000000000001</ele><time>2026-04-25T15:21:05.939Z</time></trkpt><trkpt lat="44.19491754897085" lon="10.601095686751231"><ele>887.0</ele><time>2026-04-25T15:21:06.94Z</time></trkpt><trkpt lat="44.19499908309872" lon="10.601071666069245"><ele>887.0</ele><time>2026-04-25T15:21:07.939Z</time></trkpt><trkpt lat="44.195095028728296" lon="10.60108022379339"><ele>887.0</ele><time>2026-04-25T15:21:08.939Z</time></trkpt><trkpt lat="44.195180282584715" lon="10.601086369050037"><ele>887.0000000000001</ele><time>2026-04-25T15:21:09.939Z</time></trkpt><trkpt lat="44.195267700516325" lon="10.601048457058157"><ele>887.0</ele><time>2026-04-25T15:21:10.939Z</time></trkpt><trkpt lat="44.195363205028904" lon="10.60097225383194"><ele>887.0</ele><time>2026-04-25T15:21:11.939Z</time></trkpt><trkpt lat="44.195438501251715" lon="10.600870134210314"><ele>887.0</ele><time>2026-04-25T15:21:12.939Z</time></trkpt><trkpt lat="44.19549235335086" lon="10.600757367794124"><ele>887.0</ele><time>2026-04-25T15:21:13.939Z</time></trkpt><trkpt lat="44.195529611380714" lon="10.600618670743694"><ele>887.0</ele><time>2026-04-25T15:21:14.939Z</time></trkpt><trkpt lat="44.19553378885654" lon="10.600480851370984"><ele>887.0</ele><time>2026-04-25T15:21:15.939Z</time></trkpt><trkpt lat="44.195509943363504" lon="10.600339941182485"><ele>890.6666666666667</ele><time>2026-04-25T15:21:16.939Z</time></trkpt><trkpt lat="44.195443308406446" lon="10.600144289101452"><ele>894.3333333333333</ele><time>2026-04-25T15:21:17.939Z</time></trkpt><trkpt lat="44.195384340341214" lon="10.599901643616995"><ele>898.0</ele><time>2026-04-25T15:21:18.939Z</time></trkpt><trkpt lat="44.19528702361139" lon="10.599640851600398"><ele>895.3333333333333</ele><time>2026-04-25T15:21:19.939Z</time></trkpt><trkpt lat="44.19516821633692" lon="10.599399174676577"><ele>892.6666666666667</ele><time>2026-04-25T15:21:20.939Z</time></trkpt><trkpt lat="44.19499668723745" lon="10.599178308764573"><ele>890.0</ele><time>2026-04-25T15:21:21.939Z</time></trkpt><trkpt lat="44.19479353822941" lon="10.59894972582045"><ele>904.0</ele><time>2026-04-25T15:21:22.939Z</time></trkpt><trkpt lat="44.19459988771829" lon="10.59871205245722"><ele>918.0</ele><time>2026-04-25T15:21:23.939Z</time></trkpt><trkpt lat="44.19444409746576" lon="10.59853218216796"><ele>918.0</ele><time>2026-04-25T15:21:24.939Z</time></trkpt><trkpt lat="44.194311440068084" lon="10.598330876480476"><ele>918.0</ele><time>2026-04-25T15:21:25.939Z</time></trkpt><trkpt lat="44.19422468322589" lon="10.59808138050603"><ele>918.0</ele><time>2026-04-25T15:21:26.939Z</time></trkpt><trkpt lat="44.1941845020966" lon="10.59780513834221"><ele>914.6666666666667</ele><time>2026-04-25T15:21:27.939Z</time></trkpt><trkpt lat="44.194169336120524" lon="10.597557539690607"><ele>911.3333333333334</ele><time>2026-04-25T15:21:28.939Z</time></trkpt><trkpt lat="44.19420351396193" lon="10.597320873520218"><ele>908.0</ele><time>2026-04-25T15:21:29.939Z</time></trkpt><trkpt lat="44.1942726971249" lon="10.597062534018043"><ele>909.3333333333334</ele><time>2026-04-25T15:21:30.939Z</time></trkpt><trkpt lat="44.194355503620976" lon="10.596806156540675"><ele>910.6666666666667</ele><time>2026-04-25T15:21:31.939Z</time></trkpt><trkpt lat="44.19436914564461" lon="10.596514231353133"><ele>912.0</ele><time>2026-04-25T15:21:32.939Z</time></trkpt><trkpt lat="44.19436127539571" lon="10.596220373826451"><ele>912.6666666666667</ele><time>2026-04-25T15:21:33.939Z</time></trkpt><trkpt lat="44.1943429868609" lon="10.59592184847108"><ele>913.3333333333334</ele><time>2026-04-25T15:21:34.939Z</time></trkpt><trkpt lat="44.19433772522196" lon="10.59563235111861"><ele>914.0</ele><time>2026-04-25T15:21:35.939Z</time></trkpt><trkpt lat="44.194340862353904" lon="10.595381291224097"><ele>914.5</ele><time>2026-04-25T15:21:36.939Z</time></trkpt><trkpt lat="44.1943428938908" lon="10.595165263026493"><ele>915.0</ele><time>2026-04-25T15:21:37.939Z</time></trkpt><trkpt lat="44.19434362690953" lon="10.594972019925226"><ele>915.5</ele><time>2026-04-25T15:21:38.939Z</time></trkpt><trkpt lat="44.19434968890239" lon="10.59479169207878"><ele>916.0</ele><time>2026-04-25T15:21:39.939Z</time></trkpt><trkpt lat="44.19432183932341" lon="10.594598344606512"><ele>913.75</ele><time>2026-04-25T15:21:40.939Z</time></trkpt><trkpt lat="44.194255685778664" lon="10.594423725781729"><ele>911.5</ele><time>2026-04-25T15:21:41.939Z</time></trkpt><trkpt lat="44.19416382542921" lon="10.594263722156818"><ele>909.25</ele><time>2026-04-25T15:21:42.939Z</time></trkpt><trkpt lat="44.19406284609864" lon="10.59412843266418"><ele>907.0</ele><time>2026-04-25T15:21:43.939Z</time></trkpt><trkpt lat="44.19394711554682" lon="10.594016413715174"><ele>914.0</ele><time>2026-04-25T15:21:44.939Z</time></trkpt><trkpt lat="44.19384744773169" lon="10.593903786377112"><ele>921.0</ele><time>2026-04-25T15:21:45.939Z</time></trkpt><trkpt lat="44.19374792140012" lon="10.593793589804699"><ele>928.0</ele><time>2026-04-25T15:21:46.939Z</time></trkpt><trkpt lat="44.19365350445318" lon="10.59366944611114"><ele>935.0</ele><time>2026-04-25T15:21:47.939Z</time></trkpt><trkpt lat="44.19359019602199" lon="10.593513582032406"><ele>935.0</ele><time>2026-04-25T15:21:48.939Z</time></trkpt><trkpt lat="44.193570094663514" lon="10.593320004320606"><ele>935.0</ele><time>2026-04-25T15:21:49.939Z</time></trkpt><trkpt lat="44.19357048427932" lon="10.59307579607137"><ele>935.0</ele><time>2026-04-25T15:21:50.939Z</time></trkpt><trkpt lat="44.193550406044096" lon="10.592770642624368"><ele>933.5</ele><time>2026-04-25T15:21:51.938Z</time></trkpt><trkpt lat="44.19349518314" lon="10.592445844925912"><ele>932.0</ele><time>2026-04-25T15:21:52.938Z</time></trkpt><trkpt lat="44.19345091145761" lon="10.592089426690086"><ele>930.6666666666667</ele><time>2026-04-25T15:21:53.938Z</time></trkpt><trkpt lat="44.19344675987258" lon="10.591774350562902"><ele>929.3333333333333</ele><time>2026-04-25T15:21:54.938Z</time></trkpt><trkpt lat="44.193465350573554" lon="10.591508071035097"><ele>928.0</ele><time>2026-04-25T15:21:55.938Z</time></trkpt><trkpt lat="44.193423278531746" lon="10.59128122345074"><ele>932.6666666666666</ele><time>2026-04-25T15:21:56.938Z</time></trkpt><trkpt lat="44.193324027231036" lon="10.591080117819574"><ele>937.3333333333333</ele><time>2026-04-25T15:21:57.938Z</time></trkpt><trkpt lat="44.193202208882326" lon="10.590929570860451"><ele>942.0</ele><time>2026-04-25T15:21:58.938Z</time></trkpt><trkpt lat="44.193045686570876" lon="10.590822601393308"><ele>942.0</ele><time>2026-04-25T15:21:59.938Z</time></trkpt><trkpt lat="44.19284470575965" lon="10.590761927507918"><ele>942.0</ele><time>2026-04-25T15:22:00.938Z</time></trkpt><trkpt lat="44.19261803255123" lon="10.590701135139824"><ele>942.0</ele><time>2026-04-25T15:22:01.938Z</time></trkpt><trkpt lat="44.192438693004675" lon="10.590589142138265"><ele>946.5</ele><time>2026-04-25T15:22:02.938Z</time></trkpt><trkpt lat="44.19229757292812" lon="10.590456746720292"><ele>951.0</ele><time>2026-04-25T15:22:03.938Z</time></trkpt><trkpt lat="44.192189594577975" lon="10.59038468563608"><ele>955.5</ele><time>2026-04-25T15:22:04.938Z</time></trkpt><trkpt lat="44.19207895023463" lon="10.590345588252964"><ele>960.0</ele><time>2026-04-25T15:22:05.938Z</time></trkpt><trkpt lat="44.19198451154655" lon="10.590299226907726"><ele>960.0</ele><time>2026-04-25T15:22:06.938Z</time></trkpt><trkpt lat="44.191924098564705" lon="10.590252252052016"><ele>960.0</ele><time>2026-04-25T15:22:07.938Z</time></trkpt><trkpt lat="44.19186430026378" lon="10.590192003252925"><ele>960.0</ele><time>2026-04-25T15:22:08.938Z</time></trkpt><trkpt lat="44.19189950349569" lon="10.590069812660337"><ele>960.0</ele><time>2026-04-25T15:22:09.938Z</time></trkpt><trkpt lat="44.19190470818302" lon="10.58985909442382"><ele>960.0</ele><time>2026-04-25T15:22:10.938Z</time></trkpt><trkpt lat="44.19191710830759" lon="10.589657072236312"><ele>957.6666666666667</ele><time>2026-04-25T15:22:11.938Z</time></trkpt><trkpt lat="44.19189055258309" lon="10.589429048802032"><ele>955.3333333333334</ele><time>2026-04-25T15:22:12.938Z</time></trkpt><trkpt lat="44.191866664328415" lon="10.589173689058816"><ele>953.0</ele><time>2026-04-25T15:22:13.938Z</time></trkpt><trkpt lat="44.19183443420567" lon="10.588909061478242"><ele>953.0</ele><time>2026-04-25T15:22:14.938Z</time></trkpt><trkpt lat="44.1918411455675" lon="10.588684851321503"><ele>953.0</ele><time>2026-04-25T15:22:15.938Z</time></trkpt><trkpt lat="44.191808136732426" lon="10.58851729839442"><ele>953.0</ele><time>2026-04-25T15:22:16.938Z</time></trkpt><trkpt lat="44.19171892117851" lon="10.588373794325596"><ele>953.0</ele><time>2026-04-25T15:22:17.938Z</time></trkpt><trkpt lat="44.19160018887802" lon="10.588234892353885"><ele>960.3333333333334</ele><time>2026-04-25T15:22:18.938Z</time></trkpt><trkpt lat="44.19140387960058" lon="10.588087391338592"><ele>967.6666666666667</ele><time>2026-04-25T15:22:19.938Z</time></trkpt><trkpt lat="44.19122839321167" lon="10.587951224557328"><ele>975.0</ele><time>2026-04-25T15:22:20.938Z</time></trkpt><trkpt lat="44.19110273659906" lon="10.587818983582137"><ele>975.0</ele><time>2026-04-25T15:22:21.938Z</time></trkpt><trkpt lat="44.19104293180751" lon="10.587702614899166"><ele>975.0</ele><time>2026-04-25T15:22:22.938Z</time></trkpt><trkpt lat="44.19104974546873" lon="10.587530679314192"><ele>975.0</ele><time>2026-04-25T15:22:23.938Z</time></trkpt><trkpt lat="44.19112093019956" lon="10.587353095068735"><ele>975.0</ele><time>2026-04-25T15:22:24.938Z</time></trkpt><trkpt lat="44.19127196990667" lon="10.587206060764357"><ele>975.0</ele><time>2026-04-25T15:22:25.938Z</time></trkpt><trkpt lat="44.19145756085777" lon="10.587092240281446"><ele>975.0</ele><time>2026-04-25T15:22:26.938Z</time></trkpt><trkpt lat="44.19162146707954" lon="10.586976461529378"><ele>975.0</ele><time>2026-04-25T15:22:27.938Z</time></trkpt><trkpt lat="44.191753667593225" lon="10.586808803477211"><ele>970.3333333333333</ele><time>2026-04-25T15:22:28.938Z</time></trkpt><trkpt lat="44.19182278008295" lon="10.58658455046078"><ele>965.6666666666666</ele><time>2026-04-25T15:22:29.938Z</time></trkpt><trkpt lat="44.19181417478992" lon="10.586326504481315"><ele>961.0</ele><time>2026-04-25T15:22:30.938Z</time></trkpt><trkpt lat="44.19176673391465" lon="10.58602428846416"><ele>961.0</ele><time>2026-04-25T15:22:31.938Z</time></trkpt><trkpt lat="44.191705372675194" lon="10.585686007064648"><ele>961.0</ele><time>2026-04-25T15:22:32.938Z</time></trkpt><trkpt lat="44.19164870809552" lon="10.58534934719176"><ele>956.5</ele><time>2026-04-25T15:22:33.938Z</time></trkpt><trkpt lat="44.191584580135235" lon="10.585062927125186"><ele>952.0</ele><time>2026-04-25T15:22:34.938Z</time></trkpt><trkpt lat="44.191454555068795" lon="10.58478548552607"><ele>961.0</ele><time>2026-04-25T15:22:35.938Z</time></trkpt><trkpt lat="44.19127977070289" lon="10.584506983452698"><ele>970.0</ele><time>2026-04-25T15:22:36.938Z</time></trkpt><trkpt lat="44.19112908447485" lon="10.584259536369515"><ele>970.0</ele><time>2026-04-25T15:22:37.938Z</time></trkpt><trkpt lat="44.1909965596978" lon="10.584075398436495"><ele>970.0</ele><time>2026-04-25T15:22:38.938Z</time></trkpt><trkpt lat="44.19086451617935" lon="10.583951298377261"><ele>970.0</ele><time>2026-04-25T15:22:39.938Z</time></trkpt><trkpt lat="44.19070968785734" lon="10.583897826764892"><ele>975.75</ele><time>2026-04-25T15:22:40.938Z</time></trkpt><trkpt lat="44.190539949702654" lon="10.583925891180728"><ele>981.5</ele><time>2026-04-25T15:22:41.938Z</time></trkpt><trkpt lat="44.19040240436481" lon="10.583904494157085"><ele>987.25</ele><time>2026-04-25T15:22:42.938Z</time></trkpt><trkpt lat="44.19028023491154" lon="10.583861021621306"><ele>993.0</ele><time>2026-04-25T15:22:43.938Z</time></trkpt><trkpt lat="44.19016507252789" lon="10.583806831818412"><ele>993.0</ele><time>2026-04-25T15:22:44.938Z</time></trkpt><trkpt lat="44.19005803204346" lon="10.583739241000538"><ele>993.0</ele><time>2026-04-25T15:22:45.938Z</time></trkpt><trkpt lat="44.18998581157677" lon="10.583633544497559"><ele>993.0</ele><time>2026-04-25T15:22:46.938Z</time></trkpt><trkpt lat="44.18996691906007" lon="10.583464596284784"><ele>993.0</ele><time>2026-04-25T15:22:47.938Z</time></trkpt><trkpt lat="44.18994868046709" lon="10.583295896573752"><ele>993.4</ele><time>2026-04-25T15:22:48.938Z</time></trkpt><trkpt lat="44.18992023556905" lon="10.583163769064695"><ele>993.8</ele><time>2026-04-25T15:22:49.938Z</time></trkpt><trkpt lat="44.18986141267463" lon="10.58306166050306"><ele>994.2</ele><time>2026-04-25T15:22:50.938Z</time></trkpt><trkpt lat="44.18976971343589" lon="10.583024733727681"><ele>994.6</ele><time>2026-04-25T15:22:51.938Z</time></trkpt><trkpt lat="44.18965103125352" lon="10.58301978216236"><ele>995.0</ele><time>2026-04-25T15:22:52.938Z</time></trkpt><trkpt lat="44.18952378967923" lon="10.583016804456761"><ele>995.0</ele><time>2026-04-25T15:22:53.938Z</time></trkpt><trkpt lat="44.189401219154085" lon="10.582980975219241"><ele>995.0</ele><time>2026-04-25T15:22:54.938Z</time></trkpt><trkpt lat="44.18927253908623" lon="10.582910333129666"><ele>995.0</ele><time>2026-04-25T15:22:55.938Z</time></trkpt><trkpt lat="44.189145213064364" lon="10.582826953148366"><ele>995.0</ele><time>2026-04-25T15:22:56.938Z</time></trkpt><trkpt lat="44.18900491926223" lon="10.582714506089804"><ele>996.3333333333334</ele><time>2026-04-25T15:22:57.938Z</time></trkpt><trkpt lat="44.188874821969144" lon="10.582585266610728"><ele>997.6666666666667</ele><time>2026-04-25T15:22:58.938Z</time></trkpt><trkpt lat="44.18873633696679" lon="10.582456163473312"><ele>999.0</ele><time>2026-04-25T15:22:59.938Z</time></trkpt><trkpt lat="44.18859559249712" lon="10.58232185362071"><ele>999.0</ele><time>2026-04-25T15:23:00.938Z</time></trkpt><trkpt lat="44.188452503920864" lon="10.582202062408667"><ele>999.0</ele><time>2026-04-25T15:23:01.938Z</time></trkpt><trkpt lat="44.18832036313654" lon="10.58204994903159"><ele>999.0</ele><time>2026-04-25T15:23:02.938Z</time></trkpt><trkpt lat="44.18817501316644" lon="10.581898308134182"><ele>1000.3333333333333</ele><time>2026-04-25T15:23:03.938Z</time></trkpt><trkpt lat="44.18808149102019" lon="10.581719867989907"><ele>1001.6666666666666</ele><time>2026-04-25T15:23:04.938Z</time></trkpt><trkpt lat="44.187977045577775" lon="10.581559371936928"><ele>1003.0</ele><time>2026-04-25T15:23:05.938Z</time></trkpt><trkpt lat="44.187866057618216" lon="10.581422660393487"><ele>1003.0</ele><time>2026-04-25T15:23:06.939Z</time></trkpt><trkpt lat="44.187732758646256" lon="10.58134961956518"><ele>1003.0</ele><time>2026-04-25T15:23:07.939Z</time></trkpt><trkpt lat="44.187561308919925" lon="10.581344849823694"><ele>1003.0</ele><time>2026-04-25T15:23:08.939Z</time></trkpt><trkpt lat="44.187404931914" lon="10.58133897868408"><ele>1005.25</ele><time>2026-04-25T15:23:09.939Z</time></trkpt><trkpt lat="44.187261572713886" lon="10.581298267384106"><ele>1007.5</ele><time>2026-04-25T15:23:10.939Z</time></trkpt><trkpt lat="44.18716088361974" lon="10.581201414068026"><ele>1009.75</ele><time>2026-04-25T15:23:11.939Z</time></trkpt><trkpt lat="44.18711526758931" lon="10.581044920284384"><ele>1012.0</ele><time>2026-04-25T15:23:12.94Z</time></trkpt><trkpt lat="44.1871100683464" lon="10.58084014064948"><ele>1012.0</ele><time>2026-04-25T15:23:13.939Z</time></trkpt><trkpt lat="44.1871332094375" lon="10.580645859364658"><ele>1012.0</ele><time>2026-04-25T15:23:14.939Z</time></trkpt><trkpt lat="44.1871822909679" lon="10.580444229631308"><ele>1012.0</ele><time>2026-04-25T15:23:15.939Z</time></trkpt><trkpt lat="44.187207936268706" lon="10.580228179055007"><ele>1011.0</ele><time>2026-04-25T15:23:16.939Z</time></trkpt><trkpt lat="44.187200654030526" lon="10.580032979146692"><ele>1010.0</ele><time>2026-04-25T15:23:17.939Z</time></trkpt><trkpt lat="44.18715689689506" lon="10.57978282004441"><ele>1009.0</ele><time>2026-04-25T15:23:18.939Z</time></trkpt><trkpt lat="44.18711038684485" lon="10.57953148199948"><ele>1007.6666666666666</ele><time>2026-04-25T15:23:19.939Z</time></trkpt><trkpt lat="44.18710754681576" lon="10.579254689020473"><ele>1006.3333333333333</ele><time>2026-04-25T15:23:20.939Z</time></trkpt><trkpt lat="44.187120171400736" lon="10.578975517929493"><ele>1005.0</ele><time>2026-04-25T15:23:21.939Z</time></trkpt><trkpt lat="44.18708905042441" lon="10.578695570149899"><ele>1004.3333333333333</ele><time>2026-04-25T15:23:22.939Z</time></trkpt><trkpt lat="44.187053649233015" lon="10.578441939207226"><ele>1003.6666666666666</ele><time>2026-04-25T15:23:23.939Z</time></trkpt><trkpt lat="44.187028375393396" lon="10.578193107307047"><ele>1003.0</ele><time>2026-04-25T15:23:24.939Z</time></trkpt><trkpt lat="44.187038147567534" lon="10.577975831133584"><ele>1001.6666666666666</ele><time>2026-04-25T15:23:25.939Z</time></trkpt><trkpt lat="44.187110957673504" lon="10.577764553817294"><ele>1000.3333333333333</ele><time>2026-04-25T15:23:26.939Z</time></trkpt><trkpt lat="44.18722644764886" lon="10.57755932534879"><ele>999.0</ele><time>2026-04-25T15:23:27.939Z</time></trkpt><trkpt lat="44.187378963062805" lon="10.577368062823668"><ele>999.0</ele><time>2026-04-25T15:23:28.939Z</time></trkpt><trkpt lat="44.187537027664874" lon="10.577233772900865"><ele>999.0</ele><time>2026-04-25T15:23:29.939Z</time></trkpt><trkpt lat="44.18772947628747" lon="10.577163374424401"><ele>999.0</ele><time>2026-04-25T15:23:30.939Z</time></trkpt><trkpt lat="44.187933475134614" lon="10.577117904608654"><ele>999.0</ele><time>2026-04-25T15:23:31.939Z</time></trkpt><trkpt lat="44.18811555430115" lon="10.577079916059965"><ele>999.0</ele><time>2026-04-25T15:23:32.939Z</time></trkpt><trkpt lat="44.188261915551834" lon="10.577005192763256"><ele>999.0</ele><time>2026-04-25T15:23:33.939Z</time></trkpt><trkpt lat="44.18838197554161" lon="10.576867522503893"><ele>998.6666666666667</ele><time>2026-04-25T15:23:34.939Z</time></trkpt><trkpt lat="44.18846668593374" lon="10.576678029296037"><ele>998.3333333333334</ele><time>2026-04-25T15:23:35.939Z</time></trkpt><trkpt lat="44.18848988449731" lon="10.576460602418155"><ele>998.0</ele><time>2026-04-25T15:23:36.939Z</time></trkpt><trkpt lat="44.18845798613309" lon="10.576242564207599"><ele>997.3333333333334</ele><time>2026-04-25T15:23:37.939Z</time></trkpt><trkpt lat="44.18836204015248" lon="10.576032061013885"><ele>996.6666666666667</ele><time>2026-04-25T15:23:38.939Z</time></trkpt><trkpt lat="44.18823693410377" lon="10.57580901695369"><ele>996.0</ele><time>2026-04-25T15:23:39.939Z</time></trkpt><trkpt lat="44.18815248586594" lon="10.575554934122739"><ele>995.0</ele><time>2026-04-25T15:23:40.939Z</time></trkpt><trkpt lat="44.18812191929718" lon="10.57527970435337"><ele>994.0</ele><time>2026-04-25T15:23:41.939Z</time></trkpt><trkpt lat="44.1881415736598" lon="10.574965222672358"><ele>993.0</ele><time>2026-04-25T15:23:42.939Z</time></trkpt><trkpt lat="44.188183850160556" lon="10.574645070551824"><ele>1004.5</ele><time>2026-04-25T15:23:43.939Z</time></trkpt><trkpt lat="44.188165184413116" lon="10.57430139461348"><ele>1016.0</ele><time>2026-04-25T15:23:44.939Z</time></trkpt><trkpt lat="44.18813210441476" lon="10.573969939763277"><ele>1014.6666666666667</ele><time>2026-04-25T15:23:45.939Z</time></trkpt><trkpt lat="44.18808877223066" lon="10.573665525997932"><ele>1013.3333333333333</ele><time>2026-04-25T15:23:46.939Z</time></trkpt><trkpt lat="44.188056507328966" lon="10.573398862503781"><ele>1012.0</ele><time>2026-04-25T15:23:47.939Z</time></trkpt><trkpt lat="44.188066924271126" lon="10.573186956321535"><ele>1012.0</ele><time>2026-04-25T15:23:48.939Z</time></trkpt><trkpt lat="44.188139163776036" lon="10.57301625120067"><ele>1012.0</ele><time>2026-04-25T15:23:49.939Z</time></trkpt><trkpt lat="44.18825383543456" lon="10.572836637830749"><ele>1012.0</ele><time>2026-04-25T15:23:50.939Z</time></trkpt><trkpt lat="44.18831592360424" lon="10.572643855383808"><ele>1007.3333333333333</ele><time>2026-04-25T15:23:51.939Z</time></trkpt><trkpt lat="44.18831648542703" lon="10.572417758696378"><ele>1002.6666666666667</ele><time>2026-04-25T15:23:52.939Z</time></trkpt><trkpt lat="44.18825260006796" lon="10.572206660314535"><ele>998.0</ele><time>2026-04-25T15:23:53.939Z</time></trkpt><trkpt lat="44.18821002939701" lon="10.572016590051033"><ele>998.0</ele><time>2026-04-25T15:23:54.939Z</time></trkpt><trkpt lat="44.18824856435804" lon="10.571811040598956"><ele>998.0</ele><time>2026-04-25T15:23:55.939Z</time></trkpt><trkpt lat="44.188356220982755" lon="10.571634339316704"><ele>998.0</ele><time>2026-04-25T15:23:56.939Z</time></trkpt><trkpt lat="44.1884970825704" lon="10.571506357834163"><ele>998.0</ele><time>2026-04-25T15:23:57.939Z</time></trkpt><trkpt lat="44.18861573543404" lon="10.57133912028985"><ele>998.0</ele><time>2026-04-25T15:23:58.939Z</time></trkpt><trkpt lat="44.188697160211035" lon="10.571085131092572"><ele>998.0</ele><time>2026-04-25T15:23:59.939Z</time></trkpt><trkpt lat="44.18876848087135" lon="10.570789770609741"><ele>993.6666666666667</ele><time>2026-04-25T15:24:00.939Z</time></trkpt><trkpt lat="44.18886462253441" lon="10.570519784148042"><ele>989.3333333333333</ele><time>2026-04-25T15:24:01.939Z</time></trkpt><trkpt lat="44.18895369756533" lon="10.570319694485478"><ele>985.0</ele><time>2026-04-25T15:24:02.939Z</time></trkpt><trkpt lat="44.18901690095311" lon="10.570153831822783"><ele>985.0</ele><time>2026-04-25T15:24:03.939Z</time></trkpt><trkpt lat="44.18902511018027" lon="10.569962121649352"><ele>985.0</ele><time>2026-04-25T15:24:04.939Z</time></trkpt><trkpt lat="44.18899018419679" lon="10.569723239134794"><ele>985.0</ele><time>2026-04-25T15:24:05.939Z</time></trkpt><trkpt lat="44.18892825150425" lon="10.569472503930154"><ele>992.0</ele><time>2026-04-25T15:24:06.939Z</time></trkpt><trkpt lat="44.188843303641036" lon="10.569190164487122"><ele>999.0</ele><time>2026-04-25T15:24:07.939Z</time></trkpt><trkpt lat="44.18877155163595" lon="10.568895482751804"><ele>1006.0</ele><time>2026-04-25T15:24:08.939Z</time></trkpt><trkpt lat="44.18867801545951" lon="10.56857701241888"><ele>1006.0</ele><time>2026-04-25T15:24:09.939Z</time></trkpt><trkpt lat="44.18859429297192" lon="10.568287854350391"><ele>1006.0</ele><time>2026-04-25T15:24:10.939Z</time></trkpt><trkpt lat="44.188524544495564" lon="10.568031536861959"><ele>1006.0</ele><time>2026-04-25T15:24:11.939Z</time></trkpt><trkpt lat="44.18845494742118" lon="10.567804765736344"><ele>1010.0</ele><time>2026-04-25T15:24:12.939Z</time></trkpt><trkpt lat="44.18834196114333" lon="10.56758475469712"><ele>1014.0</ele><time>2026-04-25T15:24:13.939Z</time></trkpt><trkpt lat="44.18818695433951" lon="10.567421452557623"><ele>1018.0</ele><time>2026-04-25T15:24:14.939Z</time></trkpt><trkpt lat="44.18801663804301" lon="10.5672538038504"><ele>1018.0</ele><time>2026-04-25T15:24:15.939Z</time></trkpt><trkpt lat="44.18785197474984" lon="10.567102660533331"><ele>1018.0</ele><time>2026-04-25T15:24:16.939Z</time></trkpt><trkpt lat="44.18769346738989" lon="10.566976794944205"><ele>1018.0</ele><time>2026-04-25T15:24:17.939Z</time></trkpt><trkpt lat="44.18756465384017" lon="10.566854750122186"><ele>1010.3333333333333</ele><time>2026-04-25T15:24:18.939Z</time></trkpt><trkpt lat="44.187473495395686" lon="10.566685382366677"><ele>1002.6666666666667</ele><time>2026-04-25T15:24:19.939Z</time></trkpt><trkpt lat="44.18742089510478" lon="10.566463165476653"><ele>995.0</ele><time>2026-04-25T15:24:20.939Z</time></trkpt><trkpt lat="44.18739919564585" lon="10.566251445028644"><ele>994.75</ele><time>2026-04-25T15:24:21.939Z</time></trkpt><trkpt lat="44.18736245537526" lon="10.566085748129002"><ele>994.5</ele><time>2026-04-25T15:24:22.939Z</time></trkpt><trkpt lat="44.18728194588317" lon="10.565945041219695"><ele>994.25</ele><time>2026-04-25T15:24:23.939Z</time></trkpt><trkpt lat="44.187155458709945" lon="10.565857335402809"><ele>994.0</ele><time>2026-04-25T15:24:24.939Z</time></trkpt><trkpt lat="44.18700852526241" lon="10.565830565396427"><ele>994.0</ele><time>2026-04-25T15:24:25.939Z</time></trkpt><trkpt lat="44.18681977706204" lon="10.565812926223446"><ele>994.0</ele><time>2026-04-25T15:24:26.939Z</time></trkpt><trkpt lat="44.18663793365728" lon="10.565754531656225"><ele>994.0</ele><time>2026-04-25T15:24:27.939Z</time></trkpt><trkpt lat="44.18651280257723" lon="10.565707474737064"><ele>993.6</ele><time>2026-04-25T15:24:28.939Z</time></trkpt><trkpt lat="44.186441931401106" lon="10.565647118685622"><ele>993.2</ele><time>2026-04-25T15:24:29.939Z</time></trkpt><trkpt lat="44.18642792810676" lon="10.565543996585552"><ele>992.8000000000001</ele><time>2026-04-25T15:24:30.939Z</time></trkpt><trkpt lat="44.186450373264904" lon="10.56537838849738"><ele>992.4000000000001</ele><time>2026-04-25T15:24:31.939Z</time></trkpt><trkpt lat="44.18649011126872" lon="10.565194217519"><ele>992.0</ele><time>2026-04-25T15:24:32.939Z</time></trkpt><trkpt lat="44.18650941134328" lon="10.56502115143127"><ele>988.5</ele><time>2026-04-25T15:24:33.939Z</time></trkpt><trkpt lat="44.186544464071424" lon="10.564877316200814"><ele>985.0</ele><time>2026-04-25T15:24:34.939Z</time></trkpt><trkpt lat="44.186625647622115" lon="10.564765455363991"><ele>981.5</ele><time>2026-04-25T15:24:35.939Z</time></trkpt><trkpt lat="44.18674926301812" lon="10.564693711872941"><ele>978.0</ele><time>2026-04-25T15:24:36.939Z</time></trkpt><trkpt lat="44.18689413082056" lon="10.564659449359999"><ele>978.0</ele><time>2026-04-25T15:24:37.939Z</time></trkpt><trkpt lat="44.18703519447371" lon="10.564633121483084"><ele>978.0</ele><time>2026-04-25T15:24:38.939Z</time></trkpt><trkpt lat="44.18716525153959" lon="10.564553953821477"><ele>978.0</ele><time>2026-04-25T15:24:39.939Z</time></trkpt><trkpt lat="44.18732299055374" lon="10.564495365587744"><ele>978.0</ele><time>2026-04-25T15:24:40.939Z</time></trkpt><trkpt lat="44.187476218686605" lon="10.56445070935748"><ele>983.6666666666667</ele><time>2026-04-25T15:24:41.939Z</time></trkpt><trkpt lat="44.18764307149585" lon="10.56443476739237"><ele>989.3333333333334</ele><time>2026-04-25T15:24:42.939Z</time></trkpt><trkpt lat="44.187795128329846" lon="10.56442911177713"><ele>995.0</ele><time>2026-04-25T15:24:43.939Z</time></trkpt><trkpt lat="44.18793287520499" lon="10.564447797967707"><ele>995.0</ele><time>2026-04-25T15:24:44.939Z</time></trkpt><trkpt lat="44.1880247272485" lon="10.564452274938523"><ele>995.0</ele><time>2026-04-25T15:24:45.939Z</time></trkpt><trkpt lat="44.18809633724155" lon="10.564402420803004"><ele>995.0</ele><time>2026-04-25T15:24:46.939Z</time></trkpt><trkpt lat="44.18814377921504" lon="10.564318102929327"><ele>995.0</ele><time>2026-04-25T15:24:47.939Z</time></trkpt><trkpt lat="44.18816839173137" lon="10.56417416105225"><ele>995.0</ele><time>2026-04-25T15:24:48.939Z</time></trkpt><trkpt lat="44.188176579678" lon="10.564009770967308"><ele>995.0</ele><time>2026-04-25T15:24:49.939Z</time></trkpt><trkpt lat="44.188196150248594" lon="10.563817288409279"><ele>995.0</ele><time>2026-04-25T15:24:50.939Z</time></trkpt><trkpt lat="44.188225724511355" lon="10.563620322110488"><ele>995.0</ele><time>2026-04-25T15:24:51.939Z</time></trkpt><trkpt lat="44.18823652852281" lon="10.563424719863002"><ele>995.0</ele><time>2026-04-25T15:24:52.939Z</time></trkpt><trkpt lat="44.1882457850899" lon="10.563212346071857"><ele>995.0</ele><time>2026-04-25T15:24:53.939Z</time></trkpt><trkpt lat="44.188262258309784" lon="10.562995350501136"><ele>995.0</ele><time>2026-04-25T15:24:54.939Z</time></trkpt><trkpt lat="44.188279273079175" lon="10.56278185399207"><ele>995.0</ele><time>2026-04-25T15:24:55.938Z</time></trkpt><trkpt lat="44.18829454975541" lon="10.562552948163841"><ele>996.0</ele><time>2026-04-25T15:24:56.938Z</time></trkpt><trkpt lat="44.18830657963199" lon="10.562326862776072"><ele>997.0</ele><time>2026-04-25T15:24:57.938Z</time></trkpt><trkpt lat="44.18830393115048" lon="10.562106756539189"><ele>998.0</ele><time>2026-04-25T15:24:58.938Z</time></trkpt><trkpt lat="44.18828995465931" lon="10.561896093196879"><ele>1000.75</ele><time>2026-04-25T15:24:59.938Z</time></trkpt><trkpt lat="44.18830892595599" lon="10.561734159359487"><ele>1003.5</ele><time>2026-04-25T15:25:00.938Z</time></trkpt><trkpt lat="44.18837542499296" lon="10.56161612199062"><ele>1006.25</ele><time>2026-04-25T15:25:01.938Z</time></trkpt><trkpt lat="44.18847180461604" lon="10.561520146597145"><ele>1009.0</ele><time>2026-04-25T15:25:02.938Z</time></trkpt><trkpt lat="44.18857930000622" lon="10.561513718930607"><ele>1009.0</ele><time>2026-04-25T15:25:03.938Z</time></trkpt><trkpt lat="44.18867860655343" lon="10.561559216824401"><ele>1009.0</ele><time>2026-04-25T15:25:04.938Z</time></trkpt><trkpt lat="44.18880772590365" lon="10.56160885071539"><ele>1009.0</ele><time>2026-04-25T15:25:05.938Z</time></trkpt><trkpt lat="44.18894938627646" lon="10.561612636720676"><ele>1009.0</ele><time>2026-04-25T15:25:06.938Z</time></trkpt><trkpt lat="44.189084502914184" lon="10.561571248372088"><ele>1009.0</ele><time>2026-04-25T15:25:07.938Z</time></trkpt><trkpt lat="44.18921353582005" lon="10.561508181575332"><ele>1009.0</ele><time>2026-04-25T15:25:08.938Z</time></trkpt><trkpt lat="44.18932509652842" lon="10.56140907076976"><ele>1009.0</ele><time>2026-04-25T15:25:09.938Z</time></trkpt><trkpt lat="44.189432332399925" lon="10.561251435541136"><ele>1009.0</ele><time>2026-04-25T15:25:10.938Z</time></trkpt><trkpt lat="44.18954261599066" lon="10.561079815468098"><ele>1012.3333333333333</ele><time>2026-04-25T15:25:11.938Z</time></trkpt><trkpt lat="44.18965712846666" lon="10.56089320924464"><ele>1015.6666666666667</ele><time>2026-04-25T15:25:12.94Z</time></trkpt><trkpt lat="44.18975354359625" lon="10.560701273092974"><ele>1019.0</ele><time>2026-04-25T15:25:13.939Z</time></trkpt><trkpt lat="44.18983488115012" lon="10.560546369074034"><ele>1019.5</ele><time>2026-04-25T15:25:14.939Z</time></trkpt><trkpt lat="44.18987812261857" lon="10.56040423517663"><ele>1020.0</ele><time>2026-04-25T15:25:15.939Z</time></trkpt><trkpt lat="44.18985549158845" lon="10.560233521167373"><ele>1020.5</ele><time>2026-04-25T15:25:16.939Z</time></trkpt><trkpt lat="44.189814251132105" lon="10.560056041692953"><ele>1021.0</ele><time>2026-04-25T15:25:17.939Z</time></trkpt><trkpt lat="44.189812224198654" lon="10.559854767249707"><ele>1021.0</ele><time>2026-04-25T15:25:18.939Z</time></trkpt><trkpt lat="44.18984772291633" lon="10.559648394549377"><ele>1021.0</ele><time>2026-04-25T15:25:19.939Z</time></trkpt><trkpt lat="44.189870780334765" lon="10.559477551780382"><ele>1021.0</ele><time>2026-04-25T15:25:20.939Z</time></trkpt><trkpt lat="44.189864987760764" lon="10.559327532563705"><ele>1021.0</ele><time>2026-04-25T15:25:21.939Z</time></trkpt><trkpt lat="44.18980786699865" lon="10.559186157781415"><ele>1024.75</ele><time>2026-04-25T15:25:22.939Z</time></trkpt><trkpt lat="44.18972478045623" lon="10.559034790335833"><ele>1028.5</ele><time>2026-04-25T15:25:23.939Z</time></trkpt><trkpt lat="44.189692728163195" lon="10.558865002036761"><ele>1032.25</ele><time>2026-04-25T15:25:24.94Z</time></trkpt><trkpt lat="44.189751088845966" lon="10.558666464203537"><ele>1036.0</ele><time>2026-04-25T15:25:25.939Z</time></trkpt><trkpt lat="44.189850214493376" lon="10.558455304299304"><ele>1036.0</ele><time>2026-04-25T15:25:26.939Z</time></trkpt><trkpt lat="44.18996029078209" lon="10.558248483377"><ele>1036.0</ele><time>2026-04-25T15:25:27.939Z</time></trkpt><trkpt lat="44.1900478826058" lon="10.558019416734163"><ele>1036.0</ele><time>2026-04-25T15:25:28.939Z</time></trkpt><trkpt lat="44.19008914098008" lon="10.55780081303643"><ele>1039.3333333333333</ele><time>2026-04-25T15:25:29.939Z</time></trkpt><trkpt lat="44.190076522382626" lon="10.55752799195633"><ele>1042.6666666666667</ele><time>2026-04-25T15:25:30.939Z</time></trkpt><trkpt lat="44.190030166463096" lon="10.55725885868335"><ele>1046.0</ele><time>2026-04-25T15:25:31.939Z</time></trkpt><trkpt lat="44.19002146867101" lon="10.557004151005318"><ele>1048.75</ele><time>2026-04-25T15:25:32.939Z</time></trkpt><trkpt lat="44.19002742019272" lon="10.556781818348995"><ele>1051.5</ele><time>2026-04-25T15:25:33.939Z</time></trkpt><trkpt lat="44.18999657935158" lon="10.556603145811867"><ele>1054.25</ele><time>2026-04-25T15:25:34.939Z</time></trkpt><trkpt lat="44.189996311346306" lon="10.556468261980203"><ele>1057.0</ele><time>2026-04-25T15:25:35.939Z</time></trkpt><trkpt lat="44.190078841850685" lon="10.556373754262415"><ele>1057.0</ele><time>2026-04-25T15:25:36.939Z</time></trkpt><trkpt lat="44.19019891499847" lon="10.556325579135105"><ele>1057.0</ele><time>2026-04-25T15:25:37.939Z</time></trkpt><trkpt lat="44.1903341540527" lon="10.556314048174034"><ele>1057.0</ele><time>2026-04-25T15:25:38.939Z</time></trkpt><trkpt lat="44.190494130582934" lon="10.556369004902011"><ele>1057.0</ele><time>2026-04-25T15:25:39.939Z</time></trkpt><trkpt lat="44.190657626881894" lon="10.556390059643451"><ele>1056.0</ele><time>2026-04-25T15:25:40.939Z</time></trkpt><trkpt lat="44.19077929874034" lon="10.556315700030432"><ele>1055.0</ele><time>2026-04-25T15:25:41.939Z</time></trkpt><trkpt lat="44.19086236292517" lon="10.556227458535194"><ele>1054.0</ele><time>2026-04-25T15:25:42.939Z</time></trkpt><trkpt lat="44.19091009434947" lon="10.556112703382103"><ele>1053.0</ele><time>2026-04-25T15:25:43.939Z</time></trkpt><trkpt lat="44.19090776226262" lon="10.5559705434065"><ele>1052.0</ele><time>2026-04-25T15:25:44.939Z</time></trkpt><trkpt lat="44.190878957160756" lon="10.555843116948445"><ele>1052.0</ele><time>2026-04-25T15:25:45.939Z</time></trkpt><trkpt lat="44.19083289348869" lon="10.555705258975408"><ele>1052.0</ele><time>2026-04-25T15:25:46.939Z</time></trkpt><trkpt lat="44.190785835415824" lon="10.555573620542834"><ele>1052.0</ele><time>2026-04-25T15:25:47.939Z</time></trkpt><trkpt lat="44.19071485813878" lon="10.555468546058647"><ele>1052.0</ele><time>2026-04-25T15:25:48.939Z</time></trkpt><trkpt lat="44.19063213905281" lon="10.555376237281251"><ele>1052.0</ele><time>2026-04-25T15:25:49.939Z</time></trkpt><trkpt lat="44.19054886987407" lon="10.555287361355427"><ele>1053.0</ele><time>2026-04-25T15:25:50.939Z</time></trkpt><trkpt lat="44.19047427020056" lon="10.55518244940117"><ele>1054.0</ele><time>2026-04-25T15:25:51.939Z</time></trkpt><trkpt lat="44.19040567284789" lon="10.555071757867088"><ele>1055.0</ele><time>2026-04-25T15:25:52.939Z</time></trkpt><trkpt lat="44.19035187002667" lon="10.55494090589953"><ele>1056.0</ele><time>2026-04-25T15:25:53.939Z</time></trkpt><trkpt lat="44.1903068586907" lon="10.554802081912005"><ele>1057.0</ele><time>2026-04-25T15:25:54.939Z</time></trkpt><trkpt lat="44.19026878848179" lon="10.554659761437364"><ele>1057.5</ele><time>2026-04-25T15:25:55.939Z</time></trkpt><trkpt lat="44.190225516168404" lon="10.554509924043128"><ele>1058.0</ele><time>2026-04-25T15:25:56.939Z</time></trkpt><trkpt lat="44.19019212155635" lon="10.554352816559911"><ele>1058.5</ele><time>2026-04-25T15:25:57.939Z</time></trkpt><trkpt lat="44.19018720445134" lon="10.554190825406065"><ele>1059.0</ele><time>2026-04-25T15:25:58.939Z</time></trkpt><trkpt lat="44.19021433531131" lon="10.554038929977429"><ele>1059.0</ele><time>2026-04-25T15:25:59.939Z</time></trkpt><trkpt lat="44.19029140851856" lon="10.553901232361193"><ele>1059.0</ele><time>2026-04-25T15:26:00.939Z</time></trkpt><trkpt lat="44.190391696374746" lon="10.553776372372326"><ele>1059.0</ele><time>2026-04-25T15:26:01.939Z</time></trkpt><trkpt lat="44.190501209414506" lon="10.55364645409302"><ele>1059.0</ele><time>2026-04-25T15:26:02.939Z</time></trkpt><trkpt lat="44.19061630652702" lon="10.553513603143488"><ele>1059.0</ele><time>2026-04-25T15:26:03.939Z</time></trkpt><trkpt lat="44.1907593131272" lon="10.553408617378965"><ele>1059.0</ele><time>2026-04-25T15:26:04.939Z</time></trkpt><trkpt lat="44.190902038842836" lon="10.553316211182722"><ele>1059.0</ele><time>2026-04-25T15:26:05.939Z</time></trkpt><trkpt lat="44.19104689858925" lon="10.553229636810897"><ele>1059.0</ele><time>2026-04-25T15:26:06.939Z</time></trkpt><trkpt lat="44.1912014523207" lon="10.55314607433772"><ele>1059.0</ele><time>2026-04-25T15:26:07.939Z</time></trkpt><trkpt lat="44.191360024772905" lon="10.553089049583809"><ele>1059.0</ele><time>2026-04-25T15:26:08.939Z</time></trkpt><trkpt lat="44.191514235532146" lon="10.553050259052076"><ele>1058.75</ele><time>2026-04-25T15:26:09.939Z</time></trkpt><trkpt lat="44.191647327357835" lon="10.552993192362063"><ele>1058.5</ele><time>2026-04-25T15:26:10.939Z</time></trkpt><trkpt lat="44.19175532823492" lon="10.552916439192375"><ele>1058.25</ele><time>2026-04-25T15:26:11.939Z</time></trkpt><trkpt lat="44.1918347276601" lon="10.552811327977391"><ele>1058.0</ele><time>2026-04-25T15:26:12.939Z</time></trkpt><trkpt lat="44.1918903935424" lon="10.55267515006703"><ele>1061.25</ele><time>2026-04-25T15:26:13.938Z</time></trkpt><trkpt lat="44.191941358232555" lon="10.552512835294998"><ele>1064.5</ele><time>2026-04-25T15:26:14.938Z</time></trkpt><trkpt lat="44.191997165324175" lon="10.552331245125526"><ele>1067.75</ele><time>2026-04-25T15:26:15.938Z</time></trkpt><trkpt lat="44.19208242366395" lon="10.552192981065653"><ele>1071.0</ele><time>2026-04-25T15:26:16.938Z</time></trkpt><trkpt lat="44.19212226761083" lon="10.552051996389274"><ele>1072.2</ele><time>2026-04-25T15:26:17.938Z</time></trkpt><trkpt lat="44.19210927001016" lon="10.551908585961748"><ele>1073.3999999999999</ele><time>2026-04-25T15:26:18.938Z</time></trkpt><trkpt lat="44.19207303452771" lon="10.55177559061856"><ele>1074.6</ele><time>2026-04-25T15:26:19.938Z</time></trkpt><trkpt lat="44.192027694155094" lon="10.551641672849222"><ele>1075.8</ele><time>2026-04-25T15:26:20.938Z</time></trkpt><trkpt lat="44.19198045455075" lon="10.551492705008794"><ele>1077.0</ele><time>2026-04-25T15:26:21.938Z</time></trkpt><trkpt lat="44.19191386352282" lon="10.551392561324459"><ele>1077.0</ele><time>2026-04-25T15:26:22.938Z</time></trkpt><trkpt lat="44.191807515278974" lon="10.551359622757813"><ele>1077.0</ele><time>2026-04-25T15:26:23.938Z</time></trkpt><trkpt lat="44.19168707705882" lon="10.55139272767515"><ele>1077.0</ele><time>2026-04-25T15:26:24.938Z</time></trkpt><trkpt lat="44.191550966763934" lon="10.551439320208347"><ele>1077.0</ele><time>2026-04-25T15:26:25.938Z</time></trkpt><trkpt lat="44.19141743244702" lon="10.551479891478744"><ele>1078.0</ele><time>2026-04-25T15:26:26.938Z</time></trkpt><trkpt lat="44.19128760144878" lon="10.551510413694134"><ele>1079.0</ele><time>2026-04-25T15:26:27.938Z</time></trkpt><trkpt lat="44.191193465326414" lon="10.551521921169448"><ele>1080.0</ele><time>2026-04-25T15:26:28.938Z</time></trkpt><trkpt lat="44.19113337853204" lon="10.551459933538629"><ele>1081.0</ele><time>2026-04-25T15:26:29.938Z</time></trkpt><trkpt lat="44.191123221981435" lon="10.551355616179736"><ele>1082.0</ele><time>2026-04-25T15:26:30.938Z</time></trkpt><trkpt lat="44.19116211651107" lon="10.551265791794169"><ele>1082.8</ele><time>2026-04-25T15:26:31.938Z</time></trkpt><trkpt lat="44.191231907478446" lon="10.551178454192781"><ele>1083.6</ele><time>2026-04-25T15:26:32.938Z</time></trkpt><trkpt lat="44.19129893981911" lon="10.55108066547409"><ele>1084.3999999999999</ele><time>2026-04-25T15:26:33.938Z</time></trkpt><trkpt lat="44.191375915057876" lon="10.550966412253086"><ele>1085.2</ele><time>2026-04-25T15:26:34.938Z</time></trkpt><trkpt lat="44.191456558205545" lon="10.550841542719615"><ele>1086.0</ele><time>2026-04-25T15:26:35.938Z</time></trkpt><trkpt lat="44.191521589477944" lon="10.550711871871618"><ele>1086.0</ele><time>2026-04-25T15:26:36.938Z</time></trkpt><trkpt lat="44.19156692978165" lon="10.550570874323581"><ele>1086.0</ele><time>2026-04-25T15:26:37.938Z</time></trkpt><trkpt lat="44.19158699184961" lon="10.550411878330749"><ele>1086.0</ele><time>2026-04-25T15:26:38.938Z</time></trkpt><trkpt lat="44.19159109166836" lon="10.550254915067661"><ele>1086.0</ele><time>2026-04-25T15:26:39.938Z</time></trkpt><trkpt lat="44.19157813211487" lon="10.550106234282682"><ele>1086.0</ele><time>2026-04-25T15:26:40.938Z</time></trkpt><trkpt lat="44.19157077216754" lon="10.549970225281353"><ele>1087.0</ele><time>2026-04-25T15:26:41.938Z</time></trkpt><trkpt lat="44.19156319611622" lon="10.54984152861552"><ele>1088.0</ele><time>2026-04-25T15:26:42.938Z</time></trkpt><trkpt lat="44.19157230215374" lon="10.549728645001005"><ele>1089.0</ele><time>2026-04-25T15:26:43.938Z</time></trkpt><trkpt lat="44.1916045124248" lon="10.549619015219836"><ele>1090.0</ele><time>2026-04-25T15:26:44.938Z</time></trkpt><trkpt lat="44.191662379500556" lon="10.549494885011585"><ele>1091.0</ele><time>2026-04-25T15:26:45.938Z</time></trkpt><trkpt lat="44.191740149179445" lon="10.549331778889826"><ele>1093.3333333333335</ele><time>2026-04-25T15:26:46.938Z</time></trkpt><trkpt lat="44.191842692562254" lon="10.549135210457264"><ele>1095.6666666666667</ele><time>2026-04-25T15:26:47.938Z</time></trkpt><trkpt lat="44.191941635610654" lon="10.54892382638344"><ele>1098.0</ele><time>2026-04-25T15:26:48.938Z</time></trkpt><trkpt lat="44.1920263402103" lon="10.548729047054156"><ele>1098.5</ele><time>2026-04-25T15:26:49.938Z</time></trkpt><trkpt lat="44.1921384065172" lon="10.548591946166207"><ele>1099.0</ele><time>2026-04-25T15:26:50.938Z</time></trkpt><trkpt lat="44.19227633932163" lon="10.548532385938243"><ele>1099.5</ele><time>2026-04-25T15:26:51.938Z</time></trkpt><trkpt lat="44.19242923050623" lon="10.548539014365689"><ele>1100.0</ele><time>2026-04-25T15:26:52.938Z</time></trkpt><trkpt lat="44.192600184756856" lon="10.548589562328967"><ele>1100.0</ele><time>2026-04-25T15:26:53.938Z</time></trkpt><trkpt lat="44.19276341738285" lon="10.548609788621762"><ele>1100.0</ele><time>2026-04-25T15:26:54.938Z</time></trkpt><trkpt lat="44.192912451697694" lon="10.548589987029366"><ele>1100.0</ele><time>2026-04-25T15:26:55.938Z</time></trkpt><trkpt lat="44.19300858035858" lon="10.54855627980009"><ele>1100.0</ele><time>2026-04-25T15:26:56.938Z</time></trkpt><trkpt lat="44.19306378249277" lon="10.548465641222322"><ele>1100.0</ele><time>2026-04-25T15:26:57.938Z</time></trkpt><trkpt lat="44.193070321755414" lon="10.548350678140542"><ele>1100.0</ele><time>2026-04-25T15:26:58.938Z</time></trkpt><trkpt lat="44.193052913911615" lon="10.548201467440363"><ele>1100.0</ele><time>2026-04-25T15:26:59.938Z</time></trkpt><trkpt lat="44.1930760089809" lon="10.548039955331731"><ele>1100.0</ele><time>2026-04-25T15:27:00.938Z</time></trkpt><trkpt lat="44.193148876088834" lon="10.54787146110177"><ele>1101.6666666666667</ele><time>2026-04-25T15:27:01.938Z</time></trkpt><trkpt lat="44.19324676733655" lon="10.547715204975127"><ele>1103.3333333333333</ele><time>2026-04-25T15:27:02.938Z</time></trkpt><trkpt lat="44.1933485915238" lon="10.547552475563549"><ele>1105.0</ele><time>2026-04-25T15:27:03.938Z</time></trkpt><trkpt lat="44.19345057232064" lon="10.547357278272488"><ele>1105.0</ele><time>2026-04-25T15:27:04.938Z</time></trkpt><trkpt lat="44.19354888314825" lon="10.5471823313785"><ele>1105.0</ele><time>2026-04-25T15:27:05.938Z</time></trkpt><trkpt lat="44.19362370901699" lon="10.547024093886426"><ele>1105.0</ele><time>2026-04-25T15:27:06.938Z</time></trkpt><trkpt lat="44.19366651443612" lon="10.546833255673318"><ele>1105.0</ele><time>2026-04-25T15:27:07.938Z</time></trkpt><trkpt lat="44.19368188632077" lon="10.546614305227383"><ele>1108.0</ele><time>2026-04-25T15:27:08.938Z</time></trkpt><trkpt lat="44.19368578901028" lon="10.546364379029006"><ele>1111.0</ele><time>2026-04-25T15:27:09.938Z</time></trkpt><trkpt lat="44.19374155814141" lon="10.546190253644815"><ele>1114.0</ele><time>2026-04-25T15:27:10.938Z</time></trkpt><trkpt lat="44.193865353029004" lon="10.546072347234137"><ele>1114.6666666666665</ele><time>2026-04-25T15:27:11.938Z</time></trkpt><trkpt lat="44.194020424696454" lon="10.545961495607772"><ele>1115.3333333333333</ele><time>2026-04-25T15:27:12.938Z</time></trkpt><trkpt lat="44.1941938894093" lon="10.545853452772779"><ele>1116.0</ele><time>2026-04-25T15:27:13.938Z</time></trkpt><trkpt lat="44.19435558765511" lon="10.545717252879271"><ele>1116.0</ele><time>2026-04-25T15:27:14.938Z</time></trkpt><trkpt lat="44.19449889991337" lon="10.545592578384529"><ele>1116.0</ele><time>2026-04-25T15:27:15.938Z</time></trkpt><trkpt lat="44.19462726546483" lon="10.545488492238482"><ele>1116.0</ele><time>2026-04-25T15:27:16.938Z</time></trkpt><trkpt lat="44.19472676886145" lon="10.545366108830917"><ele>1117.25</ele><time>2026-04-25T15:27:17.938Z</time></trkpt><trkpt lat="44.194774818678134" lon="10.545212398640755"><ele>1118.5</ele><time>2026-04-25T15:27:18.939Z</time></trkpt><trkpt lat="44.19475958608797" lon="10.545047777936638"><ele>1119.75</ele><time>2026-04-25T15:27:19.939Z</time></trkpt><trkpt lat="44.19470092923231" lon="10.544888600680986"><ele>1121.0</ele><time>2026-04-25T15:27:20.939Z</time></trkpt><trkpt lat="44.19463551443651" lon="10.544728496829753"><ele>1122.75</ele><time>2026-04-25T15:27:21.939Z</time></trkpt><trkpt lat="44.19458223106772" lon="10.544536268787956"><ele>1124.5</ele><time>2026-04-25T15:27:22.939Z</time></trkpt><trkpt lat="44.194549548988256" lon="10.544376262984994"><ele>1126.25</ele><time>2026-04-25T15:27:23.939Z</time></trkpt><trkpt lat="44.1945557651406" lon="10.544236371720533"><ele>1128.0</ele><time>2026-04-25T15:27:24.94Z</time></trkpt><trkpt lat="44.1945967198606" lon="10.544106682041427"><ele>1128.0</ele><time>2026-04-25T15:27:25.939Z</time></trkpt><trkpt lat="44.19470401464691" lon="10.544045997700886"><ele>1128.0</ele><time>2026-04-25T15:27:26.939Z</time></trkpt><trkpt lat="44.194838224494156" lon="10.544030376473009"><ele>1128.0</ele><time>2026-04-25T15:27:27.939Z</time></trkpt><trkpt lat="44.19499211520113" lon="10.544016602351407"><ele>1128.0</ele><time>2026-04-25T15:27:28.939Z</time></trkpt><trkpt lat="44.19513287648483" lon="10.54398335859265"><ele>1128.0</ele><time>2026-04-25T15:27:29.939Z</time></trkpt><trkpt lat="44.19526311347704" lon="10.543924221350837"><ele>1128.0</ele><time>2026-04-25T15:27:30.94Z</time></trkpt><trkpt lat="44.195368177349785" lon="10.543799616712375"><ele>1128.0</ele><time>2026-04-25T15:27:31.939Z</time></trkpt><trkpt lat="44.195458396020335" lon="10.543631146503312"><ele>1128.0</ele><time>2026-04-25T15:27:32.939Z</time></trkpt><trkpt lat="44.19552780912545" lon="10.543438445009242"><ele>1129.6666666666667</ele><time>2026-04-25T15:27:33.939Z</time></trkpt><trkpt lat="44.19560740045187" lon="10.543234280507546"><ele>1131.3333333333335</ele><time>2026-04-25T15:27:34.939Z</time></trkpt><trkpt lat="44.19567407834705" lon="10.543050136601876"><ele>1133.0</ele><time>2026-04-25T15:27:35.939Z</time></trkpt><trkpt lat="44.195773158461044" lon="10.542887430892373"><ele>1134.0</ele><time>2026-04-25T15:27:36.939Z</time></trkpt><trkpt lat="44.19582217187364" lon="10.54268909419413"><ele>1135.0</ele><time>2026-04-25T15:27:37.939Z</time></trkpt><trkpt lat="44.19584016259171" lon="10.54245184717924"><ele>1136.0</ele><time>2026-04-25T15:27:38.939Z</time></trkpt><trkpt lat="44.195856639606504" lon="10.542207041087671"><ele>1138.3333333333335</ele><time>2026-04-25T15:27:39.939Z</time></trkpt><trkpt lat="44.19586427524267" lon="10.541953935700779"><ele>1140.6666666666667</ele><time>2026-04-25T15:27:40.939Z</time></trkpt><trkpt lat="44.19586324241669" lon="10.541692509832084"><ele>1143.0</ele><time>2026-04-25T15:27:41.939Z</time></trkpt><trkpt lat="44.19584654213304" lon="10.54142739433196"><ele>1145.0</ele><time>2026-04-25T15:27:42.939Z</time></trkpt><trkpt lat="44.19581254547311" lon="10.541187846791223"><ele>1147.0</ele><time>2026-04-25T15:27:43.939Z</time></trkpt><trkpt lat="44.195769641497876" lon="10.540988318103404"><ele>1149.0</ele><time>2026-04-25T15:27:44.939Z</time></trkpt><trkpt lat="44.19571567931699" lon="10.540808871214953"><ele>1150.6666666666667</ele><time>2026-04-25T15:27:45.939Z</time></trkpt><trkpt lat="44.19561810879448" lon="10.540607184806134"><ele>1152.3333333333335</ele><time>2026-04-25T15:27:46.939Z</time></trkpt><trkpt lat="44.19551094788327" lon="10.540398105776502"><ele>1154.0</ele><time>2026-04-25T15:27:47.939Z</time></trkpt><trkpt lat="44.195434316858055" lon="10.54017617749616"><ele>1154.8</ele><time>2026-04-25T15:27:48.939Z</time></trkpt><trkpt lat="44.19538079906923" lon="10.539960307643698"><ele>1155.6000000000001</ele><time>2026-04-25T15:27:49.939Z</time></trkpt><trkpt lat="44.19535728872161" lon="10.539808135114834"><ele>1156.4</ele><time>2026-04-25T15:27:50.939Z</time></trkpt><trkpt lat="44.19537942858455" lon="10.539696521048901"><ele>1157.2</ele><time>2026-04-25T15:27:51.939Z</time></trkpt><trkpt lat="44.19543917031615" lon="10.53964328986072"><ele>1158.0</ele><time>2026-04-25T15:27:52.939Z</time></trkpt><trkpt lat="44.19556798320314" lon="10.539658785879661"><ele>1158.0</ele><time>2026-04-25T15:27:54.939Z</time></trkpt><trkpt lat="44.19566330795861" lon="10.539695066417323"><ele>1158.0</ele><time>2026-04-25T15:27:55.939Z</time></trkpt><trkpt lat="44.195768993099236" lon="10.539706255187571"><ele>1158.0</ele><time>2026-04-25T15:27:56.939Z</time></trkpt><trkpt lat="44.195891158295844" lon="10.539649564549801"><ele>1158.0</ele><time>2026-04-25T15:27:57.939Z</time></trkpt><trkpt lat="44.196031592694986" lon="10.539533765659097"><ele>1160.3333333333333</ele><time>2026-04-25T15:27:58.939Z</time></trkpt><trkpt lat="44.19614425515557" lon="10.539372751870632"><ele>1162.6666666666665</ele><time>2026-04-25T15:27:59.939Z</time></trkpt><trkpt lat="44.196285935224836" lon="10.539244699881634"><ele>1165.0</ele><time>2026-04-25T15:28:00.939Z</time></trkpt><trkpt lat="44.19644029527953" lon="10.539167114092352"><ele>1165.0</ele><time>2026-04-25T15:28:01.939Z</time></trkpt><trkpt lat="44.196573972801275" lon="10.539108890220923"><ele>1165.0</ele><time>2026-04-25T15:28:02.939Z</time></trkpt><trkpt lat="44.19667085354916" lon="10.539008738901275"><ele>1165.0</ele><time>2026-04-25T15:28:03.939Z</time></trkpt><trkpt lat="44.19671549352553" lon="10.538839981132778"><ele>1165.0</ele><time>2026-04-25T15:28:04.939Z</time></trkpt><trkpt lat="44.196714977512016" lon="10.538606098125278"><ele>1166.3333333333333</ele><time>2026-04-25T15:28:05.939Z</time></trkpt><trkpt lat="44.1967040818933" lon="10.538324470637525"><ele>1167.6666666666667</ele><time>2026-04-25T15:28:06.939Z</time></trkpt><trkpt lat="44.19669056195819" lon="10.538052869429453"><ele>1169.0</ele><time>2026-04-25T15:28:07.939Z</time></trkpt><trkpt lat="44.19665133827187" lon="10.537770161351363"><ele>1170.5</ele><time>2026-04-25T15:28:08.939Z</time></trkpt><trkpt lat="44.19660314382612" lon="10.537536302293582"><ele>1172.0</ele><time>2026-04-25T15:28:09.939Z</time></trkpt><trkpt lat="44.196559429445" lon="10.537345500839168"><ele>1173.5</ele><time>2026-04-25T15:28:10.939Z</time></trkpt><trkpt lat="44.19653828696266" lon="10.537186730920446"><ele>1175.0</ele><time>2026-04-25T15:28:11.939Z</time></trkpt><trkpt lat="44.19654892722126" lon="10.537025642210661"><ele>1178.0</ele><time>2026-04-25T15:28:12.939Z</time></trkpt><trkpt lat="44.19662483188974" lon="10.536851783447073"><ele>1181.0</ele><time>2026-04-25T15:28:13.938Z</time></trkpt><trkpt lat="44.196707642053" lon="10.53666540528181"><ele>1184.0</ele><time>2026-04-25T15:28:14.938Z</time></trkpt><trkpt lat="44.19678031944422" lon="10.536457997861106"><ele>1184.0</ele><time>2026-04-25T15:28:15.938Z</time></trkpt><trkpt lat="44.19686177355247" lon="10.536251765763078"><ele>1184.0</ele><time>2026-04-25T15:28:16.938Z</time></trkpt><trkpt lat="44.196934222443176" lon="10.536077133505762"><ele>1184.0</ele><time>2026-04-25T15:28:17.938Z</time></trkpt><trkpt lat="44.19697082222949" lon="10.535889469881294"><ele>1187.0</ele><time>2026-04-25T15:28:18.938Z</time></trkpt><trkpt lat="44.19697059314695" lon="10.535648007499814"><ele>1190.0</ele><time>2026-04-25T15:28:19.938Z</time></trkpt><trkpt lat="44.19695597990003" lon="10.5353902291793"><ele>1193.0</ele><time>2026-04-25T15:28:20.938Z</time></trkpt><trkpt lat="44.19693731557106" lon="10.53513879968657"><ele>1194.6666666666667</ele><time>2026-04-25T15:28:21.938Z</time></trkpt><trkpt lat="44.19690437259647" lon="10.534865567010005"><ele>1196.3333333333333</ele><time>2026-04-25T15:28:22.938Z</time></trkpt><trkpt lat="44.19685737613546" lon="10.53458200749784"><ele>1198.0</ele><time>2026-04-25T15:28:23.938Z</time></trkpt><trkpt lat="44.19684487355986" lon="10.534311216985476"><ele>1198.25</ele><time>2026-04-25T15:28:24.938Z</time></trkpt><trkpt lat="44.1968767114218" lon="10.53408915577232"><ele>1198.5</ele><time>2026-04-25T15:28:25.938Z</time></trkpt><trkpt lat="44.19690428078253" lon="10.533910677035587"><ele>1198.75</ele><time>2026-04-25T15:28:26.938Z</time></trkpt><trkpt lat="44.19690752163193" lon="10.533742389488928"><ele>1199.0</ele><time>2026-04-25T15:28:27.938Z</time></trkpt><trkpt lat="44.196869750120456" lon="10.533621730971573"><ele>1200.0</ele><time>2026-04-25T15:28:28.938Z</time></trkpt><trkpt lat="44.196825000248865" lon="10.533532612243745"><ele>1201.0</ele><time>2026-04-25T15:28:29.938Z</time></trkpt><trkpt lat="44.196780697948746" lon="10.533441394973698"><ele>1202.0</ele><time>2026-04-25T15:28:30.938Z</time></trkpt><trkpt lat="44.196718788689886" lon="10.533355336628363"><ele>1203.0</ele><time>2026-04-25T15:28:31.938Z</time></trkpt><trkpt lat="44.196660428289704" lon="10.533266835616065"><ele>1204.0</ele><time>2026-04-25T15:28:32.938Z</time></trkpt><trkpt lat="44.196598075611774" lon="10.533190387225943"><ele>1205.0</ele><time>2026-04-25T15:28:33.938Z</time></trkpt><trkpt lat="44.196533246776035" lon="10.533120135232656"><ele>1207.2</ele><time>2026-04-25T15:28:34.938Z</time></trkpt><trkpt lat="44.19646493636682" lon="10.533049812533902"><ele>1209.4</ele><time>2026-04-25T15:28:35.938Z</time></trkpt><trkpt lat="44.19640938440275" lon="10.532964791685973"><ele>1211.6</ele><time>2026-04-25T15:28:36.938Z</time></trkpt><trkpt lat="44.19637936396951" lon="10.532853714598115"><ele>1213.8</ele><time>2026-04-25T15:28:37.938Z</time></trkpt><trkpt lat="44.19637950155325" lon="10.532716954883128"><ele>1216.0</ele><time>2026-04-25T15:28:38.938Z</time></trkpt><trkpt lat="44.196391383182615" lon="10.532573196001037"><ele>1216.8</ele><time>2026-04-25T15:28:39.938Z</time></trkpt><trkpt lat="44.196401275955346" lon="10.532436824293718"><ele>1217.6</ele><time>2026-04-25T15:28:40.938Z</time></trkpt><trkpt lat="44.19640582717394" lon="10.532301018147917"><ele>1218.4</ele><time>2026-04-25T15:28:41.938Z</time></trkpt><trkpt lat="44.19640400774954" lon="10.532168293237028"><ele>1219.2</ele><time>2026-04-25T15:28:42.938Z</time></trkpt><trkpt lat="44.19638726139046" lon="10.5320492605685"><ele>1220.0</ele><time>2026-04-25T15:28:43.938Z</time></trkpt><trkpt lat="44.196345350271194" lon="10.531941520743292"><ele>1220.0</ele><time>2026-04-25T15:28:44.938Z</time></trkpt><trkpt lat="44.196290099884806" lon="10.531876366924788"><ele>1220.0</ele><time>2026-04-25T15:28:45.938Z</time></trkpt><trkpt lat="44.19625567157503" lon="10.531750983361636"><ele>1220.0</ele><time>2026-04-25T15:28:47.938Z</time></trkpt><trkpt lat="44.19627775279753" lon="10.531655868210587"><ele>1220.0</ele><time>2026-04-25T15:28:48.938Z</time></trkpt><trkpt lat="44.196333978226335" lon="10.531571733469102"><ele>1220.0</ele><time>2026-04-25T15:28:49.938Z</time></trkpt><trkpt lat="44.19640591418157" lon="10.531530694683214"><ele>1220.0</ele><time>2026-04-25T15:28:50.938Z</time></trkpt><trkpt lat="44.19648706614083" lon="10.53154713730193"><ele>1219.8</ele><time>2026-04-25T15:28:51.938Z</time></trkpt><trkpt lat="44.19658321591774" lon="10.53163190451162"><ele>1219.6</ele><time>2026-04-25T15:28:52.938Z</time></trkpt><trkpt lat="44.19665071598419" lon="10.531729804361214"><ele>1219.4</ele><time>2026-04-25T15:28:53.938Z</time></trkpt><trkpt lat="44.196722773142724" lon="10.531807730986626"><ele>1219.2</ele><time>2026-04-25T15:28:54.938Z</time></trkpt><trkpt lat="44.19680492690541" lon="10.531846681361861"><ele>1219.0</ele><time>2026-04-25T15:28:55.938Z</time></trkpt><trkpt lat="44.19690145026676" lon="10.53186802416471"><ele>1219.0</ele><time>2026-04-25T15:28:56.938Z</time></trkpt><trkpt lat="44.19699338976187" lon="10.531842232112824"><ele>1219.0</ele><time>2026-04-25T15:28:57.938Z</time></trkpt><trkpt lat="44.1970694216227" lon="10.531807491477164"><ele>1219.0</ele><time>2026-04-25T15:28:58.938Z</time></trkpt><trkpt lat="44.197116176342305" lon="10.531742748325359"><ele>1219.0</ele><time>2026-04-25T15:28:59.938Z</time></trkpt><trkpt lat="44.19715714624472" lon="10.531661106306334"><ele>1219.0</ele><time>2026-04-25T15:29:00.938Z</time></trkpt><trkpt lat="44.19716624619864" lon="10.531557503325553"><ele>1219.0</ele><time>2026-04-25T15:29:01.938Z</time></trkpt><trkpt lat="44.19715056717973" lon="10.531445934969447"><ele>1219.0</ele><time>2026-04-25T15:29:02.938Z</time></trkpt><trkpt lat="44.197116596776056" lon="10.531314582933032"><ele>1219.0</ele><time>2026-04-25T15:29:03.938Z</time></trkpt><trkpt lat="44.19711051315336" lon="10.531194834663683"><ele>1219.0</ele><time>2026-04-25T15:29:04.938Z</time></trkpt><trkpt lat="44.197126489629106" lon="10.531062537206385"><ele>1219.0</ele><time>2026-04-25T15:29:05.938Z</time></trkpt><trkpt lat="44.19716127259088" lon="10.530958737280098"><ele>1219.0</ele><time>2026-04-25T15:29:06.938Z</time></trkpt><trkpt lat="44.19721193707262" lon="10.530868487563325"><ele>1219.0</ele><time>2026-04-25T15:29:07.938Z</time></trkpt><trkpt lat="44.19725991042429" lon="10.530777424661443"><ele>1219.6000000000001</ele><time>2026-04-25T15:29:08.938Z</time></trkpt><trkpt lat="44.19731023212624" lon="10.530673711053327"><ele>1220.2</ele><time>2026-04-25T15:29:09.938Z</time></trkpt><trkpt lat="44.19737207150243" lon="10.53057604954489"><ele>1220.8000000000002</ele><time>2026-04-25T15:29:10.938Z</time></trkpt><trkpt lat="44.197460336110396" lon="10.530483614660202"><ele>1221.4</ele><time>2026-04-25T15:29:11.938Z</time></trkpt><trkpt lat="44.197574744745545" lon="10.530402670922877"><ele>1222.0</ele><time>2026-04-25T15:29:12.938Z</time></trkpt><trkpt lat="44.19767953467968" lon="10.530318526229268"><ele>1224.2</ele><time>2026-04-25T15:29:13.938Z</time></trkpt><trkpt lat="44.197767092909274" lon="10.53024455742924"><ele>1226.4</ele><time>2026-04-25T15:29:14.938Z</time></trkpt><trkpt lat="44.19785160283666" lon="10.53017941797918"><ele>1228.6</ele><time>2026-04-25T15:29:15.938Z</time></trkpt><trkpt lat="44.19794580149728" lon="10.530136753718269"><ele>1230.8</ele><time>2026-04-25T15:29:16.938Z</time></trkpt><trkpt lat="44.19802613251673" lon="10.530151189277998"><ele>1233.0</ele><time>2026-04-25T15:29:17.938Z</time></trkpt><trkpt lat="44.198115040998246" lon="10.530165028324015"><ele>1233.1666666666667</ele><time>2026-04-25T15:29:18.938Z</time></trkpt><trkpt lat="44.198188477270456" lon="10.53015065551061"><ele>1233.3333333333333</ele><time>2026-04-25T15:29:19.938Z</time></trkpt><trkpt lat="44.19825189142599" lon="10.53007362037851"><ele>1233.5</ele><time>2026-04-25T15:29:20.938Z</time></trkpt><trkpt lat="44.198301253100915" lon="10.529978075230465"><ele>1233.6666666666665</ele><time>2026-04-25T15:29:21.938Z</time></trkpt><trkpt lat="44.19832681516643" lon="10.529850524807795"><ele>1233.8333333333333</ele><time>2026-04-25T15:29:22.938Z</time></trkpt><trkpt lat="44.1983331158956" lon="10.529716216620976"><ele>1234.0</ele><time>2026-04-25T15:29:23.938Z</time></trkpt><trkpt lat="44.19833225218864" lon="10.529599706378757"><ele>1235.1666666666665</ele><time>2026-04-25T15:29:24.939Z</time></trkpt><trkpt lat="44.198348635936625" lon="10.529500385014758"><ele>1236.3333333333333</ele><time>2026-04-25T15:29:25.939Z</time></trkpt><trkpt lat="44.198389998136925" lon="10.529425909069039"><ele>1237.5</ele><time>2026-04-25T15:29:26.939Z</time></trkpt><trkpt lat="44.19845740497766" lon="10.529381234887277"><ele>1238.6666666666667</ele><time>2026-04-25T15:29:27.939Z</time></trkpt><trkpt lat="44.198521107776095" lon="10.529368585409031"><ele>1239.8333333333335</ele><time>2026-04-25T15:29:28.94Z</time></trkpt><trkpt lat="44.198637172090585" lon="10.529287548634155"><ele>1241.0</ele><time>2026-04-25T15:29:30.94Z</time></trkpt><trkpt lat="44.19870023575493" lon="10.529196160218868"><ele>1241.0</ele><time>2026-04-25T15:29:31.94Z</time></trkpt><trkpt lat="44.19873872078496" lon="10.529052555466022"><ele>1241.0</ele><time>2026-04-25T15:29:32.94Z</time></trkpt><trkpt lat="44.19873027606182" lon="10.5288822520335"><ele>1241.0</ele><time>2026-04-25T15:29:33.94Z</time></trkpt><trkpt lat="44.19868097068589" lon="10.528724953725458"><ele>1241.0</ele><time>2026-04-25T15:29:34.94Z</time></trkpt><trkpt lat="44.19858884604752" lon="10.528588438131518"><ele>1242.0</ele><time>2026-04-25T15:29:35.94Z</time></trkpt><trkpt lat="44.19845386355687" lon="10.528493028986318"><ele>1243.0</ele><time>2026-04-25T15:29:36.939Z</time></trkpt><trkpt lat="44.19828659777728" lon="10.528439344000796"><ele>1244.0</ele><time>2026-04-25T15:29:37.939Z</time></trkpt><trkpt lat="44.198109005748925" lon="10.52835135810694"><ele>1246.3333333333335</ele><time>2026-04-25T15:29:38.939Z</time></trkpt><trkpt lat="44.197961570703136" lon="10.528188581400872"><ele>1248.6666666666667</ele><time>2026-04-25T15:29:39.939Z</time></trkpt><trkpt lat="44.197819962943754" lon="10.527999976648305"><ele>1251.0</ele><time>2026-04-25T15:29:40.939Z</time></trkpt><trkpt lat="44.197694842449906" lon="10.527820931230625"><ele>1251.0</ele><time>2026-04-25T15:29:41.939Z</time></trkpt><trkpt lat="44.19757537510156" lon="10.527673450097216"><ele>1251.0</ele><time>2026-04-25T15:29:42.939Z</time></trkpt><trkpt lat="44.19747016654483" lon="10.527542622865116"><ele>1251.0</ele><time>2026-04-25T15:29:43.939Z</time></trkpt><trkpt lat="44.19740676756121" lon="10.527401125896404"><ele>1251.0</ele><time>2026-04-25T15:29:44.939Z</time></trkpt><trkpt lat="44.19739847263971" lon="10.527229156073336"><ele>1250.75</ele><time>2026-04-25T15:29:45.939Z</time></trkpt><trkpt lat="44.19740161081671" lon="10.527053424934834"><ele>1250.5</ele><time>2026-04-25T15:29:46.939Z</time></trkpt><trkpt lat="44.19736879887385" lon="10.52687933326106"><ele>1250.25</ele><time>2026-04-25T15:29:47.939Z</time></trkpt><trkpt lat="44.19733584479134" lon="10.526655707962604"><ele>1250.0</ele><time>2026-04-25T15:29:48.939Z</time></trkpt><trkpt lat="44.1973376294622" lon="10.526456727058978"><ele>1250.0</ele><time>2026-04-25T15:29:49.939Z</time></trkpt><trkpt lat="44.197397411643664" lon="10.52625109739014"><ele>1250.0</ele><time>2026-04-25T15:29:50.939Z</time></trkpt><trkpt lat="44.19745045880303" lon="10.526036308480238"><ele>1250.0</ele><time>2026-04-25T15:29:51.939Z</time></trkpt><trkpt lat="44.19746183011385" lon="10.525833149320404"><ele>1251.0</ele><time>2026-04-25T15:29:52.939Z</time></trkpt><trkpt lat="44.19748265486038" lon="10.52565554950263"><ele>1252.0</ele><time>2026-04-25T15:29:53.939Z</time></trkpt><trkpt lat="44.19751383247198" lon="10.525503892489388"><ele>1253.0</ele><time>2026-04-25T15:29:54.939Z</time></trkpt><trkpt lat="44.197561519239045" lon="10.525357929085498"><ele>1254.0</ele><time>2026-04-25T15:29:55.939Z</time></trkpt><trkpt lat="44.19764751813003" lon="10.525222903184783"><ele>1256.0</ele><time>2026-04-25T15:29:56.939Z</time></trkpt><trkpt lat="44.19775576161345" lon="10.525109268191493"><ele>1258.0</ele><time>2026-04-25T15:29:57.939Z</time></trkpt><trkpt lat="44.19785228812318" lon="10.5250108603245"><ele>1260.0</ele><time>2026-04-25T15:29:58.939Z</time></trkpt><trkpt lat="44.197919639868196" lon="10.524908333223337"><ele>1262.0</ele><time>2026-04-25T15:29:59.939Z</time></trkpt><trkpt lat="44.19795316426426" lon="10.524794015654669"><ele>1264.0</ele><time>2026-04-25T15:30:00.939Z</time></trkpt><trkpt lat="44.19793971220702" lon="10.52467995809985"><ele>1265.0</ele><time>2026-04-25T15:30:01.939Z</time></trkpt><trkpt lat="44.19785793733682" lon="10.524509874453333"><ele>1266.0</ele><time>2026-04-25T15:30:02.939Z</time></trkpt><trkpt lat="44.197799864822656" lon="10.5243521988614"><ele>1267.0</ele><time>2026-04-25T15:30:03.939Z</time></trkpt><trkpt lat="44.19781127813704" lon="10.5241730678929"><ele>1268.0</ele><time>2026-04-25T15:30:04.939Z</time></trkpt><trkpt lat="44.19786399735473" lon="10.523965624570295"><ele>1270.3333333333335</ele><time>2026-04-25T15:30:05.939Z</time></trkpt><trkpt lat="44.19790640841941" lon="10.523726767036425"><ele>1272.6666666666667</ele><time>2026-04-25T15:30:06.939Z</time></trkpt><trkpt lat="44.19794250588789" lon="10.523470904190555"><ele>1275.0</ele><time>2026-04-25T15:30:07.939Z</time></trkpt><trkpt lat="44.197971499099594" lon="10.52323437702475"><ele>1275.0</ele><time>2026-04-25T15:30:08.939Z</time></trkpt><trkpt lat="44.19797279437688" lon="10.523031505496968"><ele>1275.0</ele><time>2026-04-25T15:30:09.939Z</time></trkpt><trkpt lat="44.19796167583042" lon="10.522855047469244"><ele>1275.0</ele><time>2026-04-25T15:30:10.939Z</time></trkpt><trkpt lat="44.19791235740158" lon="10.522660562129605"><ele>1275.0</ele><time>2026-04-25T15:30:11.939Z</time></trkpt><trkpt lat="44.197866123305744" lon="10.522446210065409"><ele>1275.0</ele><time>2026-04-25T15:30:12.939Z</time></trkpt><trkpt lat="44.19780881830553" lon="10.522243640866463"><ele>1275.0</ele><time>2026-04-25T15:30:13.939Z</time></trkpt><trkpt lat="44.19773802268911" lon="10.522020950145363"><ele>1275.0</ele><time>2026-04-25T15:30:14.939Z</time></trkpt><trkpt lat="44.19765273095112" lon="10.521833980927848"><ele>1275.0</ele><time>2026-04-25T15:30:15.939Z</time></trkpt><trkpt lat="44.19757241166624" lon="10.521641927196821"><ele>1275.0</ele><time>2026-04-25T15:30:16.939Z</time></trkpt><trkpt lat="44.19750196582636" lon="10.521418013751687"><ele>1275.0</ele><time>2026-04-25T15:30:17.939Z</time></trkpt><trkpt lat="44.197483609303326" lon="10.521188351013674"><ele>1275.0</ele><time>2026-04-25T15:30:18.939Z</time></trkpt><trkpt lat="44.197500397595036" lon="10.520932286919793"><ele>1275.0</ele><time>2026-04-25T15:30:19.939Z</time></trkpt><trkpt lat="44.197549943144175" lon="10.520701564242746"><ele>1275.0</ele><time>2026-04-25T15:30:20.939Z</time></trkpt><trkpt lat="44.19764892946762" lon="10.52048375727539"><ele>1276.3333333333333</ele><time>2026-04-25T15:30:21.939Z</time></trkpt><trkpt lat="44.197800392071244" lon="10.520316360523688"><ele>1277.6666666666665</ele><time>2026-04-25T15:30:22.939Z</time></trkpt><trkpt lat="44.19790180242733" lon="10.52016062414654"><ele>1279.0</ele><time>2026-04-25T15:30:23.939Z</time></trkpt><trkpt lat="44.19795876437892" lon="10.520003583793253"><ele>1279.0</ele><time>2026-04-25T15:30:24.939Z</time></trkpt><trkpt lat="44.19797562794508" lon="10.519842748443777"><ele>1279.0</ele><time>2026-04-25T15:30:25.939Z</time></trkpt><trkpt lat="44.197916891890806" lon="10.519607197264184"><ele>1279.0</ele><time>2026-04-25T15:30:26.939Z</time></trkpt><trkpt lat="44.19785507462106" lon="10.519374059855895"><ele>1279.0</ele><time>2026-04-25T15:30:27.939Z</time></trkpt><trkpt lat="44.19775951633377" lon="10.519133494035923"><ele>1279.0</ele><time>2026-04-25T15:30:28.939Z</time></trkpt><trkpt lat="44.19765118376471" lon="10.518875756120934"><ele>1279.0</ele><time>2026-04-25T15:30:29.939Z</time></trkpt><trkpt lat="44.19754488160352" lon="10.518628207574228"><ele>1280.6666666666665</ele><time>2026-04-25T15:30:30.939Z</time></trkpt><trkpt lat="44.19742275050232" lon="10.518396837316336"><ele>1282.3333333333333</ele><time>2026-04-25T15:30:31.939Z</time></trkpt><trkpt lat="44.19730658588482" lon="10.518180812404635"><ele>1284.0</ele><time>2026-04-25T15:30:32.939Z</time></trkpt><trkpt lat="44.197193326132435" lon="10.51796989271864"><ele>1282.0</ele><time>2026-04-25T15:30:33.939Z</time></trkpt><trkpt lat="44.197067438104796" lon="10.517800463267868"><ele>1280.0</ele><time>2026-04-25T15:30:34.939Z</time></trkpt><trkpt lat="44.196925518387154" lon="10.51765966531582"><ele>1278.0</ele><time>2026-04-25T15:30:35.939Z</time></trkpt><trkpt lat="44.19674539860323" lon="10.517539705347595"><ele>1278.0</ele><time>2026-04-25T15:30:36.939Z</time></trkpt><trkpt lat="44.19657201354837" lon="10.517431986532962"><ele>1278.0</ele><time>2026-04-25T15:30:37.939Z</time></trkpt><trkpt lat="44.19642661886463" lon="10.517348762465273"><ele>1278.0</ele><time>2026-04-25T15:30:38.939Z</time></trkpt><trkpt lat="44.19631980596605" lon="10.517233458649628"><ele>1280.0</ele><time>2026-04-25T15:30:39.939Z</time></trkpt><trkpt lat="44.1962607475485" lon="10.517081121856334"><ele>1282.0</ele><time>2026-04-25T15:30:40.939Z</time></trkpt><trkpt lat="44.1962586636818" lon="10.516923495476723"><ele>1284.0</ele><time>2026-04-25T15:30:41.939Z</time></trkpt><trkpt lat="44.1963170697028" lon="10.516766447574124"><ele>1286.0</ele><time>2026-04-25T15:30:42.939Z</time></trkpt><trkpt lat="44.19643668742846" lon="10.516618295595196"><ele>1284.3333333333335</ele><time>2026-04-25T15:30:43.939Z</time></trkpt><trkpt lat="44.1965701084279" lon="10.5164567284851"><ele>1282.6666666666667</ele><time>2026-04-25T15:30:44.939Z</time></trkpt><trkpt lat="44.19671981130777" lon="10.51628179780114"><ele>1281.0</ele><time>2026-04-25T15:30:45.939Z</time></trkpt><trkpt lat="44.196857998298796" lon="10.51615893698901"><ele>1283.25</ele><time>2026-04-25T15:30:46.939Z</time></trkpt><trkpt lat="44.197007029691896" lon="10.516070109907403"><ele>1285.5</ele><time>2026-04-25T15:30:47.938Z</time></trkpt><trkpt lat="44.19715585964649" lon="10.516024237208441"><ele>1287.75</ele><time>2026-04-25T15:30:48.938Z</time></trkpt><trkpt lat="44.19727782661697" lon="10.515946135504416"><ele>1290.0</ele><time>2026-04-25T15:30:49.938Z</time></trkpt><trkpt lat="44.19737932939804" lon="10.515794161392092"><ele>1290.0</ele><time>2026-04-25T15:30:50.938Z</time></trkpt><trkpt lat="44.197502071191465" lon="10.515657228679277"><ele>1290.0</ele><time>2026-04-25T15:30:51.938Z</time></trkpt><trkpt lat="44.19762992296396" lon="10.515551963259455"><ele>1290.0</ele><time>2026-04-25T15:30:52.938Z</time></trkpt><trkpt lat="44.19773273522128" lon="10.515434336603747"><ele>1290.0</ele><time>2026-04-25T15:30:53.938Z</time></trkpt><trkpt lat="44.1978254126878" lon="10.515272799843615"><ele>1296.0</ele><time>2026-04-25T15:30:54.938Z</time></trkpt><trkpt lat="44.19792434647533" lon="10.515082275687277"><ele>1302.0</ele><time>2026-04-25T15:30:55.938Z</time></trkpt><trkpt lat="44.19804627312953" lon="10.514855382602494"><ele>1308.0</ele><time>2026-04-25T15:30:56.938Z</time></trkpt><trkpt lat="44.198152148962706" lon="10.514624296164998"><ele>1307.0</ele><time>2026-04-25T15:30:57.938Z</time></trkpt><trkpt lat="44.19826775215948" lon="10.51446514200953"><ele>1306.0</ele><time>2026-04-25T15:30:58.938Z</time></trkpt><trkpt lat="44.198340942816706" lon="10.514329537923654"><ele>1305.0</ele><time>2026-04-25T15:30:59.938Z</time></trkpt><trkpt lat="44.19836585169273" lon="10.514186854797922"><ele>1304.0</ele><time>2026-04-25T15:31:00.938Z</time></trkpt><trkpt lat="44.19833969125798" lon="10.514046059667871"><ele>1304.0</ele><time>2026-04-25T15:31:01.938Z</time></trkpt><trkpt lat="44.19826327788627" lon="10.513926777954213"><ele>1304.0</ele><time>2026-04-25T15:31:02.938Z</time></trkpt><trkpt lat="44.19815823042393" lon="10.51381442637131"><ele>1304.0</ele><time>2026-04-25T15:31:03.938Z</time></trkpt><trkpt lat="44.198076325651755" lon="10.51367724855722"><ele>1304.0</ele><time>2026-04-25T15:31:04.938Z</time></trkpt><trkpt lat="44.19805727501854" lon="10.513514245609485"><ele>1308.3333333333335</ele><time>2026-04-25T15:31:05.938Z</time></trkpt><trkpt lat="44.19809504941205" lon="10.513330938291343"><ele>1312.6666666666667</ele><time>2026-04-25T15:31:06.938Z</time></trkpt><trkpt lat="44.198136431628086" lon="10.5131131171751"><ele>1317.0</ele><time>2026-04-25T15:31:07.938Z</time></trkpt><trkpt lat="44.19812087027637" lon="10.512856903097626"><ele>1317.0</ele><time>2026-04-25T15:31:08.938Z</time></trkpt><trkpt lat="44.1981078851463" lon="10.51262437462779"><ele>1317.0</ele><time>2026-04-25T15:31:09.938Z</time></trkpt><trkpt lat="44.19808158220225" lon="10.512438642426389"><ele>1317.0</ele><time>2026-04-25T15:31:10.938Z</time></trkpt><trkpt lat="44.198014702054955" lon="10.51232398281179"><ele>1317.0</ele><time>2026-04-25T15:31:11.938Z</time></trkpt><trkpt lat="44.19790411018028" lon="10.512268549227993"><ele>1317.0</ele><time>2026-04-25T15:31:12.938Z</time></trkpt><trkpt lat="44.19778789942334" lon="10.512304471745276"><ele>1317.0</ele><time>2026-04-25T15:31:13.938Z</time></trkpt><trkpt lat="44.19766429825951" lon="10.512415538295603"><ele>1317.0</ele><time>2026-04-25T15:31:14.938Z</time></trkpt><trkpt lat="44.19755631153383" lon="10.512565456961996"><ele>1317.0</ele><time>2026-04-25T15:31:15.938Z</time></trkpt><trkpt lat="44.19742515482381" lon="10.512752204303428"><ele>1318.0</ele><time>2026-04-25T15:31:16.938Z</time></trkpt><trkpt lat="44.19727991680788" lon="10.51289615002515"><ele>1319.0</ele><time>2026-04-25T15:31:17.938Z</time></trkpt><trkpt lat="44.197137596373274" lon="10.512994760774111"><ele>1320.0</ele><time>2026-04-25T15:31:18.938Z</time></trkpt><trkpt lat="44.19699537161485" lon="10.5130005322757"><ele>1320.0</ele><time>2026-04-25T15:31:19.938Z</time></trkpt><trkpt lat="44.1968207889503" lon="10.512931673028968"><ele>1320.0</ele><time>2026-04-25T15:31:20.938Z</time></trkpt><trkpt lat="44.196647880342006" lon="10.512813574022685"><ele>1320.0</ele><time>2026-04-25T15:31:21.938Z</time></trkpt><trkpt lat="44.19649647209223" lon="10.512707824171297"><ele>1322.0</ele><time>2026-04-25T15:31:22.938Z</time></trkpt><trkpt lat="44.19631182817326" lon="10.512599260768527"><ele>1324.0</ele><time>2026-04-25T15:31:23.938Z</time></trkpt><trkpt lat="44.19614495859682" lon="10.51249082709254"><ele>1326.0</ele><time>2026-04-25T15:31:24.938Z</time></trkpt><trkpt lat="44.195999493056334" lon="10.5123605469376"><ele>1326.0</ele><time>2026-04-25T15:31:25.938Z</time></trkpt><trkpt lat="44.19589588121492" lon="10.512196116623956"><ele>1326.0</ele><time>2026-04-25T15:31:26.938Z</time></trkpt><trkpt lat="44.19583285039698" lon="10.512000370601092"><ele>1326.0</ele><time>2026-04-25T15:31:27.938Z</time></trkpt><trkpt lat="44.19578663644049" lon="10.511768145336148"><ele>1325.0</ele><time>2026-04-25T15:31:28.938Z</time></trkpt><trkpt lat="44.19573915540612" lon="10.511511612791391"><ele>1324.0</ele><time>2026-04-25T15:31:29.938Z</time></trkpt><trkpt lat="44.19569217140908" lon="10.511231547317218"><ele>1323.0</ele><time>2026-04-25T15:31:30.94Z</time></trkpt><trkpt lat="44.19565018003415" lon="10.510939728412797"><ele>1331.0</ele><time>2026-04-25T15:31:31.94Z</time></trkpt><trkpt lat="44.195628850095964" lon="10.510631512997673"><ele>1339.0</ele><time>2026-04-25T15:31:32.94Z</time></trkpt><trkpt lat="44.1956287239897" lon="10.510307668213908"><ele>1339.0</ele><time>2026-04-25T15:31:33.94Z</time></trkpt><trkpt lat="44.195643341741444" lon="10.509989586596127"><ele>1339.0</ele><time>2026-04-25T15:31:34.94Z</time></trkpt><trkpt lat="44.1956512314508" lon="10.509710644987381"><ele>1339.0</ele><time>2026-04-25T15:31:35.94Z</time></trkpt><trkpt lat="44.19567297019648" lon="10.509488041824303"><ele>1339.0</ele><time>2026-04-25T15:31:36.94Z</time></trkpt><trkpt lat="44.19572330946863" lon="10.509305359178759"><ele>1339.0</ele><time>2026-04-25T15:31:37.94Z</time></trkpt><trkpt lat="44.19582691521092" lon="10.509138556328246"><ele>1339.0</ele><time>2026-04-25T15:31:38.94Z</time></trkpt><trkpt lat="44.195971262318416" lon="10.508976376779072"><ele>1339.0</ele><time>2026-04-25T15:31:39.94Z</time></trkpt><trkpt lat="44.19607645786161" lon="10.508765622584198"><ele>1339.0</ele><time>2026-04-25T15:31:40.94Z</time></trkpt><trkpt lat="44.19614623739" lon="10.508513265611725"><ele>1339.0</ele><time>2026-04-25T15:31:41.94Z</time></trkpt><trkpt lat="44.19620492942266" lon="10.508220200073298"><ele>1345.0</ele><time>2026-04-25T15:31:42.94Z</time></trkpt><trkpt lat="44.19628868081596" lon="10.507942440984925"><ele>1351.0</ele><time>2026-04-25T15:31:43.94Z</time></trkpt><trkpt lat="44.19637790668186" lon="10.507724453304782"><ele>1357.0</ele><time>2026-04-25T15:31:44.94Z</time></trkpt><trkpt lat="44.196477066718394" lon="10.507591176623615"><ele>1356.6</ele><time>2026-04-25T15:31:45.94Z</time></trkpt><trkpt lat="44.19653222376272" lon="10.507470189243412"><ele>1356.1999999999998</ele><time>2026-04-25T15:31:46.94Z</time></trkpt><trkpt lat="44.19655307966716" lon="10.507349158602977"><ele>1355.8</ele><time>2026-04-25T15:31:47.94Z</time></trkpt><trkpt lat="44.19653892446209" lon="10.507189055108007"><ele>1355.4</ele><time>2026-04-25T15:31:48.94Z</time></trkpt><trkpt lat="44.19651170195253" lon="10.507000181703045"><ele>1355.0</ele><time>2026-04-25T15:31:49.94Z</time></trkpt><trkpt lat="44.19653236389292" lon="10.5068114864514"><ele>1355.0</ele><time>2026-04-25T15:31:50.94Z</time></trkpt><trkpt lat="44.19658174336698" lon="10.506628484256906"><ele>1355.0</ele><time>2026-04-25T15:31:51.94Z</time></trkpt><trkpt lat="44.19665884050852" lon="10.506471469341308"><ele>1355.0</ele><time>2026-04-25T15:31:52.94Z</time></trkpt><trkpt lat="44.19670580416977" lon="10.506326689051626"><ele>1355.0</ele><time>2026-04-25T15:31:53.94Z</time></trkpt><trkpt lat="44.19673361694125" lon="10.506185670675244"><ele>1356.5</ele><time>2026-04-25T15:31:54.94Z</time></trkpt><trkpt lat="44.1967520979465" lon="10.506080374535564"><ele>1358.0</ele><time>2026-04-25T15:31:55.94Z</time></trkpt><trkpt lat="44.19677392235909" lon="10.505968882866156"><ele>1359.5</ele><time>2026-04-25T15:31:57.94Z</time></trkpt><trkpt lat="44.19678033486595" lon="10.505840136140419"><ele>1361.0</ele><time>2026-04-25T15:32:00.939Z</time></trkpt><trkpt lat="44.19678758187689" lon="10.50574411737289"><ele>1362.5</ele><time>2026-04-25T15:32:01.939Z</time></trkpt><trkpt lat="44.196804416815596" lon="10.505603464952342"><ele>1364.0</ele><time>2026-04-25T15:32:02.939Z</time></trkpt><trkpt lat="44.19682799197204" lon="10.50541615971209"><ele>1367.3333333333335</ele><time>2026-04-25T15:32:03.939Z</time></trkpt><trkpt lat="44.19685302874457" lon="10.50521252276951"><ele>1370.6666666666667</ele><time>2026-04-25T15:32:04.939Z</time></trkpt><trkpt lat="44.196889477091844" lon="10.505006203739358"><ele>1374.0</ele><time>2026-04-25T15:32:05.939Z</time></trkpt><trkpt lat="44.196938165286035" lon="10.504778325099888"><ele>1378.0</ele><time>2026-04-25T15:32:06.939Z</time></trkpt><trkpt lat="44.196991274336405" lon="10.50452506382308"><ele>1382.0</ele><time>2026-04-25T15:32:07.939Z</time></trkpt><trkpt lat="44.197022900081734" lon="10.50427445798053"><ele>1386.0</ele><time>2026-04-25T15:32:08.939Z</time></trkpt><trkpt lat="44.19702903030806" lon="10.504069833749373"><ele>1386.0</ele><time>2026-04-25T15:32:09.939Z</time></trkpt><trkpt lat="44.19708310318728" lon="10.503927362752437"><ele>1386.0</ele><time>2026-04-25T15:32:10.939Z</time></trkpt><trkpt lat="44.197191006357095" lon="10.503824926631413"><ele>1386.0</ele><time>2026-04-25T15:32:11.939Z</time></trkpt><trkpt lat="44.19731387758882" lon="10.503762669271499"><ele>1386.0</ele><time>2026-04-25T15:32:12.939Z</time></trkpt><trkpt lat="44.19743997773436" lon="10.503705755818247"><ele>1382.25</ele><time>2026-04-25T15:32:13.939Z</time></trkpt><trkpt lat="44.19756704607778" lon="10.50363180153821"><ele>1378.5</ele><time>2026-04-25T15:32:14.939Z</time></trkpt><trkpt lat="44.197663278441645" lon="10.503525798812076"><ele>1374.75</ele><time>2026-04-25T15:32:15.939Z</time></trkpt><trkpt lat="44.19771048862493" lon="10.503389511061513"><ele>1371.0</ele><time>2026-04-25T15:32:16.939Z</time></trkpt><trkpt lat="44.197697057681786" lon="10.50322239767484"><ele>1371.0</ele><time>2026-04-25T15:32:17.939Z</time></trkpt><trkpt lat="44.19764646631177" lon="10.50305385083361"><ele>1371.0</ele><time>2026-04-25T15:32:18.939Z</time></trkpt><trkpt lat="44.19759475494687" lon="10.50290229961627"><ele>1371.0</ele><time>2026-04-25T15:32:19.939Z</time></trkpt><trkpt lat="44.19757923307714" lon="10.502783629304776"><ele>1371.0</ele><time>2026-04-25T15:32:20.939Z</time></trkpt><trkpt lat="44.19762964646849" lon="10.502682803415944"><ele>1371.0</ele><time>2026-04-25T15:32:21.939Z</time></trkpt><trkpt lat="44.19772414203591" lon="10.502615364618341"><ele>1374.75</ele><time>2026-04-25T15:32:22.939Z</time></trkpt><trkpt lat="44.19782148634812" lon="10.502541299100114"><ele>1378.5</ele><time>2026-04-25T15:32:23.939Z</time></trkpt><trkpt lat="44.197869935843286" lon="10.502403989492088"><ele>1382.25</ele><time>2026-04-25T15:32:24.939Z</time></trkpt><trkpt lat="44.197878942948535" lon="10.50222093000218"><ele>1386.0</ele><time>2026-04-25T15:32:25.939Z</time></trkpt><trkpt lat="44.19789222327522" lon="10.502027678550172"><ele>1384.25</ele><time>2026-04-25T15:32:26.939Z</time></trkpt><trkpt lat="44.19792169328879" lon="10.501868117571108"><ele>1382.5</ele><time>2026-04-25T15:32:27.939Z</time></trkpt><trkpt lat="44.19799236801178" lon="10.501736966229958"><ele>1380.75</ele><time>2026-04-25T15:32:28.939Z</time></trkpt><trkpt lat="44.198097622826175" lon="10.501643082152858"><ele>1379.0</ele><time>2026-04-25T15:32:29.939Z</time></trkpt><trkpt lat="44.198230350410896" lon="10.501590075966003"><ele>1379.0</ele><time>2026-04-25T15:32:30.939Z</time></trkpt><trkpt lat="44.19836502605507" lon="10.501522243190927"><ele>1379.0</ele><time>2026-04-25T15:32:31.939Z</time></trkpt><trkpt lat="44.19849891977446" lon="10.50142160960152"><ele>1379.0</ele><time>2026-04-25T15:32:32.939Z</time></trkpt><trkpt lat="44.19861327486473" lon="10.50126807658519"><ele>1388.6666666666667</ele><time>2026-04-25T15:32:33.939Z</time></trkpt><trkpt lat="44.198694084842444" lon="10.501084678679327"><ele>1398.3333333333333</ele><time>2026-04-25T15:32:34.939Z</time></trkpt><trkpt lat="44.19881660373232" lon="10.500940163156688"><ele>1408.0</ele><time>2026-04-25T15:32:35.939Z</time></trkpt><trkpt lat="44.19896143156414" lon="10.500835297538256"><ele>1408.3333333333333</ele><time>2026-04-25T15:32:36.939Z</time></trkpt><trkpt lat="44.19910365557064" lon="10.500718546116337"><ele>1408.6666666666667</ele><time>2026-04-25T15:32:37.939Z</time></trkpt><trkpt lat="44.199207302736596" lon="10.500525205881333"><ele>1409.0</ele><time>2026-04-25T15:32:38.939Z</time></trkpt><trkpt lat="44.19928140114473" lon="10.500299531373104"><ele>1409.0</ele><time>2026-04-25T15:32:39.939Z</time></trkpt><trkpt lat="44.19934810828527" lon="10.500070581840703"><ele>1409.0</ele><time>2026-04-25T15:32:40.939Z</time></trkpt><trkpt lat="44.19943506024962" lon="10.499849312553781"><ele>1409.0</ele><time>2026-04-25T15:32:41.939Z</time></trkpt><trkpt lat="44.199539309791724" lon="10.499653066292788"><ele>1409.6666666666667</ele><time>2026-04-25T15:32:42.939Z</time></trkpt><trkpt lat="44.19966977366657" lon="10.499514123686785"><ele>1410.3333333333333</ele><time>2026-04-25T15:32:43.939Z</time></trkpt><trkpt lat="44.19981437571322" lon="10.499392836798565"><ele>1411.0</ele><time>2026-04-25T15:32:44.939Z</time></trkpt><trkpt lat="44.199923980617086" lon="10.49923438764855"><ele>1411.0</ele><time>2026-04-25T15:32:45.939Z</time></trkpt><trkpt lat="44.19999582127273" lon="10.499045719785503"><ele>1411.0</ele><time>2026-04-25T15:32:46.939Z</time></trkpt><trkpt lat="44.200102186310644" lon="10.498912839710316"><ele>1411.0</ele><time>2026-04-25T15:32:47.939Z</time></trkpt><trkpt lat="44.2002377001254" lon="10.498804273631505"><ele>1414.3333333333333</ele><time>2026-04-25T15:32:48.939Z</time></trkpt><trkpt lat="44.20040297585095" lon="10.49872539562567"><ele>1417.6666666666667</ele><time>2026-04-25T15:32:49.939Z</time></trkpt><trkpt lat="44.20054215840495" lon="10.498633094315942"><ele>1421.0</ele><time>2026-04-25T15:32:50.939Z</time></trkpt><trkpt lat="44.200675492055055" lon="10.498498053446264"><ele>1421.0</ele><time>2026-04-25T15:32:51.939Z</time></trkpt><trkpt lat="44.20079934496165" lon="10.498355223984884"><ele>1421.0</ele><time>2026-04-25T15:32:52.939Z</time></trkpt><trkpt lat="44.20092735538169" lon="10.498251571476162"><ele>1421.0</ele><time>2026-04-25T15:32:53.939Z</time></trkpt><trkpt lat="44.20103025759915" lon="10.498104601049883"><ele>1421.0</ele><time>2026-04-25T15:32:54.939Z</time></trkpt><trkpt lat="44.20112165445356" lon="10.497941758429576"><ele>1421.0</ele><time>2026-04-25T15:32:55.939Z</time></trkpt><trkpt lat="44.20119758329052" lon="10.49775940695541"><ele>1421.0</ele><time>2026-04-25T15:32:56.939Z</time></trkpt><trkpt lat="44.20132913359347" lon="10.497553105020359"><ele>1420.3333333333335</ele><time>2026-04-25T15:32:57.939Z</time></trkpt><trkpt lat="44.20144883684802" lon="10.49740283776565"><ele>1419.6666666666667</ele><time>2026-04-25T15:32:58.939Z</time></trkpt><trkpt lat="44.201609424107716" lon="10.497305581712306"><ele>1419.0</ele><time>2026-04-25T15:32:59.939Z</time></trkpt><trkpt lat="44.201798547347295" lon="10.497226711808558"><ele>1419.0</ele><time>2026-04-25T15:33:00.939Z</time></trkpt><trkpt lat="44.20194686973613" lon="10.49715384804575"><ele>1419.0</ele><time>2026-04-25T15:33:01.939Z</time></trkpt><trkpt lat="44.20207362297892" lon="10.497060260150423"><ele>1419.0</ele><time>2026-04-25T15:33:02.939Z</time></trkpt><trkpt lat="44.202152671654474" lon="10.496975777968256"><ele>1419.0</ele><time>2026-04-25T15:33:03.939Z</time></trkpt><trkpt lat="44.20220489183488" lon="10.496874056923842"><ele>1432.5</ele><time>2026-04-25T15:33:04.939Z</time></trkpt><trkpt lat="44.202200136807456" lon="10.496763763455377"><ele>1446.0</ele><time>2026-04-25T15:33:05.939Z</time></trkpt><trkpt lat="44.20224878214276" lon="10.496130225446137"><ele>1442.0</ele><time>2026-04-25T15:33:07.939Z</time></trkpt><trkpt lat="44.20232095776516" lon="10.495977456299892"><ele>1438.0</ele><time>2026-04-25T15:33:08.939Z</time></trkpt><trkpt lat="44.20242007739675" lon="10.495860120244036"><ele>1434.0</ele><time>2026-04-25T15:33:09.939Z</time></trkpt><trkpt lat="44.20254868385981" lon="10.495791798997136"><ele>1430.0</ele><time>2026-04-25T15:33:10.939Z</time></trkpt><trkpt lat="44.20270301982624" lon="10.495705903204394"><ele>1430.0</ele><time>2026-04-25T15:33:11.939Z</time></trkpt><trkpt lat="44.202829214513976" lon="10.495588061554402"><ele>1430.0</ele><time>2026-04-25T15:33:12.939Z</time></trkpt><trkpt lat="44.20292535243651" lon="10.495420008723492"><ele>1430.0</ele><time>2026-04-25T15:33:13.939Z</time></trkpt><trkpt lat="44.203021124986684" lon="10.495227435258954"><ele>1430.0</ele><time>2026-04-25T15:33:14.939Z</time></trkpt><trkpt lat="44.20310246010563" lon="10.495023634355272"><ele>1430.0</ele><time>2026-04-25T15:33:15.939Z</time></trkpt><trkpt lat="44.203165838778496" lon="10.494782407585088"><ele>1430.0</ele><time>2026-04-25T15:33:16.939Z</time></trkpt><trkpt lat="44.20327926242211" lon="10.494582412405846"><ele>1439.0</ele><time>2026-04-25T15:33:17.939Z</time></trkpt><trkpt lat="44.203400872108524" lon="10.494375299038078"><ele>1448.0</ele><time>2026-04-25T15:33:18.939Z</time></trkpt><trkpt lat="44.203543715468406" lon="10.494197099080067"><ele>1457.0</ele><time>2026-04-25T15:33:19.939Z</time></trkpt><trkpt lat="44.20371222014383" lon="10.494077897034845"><ele>1457.0</ele><time>2026-04-25T15:33:20.939Z</time></trkpt><trkpt lat="44.203841332038515" lon="10.493959933246105"><ele>1457.0</ele><time>2026-04-25T15:33:21.939Z</time></trkpt><trkpt lat="44.20392496849478" lon="10.493795865865506"><ele>1457.0</ele><time>2026-04-25T15:33:22.939Z</time></trkpt><trkpt lat="44.20400557872481" lon="10.493668686972077"><ele>1457.0</ele><time>2026-04-25T15:33:23.939Z</time></trkpt><trkpt lat="44.204126628895196" lon="10.493622783377358"><ele>1460.3333333333335</ele><time>2026-04-25T15:33:24.939Z</time></trkpt><trkpt lat="44.204258046334026" lon="10.493676539952647"><ele>1463.6666666666667</ele><time>2026-04-25T15:33:25.939Z</time></trkpt><trkpt lat="44.20438161897368" lon="10.49378823197606"><ele>1467.0</ele><time>2026-04-25T15:33:26.939Z</time></trkpt><trkpt lat="44.20451913784688" lon="10.493924782912122"><ele>1461.3333333333333</ele><time>2026-04-25T15:33:27.939Z</time></trkpt><trkpt lat="44.20468227987324" lon="10.493976250041392"><ele>1455.6666666666665</ele><time>2026-04-25T15:33:28.939Z</time></trkpt><trkpt lat="44.20485989981812" lon="10.49393726829179"><ele>1450.0</ele><time>2026-04-25T15:33:29.939Z</time></trkpt><trkpt lat="44.20504194160965" lon="10.493864245729847"><ele>1450.0</ele><time>2026-04-25T15:33:30.939Z</time></trkpt><trkpt lat="44.205196568263105" lon="10.493835968199178"><ele>1450.0</ele><time>2026-04-25T15:33:31.939Z</time></trkpt><trkpt lat="44.205311170053584" lon="10.493902577862409"><ele>1450.0</ele><time>2026-04-25T15:33:32.939Z</time></trkpt><trkpt lat="44.20542445409464" lon="10.494004029021228"><ele>1450.0</ele><time>2026-04-25T15:33:33.939Z</time></trkpt><trkpt lat="44.20555702349406" lon="10.494026622611385"><ele>1450.0</ele><time>2026-04-25T15:33:34.939Z</time></trkpt><trkpt lat="44.20564329360353" lon="10.493935653008336"><ele>1450.0</ele><time>2026-04-25T15:33:35.939Z</time></trkpt><trkpt lat="44.20574728638626" lon="10.493782327193479"><ele>1450.0</ele><time>2026-04-25T15:33:36.941Z</time></trkpt><trkpt lat="44.2058734217899" lon="10.493619689901818"><ele>1450.0</ele><time>2026-04-25T15:33:37.94Z</time></trkpt><trkpt lat="44.20602244973022" lon="10.493504082307071"><ele>1457.25</ele><time>2026-04-25T15:33:38.94Z</time></trkpt><trkpt lat="44.20616576738729" lon="10.493441862995013"><ele>1464.5</ele><time>2026-04-25T15:33:39.941Z</time></trkpt><trkpt lat="44.2062902144533" lon="10.493415059007502"><ele>1471.75</ele><time>2026-04-25T15:33:40.94Z</time></trkpt><trkpt lat="44.206363571709275" lon="10.493328653005156"><ele>1479.0</ele><time>2026-04-25T15:33:41.94Z</time></trkpt><trkpt lat="44.20638197557813" lon="10.493204182277383"><ele>1479.0</ele><time>2026-04-25T15:33:42.941Z</time></trkpt><trkpt lat="44.206301659979765" lon="10.493026919834728"><ele>1479.0</ele><time>2026-04-25T15:33:43.94Z</time></trkpt><trkpt lat="44.20618440340235" lon="10.492857669329583"><ele>1479.0</ele><time>2026-04-25T15:33:44.94Z</time></trkpt><trkpt lat="44.20606347240674" lon="10.49271776733431"><ele>1478.6666666666667</ele><time>2026-04-25T15:33:45.941Z</time></trkpt><trkpt lat="44.20591312247673" lon="10.49258445286332"><ele>1478.3333333333335</ele><time>2026-04-25T15:33:46.94Z</time></trkpt><trkpt lat="44.20575854223286" lon="10.492494126804907"><ele>1478.0</ele><time>2026-04-25T15:33:47.94Z</time></trkpt><trkpt lat="44.205583632414914" lon="10.492474815618047"><ele>1480.75</ele><time>2026-04-25T15:33:48.941Z</time></trkpt><trkpt lat="44.205459535886796" lon="10.49245289682701"><ele>1483.5</ele><time>2026-04-25T15:33:49.941Z</time></trkpt><trkpt lat="44.205390762995" lon="10.492362109161853"><ele>1486.25</ele><time>2026-04-25T15:33:50.941Z</time></trkpt><trkpt lat="44.20538191407914" lon="10.49219656262362"><ele>1489.0</ele><time>2026-04-25T15:33:51.941Z</time></trkpt><trkpt lat="44.205382835827834" lon="10.491968111286708"><ele>1491.3333333333333</ele><time>2026-04-25T15:33:52.941Z</time></trkpt><trkpt lat="44.20542883765279" lon="10.491746765694593"><ele>1493.6666666666667</ele><time>2026-04-25T15:33:53.941Z</time></trkpt><trkpt lat="44.20552089823064" lon="10.491509888844822"><ele>1496.0</ele><time>2026-04-25T15:33:54.941Z</time></trkpt><trkpt lat="44.205644304275545" lon="10.491268915804536"><ele>1496.6666666666667</ele><time>2026-04-25T15:33:55.941Z</time></trkpt><trkpt lat="44.20572721527147" lon="10.491009171035222"><ele>1497.3333333333333</ele><time>2026-04-25T15:33:56.941Z</time></trkpt><trkpt lat="44.20580657612732" lon="10.490758519879893"><ele>1498.0</ele><time>2026-04-25T15:33:57.941Z</time></trkpt><trkpt lat="44.205882911968374" lon="10.490546367109205"><ele>1506.3333333333333</ele><time>2026-04-25T15:33:58.941Z</time></trkpt><trkpt lat="44.20599908595833" lon="10.490415434764548"><ele>1514.6666666666667</ele><time>2026-04-25T15:33:59.941Z</time></trkpt><trkpt lat="44.206147285178865" lon="10.49035603641787"><ele>1523.0</ele><time>2026-04-25T15:34:00.941Z</time></trkpt><trkpt lat="44.20627148069574" lon="10.490248220638914"><ele>1523.0</ele><time>2026-04-25T15:34:01.941Z</time></trkpt><trkpt lat="44.20636345613857" lon="10.490064511052989"><ele>1523.0</ele><time>2026-04-25T15:34:02.941Z</time></trkpt><trkpt lat="44.206410439409126" lon="10.489870442047803"><ele>1523.0</ele><time>2026-04-25T15:34:03.941Z</time></trkpt><trkpt lat="44.206523422254975" lon="10.489778030439183"><ele>1523.0</ele><time>2026-04-25T15:34:04.941Z</time></trkpt><trkpt lat="44.206687217889964" lon="10.489753956878337"><ele>1516.3333333333335</ele><time>2026-04-25T15:34:05.941Z</time></trkpt><trkpt lat="44.20686004926951" lon="10.489759527377869"><ele>1509.6666666666667</ele><time>2026-04-25T15:34:06.941Z</time></trkpt><trkpt lat="44.20703073017361" lon="10.489712176786508"><ele>1503.0</ele><time>2026-04-25T15:34:07.941Z</time></trkpt><trkpt lat="44.20717256646068" lon="10.489597277564334"><ele>1506.6666666666667</ele><time>2026-04-25T15:34:08.941Z</time></trkpt><trkpt lat="44.207268377446226" lon="10.489387817318995"><ele>1510.3333333333335</ele><time>2026-04-25T15:34:09.941Z</time></trkpt><trkpt lat="44.207324190193134" lon="10.489177182241946"><ele>1514.0</ele><time>2026-04-25T15:34:10.941Z</time></trkpt><trkpt lat="44.20742015920727" lon="10.489062081922064"><ele>1514.0</ele><time>2026-04-25T15:34:11.941Z</time></trkpt><trkpt lat="44.2075599419853" lon="10.489010898269393"><ele>1514.0</ele><time>2026-04-25T15:34:12.941Z</time></trkpt><trkpt lat="44.20772797578085" lon="10.488911048774082"><ele>1514.0</ele><time>2026-04-25T15:34:13.941Z</time></trkpt><trkpt lat="44.207886572193864" lon="10.488791795277"><ele>1512.6666666666667</ele><time>2026-04-25T15:34:14.941Z</time></trkpt><trkpt lat="44.20805773864671" lon="10.488715016285829"><ele>1511.3333333333333</ele><time>2026-04-25T15:34:15.94Z</time></trkpt><trkpt lat="44.208248506144265" lon="10.488725184941474"><ele>1510.0</ele><time>2026-04-25T15:34:16.94Z</time></trkpt><trkpt lat="44.208451276052664" lon="10.48878518872583"><ele>1510.0</ele><time>2026-04-25T15:34:17.94Z</time></trkpt><trkpt lat="44.2086480900969" lon="10.488882605421626"><ele>1510.0</ele><time>2026-04-25T15:34:18.94Z</time></trkpt><trkpt lat="44.20880135286422" lon="10.488997042080584"><ele>1510.0</ele><time>2026-04-25T15:34:19.94Z</time></trkpt><trkpt lat="44.20893436106331" lon="10.489033968256125"><ele>1512.2</ele><time>2026-04-25T15:34:20.94Z</time></trkpt><trkpt lat="44.209047784100804" lon="10.488971623817253"><ele>1514.4</ele><time>2026-04-25T15:34:21.94Z</time></trkpt><trkpt lat="44.20914908445013" lon="10.488890805917618"><ele>1516.6</ele><time>2026-04-25T15:34:22.94Z</time></trkpt><trkpt lat="44.20922507353314" lon="10.488821413440968"><ele>1518.8</ele><time>2026-04-25T15:34:23.94Z</time></trkpt><trkpt lat="44.20929796063879" lon="10.488773613797521"><ele>1521.0</ele><time>2026-04-25T15:34:24.94Z</time></trkpt><trkpt lat="44.20936271913481" lon="10.488742340645752"><ele>1521.8333333333333</ele><time>2026-04-25T15:34:25.94Z</time></trkpt><trkpt lat="44.20942357333653" lon="10.488708735393224"><ele>1522.6666666666667</ele><time>2026-04-25T15:34:26.94Z</time></trkpt><trkpt lat="44.209482701645136" lon="10.488662626321386"><ele>1523.5</ele><time>2026-04-25T15:34:27.94Z</time></trkpt><trkpt lat="44.209543583208024" lon="10.488617554255846"><ele>1524.3333333333335</ele><time>2026-04-25T15:34:28.94Z</time></trkpt><trkpt lat="44.20961430186961" lon="10.488580101794232"><ele>1525.1666666666667</ele><time>2026-04-25T15:34:29.94Z</time></trkpt><trkpt lat="44.209691531128136" lon="10.488536658614374"><ele>1526.0</ele><time>2026-04-25T15:34:30.94Z</time></trkpt><trkpt lat="44.209785878361885" lon="10.488502713405694"><ele>1526.0</ele><time>2026-04-25T15:34:31.94Z</time></trkpt><trkpt lat="44.209883880854456" lon="10.488455997797479"><ele>1526.0</ele><time>2026-04-25T15:34:32.94Z</time></trkpt><trkpt lat="44.20999289572399" lon="10.488411435950214"><ele>1526.0</ele><time>2026-04-25T15:34:33.94Z</time></trkpt><trkpt lat="44.21010112345001" lon="10.488357248091768"><ele>1526.0</ele><time>2026-04-25T15:34:34.94Z</time></trkpt><trkpt lat="44.21022216310832" lon="10.488307847552546"><ele>1526.0</ele><time>2026-04-25T15:34:35.94Z</time></trkpt><trkpt lat="44.21034898673246" lon="10.488260345239391"><ele>1526.0</ele><time>2026-04-25T15:34:36.94Z</time></trkpt><trkpt lat="44.210480238011364" lon="10.488221064940417"><ele>1526.0</ele><time>2026-04-25T15:34:37.94Z</time></trkpt><trkpt lat="44.210618003268976" lon="10.4881885544225"><ele>1526.0</ele><time>2026-04-25T15:34:38.94Z</time></trkpt><trkpt lat="44.21076091084618" lon="10.488138162881768"><ele>1527.0</ele><time>2026-04-25T15:34:39.94Z</time></trkpt><trkpt lat="44.210909807411994" lon="10.488067978719732"><ele>1528.0</ele><time>2026-04-25T15:34:40.94Z</time></trkpt><trkpt lat="44.21104375242006" lon="10.48799514661226"><ele>1529.0</ele><time>2026-04-25T15:34:41.94Z</time></trkpt><trkpt lat="44.21115216653291" lon="10.487931798723816"><ele>1530.0</ele><time>2026-04-25T15:34:42.94Z</time></trkpt><trkpt lat="44.21122095960952" lon="10.487850384354365"><ele>1527.0</ele><time>2026-04-25T15:34:43.94Z</time></trkpt><trkpt lat="44.21126373530374" lon="10.48769859537623"><ele>1524.0</ele><time>2026-04-25T15:34:44.94Z</time></trkpt><trkpt lat="44.21127570206511" lon="10.487483183214078"><ele>1521.0</ele><time>2026-04-25T15:34:45.94Z</time></trkpt><trkpt lat="44.21130905632605" lon="10.487254753063809"><ele>1518.0</ele><time>2026-04-25T15:34:46.94Z</time></trkpt><trkpt lat="44.21137733987209" lon="10.487022515659731"><ele>1516.4</ele><time>2026-04-25T15:34:47.94Z</time></trkpt><trkpt lat="44.21143938698449" lon="10.48682525753964"><ele>1514.8000000000002</ele><time>2026-04-25T15:34:48.94Z</time></trkpt><trkpt lat="44.21145982637192" lon="10.486668926506152"><ele>1513.2</ele><time>2026-04-25T15:34:49.94Z</time></trkpt><trkpt lat="44.21149142213407" lon="10.486578447487672"><ele>1511.6</ele><time>2026-04-25T15:34:50.94Z</time></trkpt><trkpt lat="44.21156931704872" lon="10.486549325139244"><ele>1510.0</ele><time>2026-04-25T15:34:51.94Z</time></trkpt><trkpt lat="44.21168088316039" lon="10.486618985982131"><ele>1511.5</ele><time>2026-04-25T15:34:52.94Z</time></trkpt><trkpt lat="44.211762831758016" lon="10.486766386862547"><ele>1513.0</ele><time>2026-04-25T15:34:53.94Z</time></trkpt><trkpt lat="44.21184278137155" lon="10.48693837147282"><ele>1514.5</ele><time>2026-04-25T15:34:54.94Z</time></trkpt><trkpt lat="44.21192586934022" lon="10.48711990760637"><ele>1516.0</ele><time>2026-04-25T15:34:55.94Z</time></trkpt><trkpt lat="44.21201167163553" lon="10.487246250501952"><ele>1516.0</ele><time>2026-04-25T15:34:56.94Z</time></trkpt><trkpt lat="44.21210235652603" lon="10.48730811156947"><ele>1516.0</ele><time>2026-04-25T15:34:57.94Z</time></trkpt><trkpt lat="44.21219425137184" lon="10.487303338778528"><ele>1516.0</ele><time>2026-04-25T15:34:58.94Z</time></trkpt><trkpt lat="44.21231401176912" lon="10.487224683594762"><ele>1516.0</ele><time>2026-04-25T15:34:59.94Z</time></trkpt><trkpt lat="44.21243711896613" lon="10.487098352359125"><ele>1510.25</ele><time>2026-04-25T15:35:00.94Z</time></trkpt><trkpt lat="44.21255763023339" lon="10.48697913795233"><ele>1504.5</ele><time>2026-04-25T15:35:01.94Z</time></trkpt><trkpt lat="44.21266982518885" lon="10.48688154233183"><ele>1498.75</ele><time>2026-04-25T15:35:02.94Z</time></trkpt><trkpt lat="44.212783890089675" lon="10.48681562399468"><ele>1493.0</ele><time>2026-04-25T15:35:03.94Z</time></trkpt><trkpt lat="44.21290834976089" lon="10.4867789084675"><ele>1493.0</ele><time>2026-04-25T15:35:04.94Z</time></trkpt><trkpt lat="44.2130162363426" lon="10.486792948819323"><ele>1493.0</ele><time>2026-04-25T15:35:05.94Z</time></trkpt><trkpt lat="44.21309105053144" lon="10.48674434407418"><ele>1493.0</ele><time>2026-04-25T15:35:06.94Z</time></trkpt><trkpt lat="44.21312306794146" lon="10.486628585660645"><ele>1493.0</ele><time>2026-04-25T15:35:07.94Z</time></trkpt><trkpt lat="44.2131160455204" lon="10.486484701096089"><ele>1493.0</ele><time>2026-04-25T15:35:08.94Z</time></trkpt><trkpt lat="44.21304870815685" lon="10.486333696582196"><ele>1490.75</ele><time>2026-04-25T15:35:09.94Z</time></trkpt><trkpt lat="44.212940985034344" lon="10.486188190655797"><ele>1488.5</ele><time>2026-04-25T15:35:10.94Z</time></trkpt><trkpt lat="44.21284746310244" lon="10.486036996835352"><ele>1486.25</ele><time>2026-04-25T15:35:11.94Z</time></trkpt><trkpt lat="44.21278130244267" lon="10.485870100411896"><ele>1484.0</ele><time>2026-04-25T15:35:12.94Z</time></trkpt><trkpt lat="44.21274855298617" lon="10.485736707850972"><ele>1484.0</ele><time>2026-04-25T15:35:13.94Z</time></trkpt><trkpt lat="44.21276161702416" lon="10.485595949628893"><ele>1484.0</ele><time>2026-04-25T15:35:14.94Z</time></trkpt><trkpt lat="44.21281067175839" lon="10.485430138684462"><ele>1484.0</ele><time>2026-04-25T15:35:15.94Z</time></trkpt><trkpt lat="44.21290058527125" lon="10.485249875673713"><ele>1484.0</ele><time>2026-04-25T15:35:16.94Z</time></trkpt><trkpt lat="44.21298244115797" lon="10.485047223191318"><ele>1482.25</ele><time>2026-04-25T15:35:17.94Z</time></trkpt><trkpt lat="44.21302794279853" lon="10.484819112238368"><ele>1480.5</ele><time>2026-04-25T15:35:18.94Z</time></trkpt><trkpt lat="44.21306029924531" lon="10.48464817767465"><ele>1478.75</ele><time>2026-04-25T15:35:19.94Z</time></trkpt><trkpt lat="44.213067259796304" lon="10.484488710696212"><ele>1477.0</ele><time>2026-04-25T15:35:20.94Z</time></trkpt><trkpt lat="44.21302952380292" lon="10.4843405302411"><ele>1474.3333333333333</ele><time>2026-04-25T15:35:21.94Z</time></trkpt><trkpt lat="44.212933576795386" lon="10.484179303332708"><ele>1471.6666666666667</ele><time>2026-04-25T15:35:22.94Z</time></trkpt><trkpt lat="44.2128739388664" lon="10.4839707954359"><ele>1469.0</ele><time>2026-04-25T15:35:23.94Z</time></trkpt><trkpt lat="44.21285125191811" lon="10.483753936657608"><ele>1467.5</ele><time>2026-04-25T15:35:24.94Z</time></trkpt><trkpt lat="44.21287259483595" lon="10.48355439901959"><ele>1466.0</ele><time>2026-04-25T15:35:25.94Z</time></trkpt><trkpt lat="44.21292544923558" lon="10.483382608516932"><ele>1464.5</ele><time>2026-04-25T15:35:26.94Z</time></trkpt><trkpt lat="44.21296150777499" lon="10.48321612374076"><ele>1463.0</ele><time>2026-04-25T15:35:27.94Z</time></trkpt><trkpt lat="44.21295948505108" lon="10.483056902966155"><ele>1461.75</ele><time>2026-04-25T15:35:28.94Z</time></trkpt><trkpt lat="44.21287516431954" lon="10.482913166241644"><ele>1460.5</ele><time>2026-04-25T15:35:29.94Z</time></trkpt><trkpt lat="44.212771873045455" lon="10.482766253958093"><ele>1459.25</ele><time>2026-04-25T15:35:30.94Z</time></trkpt><trkpt lat="44.21274094783362" lon="10.482615177966109"><ele>1458.0</ele><time>2026-04-25T15:35:31.94Z</time></trkpt><trkpt lat="44.212778639203236" lon="10.482417819006642"><ele>1458.0</ele><time>2026-04-25T15:35:32.94Z</time></trkpt><trkpt lat="44.21281083443507" lon="10.482201120522662"><ele>1458.0</ele><time>2026-04-25T15:35:33.94Z</time></trkpt><trkpt lat="44.212816220131195" lon="10.4819601659534"><ele>1458.0</ele><time>2026-04-25T15:35:34.94Z</time></trkpt><trkpt lat="44.212839628454724" lon="10.481715629340963"><ele>1459.3333333333333</ele><time>2026-04-25T15:35:35.94Z</time></trkpt><trkpt lat="44.212867531280345" lon="10.481497533751641"><ele>1460.6666666666665</ele><time>2026-04-25T15:35:36.94Z</time></trkpt><trkpt lat="44.21285951932778" lon="10.481283022745993"><ele>1462.0</ele><time>2026-04-25T15:35:37.94Z</time></trkpt><trkpt lat="44.21282194008854" lon="10.481096257267394"><ele>1462.0</ele><time>2026-04-25T15:35:38.94Z</time></trkpt><trkpt lat="44.21278690056482" lon="10.480966812891344"><ele>1462.0</ele><time>2026-04-25T15:35:39.94Z</time></trkpt><trkpt lat="44.21269945346714" lon="10.480873756280625"><ele>1462.0</ele><time>2026-04-25T15:35:40.94Z</time></trkpt><trkpt lat="44.2125783160599" lon="10.480817451403803"><ele>1462.0</ele><time>2026-04-25T15:35:41.94Z</time></trkpt><trkpt lat="44.2124741567979" lon="10.480702164996393"><ele>1462.0</ele><time>2026-04-25T15:35:42.941Z</time></trkpt><trkpt lat="44.21241028681112" lon="10.480522313885569"><ele>1462.0</ele><time>2026-04-25T15:35:43.941Z</time></trkpt><trkpt lat="44.21237503941764" lon="10.48030298850551"><ele>1462.0</ele><time>2026-04-25T15:35:44.941Z</time></trkpt><trkpt lat="44.212320169294046" lon="10.480124856180318"><ele>1462.0</ele><time>2026-04-25T15:35:45.941Z</time></trkpt><trkpt lat="44.212206334935765" lon="10.479982912356638"><ele>1460.6666666666665</ele><time>2026-04-25T15:35:46.941Z</time></trkpt><trkpt lat="44.21204709460317" lon="10.479883760454916"><ele>1459.3333333333333</ele><time>2026-04-25T15:35:47.941Z</time></trkpt><trkpt lat="44.21187063668251" lon="10.479766070112058"><ele>1458.0</ele><time>2026-04-25T15:35:48.941Z</time></trkpt><trkpt lat="44.21173457313763" lon="10.479636975580652"><ele>1459.6666666666667</ele><time>2026-04-25T15:35:49.941Z</time></trkpt><trkpt lat="44.21163141307487" lon="10.479467863138336"><ele>1461.3333333333335</ele><time>2026-04-25T15:35:50.941Z</time></trkpt><trkpt lat="44.2115461773866" lon="10.479301188746403"><ele>1463.0</ele><time>2026-04-25T15:35:51.941Z</time></trkpt><trkpt lat="44.21149816285528" lon="10.47910365685687"><ele>1458.25</ele><time>2026-04-25T15:35:52.941Z</time></trkpt><trkpt lat="44.2114724610224" lon="10.478880354077416"><ele>1453.5</ele><time>2026-04-25T15:35:53.941Z</time></trkpt><trkpt lat="44.21144012530201" lon="10.478691321854198"><ele>1448.75</ele><time>2026-04-25T15:35:54.941Z</time></trkpt><trkpt lat="44.21140950101032" lon="10.478540277543146"><ele>1444.0</ele><time>2026-04-25T15:35:55.941Z</time></trkpt><trkpt lat="44.2114440402002" lon="10.478405790087033"><ele>1448.0</ele><time>2026-04-25T15:35:56.941Z</time></trkpt><trkpt lat="44.21151916157103" lon="10.478311206546072"><ele>1452.0</ele><time>2026-04-25T15:35:57.941Z</time></trkpt><trkpt lat="44.211621519519184" lon="10.478311887050683"><ele>1456.0</ele><time>2026-04-25T15:35:58.941Z</time></trkpt><trkpt lat="44.21174101771989" lon="10.47839154251019"><ele>1460.0</ele><time>2026-04-25T15:35:59.941Z</time></trkpt><trkpt lat="44.21187707281592" lon="10.478421070442032"><ele>1460.0</ele><time>2026-04-25T15:36:00.941Z</time></trkpt><trkpt lat="44.21201361685746" lon="10.478359372543279"><ele>1460.0</ele><time>2026-04-25T15:36:01.941Z</time></trkpt><trkpt lat="44.2121642376771" lon="10.478253514783324"><ele>1460.0</ele><time>2026-04-25T15:36:02.941Z</time></trkpt><trkpt lat="44.21232366235628" lon="10.478130570175981"><ele>1459.6666666666667</ele><time>2026-04-25T15:36:03.941Z</time></trkpt><trkpt lat="44.21248325017742" lon="10.478023424771651"><ele>1459.3333333333333</ele><time>2026-04-25T15:36:04.941Z</time></trkpt><trkpt lat="44.212639011376076" lon="10.47794184906926"><ele>1459.0</ele><time>2026-04-25T15:36:05.941Z</time></trkpt><trkpt lat="44.21279365462123" lon="10.477892706795295"><ele>1459.0</ele><time>2026-04-25T15:36:06.941Z</time></trkpt><trkpt lat="44.21292887150115" lon="10.477913632060634"><ele>1459.0</ele><time>2026-04-25T15:36:07.941Z</time></trkpt><trkpt lat="44.21303235033577" lon="10.477983183133194"><ele>1459.0</ele><time>2026-04-25T15:36:08.941Z</time></trkpt><trkpt lat="44.213110175174315" lon="10.478117673922782"><ele>1459.0</ele><time>2026-04-25T15:36:09.941Z</time></trkpt><trkpt lat="44.21321339763476" lon="10.47827884491524"><ele>1455.25</ele><time>2026-04-25T15:36:10.941Z</time></trkpt><trkpt lat="44.21333040919955" lon="10.478394539426507"><ele>1451.5</ele><time>2026-04-25T15:36:11.941Z</time></trkpt><trkpt lat="44.213437457462" lon="10.478470318662268"><ele>1447.75</ele><time>2026-04-25T15:36:12.941Z</time></trkpt><trkpt lat="44.213522653561114" lon="10.47852333851415"><ele>1444.0</ele><time>2026-04-25T15:36:13.941Z</time></trkpt><trkpt lat="44.21359501008506" lon="10.478609148261999"><ele>1444.0</ele><time>2026-04-25T15:36:14.941Z</time></trkpt><trkpt lat="44.21364106808137" lon="10.47870764650817"><ele>1444.0</ele><time>2026-04-25T15:36:15.941Z</time></trkpt><trkpt lat="44.21371434377415" lon="10.478810994644423"><ele>1444.0</ele><time>2026-04-25T15:36:16.941Z</time></trkpt><trkpt lat="44.21384528981835" lon="10.478883670697737"><ele>1444.0</ele><time>2026-04-25T15:36:17.941Z</time></trkpt><trkpt lat="44.21398785329433" lon="10.478926382190442"><ele>1446.3333333333333</ele><time>2026-04-25T15:36:18.941Z</time></trkpt><trkpt lat="44.2141565271534" lon="10.47891015457527"><ele>1448.6666666666667</ele><time>2026-04-25T15:36:19.941Z</time></trkpt><trkpt lat="44.214334336179675" lon="10.478873597923737"><ele>1451.0</ele><time>2026-04-25T15:36:20.941Z</time></trkpt><trkpt lat="44.21451385108827" lon="10.478805223195932"><ele>1444.5</ele><time>2026-04-25T15:36:21.941Z</time></trkpt><trkpt lat="44.21468235053479" lon="10.478725546525233"><ele>1438.0</ele><time>2026-04-25T15:36:22.941Z</time></trkpt><trkpt lat="44.214803701037795" lon="10.478697733331707"><ele>1431.5</ele><time>2026-04-25T15:36:23.941Z</time></trkpt><trkpt lat="44.214921299699384" lon="10.478652288145586"><ele>1425.0</ele><time>2026-04-25T15:36:24.941Z</time></trkpt><trkpt lat="44.21501352390586" lon="10.478638600380304"><ele>1423.2</ele><time>2026-04-25T15:36:25.941Z</time></trkpt><trkpt lat="44.215121707646425" lon="10.478687697819435"><ele>1421.4</ele><time>2026-04-25T15:36:26.941Z</time></trkpt><trkpt lat="44.215242072790446" lon="10.47879264570102"><ele>1419.6</ele><time>2026-04-25T15:36:27.941Z</time></trkpt><trkpt lat="44.215317716415186" lon="10.478797866883726"><ele>1417.8</ele><time>2026-04-25T15:36:28.941Z</time></trkpt><trkpt lat="44.21539034911513" lon="10.478785578753381"><ele>1416.0</ele><time>2026-04-25T15:36:29.941Z</time></trkpt><trkpt lat="44.21546686349495" lon="10.478705013510483"><ele>1416.0</ele><time>2026-04-25T15:36:30.941Z</time></trkpt><trkpt lat="44.21549532287801" lon="10.478574678914367"><ele>1416.0</ele><time>2026-04-25T15:36:31.941Z</time></trkpt><trkpt lat="44.215497917420585" lon="10.47844343730116"><ele>1416.0</ele><time>2026-04-25T15:36:32.941Z</time></trkpt><trkpt lat="44.21547427640957" lon="10.478280442472082"><ele>1416.0</ele><time>2026-04-25T15:36:33.941Z</time></trkpt><trkpt lat="44.21548187135123" lon="10.478106221160777"><ele>1416.0</ele><time>2026-04-25T15:36:34.941Z</time></trkpt><trkpt lat="44.215484971538295" lon="10.477896952564272"><ele>1412.6666666666667</ele><time>2026-04-25T15:36:35.941Z</time></trkpt><trkpt lat="44.21547520814474" lon="10.477677868924511"><ele>1409.3333333333335</ele><time>2026-04-25T15:36:36.941Z</time></trkpt><trkpt lat="44.21546790565915" lon="10.47745512472015"><ele>1406.0</ele><time>2026-04-25T15:36:37.941Z</time></trkpt><trkpt lat="44.21546892181369" lon="10.477238460509112"><ele>1406.0</ele><time>2026-04-25T15:36:38.941Z</time></trkpt><trkpt lat="44.21548205260707" lon="10.477050767157905"><ele>1406.0</ele><time>2026-04-25T15:36:39.941Z</time></trkpt><trkpt lat="44.21549282168811" lon="10.476899308176796"><ele>1406.0</ele><time>2026-04-25T15:36:40.941Z</time></trkpt><trkpt lat="44.21548364383323" lon="10.47679529291894"><ele>1406.0</ele><time>2026-04-25T15:36:41.941Z</time></trkpt><trkpt lat="44.215424877355034" lon="10.47670410384378"><ele>1406.0</ele><time>2026-04-25T15:36:42.941Z</time></trkpt><trkpt lat="44.215319580309576" lon="10.476621980325017"><ele>1406.0</ele><time>2026-04-25T15:36:43.941Z</time></trkpt><trkpt lat="44.21519680628417" lon="10.476558210276075"><ele>1406.0</ele><time>2026-04-25T15:36:44.941Z</time></trkpt><trkpt lat="44.21506294989968" lon="10.476474818429043"><ele>1406.0</ele><time>2026-04-25T15:36:45.941Z</time></trkpt><trkpt lat="44.214958420500814" lon="10.476361470883626"><ele>1406.0</ele><time>2026-04-25T15:36:46.941Z</time></trkpt><trkpt lat="44.214898187951455" lon="10.47620971266064"><ele>1407.0</ele><time>2026-04-25T15:36:47.941Z</time></trkpt><trkpt lat="44.21484518771979" lon="10.476000359099736"><ele>1408.0</ele><time>2026-04-25T15:36:48.941Z</time></trkpt><trkpt lat="44.214809595601906" lon="10.475788792570702"><ele>1409.0</ele><time>2026-04-25T15:36:49.941Z</time></trkpt><trkpt lat="44.21479125474487" lon="10.475616695415857"><ele>1410.0</ele><time>2026-04-25T15:36:50.941Z</time></trkpt><trkpt lat="44.214756236051535" lon="10.475419500586826"><ele>1409.0</ele><time>2026-04-25T15:36:51.941Z</time></trkpt><trkpt lat="44.21471669220097" lon="10.475246438468934"><ele>1408.0</ele><time>2026-04-25T15:36:52.941Z</time></trkpt><trkpt lat="44.21468664409616" lon="10.475113097119598"><ele>1407.0</ele><time>2026-04-25T15:36:53.941Z</time></trkpt><trkpt lat="44.214710421116024" lon="10.475000977413563"><ele>1406.0</ele><time>2026-04-25T15:36:54.941Z</time></trkpt><trkpt lat="44.214777122017914" lon="10.474879187020074"><ele>1405.0</ele><time>2026-04-25T15:36:55.941Z</time></trkpt><trkpt lat="44.21487225788005" lon="10.47480806469972"><ele>1405.0</ele><time>2026-04-25T15:36:56.941Z</time></trkpt><trkpt lat="44.21496671379015" lon="10.4747381462911"><ele>1405.0</ele><time>2026-04-25T15:36:57.941Z</time></trkpt><trkpt lat="44.215076965190626" lon="10.47462313798881"><ele>1405.0</ele><time>2026-04-25T15:36:58.941Z</time></trkpt><trkpt lat="44.21517946426517" lon="10.474490791549922"><ele>1405.0</ele><time>2026-04-25T15:36:59.941Z</time></trkpt><trkpt lat="44.21529141566519" lon="10.474352228849783"><ele>1402.5</ele><time>2026-04-25T15:37:00.941Z</time></trkpt><trkpt lat="44.21539415113945" lon="10.474211076791669"><ele>1400.0</ele><time>2026-04-25T15:37:01.941Z</time></trkpt><trkpt lat="44.215476208412284" lon="10.474061487945676"><ele>1397.5</ele><time>2026-04-25T15:37:02.941Z</time></trkpt><trkpt lat="44.21552038694628" lon="10.47388094882498"><ele>1395.0</ele><time>2026-04-25T15:37:03.941Z</time></trkpt><trkpt lat="44.215537121668284" lon="10.473659393424645"><ele>1393.5</ele><time>2026-04-25T15:37:04.941Z</time></trkpt><trkpt lat="44.21556027938762" lon="10.473432776377283"><ele>1392.0</ele><time>2026-04-25T15:37:05.941Z</time></trkpt><trkpt lat="44.21558839299555" lon="10.473230677113348"><ele>1390.5</ele><time>2026-04-25T15:37:06.941Z</time></trkpt><trkpt lat="44.21560350835177" lon="10.47307588868852"><ele>1389.0</ele><time>2026-04-25T15:37:07.941Z</time></trkpt><trkpt lat="44.21558094874565" lon="10.472962962483154"><ele>1391.5</ele><time>2026-04-25T15:37:08.941Z</time></trkpt><trkpt lat="44.21552319895944" lon="10.472872941349433"><ele>1394.0</ele><time>2026-04-25T15:37:09.941Z</time></trkpt><trkpt lat="44.215423562130844" lon="10.472819085154892"><ele>1396.5</ele><time>2026-04-25T15:37:10.941Z</time></trkpt><trkpt lat="44.215310024566165" lon="10.472752011842529"><ele>1399.0</ele><time>2026-04-25T15:37:11.941Z</time></trkpt><trkpt lat="44.2152082693194" lon="10.472628091240415"><ele>1399.0</ele><time>2026-04-25T15:37:12.941Z</time></trkpt><trkpt lat="44.21513063136087" lon="10.472460253909045"><ele>1399.0</ele><time>2026-04-25T15:37:13.941Z</time></trkpt><trkpt lat="44.21507320053081" lon="10.472289073810645"><ele>1399.0</ele><time>2026-04-25T15:37:14.941Z</time></trkpt><trkpt lat="44.215011914042485" lon="10.472161882660822"><ele>1399.0</ele><time>2026-04-25T15:37:15.941Z</time></trkpt><trkpt lat="44.21490880194528" lon="10.47210042959797"><ele>1399.25</ele><time>2026-04-25T15:37:16.941Z</time></trkpt><trkpt lat="44.214779526561564" lon="10.472072953428684"><ele>1399.5</ele><time>2026-04-25T15:37:17.941Z</time></trkpt><trkpt lat="44.21462646595414" lon="10.47204544688523"><ele>1399.75</ele><time>2026-04-25T15:37:18.941Z</time></trkpt><trkpt lat="44.21448249592893" lon="10.471978679659063"><ele>1400.0</ele><time>2026-04-25T15:37:19.941Z</time></trkpt><trkpt lat="44.214351893668834" lon="10.471900187906355"><ele>1400.0</ele><time>2026-04-25T15:37:20.941Z</time></trkpt><trkpt lat="44.21420932220006" lon="10.471865102816366"><ele>1400.0</ele><time>2026-04-25T15:37:21.941Z</time></trkpt><trkpt lat="44.21407244556878" lon="10.471876400806247"><ele>1400.0</ele><time>2026-04-25T15:37:22.941Z</time></trkpt><trkpt lat="44.21395809925882" lon="10.471817508874015"><ele>1400.0</ele><time>2026-04-25T15:37:23.941Z</time></trkpt><trkpt lat="44.21386679150764" lon="10.471712843214046"><ele>1390.5</ele><time>2026-04-25T15:37:24.941Z</time></trkpt><trkpt lat="44.21381383141345" lon="10.471586670169598"><ele>1381.0</ele><time>2026-04-25T15:37:25.941Z</time></trkpt><trkpt lat="44.21380909365868" lon="10.471414464197844"><ele>1371.5</ele><time>2026-04-25T15:37:26.941Z</time></trkpt><trkpt lat="44.213812788493314" lon="10.471240275645803"><ele>1362.0</ele><time>2026-04-25T15:37:27.941Z</time></trkpt><trkpt lat="44.213799886737675" lon="10.471077761536531"><ele>1362.0</ele><time>2026-04-25T15:37:28.941Z</time></trkpt><trkpt lat="44.21376674262599" lon="10.470889109552763"><ele>1362.0</ele><time>2026-04-25T15:37:29.941Z</time></trkpt><trkpt lat="44.2137370298537" lon="10.470680701905897"><ele>1362.0</ele><time>2026-04-25T15:37:30.941Z</time></trkpt><trkpt lat="44.213737524756716" lon="10.470449561768376"><ele>1361.3333333333333</ele><time>2026-04-25T15:37:31.941Z</time></trkpt><trkpt lat="44.213750838212356" lon="10.47018972106409"><ele>1360.6666666666665</ele><time>2026-04-25T15:37:32.941Z</time></trkpt><trkpt lat="44.21375465776533" lon="10.469919798408602"><ele>1360.0</ele><time>2026-04-25T15:37:33.941Z</time></trkpt><trkpt lat="44.21373567733896" lon="10.469642074113"><ele>1359.3333333333333</ele><time>2026-04-25T15:37:34.941Z</time></trkpt><trkpt lat="44.213716436275796" lon="10.469367737037418"><ele>1358.6666666666667</ele><time>2026-04-25T15:37:35.941Z</time></trkpt><trkpt lat="44.2136847834266" lon="10.469108532574442"><ele>1358.0</ele><time>2026-04-25T15:37:36.941Z</time></trkpt><trkpt lat="44.213656553288686" lon="10.468875165441311"><ele>1353.3333333333335</ele><time>2026-04-25T15:37:37.94Z</time></trkpt><trkpt lat="44.21364497611918" lon="10.468683564938823"><ele>1348.6666666666667</ele><time>2026-04-25T15:37:38.94Z</time></trkpt><trkpt lat="44.213653063836766" lon="10.468497093833603"><ele>1344.0</ele><time>2026-04-25T15:37:39.94Z</time></trkpt><trkpt lat="44.21400394704871" lon="10.4683380229325"><ele>1350.3333333333333</ele><time>2026-04-25T15:37:40.94Z</time></trkpt><trkpt lat="44.21411430306833" lon="10.468138714011777"><ele>1356.6666666666665</ele><time>2026-04-25T15:37:41.94Z</time></trkpt><trkpt lat="44.214205802260956" lon="10.467912001069529"><ele>1363.0</ele><time>2026-04-25T15:37:42.94Z</time></trkpt><trkpt lat="44.21426782825686" lon="10.467665272414761"><ele>1363.0</ele><time>2026-04-25T15:37:43.94Z</time></trkpt><trkpt lat="44.214307863622864" lon="10.467432833637268"><ele>1363.0</ele><time>2026-04-25T15:37:44.94Z</time></trkpt><trkpt lat="44.2143610474405" lon="10.467266916261222"><ele>1363.0</ele><time>2026-04-25T15:37:45.94Z</time></trkpt><trkpt lat="44.21444946723421" lon="10.46712115633751"><ele>1363.0</ele><time>2026-04-25T15:37:46.94Z</time></trkpt><trkpt lat="44.21458188537605" lon="10.46699643466607"><ele>1366.5</ele><time>2026-04-25T15:37:47.94Z</time></trkpt><trkpt lat="44.21472512170247" lon="10.466881682836263"><ele>1370.0</ele><time>2026-04-25T15:37:48.942Z</time></trkpt><trkpt lat="44.2148623930565" lon="10.466796274465691"><ele>1373.5</ele><time>2026-04-25T15:37:49.941Z</time></trkpt><trkpt lat="44.21497862542254" lon="10.466732978024341"><ele>1377.0</ele><time>2026-04-25T15:37:50.941Z</time></trkpt><trkpt lat="44.21505392206718" lon="10.46664797702208"><ele>1377.0</ele><time>2026-04-25T15:37:51.942Z</time></trkpt><trkpt lat="44.215076892453325" lon="10.466533279181057"><ele>1377.0</ele><time>2026-04-25T15:37:52.941Z</time></trkpt><trkpt lat="44.21503693588528" lon="10.466349955350303"><ele>1377.0</ele><time>2026-04-25T15:37:53.941Z</time></trkpt><trkpt lat="44.21496784255503" lon="10.466110057363457"><ele>1377.0</ele><time>2026-04-25T15:37:54.942Z</time></trkpt><trkpt lat="44.21491907947653" lon="10.465877004966186"><ele>1378.6666666666667</ele><time>2026-04-25T15:37:55.942Z</time></trkpt><trkpt lat="44.214856986941705" lon="10.46569704591913"><ele>1380.3333333333335</ele><time>2026-04-25T15:37:56.942Z</time></trkpt><trkpt lat="44.214745008860284" lon="10.465539258077039"><ele>1382.0</ele><time>2026-04-25T15:37:57.942Z</time></trkpt><trkpt lat="44.214563568799235" lon="10.46538760356785"><ele>1374.6666666666667</ele><time>2026-04-25T15:37:58.941Z</time></trkpt><trkpt lat="44.214417168285074" lon="10.465204988616476"><ele>1367.3333333333333</ele><time>2026-04-25T15:37:59.941Z</time></trkpt><trkpt lat="44.2142974183801" lon="10.464974803768781"><ele>1360.0</ele><time>2026-04-25T15:38:00.942Z</time></trkpt><trkpt lat="44.214187210116826" lon="10.464753333043454"><ele>1356.6666666666665</ele><time>2026-04-25T15:38:01.941Z</time></trkpt><trkpt lat="44.21404234701738" lon="10.464553832620382"><ele>1353.3333333333333</ele><time>2026-04-25T15:38:02.941Z</time></trkpt><trkpt lat="44.21382980931961" lon="10.46441024197738"><ele>1350.0</ele><time>2026-04-25T15:38:03.941Z</time></trkpt><trkpt lat="44.213669685757" lon="10.464273614740131"><ele>1350.0</ele><time>2026-04-25T15:38:04.941Z</time></trkpt><trkpt lat="44.21354188745599" lon="10.464147918918389"><ele>1350.0</ele><time>2026-04-25T15:38:05.941Z</time></trkpt><trkpt lat="44.21345106956872" lon="10.464032898312118"><ele>1350.0</ele><time>2026-04-25T15:38:06.941Z</time></trkpt><trkpt lat="44.21338908537088" lon="10.46388085775948"><ele>1350.0</ele><time>2026-04-25T15:38:07.941Z</time></trkpt><trkpt lat="44.213362473423366" lon="10.463680561277162"><ele>1349.5</ele><time>2026-04-25T15:38:08.941Z</time></trkpt><trkpt lat="44.21335692271374" lon="10.46348990302962"><ele>1349.0</ele><time>2026-04-25T15:38:09.941Z</time></trkpt><trkpt lat="44.21337642830121" lon="10.463319714563992"><ele>1348.5</ele><time>2026-04-25T15:38:10.941Z</time></trkpt><trkpt lat="44.21345761516986" lon="10.463162991957264"><ele>1348.0</ele><time>2026-04-25T15:38:11.941Z</time></trkpt><trkpt lat="44.21357018053116" lon="10.463023030581125"><ele>1343.25</ele><time>2026-04-25T15:38:12.941Z</time></trkpt><trkpt lat="44.213684111757985" lon="10.46292073036415"><ele>1338.5</ele><time>2026-04-25T15:38:13.941Z</time></trkpt><trkpt lat="44.213821872402995" lon="10.462875667350987"><ele>1333.75</ele><time>2026-04-25T15:38:14.941Z</time></trkpt><trkpt lat="44.21397504631277" lon="10.462864153534571"><ele>1329.0</ele><time>2026-04-25T15:38:15.941Z</time></trkpt><trkpt lat="44.21413040587778" lon="10.462884012980936"><ele>1328.6666666666667</ele><time>2026-04-25T15:38:16.941Z</time></trkpt><trkpt lat="44.21428242462371" lon="10.462938826906923"><ele>1328.3333333333335</ele><time>2026-04-25T15:38:17.941Z</time></trkpt><trkpt lat="44.214433028821446" lon="10.463046772639997"><ele>1328.0</ele><time>2026-04-25T15:38:18.941Z</time></trkpt><trkpt lat="44.21457348180157" lon="10.463196330984907"><ele>1333.0</ele><time>2026-04-25T15:38:19.941Z</time></trkpt><trkpt lat="44.214743093606224" lon="10.463328556190682"><ele>1338.0</ele><time>2026-04-25T15:38:20.941Z</time></trkpt><trkpt lat="44.214923419112864" lon="10.463442798941871"><ele>1343.0</ele><time>2026-04-25T15:38:21.941Z</time></trkpt><trkpt lat="44.21508277106063" lon="10.463531677446575"><ele>1343.0</ele><time>2026-04-25T15:38:22.941Z</time></trkpt><trkpt lat="44.21524827420436" lon="10.463620841710823"><ele>1343.0</ele><time>2026-04-25T15:38:23.941Z</time></trkpt><trkpt lat="44.21541038058283" lon="10.463693213378846"><ele>1343.0</ele><time>2026-04-25T15:38:24.941Z</time></trkpt><trkpt lat="44.21557357190662" lon="10.463741862704902"><ele>1338.3333333333335</ele><time>2026-04-25T15:38:25.941Z</time></trkpt><trkpt lat="44.21573872735922" lon="10.463733532553944"><ele>1333.6666666666667</ele><time>2026-04-25T15:38:26.941Z</time></trkpt><trkpt lat="44.21591064961585" lon="10.463753126292266"><ele>1329.0</ele><time>2026-04-25T15:38:27.941Z</time></trkpt><trkpt lat="44.2160605799745" lon="10.463771283509061"><ele>1329.0</ele><time>2026-04-25T15:38:28.941Z</time></trkpt><trkpt lat="44.216205903962425" lon="10.46376236700017"><ele>1329.0</ele><time>2026-04-25T15:38:29.941Z</time></trkpt><trkpt lat="44.21634248633274" lon="10.463676913802843"><ele>1329.0</ele><time>2026-04-25T15:38:30.941Z</time></trkpt><trkpt lat="44.21648291866011" lon="10.463581750177605"><ele>1327.0</ele><time>2026-04-25T15:38:31.941Z</time></trkpt><trkpt lat="44.21660637790399" lon="10.463525323422411"><ele>1325.0</ele><time>2026-04-25T15:38:32.941Z</time></trkpt><trkpt lat="44.21669602907503" lon="10.463539983466928"><ele>1323.0</ele><time>2026-04-25T15:38:33.941Z</time></trkpt><trkpt lat="44.216785901312015" lon="10.463625903342109"><ele>1321.0</ele><time>2026-04-25T15:38:34.941Z</time></trkpt><trkpt lat="44.216889378083636" lon="10.46377838337202"><ele>1332.3333333333333</ele><time>2026-04-25T15:38:35.941Z</time></trkpt><trkpt lat="44.217002926691656" lon="10.463948107988232"><ele>1343.6666666666667</ele><time>2026-04-25T15:38:36.941Z</time></trkpt><trkpt lat="44.21714836383552" lon="10.464074782657189"><ele>1355.0</ele><time>2026-04-25T15:38:37.941Z</time></trkpt><trkpt lat="44.217306946362484" lon="10.464169464731565"><ele>1347.0</ele><time>2026-04-25T15:38:38.941Z</time></trkpt><trkpt lat="44.2174706794297" lon="10.464277314386246"><ele>1339.0</ele><time>2026-04-25T15:38:39.941Z</time></trkpt><trkpt lat="44.21762732669134" lon="10.464383813331246"><ele>1331.0</ele><time>2026-04-25T15:38:40.941Z</time></trkpt><trkpt lat="44.21776666673715" lon="10.464488483307777"><ele>1331.0</ele><time>2026-04-25T15:38:41.941Z</time></trkpt><trkpt lat="44.21790666501505" lon="10.464568604156378"><ele>1331.0</ele><time>2026-04-25T15:38:42.941Z</time></trkpt><trkpt lat="44.218044663502816" lon="10.464587702858632"><ele>1331.0</ele><time>2026-04-25T15:38:43.941Z</time></trkpt><trkpt lat="44.218159690974154" lon="10.464599836094937"><ele>1331.0</ele><time>2026-04-25T15:38:44.941Z</time></trkpt><trkpt lat="44.21826210106431" lon="10.464559337226552"><ele>1334.5</ele><time>2026-04-25T15:38:45.941Z</time></trkpt><trkpt lat="44.21833926390261" lon="10.464469298216624"><ele>1338.0</ele><time>2026-04-25T15:38:46.941Z</time></trkpt><trkpt lat="44.21835254504245" lon="10.464318716070853"><ele>1341.5</ele><time>2026-04-25T15:38:47.941Z</time></trkpt><trkpt lat="44.218314822850175" lon="10.464146458290255"><ele>1345.0</ele><time>2026-04-25T15:38:48.941Z</time></trkpt><trkpt lat="44.218236762736005" lon="10.464005437066657"><ele>1345.0</ele><time>2026-04-25T15:38:49.941Z</time></trkpt><trkpt lat="44.21815848384758" lon="10.463869999181867"><ele>1345.0</ele><time>2026-04-25T15:38:50.941Z</time></trkpt><trkpt lat="44.21809764577693" lon="10.4637147156262"><ele>1345.0</ele><time>2026-04-25T15:38:51.941Z</time></trkpt><trkpt lat="44.21805015582752" lon="10.463526552751974"><ele>1345.0</ele><time>2026-04-25T15:38:52.941Z</time></trkpt><trkpt lat="44.21803767249783" lon="10.463310321144744"><ele>1333.6666666666665</ele><time>2026-04-25T15:38:53.941Z</time></trkpt><trkpt lat="44.218030613013156" lon="10.463112219297415"><ele>1322.3333333333333</ele><time>2026-04-25T15:38:54.941Z</time></trkpt><trkpt lat="44.21799250231786" lon="10.462900883757833"><ele>1311.0</ele><time>2026-04-25T15:38:55.941Z</time></trkpt><trkpt lat="44.217936519542384" lon="10.462657052000745"><ele>1308.3333333333333</ele><time>2026-04-25T15:38:56.941Z</time></trkpt><trkpt lat="44.21789373419861" lon="10.462415573196285"><ele>1305.6666666666665</ele><time>2026-04-25T15:38:57.941Z</time></trkpt><trkpt lat="44.21789635873777" lon="10.46216964889025"><ele>1303.0</ele><time>2026-04-25T15:38:58.941Z</time></trkpt><trkpt lat="44.21789339356532" lon="10.461934145919301"><ele>1303.0</ele><time>2026-04-25T15:38:59.941Z</time></trkpt><trkpt lat="44.2178517491521" lon="10.46170248445981"><ele>1303.0</ele><time>2026-04-25T15:39:00.941Z</time></trkpt><trkpt lat="44.21780710940466" lon="10.4614680437224"><ele>1303.0</ele><time>2026-04-25T15:39:01.941Z</time></trkpt><trkpt lat="44.21775940336166" lon="10.46124674596333"><ele>1304.25</ele><time>2026-04-25T15:39:02.941Z</time></trkpt><trkpt lat="44.21772713305023" lon="10.461045893359112"><ele>1305.5</ele><time>2026-04-25T15:39:03.941Z</time></trkpt><trkpt lat="44.21774134968517" lon="10.460882006012934"><ele>1306.75</ele><time>2026-04-25T15:39:04.941Z</time></trkpt><trkpt lat="44.217798934086865" lon="10.46070478805363"><ele>1308.0</ele><time>2026-04-25T15:39:05.941Z</time></trkpt><trkpt lat="44.21789200763579" lon="10.460552623996538"><ele>1312.25</ele><time>2026-04-25T15:39:06.941Z</time></trkpt><trkpt lat="44.218014781037425" lon="10.460444683082125"><ele>1316.5</ele><time>2026-04-25T15:39:07.941Z</time></trkpt><trkpt lat="44.21814679061871" lon="10.460382550953412"><ele>1320.75</ele><time>2026-04-25T15:39:08.941Z</time></trkpt><trkpt lat="44.21822449434185" lon="10.46026196811954"><ele>1325.0</ele><time>2026-04-25T15:39:09.941Z</time></trkpt><trkpt lat="44.21822766610282" lon="10.460044741114334"><ele>1325.0</ele><time>2026-04-25T15:39:10.941Z</time></trkpt><trkpt lat="44.218223729262576" lon="10.45980378560591"><ele>1325.0</ele><time>2026-04-25T15:39:11.941Z</time></trkpt><trkpt lat="44.218238563420165" lon="10.459605535093711"><ele>1325.0</ele><time>2026-04-25T15:39:12.941Z</time></trkpt><trkpt lat="44.21827829951688" lon="10.459466038494945"><ele>1325.0</ele><time>2026-04-25T15:39:13.941Z</time></trkpt><trkpt lat="44.21836908573764" lon="10.459337148000811"><ele>1319.3333333333335</ele><time>2026-04-25T15:39:14.941Z</time></trkpt><trkpt lat="44.21850609325079" lon="10.459214635217098"><ele>1313.6666666666667</ele><time>2026-04-25T15:39:15.941Z</time></trkpt><trkpt lat="44.21864153228836" lon="10.459078544444674"><ele>1308.0</ele><time>2026-04-25T15:39:16.941Z</time></trkpt><trkpt lat="44.21872806205826" lon="10.458948107222515"><ele>1308.0</ele><time>2026-04-25T15:39:17.941Z</time></trkpt><trkpt lat="44.2187900882027" lon="10.458843029429238"><ele>1308.0</ele><time>2026-04-25T15:39:18.941Z</time></trkpt><trkpt lat="44.2187952725765" lon="10.458690316350237"><ele>1308.0</ele><time>2026-04-25T15:39:19.941Z</time></trkpt><trkpt lat="44.218714538799084" lon="10.458504009539716"><ele>1308.0</ele><time>2026-04-25T15:39:20.941Z</time></trkpt><trkpt lat="44.21867456095346" lon="10.458321872388288"><ele>1311.0</ele><time>2026-04-25T15:39:21.941Z</time></trkpt><trkpt lat="44.21869556538086" lon="10.458181599714633"><ele>1314.0</ele><time>2026-04-25T15:39:22.941Z</time></trkpt><trkpt lat="44.21877500547642" lon="10.4580852204507"><ele>1317.0</ele><time>2026-04-25T15:39:23.941Z</time></trkpt><trkpt lat="44.21888568884187" lon="10.458013255698267"><ele>1320.0</ele><time>2026-04-25T15:39:24.941Z</time></trkpt><trkpt lat="44.21903391601434" lon="10.457959686377114"><ele>1309.3333333333333</ele><time>2026-04-25T15:39:25.941Z</time></trkpt><trkpt lat="44.21919488025332" lon="10.4578559706934"><ele>1298.6666666666665</ele><time>2026-04-25T15:39:26.941Z</time></trkpt><trkpt lat="44.21936331243284" lon="10.457757364427108"><ele>1288.0</ele><time>2026-04-25T15:39:27.941Z</time></trkpt><trkpt lat="44.219538496060856" lon="10.457669597227964"><ele>1288.0</ele><time>2026-04-25T15:39:28.941Z</time></trkpt><trkpt lat="44.21971108509379" lon="10.457597177684113"><ele>1288.0</ele><time>2026-04-25T15:39:29.941Z</time></trkpt><trkpt lat="44.2198766749273" lon="10.45750183129525"><ele>1288.0</ele><time>2026-04-25T15:39:30.941Z</time></trkpt><trkpt lat="44.220020327730865" lon="10.457364840836814"><ele>1284.3333333333333</ele><time>2026-04-25T15:39:31.941Z</time></trkpt><trkpt lat="44.22019038332818" lon="10.457185406082177"><ele>1280.6666666666667</ele><time>2026-04-25T15:39:32.94Z</time></trkpt><trkpt lat="44.22036691823294" lon="10.457065111809381"><ele>1277.0</ele><time>2026-04-25T15:39:33.94Z</time></trkpt><trkpt lat="44.22054818950839" lon="10.456956532914822"><ele>1283.3333333333335</ele><time>2026-04-25T15:39:34.94Z</time></trkpt><trkpt lat="44.22070995370333" lon="10.456858544099696"><ele>1289.6666666666667</ele><time>2026-04-25T15:39:35.94Z</time></trkpt><trkpt lat="44.22084135258262" lon="10.456774322440229"><ele>1296.0</ele><time>2026-04-25T15:39:36.94Z</time></trkpt><trkpt lat="44.220961214025785" lon="10.456709110040386"><ele>1296.0</ele><time>2026-04-25T15:39:37.94Z</time></trkpt><trkpt lat="44.22105291137479" lon="10.456637856752042"><ele>1296.0</ele><time>2026-04-25T15:39:38.94Z</time></trkpt><trkpt lat="44.22110310104132" lon="10.456501912135511"><ele>1296.0</ele><time>2026-04-25T15:39:39.94Z</time></trkpt><trkpt lat="44.221094734033656" lon="10.45632972077711"><ele>1296.0</ele><time>2026-04-25T15:39:40.94Z</time></trkpt><trkpt lat="44.22108131809529" lon="10.456178466789192"><ele>1296.0</ele><time>2026-04-25T15:39:41.94Z</time></trkpt><trkpt lat="44.221014952717304" lon="10.45604991633269"><ele>1297.75</ele><time>2026-04-25T15:39:42.94Z</time></trkpt><trkpt lat="44.220927179058826" lon="10.455945839345912"><ele>1299.5</ele><time>2026-04-25T15:39:43.94Z</time></trkpt><trkpt lat="44.22081103368629" lon="10.455781727346457"><ele>1301.25</ele><time>2026-04-25T15:39:44.94Z</time></trkpt><trkpt lat="44.22068574148324" lon="10.455644733512976"><ele>1303.0</ele><time>2026-04-25T15:39:45.94Z</time></trkpt><trkpt lat="44.22054621393554" lon="10.455564888878637"><ele>1298.3333333333333</ele><time>2026-04-25T15:39:46.94Z</time></trkpt><trkpt lat="44.220385625738956" lon="10.455550546253264"><ele>1293.6666666666667</ele><time>2026-04-25T15:39:47.94Z</time></trkpt><trkpt lat="44.220206199855525" lon="10.455560618328468"><ele>1289.0</ele><time>2026-04-25T15:39:48.94Z</time></trkpt><trkpt lat="44.220012320966845" lon="10.455598121497944"><ele>1289.0</ele><time>2026-04-25T15:39:49.94Z</time></trkpt><trkpt lat="44.21982223398888" lon="10.45558781543964"><ele>1289.0</ele><time>2026-04-25T15:39:50.94Z</time></trkpt><trkpt lat="44.219627338541024" lon="10.455552512502681"><ele>1289.0</ele><time>2026-04-25T15:39:51.94Z</time></trkpt><trkpt lat="44.219443833083716" lon="10.455501082090523"><ele>1292.0</ele><time>2026-04-25T15:39:52.94Z</time></trkpt><trkpt lat="44.21928034064043" lon="10.455464085615564"><ele>1295.0</ele><time>2026-04-25T15:39:53.94Z</time></trkpt><trkpt lat="44.2191380400517" lon="10.455412880388867"><ele>1298.0</ele><time>2026-04-25T15:39:54.943Z</time></trkpt><trkpt lat="44.21904166741769" lon="10.455303416636154"><ele>1301.0</ele><time>2026-04-25T15:39:55.942Z</time></trkpt><trkpt lat="44.21899789503344" lon="10.455125355237445"><ele>1301.3333333333335</ele><time>2026-04-25T15:39:56.942Z</time></trkpt><trkpt lat="44.21896282832399" lon="10.454924965174365"><ele>1301.6666666666667</ele><time>2026-04-25T15:39:57.943Z</time></trkpt><trkpt lat="44.21893197802378" lon="10.454706346590626"><ele>1302.0</ele><time>2026-04-25T15:39:58.943Z</time></trkpt><trkpt lat="44.21893499437981" lon="10.454493579015269"><ele>1302.0</ele><time>2026-04-25T15:39:59.943Z</time></trkpt><trkpt lat="44.21895107135372" lon="10.454312073011925"><ele>1302.0</ele><time>2026-04-25T15:40:00.943Z</time></trkpt><trkpt lat="44.21894822972362" lon="10.454168295274235"><ele>1302.0</ele><time>2026-04-25T15:40:01.943Z</time></trkpt><trkpt lat="44.2188921377791" lon="10.454042679076101"><ele>1302.0</ele><time>2026-04-25T15:40:02.943Z</time></trkpt><trkpt lat="44.21880198598548" lon="10.453957805039778"><ele>1302.0</ele><time>2026-04-25T15:40:03.943Z</time></trkpt><trkpt lat="44.21867771763199" lon="10.453966336660589"><ele>1302.0</ele><time>2026-04-25T15:40:04.943Z</time></trkpt><trkpt lat="44.21853759383252" lon="10.454035775797845"><ele>1302.0</ele><time>2026-04-25T15:40:05.943Z</time></trkpt><trkpt lat="44.21840180321798" lon="10.454178999372427"><ele>1302.0</ele><time>2026-04-25T15:40:06.943Z</time></trkpt><trkpt lat="44.21824778563258" lon="10.4543278621624"><ele>1306.3333333333333</ele><time>2026-04-25T15:40:07.942Z</time></trkpt><trkpt lat="44.218091869341535" lon="10.454487609987055"><ele>1310.6666666666665</ele><time>2026-04-25T15:40:08.942Z</time></trkpt><trkpt lat="44.217935342468714" lon="10.45462895125817"><ele>1315.0</ele><time>2026-04-25T15:40:09.942Z</time></trkpt><trkpt lat="44.217752635041805" lon="10.454715954479118"><ele>1308.0</ele><time>2026-04-25T15:40:10.942Z</time></trkpt><trkpt lat="44.21756005503954" lon="10.454784141848798"><ele>1301.0</ele><time>2026-04-25T15:40:11.942Z</time></trkpt><trkpt lat="44.21735106054374" lon="10.454834676740301"><ele>1294.0</ele><time>2026-04-25T15:40:12.942Z</time></trkpt><trkpt lat="44.21713306659388" lon="10.454888278710294"><ele>1294.0</ele><time>2026-04-25T15:40:13.942Z</time></trkpt><trkpt lat="44.21691556235495" lon="10.454908545638402"><ele>1294.0</ele><time>2026-04-25T15:40:14.942Z</time></trkpt><trkpt lat="44.21670510276515" lon="10.454927413232964"><ele>1294.0</ele><time>2026-04-25T15:40:15.942Z</time></trkpt><trkpt lat="44.21650027385986" lon="10.454991087760442"><ele>1300.6666666666665</ele><time>2026-04-25T15:40:16.942Z</time></trkpt><trkpt lat="44.21629519743948" lon="10.455065876101921"><ele>1307.3333333333333</ele><time>2026-04-25T15:40:17.942Z</time></trkpt><trkpt lat="44.21607940606485" lon="10.455196997300888"><ele>1314.0</ele><time>2026-04-25T15:40:18.942Z</time></trkpt><trkpt lat="44.21587262259388" lon="10.455337408465535"><ele>1303.0</ele><time>2026-04-25T15:40:19.942Z</time></trkpt><trkpt lat="44.2156769422471" lon="10.45546813052373"><ele>1292.0</ele><time>2026-04-25T15:40:20.942Z</time></trkpt><trkpt lat="44.215498201377876" lon="10.45557025463746"><ele>1281.0</ele><time>2026-04-25T15:40:21.942Z</time></trkpt><trkpt lat="44.215361962539205" lon="10.45567316156613"><ele>1281.0</ele><time>2026-04-25T15:40:22.942Z</time></trkpt><trkpt lat="44.215246744702284" lon="10.455734653636092"><ele>1281.0</ele><time>2026-04-25T15:40:23.942Z</time></trkpt><trkpt lat="44.21513502763935" lon="10.455719311063946"><ele>1281.0</ele><time>2026-04-25T15:40:24.942Z</time></trkpt><trkpt lat="44.215050931997546" lon="10.455627079548188"><ele>1281.0</ele><time>2026-04-25T15:40:25.942Z</time></trkpt><trkpt lat="44.21497913239339" lon="10.455475168986146"><ele>1285.5</ele><time>2026-04-25T15:40:26.942Z</time></trkpt><trkpt lat="44.21488798870707" lon="10.455319077856455"><ele>1290.0</ele><time>2026-04-25T15:40:27.942Z</time></trkpt><trkpt lat="44.2147863398263" lon="10.45522303573844"><ele>1294.5</ele><time>2026-04-25T15:40:28.942Z</time></trkpt><trkpt lat="44.21467026537875" lon="10.455226981541403"><ele>1299.0</ele><time>2026-04-25T15:40:29.942Z</time></trkpt><trkpt lat="44.214540521276085" lon="10.455278303443762"><ele>1299.0</ele><time>2026-04-25T15:40:30.942Z</time></trkpt><trkpt lat="44.21441567523707" lon="10.455316513008139"><ele>1299.0</ele><time>2026-04-25T15:40:31.942Z</time></trkpt><trkpt lat="44.214324250866625" lon="10.455274002635429"><ele>1299.0</ele><time>2026-04-25T15:40:32.942Z</time></trkpt><trkpt lat="44.21424946453504" lon="10.455142150101365"><ele>1299.0</ele><time>2026-04-25T15:40:33.942Z</time></trkpt><trkpt lat="44.21417587721893" lon="10.454969057141739"><ele>1299.0</ele><time>2026-04-25T15:40:34.942Z</time></trkpt><trkpt lat="44.21407183028806" lon="10.454844880871038"><ele>1299.0</ele><time>2026-04-25T15:40:35.942Z</time></trkpt><trkpt lat="44.21392950303738" lon="10.454798827815615"><ele>1299.0</ele><time>2026-04-25T15:40:36.942Z</time></trkpt><trkpt lat="44.213831750626554" lon="10.454739028610916"><ele>1299.0</ele><time>2026-04-25T15:40:37.942Z</time></trkpt><trkpt lat="44.213783875307115" lon="10.454611969074717"><ele>1300.75</ele><time>2026-04-25T15:40:38.942Z</time></trkpt><trkpt lat="44.213794929489374" lon="10.454468594172566"><ele>1302.5</ele><time>2026-04-25T15:40:39.942Z</time></trkpt><trkpt lat="44.213864585770786" lon="10.454330859479706"><ele>1304.25</ele><time>2026-04-25T15:40:40.942Z</time></trkpt><trkpt lat="44.21395946040921" lon="10.454183698535955"><ele>1306.0</ele><time>2026-04-25T15:40:41.942Z</time></trkpt><trkpt lat="44.21405856237706" lon="10.454022466582455"><ele>1306.0</ele><time>2026-04-25T15:40:42.942Z</time></trkpt><trkpt lat="44.21414905007592" lon="10.453850562057527"><ele>1306.0</ele><time>2026-04-25T15:40:43.942Z</time></trkpt><trkpt lat="44.21419617652028" lon="10.453632237053789"><ele>1306.0</ele><time>2026-04-25T15:40:44.942Z</time></trkpt><trkpt lat="44.214212585472794" lon="10.45341479863131"><ele>1305.5</ele><time>2026-04-25T15:40:45.942Z</time></trkpt><trkpt lat="44.21422148231728" lon="10.453282204541885"><ele>1305.0</ele><time>2026-04-25T15:40:46.942Z</time></trkpt><trkpt lat="44.21419728025081" lon="10.45313498596542"><ele>1304.5</ele><time>2026-04-25T15:40:47.942Z</time></trkpt><trkpt lat="44.21413320839325" lon="10.452976148399864"><ele>1304.0</ele><time>2026-04-25T15:40:48.942Z</time></trkpt><trkpt lat="44.214017950729705" lon="10.45282667956431"><ele>1297.0</ele><time>2026-04-25T15:40:49.942Z</time></trkpt><trkpt lat="44.21388865751329" lon="10.452683221623928"><ele>1290.0</ele><time>2026-04-25T15:40:50.942Z</time></trkpt><trkpt lat="44.213736119617565" lon="10.452587840725764"><ele>1283.0</ele><time>2026-04-25T15:40:51.942Z</time></trkpt><trkpt lat="44.2135600087156" lon="10.452541126925667"><ele>1283.0</ele><time>2026-04-25T15:40:52.942Z</time></trkpt><trkpt lat="44.2134192925059" lon="10.452477412882365"><ele>1283.0</ele><time>2026-04-25T15:40:53.942Z</time></trkpt><trkpt lat="44.21334260402866" lon="10.452335924763812"><ele>1283.0</ele><time>2026-04-25T15:40:54.942Z</time></trkpt><trkpt lat="44.21327534610957" lon="10.452170554981235"><ele>1283.0</ele><time>2026-04-25T15:40:55.942Z</time></trkpt><trkpt lat="44.21323487284285" lon="10.452008166379407"><ele>1288.3333333333335</ele><time>2026-04-25T15:40:56.942Z</time></trkpt><trkpt lat="44.21323620757224" lon="10.45182263909602"><ele>1293.6666666666667</ele><time>2026-04-25T15:40:57.942Z</time></trkpt><trkpt lat="44.213245693887416" lon="10.451591004942916"><ele>1299.0</ele><time>2026-04-25T15:40:58.942Z</time></trkpt><trkpt lat="44.21323557803507" lon="10.451338002927361"><ele>1301.3333333333333</ele><time>2026-04-25T15:40:59.942Z</time></trkpt><trkpt lat="44.213225587687326" lon="10.451078292632735"><ele>1303.6666666666665</ele><time>2026-04-25T15:41:00.942Z</time></trkpt><trkpt lat="44.21321774266778" lon="10.450813418916391"><ele>1306.0</ele><time>2026-04-25T15:41:01.942Z</time></trkpt><trkpt lat="44.213205815824864" lon="10.450530257756556"><ele>1309.6666666666665</ele><time>2026-04-25T15:41:02.942Z</time></trkpt><trkpt lat="44.21320886884589" lon="10.450246360915243"><ele>1313.3333333333333</ele><time>2026-04-25T15:41:03.942Z</time></trkpt><trkpt lat="44.213227027839004" lon="10.449953319934977"><ele>1317.0</ele><time>2026-04-25T15:41:04.942Z</time></trkpt><trkpt lat="44.21325749209909" lon="10.449654542617411"><ele>1318.0</ele><time>2026-04-25T15:41:05.942Z</time></trkpt><trkpt lat="44.21328064664583" lon="10.449340966185424"><ele>1319.0</ele><time>2026-04-25T15:41:06.942Z</time></trkpt><trkpt lat="44.21330768119531" lon="10.449018095207531"><ele>1321.5</ele><time>2026-04-25T15:41:07.942Z</time></trkpt><trkpt lat="44.21331614658153" lon="10.4486995225443"><ele>1324.0</ele><time>2026-04-25T15:41:08.942Z</time></trkpt><trkpt lat="44.21330956551581" lon="10.448388152376365"><ele>1324.0</ele><time>2026-04-25T15:41:09.942Z</time></trkpt><trkpt lat="44.21327546974015" lon="10.448108178083409"><ele>1324.0</ele><time>2026-04-25T15:41:10.942Z</time></trkpt><trkpt lat="44.21323267043525" lon="10.447843744727631"><ele>1324.0</ele><time>2026-04-25T15:41:11.942Z</time></trkpt><trkpt lat="44.21321496783044" lon="10.447604483693665"><ele>1322.0</ele><time>2026-04-25T15:41:12.942Z</time></trkpt><trkpt lat="44.213228885908265" lon="10.447374329303997"><ele>1320.0</ele><time>2026-04-25T15:41:13.942Z</time></trkpt><trkpt lat="44.21328170727947" lon="10.447123285494584"><ele>1318.0</ele><time>2026-04-25T15:41:14.942Z</time></trkpt><trkpt lat="44.213362646291365" lon="10.446867678017616"><ele>1315.0</ele><time>2026-04-25T15:41:15.942Z</time></trkpt><trkpt lat="44.213449767087674" lon="10.446624864160642"><ele>1312.0</ele><time>2026-04-25T15:41:16.942Z</time></trkpt><trkpt lat="44.21356246847463" lon="10.446383062168453"><ele>1309.0</ele><time>2026-04-25T15:41:17.942Z</time></trkpt><trkpt lat="44.21368857071171" lon="10.446151779421857"><ele>1305.6666666666665</ele><time>2026-04-25T15:41:18.942Z</time></trkpt><trkpt lat="44.21381288225488" lon="10.445959855710118"><ele>1302.3333333333333</ele><time>2026-04-25T15:41:19.942Z</time></trkpt><trkpt lat="44.21393329540927" lon="10.445792262695965"><ele>1299.0</ele><time>2026-04-25T15:41:20.942Z</time></trkpt><trkpt lat="44.21404367571775" lon="10.44568810290316"><ele>1302.2</ele><time>2026-04-25T15:41:21.942Z</time></trkpt><trkpt lat="44.21411684246504" lon="10.445585502307699"><ele>1305.4</ele><time>2026-04-25T15:41:22.942Z</time></trkpt><trkpt lat="44.21413244241987" lon="10.445457526557131"><ele>1308.6</ele><time>2026-04-25T15:41:23.942Z</time></trkpt><trkpt lat="44.21409590325636" lon="10.445304000807253"><ele>1311.8</ele><time>2026-04-25T15:41:24.941Z</time></trkpt><trkpt lat="44.214019557016286" lon="10.4451835875014"><ele>1315.0</ele><time>2026-04-25T15:41:25.941Z</time></trkpt><trkpt lat="44.21391046835022" lon="10.445114285641235"><ele>1315.0</ele><time>2026-04-25T15:41:26.941Z</time></trkpt><trkpt lat="44.21375225737553" lon="10.445102082400114"><ele>1315.0</ele><time>2026-04-25T15:41:27.941Z</time></trkpt><trkpt lat="44.21360090518456" lon="10.445098190214656"><ele>1315.0</ele><time>2026-04-25T15:41:28.941Z</time></trkpt><trkpt lat="44.2134506330324" lon="10.4450831928132"><ele>1315.0</ele><time>2026-04-25T15:41:29.941Z</time></trkpt><trkpt lat="44.21330060457978" lon="10.445047240796118"><ele>1315.0</ele><time>2026-04-25T15:41:30.941Z</time></trkpt><trkpt lat="44.21316716377344" lon="10.445001001520156"><ele>1315.0</ele><time>2026-04-25T15:41:31.941Z</time></trkpt><trkpt lat="44.21305932294782" lon="10.444941194785372"><ele>1315.0</ele><time>2026-04-25T15:41:32.941Z</time></trkpt><trkpt lat="44.21297147243117" lon="10.44485477476512"><ele>1315.2</ele><time>2026-04-25T15:41:33.941Z</time></trkpt><trkpt lat="44.21287602341073" lon="10.444800515202019"><ele>1315.4</ele><time>2026-04-25T15:41:34.941Z</time></trkpt><trkpt lat="44.2127793798087" lon="10.444823258320172"><ele>1315.6</ele><time>2026-04-25T15:41:35.941Z</time></trkpt><trkpt lat="44.21269673763489" lon="10.444924380363776"><ele>1315.8</ele><time>2026-04-25T15:41:36.941Z</time></trkpt><trkpt lat="44.212608555364085" lon="10.44505711959027"><ele>1316.0</ele><time>2026-04-25T15:41:37.941Z</time></trkpt><trkpt lat="44.212494536516026" lon="10.44515748884162"><ele>1316.0</ele><time>2026-04-25T15:41:38.941Z</time></trkpt><trkpt lat="44.21234423218021" lon="10.44524067033951"><ele>1316.0</ele><time>2026-04-25T15:41:39.941Z</time></trkpt><trkpt lat="44.21220491565964" lon="10.445296504964261"><ele>1316.0</ele><time>2026-04-25T15:41:40.941Z</time></trkpt><trkpt lat="44.21206679575159" lon="10.445363105388758"><ele>1315.0</ele><time>2026-04-25T15:41:41.941Z</time></trkpt><trkpt lat="44.21192534149984" lon="10.445442839417705"><ele>1314.0</ele><time>2026-04-25T15:41:42.941Z</time></trkpt><trkpt lat="44.211791803021676" lon="10.445516048528143"><ele>1313.0</ele><time>2026-04-25T15:41:43.941Z</time></trkpt><trkpt lat="44.21164652728067" lon="10.445583589010628"><ele>1312.0</ele><time>2026-04-25T15:41:44.941Z</time></trkpt><trkpt lat="44.21150431625169" lon="10.445643270727274"><ele>1314.6666666666665</ele><time>2026-04-25T15:41:45.941Z</time></trkpt><trkpt lat="44.211356934926975" lon="10.44567215008467"><ele>1317.3333333333333</ele><time>2026-04-25T15:41:46.941Z</time></trkpt><trkpt lat="44.211204389246205" lon="10.445714069606717"><ele>1320.0</ele><time>2026-04-25T15:41:47.941Z</time></trkpt><trkpt lat="44.21105719433254" lon="10.445776869931146"><ele>1320.0</ele><time>2026-04-25T15:41:48.941Z</time></trkpt><trkpt lat="44.210904994288214" lon="10.44585325711973"><ele>1320.0</ele><time>2026-04-25T15:41:49.941Z</time></trkpt><trkpt lat="44.21075023010613" lon="10.445950026832325"><ele>1320.0</ele><time>2026-04-25T15:41:50.941Z</time></trkpt><trkpt lat="44.210586172063415" lon="10.446051623296693"><ele>1318.3333333333333</ele><time>2026-04-25T15:41:51.941Z</time></trkpt><trkpt lat="44.21041709909722" lon="10.446150085320355"><ele>1316.6666666666665</ele><time>2026-04-25T15:41:52.941Z</time></trkpt><trkpt lat="44.210241476528026" lon="10.446252066469581"><ele>1315.0</ele><time>2026-04-25T15:41:53.941Z</time></trkpt><trkpt lat="44.21006988342125" lon="10.446348137733384"><ele>1315.0</ele><time>2026-04-25T15:41:54.941Z</time></trkpt><trkpt lat="44.209892855174694" lon="10.446459818141054"><ele>1315.0</ele><time>2026-04-25T15:41:55.941Z</time></trkpt><trkpt lat="44.20971462900141" lon="10.44659635699079"><ele>1315.0</ele><time>2026-04-25T15:41:56.941Z</time></trkpt><trkpt lat="44.20954352724042" lon="10.446717779711763"><ele>1313.6666666666665</ele><time>2026-04-25T15:41:57.941Z</time></trkpt><trkpt lat="44.20939814755997" lon="10.446852109519554"><ele>1312.3333333333333</ele><time>2026-04-25T15:41:58.941Z</time></trkpt><trkpt lat="44.20928216495718" lon="10.4470081625587"><ele>1311.0</ele><time>2026-04-25T15:41:59.941Z</time></trkpt><trkpt lat="44.20919183272862" lon="10.447171484087066"><ele>1311.0</ele><time>2026-04-25T15:42:00.943Z</time></trkpt><trkpt lat="44.209106437291396" lon="10.447295228008885"><ele>1311.0</ele><time>2026-04-25T15:42:01.942Z</time></trkpt><trkpt lat="44.208993949733895" lon="10.447372599243636"><ele>1311.0</ele><time>2026-04-25T15:42:02.942Z</time></trkpt><trkpt lat="44.20886782467128" lon="10.447414316809823"><ele>1311.0</ele><time>2026-04-25T15:42:03.943Z</time></trkpt><trkpt lat="44.208721520407785" lon="10.447424282522752"><ele>1313.5</ele><time>2026-04-25T15:42:04.943Z</time></trkpt><trkpt lat="44.20858822625424" lon="10.447491375530486"><ele>1316.0</ele><time>2026-04-25T15:42:05.943Z</time></trkpt><trkpt lat="44.20847219067358" lon="10.447620617799046"><ele>1318.5</ele><time>2026-04-25T15:42:06.943Z</time></trkpt><trkpt lat="44.20836218320841" lon="10.447778928300716"><ele>1321.0</ele><time>2026-04-25T15:42:07.942Z</time></trkpt><trkpt lat="44.20825166832337" lon="10.44794681639571"><ele>1320.0</ele><time>2026-04-25T15:42:08.942Z</time></trkpt><trkpt lat="44.20813508224739" lon="10.448119003741802"><ele>1319.0</ele><time>2026-04-25T15:42:09.943Z</time></trkpt><trkpt lat="44.20801518376026" lon="10.448295674043205"><ele>1318.0</ele><time>2026-04-25T15:42:10.943Z</time></trkpt><trkpt lat="44.20792715817536" lon="10.448480026925193"><ele>1318.0</ele><time>2026-04-25T15:42:11.943Z</time></trkpt><trkpt lat="44.207856681953444" lon="10.448646590311137"><ele>1318.0</ele><time>2026-04-25T15:42:12.944Z</time></trkpt><trkpt lat="44.207773423195455" lon="10.448747845620913"><ele>1318.0</ele><time>2026-04-25T15:42:13.943Z</time></trkpt><trkpt lat="44.207688430825314" lon="10.448818000297202"><ele>1318.0</ele><time>2026-04-25T15:42:14.943Z</time></trkpt><trkpt lat="44.20760413227213" lon="10.448839386567697"><ele>1318.0</ele><time>2026-04-25T15:42:15.943Z</time></trkpt><trkpt lat="44.20752909215579" lon="10.448815918729919"><ele>1319.0</ele><time>2026-04-25T15:42:16.943Z</time></trkpt><trkpt lat="44.2071076682504" lon="10.448526441094716"><ele>1319.0</ele><time>2026-04-25T15:42:17.943Z</time></trkpt><trkpt lat="44.2069832007775" lon="10.448370314921544"><ele>1319.0</ele><time>2026-04-25T15:42:18.943Z</time></trkpt><trkpt lat="44.206876712564984" lon="10.448238195600217"><ele>1319.0</ele><time>2026-04-25T15:42:19.943Z</time></trkpt><trkpt lat="44.20677660955935" lon="10.448152285170158"><ele>1319.0</ele><time>2026-04-25T15:42:20.943Z</time></trkpt><trkpt lat="44.206669608568504" lon="10.448142530417423"><ele>1319.0</ele><time>2026-04-25T15:42:21.943Z</time></trkpt><trkpt lat="44.20655622210439" lon="10.4482039490022"><ele>1319.0</ele><time>2026-04-25T15:42:22.943Z</time></trkpt><trkpt lat="44.20643173387553" lon="10.448325543683653"><ele>1319.0</ele><time>2026-04-25T15:42:23.943Z</time></trkpt><trkpt lat="44.20629858341284" lon="10.448471684251555"><ele>1319.0</ele><time>2026-04-25T15:42:24.943Z</time></trkpt><trkpt lat="44.20618464259341" lon="10.448676965424728"><ele>1321.0</ele><time>2026-04-25T15:42:25.943Z</time></trkpt><trkpt lat="44.206075952094785" lon="10.448868517656848"><ele>1323.0</ele><time>2026-04-25T15:42:26.943Z</time></trkpt><trkpt lat="44.20595779145834" lon="10.44908443401845"><ele>1325.0</ele><time>2026-04-25T15:42:27.943Z</time></trkpt><trkpt lat="44.20583702989474" lon="10.449297155714843"><ele>1325.0</ele><time>2026-04-25T15:42:28.943Z</time></trkpt><trkpt lat="44.20571280586302" lon="10.44949317200485"><ele>1325.0</ele><time>2026-04-25T15:42:29.943Z</time></trkpt><trkpt lat="44.20556824020536" lon="10.449675388574795"><ele>1325.0</ele><time>2026-04-25T15:42:30.943Z</time></trkpt><trkpt lat="44.20539859899171" lon="10.449825026899918"><ele>1326.6666666666667</ele><time>2026-04-25T15:42:31.943Z</time></trkpt><trkpt lat="44.20522312170436" lon="10.449948616097863"><ele>1328.3333333333333</ele><time>2026-04-25T15:42:32.943Z</time></trkpt><trkpt lat="44.20504831159994" lon="10.450047049041704"><ele>1330.0</ele><time>2026-04-25T15:42:33.943Z</time></trkpt><trkpt lat="44.2049003808749" lon="10.450161599363133"><ele>1332.0</ele><time>2026-04-25T15:42:34.943Z</time></trkpt><trkpt lat="44.20476945256325" lon="10.450315304450685"><ele>1334.0</ele><time>2026-04-25T15:42:35.943Z</time></trkpt><trkpt lat="44.20465983424288" lon="10.450522032608871"><ele>1336.0</ele><time>2026-04-25T15:42:36.943Z</time></trkpt><trkpt lat="44.204561702936864" lon="10.45076319148861"><ele>1336.0</ele><time>2026-04-25T15:42:37.943Z</time></trkpt><trkpt lat="44.20445595816876" lon="10.450997032310324"><ele>1336.0</ele><time>2026-04-25T15:42:38.943Z</time></trkpt><trkpt lat="44.20433232237639" lon="10.451215941850512"><ele>1336.0</ele><time>2026-04-25T15:42:39.943Z</time></trkpt><trkpt lat="44.20424681643335" lon="10.451438290020132"><ele>1331.5</ele><time>2026-04-25T15:42:40.943Z</time></trkpt><trkpt lat="44.20421783601572" lon="10.451685692487372"><ele>1327.0</ele><time>2026-04-25T15:42:41.943Z</time></trkpt><trkpt lat="44.204168018913485" lon="10.451863871700317"><ele>1322.5</ele><time>2026-04-25T15:42:42.943Z</time></trkpt><trkpt lat="44.20411144039466" lon="10.451980448742626"><ele>1318.0</ele><time>2026-04-25T15:42:43.943Z</time></trkpt><trkpt lat="44.204022129693435" lon="10.452030139992603"><ele>1320.3333333333333</ele><time>2026-04-25T15:42:44.943Z</time></trkpt><trkpt lat="44.20388119866396" lon="10.45200497842319"><ele>1322.6666666666667</ele><time>2026-04-25T15:42:45.943Z</time></trkpt><trkpt lat="44.20371672427901" lon="10.451961162733872"><ele>1325.0</ele><time>2026-04-25T15:42:46.943Z</time></trkpt><trkpt lat="44.203544171018386" lon="10.451954804291042"><ele>1325.0</ele><time>2026-04-25T15:42:47.943Z</time></trkpt><trkpt lat="44.20336977700018" lon="10.451933060560798"><ele>1325.0</ele><time>2026-04-25T15:42:48.943Z</time></trkpt><trkpt lat="44.203209786009936" lon="10.451927571609815"><ele>1325.0</ele><time>2026-04-25T15:42:49.943Z</time></trkpt><trkpt lat="44.2030761148962" lon="10.451960643701648"><ele>1318.8</ele><time>2026-04-25T15:42:50.943Z</time></trkpt><trkpt lat="44.20296110923711" lon="10.452024500651564"><ele>1312.6</ele><time>2026-04-25T15:42:51.943Z</time></trkpt><trkpt lat="44.20286913978084" lon="10.452000816269535"><ele>1306.4</ele><time>2026-04-25T15:42:52.943Z</time></trkpt><trkpt lat="44.20278201842118" lon="10.451925376807846"><ele>1300.2</ele><time>2026-04-25T15:42:53.943Z</time></trkpt><trkpt lat="44.20270989055422" lon="10.451825600290743"><ele>1294.0</ele><time>2026-04-25T15:42:54.943Z</time></trkpt><trkpt lat="44.20267516348061" lon="10.451681851337185"><ele>1294.0</ele><time>2026-04-25T15:42:55.943Z</time></trkpt><trkpt lat="44.20267911056942" lon="10.451501399250112"><ele>1294.0</ele><time>2026-04-25T15:42:56.943Z</time></trkpt><trkpt lat="44.20270431513378" lon="10.451325306105762"><ele>1294.0</ele><time>2026-04-25T15:42:57.943Z</time></trkpt><trkpt lat="44.20274732447582" lon="10.451139875070977"><ele>1294.0</ele><time>2026-04-25T15:42:58.943Z</time></trkpt><trkpt lat="44.20278634381408" lon="10.450932876919714"><ele>1293.0</ele><time>2026-04-25T15:42:59.943Z</time></trkpt><trkpt lat="44.20282605131041" lon="10.450746630800209"><ele>1292.0</ele><time>2026-04-25T15:43:00.943Z</time></trkpt><trkpt lat="44.20285715614567" lon="10.450605714476566"><ele>1291.0</ele><time>2026-04-25T15:43:01.943Z</time></trkpt><trkpt lat="44.202862250267984" lon="10.450491621721993"><ele>1290.0</ele><time>2026-04-25T15:43:02.943Z</time></trkpt><trkpt lat="44.20282045994787" lon="10.45039614281912"><ele>1289.0</ele><time>2026-04-25T15:43:03.943Z</time></trkpt><trkpt lat="44.202740279356235" lon="10.450326057361702"><ele>1289.0</ele><time>2026-04-25T15:43:04.943Z</time></trkpt><trkpt lat="44.20265695570109" lon="10.450263995140888"><ele>1289.0</ele><time>2026-04-25T15:43:05.943Z</time></trkpt><trkpt lat="44.20257678528793" lon="10.450178851140508"><ele>1289.0</ele><time>2026-04-25T15:43:06.943Z</time></trkpt><trkpt lat="44.20252835618798" lon="10.450091610235049"><ele>1289.0</ele><time>2026-04-25T15:43:07.943Z</time></trkpt><trkpt lat="44.202495443172744" lon="10.450005621587657"><ele>1289.0</ele><time>2026-04-25T15:43:08.943Z</time></trkpt><trkpt lat="44.20248115165069" lon="10.44989165920126"><ele>1289.0</ele><time>2026-04-25T15:43:09.943Z</time></trkpt><trkpt lat="44.202472349940045" lon="10.44978538329766"><ele>1289.0</ele><time>2026-04-25T15:43:10.943Z</time></trkpt><trkpt lat="44.202471574863765" lon="10.449683525634308"><ele>1289.0</ele><time>2026-04-25T15:43:11.943Z</time></trkpt><trkpt lat="44.202511400989806" lon="10.449566365501326"><ele>1289.0</ele><time>2026-04-25T15:43:12.943Z</time></trkpt><trkpt lat="44.20256060045366" lon="10.44944851147596"><ele>1289.0</ele><time>2026-04-25T15:43:13.943Z</time></trkpt><trkpt lat="44.20261279028949" lon="10.449328997317458"><ele>1289.0</ele><time>2026-04-25T15:43:14.943Z</time></trkpt><trkpt lat="44.202661344834816" lon="10.449205426857127"><ele>1288.8000000000002</ele><time>2026-04-25T15:43:15.943Z</time></trkpt><trkpt lat="44.20271112311166" lon="10.449093678133565"><ele>1288.6000000000001</ele><time>2026-04-25T15:43:16.943Z</time></trkpt><trkpt lat="44.20276424147426" lon="10.448986508046755"><ele>1288.4</ele><time>2026-04-25T15:43:17.943Z</time></trkpt><trkpt lat="44.20281766775547" lon="10.448861556595332"><ele>1288.2</ele><time>2026-04-25T15:43:18.943Z</time></trkpt><trkpt lat="44.20288364141232" lon="10.448734608133163"><ele>1288.0</ele><time>2026-04-25T15:43:19.943Z</time></trkpt><trkpt lat="44.20296610332368" lon="10.448606516326697"><ele>1291.25</ele><time>2026-04-25T15:43:20.943Z</time></trkpt><trkpt lat="44.20305334108874" lon="10.44848708965889"><ele>1294.5</ele><time>2026-04-25T15:43:21.943Z</time></trkpt><trkpt lat="44.20313146056261" lon="10.448360110239417"><ele>1297.75</ele><time>2026-04-25T15:43:22.943Z</time></trkpt><trkpt lat="44.20321025435932" lon="10.448252975385493"><ele>1301.0</ele><time>2026-04-25T15:43:23.943Z</time></trkpt><trkpt lat="44.203280191481674" lon="10.44815185707527"><ele>1301.0</ele><time>2026-04-25T15:43:24.943Z</time></trkpt><trkpt lat="44.20332577942225" lon="10.448016423001764"><ele>1301.0</ele><time>2026-04-25T15:43:25.943Z</time></trkpt><trkpt lat="44.20333918609616" lon="10.447840654898721"><ele>1301.0</ele><time>2026-04-25T15:43:26.943Z</time></trkpt><trkpt lat="44.203360688787214" lon="10.447604837443906"><ele>1301.0</ele><time>2026-04-25T15:43:27.943Z</time></trkpt><trkpt lat="44.203435588193535" lon="10.447400046438776"><ele>1301.4</ele><time>2026-04-25T15:43:28.943Z</time></trkpt><trkpt lat="44.203506485638925" lon="10.447233094207368"><ele>1301.8</ele><time>2026-04-25T15:43:29.943Z</time></trkpt><trkpt lat="44.203567156880545" lon="10.447097528679654"><ele>1302.2</ele><time>2026-04-25T15:43:30.943Z</time></trkpt><trkpt lat="44.20359141610056" lon="10.446983663198301"><ele>1302.6000000000001</ele><time>2026-04-25T15:43:31.943Z</time></trkpt><trkpt lat="44.20357118550094" lon="10.446889858957652"><ele>1303.0</ele><time>2026-04-25T15:43:32.943Z</time></trkpt><trkpt lat="44.20351067220528" lon="10.446829794359168"><ele>1303.0</ele><time>2026-04-25T15:43:33.943Z</time></trkpt><trkpt lat="44.2034187723439" lon="10.446824803180494"><ele>1303.0</ele><time>2026-04-25T15:43:34.943Z</time></trkpt><trkpt lat="44.203323594093334" lon="10.446855079246246"><ele>1303.0</ele><time>2026-04-25T15:43:35.943Z</time></trkpt><trkpt lat="44.2031716219235" lon="10.44688623353726"><ele>1303.0</ele><time>2026-04-25T15:43:36.942Z</time></trkpt><trkpt lat="44.20301212653414" lon="10.446919667252377"><ele>1296.25</ele><time>2026-04-25T15:43:37.942Z</time></trkpt><trkpt lat="44.20287599605461" lon="10.446950414591203"><ele>1289.5</ele><time>2026-04-25T15:43:38.942Z</time></trkpt><trkpt lat="44.20274055544326" lon="10.446950752870945"><ele>1282.75</ele><time>2026-04-25T15:43:39.942Z</time></trkpt><trkpt lat="44.2026143126812" lon="10.446910653740069"><ele>1276.0</ele><time>2026-04-25T15:43:40.942Z</time></trkpt><trkpt lat="44.20248136247969" lon="10.446838391307686"><ele>1276.0</ele><time>2026-04-25T15:43:41.942Z</time></trkpt><trkpt lat="44.202382500157015" lon="10.44673591908764"><ele>1276.0</ele><time>2026-04-25T15:43:42.942Z</time></trkpt><trkpt lat="44.20232897791583" lon="10.446610497351289"><ele>1276.0</ele><time>2026-04-25T15:43:43.942Z</time></trkpt><trkpt lat="44.20230976160115" lon="10.446438460624794"><ele>1276.0</ele><time>2026-04-25T15:43:44.942Z</time></trkpt><trkpt lat="44.20231207220957" lon="10.446243894556995"><ele>1273.25</ele><time>2026-04-25T15:43:45.942Z</time></trkpt><trkpt lat="44.20231532654504" lon="10.446063851791608"><ele>1270.5</ele><time>2026-04-25T15:43:46.941Z</time></trkpt><trkpt lat="44.20227621531704" lon="10.445899536060608"><ele>1267.75</ele><time>2026-04-25T15:43:47.941Z</time></trkpt><trkpt lat="44.202210128880935" lon="10.445785894861189"><ele>1265.0</ele><time>2026-04-25T15:43:48.941Z</time></trkpt><trkpt lat="44.20210803922643" lon="10.445731031988748"><ele>1265.0</ele><time>2026-04-25T15:43:49.941Z</time></trkpt><trkpt lat="44.20196731248739" lon="10.445723793972038"><ele>1265.0</ele><time>2026-04-25T15:43:50.941Z</time></trkpt><trkpt lat="44.201807643286315" lon="10.44574289235638"><ele>1265.0</ele><time>2026-04-25T15:43:51.941Z</time></trkpt><trkpt lat="44.20165927394179" lon="10.4457633401087"><ele>1265.0</ele><time>2026-04-25T15:43:52.941Z</time></trkpt><trkpt lat="44.20152647639154" lon="10.445805127042084"><ele>1265.0</ele><time>2026-04-25T15:43:53.941Z</time></trkpt><trkpt lat="44.201418899658236" lon="10.445835600677713"><ele>1265.0</ele><time>2026-04-25T15:43:54.941Z</time></trkpt><trkpt lat="44.20134170576868" lon="10.44580299523095"><ele>1265.0</ele><time>2026-04-25T15:43:55.941Z</time></trkpt><trkpt lat="44.20128481825108" lon="10.445703676229053"><ele>1265.0</ele><time>2026-04-25T15:43:56.941Z</time></trkpt><trkpt lat="44.20127084288453" lon="10.445553190629436"><ele>1262.0</ele><time>2026-04-25T15:43:57.941Z</time></trkpt><trkpt lat="44.201277740400094" lon="10.445368622402118"><ele>1259.0</ele><time>2026-04-25T15:43:58.941Z</time></trkpt><trkpt lat="44.20127987433068" lon="10.445203532164602"><ele>1256.0</ele><time>2026-04-25T15:43:59.941Z</time></trkpt><trkpt lat="44.20123866701263" lon="10.44503695202852"><ele>1253.0</ele><time>2026-04-25T15:44:00.941Z</time></trkpt><trkpt lat="44.20113272913907" lon="10.444906257449976"><ele>1253.0</ele><time>2026-04-25T15:44:01.941Z</time></trkpt><trkpt lat="44.201022617462" lon="10.444802112929935"><ele>1253.0</ele><time>2026-04-25T15:44:02.941Z</time></trkpt><trkpt lat="44.200959332833285" lon="10.44466737739477"><ele>1253.0</ele><time>2026-04-25T15:44:03.941Z</time></trkpt><trkpt lat="44.20095463785502" lon="10.444492466934896"><ele>1253.0</ele><time>2026-04-25T15:44:04.941Z</time></trkpt><trkpt lat="44.20099564322396" lon="10.444301116572095"><ele>1256.6</ele><time>2026-04-25T15:44:05.941Z</time></trkpt><trkpt lat="44.20101617410931" lon="10.444143454460614"><ele>1260.1999999999998</ele><time>2026-04-25T15:44:06.943Z</time></trkpt><trkpt lat="44.201007438103986" lon="10.444019054861934"><ele>1263.8</ele><time>2026-04-25T15:44:07.943Z</time></trkpt><trkpt lat="44.200961702737494" lon="10.443944323957691"><ele>1267.3999999999999</ele><time>2026-04-25T15:44:08.943Z</time></trkpt><trkpt lat="44.20086866558057" lon="10.44392528442893"><ele>1271.0</ele><time>2026-04-25T15:44:09.943Z</time></trkpt><trkpt lat="44.200754806714066" lon="10.443946948701944"><ele>1271.0</ele><time>2026-04-25T15:44:10.943Z</time></trkpt><trkpt lat="44.200633961151134" lon="10.44400575361065"><ele>1271.0</ele><time>2026-04-25T15:44:11.943Z</time></trkpt><trkpt lat="44.20050469236604" lon="10.444027500834837"><ele>1271.0</ele><time>2026-04-25T15:44:12.943Z</time></trkpt><trkpt lat="44.2003755634341" lon="10.44405452421455"><ele>1271.0</ele><time>2026-04-25T15:44:13.942Z</time></trkpt><trkpt lat="44.20023855138136" lon="10.444101049959764"><ele>1271.0</ele><time>2026-04-25T15:44:14.942Z</time></trkpt><trkpt lat="44.20011296277123" lon="10.444156425594272"><ele>1271.0</ele><time>2026-04-25T15:44:15.943Z</time></trkpt><trkpt lat="44.19999005406452" lon="10.444229445569626"><ele>1271.0</ele><time>2026-04-25T15:44:16.943Z</time></trkpt><trkpt lat="44.19987244159907" lon="10.444313382516075"><ele>1271.0</ele><time>2026-04-25T15:44:17.943Z</time></trkpt><trkpt lat="44.199771356308744" lon="10.44443383656021"><ele>1276.3333333333335</ele><time>2026-04-25T15:44:18.943Z</time></trkpt><trkpt lat="44.19967197657957" lon="10.444589952697083"><ele>1281.6666666666667</ele><time>2026-04-25T15:44:19.943Z</time></trkpt><trkpt lat="44.19957293365384" lon="10.444778339740592"><ele>1287.0</ele><time>2026-04-25T15:44:20.943Z</time></trkpt><trkpt lat="44.199503789318" lon="10.444977605598378"><ele>1287.0</ele><time>2026-04-25T15:44:21.943Z</time></trkpt><trkpt lat="44.199442072832376" lon="10.44517392619914"><ele>1287.0</ele><time>2026-04-25T15:44:22.943Z</time></trkpt><trkpt lat="44.19938480256662" lon="10.445375655633136"><ele>1287.0</ele><time>2026-04-25T15:44:23.943Z</time></trkpt><trkpt lat="44.19931511143981" lon="10.445567174001269"><ele>1278.6666666666667</ele><time>2026-04-25T15:44:24.943Z</time></trkpt><trkpt lat="44.19925488619081" lon="10.445774903627253"><ele>1270.3333333333335</ele><time>2026-04-25T15:44:25.943Z</time></trkpt><trkpt lat="44.19919749400032" lon="10.445973788569365"><ele>1262.0</ele><time>2026-04-25T15:44:26.943Z</time></trkpt><trkpt lat="44.19914678889352" lon="10.446155099936984"><ele>1262.0</ele><time>2026-04-25T15:44:27.943Z</time></trkpt><trkpt lat="44.19907949511956" lon="10.44628632513514"><ele>1262.0</ele><time>2026-04-25T15:44:28.943Z</time></trkpt><trkpt lat="44.19898489898527" lon="10.44636095916035"><ele>1262.0</ele><time>2026-04-25T15:44:29.943Z</time></trkpt><trkpt lat="44.19888395165226" lon="10.446346325323606"><ele>1262.0</ele><time>2026-04-25T15:44:30.943Z</time></trkpt><trkpt lat="44.19878341191013" lon="10.44626490273314"><ele>1262.0</ele><time>2026-04-25T15:44:31.943Z</time></trkpt><trkpt lat="44.19870392839677" lon="10.446108798237727"><ele>1259.6666666666667</ele><time>2026-04-25T15:44:32.943Z</time></trkpt><trkpt lat="44.198608700948704" lon="10.445943939872631"><ele>1257.3333333333333</ele><time>2026-04-25T15:44:33.943Z</time></trkpt><trkpt lat="44.19848526346849" lon="10.44579854014491"><ele>1255.0</ele><time>2026-04-25T15:44:34.943Z</time></trkpt><trkpt lat="44.198363105203185" lon="10.445683525190951"><ele>1255.0</ele><time>2026-04-25T15:44:35.943Z</time></trkpt><trkpt lat="44.198227969404826" lon="10.445655115809659"><ele>1255.0</ele><time>2026-04-25T15:44:36.943Z</time></trkpt><trkpt lat="44.19808186612564" lon="10.445661697499952"><ele>1255.0</ele><time>2026-04-25T15:44:37.943Z</time></trkpt><trkpt lat="44.19797028298989" lon="10.445668166124973"><ele>1255.0</ele><time>2026-04-25T15:44:38.943Z</time></trkpt><trkpt lat="44.19789150107914" lon="10.445608047209657"><ele>1251.5</ele><time>2026-04-25T15:44:39.943Z</time></trkpt><trkpt lat="44.19784248142773" lon="10.44545325083703"><ele>1248.0</ele><time>2026-04-25T15:44:40.943Z</time></trkpt><trkpt lat="44.19780040007891" lon="10.445250748860254"><ele>1244.5</ele><time>2026-04-25T15:44:41.943Z</time></trkpt><trkpt lat="44.197738498069924" lon="10.445038458715986"><ele>1241.0</ele><time>2026-04-25T15:44:42.943Z</time></trkpt><trkpt lat="44.1976793314707" lon="10.44482142099707"><ele>1245.5</ele><time>2026-04-25T15:44:43.943Z</time></trkpt><trkpt lat="44.197619790698845" lon="10.444627417169439"><ele>1250.0</ele><time>2026-04-25T15:44:44.943Z</time></trkpt><trkpt lat="44.19755959587058" lon="10.444435879418497"><ele>1254.5</ele><time>2026-04-25T15:44:45.943Z</time></trkpt><trkpt lat="44.19750685487922" lon="10.444259505628184"><ele>1259.0</ele><time>2026-04-25T15:44:46.943Z</time></trkpt><trkpt lat="44.19745508492966" lon="10.44409673668139"><ele>1259.0</ele><time>2026-04-25T15:44:47.943Z</time></trkpt><trkpt lat="44.197366702621245" lon="10.443992347614623"><ele>1259.0</ele><time>2026-04-25T15:44:48.943Z</time></trkpt><trkpt lat="44.197249825085244" lon="10.443946586410611"><ele>1259.0</ele><time>2026-04-25T15:44:49.943Z</time></trkpt><trkpt lat="44.19710292213367" lon="10.443911550877553"><ele>1259.0</ele><time>2026-04-25T15:44:50.943Z</time></trkpt><trkpt lat="44.1969783095664" lon="10.443824926181852"><ele>1260.2</ele><time>2026-04-25T15:44:51.943Z</time></trkpt><trkpt lat="44.19687652473337" lon="10.44374224204633"><ele>1261.4</ele><time>2026-04-25T15:44:52.943Z</time></trkpt><trkpt lat="44.19678932992077" lon="10.443658653763102"><ele>1262.6</ele><time>2026-04-25T15:44:53.943Z</time></trkpt><trkpt lat="44.19671383647903" lon="10.44358013431432"><ele>1263.8</ele><time>2026-04-25T15:44:54.943Z</time></trkpt><trkpt lat="44.196626800063214" lon="10.443491342074138"><ele>1265.0</ele><time>2026-04-25T15:44:55.943Z</time></trkpt><trkpt lat="44.196557609039374" lon="10.443390141322851"><ele>1265.0</ele><time>2026-04-25T15:44:56.943Z</time></trkpt><trkpt lat="44.19650788690475" lon="10.443284028928723"><ele>1265.0</ele><time>2026-04-25T15:44:57.943Z</time></trkpt><trkpt lat="44.196444675341475" lon="10.443180760501692"><ele>1265.0</ele><time>2026-04-25T15:44:58.943Z</time></trkpt><trkpt lat="44.19637207727489" lon="10.443086838776852"><ele>1265.0</ele><time>2026-04-25T15:44:59.943Z</time></trkpt><trkpt lat="44.19626778575119" lon="10.443018687420452"><ele>1265.0</ele><time>2026-04-25T15:45:00.943Z</time></trkpt><trkpt lat="44.19616495833598" lon="10.442946973871116"><ele>1263.75</ele><time>2026-04-25T15:45:01.943Z</time></trkpt><trkpt lat="44.19605932171896" lon="10.442891147106916"><ele>1262.5</ele><time>2026-04-25T15:45:02.943Z</time></trkpt><trkpt lat="44.19593455378397" lon="10.442850416615828"><ele>1261.25</ele><time>2026-04-25T15:45:03.943Z</time></trkpt><trkpt lat="44.195777030722326" lon="10.44284073176975"><ele>1260.0</ele><time>2026-04-25T15:45:04.943Z</time></trkpt><trkpt lat="44.19559631656379" lon="10.442833052609878"><ele>1260.0</ele><time>2026-04-25T15:45:05.943Z</time></trkpt><trkpt lat="44.1953904396746" lon="10.442788019089576"><ele>1260.0</ele><time>2026-04-25T15:45:06.943Z</time></trkpt><trkpt lat="44.19517891720116" lon="10.44273153820277"><ele>1260.0</ele><time>2026-04-25T15:45:07.943Z</time></trkpt><trkpt lat="44.19497117653391" lon="10.44268628264766"><ele>1253.6666666666667</ele><time>2026-04-25T15:45:08.943Z</time></trkpt><trkpt lat="44.19478368377284" lon="10.442638732228007"><ele>1247.3333333333335</ele><time>2026-04-25T15:45:09.943Z</time></trkpt><trkpt lat="44.194611306018125" lon="10.442599371157275"><ele>1241.0</ele><time>2026-04-25T15:45:10.943Z</time></trkpt><trkpt lat="44.19446397215545" lon="10.442556739224752"><ele>1241.0</ele><time>2026-04-25T15:45:11.943Z</time></trkpt><trkpt lat="44.194338160806744" lon="10.442498546998797"><ele>1241.0</ele><time>2026-04-25T15:45:12.943Z</time></trkpt><trkpt lat="44.19422028082399" lon="10.442386256321146"><ele>1241.0</ele><time>2026-04-25T15:45:13.943Z</time></trkpt><trkpt lat="44.19408634365916" lon="10.442230410602651"><ele>1235.5</ele><time>2026-04-25T15:45:14.943Z</time></trkpt><trkpt lat="44.193947999374934" lon="10.442082511372691"><ele>1230.0</ele><time>2026-04-25T15:45:15.943Z</time></trkpt><trkpt lat="44.19384285386527" lon="10.44196367560271"><ele>1224.5</ele><time>2026-04-25T15:45:16.943Z</time></trkpt><trkpt lat="44.19379013680175" lon="10.441870637266405"><ele>1219.0</ele><time>2026-04-25T15:45:17.943Z</time></trkpt><trkpt lat="44.193784674707594" lon="10.441780654438588"><ele>1219.0</ele><time>2026-04-25T15:45:18.943Z</time></trkpt><trkpt lat="44.193829659106335" lon="10.441710598550133"><ele>1219.0</ele><time>2026-04-25T15:45:19.943Z</time></trkpt><trkpt lat="44.19390230672832" lon="10.441643586463506"><ele>1219.0</ele><time>2026-04-25T15:45:20.943Z</time></trkpt><trkpt lat="44.194016863368795" lon="10.441570060977236"><ele>1219.0</ele><time>2026-04-25T15:45:21.943Z</time></trkpt><trkpt lat="44.194154094022714" lon="10.44146030977036"><ele>1219.0</ele><time>2026-04-25T15:45:22.943Z</time></trkpt><trkpt lat="44.19427824751668" lon="10.441305544966083"><ele>1221.6666666666665</ele><time>2026-04-25T15:45:23.943Z</time></trkpt><trkpt lat="44.19439491569172" lon="10.441142699607134"><ele>1224.3333333333333</ele><time>2026-04-25T15:45:24.943Z</time></trkpt><trkpt lat="44.19447344413478" lon="10.440959453520074"><ele>1227.0</ele><time>2026-04-25T15:45:25.943Z</time></trkpt><trkpt lat="44.19453402470215" lon="10.440723885832439"><ele>1227.0</ele><time>2026-04-25T15:45:26.943Z</time></trkpt><trkpt lat="44.194608751360356" lon="10.440502954471318"><ele>1227.0</ele><time>2026-04-25T15:45:27.943Z</time></trkpt><trkpt lat="44.194706261046036" lon="10.440343564310883"><ele>1227.0</ele><time>2026-04-25T15:45:28.943Z</time></trkpt><trkpt lat="44.19474429773903" lon="10.440187026674362"><ele>1227.0</ele><time>2026-04-25T15:45:29.943Z</time></trkpt><trkpt lat="44.194782101496756" lon="10.440037705079558"><ele>1222.25</ele><time>2026-04-25T15:45:30.943Z</time></trkpt><trkpt lat="44.194784151356224" lon="10.439868789536346"><ele>1217.5</ele><time>2026-04-25T15:45:31.943Z</time></trkpt><trkpt lat="44.19478576576823" lon="10.439690329969373"><ele>1212.75</ele><time>2026-04-25T15:45:32.943Z</time></trkpt><trkpt lat="44.19475000664643" lon="10.439546798411895"><ele>1208.0</ele><time>2026-04-25T15:45:33.943Z</time></trkpt><trkpt lat="44.19465668423922" lon="10.439433280031734"><ele>1208.0</ele><time>2026-04-25T15:45:34.943Z</time></trkpt><trkpt lat="44.194547543790264" lon="10.439326547941182"><ele>1208.0</ele><time>2026-04-25T15:45:35.943Z</time></trkpt><trkpt lat="44.194489154106584" lon="10.4391617553666"><ele>1208.0</ele><time>2026-04-25T15:45:36.943Z</time></trkpt><trkpt lat="44.19445403513164" lon="10.438993808304673"><ele>1208.0</ele><time>2026-04-25T15:45:37.943Z</time></trkpt><trkpt lat="44.19444284402348" lon="10.43886493009883"><ele>1207.0</ele><time>2026-04-25T15:45:38.943Z</time></trkpt><trkpt lat="44.194481315703705" lon="10.438758459842601"><ele>1206.0</ele><time>2026-04-25T15:45:39.943Z</time></trkpt><trkpt lat="44.19456712757737" lon="10.438632009408606"><ele>1205.0</ele><time>2026-04-25T15:45:40.943Z</time></trkpt><trkpt lat="44.19465777377465" lon="10.438512688078758"><ele>1204.0</ele><time>2026-04-25T15:45:41.943Z</time></trkpt><trkpt lat="44.194701332111144" lon="10.438347341628642"><ele>1204.0</ele><time>2026-04-25T15:45:42.943Z</time></trkpt><trkpt lat="44.19469256267888" lon="10.438167739883797"><ele>1204.0</ele><time>2026-04-25T15:45:43.943Z</time></trkpt><trkpt lat="44.19467094341734" lon="10.437976160821432"><ele>1204.0</ele><time>2026-04-25T15:45:44.943Z</time></trkpt><trkpt lat="44.19466792990651" lon="10.437803152562308"><ele>1204.0</ele><time>2026-04-25T15:45:45.943Z</time></trkpt><trkpt lat="44.19461931553272" lon="10.437654810543481"><ele>1204.6666666666665</ele><time>2026-04-25T15:45:46.943Z</time></trkpt><trkpt lat="44.19450720913727" lon="10.437491672894389"><ele>1205.3333333333333</ele><time>2026-04-25T15:45:47.943Z</time></trkpt><trkpt lat="44.19440027464879" lon="10.437336570989988"><ele>1206.0</ele><time>2026-04-25T15:45:48.943Z</time></trkpt><trkpt lat="44.19429392839558" lon="10.43720935323501"><ele>1209.25</ele><time>2026-04-25T15:45:49.943Z</time></trkpt><trkpt lat="44.19419981817855" lon="10.437076510415851"><ele>1212.5</ele><time>2026-04-25T15:45:50.943Z</time></trkpt><trkpt lat="44.194139823921645" lon="10.436883096806064"><ele>1215.75</ele><time>2026-04-25T15:45:51.943Z</time></trkpt><trkpt lat="44.19407504890174" lon="10.436688248542874"><ele>1219.0</ele><time>2026-04-25T15:45:52.942Z</time></trkpt><trkpt lat="44.19401928756551" lon="10.43651809356372"><ele>1216.5</ele><time>2026-04-25T15:45:53.942Z</time></trkpt><trkpt lat="44.193942706894866" lon="10.436377257863892"><ele>1214.0</ele><time>2026-04-25T15:45:54.942Z</time></trkpt><trkpt lat="44.193826354102605" lon="10.436257653755511"><ele>1211.5</ele><time>2026-04-25T15:45:55.942Z</time></trkpt><trkpt lat="44.19368051119245" lon="10.436155031093463"><ele>1209.0</ele><time>2026-04-25T15:45:56.942Z</time></trkpt><trkpt lat="44.19351722017231" lon="10.436078003398976"><ele>1209.0</ele><time>2026-04-25T15:45:57.942Z</time></trkpt><trkpt lat="44.193342993314346" lon="10.436008598707032"><ele>1209.0</ele><time>2026-04-25T15:45:58.942Z</time></trkpt><trkpt lat="44.19317924350025" lon="10.435929278786555"><ele>1209.0</ele><time>2026-04-25T15:45:59.942Z</time></trkpt><trkpt lat="44.193043767162756" lon="10.43585294901867"><ele>1209.0</ele><time>2026-04-25T15:46:00.942Z</time></trkpt><trkpt lat="44.192936059747765" lon="10.435821167864383"><ele>1209.0</ele><time>2026-04-25T15:46:01.942Z</time></trkpt><trkpt lat="44.192909555543515" lon="10.435656136100587"><ele>1209.0</ele><time>2026-04-25T15:46:03.942Z</time></trkpt><trkpt lat="44.19297810410722" lon="10.43556998201575"><ele>1209.0</ele><time>2026-04-25T15:46:04.942Z</time></trkpt><trkpt lat="44.19308614739956" lon="10.435533197110082"><ele>1209.0</ele><time>2026-04-25T15:46:05.942Z</time></trkpt><trkpt lat="44.19321611641549" lon="10.435504258269285"><ele>1209.0</ele><time>2026-04-25T15:46:06.942Z</time></trkpt><trkpt lat="44.193351516109296" lon="10.435488655968294"><ele>1209.0</ele><time>2026-04-25T15:46:07.942Z</time></trkpt><trkpt lat="44.19351300749708" lon="10.43547535951583"><ele>1209.0</ele><time>2026-04-25T15:46:08.942Z</time></trkpt><trkpt lat="44.19369286519849" lon="10.4355052101396"><ele>1209.0</ele><time>2026-04-25T15:46:09.942Z</time></trkpt><trkpt lat="44.193863949076" lon="10.435520172874245"><ele>1209.0</ele><time>2026-04-25T15:46:10.942Z</time></trkpt><trkpt lat="44.194051632171345" lon="10.43554493376962"><ele>1209.0</ele><time>2026-04-25T15:46:11.942Z</time></trkpt><trkpt lat="44.194226380484736" lon="10.435556853038738"><ele>1210.5</ele><time>2026-04-25T15:46:12.943Z</time></trkpt><trkpt lat="44.19436991991427" lon="10.435590925923249"><ele>1212.0</ele><time>2026-04-25T15:46:13.943Z</time></trkpt><trkpt lat="44.19449911728561" lon="10.435585134182096"><ele>1213.5</ele><time>2026-04-25T15:46:14.943Z</time></trkpt><trkpt lat="44.19462156846087" lon="10.435483893590964"><ele>1215.0</ele><time>2026-04-25T15:46:15.944Z</time></trkpt><trkpt lat="44.19469411820592" lon="10.435326441029439"><ele>1213.6666666666667</ele><time>2026-04-25T15:46:16.944Z</time></trkpt><trkpt lat="44.19479356779228" lon="10.4351566140745"><ele>1212.3333333333335</ele><time>2026-04-25T15:46:17.944Z</time></trkpt><trkpt lat="44.1948564908193" lon="10.434974069004355"><ele>1211.0</ele><time>2026-04-25T15:46:18.943Z</time></trkpt><trkpt lat="44.19487011344293" lon="10.434745164040622"><ele>1202.0</ele><time>2026-04-25T15:46:19.943Z</time></trkpt><trkpt lat="44.19489387839876" lon="10.434574461367161"><ele>1193.0</ele><time>2026-04-25T15:46:20.943Z</time></trkpt><trkpt lat="44.19495029553351" lon="10.434484723101418"><ele>1184.0</ele><time>2026-04-25T15:46:21.943Z</time></trkpt><trkpt lat="44.19506259231031" lon="10.43444188781625"><ele>1175.0</ele><time>2026-04-25T15:46:22.944Z</time></trkpt><trkpt lat="44.195218406564955" lon="10.434389813631052"><ele>1175.0</ele><time>2026-04-25T15:46:23.944Z</time></trkpt><trkpt lat="44.195383594849396" lon="10.43432705821676"><ele>1175.0</ele><time>2026-04-25T15:46:24.943Z</time></trkpt><trkpt lat="44.195554870256494" lon="10.434281481132494"><ele>1175.0</ele><time>2026-04-25T15:46:25.943Z</time></trkpt><trkpt lat="44.19573045598663" lon="10.434251866400313"><ele>1178.0</ele><time>2026-04-25T15:46:26.943Z</time></trkpt><trkpt lat="44.195902478244356" lon="10.434227521284773"><ele>1181.0</ele><time>2026-04-25T15:46:27.943Z</time></trkpt><trkpt lat="44.196080266946396" lon="10.434161684208147"><ele>1184.0</ele><time>2026-04-25T15:46:28.943Z</time></trkpt><trkpt lat="44.19622913110275" lon="10.434087676545301"><ele>1184.0</ele><time>2026-04-25T15:46:29.943Z</time></trkpt><trkpt lat="44.1963524473022" lon="10.434074037278654"><ele>1184.0</ele><time>2026-04-25T15:46:30.943Z</time></trkpt><trkpt lat="44.19645851297383" lon="10.434115194295352"><ele>1184.0</ele><time>2026-04-25T15:46:31.943Z</time></trkpt><trkpt lat="44.196558402430895" lon="10.43423405225039"><ele>1184.0</ele><time>2026-04-25T15:46:32.943Z</time></trkpt><trkpt lat="44.19669606878883" lon="10.434389033758427"><ele>1182.0</ele><time>2026-04-25T15:46:33.943Z</time></trkpt><trkpt lat="44.19685596762018" lon="10.434507942684757"><ele>1180.0</ele><time>2026-04-25T15:46:34.943Z</time></trkpt><trkpt lat="44.19699950523536" lon="10.434547511239495"><ele>1178.0</ele><time>2026-04-25T15:46:35.943Z</time></trkpt><trkpt lat="44.197105377841154" lon="10.434539541649942"><ele>1176.0</ele><time>2026-04-25T15:46:36.943Z</time></trkpt><trkpt lat="44.19719344299518" lon="10.434461198885195"><ele>1176.0</ele><time>2026-04-25T15:46:37.943Z</time></trkpt><trkpt lat="44.19725586219328" lon="10.4343359892133"><ele>1176.0</ele><time>2026-04-25T15:46:38.943Z</time></trkpt><trkpt lat="44.19726996370843" lon="10.434187074681837"><ele>1176.0</ele><time>2026-04-25T15:46:39.943Z</time></trkpt><trkpt lat="44.19722562763821" lon="10.434033120239455"><ele>1176.0</ele><time>2026-04-25T15:46:40.943Z</time></trkpt><trkpt lat="44.19712812558114" lon="10.433885650159777"><ele>1175.6666666666667</ele><time>2026-04-25T15:46:41.943Z</time></trkpt><trkpt lat="44.19702252351446" lon="10.433718189091342"><ele>1175.3333333333335</ele><time>2026-04-25T15:46:42.943Z</time></trkpt><trkpt lat="44.19694916982061" lon="10.433517977794976"><ele>1175.0</ele><time>2026-04-25T15:46:43.943Z</time></trkpt><trkpt lat="44.196905984355126" lon="10.433312397504627"><ele>1175.0</ele><time>2026-04-25T15:46:44.943Z</time></trkpt><trkpt lat="44.19686144424467" lon="10.433106129137968"><ele>1175.0</ele><time>2026-04-25T15:46:45.943Z</time></trkpt><trkpt lat="44.19677353493512" lon="10.432908340978258"><ele>1175.0</ele><time>2026-04-25T15:46:46.943Z</time></trkpt><trkpt lat="44.196666022874396" lon="10.432756454529338"><ele>1174.5</ele><time>2026-04-25T15:46:47.943Z</time></trkpt><trkpt lat="44.196580747176405" lon="10.432619040114195"><ele>1174.0</ele><time>2026-04-25T15:46:48.943Z</time></trkpt><trkpt lat="44.19651988269268" lon="10.432460605710657"><ele>1173.5</ele><time>2026-04-25T15:46:49.943Z</time></trkpt><trkpt lat="44.19649134412139" lon="10.432283303036252"><ele>1173.0</ele><time>2026-04-25T15:46:50.943Z</time></trkpt><trkpt lat="44.19647655510103" lon="10.432122607690264"><ele>1173.0</ele><time>2026-04-25T15:46:51.943Z</time></trkpt><trkpt lat="44.19646710660263" lon="10.431991367763535"><ele>1173.0</ele><time>2026-04-25T15:46:52.943Z</time></trkpt><trkpt lat="44.196456567806415" lon="10.431886511839966"><ele>1173.0</ele><time>2026-04-25T15:46:53.943Z</time></trkpt><trkpt lat="44.196409588758016" lon="10.431813332001562"><ele>1173.0</ele><time>2026-04-25T15:46:54.943Z</time></trkpt><trkpt lat="44.19632540189623" lon="10.431777720358586"><ele>1173.0</ele><time>2026-04-25T15:46:55.943Z</time></trkpt><trkpt lat="44.1962306766323" lon="10.431794244069343"><ele>1173.0</ele><time>2026-04-25T15:46:56.943Z</time></trkpt><trkpt lat="44.19615845606196" lon="10.43182666293078"><ele>1173.0</ele><time>2026-04-25T15:46:57.943Z</time></trkpt><trkpt lat="44.19607492673944" lon="10.431837749806125"><ele>1173.0</ele><time>2026-04-25T15:46:58.943Z</time></trkpt><trkpt lat="44.19597306141614" lon="10.431801685374467"><ele>1173.0</ele><time>2026-04-25T15:46:59.943Z</time></trkpt><trkpt lat="44.19588342231409" lon="10.431728361681582"><ele>1173.0</ele><time>2026-04-25T15:47:00.943Z</time></trkpt><trkpt lat="44.1958114987141" lon="10.431609204564385"><ele>1173.0</ele><time>2026-04-25T15:47:01.943Z</time></trkpt><trkpt lat="44.19571309559414" lon="10.431473990549234"><ele>1167.3333333333333</ele><time>2026-04-25T15:47:02.943Z</time></trkpt><trkpt lat="44.195606204105964" lon="10.431282916576063"><ele>1161.6666666666665</ele><time>2026-04-25T15:47:03.943Z</time></trkpt><trkpt lat="44.19550291150433" lon="10.431025209292658"><ele>1156.0</ele><time>2026-04-25T15:47:04.943Z</time></trkpt><trkpt lat="44.195389629998694" lon="10.430775219235992"><ele>1156.0</ele><time>2026-04-25T15:47:05.943Z</time></trkpt><trkpt lat="44.19524631173434" lon="10.430551897342916"><ele>1156.0</ele><time>2026-04-25T15:47:06.943Z</time></trkpt><trkpt lat="44.1951072280428" lon="10.430338546968448"><ele>1156.0</ele><time>2026-04-25T15:47:07.943Z</time></trkpt><trkpt lat="44.19499066436598" lon="10.430128210520031"><ele>1158.75</ele><time>2026-04-25T15:47:08.943Z</time></trkpt><trkpt lat="44.194899227759926" lon="10.429946812980422"><ele>1161.5</ele><time>2026-04-25T15:47:09.943Z</time></trkpt><trkpt lat="44.194820451333555" lon="10.429822062062737"><ele>1164.25</ele><time>2026-04-25T15:47:10.943Z</time></trkpt><trkpt lat="44.19475896253989" lon="10.429706433820279"><ele>1167.0</ele><time>2026-04-25T15:47:11.943Z</time></trkpt><trkpt lat="44.194727830703336" lon="10.429595008511619"><ele>1165.25</ele><time>2026-04-25T15:47:12.943Z</time></trkpt><trkpt lat="44.19474656188885" lon="10.42947726084753"><ele>1163.5</ele><time>2026-04-25T15:47:13.943Z</time></trkpt><trkpt lat="44.19481601826998" lon="10.429364929062293"><ele>1161.75</ele><time>2026-04-25T15:47:14.943Z</time></trkpt><trkpt lat="44.19491274708985" lon="10.429237938322295"><ele>1160.0</ele><time>2026-04-25T15:47:15.943Z</time></trkpt><trkpt lat="44.19500793948218" lon="10.429121642782727"><ele>1160.0</ele><time>2026-04-25T15:47:16.943Z</time></trkpt><trkpt lat="44.19507357266279" lon="10.428960187211109"><ele>1160.0</ele><time>2026-04-25T15:47:17.943Z</time></trkpt><trkpt lat="44.19509743254189" lon="10.428773094209408"><ele>1160.0</ele><time>2026-04-25T15:47:18.943Z</time></trkpt><trkpt lat="44.19515464045174" lon="10.428636038789811"><ele>1160.0</ele><time>2026-04-25T15:47:19.943Z</time></trkpt><trkpt lat="44.1952624799081" lon="10.428557216290985"><ele>1152.25</ele><time>2026-04-25T15:47:20.943Z</time></trkpt><trkpt lat="44.195366394766125" lon="10.428488236755285"><ele>1144.5</ele><time>2026-04-25T15:47:21.943Z</time></trkpt><trkpt lat="44.195494414751195" lon="10.428439118122204"><ele>1136.75</ele><time>2026-04-25T15:47:22.943Z</time></trkpt><trkpt lat="44.19559755811949" lon="10.428342374719724"><ele>1129.0</ele><time>2026-04-25T15:47:23.943Z</time></trkpt><trkpt lat="44.19565996045986" lon="10.428187498602458"><ele>1138.3333333333333</ele><time>2026-04-25T15:47:24.943Z</time></trkpt><trkpt lat="44.19571651969262" lon="10.427958367575535"><ele>1147.6666666666667</ele><time>2026-04-25T15:47:25.943Z</time></trkpt><trkpt lat="44.19579901401071" lon="10.427714376255985"><ele>1157.0</ele><time>2026-04-25T15:47:26.943Z</time></trkpt><trkpt lat="44.1958766530556" lon="10.42753138885263"><ele>1157.0</ele><time>2026-04-25T15:47:27.943Z</time></trkpt><trkpt lat="44.195936462892824" lon="10.427381333000831"><ele>1157.0</ele><time>2026-04-25T15:47:28.943Z</time></trkpt><trkpt lat="44.195975120187335" lon="10.427237073634458"><ele>1157.0</ele><time>2026-04-25T15:47:29.943Z</time></trkpt><trkpt lat="44.19599474598926" lon="10.427102241355627"><ele>1157.0</ele><time>2026-04-25T15:47:30.943Z</time></trkpt><trkpt lat="44.19593341337288" lon="10.426950621416921"><ele>1159.6666666666667</ele><time>2026-04-25T15:47:31.943Z</time></trkpt><trkpt lat="44.19582101723178" lon="10.426827537766355"><ele>1162.3333333333333</ele><time>2026-04-25T15:47:32.943Z</time></trkpt><trkpt lat="44.1956734390116" lon="10.426680856701383"><ele>1165.0</ele><time>2026-04-25T15:47:33.943Z</time></trkpt><trkpt lat="44.195552660889334" lon="10.426480280438534"><ele>1163.6666666666665</ele><time>2026-04-25T15:47:34.943Z</time></trkpt><trkpt lat="44.195435877297314" lon="10.426267042423845"><ele>1162.3333333333333</ele><time>2026-04-25T15:47:35.943Z</time></trkpt><trkpt lat="44.195335485424835" lon="10.426093892166685"><ele>1161.0</ele><time>2026-04-25T15:47:36.943Z</time></trkpt><trkpt lat="44.195234950768544" lon="10.425969181523687"><ele>1161.0</ele><time>2026-04-25T15:47:37.943Z</time></trkpt><trkpt lat="44.19509338047269" lon="10.42591549659063"><ele>1161.0</ele><time>2026-04-25T15:47:38.943Z</time></trkpt><trkpt lat="44.19491737027834" lon="10.425910664947253"><ele>1161.0</ele><time>2026-04-25T15:47:39.943Z</time></trkpt><trkpt lat="44.194729803709556" lon="10.42593614121074"><ele>1158.25</ele><time>2026-04-25T15:47:40.943Z</time></trkpt><trkpt lat="44.19456087109352" lon="10.425938666592547"><ele>1155.5</ele><time>2026-04-25T15:47:41.943Z</time></trkpt><trkpt lat="44.19443314060679" lon="10.425928050510022"><ele>1152.75</ele><time>2026-04-25T15:47:42.943Z</time></trkpt><trkpt lat="44.19430330441412" lon="10.42589612562929"><ele>1150.0</ele><time>2026-04-25T15:47:43.943Z</time></trkpt><trkpt lat="44.194152926785435" lon="10.425817058963167"><ele>1142.0</ele><time>2026-04-25T15:47:44.943Z</time></trkpt><trkpt lat="44.19399627338387" lon="10.425700474775706"><ele>1134.0</ele><time>2026-04-25T15:47:45.943Z</time></trkpt><trkpt lat="44.193835994840086" lon="10.425601127857385"><ele>1126.0</ele><time>2026-04-25T15:47:46.943Z</time></trkpt><trkpt lat="44.193685256813275" lon="10.425555965383465"><ele>1126.0</ele><time>2026-04-25T15:47:47.943Z</time></trkpt><trkpt lat="44.193540564083044" lon="10.42554748074939"><ele>1126.0</ele><time>2026-04-25T15:47:48.943Z</time></trkpt><trkpt lat="44.19340568122581" lon="10.425565106074727"><ele>1126.0</ele><time>2026-04-25T15:47:49.943Z</time></trkpt><trkpt lat="44.19330356387128" lon="10.425518858691156"><ele>1126.0</ele><time>2026-04-25T15:47:50.943Z</time></trkpt><trkpt lat="44.193240656646935" lon="10.425397155054291"><ele>1130.5</ele><time>2026-04-25T15:47:51.943Z</time></trkpt><trkpt lat="44.19321787245728" lon="10.425239759193303"><ele>1135.0</ele><time>2026-04-25T15:47:52.943Z</time></trkpt><trkpt lat="44.19323013865755" lon="10.425034489078241"><ele>1139.5</ele><time>2026-04-25T15:47:53.943Z</time></trkpt><trkpt lat="44.193239424072274" lon="10.424824295444516"><ele>1144.0</ele><time>2026-04-25T15:47:54.943Z</time></trkpt><trkpt lat="44.19324875525348" lon="10.424612045005418"><ele>1140.5</ele><time>2026-04-25T15:47:55.943Z</time></trkpt><trkpt lat="44.19327841288113" lon="10.424442494139257"><ele>1137.0</ele><time>2026-04-25T15:47:56.943Z</time></trkpt><trkpt lat="44.19330214679608" lon="10.424271742096527"><ele>1133.5</ele><time>2026-04-25T15:47:57.943Z</time></trkpt><trkpt lat="44.1932650881568" lon="10.424119796441428"><ele>1130.0</ele><time>2026-04-25T15:47:58.942Z</time></trkpt><trkpt lat="44.193166194379444" lon="10.424006385674554"><ele>1130.0</ele><time>2026-04-25T15:47:59.942Z</time></trkpt><trkpt lat="44.19303364766933" lon="10.42387663613894"><ele>1130.0</ele><time>2026-04-25T15:48:00.942Z</time></trkpt><trkpt lat="44.19290540479017" lon="10.423707931321735"><ele>1130.0</ele><time>2026-04-25T15:48:01.942Z</time></trkpt><trkpt lat="44.19279015401075" lon="10.423565380103298"><ele>1126.75</ele><time>2026-04-25T15:48:02.942Z</time></trkpt><trkpt lat="44.192672408007255" lon="10.423500987836"><ele>1123.5</ele><time>2026-04-25T15:48:03.942Z</time></trkpt><trkpt lat="44.19255536555156" lon="10.423482619172633"><ele>1120.25</ele><time>2026-04-25T15:48:04.942Z</time></trkpt><trkpt lat="44.19243487148482" lon="10.423515246274127"><ele>1117.0</ele><time>2026-04-25T15:48:05.942Z</time></trkpt><trkpt lat="44.192320282577185" lon="10.4236024114432"><ele>1117.0</ele><time>2026-04-25T15:48:06.942Z</time></trkpt><trkpt lat="44.19223454889847" lon="10.423665173803636"><ele>1117.0</ele><time>2026-04-25T15:48:07.942Z</time></trkpt><trkpt lat="44.192165390537426" lon="10.423662019804338"><ele>1117.0</ele><time>2026-04-25T15:48:08.942Z</time></trkpt><trkpt lat="44.19209998829862" lon="10.42361236923518"><ele>1117.0</ele><time>2026-04-25T15:48:09.942Z</time></trkpt><trkpt lat="44.192052188429024" lon="10.423534559737641"><ele>1117.0</ele><time>2026-04-25T15:48:10.942Z</time></trkpt><trkpt lat="44.19201439545268" lon="10.423430563921022"><ele>1117.0</ele><time>2026-04-25T15:48:11.942Z</time></trkpt><trkpt lat="44.19200531563026" lon="10.42331650923556"><ele>1117.0</ele><time>2026-04-25T15:48:12.942Z</time></trkpt><trkpt lat="44.19202176234941" lon="10.423200825483793"><ele>1117.0</ele><time>2026-04-25T15:48:13.942Z</time></trkpt><trkpt lat="44.19204994743026" lon="10.423088929697974"><ele>1117.0</ele><time>2026-04-25T15:48:14.942Z</time></trkpt><trkpt lat="44.19206976405599" lon="10.422978976900634"><ele>1117.0</ele><time>2026-04-25T15:48:15.942Z</time></trkpt><trkpt lat="44.19206266558537" lon="10.422872154044605"><ele>1117.0</ele><time>2026-04-25T15:48:16.942Z</time></trkpt><trkpt lat="44.19203544743894" lon="10.422788240108304"><ele>1117.0</ele><time>2026-04-25T15:48:17.942Z</time></trkpt><trkpt lat="44.191981286931735" lon="10.422713831251754"><ele>1120.4</ele><time>2026-04-25T15:48:18.944Z</time></trkpt><trkpt lat="44.19191022065328" lon="10.422630291544351"><ele>1123.8000000000002</ele><time>2026-04-25T15:48:19.944Z</time></trkpt><trkpt lat="44.19183921446354" lon="10.422518013998387"><ele>1127.2</ele><time>2026-04-25T15:48:20.944Z</time></trkpt><trkpt lat="44.19180156079476" lon="10.42238988184571"><ele>1130.6000000000001</ele><time>2026-04-25T15:48:21.944Z</time></trkpt><trkpt lat="44.191785641695034" lon="10.42223101677243"><ele>1134.0</ele><time>2026-04-25T15:48:22.944Z</time></trkpt><trkpt lat="44.191730141010495" lon="10.422112074079584"><ele>1135.5</ele><time>2026-04-25T15:48:23.944Z</time></trkpt><trkpt lat="44.19164284106956" lon="10.422045592109049"><ele>1137.0</ele><time>2026-04-25T15:48:24.944Z</time></trkpt><trkpt lat="44.19153533525216" lon="10.4220434476985"><ele>1138.5</ele><time>2026-04-25T15:48:25.943Z</time></trkpt><trkpt lat="44.191396336003436" lon="10.422058841970845"><ele>1140.0</ele><time>2026-04-25T15:48:26.943Z</time></trkpt><trkpt lat="44.191236004968786" lon="10.422030507462766"><ele>1140.0</ele><time>2026-04-25T15:48:27.944Z</time></trkpt><trkpt lat="44.19107660664155" lon="10.421963467586215"><ele>1140.0</ele><time>2026-04-25T15:48:28.944Z</time></trkpt><trkpt lat="44.19092930224874" lon="10.421907191751536"><ele>1140.0</ele><time>2026-04-25T15:48:29.944Z</time></trkpt><trkpt lat="44.190803129582626" lon="10.42181970858601"><ele>1140.0</ele><time>2026-04-25T15:48:30.944Z</time></trkpt><trkpt lat="44.19069755374367" lon="10.421683877619929"><ele>1140.0</ele><time>2026-04-25T15:48:31.945Z</time></trkpt><trkpt lat="44.190589002323215" lon="10.421512267402287"><ele>1140.0</ele><time>2026-04-25T15:48:32.945Z</time></trkpt><trkpt lat="44.19044335823774" lon="10.421339205935007"><ele>1136.0</ele><time>2026-04-25T15:48:33.945Z</time></trkpt><trkpt lat="44.19028893569448" lon="10.421163156927543"><ele>1132.0</ele><time>2026-04-25T15:48:34.945Z</time></trkpt><trkpt lat="44.19013550693263" lon="10.420991521643872"><ele>1128.0</ele><time>2026-04-25T15:48:35.945Z</time></trkpt><trkpt lat="44.189997804909254" lon="10.420823216307813"><ele>1128.0</ele><time>2026-04-25T15:48:36.945Z</time></trkpt><trkpt lat="44.189888268638725" lon="10.420652597322983"><ele>1128.0</ele><time>2026-04-25T15:48:37.945Z</time></trkpt><trkpt lat="44.1898088319049" lon="10.420465835453774"><ele>1128.0</ele><time>2026-04-25T15:48:38.945Z</time></trkpt><trkpt lat="44.18975923432911" lon="10.420261910445095"><ele>1135.0</ele><time>2026-04-25T15:48:39.945Z</time></trkpt><trkpt lat="44.189718882838676" lon="10.420072079510248"><ele>1142.0</ele><time>2026-04-25T15:48:40.945Z</time></trkpt><trkpt lat="44.18964522819238" lon="10.419901305224492"><ele>1149.0</ele><time>2026-04-25T15:48:41.945Z</time></trkpt><trkpt lat="44.18952935397525" lon="10.41973644546507"><ele>1140.6666666666667</ele><time>2026-04-25T15:48:42.945Z</time></trkpt><trkpt lat="44.189388545235026" lon="10.4195613235863"><ele>1132.3333333333335</ele><time>2026-04-25T15:48:43.945Z</time></trkpt><trkpt lat="44.18924121031205" lon="10.41938694615258"><ele>1124.0</ele><time>2026-04-25T15:48:44.945Z</time></trkpt><trkpt lat="44.18913834952011" lon="10.419251351432667"><ele>1124.0</ele><time>2026-04-25T15:48:45.945Z</time></trkpt><trkpt lat="44.18902022608144" lon="10.419160358547106"><ele>1124.0</ele><time>2026-04-25T15:48:46.945Z</time></trkpt><trkpt lat="44.18887370777408" lon="10.419107790009233"><ele>1124.0</ele><time>2026-04-25T15:48:47.945Z</time></trkpt><trkpt lat="44.188700239449545" lon="10.419111710914096"><ele>1124.5</ele><time>2026-04-25T15:48:48.945Z</time></trkpt><trkpt lat="44.18859256988558" lon="10.41906045520953"><ele>1125.0</ele><time>2026-04-25T15:48:49.944Z</time></trkpt><trkpt lat="44.18851831042195" lon="10.418959705475794"><ele>1125.5</ele><time>2026-04-25T15:48:50.944Z</time></trkpt><trkpt lat="44.188490167581804" lon="10.418786643356274"><ele>1126.0</ele><time>2026-04-25T15:48:51.944Z</time></trkpt><trkpt lat="44.1884952618577" lon="10.418571339684645"><ele>1126.0</ele><time>2026-04-25T15:48:52.944Z</time></trkpt><trkpt lat="44.18847123975088" lon="10.418376235677801"><ele>1126.0</ele><time>2026-04-25T15:48:53.944Z</time></trkpt><trkpt lat="44.18839963748557" lon="10.4182309538397"><ele>1126.0</ele><time>2026-04-25T15:48:54.944Z</time></trkpt><trkpt lat="44.18828822578535" lon="10.418147171356457"><ele>1126.0</ele><time>2026-04-25T15:48:55.944Z</time></trkpt><trkpt lat="44.18812523820803" lon="10.418059927613127"><ele>1128.0</ele><time>2026-04-25T15:48:56.944Z</time></trkpt><trkpt lat="44.18796197048468" lon="10.417989316550862"><ele>1130.0</ele><time>2026-04-25T15:48:57.944Z</time></trkpt><trkpt lat="44.18781848709303" lon="10.41790341378243"><ele>1132.0</ele><time>2026-04-25T15:48:58.944Z</time></trkpt><trkpt lat="44.187700406962875" lon="10.417841854692368"><ele>1132.0</ele><time>2026-04-25T15:48:59.944Z</time></trkpt><trkpt lat="44.18763150844889" lon="10.41773021094896"><ele>1132.0</ele><time>2026-04-25T15:49:00.944Z</time></trkpt><trkpt lat="44.18763229242445" lon="10.417626515816345"><ele>1132.0</ele><time>2026-04-25T15:49:01.944Z</time></trkpt><trkpt lat="44.18767430441823" lon="10.41744964644871"><ele>1132.0</ele><time>2026-04-25T15:49:02.944Z</time></trkpt><trkpt lat="44.18773602155596" lon="10.417268861838286"><ele>1127.25</ele><time>2026-04-25T15:49:03.944Z</time></trkpt><trkpt lat="44.18773830041375" lon="10.41712465220288"><ele>1122.5</ele><time>2026-04-25T15:49:04.944Z</time></trkpt><trkpt lat="44.18767065816582" lon="10.416967537664965"><ele>1117.75</ele><time>2026-04-25T15:49:05.944Z</time></trkpt><trkpt lat="44.18754254481249" lon="10.416847342825395"><ele>1113.0</ele><time>2026-04-25T15:49:06.944Z</time></trkpt><trkpt lat="44.18740247916931" lon="10.41672264760712"><ele>1130.0</ele><time>2026-04-25T15:49:07.944Z</time></trkpt><trkpt lat="44.18731231213577" lon="10.416565677834006"><ele>1147.0</ele><time>2026-04-25T15:49:08.944Z</time></trkpt><trkpt lat="44.187262793710104" lon="10.416345168429006"><ele>1164.0</ele><time>2026-04-25T15:49:09.944Z</time></trkpt><trkpt lat="44.187203410789586" lon="10.416141130261037"><ele>1164.0</ele><time>2026-04-25T15:49:10.944Z</time></trkpt><trkpt lat="44.187155245184194" lon="10.415965189007375"><ele>1164.0</ele><time>2026-04-25T15:49:11.944Z</time></trkpt><trkpt lat="44.1871424444092" lon="10.415760719076516"><ele>1164.0</ele><time>2026-04-25T15:49:12.944Z</time></trkpt><trkpt lat="44.18718312080318" lon="10.41553375011936"><ele>1163.3333333333333</ele><time>2026-04-25T15:49:13.944Z</time></trkpt><trkpt lat="44.18727543446716" lon="10.41528984984636"><ele>1162.6666666666665</ele><time>2026-04-25T15:49:14.944Z</time></trkpt><trkpt lat="44.187362668120294" lon="10.415028659089511"><ele>1162.0</ele><time>2026-04-25T15:49:15.944Z</time></trkpt><trkpt lat="44.187426676868874" lon="10.414770703740988"><ele>1143.6666666666665</ele><time>2026-04-25T15:49:16.944Z</time></trkpt><trkpt lat="44.18750551093436" lon="10.414546196389987"><ele>1125.3333333333333</ele><time>2026-04-25T15:49:17.944Z</time></trkpt><trkpt lat="44.187593951504255" lon="10.414344442396631"><ele>1107.0</ele><time>2026-04-25T15:49:18.944Z</time></trkpt><trkpt lat="44.187665413971125" lon="10.414151107352462"><ele>1107.0</ele><time>2026-04-25T15:49:19.944Z</time></trkpt><trkpt lat="44.187683835150494" lon="10.413937003297326"><ele>1107.0</ele><time>2026-04-25T15:49:20.944Z</time></trkpt><trkpt lat="44.1876677661764" lon="10.413695990968447"><ele>1107.0</ele><time>2026-04-25T15:49:21.944Z</time></trkpt><trkpt lat="44.18761831882427" lon="10.413471986663781"><ele>1103.3333333333333</ele><time>2026-04-25T15:49:22.944Z</time></trkpt><trkpt lat="44.18751934124542" lon="10.41325292573652"><ele>1099.6666666666665</ele><time>2026-04-25T15:49:23.944Z</time></trkpt><trkpt lat="44.187396927632776" lon="10.413049205622425"><ele>1096.0</ele><time>2026-04-25T15:49:24.944Z</time></trkpt><trkpt lat="44.187276160137706" lon="10.412865212592802"><ele>1110.0</ele><time>2026-04-25T15:49:25.944Z</time></trkpt><trkpt lat="44.18717528685837" lon="10.412694210707862"><ele>1124.0</ele><time>2026-04-25T15:49:26.944Z</time></trkpt><trkpt lat="44.18711132711653" lon="10.41250342948412"><ele>1138.0</ele><time>2026-04-25T15:49:27.944Z</time></trkpt><trkpt lat="44.18710719621087" lon="10.412270788424099"><ele>1133.6666666666665</ele><time>2026-04-25T15:49:28.944Z</time></trkpt><trkpt lat="44.187123808830634" lon="10.41198136133353"><ele>1129.3333333333333</ele><time>2026-04-25T15:49:29.944Z</time></trkpt><trkpt lat="44.18712283339201" lon="10.411699930765282"><ele>1125.0</ele><time>2026-04-25T15:49:30.944Z</time></trkpt><trkpt lat="44.18707999115824" lon="10.411430550647081"><ele>1121.0</ele><time>2026-04-25T15:49:31.944Z</time></trkpt><trkpt lat="44.18700309328036" lon="10.411150885443211"><ele>1117.0</ele><time>2026-04-25T15:49:32.944Z</time></trkpt><trkpt lat="44.18692881360561" lon="10.41085556076843"><ele>1113.0</ele><time>2026-04-25T15:49:33.944Z</time></trkpt><trkpt lat="44.186841989679486" lon="10.410545614961354"><ele>1106.0</ele><time>2026-04-25T15:49:34.944Z</time></trkpt><trkpt lat="44.18677571926479" lon="10.41024615743075"><ele>1099.0</ele><time>2026-04-25T15:49:35.944Z</time></trkpt><trkpt lat="44.18674157555341" lon="10.409966508710754"><ele>1092.0</ele><time>2026-04-25T15:49:36.944Z</time></trkpt><trkpt lat="44.18671175627341" lon="10.409700399840068"><ele>1087.3333333333333</ele><time>2026-04-25T15:49:37.944Z</time></trkpt><trkpt lat="44.186667915387495" lon="10.409441908532578"><ele>1082.6666666666665</ele><time>2026-04-25T15:49:38.944Z</time></trkpt><trkpt lat="44.186606297870625" lon="10.40919949087249"><ele>1078.0</ele><time>2026-04-25T15:49:39.944Z</time></trkpt><trkpt lat="44.18654860358479" lon="10.408982945497254"><ele>1079.0</ele><time>2026-04-25T15:49:40.944Z</time></trkpt><trkpt lat="44.186492797254104" lon="10.408797566162473"><ele>1080.0</ele><time>2026-04-25T15:49:41.944Z</time></trkpt><trkpt lat="44.18639157406274" lon="10.408647002468298"><ele>1081.0</ele><time>2026-04-25T15:49:42.944Z</time></trkpt><trkpt lat="44.186253334895426" lon="10.408512282238554"><ele>1081.0</ele><time>2026-04-25T15:49:43.944Z</time></trkpt><trkpt lat="44.18610483380757" lon="10.408365195342318"><ele>1081.0</ele><time>2026-04-25T15:49:44.944Z</time></trkpt><trkpt lat="44.1859223489816" lon="10.408224320109914"><ele>1081.0</ele><time>2026-04-25T15:49:45.944Z</time></trkpt><trkpt lat="44.18572786530331" lon="10.408059640378681"><ele>1072.0</ele><time>2026-04-25T15:49:46.944Z</time></trkpt><trkpt lat="44.185549956244124" lon="10.407891528446289"><ele>1063.0</ele><time>2026-04-25T15:49:47.944Z</time></trkpt><trkpt lat="44.18539325496351" lon="10.407731126084425"><ele>1054.0</ele><time>2026-04-25T15:49:48.944Z</time></trkpt><trkpt lat="44.185242546491665" lon="10.407575372628367"><ele>1054.0</ele><time>2026-04-25T15:49:49.944Z</time></trkpt><trkpt lat="44.18510973316269" lon="10.40747265969078"><ele>1054.0</ele><time>2026-04-25T15:49:50.944Z</time></trkpt><trkpt lat="44.1849778342703" lon="10.40741519075915"><ele>1054.0</ele><time>2026-04-25T15:49:51.944Z</time></trkpt><trkpt lat="44.184852718345894" lon="10.407436694457886"><ele>1054.0</ele><time>2026-04-25T15:49:52.944Z</time></trkpt><trkpt lat="44.184749969171634" lon="10.407517934646835"><ele>1059.0</ele><time>2026-04-25T15:49:53.944Z</time></trkpt><trkpt lat="44.18466880700786" lon="10.407668212380045"><ele>1064.0</ele><time>2026-04-25T15:49:54.944Z</time></trkpt><trkpt lat="44.18463073476284" lon="10.407892820645232"><ele>1069.0</ele><time>2026-04-25T15:49:55.944Z</time></trkpt><trkpt lat="44.18457436786716" lon="10.408132400881486"><ele>1069.0</ele><time>2026-04-25T15:49:56.944Z</time></trkpt><trkpt lat="44.18448397141692" lon="10.40829878433054"><ele>1069.0</ele><time>2026-04-25T15:49:57.944Z</time></trkpt><trkpt lat="44.184360485186176" lon="10.408387573221878"><ele>1069.0</ele><time>2026-04-25T15:49:58.944Z</time></trkpt><trkpt lat="44.184190170052794" lon="10.408411635921313"><ele>1066.6666666666665</ele><time>2026-04-25T15:49:59.944Z</time></trkpt><trkpt lat="44.18399752516815" lon="10.408413306484771"><ele>1064.3333333333333</ele><time>2026-04-25T15:50:00.944Z</time></trkpt><trkpt lat="44.18379612442229" lon="10.40847045041353"><ele>1062.0</ele><time>2026-04-25T15:50:01.944Z</time></trkpt><trkpt lat="44.183595125587956" lon="10.408548314205802"><ele>1062.0</ele><time>2026-04-25T15:50:02.944Z</time></trkpt><trkpt lat="44.18340708952767" lon="10.408579074124775"><ele>1062.0</ele><time>2026-04-25T15:50:03.944Z</time></trkpt><trkpt lat="44.183241539601305" lon="10.408539918613506"><ele>1062.0</ele><time>2026-04-25T15:50:04.944Z</time></trkpt><trkpt lat="44.183080997021" lon="10.408465939043616"><ele>1061.0</ele><time>2026-04-25T15:50:05.944Z</time></trkpt><trkpt lat="44.182946147358656" lon="10.408375483237858"><ele>1060.0</ele><time>2026-04-25T15:50:06.944Z</time></trkpt><trkpt lat="44.1828342953444" lon="10.40824479368151"><ele>1059.0</ele><time>2026-04-25T15:50:07.944Z</time></trkpt><trkpt lat="44.18267882319576" lon="10.408224424374804"><ele>1059.0</ele><time>2026-04-25T15:50:08.944Z</time></trkpt><trkpt lat="44.182509914006744" lon="10.408233957974828"><ele>1059.0</ele><time>2026-04-25T15:50:09.944Z</time></trkpt><trkpt lat="44.18233154195087" lon="10.408242619455713"><ele>1059.0</ele><time>2026-04-25T15:50:10.944Z</time></trkpt><trkpt lat="44.18216922535901" lon="10.408232550020172"><ele>1065.6666666666667</ele><time>2026-04-25T15:50:11.944Z</time></trkpt><trkpt lat="44.18202115248237" lon="10.408195268089935"><ele>1072.3333333333335</ele><time>2026-04-25T15:50:12.944Z</time></trkpt><trkpt lat="44.18189166229821" lon="10.40807573369863"><ele>1079.0</ele><time>2026-04-25T15:50:13.944Z</time></trkpt><trkpt lat="44.181781359792254" lon="10.407915284999476"><ele>1067.6666666666667</ele><time>2026-04-25T15:50:14.944Z</time></trkpt><trkpt lat="44.18167181027464" lon="10.40781878532564"><ele>1056.3333333333333</ele><time>2026-04-25T15:50:15.944Z</time></trkpt><trkpt lat="44.18151955964098" lon="10.407807815755573"><ele>1045.0</ele><time>2026-04-25T15:50:16.944Z</time></trkpt><trkpt lat="44.18133236929271" lon="10.407834540014512"><ele>1045.0</ele><time>2026-04-25T15:50:17.944Z</time></trkpt><trkpt lat="44.181141988733636" lon="10.407880941720855"><ele>1045.0</ele><time>2026-04-25T15:50:18.944Z</time></trkpt><trkpt lat="44.18094486979681" lon="10.407871508768201"><ele>1045.0</ele><time>2026-04-25T15:50:19.944Z</time></trkpt><trkpt lat="44.18078032252423" lon="10.407792920503256"><ele>1052.0</ele><time>2026-04-25T15:50:20.944Z</time></trkpt><trkpt lat="44.18061994791673" lon="10.407656836438838"><ele>1059.0</ele><time>2026-04-25T15:50:21.944Z</time></trkpt><trkpt lat="44.18043389799847" lon="10.407544626930184"><ele>1066.0</ele><time>2026-04-25T15:50:22.944Z</time></trkpt><trkpt lat="44.18022589700287" lon="10.407476425107829"><ele>1066.0</ele><time>2026-04-25T15:50:23.944Z</time></trkpt><trkpt lat="44.180021751823176" lon="10.407420614336576"><ele>1066.0</ele><time>2026-04-25T15:50:24.945Z</time></trkpt><trkpt lat="44.17985274639604" lon="10.407314302724686"><ele>1066.0</ele><time>2026-04-25T15:50:25.944Z</time></trkpt><trkpt lat="44.179694373890065" lon="10.407173411811074"><ele>1059.0</ele><time>2026-04-25T15:50:26.944Z</time></trkpt><trkpt lat="44.1795141398752" lon="10.407015921768302"><ele>1052.0</ele><time>2026-04-25T15:50:27.945Z</time></trkpt><trkpt lat="44.179325202247796" lon="10.40689107201168"><ele>1045.0</ele><time>2026-04-25T15:50:28.945Z</time></trkpt><trkpt lat="44.179164421148215" lon="10.40679660967087"><ele>1045.0</ele><time>2026-04-25T15:50:29.945Z</time></trkpt><trkpt lat="44.17904399635133" lon="10.406656516679153"><ele>1045.0</ele><time>2026-04-25T15:50:30.944Z</time></trkpt><trkpt lat="44.17893144083665" lon="10.406476937803793"><ele>1045.0</ele><time>2026-04-25T15:50:31.945Z</time></trkpt><trkpt lat="44.178816308873955" lon="10.40627937332782"><ele>1041.75</ele><time>2026-04-25T15:50:32.945Z</time></trkpt><trkpt lat="44.178716469378095" lon="10.406115482560073"><ele>1038.5</ele><time>2026-04-25T15:50:33.945Z</time></trkpt><trkpt lat="44.178619320975606" lon="10.406010081990939"><ele>1035.25</ele><time>2026-04-25T15:50:34.945Z</time></trkpt><trkpt lat="44.178528658530766" lon="10.405966515817024"><ele>1032.0</ele><time>2026-04-25T15:50:35.945Z</time></trkpt><trkpt lat="44.17842382230561" lon="10.405989707587546"><ele>1032.0</ele><time>2026-04-25T15:50:36.945Z</time></trkpt><trkpt lat="44.17832198154393" lon="10.406089410205158"><ele>1032.0</ele><time>2026-04-25T15:50:37.945Z</time></trkpt><trkpt lat="44.17824378617512" lon="10.406246637680612"><ele>1032.0</ele><time>2026-04-25T15:50:38.945Z</time></trkpt><trkpt lat="44.17820393556865" lon="10.406467573681935"><ele>1032.0</ele><time>2026-04-25T15:50:39.945Z</time></trkpt><trkpt lat="44.1781663124659" lon="10.406717779213048"><ele>1028.3333333333333</ele><time>2026-04-25T15:50:40.945Z</time></trkpt><trkpt lat="44.17812649509578" lon="10.40698093697638"><ele>1024.6666666666665</ele><time>2026-04-25T15:50:41.945Z</time></trkpt><trkpt lat="44.178096955163326" lon="10.407216361267958"><ele>1021.0</ele><time>2026-04-25T15:50:42.945Z</time></trkpt><trkpt lat="44.178095170399686" lon="10.407437572525412"><ele>1019.3333333333333</ele><time>2026-04-25T15:50:43.945Z</time></trkpt><trkpt lat="44.17806086707197" lon="10.407628332310749"><ele>1017.6666666666667</ele><time>2026-04-25T15:50:44.945Z</time></trkpt><trkpt lat="44.1779818429665" lon="10.407809434227307"><ele>1016.0</ele><time>2026-04-25T15:50:45.945Z</time></trkpt><trkpt lat="44.17785753404018" lon="10.407958491513238"><ele>1018.3333333333334</ele><time>2026-04-25T15:50:46.945Z</time></trkpt><trkpt lat="44.17773767126331" lon="10.408100509061345"><ele>1020.6666666666667</ele><time>2026-04-25T15:50:47.945Z</time></trkpt><trkpt lat="44.17765967193408" lon="10.40827052606558"><ele>1023.0</ele><time>2026-04-25T15:50:48.945Z</time></trkpt><trkpt lat="44.17764065740715" lon="10.408493034461522"><ele>1023.0</ele><time>2026-04-25T15:50:49.945Z</time></trkpt><trkpt lat="44.17765553123125" lon="10.408753904159639"><ele>1023.0</ele><time>2026-04-25T15:50:50.945Z</time></trkpt><trkpt lat="44.177691813362145" lon="10.408996376561849"><ele>1023.0</ele><time>2026-04-25T15:50:51.945Z</time></trkpt><trkpt lat="44.17775954773983" lon="10.409194729219355"><ele>1021.25</ele><time>2026-04-25T15:50:52.945Z</time></trkpt><trkpt lat="44.17784486119617" lon="10.40936792920609"><ele>1019.5</ele><time>2026-04-25T15:50:53.945Z</time></trkpt><trkpt lat="44.177934297821004" lon="10.40952288740191"><ele>1017.75</ele><time>2026-04-25T15:50:54.945Z</time></trkpt><trkpt lat="44.17793258814278" lon="10.40972278414639"><ele>1016.0</ele><time>2026-04-25T15:50:55.945Z</time></trkpt><trkpt lat="44.177845996426136" lon="10.409928151423209"><ele>1013.75</ele><time>2026-04-25T15:50:56.945Z</time></trkpt><trkpt lat="44.17777660762928" lon="10.410128660805775"><ele>1011.5</ele><time>2026-04-25T15:50:57.945Z</time></trkpt><trkpt lat="44.17776621655886" lon="10.410301106499944"><ele>1009.25</ele><time>2026-04-25T15:50:58.945Z</time></trkpt><trkpt lat="44.177791156026906" lon="10.410468442532682"><ele>1007.0</ele><time>2026-04-25T15:50:59.945Z</time></trkpt><trkpt lat="44.17787736562761" lon="10.41069284769379"><ele>1007.0</ele><time>2026-04-25T15:51:00.945Z</time></trkpt><trkpt lat="44.17794585931944" lon="10.410918013421963"><ele>1007.0</ele><time>2026-04-25T15:51:01.945Z</time></trkpt><trkpt lat="44.17796360830095" lon="10.411120777574828"><ele>1007.0</ele><time>2026-04-25T15:51:02.945Z</time></trkpt><trkpt lat="44.1779423740344" lon="10.411331773382376"><ele>1006.25</ele><time>2026-04-25T15:51:03.945Z</time></trkpt><trkpt lat="44.177850305055074" lon="10.411515731290608"><ele>1005.5</ele><time>2026-04-25T15:51:04.945Z</time></trkpt><trkpt lat="44.17775767758899" lon="10.41166264267503"><ele>1004.75</ele><time>2026-04-25T15:51:05.945Z</time></trkpt><trkpt lat="44.17770435523926" lon="10.411840532029808"><ele>1004.0</ele><time>2026-04-25T15:51:06.945Z</time></trkpt><trkpt lat="44.17769570169513" lon="10.412040554890316"><ele>1002.6666666666667</ele><time>2026-04-25T15:51:07.945Z</time></trkpt><trkpt lat="44.17773145164423" lon="10.412288307726078"><ele>1001.3333333333333</ele><time>2026-04-25T15:51:08.945Z</time></trkpt><trkpt lat="44.17778736112969" lon="10.412503404482038"><ele>1000.0</ele><time>2026-04-25T15:51:09.945Z</time></trkpt><trkpt lat="44.17787354231529" lon="10.412654625986162"><ele>1000.0</ele><time>2026-04-25T15:51:10.945Z</time></trkpt><trkpt lat="44.17797809063018" lon="10.412720039842064"><ele>1000.0</ele><time>2026-04-25T15:51:11.945Z</time></trkpt><trkpt lat="44.178046143052825" lon="10.412753235201036"><ele>1000.0</ele><time>2026-04-25T15:51:12.945Z</time></trkpt><trkpt lat="44.17796843026559" lon="10.412847482297423"><ele>1000.0</ele><time>2026-04-25T15:51:14.945Z</time></trkpt><trkpt lat="44.177887325460865" lon="10.41280067608944"><ele>1000.0</ele><time>2026-04-25T15:51:15.945Z</time></trkpt><trkpt lat="44.177791544013026" lon="10.412693166552241"><ele>1000.0</ele><time>2026-04-25T15:51:16.945Z</time></trkpt><trkpt lat="44.17770115972883" lon="10.412533905740982"><ele>1000.0</ele><time>2026-04-25T15:51:17.945Z</time></trkpt><trkpt lat="44.177609188334486" lon="10.412381076012428"><ele>1000.0</ele><time>2026-04-25T15:51:18.945Z</time></trkpt><trkpt lat="44.177528374651175" lon="10.412215112262608"><ele>1000.0</ele><time>2026-04-25T15:51:19.945Z</time></trkpt><trkpt lat="44.177471833030715" lon="10.412055724867335"><ele>1001.0</ele><time>2026-04-25T15:51:20.945Z</time></trkpt><trkpt lat="44.17745457697291" lon="10.411932498284896"><ele>1002.0</ele><time>2026-04-25T15:51:21.945Z</time></trkpt><trkpt lat="44.17747067370157" lon="10.411773086614792"><ele>1003.0</ele><time>2026-04-25T15:51:22.945Z</time></trkpt><trkpt lat="44.17753811940423" lon="10.411623376120108"><ele>1004.0</ele><time>2026-04-25T15:51:23.945Z</time></trkpt><trkpt lat="44.17759655413442" lon="10.411465024342164"><ele>1004.75</ele><time>2026-04-25T15:51:24.945Z</time></trkpt><trkpt lat="44.17759737713289" lon="10.411311125387392"><ele>1005.5</ele><time>2026-04-25T15:51:25.945Z</time></trkpt><trkpt lat="44.17751715005598" lon="10.411131259295352"><ele>1006.25</ele><time>2026-04-25T15:51:26.945Z</time></trkpt><trkpt lat="44.177408216008565" lon="10.410941545277353"><ele>1007.0</ele><time>2026-04-25T15:51:27.945Z</time></trkpt><trkpt lat="44.17727912943491" lon="10.410760161886962"><ele>1001.0</ele><time>2026-04-25T15:51:28.945Z</time></trkpt><trkpt lat="44.17715152615937" lon="10.410662674614288"><ele>995.0</ele><time>2026-04-25T15:51:29.945Z</time></trkpt><trkpt lat="44.17704339176434" lon="10.41059079420607"><ele>989.0</ele><time>2026-04-25T15:51:30.945Z</time></trkpt><trkpt lat="44.17700274837578" lon="10.41049581988665"><ele>983.0</ele><time>2026-04-25T15:51:31.945Z</time></trkpt><trkpt lat="44.177027490867154" lon="10.410355599027843"><ele>977.0</ele><time>2026-04-25T15:51:32.945Z</time></trkpt><trkpt lat="44.17710151001441" lon="10.410178168238332"><ele>977.0</ele><time>2026-04-25T15:51:33.945Z</time></trkpt><trkpt lat="44.17720366679162" lon="10.410024987110523"><ele>977.0</ele><time>2026-04-25T15:51:34.945Z</time></trkpt><trkpt lat="44.177257103390495" lon="10.409883163298675"><ele>977.0</ele><time>2026-04-25T15:51:35.945Z</time></trkpt><trkpt lat="44.177266448161845" lon="10.409768442289918"><ele>977.0</ele><time>2026-04-25T15:51:36.945Z</time></trkpt><trkpt lat="44.17723374507025" lon="10.409663096300191"><ele>977.0</ele><time>2026-04-25T15:51:37.945Z</time></trkpt><trkpt lat="44.177130713933686" lon="10.409577075657417"><ele>979.0</ele><time>2026-04-25T15:51:38.945Z</time></trkpt><trkpt lat="44.17695870146525" lon="10.409530748778248"><ele>981.0</ele><time>2026-04-25T15:51:39.945Z</time></trkpt><trkpt lat="44.17676612798946" lon="10.409496099177481"><ele>983.0</ele><time>2026-04-25T15:51:40.945Z</time></trkpt><trkpt lat="44.176608063955214" lon="10.409458275118652"><ele>975.0</ele><time>2026-04-25T15:51:41.945Z</time></trkpt><trkpt lat="44.17648275644291" lon="10.40939147968809"><ele>967.0</ele><time>2026-04-25T15:51:42.945Z</time></trkpt><trkpt lat="44.17639524795647" lon="10.409291135214456"><ele>959.0</ele><time>2026-04-25T15:51:43.945Z</time></trkpt><trkpt lat="44.1763498420098" lon="10.409104477632638"><ele>951.0</ele><time>2026-04-25T15:51:44.945Z</time></trkpt><trkpt lat="44.1763475844715" lon="10.408873259239806"><ele>949.3333333333333</ele><time>2026-04-25T15:51:45.945Z</time></trkpt><trkpt lat="44.17634640154063" lon="10.4086239640972"><ele>947.6666666666666</ele><time>2026-04-25T15:51:46.945Z</time></trkpt><trkpt lat="44.17632944457422" lon="10.40842415511458"><ele>946.0</ele><time>2026-04-25T15:51:47.945Z</time></trkpt><trkpt lat="44.176330262639844" lon="10.408233526226562"><ele>946.0</ele><time>2026-04-25T15:51:48.945Z</time></trkpt><trkpt lat="44.17638880965944" lon="10.408034073475187"><ele>946.0</ele><time>2026-04-25T15:51:49.945Z</time></trkpt><trkpt lat="44.17646287761883" lon="10.407806629359976"><ele>946.0</ele><time>2026-04-25T15:51:50.944Z</time></trkpt><trkpt lat="44.17653176346928" lon="10.40760466920187"><ele>947.0</ele><time>2026-04-25T15:51:51.944Z</time></trkpt><trkpt lat="44.17657179149382" lon="10.407447525587937"><ele>948.0</ele><time>2026-04-25T15:51:52.944Z</time></trkpt><trkpt lat="44.17656442932459" lon="10.407270481372027"><ele>949.0</ele><time>2026-04-25T15:51:53.944Z</time></trkpt><trkpt lat="44.176491449701395" lon="10.407080754229604"><ele>950.0</ele><time>2026-04-25T15:51:54.944Z</time></trkpt><trkpt lat="44.1763638354754" lon="10.406892235892514"><ele>950.0</ele><time>2026-04-25T15:51:55.944Z</time></trkpt><trkpt lat="44.17623364074381" lon="10.406683316932078"><ele>950.0</ele><time>2026-04-25T15:51:56.944Z</time></trkpt><trkpt lat="44.17610479457833" lon="10.406459502763568"><ele>950.0</ele><time>2026-04-25T15:51:57.944Z</time></trkpt><trkpt lat="44.17598380596682" lon="10.406193458217205"><ele>956.0</ele><time>2026-04-25T15:51:58.944Z</time></trkpt><trkpt lat="44.17584702516417" lon="10.405916486987682"><ele>962.0</ele><time>2026-04-25T15:51:59.944Z</time></trkpt><trkpt lat="44.17570414050143" lon="10.405638370225812"><ele>951.0</ele><time>2026-04-25T15:52:00.944Z</time></trkpt><trkpt lat="44.175557580891315" lon="10.405348237281924"><ele>940.0</ele><time>2026-04-25T15:52:01.944Z</time></trkpt><trkpt lat="44.175421721138456" lon="10.405064416499323"><ele>940.0</ele><time>2026-04-25T15:52:02.944Z</time></trkpt><trkpt lat="44.175288952417446" lon="10.404812284474435"><ele>940.0</ele><time>2026-04-25T15:52:03.944Z</time></trkpt><trkpt lat="44.17516415095066" lon="10.404567898658593"><ele>940.0</ele><time>2026-04-25T15:52:04.944Z</time></trkpt><trkpt lat="44.175044547423134" lon="10.404333318953748"><ele>944.0</ele><time>2026-04-25T15:52:05.944Z</time></trkpt><trkpt lat="44.174926207500185" lon="10.40411265947082"><ele>948.0</ele><time>2026-04-25T15:52:06.944Z</time></trkpt><trkpt lat="44.17481635127839" lon="10.403886406208827"><ele>952.0</ele><time>2026-04-25T15:52:07.944Z</time></trkpt><trkpt lat="44.174714143585724" lon="10.403688396706322"><ele>946.0</ele><time>2026-04-25T15:52:08.944Z</time></trkpt><trkpt lat="44.17462965124725" lon="10.40351766897553"><ele>940.0</ele><time>2026-04-25T15:52:09.944Z</time></trkpt><trkpt lat="44.17456892122335" lon="10.403364816745347"><ele>934.0</ele><time>2026-04-25T15:52:10.944Z</time></trkpt><trkpt lat="44.174541098905394" lon="10.40320957789277"><ele>928.0</ele><time>2026-04-25T15:52:11.944Z</time></trkpt><trkpt lat="44.174570924598946" lon="10.403048636142168"><ele>929.4</ele><time>2026-04-25T15:52:12.944Z</time></trkpt><trkpt lat="44.17463536557552" lon="10.402901300491923"><ele>930.8</ele><time>2026-04-25T15:52:13.944Z</time></trkpt><trkpt lat="44.17473277342064" lon="10.402790091251578"><ele>932.2</ele><time>2026-04-25T15:52:14.944Z</time></trkpt><trkpt lat="44.17483872368964" lon="10.402725018742862"><ele>933.6</ele><time>2026-04-25T15:52:15.944Z</time></trkpt><trkpt lat="44.174891144688644" lon="10.402657177659352"><ele>935.0</ele><time>2026-04-25T15:52:16.944Z</time></trkpt><trkpt lat="44.17485804141975" lon="10.402561197213549"><ele>930.25</ele><time>2026-04-25T15:52:17.944Z</time></trkpt><trkpt lat="44.17477803319279" lon="10.402515895744198"><ele>925.5</ele><time>2026-04-25T15:52:18.944Z</time></trkpt><trkpt lat="44.17468979572051" lon="10.402570466361425"><ele>920.75</ele><time>2026-04-25T15:52:19.944Z</time></trkpt><trkpt lat="44.17459699824227" lon="10.402692535801735"><ele>916.0</ele><time>2026-04-25T15:52:20.944Z</time></trkpt><trkpt lat="44.17451889949885" lon="10.402853494259345"><ele>916.0</ele><time>2026-04-25T15:52:21.944Z</time></trkpt><trkpt lat="44.174442958082494" lon="10.402995623210243"><ele>916.0</ele><time>2026-04-25T15:52:22.944Z</time></trkpt><trkpt lat="44.174391201425934" lon="10.403141061680326"><ele>916.0</ele><time>2026-04-25T15:52:23.944Z</time></trkpt><trkpt lat="44.17437574508909" lon="10.403307740987374"><ele>916.0</ele><time>2026-04-25T15:52:24.944Z</time></trkpt><trkpt lat="44.1744011754984" lon="10.403498650246231"><ele>916.3333333333333</ele><time>2026-04-25T15:52:25.944Z</time></trkpt><trkpt lat="44.17444971203364" lon="10.403708499511536"><ele>916.6666666666667</ele><time>2026-04-25T15:52:26.944Z</time></trkpt><trkpt lat="44.17451906145334" lon="10.403917968517524"><ele>917.0</ele><time>2026-04-25T15:52:27.944Z</time></trkpt><trkpt lat="44.174593828731" lon="10.40413338286676"><ele>917.0</ele><time>2026-04-25T15:52:28.944Z</time></trkpt><trkpt lat="44.17466872824025" lon="10.404354809835597"><ele>917.0</ele><time>2026-04-25T15:52:29.944Z</time></trkpt><trkpt lat="44.17474908563964" lon="10.404585241402552"><ele>917.0</ele><time>2026-04-25T15:52:30.946Z</time></trkpt><trkpt lat="44.1748353748042" lon="10.404831251670934"><ele>921.6666666666667</ele><time>2026-04-25T15:52:31.945Z</time></trkpt><trkpt lat="44.17489352607717" lon="10.405080812466801"><ele>926.3333333333333</ele><time>2026-04-25T15:52:32.945Z</time></trkpt><trkpt lat="44.17492987777824" lon="10.405351537432802"><ele>931.0</ele><time>2026-04-25T15:52:33.946Z</time></trkpt><trkpt lat="44.17494984678396" lon="10.405636003451683"><ele>931.0</ele><time>2026-04-25T15:52:34.946Z</time></trkpt><trkpt lat="44.174938796267874" lon="10.405887185167535"><ele>931.0</ele><time>2026-04-25T15:52:35.946Z</time></trkpt><trkpt lat="44.17499292872583" lon="10.406143277625915"><ele>931.0</ele><time>2026-04-25T15:52:36.946Z</time></trkpt><trkpt lat="44.17511023925471" lon="10.406406438188405"><ele>926.3333333333333</ele><time>2026-04-25T15:52:37.946Z</time></trkpt><trkpt lat="44.175214179031315" lon="10.40666558252626"><ele>921.6666666666667</ele><time>2026-04-25T15:52:38.946Z</time></trkpt><trkpt lat="44.17529232687894" lon="10.406887378026083"><ele>917.0</ele><time>2026-04-25T15:52:39.946Z</time></trkpt><trkpt lat="44.17535539844779" lon="10.407081405871068"><ele>914.25</ele><time>2026-04-25T15:52:40.945Z</time></trkpt><trkpt lat="44.17539443183138" lon="10.407244360894756"><ele>911.5</ele><time>2026-04-25T15:52:41.945Z</time></trkpt><trkpt lat="44.17539042894002" lon="10.407407061070113"><ele>908.75</ele><time>2026-04-25T15:52:42.946Z</time></trkpt><trkpt lat="44.17532659424825" lon="10.407582729732075"><ele>906.0</ele><time>2026-04-25T15:52:43.946Z</time></trkpt><trkpt lat="44.17533291130087" lon="10.407753105022133"><ele>906.0</ele><time>2026-04-25T15:52:44.946Z</time></trkpt><trkpt lat="44.17537576083075" lon="10.407906093010155"><ele>906.0</ele><time>2026-04-25T15:52:45.946Z</time></trkpt><trkpt lat="44.175359678656044" lon="10.408033868694119"><ele>906.0</ele><time>2026-04-25T15:52:46.946Z</time></trkpt><trkpt lat="44.17529925658335" lon="10.408143864906622"><ele>906.0</ele><time>2026-04-25T15:52:47.946Z</time></trkpt><trkpt lat="44.17519804892441" lon="10.408282085214692"><ele>906.6666666666667</ele><time>2026-04-25T15:52:48.946Z</time></trkpt><trkpt lat="44.175067838830984" lon="10.408399496909697"><ele>907.3333333333334</ele><time>2026-04-25T15:52:49.946Z</time></trkpt><trkpt lat="44.174937232924826" lon="10.408554495834805"><ele>908.0</ele><time>2026-04-25T15:52:50.946Z</time></trkpt><trkpt lat="44.17485117927483" lon="10.408715039562459"><ele>902.75</ele><time>2026-04-25T15:52:51.946Z</time></trkpt><trkpt lat="44.174790766904174" lon="10.408913336383776"><ele>897.5</ele><time>2026-04-25T15:52:52.946Z</time></trkpt><trkpt lat="44.174746299692" lon="10.40911236845026"><ele>892.25</ele><time>2026-04-25T15:52:53.946Z</time></trkpt><trkpt lat="44.17470763394371" lon="10.409294599858354"><ele>887.0</ele><time>2026-04-25T15:52:54.946Z</time></trkpt><trkpt lat="44.174699074328466" lon="10.409466763445149"><ele>887.0</ele><time>2026-04-25T15:52:55.946Z</time></trkpt><trkpt lat="44.17474894643984" lon="10.409652301676156"><ele>887.0</ele><time>2026-04-25T15:52:56.946Z</time></trkpt><trkpt lat="44.17483761704043" lon="10.409827942908297"><ele>887.0</ele><time>2026-04-25T15:52:57.946Z</time></trkpt><trkpt lat="44.174913202658765" lon="10.409975112701218"><ele>887.0</ele><time>2026-04-25T15:52:58.946Z</time></trkpt><trkpt lat="44.174951106167214" lon="10.41007643266259"><ele>893.25</ele><time>2026-04-25T15:52:59.946Z</time></trkpt><trkpt lat="44.17489076104136" lon="10.410201692812132"><ele>899.5</ele><time>2026-04-25T15:53:01.946Z</time></trkpt><trkpt lat="44.17479815823005" lon="10.410188078187506"><ele>905.75</ele><time>2026-04-25T15:53:02.946Z</time></trkpt><trkpt lat="44.17469483056679" lon="10.41009909483568"><ele>912.0</ele><time>2026-04-25T15:53:03.946Z</time></trkpt><trkpt lat="44.174572059029444" lon="10.410033277806686"><ele>912.0</ele><time>2026-04-25T15:53:04.946Z</time></trkpt><trkpt lat="44.17443744925194" lon="10.410002607111883"><ele>912.0</ele><time>2026-04-25T15:53:05.946Z</time></trkpt><trkpt lat="44.17428517717681" lon="10.409960343688567"><ele>912.0</ele><time>2026-04-25T15:53:06.946Z</time></trkpt><trkpt lat="44.174155414658344" lon="10.409844556160737"><ele>912.0</ele><time>2026-04-25T15:53:07.946Z</time></trkpt><trkpt lat="44.17399757156544" lon="10.40973326695545"><ele>913.0</ele><time>2026-04-25T15:53:08.946Z</time></trkpt><trkpt lat="44.17383590578098" lon="10.40965913888763"><ele>914.0</ele><time>2026-04-25T15:53:09.946Z</time></trkpt><trkpt lat="44.17367711595085" lon="10.409582131730142"><ele>915.0</ele><time>2026-04-25T15:53:10.946Z</time></trkpt><trkpt lat="44.173548040698336" lon="10.409481004664773"><ele>912.25</ele><time>2026-04-25T15:53:11.946Z</time></trkpt><trkpt lat="44.1734239213874" lon="10.409428212564418"><ele>909.5</ele><time>2026-04-25T15:53:12.946Z</time></trkpt><trkpt lat="44.17329779373512" lon="10.409467913078403"><ele>906.75</ele><time>2026-04-25T15:53:13.946Z</time></trkpt><trkpt lat="44.17317034224966" lon="10.40958956466274"><ele>904.0</ele><time>2026-04-25T15:53:14.946Z</time></trkpt><trkpt lat="44.173016930824005" lon="10.409717794791053"><ele>904.0</ele><time>2026-04-25T15:53:15.946Z</time></trkpt><trkpt lat="44.17288065664912" lon="10.4097988252892"><ele>904.0</ele><time>2026-04-25T15:53:16.945Z</time></trkpt><trkpt lat="44.17275709831163" lon="10.409835090418838"><ele>904.0</ele><time>2026-04-25T15:53:17.945Z</time></trkpt><trkpt lat="44.172623443218846" lon="10.409794160403182"><ele>904.0</ele><time>2026-04-25T15:53:18.945Z</time></trkpt><trkpt lat="44.17248618081658" lon="10.40967005464561"><ele>890.0</ele><time>2026-04-25T15:53:19.945Z</time></trkpt><trkpt lat="44.172321915520705" lon="10.409561756485212"><ele>876.0</ele><time>2026-04-25T15:53:20.945Z</time></trkpt><trkpt lat="44.17215124906281" lon="10.409537190774431"><ele>862.0</ele><time>2026-04-25T15:53:21.945Z</time></trkpt><trkpt lat="44.17197377046942" lon="10.409517237825947"><ele>862.0</ele><time>2026-04-25T15:53:22.945Z</time></trkpt><trkpt lat="44.17179433330558" lon="10.409524270718414"><ele>862.0</ele><time>2026-04-25T15:53:23.945Z</time></trkpt><trkpt lat="44.1716301624936" lon="10.40950576109955"><ele>862.0</ele><time>2026-04-25T15:53:24.945Z</time></trkpt><trkpt lat="44.17148555543187" lon="10.409430977900145"><ele>861.75</ele><time>2026-04-25T15:53:25.945Z</time></trkpt><trkpt lat="44.17134716179061" lon="10.409297604170108"><ele>861.5</ele><time>2026-04-25T15:53:26.945Z</time></trkpt><trkpt lat="44.17121887975275" lon="10.409176464794289"><ele>861.25</ele><time>2026-04-25T15:53:27.945Z</time></trkpt><trkpt lat="44.17112597663137" lon="10.409100785281622"><ele>861.0</ele><time>2026-04-25T15:53:28.945Z</time></trkpt><trkpt lat="44.17103090964723" lon="10.409033617028912"><ele>861.0</ele><time>2026-04-25T15:53:29.945Z</time></trkpt><trkpt lat="44.17093830975663" lon="10.409065065951605"><ele>861.0</ele><time>2026-04-25T15:53:30.945Z</time></trkpt><trkpt lat="44.17088703732843" lon="10.40918812701367"><ele>861.0</ele><time>2026-04-25T15:53:31.945Z</time></trkpt><trkpt lat="44.17084086097598" lon="10.409374068648686"><ele>861.0</ele><time>2026-04-25T15:53:32.945Z</time></trkpt><trkpt lat="44.17076210419863" lon="10.40955107454124"><ele>862.3333333333333</ele><time>2026-04-25T15:53:33.945Z</time></trkpt><trkpt lat="44.17069504857938" lon="10.409740758615754"><ele>863.6666666666666</ele><time>2026-04-25T15:53:34.945Z</time></trkpt><trkpt lat="44.17067834953014" lon="10.409956325764734"><ele>865.0</ele><time>2026-04-25T15:53:35.945Z</time></trkpt><trkpt lat="44.170685155831954" lon="10.410188732218643"><ele>857.0</ele><time>2026-04-25T15:53:36.945Z</time></trkpt><trkpt lat="44.17069025216959" lon="10.410443309100843"><ele>849.0</ele><time>2026-04-25T15:53:37.945Z</time></trkpt><trkpt lat="44.17068990646901" lon="10.410707588895084"><ele>841.0</ele><time>2026-04-25T15:53:38.945Z</time></trkpt><trkpt lat="44.170690301790785" lon="10.410964615192606"><ele>841.0</ele><time>2026-04-25T15:53:39.945Z</time></trkpt><trkpt lat="44.17069043016329" lon="10.411208686443201"><ele>841.0</ele><time>2026-04-25T15:53:40.945Z</time></trkpt><trkpt lat="44.170699137434184" lon="10.411435047527473"><ele>841.0</ele><time>2026-04-25T15:53:41.945Z</time></trkpt><trkpt lat="44.170731629407854" lon="10.411644912382204"><ele>846.1999999999999</ele><time>2026-04-25T15:53:42.945Z</time></trkpt><trkpt lat="44.170797779220536" lon="10.41182527830403"><ele>851.4</ele><time>2026-04-25T15:53:43.945Z</time></trkpt><trkpt lat="44.170887712420445" lon="10.41194598995318"><ele>856.6</ele><time>2026-04-25T15:53:44.945Z</time></trkpt><trkpt lat="44.17095917202739" lon="10.412035639545012"><ele>861.8</ele><time>2026-04-25T15:53:45.945Z</time></trkpt><trkpt lat="44.17095369018566" lon="10.412140623558672"><ele>867.0</ele><time>2026-04-25T15:53:46.945Z</time></trkpt><trkpt lat="44.17090658653843" lon="10.412229926315748"><ele>864.75</ele><time>2026-04-25T15:53:47.945Z</time></trkpt><trkpt lat="44.17080579754052" lon="10.412248608873998"><ele>862.5</ele><time>2026-04-25T15:53:48.945Z</time></trkpt><trkpt lat="44.17070722040422" lon="10.41219556107224"><ele>860.25</ele><time>2026-04-25T15:53:49.945Z</time></trkpt><trkpt lat="44.17055985727411" lon="10.412104234956342"><ele>858.0</ele><time>2026-04-25T15:53:50.945Z</time></trkpt><trkpt lat="44.17042481077613" lon="10.411999854272628"><ele>858.0</ele><time>2026-04-25T15:53:51.945Z</time></trkpt><trkpt lat="44.17027881867355" lon="10.411892092722653"><ele>858.0</ele><time>2026-04-25T15:53:52.945Z</time></trkpt><trkpt lat="44.17016087356923" lon="10.411786623805302"><ele>858.0</ele><time>2026-04-25T15:53:53.945Z</time></trkpt><trkpt lat="44.170048468268256" lon="10.41161860994127"><ele>858.0</ele><time>2026-04-25T15:53:54.945Z</time></trkpt><trkpt lat="44.16997273823105" lon="10.411456930500822"><ele>858.0</ele><time>2026-04-25T15:53:55.945Z</time></trkpt><trkpt lat="44.16991146374524" lon="10.411315013857454"><ele>858.0</ele><time>2026-04-25T15:53:56.945Z</time></trkpt><trkpt lat="44.169820345531214" lon="10.411174399562706"><ele>858.0</ele><time>2026-04-25T15:53:57.945Z</time></trkpt><trkpt lat="44.16973186190985" lon="10.411060354065928"><ele>852.0</ele><time>2026-04-25T15:53:58.945Z</time></trkpt><trkpt lat="44.169614443312454" lon="10.410977622025"><ele>846.0</ele><time>2026-04-25T15:53:59.945Z</time></trkpt><trkpt lat="44.169479463920865" lon="10.41094492186278"><ele>840.0</ele><time>2026-04-25T15:54:00.945Z</time></trkpt><trkpt lat="44.16930868236879" lon="10.41093972704176"><ele>834.0</ele><time>2026-04-25T15:54:01.945Z</time></trkpt><trkpt lat="44.16913417729722" lon="10.410926175629855"><ele>827.0</ele><time>2026-04-25T15:54:02.945Z</time></trkpt><trkpt lat="44.16899777184241" lon="10.41090307721573"><ele>820.0</ele><time>2026-04-25T15:54:03.945Z</time></trkpt><trkpt lat="44.168887303511994" lon="10.41090527683732"><ele>813.0</ele><time>2026-04-25T15:54:04.945Z</time></trkpt><trkpt lat="44.168794198332925" lon="10.410986100280338"><ele>806.0</ele><time>2026-04-25T15:54:05.945Z</time></trkpt><trkpt lat="44.16872762419694" lon="10.411114463541814"><ele>806.0</ele><time>2026-04-25T15:54:06.945Z</time></trkpt><trkpt lat="44.16869524839448" lon="10.411281353476955"><ele>806.0</ele><time>2026-04-25T15:54:07.945Z</time></trkpt><trkpt lat="44.168685693289724" lon="10.411469737225692"><ele>806.0</ele><time>2026-04-25T15:54:08.945Z</time></trkpt><trkpt lat="44.16867190153485" lon="10.41168065787072"><ele>806.0</ele><time>2026-04-25T15:54:09.945Z</time></trkpt><trkpt lat="44.16865851649668" lon="10.411892298891685"><ele>810.0</ele><time>2026-04-25T15:54:10.945Z</time></trkpt><trkpt lat="44.1686453350904" lon="10.41210586865055"><ele>814.0</ele><time>2026-04-25T15:54:11.945Z</time></trkpt><trkpt lat="44.16863013431045" lon="10.412324939703145"><ele>818.0</ele><time>2026-04-25T15:54:12.945Z</time></trkpt><trkpt lat="44.168608673094226" lon="10.412547067853957"><ele>819.75</ele><time>2026-04-25T15:54:13.945Z</time></trkpt><trkpt lat="44.168597817938256" lon="10.412751524624358"><ele>821.5</ele><time>2026-04-25T15:54:14.945Z</time></trkpt><trkpt lat="44.168587627222266" lon="10.412950391831739"><ele>823.25</ele><time>2026-04-25T15:54:15.945Z</time></trkpt><trkpt lat="44.1685666291941" lon="10.413135877361954"><ele>825.0</ele><time>2026-04-25T15:54:16.945Z</time></trkpt><trkpt lat="44.168548797283385" lon="10.413286715470278"><ele>827.8</ele><time>2026-04-25T15:54:17.945Z</time></trkpt><trkpt lat="44.16850750124382" lon="10.413375722863405"><ele>830.6</ele><time>2026-04-25T15:54:18.945Z</time></trkpt><trkpt lat="44.168434280147785" lon="10.413401763635601"><ele>833.4000000000001</ele><time>2026-04-25T15:54:19.945Z</time></trkpt><trkpt lat="44.16833796258926" lon="10.413403595709216"><ele>836.2</ele><time>2026-04-25T15:54:20.945Z</time></trkpt><trkpt lat="44.16822097846705" lon="10.41341304467479"><ele>839.0</ele><time>2026-04-25T15:54:21.945Z</time></trkpt><trkpt lat="44.16811365279922" lon="10.41342752604907"><ele>840.0</ele><time>2026-04-25T15:54:22.945Z</time></trkpt><trkpt lat="44.168038154441746" lon="10.413393007386508"><ele>841.0</ele><time>2026-04-25T15:54:23.945Z</time></trkpt><trkpt lat="44.16797720111452" lon="10.413312535899008"><ele>842.0</ele><time>2026-04-25T15:54:24.945Z</time></trkpt><trkpt lat="44.16792084780011" lon="10.413206202049974"><ele>843.0</ele><time>2026-04-25T15:54:25.945Z</time></trkpt><trkpt lat="44.167873459700594" lon="10.413114192985294"><ele>844.0</ele><time>2026-04-25T15:54:26.945Z</time></trkpt><trkpt lat="44.167787206840465" lon="10.412992214901372"><ele>837.0</ele><time>2026-04-25T15:54:27.945Z</time></trkpt><trkpt lat="44.16764099871984" lon="10.412789279367862"><ele>830.0</ele><time>2026-04-25T15:54:28.945Z</time></trkpt><trkpt lat="44.167510384163485" lon="10.412593612490967"><ele>823.0</ele><time>2026-04-25T15:54:29.945Z</time></trkpt><trkpt lat="44.167403135810545" lon="10.412372041005579"><ele>821.5</ele><time>2026-04-25T15:54:30.945Z</time></trkpt><trkpt lat="44.16726715514596" lon="10.412115999124698"><ele>820.0</ele><time>2026-04-25T15:54:31.945Z</time></trkpt><trkpt lat="44.16713785013989" lon="10.411854589914244"><ele>820.0</ele><time>2026-04-25T15:54:32.945Z</time></trkpt><trkpt lat="44.167020929190514" lon="10.411599249716494"><ele>820.0</ele><time>2026-04-25T15:54:33.945Z</time></trkpt><trkpt lat="44.16690362400978" lon="10.411386797989685"><ele>820.0</ele><time>2026-04-25T15:54:34.945Z</time></trkpt><trkpt lat="44.16678043930785" lon="10.411225668805328"><ele>813.5</ele><time>2026-04-25T15:54:35.945Z</time></trkpt><trkpt lat="44.166653972376686" lon="10.411105914303047"><ele>807.0</ele><time>2026-04-25T15:54:36.999Z</time></trkpt><trkpt lat="44.16653314684373" lon="10.41103344672433"><ele>800.5</ele><time>2026-04-25T15:54:37.999Z</time></trkpt><trkpt lat="44.166405574986655" lon="10.411009966002254"><ele>794.0</ele><time>2026-04-25T15:54:38.999Z</time></trkpt><trkpt lat="44.16626111063687" lon="10.41104143074674"><ele>793.75</ele><time>2026-04-25T15:54:39.999Z</time></trkpt><trkpt lat="44.16612330677316" lon="10.411085878786656"><ele>793.5</ele><time>2026-04-25T15:54:40.999Z</time></trkpt><trkpt lat="44.16599264902351" lon="10.411128610385514"><ele>793.25</ele><time>2026-04-25T15:54:41.999Z</time></trkpt><trkpt lat="44.16588858994971" lon="10.41121014200887"><ele>793.0</ele><time>2026-04-25T15:54:42.999Z</time></trkpt><trkpt lat="44.16582063150536" lon="10.411347899562504"><ele>790.3333333333333</ele><time>2026-04-25T15:54:43.999Z</time></trkpt><trkpt lat="44.16576062446736" lon="10.411525954242316"><ele>787.6666666666667</ele><time>2026-04-25T15:54:44.999Z</time></trkpt><trkpt lat="44.16567892909352" lon="10.411714377903554"><ele>785.0</ele><time>2026-04-25T15:54:46Z</time></trkpt><trkpt lat="44.16558664642488" lon="10.411919030194541"><ele>785.0</ele><time>2026-04-25T15:54:47Z</time></trkpt><trkpt lat="44.16549558487171" lon="10.412135100784896"><ele>785.0</ele><time>2026-04-25T15:54:48Z</time></trkpt><trkpt lat="44.16541196918584" lon="10.412340582456673"><ele>785.0</ele><time>2026-04-25T15:54:48.999Z</time></trkpt><trkpt lat="44.16533536206807" lon="10.412529256244314"><ele>786.4</ele><time>2026-04-25T15:54:49.999Z</time></trkpt><trkpt lat="44.16526887577285" lon="10.412679027931267"><ele>787.8</ele><time>2026-04-25T15:54:50.999Z</time></trkpt><trkpt lat="44.16519356249041" lon="10.412782287480464"><ele>789.2</ele><time>2026-04-25T15:54:51.999Z</time></trkpt><trkpt lat="44.16509104472041" lon="10.41281209803267"><ele>790.6</ele><time>2026-04-25T15:54:52.999Z</time></trkpt><trkpt lat="44.16499286483946" lon="10.412776399917623"><ele>792.0</ele><time>2026-04-25T15:54:53.999Z</time></trkpt><trkpt lat="44.16490284868454" lon="10.412646101344997"><ele>793.75</ele><time>2026-04-25T15:54:54.999Z</time></trkpt><trkpt lat="44.16484812418776" lon="10.412458342378159"><ele>795.5</ele><time>2026-04-25T15:54:55.999Z</time></trkpt><trkpt lat="44.1647959990336" lon="10.412253579638291"><ele>797.25</ele><time>2026-04-25T15:54:56.999Z</time></trkpt><trkpt lat="44.16473861649544" lon="10.412073262134735"><ele>799.0</ele><time>2026-04-25T15:54:57.999Z</time></trkpt><trkpt lat="44.16466805204839" lon="10.4119299073964"><ele>795.5</ele><time>2026-04-25T15:54:58.999Z</time></trkpt><trkpt lat="44.16455180899966" lon="10.411830974290062"><ele>792.0</ele><time>2026-04-25T15:54:59.999Z</time></trkpt><trkpt lat="44.164406439323024" lon="10.411758729218144"><ele>788.5</ele><time>2026-04-25T15:55:00.999Z</time></trkpt><trkpt lat="44.164277608116215" lon="10.41167859959532"><ele>785.0</ele><time>2026-04-25T15:55:01.999Z</time></trkpt><trkpt lat="44.164138950531246" lon="10.411626183638171"><ele>780.3333333333334</ele><time>2026-04-25T15:55:02.999Z</time></trkpt><trkpt lat="44.16395841056436" lon="10.411663429500587"><ele>775.6666666666667</ele><time>2026-04-25T15:55:03.999Z</time></trkpt><trkpt lat="44.16381029877116" lon="10.411750599641932"><ele>771.0</ele><time>2026-04-25T15:55:04.999Z</time></trkpt><trkpt lat="44.163679380382284" lon="10.411880377248169"><ele>771.0</ele><time>2026-04-25T15:55:05.999Z</time></trkpt><trkpt lat="44.16360973464099" lon="10.412057363674469"><ele>771.0</ele><time>2026-04-25T15:55:06.999Z</time></trkpt><trkpt lat="44.163572740887425" lon="10.412262929134274"><ele>771.0</ele><time>2026-04-25T15:55:07.999Z</time></trkpt><trkpt lat="44.16352880219946" lon="10.412478055145218"><ele>773.25</ele><time>2026-04-25T15:55:08.999Z</time></trkpt><trkpt lat="44.16343834115424" lon="10.412639596945413"><ele>775.5</ele><time>2026-04-25T15:55:09.999Z</time></trkpt><trkpt lat="44.16332084450828" lon="10.412757399624114"><ele>777.75</ele><time>2026-04-25T15:55:10.999Z</time></trkpt><trkpt lat="44.16318607499429" lon="10.412861680986525"><ele>780.0</ele><time>2026-04-25T15:55:11.999Z</time></trkpt><trkpt lat="44.16302665809679" lon="10.412950900780883"><ele>778.6666666666667</ele><time>2026-04-25T15:55:12.999Z</time></trkpt><trkpt lat="44.16285601705909" lon="10.41306069336998"><ele>777.3333333333334</ele><time>2026-04-25T15:55:13.999Z</time></trkpt><trkpt lat="44.16267277647545" lon="10.413189249511479"><ele>776.0</ele><time>2026-04-25T15:55:14.999Z</time></trkpt><trkpt lat="44.1624920090554" lon="10.413320485529221"><ele>765.0</ele><time>2026-04-25T15:55:15.999Z</time></trkpt><trkpt lat="44.16233127085113" lon="10.413455219702342"><ele>754.0</ele><time>2026-04-25T15:55:16.999Z</time></trkpt><trkpt lat="44.16219916521384" lon="10.413613778586125"><ele>743.0</ele><time>2026-04-25T15:55:17.999Z</time></trkpt><trkpt lat="44.16205079112477" lon="10.413804282565469"><ele>751.0</ele><time>2026-04-25T15:55:18.999Z</time></trkpt><trkpt lat="44.16190348745774" lon="10.414014156839551"><ele>759.0</ele><time>2026-04-25T15:55:19.999Z</time></trkpt><trkpt lat="44.1617349844428" lon="10.414186204694014"><ele>767.0</ele><time>2026-04-25T15:55:20.999Z</time></trkpt><trkpt lat="44.161554652087794" lon="10.41429219097643"><ele>760.6666666666666</ele><time>2026-04-25T15:55:21.999Z</time></trkpt><trkpt lat="44.16136903708921" lon="10.414323189607657"><ele>754.3333333333334</ele><time>2026-04-25T15:55:22.999Z</time></trkpt><trkpt lat="44.16120604147839" lon="10.41437162556222"><ele>748.0</ele><time>2026-04-25T15:55:23.999Z</time></trkpt><trkpt lat="44.16107190897103" lon="10.414409821038198"><ele>748.0</ele><time>2026-04-25T15:55:24.999Z</time></trkpt><trkpt lat="44.160985715209684" lon="10.4145032995511"><ele>748.0</ele><time>2026-04-25T15:55:25.999Z</time></trkpt><trkpt lat="44.160933675923225" lon="10.41465274627827"><ele>748.0</ele><time>2026-04-25T15:55:26.999Z</time></trkpt><trkpt lat="44.160923822566986" lon="10.41481606427725"><ele>748.0</ele><time>2026-04-25T15:55:27.999Z</time></trkpt><trkpt lat="44.16099982642515" lon="10.415017968887067"><ele>748.0</ele><time>2026-04-25T15:55:28.999Z</time></trkpt><trkpt lat="44.16106754246796" lon="10.415228586381975"><ele>748.0</ele><time>2026-04-25T15:55:29.999Z</time></trkpt><trkpt lat="44.161146956586705" lon="10.415435064436165"><ele>748.0</ele><time>2026-04-25T15:55:30.999Z</time></trkpt><trkpt lat="44.16123247232111" lon="10.415610273636098"><ele>751.3333333333334</ele><time>2026-04-25T15:55:31.999Z</time></trkpt><trkpt lat="44.16133557739299" lon="10.41577985016989"><ele>754.6666666666666</ele><time>2026-04-25T15:55:32.999Z</time></trkpt><trkpt lat="44.16145001966357" lon="10.415936010555441"><ele>758.0</ele><time>2026-04-25T15:55:33.999Z</time></trkpt><trkpt lat="44.16158215256335" lon="10.416074350628543"><ele>758.0</ele><time>2026-04-25T15:55:34.999Z</time></trkpt><trkpt lat="44.161722137787386" lon="10.416182422066182"><ele>758.0</ele><time>2026-04-25T15:55:35.999Z</time></trkpt><trkpt lat="44.161855368473745" lon="10.416263546817087"><ele>758.0</ele><time>2026-04-25T15:55:36.999Z</time></trkpt><trkpt lat="44.16195057513102" lon="10.416322371254603"><ele>758.0</ele><time>2026-04-25T15:55:37.999Z</time></trkpt><trkpt lat="44.16200478245787" lon="10.416387407095236"><ele>753.2</ele><time>2026-04-25T15:55:38.999Z</time></trkpt><trkpt lat="44.16199484912933" lon="10.41654834429263"><ele>748.4</ele><time>2026-04-25T15:55:40.999Z</time></trkpt><trkpt lat="44.16192881052861" lon="10.416587954710057"><ele>743.6</ele><time>2026-04-25T15:55:41.999Z</time></trkpt><trkpt lat="44.16184735731156" lon="10.416557798251725"><ele>738.8000000000001</ele><time>2026-04-25T15:55:42.999Z</time></trkpt><trkpt lat="44.16174040439775" lon="10.41646993270538"><ele>734.0</ele><time>2026-04-25T15:55:43.999Z</time></trkpt><trkpt lat="44.16162077107632" lon="10.41638554086626"><ele>730.3333333333333</ele><time>2026-04-25T15:55:44.999Z</time></trkpt><trkpt lat="44.16150488380948" lon="10.416295762582582"><ele>726.6666666666666</ele><time>2026-04-25T15:55:45.999Z</time></trkpt><trkpt lat="44.16137214062136" lon="10.416190602018604"><ele>723.0</ele><time>2026-04-25T15:55:46.999Z</time></trkpt><trkpt lat="44.16124137386587" lon="10.416040220474093"><ele>723.0</ele><time>2026-04-25T15:55:47.999Z</time></trkpt><trkpt lat="44.16112554453861" lon="10.415850763622949"><ele>723.0</ele><time>2026-04-25T15:55:48.999Z</time></trkpt><trkpt lat="44.16100232013548" lon="10.415651141082984"><ele>723.0</ele><time>2026-04-25T15:55:49.999Z</time></trkpt><trkpt lat="44.160882084439926" lon="10.415452425682535"><ele>723.3333333333334</ele><time>2026-04-25T15:55:50.999Z</time></trkpt><trkpt lat="44.16074961045047" lon="10.415289450256518"><ele>723.6666666666667</ele><time>2026-04-25T15:55:51.999Z</time></trkpt><trkpt lat="44.160623988709716" lon="10.415147118574527"><ele>724.0</ele><time>2026-04-25T15:55:52.999Z</time></trkpt><trkpt lat="44.16051382460402" lon="10.415034552883627"><ele>724.0</ele><time>2026-04-25T15:55:53.999Z</time></trkpt><trkpt lat="44.16039765256943" lon="10.414990975737132"><ele>724.0</ele><time>2026-04-25T15:55:54.999Z</time></trkpt><trkpt lat="44.16026298831778" lon="10.415002994054944"><ele>724.0</ele><time>2026-04-25T15:55:55.999Z</time></trkpt><trkpt lat="44.16011535319271" lon="10.415045160710585"><ele>724.0</ele><time>2026-04-25T15:55:56.999Z</time></trkpt><trkpt lat="44.15994591817105" lon="10.415080845727486"><ele>719.25</ele><time>2026-04-25T15:55:57.999Z</time></trkpt><trkpt lat="44.15982081040492" lon="10.415091587132128"><ele>714.5</ele><time>2026-04-25T15:55:58.999Z</time></trkpt><trkpt lat="44.15969625093677" lon="10.415064261067643"><ele>709.75</ele><time>2026-04-25T15:55:59.999Z</time></trkpt><trkpt lat="44.15960499592632" lon="10.414967758463954"><ele>705.0</ele><time>2026-04-25T15:56:00.999Z</time></trkpt><trkpt lat="44.159532318960956" lon="10.414847754919277"><ele>705.0</ele><time>2026-04-25T15:56:01.999Z</time></trkpt><trkpt lat="44.15948852187712" lon="10.414688256161488"><ele>705.0</ele><time>2026-04-25T15:56:02.999Z</time></trkpt><trkpt lat="44.15948837363885" lon="10.414528625006259"><ele>705.0</ele><time>2026-04-25T15:56:03.999Z</time></trkpt><trkpt lat="44.15953981475159" lon="10.414379665550456"><ele>705.0</ele><time>2026-04-25T15:56:04.999Z</time></trkpt><trkpt lat="44.159619274303566" lon="10.41422584492592"><ele>704.6666666666666</ele><time>2026-04-25T15:56:05.999Z</time></trkpt><trkpt lat="44.15971710115141" lon="10.414066305573183"><ele>704.3333333333333</ele><time>2026-04-25T15:56:06.999Z</time></trkpt><trkpt lat="44.159784572833644" lon="10.413887651931805"><ele>704.0</ele><time>2026-04-25T15:56:07.999Z</time></trkpt><trkpt lat="44.159809191223914" lon="10.413660361924057"><ele>704.0</ele><time>2026-04-25T15:56:08.999Z</time></trkpt><trkpt lat="44.15981210726228" lon="10.413435035149963"><ele>704.0</ele><time>2026-04-25T15:56:09.999Z</time></trkpt><trkpt lat="44.15982692065091" lon="10.413238302921913"><ele>704.0</ele><time>2026-04-25T15:56:10.999Z</time></trkpt><trkpt lat="44.15987461866652" lon="10.413064313374358"><ele>704.0</ele><time>2026-04-25T15:56:11.999Z</time></trkpt><trkpt lat="44.15996269085169" lon="10.412904536935386"><ele>704.0</ele><time>2026-04-25T15:56:12.999Z</time></trkpt><trkpt lat="44.160074054014146" lon="10.412760438062262"><ele>704.0</ele><time>2026-04-25T15:56:13.999Z</time></trkpt><trkpt lat="44.160194557897924" lon="10.412648993216314"><ele>704.0</ele><time>2026-04-25T15:56:14.999Z</time></trkpt><trkpt lat="44.16031765394133" lon="10.412605923486717"><ele>704.0</ele><time>2026-04-25T15:56:15.999Z</time></trkpt><trkpt lat="44.160448655961204" lon="10.412632273474886"><ele>704.0</ele><time>2026-04-25T15:56:16.999Z</time></trkpt><trkpt lat="44.16058416365887" lon="10.412708732192446"><ele>704.0</ele><time>2026-04-25T15:56:17.999Z</time></trkpt><trkpt lat="44.160738003328866" lon="10.412754612613373"><ele>704.0</ele><time>2026-04-25T15:56:18.999Z</time></trkpt><trkpt lat="44.16092282193325" lon="10.412781727893789"><ele>705.0</ele><time>2026-04-25T15:56:19.999Z</time></trkpt><trkpt lat="44.161091170933624" lon="10.412744846579702"><ele>706.0</ele><time>2026-04-25T15:56:20.999Z</time></trkpt><trkpt lat="44.161229628670235" lon="10.412712981841135"><ele>707.0</ele><time>2026-04-25T15:56:21.999Z</time></trkpt><trkpt lat="44.16133857489169" lon="10.41264214681242"><ele>708.0</ele><time>2026-04-25T15:56:22.999Z</time></trkpt><trkpt lat="44.161410888266815" lon="10.412479586703578"><ele>708.0</ele><time>2026-04-25T15:56:23.999Z</time></trkpt><trkpt lat="44.16148553483221" lon="10.412300549607519"><ele>708.0</ele><time>2026-04-25T15:56:24.999Z</time></trkpt><trkpt lat="44.161562190866" lon="10.412104924777204"><ele>708.0</ele><time>2026-04-25T15:56:25.999Z</time></trkpt><trkpt lat="44.1616291163877" lon="10.411931974888573"><ele>708.0</ele><time>2026-04-25T15:56:26.999Z</time></trkpt><trkpt lat="44.16169915051172" lon="10.411802861902194"><ele>704.0</ele><time>2026-04-25T15:56:27.999Z</time></trkpt><trkpt lat="44.16174446065345" lon="10.411698063739053"><ele>700.0</ele><time>2026-04-25T15:56:28.999Z</time></trkpt><trkpt lat="44.16173856363419" lon="10.411595384030269"><ele>696.0</ele><time>2026-04-25T15:56:29.999Z</time></trkpt><trkpt lat="44.16161959423157" lon="10.411523235552218"><ele>692.0</ele><time>2026-04-25T15:56:31.999Z</time></trkpt><trkpt lat="44.161547192143026" lon="10.41159855945416"><ele>688.0</ele><time>2026-04-25T15:56:32.999Z</time></trkpt><trkpt lat="44.161496913393314" lon="10.411728038982668"><ele>685.5</ele><time>2026-04-25T15:56:33.999Z</time></trkpt><trkpt lat="44.16143827294696" lon="10.411874809512893"><ele>683.0</ele><time>2026-04-25T15:56:34.999Z</time></trkpt><trkpt lat="44.16138301960361" lon="10.412013573598252"><ele>680.5</ele><time>2026-04-25T15:56:35.999Z</time></trkpt><trkpt lat="44.161319039955984" lon="10.412153560092515"><ele>678.0</ele><time>2026-04-25T15:56:36.999Z</time></trkpt><trkpt lat="44.16126942000064" lon="10.412281484430414"><ele>678.0</ele><time>2026-04-25T15:56:37.999Z</time></trkpt><trkpt lat="44.16118665621168" lon="10.412328413511782"><ele>678.0</ele><time>2026-04-25T15:56:38.999Z</time></trkpt><trkpt lat="44.1610806751734" lon="10.412316709826419"><ele>678.0</ele><time>2026-04-25T15:56:39.999Z</time></trkpt><trkpt lat="44.16095798085413" lon="10.412232877904948"><ele>678.0</ele><time>2026-04-25T15:56:40.999Z</time></trkpt><trkpt lat="44.16082282086737" lon="10.412106852044328"><ele>678.0</ele><time>2026-04-25T15:56:41.999Z</time></trkpt><trkpt lat="44.16071292679256" lon="10.412012843283827"><ele>678.0</ele><time>2026-04-25T15:56:43.001Z</time></trkpt><trkpt lat="44.16057952278435" lon="10.411902084426437"><ele>678.0</ele><time>2026-04-25T15:56:44.001Z</time></trkpt><trkpt lat="44.16045029225313" lon="10.411798964399168"><ele>678.0</ele><time>2026-04-25T15:56:45.001Z</time></trkpt><trkpt lat="44.160317740650804" lon="10.411760994208025"><ele>677.6666666666666</ele><time>2026-04-25T15:56:46.001Z</time></trkpt><trkpt lat="44.16016014083567" lon="10.411782598728474"><ele>677.3333333333333</ele><time>2026-04-25T15:56:47.001Z</time></trkpt><trkpt lat="44.15999863606471" lon="10.411801576237472"><ele>677.0</ele><time>2026-04-25T15:56:48.001Z</time></trkpt><trkpt lat="44.15984202924446" lon="10.411788807520288"><ele>677.0</ele><time>2026-04-25T15:56:49.001Z</time></trkpt><trkpt lat="44.159690572711504" lon="10.4117148643108"><ele>677.0</ele><time>2026-04-25T15:56:50.001Z</time></trkpt><trkpt lat="44.15955702889074" lon="10.411601987052777"><ele>677.0</ele><time>2026-04-25T15:56:51.001Z</time></trkpt><trkpt lat="44.15943649335744" lon="10.411541830293368"><ele>677.0</ele><time>2026-04-25T15:56:52.001Z</time></trkpt><trkpt lat="44.15930712763252" lon="10.411538070296093"><ele>677.0</ele><time>2026-04-25T15:56:53.001Z</time></trkpt><trkpt lat="44.159174784348686" lon="10.411620542535367"><ele>677.0</ele><time>2026-04-25T15:56:54.001Z</time></trkpt><trkpt lat="44.159032451583016" lon="10.411763272828585"><ele>677.0</ele><time>2026-04-25T15:56:55.001Z</time></trkpt><trkpt lat="44.158891612412354" lon="10.411906393612583"><ele>673.6666666666666</ele><time>2026-04-25T15:56:56Z</time></trkpt><trkpt lat="44.15873228164702" lon="10.412066985016393"><ele>670.3333333333334</ele><time>2026-04-25T15:56:57Z</time></trkpt><trkpt lat="44.158615457484785" lon="10.412269899335966"><ele>667.0</ele><time>2026-04-25T15:56:58Z</time></trkpt><trkpt lat="44.15853117829734" lon="10.41251107063225"><ele>667.0</ele><time>2026-04-25T15:56:59Z</time></trkpt><trkpt lat="44.15841419630337" lon="10.412745001778424"><ele>667.0</ele><time>2026-04-25T15:57:00Z</time></trkpt><trkpt lat="44.15828156066368" lon="10.412889131784361"><ele>667.0</ele><time>2026-04-25T15:57:01Z</time></trkpt><trkpt lat="44.15816133168911" lon="10.413014690185284"><ele>667.5</ele><time>2026-04-25T15:57:02Z</time></trkpt><trkpt lat="44.15809325675418" lon="10.413187777950492"><ele>668.0</ele><time>2026-04-25T15:57:03Z</time></trkpt><trkpt lat="44.15806334010719" lon="10.41335953342317"><ele>668.5</ele><time>2026-04-25T15:57:04Z</time></trkpt><trkpt lat="44.15801048920386" lon="10.413474423958633"><ele>669.0</ele><time>2026-04-25T15:57:05Z</time></trkpt><trkpt lat="44.15792730915041" lon="10.413493037330195"><ele>669.0</ele><time>2026-04-25T15:57:06Z</time></trkpt><trkpt lat="44.15778826828565" lon="10.41344372254217"><ele>669.0</ele><time>2026-04-25T15:57:07Z</time></trkpt><trkpt lat="44.15763045648014" lon="10.41334289901287"><ele>669.0</ele><time>2026-04-25T15:57:08Z</time></trkpt><trkpt lat="44.157450765519656" lon="10.413287651764076"><ele>668.0</ele><time>2026-04-25T15:57:09Z</time></trkpt><trkpt lat="44.15726535347762" lon="10.413252560027399"><ele>667.0</ele><time>2026-04-25T15:57:10Z</time></trkpt><trkpt lat="44.15706477275611" lon="10.413227839589334"><ele>666.0</ele><time>2026-04-25T15:57:11Z</time></trkpt><trkpt lat="44.15684931555879" lon="10.413203877159216"><ele>666.0</ele><time>2026-04-25T15:57:12Z</time></trkpt><trkpt lat="44.15662933439061" lon="10.413173116772052"><ele>666.0</ele><time>2026-04-25T15:57:13Z</time></trkpt><trkpt lat="44.156423142616724" lon="10.41313987220523"><ele>666.0</ele><time>2026-04-25T15:57:14Z</time></trkpt><trkpt lat="44.15622865560753" lon="10.413076059175243"><ele>664.6666666666666</ele><time>2026-04-25T15:57:15Z</time></trkpt><trkpt lat="44.156025956441454" lon="10.413052070338487"><ele>663.3333333333333</ele><time>2026-04-25T15:57:16Z</time></trkpt><trkpt lat="44.15583147694708" lon="10.413035915195012"><ele>662.0</ele><time>2026-04-25T15:57:17Z</time></trkpt><trkpt lat="44.15564929585526" lon="10.413059849801826"><ele>657.5</ele><time>2026-04-25T15:57:18Z</time></trkpt><trkpt lat="44.15548491455442" lon="10.41301254145325"><ele>653.0</ele><time>2026-04-25T15:57:19Z</time></trkpt><trkpt lat="44.15534690128342" lon="10.412933268009983"><ele>648.5</ele><time>2026-04-25T15:57:20Z</time></trkpt><trkpt lat="44.155225157146994" lon="10.412890064594345"><ele>644.0</ele><time>2026-04-25T15:57:21Z</time></trkpt><trkpt lat="44.155095025645096" lon="10.412934364975875"><ele>644.0</ele><time>2026-04-25T15:57:22Z</time></trkpt><trkpt lat="44.15494929384893" lon="10.413052836579048"><ele>644.0</ele><time>2026-04-25T15:57:23Z</time></trkpt><trkpt lat="44.15479578664188" lon="10.413151979557943"><ele>644.0</ele><time>2026-04-25T15:57:24Z</time></trkpt><trkpt lat="44.15468004364293" lon="10.413253178037792"><ele>639.5</ele><time>2026-04-25T15:57:25Z</time></trkpt><trkpt lat="44.154612535574266" lon="10.413380509706744"><ele>635.0</ele><time>2026-04-25T15:57:26Z</time></trkpt><trkpt lat="44.15458242035599" lon="10.413572274594642"><ele>630.5</ele><time>2026-04-25T15:57:27Z</time></trkpt><trkpt lat="44.15458022311774" lon="10.413814715294453"><ele>626.0</ele><time>2026-04-25T15:57:28Z</time></trkpt><trkpt lat="44.154528875888424" lon="10.414004906999846"><ele>626.0</ele><time>2026-04-25T15:57:29Z</time></trkpt><trkpt lat="44.15441931843225" lon="10.414151074888725"><ele>626.0</ele><time>2026-04-25T15:57:30Z</time></trkpt><trkpt lat="44.15426947387143" lon="10.414276586212717"><ele>626.0</ele><time>2026-04-25T15:57:31Z</time></trkpt><trkpt lat="44.15408729242149" lon="10.414380176349894"><ele>623.3333333333333</ele><time>2026-04-25T15:57:32Z</time></trkpt><trkpt lat="44.1539178850527" lon="10.41450030160893"><ele>620.6666666666666</ele><time>2026-04-25T15:57:33Z</time></trkpt><trkpt lat="44.15377429791743" lon="10.414608703704438"><ele>618.0</ele><time>2026-04-25T15:57:34Z</time></trkpt><trkpt lat="44.15367154999543" lon="10.414694228766857"><ele>618.0</ele><time>2026-04-25T15:57:35Z</time></trkpt><trkpt lat="44.153600430200875" lon="10.414732750725289"><ele>618.0</ele><time>2026-04-25T15:57:36Z</time></trkpt><trkpt lat="44.15353976445111" lon="10.414651005271681"><ele>618.0</ele><time>2026-04-25T15:57:38Z</time></trkpt><trkpt lat="44.153565409009815" lon="10.414552215515501"><ele>618.0</ele><time>2026-04-25T15:57:39Z</time></trkpt><trkpt lat="44.15365057251659" lon="10.414447133706489"><ele>618.0</ele><time>2026-04-25T15:57:40Z</time></trkpt><trkpt lat="44.153767154799695" lon="10.414343692238724"><ele>620.0</ele><time>2026-04-25T15:57:41Z</time></trkpt><trkpt lat="44.15388204905619" lon="10.414228186325918"><ele>622.0</ele><time>2026-04-25T15:57:42Z</time></trkpt><trkpt lat="44.153995832884604" lon="10.41410423117177"><ele>624.0</ele><time>2026-04-25T15:57:43Z</time></trkpt><trkpt lat="44.15412016712516" lon="10.413976478147486"><ele>626.0</ele><time>2026-04-25T15:57:44Z</time></trkpt><trkpt lat="44.15422384356444" lon="10.413845347745921"><ele>621.3333333333333</ele><time>2026-04-25T15:57:44.999Z</time></trkpt><trkpt lat="44.154288798218005" lon="10.413677170994076"><ele>616.6666666666666</ele><time>2026-04-25T15:57:45.999Z</time></trkpt><trkpt lat="44.15430846957626" lon="10.41346250638905"><ele>612.0</ele><time>2026-04-25T15:57:46.999Z</time></trkpt><trkpt lat="44.1543038909132" lon="10.413219143975898"><ele>612.0</ele><time>2026-04-25T15:57:47.999Z</time></trkpt><trkpt lat="44.15431795875382" lon="10.413008123483367"><ele>612.0</ele><time>2026-04-25T15:57:48.999Z</time></trkpt><trkpt lat="44.15438724713268" lon="10.412826621242772"><ele>612.0</ele><time>2026-04-25T15:57:49.999Z</time></trkpt><trkpt lat="44.15449855555866" lon="10.412646239938667"><ele>605.3333333333334</ele><time>2026-04-25T15:57:50.999Z</time></trkpt><trkpt lat="44.15462198440382" lon="10.41247088457355"><ele>598.6666666666667</ele><time>2026-04-25T15:57:51.999Z</time></trkpt><trkpt lat="44.15472971128862" lon="10.41227827350098"><ele>592.0</ele><time>2026-04-25T15:57:52.999Z</time></trkpt><trkpt lat="44.15483770473456" lon="10.412101146941806"><ele>591.25</ele><time>2026-04-25T15:57:53.999Z</time></trkpt><trkpt lat="44.15493594857036" lon="10.411959186135807"><ele>590.5</ele><time>2026-04-25T15:57:54.999Z</time></trkpt><trkpt lat="44.155059643700596" lon="10.411893734760465"><ele>589.75</ele><time>2026-04-25T15:57:55.999Z</time></trkpt><trkpt lat="44.15520026917997" lon="10.411868705259169"><ele>589.0</ele><time>2026-04-25T15:57:56.999Z</time></trkpt><trkpt lat="44.15536604457037" lon="10.411891400417321"><ele>589.0</ele><time>2026-04-25T15:57:57.999Z</time></trkpt><trkpt lat="44.15555598808416" lon="10.411909081899603"><ele>589.0</ele><time>2026-04-25T15:57:58.999Z</time></trkpt><trkpt lat="44.155744736718944" lon="10.411929040727328"><ele>589.0</ele><time>2026-04-25T15:57:59.999Z</time></trkpt><trkpt lat="44.155910057932374" lon="10.411943449297324"><ele>592.6666666666667</ele><time>2026-04-25T15:58:00.999Z</time></trkpt><trkpt lat="44.15605277724288" lon="10.411877265594281"><ele>596.3333333333334</ele><time>2026-04-25T15:58:01.999Z</time></trkpt><trkpt lat="44.15617343091874" lon="10.411729499605237"><ele>600.0</ele><time>2026-04-25T15:58:02.999Z</time></trkpt><trkpt lat="44.15631059240393" lon="10.411554144204324"><ele>600.0</ele><time>2026-04-25T15:58:03.999Z</time></trkpt><trkpt lat="44.156443935117984" lon="10.411359813109572"><ele>600.0</ele><time>2026-04-25T15:58:04.999Z</time></trkpt><trkpt lat="44.15657290395486" lon="10.411193588948361"><ele>600.0</ele><time>2026-04-25T15:58:05.999Z</time></trkpt><trkpt lat="44.15669097647992" lon="10.411039819044959"><ele>597.0</ele><time>2026-04-25T15:58:06.999Z</time></trkpt><trkpt lat="44.15679914111684" lon="10.410902256057254"><ele>594.0</ele><time>2026-04-25T15:58:07.999Z</time></trkpt><trkpt lat="44.15687454143545" lon="10.410800356386178"><ele>591.0</ele><time>2026-04-25T15:58:08.999Z</time></trkpt><trkpt lat="44.15690877658704" lon="10.410716022094249"><ele>588.0</ele><time>2026-04-25T15:58:09.999Z</time></trkpt><trkpt lat="44.15689620334287" lon="10.410626410242594"><ele>585.0</ele><time>2026-04-25T15:58:10.999Z</time></trkpt><trkpt lat="44.15684780750028" lon="10.410559223881883"><ele>585.0</ele><time>2026-04-25T15:58:11.999Z</time></trkpt><trkpt lat="44.1567853880803" lon="10.410531892758666"><ele>585.0</ele><time>2026-04-25T15:58:12.999Z</time></trkpt><trkpt lat="44.156695640779105" lon="10.410552621760162"><ele>585.0</ele><time>2026-04-25T15:58:14.999Z</time></trkpt><trkpt lat="44.15658811597066" lon="10.410653848309359"><ele>585.0</ele><time>2026-04-25T16:10:01.997Z</time></trkpt><trkpt lat="44.15647063457552" lon="10.410702196677086"><ele>585.0</ele><time>2026-04-25T16:10:03.997Z</time></trkpt><trkpt lat="44.156403534229945" lon="10.410724229446899"><ele>583.1666666666666</ele><time>2026-04-25T16:10:04.997Z</time></trkpt><trkpt lat="44.15633997395416" lon="10.410751423234734"><ele>581.3333333333334</ele><time>2026-04-25T16:10:05.997Z</time></trkpt><trkpt lat="44.15626355416369" lon="10.410797485861902"><ele>579.5</ele><time>2026-04-25T16:10:06.997Z</time></trkpt><trkpt lat="44.15619403493832" lon="10.410828963004514"><ele>577.6666666666667</ele><time>2026-04-25T16:10:07.997Z</time></trkpt><trkpt lat="44.15611057841962" lon="10.410839485991751"><ele>575.8333333333334</ele><time>2026-04-25T16:10:08.997Z</time></trkpt><trkpt lat="44.15602673861181" lon="10.410890061838163"><ele>574.0</ele><time>2026-04-25T16:10:09.997Z</time></trkpt><trkpt lat="44.155920914599214" lon="10.410900327240327"><ele>574.0</ele><time>2026-04-25T16:10:10.997Z</time></trkpt><trkpt lat="44.155814504325036" lon="10.410947586765701"><ele>574.0</ele><time>2026-04-25T16:10:11.997Z</time></trkpt><trkpt lat="44.15571059115173" lon="10.41097740049434"><ele>574.0</ele><time>2026-04-25T16:10:12.997Z</time></trkpt><trkpt lat="44.15560703031472" lon="10.411001512268847"><ele>574.0</ele><time>2026-04-25T16:10:13.997Z</time></trkpt><trkpt lat="44.155499605365094" lon="10.411030513221435"><ele>574.0</ele><time>2026-04-25T16:10:14.997Z</time></trkpt><trkpt lat="44.155390244775695" lon="10.41106681120511"><ele>572.25</ele><time>2026-04-25T16:10:15.997Z</time></trkpt><trkpt lat="44.1552734713512" lon="10.411068304658249"><ele>570.5</ele><time>2026-04-25T16:10:16.997Z</time></trkpt><trkpt lat="44.15514670946403" lon="10.411100579096859"><ele>568.75</ele><time>2026-04-25T16:10:17.997Z</time></trkpt><trkpt lat="44.15502096837856" lon="10.411108360838714"><ele>567.0</ele><time>2026-04-25T16:10:18.997Z</time></trkpt><trkpt lat="44.1548841963522" lon="10.411116100169455"><ele>565.75</ele><time>2026-04-25T16:10:19.997Z</time></trkpt><trkpt lat="44.154734404627845" lon="10.411117514221063"><ele>564.5</ele><time>2026-04-25T16:10:20.997Z</time></trkpt><trkpt lat="44.154589392896746" lon="10.411132417512809"><ele>563.25</ele><time>2026-04-25T16:10:21.997Z</time></trkpt><trkpt lat="44.154447024774676" lon="10.411145765284218"><ele>562.0</ele><time>2026-04-25T16:10:22.997Z</time></trkpt><trkpt lat="44.15429919492749" lon="10.41116237364"><ele>562.0</ele><time>2026-04-25T16:10:23.997Z</time></trkpt><trkpt lat="44.154161740836706" lon="10.41120398467896"><ele>562.0</ele><time>2026-04-25T16:10:24.997Z</time></trkpt><trkpt lat="44.15402688953702" lon="10.411229237711698"><ele>562.0</ele><time>2026-04-25T16:10:25.997Z</time></trkpt><trkpt lat="44.15389202751164" lon="10.411261037915336"><ele>562.0</ele><time>2026-04-25T16:10:26.997Z</time></trkpt><trkpt lat="44.153764312718" lon="10.411267001514926"><ele>558.75</ele><time>2026-04-25T16:10:27.997Z</time></trkpt><trkpt lat="44.153640663687696" lon="10.411300828572847"><ele>555.5</ele><time>2026-04-25T16:10:28.997Z</time></trkpt><trkpt lat="44.153512013948976" lon="10.41128702721033"><ele>552.25</ele><time>2026-04-25T16:10:29.997Z</time></trkpt><trkpt lat="44.153394008120195" lon="10.411251840177984"><ele>549.0</ele><time>2026-04-25T16:10:30.997Z</time></trkpt><trkpt lat="44.153264099384685" lon="10.411213610535057"><ele>547.0</ele><time>2026-04-25T16:10:31.997Z</time></trkpt><trkpt lat="44.1531316473717" lon="10.411161314780278"><ele>545.0</ele><time>2026-04-25T16:10:32.997Z</time></trkpt><trkpt lat="44.15300898784747" lon="10.411096122729843"><ele>543.0</ele><time>2026-04-25T16:10:33.997Z</time></trkpt><trkpt lat="44.15289467112857" lon="10.411037534488386"><ele>541.0</ele><time>2026-04-25T16:10:34.997Z</time></trkpt><trkpt lat="44.152780604256904" lon="10.410996059546049"><ele>541.0</ele><time>2026-04-25T16:10:35.997Z</time></trkpt><trkpt lat="44.15266397852805" lon="10.411012192604614"><ele>541.0</ele><time>2026-04-25T16:10:36.997Z</time></trkpt><trkpt lat="44.152545494016216" lon="10.411059380151263"><ele>541.0</ele><time>2026-04-25T16:10:37.997Z</time></trkpt><trkpt lat="44.15242924890196" lon="10.411126356202207"><ele>541.0</ele><time>2026-04-25T16:10:38.997Z</time></trkpt><trkpt lat="44.1523159424092" lon="10.41120464672336"><ele>540.75</ele><time>2026-04-25T16:10:39.997Z</time></trkpt><trkpt lat="44.15219973175791" lon="10.411281247121394"><ele>540.5</ele><time>2026-04-25T16:10:40.997Z</time></trkpt><trkpt lat="44.15208242121419" lon="10.411359943445161"><ele>540.25</ele><time>2026-04-25T16:10:41.997Z</time></trkpt><trkpt lat="44.151968766269825" lon="10.411443254658563"><ele>540.0</ele><time>2026-04-25T16:10:42.997Z</time></trkpt><trkpt lat="44.15185691406284" lon="10.41152113937497"><ele>540.0</ele><time>2026-04-25T16:10:43.997Z</time></trkpt><trkpt lat="44.151748497280494" lon="10.411581390715192"><ele>540.0</ele><time>2026-04-25T16:10:44.997Z</time></trkpt><trkpt lat="44.15164057167724" lon="10.411624779650657"><ele>540.0</ele><time>2026-04-25T16:10:45.997Z</time></trkpt><trkpt lat="44.15151893387543" lon="10.41164137075058"><ele>540.0</ele><time>2026-04-25T16:10:46.997Z</time></trkpt><trkpt lat="44.151386084117505" lon="10.41165260619522"><ele>537.75</ele><time>2026-04-25T16:10:47.997Z</time></trkpt><trkpt lat="44.1512556995609" lon="10.411674741716828"><ele>535.5</ele><time>2026-04-25T16:10:48.997Z</time></trkpt><trkpt lat="44.15112985041845" lon="10.411697936776601"><ele>533.25</ele><time>2026-04-25T16:10:49.997Z</time></trkpt><trkpt lat="44.151015788742974" lon="10.411711455113526"><ele>531.0</ele><time>2026-04-25T16:10:50.997Z</time></trkpt><trkpt lat="44.15090204127074" lon="10.411733167297164"><ele>531.0</ele><time>2026-04-25T16:10:51.997Z</time></trkpt><trkpt lat="44.15079259231256" lon="10.411751815479038"><ele>531.0</ele><time>2026-04-25T16:10:52.997Z</time></trkpt><trkpt lat="44.15068578522408" lon="10.411768773343711"><ele>531.0</ele><time>2026-04-25T16:10:53.997Z</time></trkpt><trkpt lat="44.150583809057004" lon="10.411773798472865"><ele>531.0</ele><time>2026-04-25T16:10:54.997Z</time></trkpt><trkpt lat="44.15048512660213" lon="10.411743822559355"><ele>531.0</ele><time>2026-04-25T16:10:55.997Z</time></trkpt><trkpt lat="44.15039033992843" lon="10.41169728004468"><ele>530.8</ele><time>2026-04-25T16:10:56.997Z</time></trkpt><trkpt lat="44.1502959016328" lon="10.411645324898716"><ele>530.6</ele><time>2026-04-25T16:10:57.997Z</time></trkpt><trkpt lat="44.1502053387611" lon="10.411595681280883"><ele>530.4</ele><time>2026-04-25T16:10:58.997Z</time></trkpt><trkpt lat="44.150110347846606" lon="10.411552522053917"><ele>530.2</ele><time>2026-04-25T16:10:59.997Z</time></trkpt><trkpt lat="44.150011864592436" lon="10.41150227567084"><ele>530.0</ele><time>2026-04-25T16:11:00.997Z</time></trkpt><trkpt lat="44.14990793403173" lon="10.411453198487976"><ele>528.8</ele><time>2026-04-25T16:11:01.997Z</time></trkpt><trkpt lat="44.14980512957538" lon="10.411405633506401"><ele>527.6</ele><time>2026-04-25T16:11:02.997Z</time></trkpt><trkpt lat="44.149698347920946" lon="10.411355220390309"><ele>526.4</ele><time>2026-04-25T16:11:03.997Z</time></trkpt><trkpt lat="44.14959426525249" lon="10.411296542184662"><ele>525.2</ele><time>2026-04-25T16:11:04.997Z</time></trkpt><trkpt lat="44.149500076952464" lon="10.411233867862164"><ele>524.0</ele><time>2026-04-25T16:11:05.997Z</time></trkpt><trkpt lat="44.14940679919055" lon="10.411175892306558"><ele>524.1666666666666</ele><time>2026-04-25T16:11:06.997Z</time></trkpt><trkpt lat="44.149327038519246" lon="10.411130791568677"><ele>524.3333333333333</ele><time>2026-04-25T16:11:07.997Z</time></trkpt><trkpt lat="44.14924833197743" lon="10.411104084904164"><ele>524.5</ele><time>2026-04-25T16:11:08.997Z</time></trkpt><trkpt lat="44.14918511094744" lon="10.411116063499563"><ele>524.6666666666666</ele><time>2026-04-25T16:11:09.997Z</time></trkpt><trkpt lat="44.14912515228253" lon="10.411147360570608"><ele>524.8333333333334</ele><time>2026-04-25T16:11:10.997Z</time></trkpt><trkpt lat="44.149023665473024" lon="10.411237262040787"><ele>525.0</ele><time>2026-04-25T16:11:12.997Z</time></trkpt><trkpt lat="44.14896524070235" lon="10.411293491850481"><ele>525.0</ele><time>2026-04-25T16:11:13.997Z</time></trkpt><trkpt lat="44.148912186263416" lon="10.41135246147185"><ele>525.0</ele><time>2026-04-25T16:11:14.997Z</time></trkpt><trkpt lat="44.148793600935356" lon="10.411385266296666"><ele>525.0</ele><time>2026-04-25T16:11:16.997Z</time></trkpt><trkpt lat="44.14868987363374" lon="10.411336704800833"><ele>525.0</ele><time>2026-04-25T16:11:18.997Z</time></trkpt><trkpt lat="44.148599579610384" lon="10.411220196978347"><ele>525.0</ele><time>2026-04-25T16:11:20.996Z</time></trkpt><trkpt lat="44.148532991867526" lon="10.41107302741386"><ele>525.0</ele><time>2026-04-25T16:11:22.996Z</time></trkpt><trkpt lat="44.14850060335458" lon="10.410988789396177"><ele>525.0</ele><time>2026-04-25T16:11:23.996Z</time></trkpt><trkpt lat="44.14846403117169" lon="10.410894998304581"><ele>525.0</ele><time>2026-04-25T16:11:24.996Z</time></trkpt><trkpt lat="44.14843091459489" lon="10.410791696640382"><ele>525.0</ele><time>2026-04-25T16:11:25.996Z</time></trkpt><trkpt lat="44.148396395910886" lon="10.410684393710396"><ele>525.0</ele><time>2026-04-25T16:11:26.996Z</time></trkpt><trkpt lat="44.148353978066574" lon="10.410584208724446"><ele>525.0</ele><time>2026-04-25T16:11:27.996Z</time></trkpt><trkpt lat="44.14832241955102" lon="10.410491486720996"><ele>525.6666666666666</ele><time>2026-04-25T16:11:28.996Z</time></trkpt><trkpt lat="44.14829165084182" lon="10.410405812491444"><ele>526.3333333333334</ele><time>2026-04-25T16:11:29.996Z</time></trkpt><trkpt lat="44.148287909006086" lon="10.410316058847313"><ele>527.0</ele><time>2026-04-25T16:11:30.996Z</time></trkpt><trkpt lat="44.148238805551564" lon="10.41016217944423"><ele>527.6666666666667</ele><time>2026-04-25T16:11:32.996Z</time></trkpt><trkpt lat="44.148216217652205" lon="10.410066361056359"><ele>528.3333333333334</ele><time>2026-04-25T16:11:33.996Z</time></trkpt><trkpt lat="44.148207891129495" lon="10.409966741459787"><ele>529.0</ele><time>2026-04-25T16:11:34.996Z</time></trkpt><trkpt lat="44.148178405161836" lon="10.409870283979018"><ele>525.6666666666667</ele><time>2026-04-25T16:11:35.996Z</time></trkpt><trkpt lat="44.148166840721466" lon="10.409761046470322"><ele>522.3333333333334</ele><time>2026-04-25T16:11:36.996Z</time></trkpt><trkpt lat="44.14814661438317" lon="10.409647924580291"><ele>519.0</ele><time>2026-04-25T16:11:37.996Z</time></trkpt><trkpt lat="44.14811613375436" lon="10.40953716724674"><ele>515.6666666666666</ele><time>2026-04-25T16:11:38.996Z</time></trkpt><trkpt lat="44.148107250189426" lon="10.409409305633991"><ele>512.3333333333333</ele><time>2026-04-25T16:11:39.996Z</time></trkpt><trkpt lat="44.148097663667066" lon="10.409284181197767"><ele>509.0</ele><time>2026-04-25T16:11:40.996Z</time></trkpt><trkpt lat="44.14808210005681" lon="10.409159864778198"><ele>509.0</ele><time>2026-04-25T16:11:41.996Z</time></trkpt><trkpt lat="44.148073799919565" lon="10.409026051891637"><ele>509.0</ele><time>2026-04-25T16:11:42.996Z</time></trkpt><trkpt lat="44.14806574170699" lon="10.408890982929334"><ele>509.0</ele><time>2026-04-25T16:11:43.996Z</time></trkpt><trkpt lat="44.14805430037085" lon="10.408756165573882"><ele>509.0</ele><time>2026-04-25T16:11:44.996Z</time></trkpt><trkpt lat="44.148039661588875" lon="10.408616594077607"><ele>509.0</ele><time>2026-04-25T16:11:45.996Z</time></trkpt><trkpt lat="44.14804858682858" lon="10.408467226421122"><ele>508.8333333333333</ele><time>2026-04-25T16:11:46.996Z</time></trkpt><trkpt lat="44.14804527743765" lon="10.408329128830546"><ele>508.66666666666663</ele><time>2026-04-25T16:11:47.996Z</time></trkpt><trkpt lat="44.14803429256041" lon="10.408198578662233"><ele>508.5</ele><time>2026-04-25T16:11:48.996Z</time></trkpt><trkpt lat="44.14802280571463" lon="10.408069645837916"><ele>508.33333333333337</ele><time>2026-04-25T16:11:49.996Z</time></trkpt><trkpt lat="44.14800280109658" lon="10.407952999179969"><ele>508.1666666666667</ele><time>2026-04-25T16:11:50.996Z</time></trkpt><trkpt lat="44.147970429024376" lon="10.40786298603461"><ele>508.0</ele><time>2026-04-25T16:11:51.996Z</time></trkpt><trkpt lat="44.147914113672854" lon="10.40780832925799"><ele>508.0</ele><time>2026-04-25T16:11:52.996Z</time></trkpt><trkpt lat="44.14783762346253" lon="10.407785330249395"><ele>507.99999999999994</ele><time>2026-04-25T16:11:53.996Z</time></trkpt><trkpt lat="44.1477463513606" lon="10.407752521343163"><ele>507.99999999999994</ele><time>2026-04-25T16:11:54.996Z</time></trkpt><trkpt lat="44.14764600208208" lon="10.40772840052811"><ele>508.0</ele><time>2026-04-25T16:11:55.996Z</time></trkpt><trkpt lat="44.147549502047745" lon="10.407725064052588"><ele>508.0</ele><time>2026-04-25T16:11:56.996Z</time></trkpt><trkpt lat="44.14746440428263" lon="10.407713785030241"><ele>506.4</ele><time>2026-04-25T16:11:57.996Z</time></trkpt><trkpt lat="44.14737696779993" lon="10.407726190762471"><ele>504.79999999999995</ele><time>2026-04-25T16:11:58.996Z</time></trkpt><trkpt lat="44.14729393245096" lon="10.407771276401917"><ele>503.2</ele><time>2026-04-25T16:11:59.996Z</time></trkpt><trkpt lat="44.14723334193507" lon="10.407826692318901"><ele>501.6</ele><time>2026-04-25T16:12:00.996Z</time></trkpt><trkpt lat="44.1471711702341" lon="10.407948346554255"><ele>500.0</ele><time>2026-04-25T16:12:02.996Z</time></trkpt><trkpt lat="44.14720518251842" lon="10.4080967949797"><ele>500.0</ele><time>2026-04-25T16:12:04.996Z</time></trkpt><trkpt lat="44.14725676358878" lon="10.408179267931851"><ele>500.0</ele><time>2026-04-25T16:12:05.996Z</time></trkpt><trkpt lat="44.14733513323168" lon="10.408259468707222"><ele>500.0</ele><time>2026-04-25T16:12:06.996Z</time></trkpt><trkpt lat="44.14739054777401" lon="10.408371607886794"><ele>500.0</ele><time>2026-04-25T16:12:07.996Z</time></trkpt><trkpt lat="44.147432241236835" lon="10.408502418166792"><ele>500.0</ele><time>2026-04-25T16:12:08.996Z</time></trkpt><trkpt lat="44.14746634614867" lon="10.408641222989106"><ele>502.25</ele><time>2026-04-25T16:12:09.996Z</time></trkpt><trkpt lat="44.14749500282216" lon="10.408790583290006"><ele>504.5</ele><time>2026-04-25T16:12:10.996Z</time></trkpt><trkpt lat="44.147512587933385" lon="10.408946611170629"><ele>506.75</ele><time>2026-04-25T16:12:11.996Z</time></trkpt><trkpt lat="44.147532151790266" lon="10.409106403447055"><ele>509.0</ele><time>2026-04-25T16:12:12.996Z</time></trkpt><trkpt lat="44.1475593880042" lon="10.409275928199355"><ele>509.0</ele><time>2026-04-25T16:12:13.996Z</time></trkpt><trkpt lat="44.14758554484143" lon="10.409455070240679"><ele>509.0</ele><time>2026-04-25T16:12:14.996Z</time></trkpt><trkpt lat="44.147608926238576" lon="10.409649263464315"><ele>509.0</ele><time>2026-04-25T16:12:15.996Z</time></trkpt><trkpt lat="44.14764088683898" lon="10.409846736225534"><ele>509.0</ele><time>2026-04-25T16:12:16.996Z</time></trkpt><trkpt lat="44.1476642439728" lon="10.41005069936852"><ele>506.5</ele><time>2026-04-25T16:12:17.996Z</time></trkpt><trkpt lat="44.14769432358828" lon="10.410250758564423"><ele>504.0</ele><time>2026-04-25T16:12:18.996Z</time></trkpt><trkpt lat="44.14772087336141" lon="10.410439233028416"><ele>501.5</ele><time>2026-04-25T16:12:19.996Z</time></trkpt><trkpt lat="44.147748262079325" lon="10.410619449606353"><ele>499.0</ele><time>2026-04-25T16:12:20.996Z</time></trkpt><trkpt lat="44.14777859773117" lon="10.410801146870506"><ele>497.75</ele><time>2026-04-25T16:12:21.996Z</time></trkpt><trkpt lat="44.14781746036331" lon="10.410987179107929"><ele>496.5</ele><time>2026-04-25T16:12:22.996Z</time></trkpt><trkpt lat="44.14785573980473" lon="10.41117562708936"><ele>495.25</ele><time>2026-04-25T16:12:23.996Z</time></trkpt><trkpt lat="44.14788748833332" lon="10.411355309050865"><ele>494.0</ele><time>2026-04-25T16:12:24.996Z</time></trkpt><trkpt lat="44.14791519285757" lon="10.411537395358419"><ele>493.25</ele><time>2026-04-25T16:12:25.996Z</time></trkpt><trkpt lat="44.147944209452355" lon="10.411720470737665"><ele>492.5</ele><time>2026-04-25T16:12:26.996Z</time></trkpt><trkpt lat="44.147981309815236" lon="10.411897149994491"><ele>491.75</ele><time>2026-04-25T16:12:27.996Z</time></trkpt><trkpt lat="44.14801820327242" lon="10.412082691022478"><ele>491.0</ele><time>2026-04-25T16:12:28.996Z</time></trkpt><trkpt lat="44.14804957672403" lon="10.412266281338574"><ele>491.0</ele><time>2026-04-25T16:12:29.996Z</time></trkpt><trkpt lat="44.14808336407629" lon="10.412448999444653"><ele>491.0</ele><time>2026-04-25T16:12:30.996Z</time></trkpt><trkpt lat="44.14811595641431" lon="10.412621223673815"><ele>491.0</ele><time>2026-04-25T16:12:31.996Z</time></trkpt><trkpt lat="44.14814211418692" lon="10.412770628466552"><ele>491.0</ele><time>2026-04-25T16:12:32.996Z</time></trkpt><trkpt lat="44.14816713235769" lon="10.412885594357014"><ele>491.0</ele><time>2026-04-25T16:12:33.996Z</time></trkpt><trkpt lat="44.14818889699992" lon="10.41302196912654"><ele>491.0</ele><time>2026-04-25T16:12:35.996Z</time></trkpt><trkpt lat="44.14814463648866" lon="10.413114135049263"><ele>491.0</ele><time>2026-04-25T16:12:37.996Z</time></trkpt><trkpt lat="44.148044632462934" lon="10.413050272641005"><ele>491.0</ele><time>2026-04-25T16:12:39.996Z</time></trkpt><trkpt lat="44.14799673139188" lon="10.412971154630316"><ele>491.0</ele><time>2026-04-25T16:12:40.996Z</time></trkpt><trkpt lat="44.147937620818105" lon="10.412881014993925"><ele>491.0</ele><time>2026-04-25T16:12:41.995Z</time></trkpt><trkpt lat="44.14787030242465" lon="10.41278640387113"><ele>491.0</ele><time>2026-04-25T16:12:42.995Z</time></trkpt><trkpt lat="44.14779415211538" lon="10.412678142317583"><ele>491.0</ele><time>2026-04-25T16:12:43.995Z</time></trkpt><trkpt lat="44.147704322862204" lon="10.412560680338945"><ele>491.0</ele><time>2026-04-25T16:12:44.995Z</time></trkpt><trkpt lat="44.14760932038296" lon="10.412395197356238"><ele>491.0</ele><time>2026-04-25T16:12:45.995Z</time></trkpt><trkpt lat="44.14748958140536" lon="10.412221720149779"><ele>491.0</ele><time>2026-04-25T16:12:46.995Z</time></trkpt><trkpt lat="44.14735386723448" lon="10.412047564763323"><ele>491.0</ele><time>2026-04-25T16:12:47.995Z</time></trkpt><trkpt lat="44.147230965353764" lon="10.411838630111355"><ele>489.66666666666663</ele><time>2026-04-25T16:12:48.995Z</time></trkpt><trkpt lat="44.147097503569704" lon="10.411645877318476"><ele>488.33333333333337</ele><time>2026-04-25T16:12:49.995Z</time></trkpt><trkpt lat="44.146959626006385" lon="10.411449601672269"><ele>487.0</ele><time>2026-04-25T16:12:50.995Z</time></trkpt><trkpt lat="44.14682895246295" lon="10.411261978302562"><ele>484.6666666666667</ele><time>2026-04-25T16:12:51.995Z</time></trkpt><trkpt lat="44.14670980251701" lon="10.411083506783546"><ele>482.33333333333337</ele><time>2026-04-25T16:12:52.995Z</time></trkpt><trkpt lat="44.14658377825578" lon="10.410933523598933"><ele>480.0</ele><time>2026-04-25T16:12:53.995Z</time></trkpt><trkpt lat="44.14643414379267" lon="10.410839800479048"><ele>478.33333333333337</ele><time>2026-04-25T16:12:54.995Z</time></trkpt><trkpt lat="44.14626638083384" lon="10.410797706113849"><ele>476.6666666666667</ele><time>2026-04-25T16:12:55.995Z</time></trkpt><trkpt lat="44.14609200482742" lon="10.41072698935399"><ele>475.0</ele><time>2026-04-25T16:12:56.995Z</time></trkpt><trkpt lat="44.145908910747266" lon="10.410687747952087"><ele>475.0</ele><time>2026-04-25T16:12:57.995Z</time></trkpt><trkpt lat="44.14572622824574" lon="10.410616933870374"><ele>475.0</ele><time>2026-04-25T16:12:58.995Z</time></trkpt><trkpt lat="44.14553831250978" lon="10.410553353154485"><ele>475.0</ele><time>2026-04-25T16:12:59.995Z</time></trkpt><trkpt lat="44.145347378681286" lon="10.410492625517234"><ele>473.6666666666667</ele><time>2026-04-25T16:13:00.995Z</time></trkpt><trkpt lat="44.145154769288915" lon="10.41042887626485"><ele>472.33333333333337</ele><time>2026-04-25T16:13:01.995Z</time></trkpt><trkpt lat="44.1449636295451" lon="10.410338430961962"><ele>471.0</ele><time>2026-04-25T16:13:02.995Z</time></trkpt><trkpt lat="44.14477493515462" lon="10.410273300654255"><ele>468.66666666666663</ele><time>2026-04-25T16:13:03.995Z</time></trkpt><trkpt lat="44.14458823445894" lon="10.410205795564078"><ele>466.3333333333333</ele><time>2026-04-25T16:13:04.995Z</time></trkpt><trkpt lat="44.144414189930735" lon="10.410143059019656"><ele>464.0</ele><time>2026-04-25T16:13:05.995Z</time></trkpt><trkpt lat="44.14424702626051" lon="10.41008675492762"><ele>464.0</ele><time>2026-04-25T16:13:06.995Z</time></trkpt><trkpt lat="44.144079206009835" lon="10.410059884111302"><ele>464.0</ele><time>2026-04-25T16:13:07.995Z</time></trkpt><trkpt lat="44.14393134704929" lon="10.410041602886476"><ele>464.0</ele><time>2026-04-25T16:13:08.995Z</time></trkpt><trkpt lat="44.14377721501054" lon="10.410112510645643"><ele>460.5</ele><time>2026-04-25T16:13:09.995Z</time></trkpt><trkpt lat="44.14361999448251" lon="10.41020011443902"><ele>457.0</ele><time>2026-04-25T16:13:10.995Z</time></trkpt><trkpt lat="44.14348933680142" lon="10.410269701394201"><ele>453.5</ele><time>2026-04-25T16:13:11.995Z</time></trkpt><trkpt lat="44.14339739438363" lon="10.410350869641515"><ele>450.0</ele><time>2026-04-25T16:13:12.995Z</time></trkpt><trkpt lat="44.14335078137721" lon="10.410458077267272"><ele>449.25</ele><time>2026-04-25T16:13:13.995Z</time></trkpt><trkpt lat="44.14335932775052" lon="10.410584665114303"><ele>448.5</ele><time>2026-04-25T16:13:14.995Z</time></trkpt><trkpt lat="44.14342596203907" lon="10.41069193260566"><ele>447.75</ele><time>2026-04-25T16:13:15.995Z</time></trkpt><trkpt lat="44.143530693898526" lon="10.410789852334974"><ele>447.0</ele><time>2026-04-25T16:13:16.995Z</time></trkpt><trkpt lat="44.14364196806169" lon="10.410903784210035"><ele>447.0</ele><time>2026-04-25T16:13:17.995Z</time></trkpt><trkpt lat="44.14376775549165" lon="10.411013988800454"><ele>447.0</ele><time>2026-04-25T16:13:18.995Z</time></trkpt><trkpt lat="44.14387602058058" lon="10.411133209664797"><ele>447.0</ele><time>2026-04-25T16:13:19.995Z</time></trkpt><trkpt lat="44.14395825742528" lon="10.411274695114221"><ele>447.0</ele><time>2026-04-25T16:13:20.995Z</time></trkpt><trkpt lat="44.14398253873551" lon="10.41145244116047"><ele>445.25</ele><time>2026-04-25T16:13:21.995Z</time></trkpt><trkpt lat="44.143961385630554" lon="10.4116141211409"><ele>443.5</ele><time>2026-04-25T16:13:22.995Z</time></trkpt><trkpt lat="44.14389238282077" lon="10.411772079304273"><ele>441.75</ele><time>2026-04-25T16:13:23.995Z</time></trkpt><trkpt lat="44.14380082672647" lon="10.411888924651256"><ele>440.0</ele><time>2026-04-25T16:13:24.995Z</time></trkpt><trkpt lat="44.14369451656888" lon="10.411997967075184"><ele>440.0</ele><time>2026-04-25T16:13:25.995Z</time></trkpt><trkpt lat="44.14357146711273" lon="10.412051892540726"><ele>440.0</ele><time>2026-04-25T16:13:26.995Z</time></trkpt><trkpt lat="44.143428513256076" lon="10.412082020674733"><ele>440.0</ele><time>2026-04-25T16:13:27.995Z</time></trkpt><trkpt lat="44.14328159429105" lon="10.412119688188012"><ele>440.0</ele><time>2026-04-25T16:13:28.995Z</time></trkpt><trkpt lat="44.14312420562077" lon="10.412177427220268"><ele>437.25</ele><time>2026-04-25T16:13:29.995Z</time></trkpt><trkpt lat="44.14297503742674" lon="10.412246900917934"><ele>434.5</ele><time>2026-04-25T16:13:30.995Z</time></trkpt><trkpt lat="44.14284486229905" lon="10.412309231622798"><ele>431.75</ele><time>2026-04-25T16:13:31.995Z</time></trkpt><trkpt lat="44.14274395904589" lon="10.412369029286515"><ele>429.0</ele><time>2026-04-25T16:13:32.995Z</time></trkpt><trkpt lat="44.14267525037346" lon="10.412472507278752"><ele>429.0</ele><time>2026-04-25T16:13:33.995Z</time></trkpt><trkpt lat="44.142664765418054" lon="10.412614770766478"><ele>429.0</ele><time>2026-04-25T16:13:34.995Z</time></trkpt><trkpt lat="44.14270499067579" lon="10.412747981675695"><ele>429.0</ele><time>2026-04-25T16:13:35.995Z</time></trkpt><trkpt lat="44.14279552775211" lon="10.41283036225828"><ele>429.0</ele><time>2026-04-25T16:13:36.995Z</time></trkpt><trkpt lat="44.14291539797668" lon="10.412852480372916"><ele>429.0</ele><time>2026-04-25T16:13:37.995Z</time></trkpt><trkpt lat="44.14304272536117" lon="10.412897864936442"><ele>429.0</ele><time>2026-04-25T16:13:38.995Z</time></trkpt><trkpt lat="44.1431604074883" lon="10.412929318897033"><ele>429.0</ele><time>2026-04-25T16:13:39.995Z</time></trkpt><trkpt lat="44.14324616240921" lon="10.41305496842458"><ele>429.0</ele><time>2026-04-25T16:13:40.995Z</time></trkpt><trkpt lat="44.14326869538655" lon="10.41325211021523"><ele>429.0</ele><time>2026-04-25T16:13:41.995Z</time></trkpt><trkpt lat="44.14332135695048" lon="10.41345569542634"><ele>429.66666666666663</ele><time>2026-04-25T16:13:42.995Z</time></trkpt><trkpt lat="44.143355297071906" lon="10.413666148514938"><ele>430.3333333333333</ele><time>2026-04-25T16:13:43.995Z</time></trkpt><trkpt lat="44.14337415048506" lon="10.41388268739917"><ele>431.0</ele><time>2026-04-25T16:13:44.995Z</time></trkpt><trkpt lat="44.1433644532294" lon="10.414094202723334"><ele>429.5</ele><time>2026-04-25T16:13:45.995Z</time></trkpt><trkpt lat="44.14335817639737" lon="10.414274055353617"><ele>428.0</ele><time>2026-04-25T16:13:46.995Z</time></trkpt><trkpt lat="44.14336137610934" lon="10.414430333302331"><ele>426.5</ele><time>2026-04-25T16:13:47.995Z</time></trkpt><trkpt lat="44.143410160358876" lon="10.414572309888026"><ele>425.0</ele><time>2026-04-25T16:13:48.995Z</time></trkpt><trkpt lat="44.14351562294214" lon="10.414660673838714"><ele>422.5</ele><time>2026-04-25T16:13:49.995Z</time></trkpt><trkpt lat="44.14365299434822" lon="10.414691808301992"><ele>420.0</ele><time>2026-04-25T16:13:50.995Z</time></trkpt><trkpt lat="44.14380653229295" lon="10.414717133220954"><ele>417.5</ele><time>2026-04-25T16:13:51.995Z</time></trkpt><trkpt lat="44.143942725818626" lon="10.414768873140922"><ele>415.0</ele><time>2026-04-25T16:13:52.995Z</time></trkpt><trkpt lat="44.1440447610677" lon="10.41483805696346"><ele>415.00000000000006</ele><time>2026-04-25T16:13:53.995Z</time></trkpt><trkpt lat="44.14410612959127" lon="10.414902540968441"><ele>415.0</ele><time>2026-04-25T16:13:54.995Z</time></trkpt><trkpt lat="44.14411464576981" lon="10.414997883879696"><ele>415.0</ele><time>2026-04-25T16:13:55.995Z</time></trkpt><trkpt lat="44.14408215110454" lon="10.415085273895349"><ele>415.0</ele><time>2026-04-25T16:13:56.995Z</time></trkpt><trkpt lat="44.144007314617845" lon="10.415108567027362"><ele>415.00000000000006</ele><time>2026-04-25T16:13:57.995Z</time></trkpt><trkpt lat="44.14391263797343" lon="10.415052456750612"><ele>415.0</ele><time>2026-04-25T16:13:58.995Z</time></trkpt><trkpt lat="44.14378276765205" lon="10.415020290798818"><ele>415.0</ele><time>2026-04-25T16:13:59.995Z</time></trkpt><trkpt lat="44.14366811214568" lon="10.414979783615035"><ele>415.0</ele><time>2026-04-25T16:14:00.995Z</time></trkpt><trkpt lat="44.14354124241953" lon="10.41494026250392"><ele>415.0</ele><time>2026-04-25T16:14:01.994Z</time></trkpt><trkpt lat="44.14341116548159" lon="10.414891346264456"><ele>415.0</ele><time>2026-04-25T16:14:02.994Z</time></trkpt><trkpt lat="44.14327558437416" lon="10.414856658896761"><ele>412.0</ele><time>2026-04-25T16:14:03.994Z</time></trkpt><trkpt lat="44.143143948015656" lon="10.41484905800105"><ele>409.0</ele><time>2026-04-25T16:14:04.994Z</time></trkpt><trkpt lat="44.14300693354583" lon="10.414864930063134"><ele>406.0</ele><time>2026-04-25T16:14:05.994Z</time></trkpt><trkpt lat="44.14286601326662" lon="10.414905438670038"><ele>403.0</ele><time>2026-04-25T16:14:06.994Z</time></trkpt><trkpt lat="44.142726098878306" lon="10.414947564463098"><ele>403.0</ele><time>2026-04-25T16:14:07.994Z</time></trkpt><trkpt lat="44.142575773904284" lon="10.414934066858146"><ele>403.0</ele><time>2026-04-25T16:14:08.994Z</time></trkpt><trkpt lat="44.142422579503645" lon="10.414896077747615"><ele>403.0</ele><time>2026-04-25T16:14:09.994Z</time></trkpt><trkpt lat="44.14226657729674" lon="10.414862439355637"><ele>401.0</ele><time>2026-04-25T16:14:10.994Z</time></trkpt><trkpt lat="44.142104876490315" lon="10.414830340338275"><ele>399.0</ele><time>2026-04-25T16:14:11.994Z</time></trkpt><trkpt lat="44.1419533022745" lon="10.414818590059433"><ele>397.0</ele><time>2026-04-25T16:14:12.994Z</time></trkpt><trkpt lat="44.141793860713484" lon="10.414813760352597"><ele>397.0</ele><time>2026-04-25T16:14:13.994Z</time></trkpt><trkpt lat="44.1416381718045" lon="10.414841462414392"><ele>397.0</ele><time>2026-04-25T16:14:14.994Z</time></trkpt><trkpt lat="44.14149859615185" lon="10.414875759497983"><ele>397.0</ele><time>2026-04-25T16:14:15.994Z</time></trkpt><trkpt lat="44.14136887203859" lon="10.414904331546685"><ele>397.0</ele><time>2026-04-25T16:14:16.994Z</time></trkpt><trkpt lat="44.14126129537739" lon="10.414878365270418"><ele>396.0</ele><time>2026-04-25T16:14:17.994Z</time></trkpt><trkpt lat="44.14116261355729" lon="10.414797507187874"><ele>395.0</ele><time>2026-04-25T16:14:18.994Z</time></trkpt><trkpt lat="44.14110978676741" lon="10.414646372620076"><ele>394.0</ele><time>2026-04-25T16:14:19.994Z</time></trkpt><trkpt lat="44.14109339199867" lon="10.414475393688473"><ele>393.0</ele><time>2026-04-25T16:14:20.994Z</time></trkpt><trkpt lat="44.14107487788372" lon="10.414317724646397"><ele>393.0</ele><time>2026-04-25T16:14:21.994Z</time></trkpt><trkpt lat="44.141012734850904" lon="10.41420370787695"><ele>393.0</ele><time>2026-04-25T16:14:22.994Z</time></trkpt><trkpt lat="44.14091393539085" lon="10.414147050067943"><ele>393.0</ele><time>2026-04-25T16:14:23.994Z</time></trkpt><trkpt lat="44.14080497670355" lon="10.414156388330913"><ele>393.0</ele><time>2026-04-25T16:14:24.994Z</time></trkpt><trkpt lat="44.140696431963754" lon="10.414205917036513"><ele>393.0</ele><time>2026-04-25T16:14:25.994Z</time></trkpt><trkpt lat="44.14064666911536" lon="10.414403067233343"><ele>390.0</ele><time>2026-04-25T16:14:26.994Z</time></trkpt><trkpt lat="44.140640081809195" lon="10.414593985868231"><ele>387.0</ele><time>2026-04-25T16:14:27.994Z</time></trkpt><trkpt lat="44.140662916053756" lon="10.414794004184895"><ele>384.0</ele><time>2026-04-25T16:14:28.994Z</time></trkpt><trkpt lat="44.140677892583625" lon="10.415010188585553"><ele>381.0</ele><time>2026-04-25T16:14:29.994Z</time></trkpt><trkpt lat="44.14069342851965" lon="10.415220586938766"><ele>380.0</ele><time>2026-04-25T16:14:30.994Z</time></trkpt><trkpt lat="44.14069836520056" lon="10.41543580048532"><ele>379.0</ele><time>2026-04-25T16:14:31.994Z</time></trkpt><trkpt lat="44.140667306933096" lon="10.415653995950663"><ele>378.0</ele><time>2026-04-25T16:14:32.994Z</time></trkpt><trkpt lat="44.14064058031823" lon="10.415877773954943"><ele>378.0</ele><time>2026-04-25T16:14:33.994Z</time></trkpt><trkpt lat="44.140609708781184" lon="10.416100969269841"><ele>378.0</ele><time>2026-04-25T16:14:34.994Z</time></trkpt><trkpt lat="44.14058900346746" lon="10.416338856394304"><ele>378.0</ele><time>2026-04-25T16:14:35.994Z</time></trkpt><trkpt lat="44.14055130241754" lon="10.416578160454758"><ele>378.0</ele><time>2026-04-25T16:14:36.994Z</time></trkpt><trkpt lat="44.14051105370949" lon="10.416816030087832"><ele>378.0</ele><time>2026-04-25T16:14:37.994Z</time></trkpt><trkpt lat="44.14047536276413" lon="10.417056660979375"><ele>378.0</ele><time>2026-04-25T16:14:38.994Z</time></trkpt><trkpt lat="44.140443640547815" lon="10.417284104349001"><ele>379.25</ele><time>2026-04-25T16:14:39.994Z</time></trkpt><trkpt lat="44.14041372096377" lon="10.417488690422013"><ele>380.5</ele><time>2026-04-25T16:14:40.994Z</time></trkpt><trkpt lat="44.14038981916574" lon="10.417675137590292"><ele>381.75</ele><time>2026-04-25T16:14:41.994Z</time></trkpt><trkpt lat="44.140352058579026" lon="10.417845278247361"><ele>383.0</ele><time>2026-04-25T16:14:42.994Z</time></trkpt><trkpt lat="44.14027705807505" lon="10.41799157889085"><ele>386.25</ele><time>2026-04-25T16:14:43.994Z</time></trkpt><trkpt lat="44.14017196566852" lon="10.41809885962318"><ele>389.5</ele><time>2026-04-25T16:14:44.994Z</time></trkpt><trkpt lat="44.1400415205539" lon="10.418151178854906"><ele>392.75</ele><time>2026-04-25T16:14:45.994Z</time></trkpt><trkpt lat="44.13989252453715" lon="10.418168346275422"><ele>396.0</ele><time>2026-04-25T16:14:46.994Z</time></trkpt><trkpt lat="44.139729013700865" lon="10.418178522212145"><ele>396.0</ele><time>2026-04-25T16:14:47.994Z</time></trkpt><trkpt lat="44.13955390496673" lon="10.418196183082356"><ele>396.0</ele><time>2026-04-25T16:14:48.994Z</time></trkpt><trkpt lat="44.139372939453715" lon="10.41820137701818"><ele>396.0</ele><time>2026-04-25T16:14:49.994Z</time></trkpt><trkpt lat="44.13919121945534" lon="10.418184322492793"><ele>398.33333333333337</ele><time>2026-04-25T16:14:50.994Z</time></trkpt><trkpt lat="44.139015174031705" lon="10.418168791334445"><ele>400.6666666666667</ele><time>2026-04-25T16:14:51.994Z</time></trkpt><trkpt lat="44.138840653403335" lon="10.418179256414692"><ele>403.0</ele><time>2026-04-25T16:14:52.994Z</time></trkpt><trkpt lat="44.13867626815674" lon="10.418196733835448"><ele>403.0</ele><time>2026-04-25T16:14:53.994Z</time></trkpt><trkpt lat="44.13851446618258" lon="10.418194101379594"><ele>403.0</ele><time>2026-04-25T16:14:54.994Z</time></trkpt><trkpt lat="44.13835737204062" lon="10.418149847164472"><ele>403.0</ele><time>2026-04-25T16:14:55.994Z</time></trkpt><trkpt lat="44.13820222082045" lon="10.418082496612076"><ele>403.0</ele><time>2026-04-25T16:14:56.994Z</time></trkpt><trkpt lat="44.13805785353604" lon="10.417995121669183"><ele>403.0</ele><time>2026-04-25T16:14:57.994Z</time></trkpt><trkpt lat="44.13792665458424" lon="10.417881936629094"><ele>403.0</ele><time>2026-04-25T16:14:58.994Z</time></trkpt><trkpt lat="44.137810202346806" lon="10.417731467306641"><ele>402.0</ele><time>2026-04-25T16:14:59.994Z</time></trkpt><trkpt lat="44.137681832410415" lon="10.4175944571816"><ele>401.0</ele><time>2026-04-25T16:15:00.994Z</time></trkpt><trkpt lat="44.13754581600926" lon="10.417461063614496"><ele>400.0</ele><time>2026-04-25T16:15:01.994Z</time></trkpt><trkpt lat="44.137411710618736" lon="10.417322139371196"><ele>398.6666666666667</ele><time>2026-04-25T16:15:02.994Z</time></trkpt><trkpt lat="44.13727762882021" lon="10.417180667696808"><ele>397.33333333333337</ele><time>2026-04-25T16:15:03.994Z</time></trkpt><trkpt lat="44.137143009676976" lon="10.417034282747004"><ele>396.0</ele><time>2026-04-25T16:15:04.994Z</time></trkpt><trkpt lat="44.13699896889659" lon="10.4168900788985"><ele>395.33333333333337</ele><time>2026-04-25T16:15:05.994Z</time></trkpt><trkpt lat="44.13685170644617" lon="10.416726186247317"><ele>394.6666666666667</ele><time>2026-04-25T16:15:06.994Z</time></trkpt><trkpt lat="44.13669960327579" lon="10.416569475123632"><ele>394.0</ele><time>2026-04-25T16:15:07.994Z</time></trkpt><trkpt lat="44.13654838279671" lon="10.416413377429748"><ele>392.0</ele><time>2026-04-25T16:15:08.994Z</time></trkpt><trkpt lat="44.136390563845936" lon="10.416261336500199"><ele>390.0</ele><time>2026-04-25T16:15:09.994Z</time></trkpt><trkpt lat="44.13622262500895" lon="10.416130052264482"><ele>388.0</ele><time>2026-04-25T16:15:10.994Z</time></trkpt><trkpt lat="44.1360498722083" lon="10.41602729696908"><ele>388.0</ele><time>2026-04-25T16:15:11.994Z</time></trkpt><trkpt lat="44.13588676605815" lon="10.415957996378099"><ele>388.0</ele><time>2026-04-25T16:15:12.994Z</time></trkpt><trkpt lat="44.135727603945845" lon="10.415892793113654"><ele>388.0</ele><time>2026-04-25T16:15:13.994Z</time></trkpt><trkpt lat="44.135577154940556" lon="10.415828153038024"><ele>387.2</ele><time>2026-04-25T16:15:14.994Z</time></trkpt><trkpt lat="44.135434008744866" lon="10.415766470517815"><ele>386.4</ele><time>2026-04-25T16:15:15.994Z</time></trkpt><trkpt lat="44.135321112425395" lon="10.415709271148604"><ele>385.59999999999997</ele><time>2026-04-25T16:15:16.994Z</time></trkpt><trkpt lat="44.13523321027693" lon="10.41566798576778"><ele>384.79999999999995</ele><time>2026-04-25T16:15:17.994Z</time></trkpt><trkpt lat="44.135163502347574" lon="10.415634553536558"><ele>384.0</ele><time>2026-04-25T16:15:18.994Z</time></trkpt><trkpt lat="44.13506287394565" lon="10.415583072389774"><ele>384.0</ele><time>2026-04-25T16:15:20.994Z</time></trkpt><trkpt lat="44.13497050607465" lon="10.41552971438658"><ele>384.0</ele><time>2026-04-25T16:15:22.993Z</time></trkpt><trkpt lat="44.13488118407955" lon="10.415476186396216"><ele>384.0</ele><time>2026-04-25T16:15:24.993Z</time></trkpt><trkpt lat="44.13477509263628" lon="10.415403151911185"><ele>384.0</ele><time>2026-04-25T16:15:26.993Z</time></trkpt><trkpt lat="44.13471969867991" lon="10.415319765644835"><ele>384.0</ele><time>2026-04-25T16:15:27.993Z</time></trkpt><trkpt lat="44.134650197650856" lon="10.415240012293681"><ele>383.6</ele><time>2026-04-25T16:15:28.993Z</time></trkpt><trkpt lat="44.13457909530177" lon="10.415157733158594"><ele>383.2</ele><time>2026-04-25T16:15:29.993Z</time></trkpt><trkpt lat="44.13450538216294" lon="10.415075125138832"><ele>382.8</ele><time>2026-04-25T16:15:30.993Z</time></trkpt><trkpt lat="44.13443231955118" lon="10.414994783940656"><ele>382.40000000000003</ele><time>2026-04-25T16:15:31.993Z</time></trkpt><trkpt lat="44.134357559835244" lon="10.414913648886834"><ele>382.0</ele><time>2026-04-25T16:15:32.993Z</time></trkpt><trkpt lat="44.13428900930283" lon="10.4148360229118"><ele>382.0</ele><time>2026-04-25T16:15:33.993Z</time></trkpt><trkpt lat="44.13422178642057" lon="10.414766686190545"><ele>382.0</ele><time>2026-04-25T16:15:34.993Z</time></trkpt><trkpt lat="44.13416339862063" lon="10.414705309903587"><ele>382.0</ele><time>2026-04-25T16:15:35.993Z</time></trkpt><trkpt lat="44.13411016388524" lon="10.414651766530291"><ele>382.0</ele><time>2026-04-25T16:15:36.993Z</time></trkpt><trkpt lat="44.13402989335216" lon="10.414553710472438"><ele>382.0</ele><time>2026-04-25T16:15:38.993Z</time></trkpt><trkpt lat="44.133962526620465" lon="10.414485032959965"><ele>382.0</ele><time>2026-04-25T16:15:40.993Z</time></trkpt><trkpt lat="44.1338915467085" lon="10.414385959318146"><ele>381.3333333333333</ele><time>2026-04-25T16:15:43.993Z</time></trkpt><trkpt lat="44.1338084504367" lon="10.414300836243694"><ele>380.66666666666663</ele><time>2026-04-25T16:15:45.993Z</time></trkpt><trkpt lat="44.13375418598088" lon="10.41424534456968"><ele>380.0</ele><time>2026-04-25T16:15:46.993Z</time></trkpt><trkpt lat="44.133701863387" lon="10.41418332416869"><ele>379.3333333333333</ele><time>2026-04-25T16:15:47.993Z</time></trkpt><trkpt lat="44.13363331121318" lon="10.414120912182291"><ele>378.6666666666667</ele><time>2026-04-25T16:15:48.993Z</time></trkpt><trkpt lat="44.133567151142564" lon="10.414053742821151"><ele>378.0</ele><time>2026-04-25T16:15:49.993Z</time></trkpt><trkpt lat="44.13349439847552" lon="10.41398855006285"><ele>378.0</ele><time>2026-04-25T16:15:50.993Z</time></trkpt><trkpt lat="44.13341787698222" lon="10.413913915478208"><ele>378.0</ele><time>2026-04-25T16:15:51.993Z</time></trkpt><trkpt lat="44.13333270531696" lon="10.413853762078668"><ele>378.0</ele><time>2026-04-25T16:15:52.993Z</time></trkpt><trkpt lat="44.13323593516216" lon="10.413816464190683"><ele>378.0</ele><time>2026-04-25T16:15:53.993Z</time></trkpt><trkpt lat="44.133140563441756" lon="10.413759398346073"><ele>378.0</ele><time>2026-04-25T16:15:54.993Z</time></trkpt><trkpt lat="44.13303732433885" lon="10.41371794064864"><ele>377.0</ele><time>2026-04-25T16:15:55.993Z</time></trkpt><trkpt lat="44.13293771962662" lon="10.413676787442336"><ele>376.0</ele><time>2026-04-25T16:15:56.993Z</time></trkpt><trkpt lat="44.132835645623395" lon="10.413656986028954"><ele>375.0</ele><time>2026-04-25T16:15:57.993Z</time></trkpt><trkpt lat="44.13274506454361" lon="10.413591659911406"><ele>374.0</ele><time>2026-04-25T16:15:58.993Z</time></trkpt><trkpt lat="44.132651952823096" lon="10.413552841167876"><ele>373.0</ele><time>2026-04-25T16:15:59.993Z</time></trkpt><trkpt lat="44.132561028399415" lon="10.41351485745482"><ele>373.0</ele><time>2026-04-25T16:16:00.993Z</time></trkpt><trkpt lat="44.13247150741113" lon="10.413482936978687"><ele>373.0</ele><time>2026-04-25T16:16:01.993Z</time></trkpt><trkpt lat="44.13239973276729" lon="10.413448040236016"><ele>373.0</ele><time>2026-04-25T16:16:02.993Z</time></trkpt><trkpt lat="44.13233163077724" lon="10.413425763826952"><ele>373.0</ele><time>2026-04-25T16:16:03.993Z</time></trkpt><trkpt lat="44.13221702677495" lon="10.413383539413651"><ele>373.0</ele><time>2026-04-25T16:16:05.993Z</time></trkpt><trkpt lat="44.132155875094135" lon="10.41336232949198"><ele>373.0</ele><time>2026-04-25T16:16:06.993Z</time></trkpt><trkpt lat="44.13208693920642" lon="10.413334095670528"><ele>372.16666666666663</ele><time>2026-04-25T16:16:07.993Z</time></trkpt><trkpt lat="44.132009771499476" lon="10.413302524369104"><ele>371.3333333333333</ele><time>2026-04-25T16:16:08.993Z</time></trkpt><trkpt lat="44.13192828679538" lon="10.413273167359353"><ele>370.5</ele><time>2026-04-25T16:16:09.993Z</time></trkpt><trkpt lat="44.131846280944046" lon="10.413234218107066"><ele>369.6666666666667</ele><time>2026-04-25T16:16:10.993Z</time></trkpt><trkpt lat="44.13176263764914" lon="10.413193947908635"><ele>368.83333333333337</ele><time>2026-04-25T16:16:11.993Z</time></trkpt><trkpt lat="44.13168243494444" lon="10.41315017827952"><ele>368.0</ele><time>2026-04-25T16:16:12.993Z</time></trkpt><trkpt lat="44.13160068291803" lon="10.413100768681122"><ele>367.6666666666667</ele><time>2026-04-25T16:16:13.993Z</time></trkpt><trkpt lat="44.13151973972872" lon="10.41304984103707"><ele>367.33333333333337</ele><time>2026-04-25T16:16:14.993Z</time></trkpt><trkpt lat="44.13144442347945" lon="10.412993983696904"><ele>367.0</ele><time>2026-04-25T16:16:15.993Z</time></trkpt><trkpt lat="44.131366677155505" lon="10.41294365371559"><ele>366.6666666666667</ele><time>2026-04-25T16:16:16.993Z</time></trkpt><trkpt lat="44.13128345940012" lon="10.412895899107802"><ele>366.3333333333333</ele><time>2026-04-25T16:16:17.993Z</time></trkpt><trkpt lat="44.131199026725874" lon="10.412839551756857"><ele>366.0</ele><time>2026-04-25T16:16:18.993Z</time></trkpt><trkpt lat="44.131103797639874" lon="10.412784255300783"><ele>365.6</ele><time>2026-04-25T16:16:19.993Z</time></trkpt><trkpt lat="44.13101498006464" lon="10.412721369887832"><ele>365.20000000000005</ele><time>2026-04-25T16:16:20.993Z</time></trkpt><trkpt lat="44.13092633807563" lon="10.412661707234317"><ele>364.79999999999995</ele><time>2026-04-25T16:16:21.993Z</time></trkpt><trkpt lat="44.13083711565917" lon="10.41259725070028"><ele>364.4</ele><time>2026-04-25T16:16:22.993Z</time></trkpt><trkpt lat="44.130752942473734" lon="10.412540788603035"><ele>364.0</ele><time>2026-04-25T16:16:23.993Z</time></trkpt><trkpt lat="44.13066581268266" lon="10.412475030343156"><ele>363.79999999999995</ele><time>2026-04-25T16:16:24.993Z</time></trkpt><trkpt lat="44.13057349531306" lon="10.41240781619694"><ele>363.59999999999997</ele><time>2026-04-25T16:16:25.993Z</time></trkpt><trkpt lat="44.13048430805255" lon="10.412348027461439"><ele>363.4</ele><time>2026-04-25T16:16:26.993Z</time></trkpt><trkpt lat="44.13039983036612" lon="10.412302247882504"><ele>363.2</ele><time>2026-04-25T16:16:27.993Z</time></trkpt><trkpt lat="44.130339972633635" lon="10.41226359632055"><ele>363.0</ele><time>2026-04-25T16:16:28.993Z</time></trkpt><trkpt lat="44.130255347439224" lon="10.412185273946736"><ele>362.59999999999997</ele><time>2026-04-25T16:16:30.993Z</time></trkpt><trkpt lat="44.13014163412997" lon="10.412106873339608"><ele>362.2</ele><time>2026-04-25T16:16:32.993Z</time></trkpt><trkpt lat="44.13006502726118" lon="10.412068160969662"><ele>361.8</ele><time>2026-04-25T16:16:33.993Z</time></trkpt><trkpt lat="44.1299816273257" lon="10.412008794121416"><ele>361.4</ele><time>2026-04-25T16:16:34.993Z</time></trkpt><trkpt lat="44.12988746074552" lon="10.411961416740708"><ele>361.0</ele><time>2026-04-25T16:16:35.993Z</time></trkpt><trkpt lat="44.129804858447706" lon="10.411888349771536"><ele>360.0</ele><time>2026-04-25T16:16:36.993Z</time></trkpt><trkpt lat="44.1297146569056" lon="10.411863908404033"><ele>359.0</ele><time>2026-04-25T16:16:37.993Z</time></trkpt><trkpt lat="44.12963347219977" lon="10.41182817079814"><ele>358.0</ele><time>2026-04-25T16:16:38.993Z</time></trkpt><trkpt lat="44.12955240998691" lon="10.411792039008334"><ele>357.0</ele><time>2026-04-25T16:16:39.993Z</time></trkpt><trkpt lat="44.129468059758445" lon="10.411752241504685"><ele>356.0</ele><time>2026-04-25T16:16:40.993Z</time></trkpt><trkpt lat="44.1293846339263" lon="10.411718634426666"><ele>355.0</ele><time>2026-04-25T16:16:41.993Z</time></trkpt><trkpt lat="44.129300082008776" lon="10.411689322340303"><ele>355.0</ele><time>2026-04-25T16:16:42.993Z</time></trkpt><trkpt lat="44.12921661043224" lon="10.411656885137758"><ele>355.0</ele><time>2026-04-25T16:16:43.992Z</time></trkpt><trkpt lat="44.12913930519487" lon="10.411626569766268"><ele>355.0</ele><time>2026-04-25T16:16:44.992Z</time></trkpt><trkpt lat="44.129070719481604" lon="10.411611269378447"><ele>355.0</ele><time>2026-04-25T16:16:45.992Z</time></trkpt><trkpt lat="44.12899822998304" lon="10.411512002312046"><ele>355.0</ele><time>2026-04-25T16:16:47.992Z</time></trkpt><trkpt lat="44.128962003629546" lon="10.411399863156008"><ele>355.0</ele><time>2026-04-25T16:16:49.992Z</time></trkpt><trkpt lat="44.12886272714237" lon="10.411370321543565"><ele>354.6</ele><time>2026-04-25T16:16:51.992Z</time></trkpt><trkpt lat="44.12874920439312" lon="10.411413084561936"><ele>354.2</ele><time>2026-04-25T16:16:53.992Z</time></trkpt><trkpt lat="44.12867597933112" lon="10.41141088769653"><ele>353.79999999999995</ele><time>2026-04-25T16:16:54.992Z</time></trkpt><trkpt lat="44.128596012729766" lon="10.411360875991198"><ele>353.4</ele><time>2026-04-25T16:16:55.992Z</time></trkpt><trkpt lat="44.128509312285836" lon="10.411361600172562"><ele>353.0</ele><time>2026-04-25T16:16:56.992Z</time></trkpt><trkpt lat="44.128419983281994" lon="10.41136498508836"><ele>353.0</ele><time>2026-04-25T16:16:57.992Z</time></trkpt><trkpt lat="44.12832376085629" lon="10.411373869295309"><ele>353.0</ele><time>2026-04-25T16:16:58.992Z</time></trkpt><trkpt lat="44.128229608179915" lon="10.411340541900094"><ele>353.0</ele><time>2026-04-25T16:16:59.992Z</time></trkpt><trkpt lat="44.128135380131695" lon="10.411307667593377"><ele>353.0</ele><time>2026-04-25T16:17:00.992Z</time></trkpt><trkpt lat="44.12804004389337" lon="10.411278789524284"><ele>353.0</ele><time>2026-04-25T16:17:01.992Z</time></trkpt><trkpt lat="44.12794562222692" lon="10.411246143149986"><ele>352.4</ele><time>2026-04-25T16:17:02.992Z</time></trkpt><trkpt lat="44.127854260498395" lon="10.411179067666605"><ele>351.79999999999995</ele><time>2026-04-25T16:17:03.992Z</time></trkpt><trkpt lat="44.12774785745863" lon="10.41118225761023"><ele>351.2</ele><time>2026-04-25T16:17:04.992Z</time></trkpt><trkpt lat="44.12764762240423" lon="10.411147682084302"><ele>350.6</ele><time>2026-04-25T16:17:05.992Z</time></trkpt><trkpt lat="44.12754823684428" lon="10.411110808409921"><ele>350.0</ele><time>2026-04-25T16:17:06.992Z</time></trkpt><trkpt lat="44.1274471174845" lon="10.411075525829851"><ele>349.75</ele><time>2026-04-25T16:17:07.992Z</time></trkpt><trkpt lat="44.12734102540012" lon="10.411047096674453"><ele>349.5</ele><time>2026-04-25T16:17:08.992Z</time></trkpt><trkpt lat="44.127215848544196" lon="10.411024244851294"><ele>349.25</ele><time>2026-04-25T16:17:09.992Z</time></trkpt><trkpt lat="44.12707269316837" lon="10.410975845042719"><ele>349.0</ele><time>2026-04-25T16:17:10.992Z</time></trkpt><trkpt lat="44.12692219656439" lon="10.410927390141874"><ele>349.0</ele><time>2026-04-25T16:17:11.992Z</time></trkpt><trkpt lat="44.12676191522996" lon="10.41087189496182"><ele>349.0</ele><time>2026-04-25T16:17:12.992Z</time></trkpt><trkpt lat="44.12659802923562" lon="10.410831907938627"><ele>349.0</ele><time>2026-04-25T16:17:13.992Z</time></trkpt><trkpt lat="44.12643822122985" lon="10.410749975557804"><ele>348.66666666666663</ele><time>2026-04-25T16:17:14.992Z</time></trkpt><trkpt lat="44.126272674628325" lon="10.410705262777737"><ele>348.3333333333333</ele><time>2026-04-25T16:17:15.992Z</time></trkpt><trkpt lat="44.12610149338632" lon="10.410657887384994"><ele>348.0</ele><time>2026-04-25T16:17:16.992Z</time></trkpt><trkpt lat="44.12593588986583" lon="10.410609120237282"><ele>348.0</ele><time>2026-04-25T16:17:17.992Z</time></trkpt><trkpt lat="44.1257820745247" lon="10.410554399208"><ele>348.0</ele><time>2026-04-25T16:17:18.992Z</time></trkpt><trkpt lat="44.12563852942111" lon="10.41049150995264"><ele>348.0</ele><time>2026-04-25T16:17:19.992Z</time></trkpt><trkpt lat="44.12551360489895" lon="10.410433880707394"><ele>348.0</ele><time>2026-04-25T16:17:20.992Z</time></trkpt><trkpt lat="44.125393031686144" lon="10.410380305366774"><ele>347.2</ele><time>2026-04-25T16:17:21.992Z</time></trkpt><trkpt lat="44.12528915755" lon="10.410333925027814"><ele>346.4</ele><time>2026-04-25T16:17:22.992Z</time></trkpt><trkpt lat="44.125200074969634" lon="10.410303109480903"><ele>345.59999999999997</ele><time>2026-04-25T16:17:23.992Z</time></trkpt><trkpt lat="44.12513547523397" lon="10.410234721577995"><ele>344.79999999999995</ele><time>2026-04-25T16:17:24.992Z</time></trkpt><trkpt lat="44.12507864865931" lon="10.410143328739952"><ele>344.0</ele><time>2026-04-25T16:17:25.992Z</time></trkpt><trkpt lat="44.12504906659558" lon="10.410032861369077"><ele>344.00000000000006</ele><time>2026-04-25T16:17:26.992Z</time></trkpt><trkpt lat="44.12499216713432" lon="10.409960679129803"><ele>344.0</ele><time>2026-04-25T16:17:27.992Z</time></trkpt><trkpt lat="44.1249275702645" lon="10.409913444699441"><ele>344.0</ele><time>2026-04-25T16:17:28.992Z</time></trkpt><trkpt lat="44.12484253069483" lon="10.409962013781858"><ele>344.0</ele><time>2026-04-25T16:17:29.992Z</time></trkpt><trkpt lat="44.12478125310924" lon="10.40999511205373"><ele>344.0</ele><time>2026-04-25T16:17:30.992Z</time></trkpt><trkpt lat="44.12473254317224" lon="10.410061349226467"><ele>344.00000000000006</ele><time>2026-04-25T16:17:31.992Z</time></trkpt><trkpt lat="44.124712634705915" lon="10.410160372908644"><ele>344.0</ele><time>2026-04-25T16:17:32.992Z</time></trkpt><trkpt lat="44.1247095401553" lon="10.41025877330876"><ele>344.0</ele><time>2026-04-25T16:17:33.992Z</time></trkpt><trkpt lat="44.12471334024395" lon="10.410364776210512"><ele>344.0</ele><time>2026-04-25T16:17:34.992Z</time></trkpt><trkpt lat="44.12477567594728" lon="10.410431876011101"><ele>344.0</ele><time>2026-04-25T16:17:35.992Z</time></trkpt><trkpt lat="44.124692148894404" lon="10.410597193701001"><ele>344.0</ele><time>2026-04-25T16:17:36.992Z</time></trkpt><trkpt lat="44.1246517506066" lon="10.410718530676858"><ele>344.0</ele><time>2026-04-25T16:17:37.992Z</time></trkpt><trkpt lat="44.12460539878855" lon="10.410849760571015"><ele>344.0</ele><time>2026-04-25T16:17:38.992Z</time></trkpt><trkpt lat="44.1245526860303" lon="10.410979717906416"><ele>344.0</ele><time>2026-04-25T16:17:39.992Z</time></trkpt><trkpt lat="44.12449838525063" lon="10.411118465502813"><ele>344.0</ele><time>2026-04-25T16:17:40.992Z</time></trkpt><trkpt lat="44.12444000409819" lon="10.411265533437794"><ele>344.0</ele><time>2026-04-25T16:17:41.992Z</time></trkpt><trkpt lat="44.12437071854182" lon="10.411413725545186"><ele>344.0</ele><time>2026-04-25T16:17:42.992Z</time></trkpt><trkpt lat="44.124292909353194" lon="10.41156073308035"><ele>344.0</ele><time>2026-04-25T16:17:43.992Z</time></trkpt><trkpt lat="44.12420749929956" lon="10.41170805318474"><ele>344.0</ele><time>2026-04-25T16:17:44.992Z</time></trkpt><trkpt lat="44.124117506222646" lon="10.411860344309035"><ele>344.0</ele><time>2026-04-25T16:17:45.992Z</time></trkpt><trkpt lat="44.1240198240674" lon="10.41201020370219"><ele>342.6666666666667</ele><time>2026-04-25T16:17:46.992Z</time></trkpt><trkpt lat="44.12391446432491" lon="10.412151382560518"><ele>341.3333333333333</ele><time>2026-04-25T16:17:47.992Z</time></trkpt><trkpt lat="44.12380147369366" lon="10.412287622205387"><ele>340.0</ele><time>2026-04-25T16:17:48.992Z</time></trkpt><trkpt lat="44.12368103544064" lon="10.41242192714658"><ele>340.0</ele><time>2026-04-25T16:17:49.992Z</time></trkpt><trkpt lat="44.12355448084725" lon="10.412553490451405"><ele>340.0</ele><time>2026-04-25T16:17:50.992Z</time></trkpt><trkpt lat="44.1234210006779" lon="10.412682610287964"><ele>340.0</ele><time>2026-04-25T16:17:51.992Z</time></trkpt><trkpt lat="44.12328317386757" lon="10.41280426029847"><ele>339.0</ele><time>2026-04-25T16:17:52.992Z</time></trkpt><trkpt lat="44.12313630083143" lon="10.412905691687328"><ele>338.0</ele><time>2026-04-25T16:17:53.992Z</time></trkpt><trkpt lat="44.12298868839305" lon="10.412998752717643"><ele>337.0</ele><time>2026-04-25T16:17:54.992Z</time></trkpt><trkpt lat="44.122832903527275" lon="10.413083851583849"><ele>337.0</ele><time>2026-04-25T16:17:55.992Z</time></trkpt><trkpt lat="44.12267168325919" lon="10.413154423783164"><ele>337.0</ele><time>2026-04-25T16:17:56.992Z</time></trkpt><trkpt lat="44.12250318686032" lon="10.413221998472013"><ele>337.0</ele><time>2026-04-25T16:17:57.992Z</time></trkpt><trkpt lat="44.12233304312103" lon="10.413271562873726"><ele>334.3333333333333</ele><time>2026-04-25T16:17:58.992Z</time></trkpt><trkpt lat="44.12215714297348" lon="10.413311510063233"><ele>331.6666666666667</ele><time>2026-04-25T16:17:59.992Z</time></trkpt><trkpt lat="44.12197875190374" lon="10.413341766423171"><ele>329.0</ele><time>2026-04-25T16:18:00.992Z</time></trkpt><trkpt lat="44.121808150790336" lon="10.413360453369538"><ele>329.0</ele><time>2026-04-25T16:18:01.992Z</time></trkpt><trkpt lat="44.12163982956577" lon="10.413370787158554"><ele>329.0</ele><time>2026-04-25T16:18:02.992Z</time></trkpt><trkpt lat="44.12146949234689" lon="10.413378557985132"><ele>329.0</ele><time>2026-04-25T16:18:03.991Z</time></trkpt><trkpt lat="44.12130614811323" lon="10.413383107914171"><ele>327.6666666666667</ele><time>2026-04-25T16:18:04.991Z</time></trkpt><trkpt lat="44.12114891706985" lon="10.413384912595337"><ele>326.3333333333333</ele><time>2026-04-25T16:18:05.991Z</time></trkpt><trkpt lat="44.120993670674665" lon="10.413391354237818"><ele>325.0</ele><time>2026-04-25T16:18:06.991Z</time></trkpt><trkpt lat="44.1208251401536" lon="10.413402312461963"><ele>326.0</ele><time>2026-04-25T16:18:07.991Z</time></trkpt><trkpt lat="44.12065293124713" lon="10.413388000129324"><ele>327.0</ele><time>2026-04-25T16:18:08.991Z</time></trkpt><trkpt lat="44.12047604455404" lon="10.413409876837767"><ele>328.0</ele><time>2026-04-25T16:18:09.991Z</time></trkpt><trkpt lat="44.12029183015378" lon="10.413410358474625"><ele>328.0</ele><time>2026-04-25T16:18:10.991Z</time></trkpt><trkpt lat="44.12010337140183" lon="10.41342132693778"><ele>328.0</ele><time>2026-04-25T16:18:11.991Z</time></trkpt><trkpt lat="44.119913359212596" lon="10.413421658015285"><ele>328.0</ele><time>2026-04-25T16:18:12.991Z</time></trkpt><trkpt lat="44.1197216514557" lon="10.413419917013982"><ele>326.3333333333333</ele><time>2026-04-25T16:18:13.991Z</time></trkpt><trkpt lat="44.11952408063258" lon="10.413409064554315"><ele>324.6666666666667</ele><time>2026-04-25T16:18:14.991Z</time></trkpt><trkpt lat="44.119330090258394" lon="10.413395040351155"><ele>323.0</ele><time>2026-04-25T16:18:15.991Z</time></trkpt><trkpt lat="44.11913499668175" lon="10.41338738130652"><ele>333.5</ele><time>2026-04-25T16:18:16.991Z</time></trkpt><trkpt lat="44.118902704903725" lon="10.413463302977082"><ele>344.0</ele><time>2026-04-25T16:18:17.991Z</time></trkpt><trkpt lat="44.1186773122554" lon="10.413538259789112"><ele>344.0</ele><time>2026-04-25T16:18:18.991Z</time></trkpt><trkpt lat="44.11847257186413" lon="10.413597812283562"><ele>344.0</ele><time>2026-04-25T16:18:19.991Z</time></trkpt><trkpt lat="44.11826520998672" lon="10.413659340248179"><ele>344.0</ele><time>2026-04-25T16:18:20.991Z</time></trkpt><trkpt lat="44.11805614445385" lon="10.413736454685019"><ele>344.0</ele><time>2026-04-25T16:18:21.991Z</time></trkpt><trkpt lat="44.11784378468656" lon="10.413808161349191"><ele>344.0</ele><time>2026-04-25T16:18:22.991Z</time></trkpt><trkpt lat="44.117636123412424" lon="10.413918201210471"><ele>344.0</ele><time>2026-04-25T16:18:23.991Z</time></trkpt><trkpt lat="44.11742793917477" lon="10.414040031282685"><ele>357.5</ele><time>2026-04-25T16:18:24.991Z</time></trkpt><trkpt lat="44.11730679346212" lon="10.414021646444432"><ele>371.0</ele><time>2026-04-25T16:18:25.991Z</time></trkpt><trkpt lat="44.1162700479416" lon="10.415082805574112"><ele>377.33333333333337</ele><time>2026-04-25T16:18:32.265Z</time></trkpt><trkpt lat="44.116110958645166" lon="10.415267310057098"><ele>383.6666666666667</ele><time>2026-04-25T16:18:33.264Z</time></trkpt><trkpt lat="44.11597013754525" lon="10.41548520472065"><ele>390.0</ele><time>2026-04-25T16:18:34.264Z</time></trkpt><trkpt lat="44.11583104219472" lon="10.41570078664308"><ele>391.66666666666663</ele><time>2026-04-25T16:18:35.264Z</time></trkpt><trkpt lat="44.11569719860051" lon="10.415922497121306"><ele>393.3333333333333</ele><time>2026-04-25T16:18:36.264Z</time></trkpt><trkpt lat="44.11557199960162" lon="10.416154098207492"><ele>395.0</ele><time>2026-04-25T16:18:37.264Z</time></trkpt><trkpt lat="44.11545381099583" lon="10.416392159206195"><ele>387.66666666666663</ele><time>2026-04-25T16:18:38.264Z</time></trkpt><trkpt lat="44.11534228626033" lon="10.41663650320814"><ele>380.3333333333333</ele><time>2026-04-25T16:18:39.264Z</time></trkpt><trkpt lat="44.115240352936716" lon="10.416888821537398"><ele>373.0</ele><time>2026-04-25T16:18:40.264Z</time></trkpt><trkpt lat="44.1151462920516" lon="10.417147492201824"><ele>359.0</ele><time>2026-04-25T16:18:41.264Z</time></trkpt><trkpt lat="44.115059224847776" lon="10.417410039623526"><ele>345.0</ele><time>2026-04-25T16:18:42.264Z</time></trkpt><trkpt lat="44.11499966069287" lon="10.41768895553136"><ele>331.0</ele><time>2026-04-25T16:18:43.264Z</time></trkpt><trkpt lat="44.11487833553814" lon="10.418155279839453"><ele>308.3333333333333</ele><time>2026-04-25T16:18:45.991Z</time></trkpt><trkpt lat="44.11482463344631" lon="10.418368288782478"><ele>285.6666666666667</ele><time>2026-04-25T16:18:46.991Z</time></trkpt><trkpt lat="44.114752174444675" lon="10.41859828264395"><ele>263.0</ele><time>2026-04-25T16:18:47.991Z</time></trkpt><trkpt lat="44.114689578208235" lon="10.418804196983498"><ele>265.2</ele><time>2026-04-25T16:18:48.991Z</time></trkpt><trkpt lat="44.114656919733584" lon="10.418965463886561"><ele>267.4</ele><time>2026-04-25T16:18:49.991Z</time></trkpt><trkpt lat="44.11462175810035" lon="10.419090616233163"><ele>269.59999999999997</ele><time>2026-04-25T16:18:50.991Z</time></trkpt><trkpt lat="44.11454727138371" lon="10.419206442966537"><ele>271.8</ele><time>2026-04-25T16:18:51.991Z</time></trkpt><trkpt lat="44.11451397714752" lon="10.41929716752905"><ele>274.0</ele><time>2026-04-25T16:18:52.991Z</time></trkpt><trkpt lat="44.11446874755964" lon="10.419374650214806"><ele>274.0</ele><time>2026-04-25T16:18:53.991Z</time></trkpt><trkpt lat="44.114415567060284" lon="10.419434005261273"><ele>274.0</ele><time>2026-04-25T16:18:54.991Z</time></trkpt><trkpt lat="44.114310614860365" lon="10.419522855195018"><ele>274.0</ele><time>2026-04-25T16:18:56.991Z</time></trkpt><trkpt lat="44.11428112118341" lon="10.419600354855076"><ele>274.0</ele><time>2026-04-25T16:18:57.991Z</time></trkpt><trkpt lat="44.114269295714465" lon="10.419697459373463"><ele>274.0</ele><time>2026-04-25T16:18:58.991Z</time></trkpt><trkpt lat="44.11428955381938" lon="10.419805117691972"><ele>274.0</ele><time>2026-04-25T16:18:59.991Z</time></trkpt><trkpt lat="44.114348680332476" lon="10.419883547461318"><ele>278.25</ele><time>2026-04-25T16:19:00.991Z</time></trkpt><trkpt lat="44.114364970429385" lon="10.420027718438027"><ele>282.5</ele><time>2026-04-25T16:19:01.991Z</time></trkpt><trkpt lat="44.1144182287016" lon="10.420164772343437"><ele>286.75</ele><time>2026-04-25T16:19:02.991Z</time></trkpt><trkpt lat="44.114468971467815" lon="10.420300595016768"><ele>291.0</ele><time>2026-04-25T16:19:03.991Z</time></trkpt><trkpt lat="44.11444319571004" lon="10.420510142509777"><ele>291.0</ele><time>2026-04-25T16:19:04.991Z</time></trkpt><trkpt lat="44.11446961725847" lon="10.420701964825367"><ele>291.0</ele><time>2026-04-25T16:19:05.991Z</time></trkpt><trkpt lat="44.11450158186085" lon="10.420905811844415"><ele>291.0</ele><time>2026-04-25T16:19:06.991Z</time></trkpt><trkpt lat="44.114533841809674" lon="10.42111831683783"><ele>291.0</ele><time>2026-04-25T16:19:07.991Z</time></trkpt><trkpt lat="44.11456904779072" lon="10.421339084968205"><ele>289.3333333333333</ele><time>2026-04-25T16:19:08.991Z</time></trkpt><trkpt lat="44.11460319976541" lon="10.421571924730364"><ele>287.66666666666663</ele><time>2026-04-25T16:19:09.991Z</time></trkpt><trkpt lat="44.11463406999832" lon="10.421813389276572"><ele>286.0</ele><time>2026-04-25T16:19:10.991Z</time></trkpt><trkpt lat="44.11466014097286" lon="10.422069637577383"><ele>284.3333333333333</ele><time>2026-04-25T16:19:11.991Z</time></trkpt><trkpt lat="44.1146875582256" lon="10.422333458096437"><ele>282.6666666666667</ele><time>2026-04-25T16:19:12.991Z</time></trkpt><trkpt lat="44.11471562452665" lon="10.422602860563453"><ele>281.0</ele><time>2026-04-25T16:19:13.991Z</time></trkpt><trkpt lat="44.11474434691074" lon="10.42287757766072"><ele>281.33333333333337</ele><time>2026-04-25T16:19:14.991Z</time></trkpt><trkpt lat="44.11477721293449" lon="10.423155848393241"><ele>281.6666666666667</ele><time>2026-04-25T16:19:15.991Z</time></trkpt><trkpt lat="44.11481369731043" lon="10.423435188351048"><ele>282.0</ele><time>2026-04-25T16:19:16.991Z</time></trkpt><trkpt lat="44.1148511638889" lon="10.42371795660521"><ele>284.6666666666667</ele><time>2026-04-25T16:19:17.991Z</time></trkpt><trkpt lat="44.11488852586029" lon="10.424000548285619"><ele>287.33333333333337</ele><time>2026-04-25T16:19:18.991Z</time></trkpt><trkpt lat="44.1149281902074" lon="10.424284013532976"><ele>290.0</ele><time>2026-04-25T16:19:19.991Z</time></trkpt><trkpt lat="44.11496706733601" lon="10.424566838014071"><ele>284.33333333333337</ele><time>2026-04-25T16:19:20.991Z</time></trkpt><trkpt lat="44.115001002946684" lon="10.424849932717652"><ele>278.6666666666667</ele><time>2026-04-25T16:19:21.99Z</time></trkpt><trkpt lat="44.11502554602021" lon="10.42512929003724"><ele>273.0</ele><time>2026-04-25T16:19:22.99Z</time></trkpt><trkpt lat="44.115021888666206" lon="10.425407147622325"><ele>274.6666666666667</ele><time>2026-04-25T16:19:23.99Z</time></trkpt><trkpt lat="44.11498971845875" lon="10.425685953381228"><ele>276.33333333333337</ele><time>2026-04-25T16:19:24.99Z</time></trkpt><trkpt lat="44.1149289936679" lon="10.425960980880596"><ele>278.0</ele><time>2026-04-25T16:19:25.99Z</time></trkpt><trkpt lat="44.11486026035215" lon="10.42623282758335"><ele>289.33333333333337</ele><time>2026-04-25T16:19:26.99Z</time></trkpt><trkpt lat="44.114789345345415" lon="10.426511641228442"><ele>300.6666666666667</ele><time>2026-04-25T16:19:27.99Z</time></trkpt><trkpt lat="44.114729837644134" lon="10.426785564086362"><ele>312.0</ele><time>2026-04-25T16:19:28.99Z</time></trkpt><trkpt lat="44.114695398561004" lon="10.427069637014553"><ele>312.0</ele><time>2026-04-25T16:19:29.99Z</time></trkpt><trkpt lat="44.11466868658272" lon="10.427348687100663"><ele>312.0</ele><time>2026-04-25T16:19:30.99Z</time></trkpt><trkpt lat="44.11464791366002" lon="10.42762876184419"><ele>312.0</ele><time>2026-04-25T16:19:31.99Z</time></trkpt><trkpt lat="44.11463291883426" lon="10.427916492735662"><ele>310.0</ele><time>2026-04-25T16:19:32.99Z</time></trkpt><trkpt lat="44.114614864608654" lon="10.428199741046642"><ele>308.0</ele><time>2026-04-25T16:19:33.99Z</time></trkpt><trkpt lat="44.114599117768094" lon="10.428481003352836"><ele>306.0</ele><time>2026-04-25T16:19:34.99Z</time></trkpt><trkpt lat="44.11456942539727" lon="10.428751512837572"><ele>301.0</ele><time>2026-04-25T16:19:35.99Z</time></trkpt><trkpt lat="44.11451440390784" lon="10.428998842308616"><ele>296.0</ele><time>2026-04-25T16:19:36.99Z</time></trkpt><trkpt lat="44.11441934959566" lon="10.429234083906818"><ele>291.0</ele><time>2026-04-25T16:19:37.99Z</time></trkpt><trkpt lat="44.11431355605346" lon="10.429480508216098"><ele>288.3333333333333</ele><time>2026-04-25T16:19:38.99Z</time></trkpt><trkpt lat="44.11419752778734" lon="10.429711780980552"><ele>285.66666666666663</ele><time>2026-04-25T16:19:39.99Z</time></trkpt><trkpt lat="44.11406170666704" lon="10.42992259841757"><ele>283.0</ele><time>2026-04-25T16:19:40.99Z</time></trkpt><trkpt lat="44.11391591533021" lon="10.430114590313906"><ele>283.0</ele><time>2026-04-25T16:19:41.99Z</time></trkpt><trkpt lat="44.113760728633736" lon="10.430279162949233"><ele>283.0</ele><time>2026-04-25T16:19:42.99Z</time></trkpt><trkpt lat="44.11360804903504" lon="10.430418519145618"><ele>283.0</ele><time>2026-04-25T16:19:43.99Z</time></trkpt><trkpt lat="44.11344747522944" lon="10.430526210239943"><ele>280.0</ele><time>2026-04-25T16:19:44.99Z</time></trkpt><trkpt lat="44.113295449377134" lon="10.430633044694163"><ele>277.0</ele><time>2026-04-25T16:19:45.99Z</time></trkpt><trkpt lat="44.1131424497827" lon="10.430738097126538"><ele>274.0</ele><time>2026-04-25T16:19:46.99Z</time></trkpt><trkpt lat="44.11300956076444" lon="10.43086231938629"><ele>274.0</ele><time>2026-04-25T16:19:47.99Z</time></trkpt><trkpt lat="44.11288392123383" lon="10.431013025987156"><ele>274.0</ele><time>2026-04-25T16:19:48.99Z</time></trkpt><trkpt lat="44.112780706557835" lon="10.43117942641826"><ele>274.0</ele><time>2026-04-25T16:19:49.99Z</time></trkpt><trkpt lat="44.112682173856264" lon="10.431361073211045"><ele>271.3333333333333</ele><time>2026-04-25T16:19:50.99Z</time></trkpt><trkpt lat="44.112592092881755" lon="10.431536886011154"><ele>268.6666666666667</ele><time>2026-04-25T16:19:51.99Z</time></trkpt><trkpt lat="44.11248921361796" lon="10.431710789325074"><ele>266.0</ele><time>2026-04-25T16:19:52.99Z</time></trkpt><trkpt lat="44.11240141412512" lon="10.431890907905403"><ele>278.0</ele><time>2026-04-25T16:19:53.99Z</time></trkpt><trkpt lat="44.112330648497775" lon="10.432087887243581"><ele>290.0</ele><time>2026-04-25T16:19:54.99Z</time></trkpt><trkpt lat="44.112260239416145" lon="10.432291294608099"><ele>302.0</ele><time>2026-04-25T16:19:55.99Z</time></trkpt><trkpt lat="44.11218991844251" lon="10.432502416262732"><ele>302.0</ele><time>2026-04-25T16:19:56.99Z</time></trkpt><trkpt lat="44.112125096408256" lon="10.432714986411826"><ele>302.0</ele><time>2026-04-25T16:19:57.99Z</time></trkpt><trkpt lat="44.11208280005082" lon="10.4329328804439"><ele>302.0</ele><time>2026-04-25T16:19:58.99Z</time></trkpt><trkpt lat="44.11206128373639" lon="10.433149533242823"><ele>301.25</ele><time>2026-04-25T16:19:59.99Z</time></trkpt><trkpt lat="44.1120454749243" lon="10.43335500166453"><ele>300.5</ele><time>2026-04-25T16:20:00.99Z</time></trkpt><trkpt lat="44.11204301140589" lon="10.433554735044599"><ele>299.75</ele><time>2026-04-25T16:20:01.99Z</time></trkpt><trkpt lat="44.11206730191228" lon="10.433761946723846"><ele>299.0</ele><time>2026-04-25T16:20:02.99Z</time></trkpt><trkpt lat="44.112121741613514" lon="10.433969506003242"><ele>299.0</ele><time>2026-04-25T16:20:03.99Z</time></trkpt><trkpt lat="44.11219202570536" lon="10.434166452490171"><ele>299.0</ele><time>2026-04-25T16:20:04.99Z</time></trkpt><trkpt lat="44.11227817782403" lon="10.434358811070036"><ele>299.0</ele><time>2026-04-25T16:20:05.99Z</time></trkpt><trkpt lat="44.11238304560989" lon="10.434530876719007"><ele>289.33333333333337</ele><time>2026-04-25T16:20:06.99Z</time></trkpt><trkpt lat="44.11250083140644" lon="10.434693276656036"><ele>279.6666666666667</ele><time>2026-04-25T16:20:07.99Z</time></trkpt><trkpt lat="44.11262704729289" lon="10.434849606113627"><ele>270.0</ele><time>2026-04-25T16:20:08.99Z</time></trkpt><trkpt lat="44.11276593467401" lon="10.434976809007038"><ele>270.0</ele><time>2026-04-25T16:20:09.99Z</time></trkpt><trkpt lat="44.112922860211036" lon="10.435073827250976"><ele>270.0</ele><time>2026-04-25T16:20:10.99Z</time></trkpt><trkpt lat="44.113096248762744" lon="10.435147027480594"><ele>270.0</ele><time>2026-04-25T16:20:11.99Z</time></trkpt><trkpt lat="44.11327739188195" lon="10.435186012667506"><ele>264.6666666666667</ele><time>2026-04-25T16:20:12.99Z</time></trkpt><trkpt lat="44.11346830083111" lon="10.435222239285554"><ele>259.33333333333337</ele><time>2026-04-25T16:20:13.99Z</time></trkpt><trkpt lat="44.11366470027054" lon="10.435225038999922"><ele>254.0</ele><time>2026-04-25T16:20:14.99Z</time></trkpt><trkpt lat="44.11387704015392" lon="10.435231247667634"><ele>252.0</ele><time>2026-04-25T16:20:15.99Z</time></trkpt><trkpt lat="44.114104735169875" lon="10.435246884301339"><ele>250.0</ele><time>2026-04-25T16:20:16.99Z</time></trkpt><trkpt lat="44.11434447664526" lon="10.435276384419218"><ele>250.0</ele><time>2026-04-25T16:20:17.99Z</time></trkpt><trkpt lat="44.114593825041766" lon="10.43530534942968"><ele>250.0</ele><time>2026-04-25T16:20:18.99Z</time></trkpt><trkpt lat="44.1148467442905" lon="10.435336249014146"><ele>249.5</ele><time>2026-04-25T16:20:19.99Z</time></trkpt><trkpt lat="44.11509097916767" lon="10.435364047737057"><ele>249.0</ele><time>2026-04-25T16:20:20.99Z</time></trkpt><trkpt lat="44.115323465401126" lon="10.435391998040576"><ele>252.66666666666669</ele><time>2026-04-25T16:20:21.99Z</time></trkpt><trkpt lat="44.115523852945884" lon="10.435495775576628"><ele>256.33333333333337</ele><time>2026-04-25T16:20:22.99Z</time></trkpt><trkpt lat="44.11572579937831" lon="10.435630822548525"><ele>260.0</ele><time>2026-04-25T16:20:23.99Z</time></trkpt><trkpt lat="44.11590428414138" lon="10.435811502024396"><ele>260.0</ele><time>2026-04-25T16:20:24.99Z</time></trkpt><trkpt lat="44.11605254481864" lon="10.436038867118043"><ele>260.0</ele><time>2026-04-25T16:20:25.99Z</time></trkpt><trkpt lat="44.11615529208869" lon="10.43628552850449"><ele>260.0</ele><time>2026-04-25T16:20:26.99Z</time></trkpt><trkpt lat="44.11622208082883" lon="10.436535271854758"><ele>262.0</ele><time>2026-04-25T16:20:27.99Z</time></trkpt><trkpt lat="44.116243547222254" lon="10.436817810118615"><ele>264.0</ele><time>2026-04-25T16:20:28.99Z</time></trkpt><trkpt lat="44.11625055117817" lon="10.43710287247919"><ele>266.0</ele><time>2026-04-25T16:20:29.99Z</time></trkpt><trkpt lat="44.11622137287477" lon="10.43741287196977"><ele>266.0</ele><time>2026-04-25T16:20:30.99Z</time></trkpt><trkpt lat="44.116210514508985" lon="10.43768643016553"><ele>266.0</ele><time>2026-04-25T16:20:31.99Z</time></trkpt><trkpt lat="44.11620478356751" lon="10.43795170793012"><ele>266.0</ele><time>2026-04-25T16:20:32.99Z</time></trkpt><trkpt lat="44.116265729067294" lon="10.43823333910571"><ele>269.6666666666667</ele><time>2026-04-25T16:20:33.99Z</time></trkpt><trkpt lat="44.1163253379427" lon="10.438520800572045"><ele>273.3333333333333</ele><time>2026-04-25T16:20:34.99Z</time></trkpt><trkpt lat="44.11640738522491" lon="10.438786121190208"><ele>277.0</ele><time>2026-04-25T16:20:35.99Z</time></trkpt><trkpt lat="44.116457411593814" lon="10.439035413410004"><ele>277.3333333333333</ele><time>2026-04-25T16:20:36.99Z</time></trkpt><trkpt lat="44.11651468310736" lon="10.439258688590753"><ele>277.6666666666667</ele><time>2026-04-25T16:20:37.99Z</time></trkpt><trkpt lat="44.1165918718631" lon="10.439467083785559"><ele>278.0</ele><time>2026-04-25T16:20:38.99Z</time></trkpt><trkpt lat="44.116650248478976" lon="10.439673307423483"><ele>278.0</ele><time>2026-04-25T16:20:39.99Z</time></trkpt><trkpt lat="44.11672631762261" lon="10.43985473343127"><ele>278.0</ele><time>2026-04-25T16:20:40.99Z</time></trkpt><trkpt lat="44.11679472673082" lon="10.440024830118352"><ele>278.0</ele><time>2026-04-25T16:20:41.99Z</time></trkpt><trkpt lat="44.11691031378488" lon="10.440200836609545"><ele>278.0</ele><time>2026-04-25T16:20:42.99Z</time></trkpt><trkpt lat="44.1170573778046" lon="10.440439159673003"><ele>278.0</ele><time>2026-04-25T16:20:43.99Z</time></trkpt><trkpt lat="44.11723056781835" lon="10.440621523051083"><ele>278.0</ele><time>2026-04-25T16:20:44.99Z</time></trkpt><trkpt lat="44.11741477652705" lon="10.44081018648858"><ele>271.0</ele><time>2026-04-25T16:20:45.989Z</time></trkpt><trkpt lat="44.11759061202641" lon="10.441021046932292"><ele>264.0</ele><time>2026-04-25T16:20:46.989Z</time></trkpt><trkpt lat="44.117761078555944" lon="10.44121763381604"><ele>272.3333333333333</ele><time>2026-04-25T16:20:47.989Z</time></trkpt><trkpt lat="44.1179076881594" lon="10.441429471038964"><ele>280.66666666666663</ele><time>2026-04-25T16:20:48.989Z</time></trkpt><trkpt lat="44.118017910307856" lon="10.44166496620159"><ele>289.0</ele><time>2026-04-25T16:20:49.989Z</time></trkpt><trkpt lat="44.11810151207635" lon="10.44192988272353"><ele>294.0</ele><time>2026-04-25T16:20:50.989Z</time></trkpt><trkpt lat="44.11814188040285" lon="10.442190076035402"><ele>299.0</ele><time>2026-04-25T16:20:51.989Z</time></trkpt><trkpt lat="44.11814088812997" lon="10.442471409430928"><ele>304.0</ele><time>2026-04-25T16:20:52.989Z</time></trkpt><trkpt lat="44.11813019107151" lon="10.44275294801404"><ele>299.66666666666663</ele><time>2026-04-25T16:20:53.989Z</time></trkpt><trkpt lat="44.11809876387734" lon="10.443019990203082"><ele>295.3333333333333</ele><time>2026-04-25T16:20:54.989Z</time></trkpt><trkpt lat="44.11805604034945" lon="10.44327225251153"><ele>291.0</ele><time>2026-04-25T16:20:55.989Z</time></trkpt><trkpt lat="44.11798236046813" lon="10.443498306726136"><ele>291.0</ele><time>2026-04-25T16:20:56.989Z</time></trkpt><trkpt lat="44.1179291023721" lon="10.44373318546869"><ele>291.0</ele><time>2026-04-25T16:20:57.989Z</time></trkpt><trkpt lat="44.117894848224516" lon="10.443958020776455"><ele>291.0</ele><time>2026-04-25T16:20:58.989Z</time></trkpt><trkpt lat="44.11768605463204" lon="10.444123607877374"><ele>291.3333333333333</ele><time>2026-04-25T16:20:59.989Z</time></trkpt><trkpt lat="44.11753539228622" lon="10.444282718149045"><ele>291.66666666666663</ele><time>2026-04-25T16:21:00.989Z</time></trkpt><trkpt lat="44.11735959148625" lon="10.444420210465678"><ele>292.0</ele><time>2026-04-25T16:21:01.989Z</time></trkpt><trkpt lat="44.11716903992187" lon="10.444534442269946"><ele>276.66666666666663</ele><time>2026-04-25T16:21:02.989Z</time></trkpt><trkpt lat="44.11697965705191" lon="10.444656160822635"><ele>261.3333333333333</ele><time>2026-04-25T16:21:03.989Z</time></trkpt><trkpt lat="44.11678516250236" lon="10.44477011894266"><ele>246.0</ele><time>2026-04-25T16:21:04.989Z</time></trkpt><trkpt lat="44.11659055795876" lon="10.444866941271131"><ele>248.33333333333331</ele><time>2026-04-25T16:21:05.989Z</time></trkpt><trkpt lat="44.1163940133816" lon="10.444948685655211"><ele>250.66666666666666</ele><time>2026-04-25T16:21:06.989Z</time></trkpt><trkpt lat="44.116193572524814" lon="10.445024304544594"><ele>253.0</ele><time>2026-04-25T16:21:07.989Z</time></trkpt><trkpt lat="44.11599391810265" lon="10.445110039779765"><ele>253.0</ele><time>2026-04-25T16:21:08.989Z</time></trkpt><trkpt lat="44.11579520580148" lon="10.445184687483469"><ele>253.0</ele><time>2026-04-25T16:21:09.989Z</time></trkpt><trkpt lat="44.11559700359444" lon="10.445269902702277"><ele>253.0</ele><time>2026-04-25T16:21:10.989Z</time></trkpt><trkpt lat="44.115403924561015" lon="10.445356402938275"><ele>248.0</ele><time>2026-04-25T16:21:11.989Z</time></trkpt><trkpt lat="44.115208410716356" lon="10.445440573865726"><ele>243.0</ele><time>2026-04-25T16:21:12.989Z</time></trkpt><trkpt lat="44.11502211076564" lon="10.445547682491798"><ele>238.0</ele><time>2026-04-25T16:21:13.989Z</time></trkpt><trkpt lat="44.11484936226744" lon="10.44568198996"><ele>255.66666666666666</ele><time>2026-04-25T16:21:14.989Z</time></trkpt><trkpt lat="44.114685782882034" lon="10.445827508187854"><ele>273.3333333333333</ele><time>2026-04-25T16:21:15.989Z</time></trkpt><trkpt lat="44.11453348904974" lon="10.446006372577964"><ele>291.0</ele><time>2026-04-25T16:21:16.989Z</time></trkpt><trkpt lat="44.11442744247995" lon="10.446202301107519"><ele>281.0</ele><time>2026-04-25T16:21:17.989Z</time></trkpt><trkpt lat="44.11433525508243" lon="10.446429207696818"><ele>271.0</ele><time>2026-04-25T16:21:18.989Z</time></trkpt><trkpt lat="44.11426744735926" lon="10.446668465323997"><ele>261.0</ele><time>2026-04-25T16:21:19.989Z</time></trkpt><trkpt lat="44.11422496392331" lon="10.44691866329641"><ele>256.3333333333333</ele><time>2026-04-25T16:21:20.989Z</time></trkpt><trkpt lat="44.11418183947928" lon="10.447170006462043"><ele>251.66666666666666</ele><time>2026-04-25T16:21:21.989Z</time></trkpt><trkpt lat="44.11414580173937" lon="10.447421524172851"><ele>247.0</ele><time>2026-04-25T16:21:22.989Z</time></trkpt><trkpt lat="44.114124110885435" lon="10.447681601660031"><ele>247.0</ele><time>2026-04-25T16:21:23.989Z</time></trkpt><trkpt lat="44.11410664087696" lon="10.447929047497539"><ele>247.0</ele><time>2026-04-25T16:21:24.989Z</time></trkpt><trkpt lat="44.11409748722525" lon="10.448162275437445"><ele>247.0</ele><time>2026-04-25T16:21:25.989Z</time></trkpt><trkpt lat="44.114090918542274" lon="10.448397532891027"><ele>256.66666666666663</ele><time>2026-04-25T16:21:26.989Z</time></trkpt><trkpt lat="44.11406930521397" lon="10.448637906032952"><ele>266.3333333333333</ele><time>2026-04-25T16:21:27.989Z</time></trkpt><trkpt lat="44.114040765388076" lon="10.448869853748889"><ele>276.0</ele><time>2026-04-25T16:21:28.989Z</time></trkpt><trkpt lat="44.11400809430336" lon="10.449094066481322"><ele>276.0</ele><time>2026-04-25T16:21:29.989Z</time></trkpt><trkpt lat="44.11395968509685" lon="10.449317251905937"><ele>276.0</ele><time>2026-04-25T16:21:30.989Z</time></trkpt><trkpt lat="44.11389186406866" lon="10.44953190345547"><ele>276.0</ele><time>2026-04-25T16:21:31.989Z</time></trkpt><trkpt lat="44.11381326495674" lon="10.449737958446793"><ele>270.0</ele><time>2026-04-25T16:21:32.989Z</time></trkpt><trkpt lat="44.11370455188414" lon="10.44991633084986"><ele>264.0</ele><time>2026-04-25T16:21:33.989Z</time></trkpt><trkpt lat="44.11357566055563" lon="10.450082498266863"><ele>258.0</ele><time>2026-04-25T16:21:34.989Z</time></trkpt><trkpt lat="44.11343710641335" lon="10.450232814496598"><ele>258.0</ele><time>2026-04-25T16:21:35.989Z</time></trkpt><trkpt lat="44.11329447716775" lon="10.45036305595009"><ele>258.0</ele><time>2026-04-25T16:21:36.989Z</time></trkpt><trkpt lat="44.113144708338574" lon="10.450478103199861"><ele>258.0</ele><time>2026-04-25T16:21:37.989Z</time></trkpt><trkpt lat="44.11299527357597" lon="10.450588459164997"><ele>255.33333333333331</ele><time>2026-04-25T16:21:38.989Z</time></trkpt><trkpt lat="44.112858192870235" lon="10.450731762305194"><ele>252.66666666666666</ele><time>2026-04-25T16:21:39.989Z</time></trkpt><trkpt lat="44.11270049570728" lon="10.450842461100235"><ele>250.0</ele><time>2026-04-25T16:21:40.989Z</time></trkpt><trkpt lat="44.112538542863305" lon="10.450946580337964"><ele>248.66666666666666</ele><time>2026-04-25T16:21:41.989Z</time></trkpt><trkpt lat="44.112368332319434" lon="10.451026944902814"><ele>247.33333333333331</ele><time>2026-04-25T16:21:42.989Z</time></trkpt><trkpt lat="44.11219264712111" lon="10.451076271573594"><ele>246.0</ele><time>2026-04-25T16:21:43.989Z</time></trkpt><trkpt lat="44.11201335930738" lon="10.451100788311242"><ele>246.0</ele><time>2026-04-25T16:21:44.989Z</time></trkpt><trkpt lat="44.111836116039235" lon="10.451104019588175"><ele>246.0</ele><time>2026-04-25T16:21:45.989Z</time></trkpt><trkpt lat="44.11166072131601" lon="10.451055667077167"><ele>246.0</ele><time>2026-04-25T16:21:46.989Z</time></trkpt><trkpt lat="44.11149210986128" lon="10.450981766661831"><ele>242.66666666666669</ele><time>2026-04-25T16:21:47.989Z</time></trkpt><trkpt lat="44.11132175194782" lon="10.45091959670783"><ele>239.33333333333334</ele><time>2026-04-25T16:21:48.989Z</time></trkpt><trkpt lat="44.11114742460019" lon="10.450848924075277"><ele>236.0</ele><time>2026-04-25T16:21:49.989Z</time></trkpt><trkpt lat="44.110981047038464" lon="10.450795974769933"><ele>236.0</ele><time>2026-04-25T16:21:50.989Z</time></trkpt><trkpt lat="44.11080574187092" lon="10.450761442892574"><ele>236.0</ele><time>2026-04-25T16:21:51.989Z</time></trkpt><trkpt lat="44.11063109925933" lon="10.450735982147133"><ele>236.0</ele><time>2026-04-25T16:21:52.989Z</time></trkpt><trkpt lat="44.110451867921064" lon="10.45071323863453"><ele>234.66666666666669</ele><time>2026-04-25T16:21:53.989Z</time></trkpt><trkpt lat="44.110272187872766" lon="10.450673845512913"><ele>233.33333333333331</ele><time>2026-04-25T16:21:54.989Z</time></trkpt><trkpt lat="44.110087087288136" lon="10.450636635932913"><ele>232.0</ele><time>2026-04-25T16:21:55.989Z</time></trkpt><trkpt lat="44.109888726777406" lon="10.45059385911774"><ele>229.33333333333331</ele><time>2026-04-25T16:21:56.989Z</time></trkpt><trkpt lat="44.10968928015793" lon="10.4505069829232"><ele>226.66666666666669</ele><time>2026-04-25T16:21:57.989Z</time></trkpt><trkpt lat="44.10948041835867" lon="10.450469360690805"><ele>224.0</ele><time>2026-04-25T16:21:58.989Z</time></trkpt><trkpt lat="44.10927090180307" lon="10.450428587745536"><ele>228.33333333333334</ele><time>2026-04-25T16:21:59.989Z</time></trkpt><trkpt lat="44.10905469635792" lon="10.450381098879566"><ele>232.66666666666669</ele><time>2026-04-25T16:22:00.989Z</time></trkpt><trkpt lat="44.108843571207025" lon="10.45032457671712"><ele>237.0</ele><time>2026-04-25T16:22:01.989Z</time></trkpt><trkpt lat="44.10862437406414" lon="10.450252869545091"><ele>237.0</ele><time>2026-04-25T16:22:02.989Z</time></trkpt><trkpt lat="44.10840891899563" lon="10.450168783412456"><ele>237.0</ele><time>2026-04-25T16:22:03.989Z</time></trkpt><trkpt lat="44.10819089479167" lon="10.45005830109108"><ele>231.0</ele><time>2026-04-25T16:22:04.989Z</time></trkpt><trkpt lat="44.10797168532236" lon="10.449946268245403"><ele>225.0</ele><time>2026-04-25T16:22:05.989Z</time></trkpt><trkpt lat="44.10776919232318" lon="10.449763192510517"><ele>236.0</ele><time>2026-04-25T16:22:06.989Z</time></trkpt><trkpt lat="44.107589512679475" lon="10.4495712123284"><ele>247.0</ele><time>2026-04-25T16:22:07.989Z</time></trkpt><trkpt lat="44.10741611436274" lon="10.449340582123993"><ele>235.0</ele><time>2026-04-25T16:22:08.988Z</time></trkpt><trkpt lat="44.10722528229236" lon="10.449099114188478"><ele>223.0</ele><time>2026-04-25T16:22:09.988Z</time></trkpt><trkpt lat="44.10700678128527" lon="10.448841189988999"><ele>240.0</ele><time>2026-04-25T16:22:10.988Z</time></trkpt><trkpt lat="44.10674142395783" lon="10.44870895905706"><ele>257.0</ele><time>2026-04-25T16:22:11.988Z</time></trkpt><trkpt lat="44.10651188205938" lon="10.448638594961729"><ele>257.0</ele><time>2026-04-25T16:22:12.988Z</time></trkpt><trkpt lat="44.10634398562458" lon="10.44859465823462"><ele>257.0</ele><time>2026-04-25T16:22:13.988Z</time></trkpt><trkpt lat="44.10620770069752" lon="10.448565415278075"><ele>257.0</ele><time>2026-04-25T16:22:14.988Z</time></trkpt><trkpt lat="44.10596481609894" lon="10.44854623283861"><ele>257.33333333333337</ele><time>2026-04-25T16:22:15.988Z</time></trkpt><trkpt lat="44.105742108143104" lon="10.4486058210126"><ele>257.6666666666667</ele><time>2026-04-25T16:22:16.988Z</time></trkpt><trkpt lat="44.10553086030017" lon="10.448673760571552"><ele>258.0</ele><time>2026-04-25T16:22:17.988Z</time></trkpt><trkpt lat="44.10532001249453" lon="10.448771465003135"><ele>255.5</ele><time>2026-04-25T16:22:18.988Z</time></trkpt><trkpt lat="44.10509286712378" lon="10.44883641743308"><ele>253.0</ele><time>2026-04-25T16:22:19.988Z</time></trkpt><trkpt lat="44.10486160080221" lon="10.44891507943185"><ele>253.0</ele><time>2026-04-25T16:22:20.988Z</time></trkpt><trkpt lat="44.104649049974185" lon="10.449053994838263"><ele>253.0</ele><time>2026-04-25T16:22:21.988Z</time></trkpt><trkpt lat="44.10443977499232" lon="10.44920655244171"><ele>253.0</ele><time>2026-04-25T16:22:22.988Z</time></trkpt><trkpt lat="44.104237130452354" lon="10.449375962323321"><ele>253.0</ele><time>2026-04-25T16:22:23.988Z</time></trkpt><trkpt lat="44.10404433549101" lon="10.449545291317115"><ele>256.3333333333333</ele><time>2026-04-25T16:22:24.988Z</time></trkpt><trkpt lat="44.10385143776376" lon="10.44973015551399"><ele>259.6666666666667</ele><time>2026-04-25T16:22:25.988Z</time></trkpt><trkpt lat="44.10370005831743" lon="10.449937502041035"><ele>263.0</ele><time>2026-04-25T16:22:26.988Z</time></trkpt><trkpt lat="44.103565078845456" lon="10.450146656922604"><ele>263.0</ele><time>2026-04-25T16:22:27.988Z</time></trkpt><trkpt lat="44.10344164141612" lon="10.450384918719005"><ele>263.0</ele><time>2026-04-25T16:22:28.988Z</time></trkpt><trkpt lat="44.103325754389" lon="10.450743593252914"><ele>264.5</ele><time>2026-04-25T16:22:29.988Z</time></trkpt><trkpt lat="44.10320172146899" lon="10.451024719412548"><ele>266.0</ele><time>2026-04-25T16:22:30.988Z</time></trkpt><trkpt lat="44.103083893851625" lon="10.451311164520039"><ele>266.0</ele><time>2026-04-25T16:22:31.988Z</time></trkpt><trkpt lat="44.102975512104784" lon="10.451593996855108"><ele>266.0</ele><time>2026-04-25T16:22:32.988Z</time></trkpt><trkpt lat="44.102866948221816" lon="10.451865617411256"><ele>257.33333333333337</ele><time>2026-04-25T16:22:33.988Z</time></trkpt><trkpt lat="44.102772805966985" lon="10.45214231378007"><ele>248.66666666666669</ele><time>2026-04-25T16:22:34.988Z</time></trkpt><trkpt lat="44.10265751341499" lon="10.452397107245044"><ele>240.0</ele><time>2026-04-25T16:22:35.988Z</time></trkpt><trkpt lat="44.10251270492667" lon="10.45263882111721"><ele>244.66666666666669</ele><time>2026-04-25T16:22:36.988Z</time></trkpt><trkpt lat="44.10236718355532" lon="10.452864421735159"><ele>249.33333333333334</ele><time>2026-04-25T16:22:37.988Z</time></trkpt><trkpt lat="44.10219414935766" lon="10.453073725714846"><ele>254.0</ele><time>2026-04-25T16:22:38.988Z</time></trkpt><trkpt lat="44.10201994258538" lon="10.453310967792495"><ele>254.0</ele><time>2026-04-25T16:22:39.988Z</time></trkpt><trkpt lat="44.10184217044069" lon="10.45352951805486"><ele>254.0</ele><time>2026-04-25T16:22:40.988Z</time></trkpt><trkpt lat="44.1016837059698" lon="10.453752349716916"><ele>262.0</ele><time>2026-04-25T16:22:41.988Z</time></trkpt><trkpt lat="44.10151354088583" lon="10.45399101479947"><ele>270.0</ele><time>2026-04-25T16:22:42.988Z</time></trkpt><trkpt lat="44.101341024867516" lon="10.454220705644415"><ele>270.0</ele><time>2026-04-25T16:22:43.988Z</time></trkpt><trkpt lat="44.10116489375915" lon="10.454448679131698"><ele>270.0</ele><time>2026-04-25T16:22:44.988Z</time></trkpt><trkpt lat="44.100989082472246" lon="10.454681646918898"><ele>271.5</ele><time>2026-04-25T16:22:45.988Z</time></trkpt><trkpt lat="44.10081393661829" lon="10.454894628907722"><ele>273.0</ele><time>2026-04-25T16:22:46.988Z</time></trkpt><trkpt lat="44.10062815355654" lon="10.455104328903793"><ele>273.0</ele><time>2026-04-25T16:22:47.988Z</time></trkpt><trkpt lat="44.10041812108944" lon="10.455274351154241"><ele>273.0</ele><time>2026-04-25T16:22:48.988Z</time></trkpt><trkpt lat="44.10021344728818" lon="10.455428593336075"><ele>255.5</ele><time>2026-04-25T16:22:49.988Z</time></trkpt><trkpt lat="44.099997443262716" lon="10.455565071636872"><ele>238.0</ele><time>2026-04-25T16:22:50.988Z</time></trkpt><trkpt lat="44.09978358103195" lon="10.455693502768973"><ele>238.0</ele><time>2026-04-25T16:22:51.988Z</time></trkpt><trkpt lat="44.09955042883508" lon="10.45576118324764"><ele>238.0</ele><time>2026-04-25T16:22:52.988Z</time></trkpt><trkpt lat="44.09934062130113" lon="10.455865470040795"><ele>238.0</ele><time>2026-04-25T16:22:53.988Z</time></trkpt><trkpt lat="44.099121063607015" lon="10.45595751603595"><ele>238.0</ele><time>2026-04-25T16:22:54.988Z</time></trkpt><trkpt lat="44.09890459341632" lon="10.456037630590327"><ele>241.0</ele><time>2026-04-25T16:22:55.988Z</time></trkpt><trkpt lat="44.098685796842396" lon="10.456100195002032"><ele>244.0</ele><time>2026-04-25T16:22:56.988Z</time></trkpt><trkpt lat="44.0984718743104" lon="10.456158253788402"><ele>247.0</ele><time>2026-04-25T16:22:57.988Z</time></trkpt><trkpt lat="44.098256204357455" lon="10.456195984893082"><ele>247.33333333333331</ele><time>2026-04-25T16:22:58.988Z</time></trkpt><trkpt lat="44.09804164618364" lon="10.456226199296148"><ele>247.66666666666669</ele><time>2026-04-25T16:22:59.988Z</time></trkpt><trkpt lat="44.097826803831786" lon="10.456272617762634"><ele>248.0</ele><time>2026-04-25T16:23:00.988Z</time></trkpt><trkpt lat="44.09759986354399" lon="10.456297408797631"><ele>232.5</ele><time>2026-04-25T16:23:01.988Z</time></trkpt><trkpt lat="44.097365892682184" lon="10.45631553919746"><ele>217.0</ele><time>2026-04-25T16:23:02.988Z</time></trkpt><trkpt lat="44.09713113425408" lon="10.456329713955752"><ele>217.0</ele><time>2026-04-25T16:23:03.988Z</time></trkpt><trkpt lat="44.09689300047555" lon="10.456364957454403"><ele>217.0</ele><time>2026-04-25T16:23:04.988Z</time></trkpt><trkpt lat="44.096663954253195" lon="10.456410696189383"><ele>217.5</ele><time>2026-04-25T16:23:05.988Z</time></trkpt><trkpt lat="44.09643955343244" lon="10.45647945619006"><ele>218.0</ele><time>2026-04-25T16:23:06.988Z</time></trkpt><trkpt lat="44.09622009189101" lon="10.45655516340116"><ele>218.0</ele><time>2026-04-25T16:23:07.988Z</time></trkpt><trkpt lat="44.09599777440399" lon="10.456614584675139"><ele>218.0</ele><time>2026-04-25T16:23:08.988Z</time></trkpt><trkpt lat="44.09576465637494" lon="10.456659365639627"><ele>219.0</ele><time>2026-04-25T16:23:09.988Z</time></trkpt><trkpt lat="44.09553453075957" lon="10.456689571274866"><ele>220.0</ele><time>2026-04-25T16:23:10.988Z</time></trkpt><trkpt lat="44.09530869897348" lon="10.456721250160022"><ele>220.0</ele><time>2026-04-25T16:23:11.988Z</time></trkpt><trkpt lat="44.09508221752717" lon="10.456728916652107"><ele>220.0</ele><time>2026-04-25T16:23:12.988Z</time></trkpt><trkpt lat="44.09485643108628" lon="10.456729765363741"><ele>217.66666666666666</ele><time>2026-04-25T16:23:13.988Z</time></trkpt><trkpt lat="44.09464242628116" lon="10.456706867559477"><ele>215.33333333333331</ele><time>2026-04-25T16:23:14.988Z</time></trkpt><trkpt lat="44.094435587887695" lon="10.456676219276215"><ele>213.0</ele><time>2026-04-25T16:23:15.988Z</time></trkpt><trkpt lat="44.09425001615552" lon="10.456638195444889"><ele>211.0</ele><time>2026-04-25T16:23:16.988Z</time></trkpt><trkpt lat="44.0940722646412" lon="10.456576214753262"><ele>209.0</ele><time>2026-04-25T16:23:17.988Z</time></trkpt><trkpt lat="44.09391361385701" lon="10.456480860845469"><ele>207.0</ele><time>2026-04-25T16:23:18.988Z</time></trkpt><trkpt lat="44.09377076751143" lon="10.456363323324918"><ele>210.0</ele><time>2026-04-25T16:23:19.988Z</time></trkpt><trkpt lat="44.09363862313818" lon="10.456239300728287"><ele>213.0</ele><time>2026-04-25T16:23:20.988Z</time></trkpt><trkpt lat="44.09351637967292" lon="10.456110739662648"><ele>216.0</ele><time>2026-04-25T16:23:21.988Z</time></trkpt><trkpt lat="44.093400058343896" lon="10.455983976360901"><ele>216.0</ele><time>2026-04-25T16:23:22.988Z</time></trkpt><trkpt lat="44.093288395265375" lon="10.45586270057606"><ele>216.0</ele><time>2026-04-25T16:23:23.988Z</time></trkpt><trkpt lat="44.09317867170945" lon="10.455737148806396"><ele>216.0</ele><time>2026-04-25T16:23:24.988Z</time></trkpt><trkpt lat="44.09306798052743" lon="10.455592030920938"><ele>216.0</ele><time>2026-04-25T16:23:25.988Z</time></trkpt><trkpt lat="44.09296624177989" lon="10.455428810713116"><ele>213.25</ele><time>2026-04-25T16:23:26.988Z</time></trkpt><trkpt lat="44.09286702378732" lon="10.455266769320811"><ele>210.5</ele><time>2026-04-25T16:23:27.988Z</time></trkpt><trkpt lat="44.092791945089154" lon="10.455091967811763"><ele>207.75</ele><time>2026-04-25T16:23:28.988Z</time></trkpt><trkpt lat="44.09273911272636" lon="10.45490437865873"><ele>205.0</ele><time>2026-04-25T16:23:29.988Z</time></trkpt><trkpt lat="44.09270753940678" lon="10.454712309974326"><ele>205.25</ele><time>2026-04-25T16:23:30.987Z</time></trkpt><trkpt lat="44.0927025650257" lon="10.454515266241396"><ele>205.5</ele><time>2026-04-25T16:23:31.987Z</time></trkpt><trkpt lat="44.09271780683069" lon="10.454323719164556"><ele>205.75</ele><time>2026-04-25T16:23:32.987Z</time></trkpt><trkpt lat="44.092728441079366" lon="10.45412708364393"><ele>206.0</ele><time>2026-04-25T16:23:33.987Z</time></trkpt><trkpt lat="44.09274461191229" lon="10.453937229463632"><ele>207.25</ele><time>2026-04-25T16:23:34.987Z</time></trkpt><trkpt lat="44.09275759023698" lon="10.453745901039214"><ele>208.5</ele><time>2026-04-25T16:23:35.987Z</time></trkpt><trkpt lat="44.09276337126651" lon="10.453568779333237"><ele>209.75</ele><time>2026-04-25T16:23:36.987Z</time></trkpt><trkpt lat="44.0927731522795" lon="10.453396569723077"><ele>211.0</ele><time>2026-04-25T16:23:37.987Z</time></trkpt><trkpt lat="44.092761731703916" lon="10.453253850113446"><ele>211.0</ele><time>2026-04-25T16:23:38.987Z</time></trkpt><trkpt lat="44.09271346175983" lon="10.453115927098695"><ele>211.0</ele><time>2026-04-25T16:23:39.987Z</time></trkpt><trkpt lat="44.09263378545858" lon="10.452989365909108"><ele>211.0</ele><time>2026-04-25T16:23:40.987Z</time></trkpt><trkpt lat="44.092530138607444" lon="10.452872512301997"><ele>211.0</ele><time>2026-04-25T16:23:41.987Z</time></trkpt><trkpt lat="44.09241965879261" lon="10.452751645048735"><ele>211.0</ele><time>2026-04-25T16:23:42.987Z</time></trkpt><trkpt lat="44.0923136005381" lon="10.45263713087962"><ele>211.0</ele><time>2026-04-25T16:23:43.987Z</time></trkpt><trkpt lat="44.09220978850956" lon="10.45252346461946"><ele>211.0</ele><time>2026-04-25T16:23:44.987Z</time></trkpt><trkpt lat="44.09209596768731" lon="10.452431727688372"><ele>211.0</ele><time>2026-04-25T16:23:45.987Z</time></trkpt><trkpt lat="44.09196873324264" lon="10.45236566367477"><ele>211.0</ele><time>2026-04-25T16:23:46.987Z</time></trkpt><trkpt lat="44.091841489972175" lon="10.452298874878718"><ele>211.0</ele><time>2026-04-25T16:23:47.987Z</time></trkpt><trkpt lat="44.091704671049754" lon="10.452251144281275"><ele>211.0</ele><time>2026-04-25T16:23:48.987Z</time></trkpt><trkpt lat="44.091569646801126" lon="10.452219518014374"><ele>211.0</ele><time>2026-04-25T16:23:49.987Z</time></trkpt><trkpt lat="44.091435021694565" lon="10.452186863887537"><ele>211.5</ele><time>2026-04-25T16:23:50.987Z</time></trkpt><trkpt lat="44.09130341978127" lon="10.452142308471457"><ele>212.0</ele><time>2026-04-25T16:23:51.987Z</time></trkpt><trkpt lat="44.09118799589933" lon="10.452102031648876"><ele>212.5</ele><time>2026-04-25T16:23:52.987Z</time></trkpt><trkpt lat="44.09106502678721" lon="10.45208642979052"><ele>213.0</ele><time>2026-04-25T16:23:53.987Z</time></trkpt><trkpt lat="44.09095215488097" lon="10.452059993198935"><ele>213.0</ele><time>2026-04-25T16:23:54.987Z</time></trkpt><trkpt lat="44.090844570653836" lon="10.452037378478009"><ele>213.0</ele><time>2026-04-25T16:23:55.987Z</time></trkpt><trkpt lat="44.09074924223648" lon="10.452001611022476"><ele>213.0</ele><time>2026-04-25T16:23:56.987Z</time></trkpt><trkpt lat="44.09065677148184" lon="10.4519528587045"><ele>213.0</ele><time>2026-04-25T16:23:57.987Z</time></trkpt><trkpt lat="44.09058242158408" lon="10.451892203585306"><ele>213.0</ele><time>2026-04-25T16:23:58.987Z</time></trkpt><trkpt lat="44.09052560774372" lon="10.451811272109582"><ele>211.83333333333334</ele><time>2026-04-25T16:23:59.987Z</time></trkpt><trkpt lat="44.09047448563434" lon="10.45173934076565"><ele>210.66666666666669</ele><time>2026-04-25T16:24:00.987Z</time></trkpt><trkpt lat="44.09041794959461" lon="10.451650075597762"><ele>209.5</ele><time>2026-04-25T16:24:01.987Z</time></trkpt><trkpt lat="44.09036144601463" lon="10.451547580839556"><ele>208.33333333333334</ele><time>2026-04-25T16:24:02.987Z</time></trkpt><trkpt lat="44.09030038821989" lon="10.45144811532119"><ele>207.16666666666669</ele><time>2026-04-25T16:24:03.987Z</time></trkpt><trkpt lat="44.090233095157764" lon="10.451351995511217"><ele>206.0</ele><time>2026-04-25T16:24:04.987Z</time></trkpt><trkpt lat="44.0901630889569" lon="10.451243396540814"><ele>206.0</ele><time>2026-04-25T16:24:05.987Z</time></trkpt><trkpt lat="44.09008993911264" lon="10.451125298039537"><ele>206.0</ele><time>2026-04-25T16:24:06.987Z</time></trkpt><trkpt lat="44.09001513785063" lon="10.450998386400746"><ele>206.0</ele><time>2026-04-25T16:24:07.987Z</time></trkpt><trkpt lat="44.089934380654505" lon="10.45086755645542"><ele>206.0</ele><time>2026-04-25T16:24:08.987Z</time></trkpt><trkpt lat="44.08985487822122" lon="10.450735094004912"><ele>207.5</ele><time>2026-04-25T16:24:09.987Z</time></trkpt><trkpt lat="44.089772990567276" lon="10.450598965763836"><ele>209.0</ele><time>2026-04-25T16:24:10.987Z</time></trkpt><trkpt lat="44.08969030732304" lon="10.450472980489225"><ele>210.5</ele><time>2026-04-25T16:24:11.987Z</time></trkpt><trkpt lat="44.0896073681531" lon="10.450345940778794"><ele>212.0</ele><time>2026-04-25T16:24:12.987Z</time></trkpt><trkpt lat="44.089522028079514" lon="10.450228239033603"><ele>212.0</ele><time>2026-04-25T16:24:13.987Z</time></trkpt><trkpt lat="44.0894254836615" lon="10.450119193382108"><ele>212.0</ele><time>2026-04-25T16:24:14.987Z</time></trkpt><trkpt lat="44.089316992327575" lon="10.450050423749985"><ele>212.0</ele><time>2026-04-25T16:24:15.987Z</time></trkpt><trkpt lat="44.089198708352875" lon="10.45002443086598"><ele>212.0</ele><time>2026-04-25T16:24:16.987Z</time></trkpt><trkpt lat="44.089069189032294" lon="10.45001623294967"><ele>210.0</ele><time>2026-04-25T16:24:17.987Z</time></trkpt><trkpt lat="44.088930151624844" lon="10.45001848530229"><ele>208.0</ele><time>2026-04-25T16:24:18.987Z</time></trkpt><trkpt lat="44.08879959184101" lon="10.450009792110514"><ele>206.0</ele><time>2026-04-25T16:24:19.987Z</time></trkpt><trkpt lat="44.0886756714482" lon="10.449991822157164"><ele>204.0</ele><time>2026-04-25T16:24:20.987Z</time></trkpt><trkpt lat="44.08853771009281" lon="10.449957530858647"><ele>204.0</ele><time>2026-04-25T16:24:21.987Z</time></trkpt><trkpt lat="44.08839159579817" lon="10.44988222010957"><ele>204.0</ele><time>2026-04-25T16:24:22.987Z</time></trkpt><trkpt lat="44.08824468156931" lon="10.449809881173922"><ele>204.0</ele><time>2026-04-25T16:24:23.987Z</time></trkpt><trkpt lat="44.08809412200087" lon="10.449745684229738"><ele>201.66666666666669</ele><time>2026-04-25T16:24:24.987Z</time></trkpt><trkpt lat="44.08795388599607" lon="10.449631018427295"><ele>199.33333333333334</ele><time>2026-04-25T16:24:25.987Z</time></trkpt><trkpt lat="44.08779456949526" lon="10.449537099095465"><ele>197.0</ele><time>2026-04-25T16:24:26.987Z</time></trkpt><trkpt lat="44.087639701793115" lon="10.449403396549906"><ele>197.0</ele><time>2026-04-25T16:24:27.987Z</time></trkpt><trkpt lat="44.08746478184308" lon="10.449232487324744"><ele>197.0</ele><time>2026-04-25T16:24:28.987Z</time></trkpt><trkpt lat="44.08723742663629" lon="10.44904710056707"><ele>197.5</ele><time>2026-04-25T16:24:29.987Z</time></trkpt><trkpt lat="44.08700208828866" lon="10.44880512450039"><ele>198.0</ele><time>2026-04-25T16:24:30.987Z</time></trkpt><trkpt lat="44.08673146930107" lon="10.448571033934007"><ele>194.0</ele><time>2026-04-25T16:24:31.987Z</time></trkpt><trkpt lat="44.08644946029039" lon="10.448310250001349"><ele>190.0</ele><time>2026-04-25T16:24:32.987Z</time></trkpt><trkpt lat="44.086166154493824" lon="10.448037573017322"><ele>190.0</ele><time>2026-04-25T16:24:33.987Z</time></trkpt><trkpt lat="44.0858947211131" lon="10.447791123941464"><ele>190.0</ele><time>2026-04-25T16:24:34.987Z</time></trkpt><trkpt lat="44.08563502463556" lon="10.447553142328276"><ele>190.0</ele><time>2026-04-25T16:24:35.987Z</time></trkpt><trkpt lat="44.085383833421" lon="10.447327973412433"><ele>190.0</ele><time>2026-04-25T16:24:36.987Z</time></trkpt><trkpt lat="44.08512971296744" lon="10.447082237068205"><ele>188.5</ele><time>2026-04-25T16:24:37.987Z</time></trkpt><trkpt lat="44.08487282648589" lon="10.446847793341375"><ele>187.0</ele><time>2026-04-25T16:24:38.987Z</time></trkpt><trkpt lat="44.08460661487785" lon="10.446606360195604"><ele>187.0</ele><time>2026-04-25T16:24:39.987Z</time></trkpt><trkpt lat="44.08434629432204" lon="10.446360339681592"><ele>187.0</ele><time>2026-04-25T16:24:40.987Z</time></trkpt><trkpt lat="44.0840998260254" lon="10.4461285200537"><ele>186.0</ele><time>2026-04-25T16:24:41.987Z</time></trkpt><trkpt lat="44.08386450925104" lon="10.44590611517339"><ele>185.0</ele><time>2026-04-25T16:24:42.987Z</time></trkpt><trkpt lat="44.083628857059814" lon="10.44568339326773"><ele>186.0</ele><time>2026-04-25T16:24:43.987Z</time></trkpt><trkpt lat="44.08339018837615" lon="10.445459702264387"><ele>187.0</ele><time>2026-04-25T16:24:44.987Z</time></trkpt><trkpt lat="44.0831628405929" lon="10.445248390506686"><ele>185.0</ele><time>2026-04-25T16:24:45.987Z</time></trkpt><trkpt lat="44.08294556722008" lon="10.445047513889572"><ele>183.0</ele><time>2026-04-25T16:24:46.987Z</time></trkpt><trkpt lat="44.08274004180847" lon="10.444882609223903"><ele>183.0</ele><time>2026-04-25T16:24:47.987Z</time></trkpt><trkpt lat="44.08255381157519" lon="10.444710914115227"><ele>183.0</ele><time>2026-04-25T16:24:48.987Z</time></trkpt><trkpt lat="44.082374680968094" lon="10.444544789232186"><ele>183.0</ele><time>2026-04-25T16:24:49.987Z</time></trkpt><trkpt lat="44.08220254270714" lon="10.44437993057193"><ele>183.0</ele><time>2026-04-25T16:24:50.986Z</time></trkpt><trkpt lat="44.082039525873526" lon="10.44422357172828"><ele>183.0</ele><time>2026-04-25T16:24:51.986Z</time></trkpt><trkpt lat="44.08188412077131" lon="10.444080614219123"><ele>183.0</ele><time>2026-04-25T16:24:52.986Z</time></trkpt><trkpt lat="44.08173044302887" lon="10.443935849717407"><ele>182.66666666666666</ele><time>2026-04-25T16:24:53.986Z</time></trkpt><trkpt lat="44.08157358756099" lon="10.443791733637548"><ele>182.33333333333331</ele><time>2026-04-25T16:24:54.986Z</time></trkpt><trkpt lat="44.081400629478374" lon="10.443633185356038"><ele>182.0</ele><time>2026-04-25T16:24:55.986Z</time></trkpt><trkpt lat="44.081228770520305" lon="10.443469272408807"><ele>182.0</ele><time>2026-04-25T16:24:56.986Z</time></trkpt><trkpt lat="44.0810504275433" lon="10.443303758296608"><ele>182.0</ele><time>2026-04-25T16:24:57.986Z</time></trkpt><trkpt lat="44.08086826490207" lon="10.443135356343245"><ele>182.0</ele><time>2026-04-25T16:24:58.986Z</time></trkpt><trkpt lat="44.08068378513804" lon="10.442967961880488"><ele>182.5</ele><time>2026-04-25T16:24:59.986Z</time></trkpt><trkpt lat="44.08049504523179" lon="10.442801688871718"><ele>183.0</ele><time>2026-04-25T16:25:00.986Z</time></trkpt><trkpt lat="44.08029764408088" lon="10.44263909511103"><ele>183.0</ele><time>2026-04-25T16:25:01.986Z</time></trkpt><trkpt lat="44.080091475609514" lon="10.442493442663222"><ele>183.0</ele><time>2026-04-25T16:25:02.986Z</time></trkpt><trkpt lat="44.07987308682023" lon="10.442366098471982"><ele>184.5</ele><time>2026-04-25T16:25:03.986Z</time></trkpt><trkpt lat="44.07965016011346" lon="10.442261047614945"><ele>186.0</ele><time>2026-04-25T16:25:04.986Z</time></trkpt><trkpt lat="44.07942861275721" lon="10.442179411044888"><ele>193.5</ele><time>2026-04-25T16:25:05.986Z</time></trkpt><trkpt lat="44.07920431679241" lon="10.442119732782047"><ele>201.0</ele><time>2026-04-25T16:25:06.986Z</time></trkpt><trkpt lat="44.07897659946063" lon="10.442080572173792"><ele>201.0</ele><time>2026-04-25T16:25:07.986Z</time></trkpt><trkpt lat="44.078748839405826" lon="10.44205671332522"><ele>201.0</ele><time>2026-04-25T16:25:08.986Z</time></trkpt><trkpt lat="44.07852187116524" lon="10.442032215092949"><ele>201.0</ele><time>2026-04-25T16:25:09.986Z</time></trkpt><trkpt lat="44.07829405527446" lon="10.442011796529151"><ele>201.0</ele><time>2026-04-25T16:25:10.986Z</time></trkpt><trkpt lat="44.07807280537538" lon="10.441985102755131"><ele>198.5</ele><time>2026-04-25T16:25:11.986Z</time></trkpt><trkpt lat="44.077848528050566" lon="10.44197045275586"><ele>196.0</ele><time>2026-04-25T16:25:12.986Z</time></trkpt><trkpt lat="44.07762363503197" lon="10.441942211148444"><ele>194.66666666666666</ele><time>2026-04-25T16:25:13.986Z</time></trkpt><trkpt lat="44.07741877162301" lon="10.44190866735275"><ele>193.33333333333331</ele><time>2026-04-25T16:25:14.986Z</time></trkpt><trkpt lat="44.07721145772907" lon="10.441865247313343"><ele>192.0</ele><time>2026-04-25T16:25:15.986Z</time></trkpt><trkpt lat="44.077015765348044" lon="10.441811248492668"><ele>192.0</ele><time>2026-04-25T16:25:16.986Z</time></trkpt><trkpt lat="44.07683156681625" lon="10.441736571624258"><ele>192.0</ele><time>2026-04-25T16:25:17.986Z</time></trkpt><trkpt lat="44.07664551063897" lon="10.441666017798948"><ele>192.0</ele><time>2026-04-25T16:25:18.986Z</time></trkpt><trkpt lat="44.076469519945164" lon="10.441579632093513"><ele>191.66666666666666</ele><time>2026-04-25T16:25:19.986Z</time></trkpt><trkpt lat="44.07628602657731" lon="10.4414650471726"><ele>191.33333333333331</ele><time>2026-04-25T16:25:20.986Z</time></trkpt><trkpt lat="44.07609431180962" lon="10.441338828063301"><ele>191.0</ele><time>2026-04-25T16:25:21.986Z</time></trkpt><trkpt lat="44.07590027586304" lon="10.44119314085917"><ele>186.0</ele><time>2026-04-25T16:25:22.986Z</time></trkpt><trkpt lat="44.07570619669245" lon="10.441025150541691"><ele>181.0</ele><time>2026-04-25T16:25:23.986Z</time></trkpt><trkpt lat="44.07550215798366" lon="10.440849874985915"><ele>181.0</ele><time>2026-04-25T16:25:24.986Z</time></trkpt><trkpt lat="44.075306813810826" lon="10.440662183528541"><ele>181.0</ele><time>2026-04-25T16:25:25.986Z</time></trkpt><trkpt lat="44.07512216907241" lon="10.440481751756554"><ele>180.33333333333334</ele><time>2026-04-25T16:25:26.986Z</time></trkpt><trkpt lat="44.07494928951539" lon="10.440320842468145"><ele>179.66666666666666</ele><time>2026-04-25T16:25:27.986Z</time></trkpt><trkpt lat="44.07477626552383" lon="10.440175902038101"><ele>179.0</ele><time>2026-04-25T16:25:28.986Z</time></trkpt><trkpt lat="44.07460529156525" lon="10.440062028820275"><ele>179.0</ele><time>2026-04-25T16:25:29.986Z</time></trkpt><trkpt lat="44.07442625861762" lon="10.439950916610407"><ele>179.0</ele><time>2026-04-25T16:25:30.986Z</time></trkpt><trkpt lat="44.07424664315398" lon="10.439853063585343"><ele>179.0</ele><time>2026-04-25T16:25:31.986Z</time></trkpt><trkpt lat="44.07405113749313" lon="10.439780240323683"><ele>180.0</ele><time>2026-04-25T16:25:32.986Z</time></trkpt><trkpt lat="44.07386446910692" lon="10.439699765992252"><ele>181.0</ele><time>2026-04-25T16:25:33.986Z</time></trkpt><trkpt lat="44.073678010004926" lon="10.439643769942776"><ele>182.0</ele><time>2026-04-25T16:25:34.986Z</time></trkpt><trkpt lat="44.07349212961769" lon="10.439595402447674"><ele>184.66666666666666</ele><time>2026-04-25T16:25:35.986Z</time></trkpt><trkpt lat="44.07332377247189" lon="10.439563989856618"><ele>187.33333333333334</ele><time>2026-04-25T16:25:36.986Z</time></trkpt><trkpt lat="44.07315564012923" lon="10.439547165706756"><ele>190.0</ele><time>2026-04-25T16:25:37.986Z</time></trkpt><trkpt lat="44.07298933735421" lon="10.439547594654023"><ele>190.0</ele><time>2026-04-25T16:25:38.986Z</time></trkpt><trkpt lat="44.07282058990325" lon="10.439563138413357"><ele>190.0</ele><time>2026-04-25T16:25:39.986Z</time></trkpt><trkpt lat="44.07264930595572" lon="10.43958806622574"><ele>190.0</ele><time>2026-04-25T16:25:40.986Z</time></trkpt><trkpt lat="44.07247070406382" lon="10.439618424419313"><ele>190.33333333333334</ele><time>2026-04-25T16:25:41.986Z</time></trkpt><trkpt lat="44.072280542392704" lon="10.439651173860389"><ele>190.66666666666666</ele><time>2026-04-25T16:25:42.986Z</time></trkpt><trkpt lat="44.072086942833195" lon="10.439693680632837"><ele>191.0</ele><time>2026-04-25T16:25:43.986Z</time></trkpt><trkpt lat="44.071885623435634" lon="10.439739250740528"><ele>191.0</ele><time>2026-04-25T16:25:44.986Z</time></trkpt><trkpt lat="44.07167925390379" lon="10.439772341412233"><ele>191.0</ele><time>2026-04-25T16:25:45.986Z</time></trkpt><trkpt lat="44.07146604822053" lon="10.439817830078349"><ele>191.0</ele><time>2026-04-25T16:25:46.986Z</time></trkpt><trkpt lat="44.07124784391872" lon="10.439853222027295"><ele>190.33333333333331</ele><time>2026-04-25T16:25:47.986Z</time></trkpt><trkpt lat="44.0710238887964" lon="10.439900254579591"><ele>189.66666666666666</ele><time>2026-04-25T16:25:48.986Z</time></trkpt><trkpt lat="44.07080305217678" lon="10.439936864455563"><ele>189.0</ele><time>2026-04-25T16:25:49.986Z</time></trkpt><trkpt lat="44.07058166191295" lon="10.439979166971783"><ele>189.0</ele><time>2026-04-25T16:25:50.986Z</time></trkpt><trkpt lat="44.07036248657927" lon="10.440020108530963"><ele>189.0</ele><time>2026-04-25T16:25:51.986Z</time></trkpt><trkpt lat="44.070146032544756" lon="10.44005877439959"><ele>189.0</ele><time>2026-04-25T16:25:52.986Z</time></trkpt><trkpt lat="44.06993068241214" lon="10.440096719182954"><ele>188.0</ele><time>2026-04-25T16:25:53.986Z</time></trkpt><trkpt lat="44.06972600434869" lon="10.44013312794523"><ele>187.0</ele><time>2026-04-25T16:25:54.986Z</time></trkpt><trkpt lat="44.06953423797686" lon="10.440171225841663"><ele>186.0</ele><time>2026-04-25T16:25:55.986Z</time></trkpt><trkpt lat="44.06935389228159" lon="10.440208421132917"><ele>186.0</ele><time>2026-04-25T16:25:56.986Z</time></trkpt><trkpt lat="44.069181937846324" lon="10.44024379798655"><ele>186.0</ele><time>2026-04-25T16:25:57.986Z</time></trkpt><trkpt lat="44.069018085299525" lon="10.440266918776118"><ele>186.0</ele><time>2026-04-25T16:25:58.986Z</time></trkpt><trkpt lat="44.06885758775807" lon="10.440293287042998"><ele>186.25</ele><time>2026-04-25T16:25:59.986Z</time></trkpt><trkpt lat="44.06870193588231" lon="10.4403196898767"><ele>186.5</ele><time>2026-04-25T16:26:00.986Z</time></trkpt><trkpt lat="44.06855675575914" lon="10.440349183123947"><ele>186.75</ele><time>2026-04-25T16:26:01.986Z</time></trkpt><trkpt lat="44.06841647720217" lon="10.440380710074015"><ele>187.0</ele><time>2026-04-25T16:26:02.986Z</time></trkpt><trkpt lat="44.068277061865295" lon="10.440401272932629"><ele>187.75</ele><time>2026-04-25T16:26:03.986Z</time></trkpt><trkpt lat="44.068141877598755" lon="10.440431179635029"><ele>188.5</ele><time>2026-04-25T16:26:04.986Z</time></trkpt><trkpt lat="44.06800136447645" lon="10.440455708146384"><ele>189.25</ele><time>2026-04-25T16:26:05.986Z</time></trkpt><trkpt lat="44.067859989853424" lon="10.440484701494126"><ele>190.0</ele><time>2026-04-25T16:26:06.986Z</time></trkpt><trkpt lat="44.06770994720898" lon="10.4405110268509"><ele>188.33333333333334</ele><time>2026-04-25T16:26:07.986Z</time></trkpt><trkpt lat="44.0675554200847" lon="10.440540345577967"><ele>186.66666666666666</ele><time>2026-04-25T16:26:08.986Z</time></trkpt><trkpt lat="44.067398150963164" lon="10.440568091820536"><ele>185.0</ele><time>2026-04-25T16:26:09.986Z</time></trkpt><trkpt lat="44.067252606999894" lon="10.440598229339923"><ele>185.0</ele><time>2026-04-25T16:26:10.985Z</time></trkpt><trkpt lat="44.067111218936944" lon="10.440624707017495"><ele>185.0</ele><time>2026-04-25T16:26:11.985Z</time></trkpt><trkpt lat="44.066977081551265" lon="10.440649590358701"><ele>185.0</ele><time>2026-04-25T16:26:12.985Z</time></trkpt><trkpt lat="44.0668491867157" lon="10.44067262325903"><ele>185.0</ele><time>2026-04-25T16:26:13.985Z</time></trkpt><trkpt lat="44.06672533151618" lon="10.440689400408779"><ele>186.0</ele><time>2026-04-25T16:26:14.985Z</time></trkpt><trkpt lat="44.06661052430791" lon="10.44072056364894"><ele>187.0</ele><time>2026-04-25T16:26:15.985Z</time></trkpt><trkpt lat="44.066504929226475" lon="10.440740434112364"><ele>188.0</ele><time>2026-04-25T16:26:16.985Z</time></trkpt><trkpt lat="44.06639403948945" lon="10.440755249100471"><ele>189.0</ele><time>2026-04-25T16:26:17.985Z</time></trkpt><trkpt lat="44.066280398901824" lon="10.44077712402931"><ele>189.0</ele><time>2026-04-25T16:26:18.985Z</time></trkpt><trkpt lat="44.06616032255473" lon="10.440799406156264"><ele>189.0</ele><time>2026-04-25T16:26:19.985Z</time></trkpt><trkpt lat="44.066035423013496" lon="10.440823150787732"><ele>189.0</ele><time>2026-04-25T16:26:20.985Z</time></trkpt><trkpt lat="44.065910472072545" lon="10.440848175106659"><ele>189.0</ele><time>2026-04-25T16:26:21.985Z</time></trkpt><trkpt lat="44.06578535153661" lon="10.440875336931674"><ele>189.5</ele><time>2026-04-25T16:26:22.985Z</time></trkpt><trkpt lat="44.065645130724555" lon="10.44090682276261"><ele>190.0</ele><time>2026-04-25T16:26:23.985Z</time></trkpt><trkpt lat="44.065502735345056" lon="10.440946570795957"><ele>190.5</ele><time>2026-04-25T16:26:24.985Z</time></trkpt><trkpt lat="44.065362757577354" lon="10.440985308405953"><ele>191.0</ele><time>2026-04-25T16:26:25.985Z</time></trkpt><trkpt lat="44.06522215076874" lon="10.441027137644438"><ele>191.0</ele><time>2026-04-25T16:26:26.985Z</time></trkpt><trkpt lat="44.065082755876816" lon="10.441075222213769"><ele>191.0</ele><time>2026-04-25T16:26:27.985Z</time></trkpt><trkpt lat="44.06493808959525" lon="10.441125431285272"><ele>191.0</ele><time>2026-04-25T16:26:28.985Z</time></trkpt><trkpt lat="44.064796932937625" lon="10.441175190252235"><ele>191.0</ele><time>2026-04-25T16:26:29.985Z</time></trkpt><trkpt lat="44.06464848117402" lon="10.441229498987825"><ele>190.66666666666666</ele><time>2026-04-25T16:26:30.985Z</time></trkpt><trkpt lat="44.06449667375285" lon="10.441288337727215"><ele>190.33333333333334</ele><time>2026-04-25T16:26:31.985Z</time></trkpt><trkpt lat="44.0643412835891" lon="10.441350154937808"><ele>190.0</ele><time>2026-04-25T16:26:32.985Z</time></trkpt><trkpt lat="44.064187755005285" lon="10.441422998982484"><ele>188.66666666666669</ele><time>2026-04-25T16:26:33.985Z</time></trkpt><trkpt lat="44.06403332148908" lon="10.441496821807418"><ele>187.33333333333334</ele><time>2026-04-25T16:26:34.985Z</time></trkpt><trkpt lat="44.06387262720572" lon="10.441580209860184"><ele>186.0</ele><time>2026-04-25T16:26:35.985Z</time></trkpt><trkpt lat="44.06370740825297" lon="10.441669945674354"><ele>186.0</ele><time>2026-04-25T16:26:36.985Z</time></trkpt><trkpt lat="44.06353976461982" lon="10.44176902222579"><ele>186.0</ele><time>2026-04-25T16:26:37.985Z</time></trkpt><trkpt lat="44.06337191534665" lon="10.441877983592487"><ele>186.0</ele><time>2026-04-25T16:26:38.985Z</time></trkpt><trkpt lat="44.06320553477831" lon="10.441990189106034"><ele>185.66666666666666</ele><time>2026-04-25T16:26:39.985Z</time></trkpt><trkpt lat="44.0630369652257" lon="10.442108089477712"><ele>185.33333333333331</ele><time>2026-04-25T16:26:40.985Z</time></trkpt><trkpt lat="44.062870435586674" lon="10.442232172846355"><ele>185.0</ele><time>2026-04-25T16:26:41.985Z</time></trkpt><trkpt lat="44.06270577743513" lon="10.442363992989904"><ele>184.33333333333331</ele><time>2026-04-25T16:26:42.985Z</time></trkpt><trkpt lat="44.0625405026212" lon="10.442495640373773"><ele>183.66666666666666</ele><time>2026-04-25T16:26:43.985Z</time></trkpt><trkpt lat="44.06237752435556" lon="10.442629985872555"><ele>183.0</ele><time>2026-04-25T16:26:44.985Z</time></trkpt><trkpt lat="44.06222444663729" lon="10.442769292860639"><ele>183.0</ele><time>2026-04-25T16:26:45.985Z</time></trkpt><trkpt lat="44.0620689579027" lon="10.442904856472174"><ele>183.0</ele><time>2026-04-25T16:26:46.985Z</time></trkpt><trkpt lat="44.061916265665204" lon="10.443038465277365"><ele>183.0</ele><time>2026-04-25T16:26:47.985Z</time></trkpt><trkpt lat="44.061736639632684" lon="10.443146399933749"><ele>182.33333333333334</ele><time>2026-04-25T16:26:48.985Z</time></trkpt><trkpt lat="44.06153490852165" lon="10.443247014147335"><ele>181.66666666666669</ele><time>2026-04-25T16:26:49.985Z</time></trkpt><trkpt lat="44.06132947816626" lon="10.443341044726399"><ele>181.0</ele><time>2026-04-25T16:26:50.985Z</time></trkpt><trkpt lat="44.061127238285366" lon="10.443430820879854"><ele>181.0</ele><time>2026-04-25T16:26:51.985Z</time></trkpt><trkpt lat="44.06091989246872" lon="10.443506673075209"><ele>181.0</ele><time>2026-04-25T16:26:52.985Z</time></trkpt><trkpt lat="44.060730663477734" lon="10.443594934513206"><ele>181.0</ele><time>2026-04-25T16:26:53.985Z</time></trkpt><trkpt lat="44.06054675978298" lon="10.443698480128159"><ele>179.66666666666669</ele><time>2026-04-25T16:26:54.985Z</time></trkpt><trkpt lat="44.06036655148839" lon="10.44380423709826"><ele>178.33333333333334</ele><time>2026-04-25T16:26:55.985Z</time></trkpt><trkpt lat="44.06019426436407" lon="10.443919188639514"><ele>177.0</ele><time>2026-04-25T16:26:56.985Z</time></trkpt><trkpt lat="44.060029096259925" lon="10.444047849801564"><ele>176.66666666666666</ele><time>2026-04-25T16:26:57.985Z</time></trkpt><trkpt lat="44.059875436587" lon="10.444201337298098"><ele>176.33333333333331</ele><time>2026-04-25T16:26:58.985Z</time></trkpt><trkpt lat="44.05972682649937" lon="10.44436470861645"><ele>176.0</ele><time>2026-04-25T16:26:59.985Z</time></trkpt><trkpt lat="44.05958498667628" lon="10.444557278173928"><ele>174.66666666666666</ele><time>2026-04-25T16:27:00.985Z</time></trkpt><trkpt lat="44.05944057385013" lon="10.444765824390911"><ele>173.33333333333334</ele><time>2026-04-25T16:27:01.985Z</time></trkpt><trkpt lat="44.059289296929464" lon="10.444973014702061"><ele>172.0</ele><time>2026-04-25T16:27:02.985Z</time></trkpt><trkpt lat="44.05913539587404" lon="10.445182571951873"><ele>172.5</ele><time>2026-04-25T16:27:03.985Z</time></trkpt><trkpt lat="44.058972850393495" lon="10.445398244160119"><ele>173.0</ele><time>2026-04-25T16:27:04.985Z</time></trkpt><trkpt lat="44.05881070580976" lon="10.445618052235137"><ele>173.0</ele><time>2026-04-25T16:27:05.985Z</time></trkpt><trkpt lat="44.05864774958021" lon="10.445839197985917"><ele>173.0</ele><time>2026-04-25T16:27:06.985Z</time></trkpt><trkpt lat="44.05848993039376" lon="10.446050919139749"><ele>173.0</ele><time>2026-04-25T16:27:07.985Z</time></trkpt><trkpt lat="44.05833678995489" lon="10.446265490416955"><ele>172.66666666666666</ele><time>2026-04-25T16:27:08.985Z</time></trkpt><trkpt lat="44.05818303803672" lon="10.446479477147394"><ele>172.33333333333334</ele><time>2026-04-25T16:27:09.985Z</time></trkpt><trkpt lat="44.058034316302376" lon="10.446683669880736"><ele>172.0</ele><time>2026-04-25T16:27:10.985Z</time></trkpt><trkpt lat="44.057891687974504" lon="10.446883756594406"><ele>172.0</ele><time>2026-04-25T16:27:11.985Z</time></trkpt><trkpt lat="44.05774660239019" lon="10.447081810806983"><ele>172.0</ele><time>2026-04-25T16:27:12.985Z</time></trkpt><trkpt lat="44.05760957827" lon="10.447274887158294"><ele>172.0</ele><time>2026-04-25T16:27:13.985Z</time></trkpt><trkpt lat="44.057459471251356" lon="10.447456443916607"><ele>172.0</ele><time>2026-04-25T16:27:14.985Z</time></trkpt><trkpt lat="44.05731615184834" lon="10.447642337428062"><ele>172.0</ele><time>2026-04-25T16:27:15.985Z</time></trkpt><trkpt lat="44.05717585938485" lon="10.44783092686819"><ele>172.0</ele><time>2026-04-25T16:27:16.985Z</time></trkpt><trkpt lat="44.057041192766405" lon="10.448011062220859"><ele>171.0</ele><time>2026-04-25T16:27:17.985Z</time></trkpt><trkpt lat="44.05691101825969" lon="10.448183938395854"><ele>170.0</ele><time>2026-04-25T16:27:18.985Z</time></trkpt><trkpt lat="44.05678112716656" lon="10.448353257397208"><ele>169.0</ele><time>2026-04-25T16:27:19.985Z</time></trkpt><trkpt lat="44.05665580185687" lon="10.448519357711973"><ele>170.0</ele><time>2026-04-25T16:27:20.985Z</time></trkpt><trkpt lat="44.056530841577164" lon="10.448685072724793"><ele>171.0</ele><time>2026-04-25T16:27:21.985Z</time></trkpt><trkpt lat="44.05640624708635" lon="10.448849910147928"><ele>172.0</ele><time>2026-04-25T16:27:22.985Z</time></trkpt><trkpt lat="44.05628288406655" lon="10.449017930709973"><ele>172.0</ele><time>2026-04-25T16:27:24Z</time></trkpt><trkpt lat="44.05616380275384" lon="10.449175636634374"><ele>172.0</ele><time>2026-04-25T16:27:25Z</time></trkpt><trkpt lat="44.05604592793826" lon="10.449330786257159"><ele>172.0</ele><time>2026-04-25T16:27:26Z</time></trkpt><trkpt lat="44.05593243908913" lon="10.44948386302551"><ele>171.5</ele><time>2026-04-25T16:27:27Z</time></trkpt><trkpt lat="44.05582570661753" lon="10.449626667757778"><ele>171.0</ele><time>2026-04-25T16:27:28Z</time></trkpt><trkpt lat="44.055727403101855" lon="10.44975924746787"><ele>170.5</ele><time>2026-04-25T16:27:29Z</time></trkpt><trkpt lat="44.05563190666876" lon="10.449885927863749"><ele>170.0</ele><time>2026-04-25T16:27:30Z</time></trkpt><trkpt lat="44.05553962449481" lon="10.45000430498781"><ele>170.0</ele><time>2026-04-25T16:27:31Z</time></trkpt><trkpt lat="44.05544178999221" lon="10.450116627254387"><ele>170.0</ele><time>2026-04-25T16:27:32Z</time></trkpt><trkpt lat="44.05533270604428" lon="10.450225599568002"><ele>170.0</ele><time>2026-04-25T16:27:33Z</time></trkpt><trkpt lat="44.05521234061359" lon="10.450333178161035"><ele>170.0</ele><time>2026-04-25T16:27:34Z</time></trkpt><trkpt lat="44.05508518406508" lon="10.450446265755678"><ele>168.0</ele><time>2026-04-25T16:27:35Z</time></trkpt><trkpt lat="44.05495157128507" lon="10.450549072619545"><ele>166.0</ele><time>2026-04-25T16:27:36Z</time></trkpt><trkpt lat="44.054811208211085" lon="10.450645082692567"><ele>164.0</ele><time>2026-04-25T16:27:37Z</time></trkpt><trkpt lat="44.05466158337851" lon="10.450733463601473"><ele>164.0</ele><time>2026-04-25T16:27:38Z</time></trkpt><trkpt lat="44.05450781337439" lon="10.450815985271587"><ele>164.0</ele><time>2026-04-25T16:27:39Z</time></trkpt><trkpt lat="44.05434524252312" lon="10.450892031510529"><ele>164.0</ele><time>2026-04-25T16:27:40Z</time></trkpt><trkpt lat="44.05418096362905" lon="10.450961931261135"><ele>164.33333333333331</ele><time>2026-04-25T16:27:41Z</time></trkpt><trkpt lat="44.05401067487222" lon="10.451022189508759"><ele>164.66666666666666</ele><time>2026-04-25T16:27:42Z</time></trkpt><trkpt lat="44.05383548785855" lon="10.451078127321471"><ele>165.0</ele><time>2026-04-25T16:27:43Z</time></trkpt><trkpt lat="44.053660225960755" lon="10.451126882559624"><ele>165.0</ele><time>2026-04-25T16:27:44Z</time></trkpt><trkpt lat="44.05347342932752" lon="10.451163855084305"><ele>165.0</ele><time>2026-04-25T16:27:45Z</time></trkpt><trkpt lat="44.05329241689141" lon="10.451207891390826"><ele>165.0</ele><time>2026-04-25T16:27:46Z</time></trkpt><trkpt lat="44.05310986256738" lon="10.451255195384777"><ele>164.66666666666666</ele><time>2026-04-25T16:27:47Z</time></trkpt><trkpt lat="44.05292415735901" lon="10.451299531762471"><ele>164.33333333333331</ele><time>2026-04-25T16:27:48Z</time></trkpt><trkpt lat="44.05273700445972" lon="10.451353903574894"><ele>164.0</ele><time>2026-04-25T16:27:49Z</time></trkpt><trkpt lat="44.05256097750059" lon="10.4514232610965"><ele>164.66666666666666</ele><time>2026-04-25T16:27:50Z</time></trkpt><trkpt lat="44.05239240085595" lon="10.451507876483756"><ele>165.33333333333334</ele><time>2026-04-25T16:27:51Z</time></trkpt><trkpt lat="44.052237554847366" lon="10.451601655446197"><ele>166.0</ele><time>2026-04-25T16:27:52Z</time></trkpt><trkpt lat="44.05209117758707" lon="10.45170678390394"><ele>166.0</ele><time>2026-04-25T16:27:53Z</time></trkpt><trkpt lat="44.05194957000719" lon="10.451834398986167"><ele>166.0</ele><time>2026-04-25T16:27:54Z</time></trkpt><trkpt lat="44.05180414417579" lon="10.451988549525577"><ele>166.0</ele><time>2026-04-25T16:27:55Z</time></trkpt><trkpt lat="44.05163478931299" lon="10.45217633983552"><ele>167.0</ele><time>2026-04-25T16:27:56Z</time></trkpt><trkpt lat="44.05147973551175" lon="10.452411966092685"><ele>168.0</ele><time>2026-04-25T16:27:57Z</time></trkpt><trkpt lat="44.051350439491124" lon="10.452667731908589"><ele>168.0</ele><time>2026-04-25T16:27:58Z</time></trkpt><trkpt lat="44.05123319828712" lon="10.45290098485306"><ele>168.0</ele><time>2026-04-25T16:27:59Z</time></trkpt><trkpt lat="44.05113445526122" lon="10.453136209930626"><ele>168.0</ele><time>2026-04-25T16:28:00Z</time></trkpt><trkpt lat="44.05103832696876" lon="10.453360319339916"><ele>166.66666666666666</ele><time>2026-04-25T16:28:01Z</time></trkpt><trkpt lat="44.05094543535203" lon="10.453567726597312"><ele>165.33333333333331</ele><time>2026-04-25T16:28:02Z</time></trkpt><trkpt lat="44.050861265876556" lon="10.453765695831926"><ele>164.0</ele><time>2026-04-25T16:28:03Z</time></trkpt><trkpt lat="44.050777463250924" lon="10.453960218172499"><ele>168.66666666666666</ele><time>2026-04-25T16:28:04Z</time></trkpt><trkpt lat="44.050683809370376" lon="10.454146794327468"><ele>173.33333333333334</ele><time>2026-04-25T16:28:05Z</time></trkpt><trkpt lat="44.05058785782077" lon="10.454325492651071"><ele>178.0</ele><time>2026-04-25T16:28:06Z</time></trkpt><trkpt lat="44.050484836412345" lon="10.45449290338923"><ele>176.0</ele><time>2026-04-25T16:28:07Z</time></trkpt><trkpt lat="44.05037205769754" lon="10.454641542026156"><ele>174.0</ele><time>2026-04-25T16:28:08Z</time></trkpt><trkpt lat="44.05025772588618" lon="10.454784543243719"><ele>172.0</ele><time>2026-04-25T16:28:09Z</time></trkpt><trkpt lat="44.05013452912337" lon="10.454909992167991"><ele>172.0</ele><time>2026-04-25T16:28:10Z</time></trkpt><trkpt lat="44.05000461249658" lon="10.455018587457808"><ele>172.0</ele><time>2026-04-25T16:28:11.001Z</time></trkpt><trkpt lat="44.04986964726409" lon="10.455120556567648"><ele>172.0</ele><time>2026-04-25T16:28:12.001Z</time></trkpt><trkpt lat="44.04971946387902" lon="10.455213883995802"><ele>170.66666666666669</ele><time>2026-04-25T16:28:13.001Z</time></trkpt><trkpt lat="44.049555489964234" lon="10.455290811613452"><ele>169.33333333333334</ele><time>2026-04-25T16:28:14.002Z</time></trkpt><trkpt lat="44.04936918714784" lon="10.455398893336852"><ele>168.0</ele><time>2026-04-25T16:28:15.001Z</time></trkpt><trkpt lat="44.04917572457954" lon="10.455546142064684"><ele>177.0</ele><time>2026-04-25T16:28:16.001Z</time></trkpt><trkpt lat="44.04895643265762" lon="10.45565832668593"><ele>186.0</ele><time>2026-04-25T16:28:17.001Z</time></trkpt><trkpt lat="44.048734461152776" lon="10.455778960712053"><ele>186.0</ele><time>2026-04-25T16:28:18.001Z</time></trkpt><trkpt lat="44.04852449922599" lon="10.455920055069305"><ele>186.0</ele><time>2026-04-25T16:28:19.001Z</time></trkpt><trkpt lat="44.04832567597645" lon="10.456095360605183"><ele>188.5</ele><time>2026-04-25T16:28:20.002Z</time></trkpt><trkpt lat="44.04815304120358" lon="10.45630435631372"><ele>191.0</ele><time>2026-04-25T16:28:21.001Z</time></trkpt><trkpt lat="44.04798686690121" lon="10.456524988153161"><ele>191.0</ele><time>2026-04-25T16:28:22.001Z</time></trkpt><trkpt lat="44.04782495341017" lon="10.456753425263072"><ele>191.0</ele><time>2026-04-25T16:28:23.001Z</time></trkpt><trkpt lat="44.04766094095928" lon="10.456985179464521"><ele>198.0</ele><time>2026-04-25T16:28:24.001Z</time></trkpt><trkpt lat="44.047506561940196" lon="10.457211707073737"><ele>205.0</ele><time>2026-04-25T16:28:25.001Z</time></trkpt><trkpt lat="44.04734075097911" lon="10.457450850708806"><ele>205.0</ele><time>2026-04-25T16:28:26.001Z</time></trkpt><trkpt lat="44.047180823341066" lon="10.457680566397498"><ele>205.0</ele><time>2026-04-25T16:28:27.001Z</time></trkpt><trkpt lat="44.04701010713919" lon="10.457911073882812"><ele>190.5</ele><time>2026-04-25T16:28:28.001Z</time></trkpt><trkpt lat="44.04685225308942" lon="10.458141437370903"><ele>176.0</ele><time>2026-04-25T16:28:29.001Z</time></trkpt><trkpt lat="44.0467209241385" lon="10.458389164812093"><ele>185.66666666666666</ele><time>2026-04-25T16:28:30.001Z</time></trkpt><trkpt lat="44.04660218923691" lon="10.458648693320407"><ele>195.33333333333331</ele><time>2026-04-25T16:28:31.001Z</time></trkpt><trkpt lat="44.04649732232331" lon="10.458916264144065"><ele>205.0</ele><time>2026-04-25T16:28:32.001Z</time></trkpt><trkpt lat="44.04641270589851" lon="10.459196337964498"><ele>207.0</ele><time>2026-04-25T16:28:33.001Z</time></trkpt><trkpt lat="44.04633158408869" lon="10.459482073318423"><ele>209.0</ele><time>2026-04-25T16:28:34.001Z</time></trkpt><trkpt lat="44.04624156942985" lon="10.459779812383553"><ele>204.5</ele><time>2026-04-25T16:28:35.001Z</time></trkpt><trkpt lat="44.04614487668279" lon="10.460082960143106"><ele>200.0</ele><time>2026-04-25T16:28:36.001Z</time></trkpt><trkpt lat="44.04603467191839" lon="10.46039311177476"><ele>192.0</ele><time>2026-04-25T16:28:37.001Z</time></trkpt><trkpt lat="44.04586725537599" lon="10.460754553611624"><ele>184.0</ele><time>2026-04-25T16:28:38.001Z</time></trkpt><trkpt lat="44.04566382254905" lon="10.461075164053991"><ele>193.0</ele><time>2026-04-25T16:28:39.001Z</time></trkpt><trkpt lat="44.04545385593803" lon="10.461312218602352"><ele>202.0</ele><time>2026-04-25T16:28:40.001Z</time></trkpt><trkpt lat="44.04522671283381" lon="10.461551948641894"><ele>202.0</ele><time>2026-04-25T16:28:41.001Z</time></trkpt><trkpt lat="44.045391303648266" lon="10.461582473528193"><ele>202.0</ele><time>2026-04-25T16:28:42.001Z</time></trkpt><trkpt lat="44.0452390849648" lon="10.461822386797122"><ele>202.0</ele><time>2026-04-25T16:28:43.001Z</time></trkpt><trkpt lat="44.045066179814896" lon="10.462035429877542"><ele>208.0</ele><time>2026-04-25T16:28:44.001Z</time></trkpt><trkpt lat="44.04490153115355" lon="10.462266520745386"><ele>214.0</ele><time>2026-04-25T16:28:45.001Z</time></trkpt><trkpt lat="44.0447325564698" lon="10.462501149089729"><ele>214.0</ele><time>2026-04-25T16:28:46.001Z</time></trkpt><trkpt lat="44.04456233623735" lon="10.462737885658251"><ele>214.0</ele><time>2026-04-25T16:28:47.001Z</time></trkpt><trkpt lat="44.04439761772176" lon="10.462967040646664"><ele>217.5</ele><time>2026-04-25T16:28:48.001Z</time></trkpt><trkpt lat="44.04423059300411" lon="10.463199370128768"><ele>221.0</ele><time>2026-04-25T16:28:49.001Z</time></trkpt><trkpt lat="44.04407398116985" lon="10.463443995011957"><ele>221.0</ele><time>2026-04-25T16:28:50.001Z</time></trkpt><trkpt lat="44.04390546927156" lon="10.463682877211811"><ele>221.0</ele><time>2026-04-25T16:28:51.001Z</time></trkpt><trkpt lat="44.04373501223763" lon="10.463914749149806"><ele>204.0</ele><time>2026-04-25T16:28:52.001Z</time></trkpt><trkpt lat="44.04357379383154" lon="10.46415423845644"><ele>187.0</ele><time>2026-04-25T16:28:53.001Z</time></trkpt><trkpt lat="44.043409110247524" lon="10.464395175042203"><ele>187.5</ele><time>2026-04-25T16:28:54.001Z</time></trkpt><trkpt lat="44.04323842562632" lon="10.464619274700858"><ele>188.0</ele><time>2026-04-25T16:28:55.001Z</time></trkpt><trkpt lat="44.043086755722896" lon="10.46487293378044"><ele>188.0</ele><time>2026-04-25T16:28:56.001Z</time></trkpt><trkpt lat="44.0429192062151" lon="10.4651115797295"><ele>188.0</ele><time>2026-04-25T16:28:57.001Z</time></trkpt><trkpt lat="44.042764619662115" lon="10.465341049348712"><ele>184.33333333333331</ele><time>2026-04-25T16:28:58.001Z</time></trkpt><trkpt lat="44.04262227252334" lon="10.465571674539172"><ele>180.66666666666666</ele><time>2026-04-25T16:28:59.001Z</time></trkpt><trkpt lat="44.04247321084352" lon="10.465771371662012"><ele>177.0</ele><time>2026-04-25T16:29:00.001Z</time></trkpt><trkpt lat="44.042346536605265" lon="10.46598052368128"><ele>177.0</ele><time>2026-04-25T16:29:01.001Z</time></trkpt><trkpt lat="44.04222529585251" lon="10.466191166449537"><ele>177.0</ele><time>2026-04-25T16:29:02.001Z</time></trkpt><trkpt lat="44.042088562909115" lon="10.466391553715793"><ele>177.0</ele><time>2026-04-25T16:29:03.001Z</time></trkpt><trkpt lat="44.042000023966644" lon="10.46665504578779"><ele>175.33333333333334</ele><time>2026-04-25T16:29:04.001Z</time></trkpt><trkpt lat="44.041933520052844" lon="10.466931166755497"><ele>173.66666666666669</ele><time>2026-04-25T16:29:05.001Z</time></trkpt><trkpt lat="44.041859912105046" lon="10.467206942126694"><ele>172.0</ele><time>2026-04-25T16:29:06.001Z</time></trkpt><trkpt lat="44.04179611319939" lon="10.467486447948456"><ele>168.33333333333334</ele><time>2026-04-25T16:29:07.001Z</time></trkpt><trkpt lat="44.04173890482782" lon="10.467760340766784"><ele>164.66666666666666</ele><time>2026-04-25T16:29:08.001Z</time></trkpt><trkpt lat="44.0417016662366" lon="10.46805408411478"><ele>161.0</ele><time>2026-04-25T16:29:09.001Z</time></trkpt><trkpt lat="44.04168061115274" lon="10.468341509264159"><ele>159.33333333333331</ele><time>2026-04-25T16:29:10.001Z</time></trkpt><trkpt lat="44.04166199837081" lon="10.468606730622183"><ele>157.66666666666666</ele><time>2026-04-25T16:29:11.001Z</time></trkpt><trkpt lat="44.04164612350969" lon="10.468859251650244"><ele>156.0</ele><time>2026-04-25T16:29:12.001Z</time></trkpt><trkpt lat="44.04162794547762" lon="10.469116025418622"><ele>158.66666666666666</ele><time>2026-04-25T16:29:13.001Z</time></trkpt><trkpt lat="44.0416172317392" lon="10.46936266269638"><ele>161.33333333333331</ele><time>2026-04-25T16:29:14.001Z</time></trkpt><trkpt lat="44.04159618055832" lon="10.46961503014625"><ele>164.0</ele><time>2026-04-25T16:29:15.001Z</time></trkpt><trkpt lat="44.04157457712746" lon="10.469881294375474"><ele>164.0</ele><time>2026-04-25T16:29:16.001Z</time></trkpt><trkpt lat="44.04155829365244" lon="10.470146020663929"><ele>164.0</ele><time>2026-04-25T16:29:17.001Z</time></trkpt><trkpt lat="44.04151543684441" lon="10.470425881515524"><ele>164.0</ele><time>2026-04-25T16:29:18.001Z</time></trkpt><trkpt lat="44.041457909808095" lon="10.470693784247857"><ele>163.33333333333331</ele><time>2026-04-25T16:29:19.001Z</time></trkpt><trkpt lat="44.04139360102848" lon="10.47095035319643"><ele>162.66666666666666</ele><time>2026-04-25T16:29:20.001Z</time></trkpt><trkpt lat="44.04132482073452" lon="10.47120533805457"><ele>162.0</ele><time>2026-04-25T16:29:21.001Z</time></trkpt><trkpt lat="44.04124631745955" lon="10.471449945246137"><ele>160.0</ele><time>2026-04-25T16:29:22.001Z</time></trkpt><trkpt lat="44.041160895539875" lon="10.471695309024192"><ele>158.0</ele><time>2026-04-25T16:29:23.001Z</time></trkpt><trkpt lat="44.04105996996308" lon="10.47193680204623"><ele>156.0</ele><time>2026-04-25T16:29:24.001Z</time></trkpt><trkpt lat="44.04094683616193" lon="10.472173367486546"><ele>156.33333333333334</ele><time>2026-04-25T16:29:25.001Z</time></trkpt><trkpt lat="44.04082025412727" lon="10.472402084971174"><ele>156.66666666666669</ele><time>2026-04-25T16:29:26.001Z</time></trkpt><trkpt lat="44.04068338960151" lon="10.472621924005814"><ele>157.0</ele><time>2026-04-25T16:29:27.001Z</time></trkpt><trkpt lat="44.040536515501024" lon="10.472836092677591"><ele>156.0</ele><time>2026-04-25T16:29:28.001Z</time></trkpt><trkpt lat="44.04038594148289" lon="10.473030954450886"><ele>155.0</ele><time>2026-04-25T16:29:29.001Z</time></trkpt><trkpt lat="44.040237826589504" lon="10.473219748977925"><ele>154.0</ele><time>2026-04-25T16:29:30.001Z</time></trkpt><trkpt lat="44.04007985907687" lon="10.473384001150098"><ele>154.66666666666669</ele><time>2026-04-25T16:29:31.001Z</time></trkpt><trkpt lat="44.03991314105414" lon="10.47354115580708"><ele>155.33333333333334</ele><time>2026-04-25T16:29:32.001Z</time></trkpt><trkpt lat="44.0397463920752" lon="10.473734292256575"><ele>156.0</ele><time>2026-04-25T16:29:33.001Z</time></trkpt><trkpt lat="44.039556808487966" lon="10.473928316935357"><ele>154.0</ele><time>2026-04-25T16:29:34.001Z</time></trkpt><trkpt lat="44.039346082136156" lon="10.474126201742775"><ele>152.0</ele><time>2026-04-25T16:29:35.001Z</time></trkpt><trkpt lat="44.039130364341226" lon="10.47434983670786"><ele>154.0</ele><time>2026-04-25T16:29:36.001Z</time></trkpt><trkpt lat="44.03891424973346" lon="10.47457194683257"><ele>156.0</ele><time>2026-04-25T16:29:37.001Z</time></trkpt><trkpt lat="44.03869220764925" lon="10.474787880484795"><ele>156.0</ele><time>2026-04-25T16:29:38.001Z</time></trkpt><trkpt lat="44.038471846966054" lon="10.47499075540001"><ele>156.0</ele><time>2026-04-25T16:29:39.001Z</time></trkpt><trkpt lat="44.03824849699977" lon="10.475220324777522"><ele>167.5</ele><time>2026-04-25T16:29:40.001Z</time></trkpt><trkpt lat="44.038046678304006" lon="10.475475873886811"><ele>179.0</ele><time>2026-04-25T16:29:41Z</time></trkpt><trkpt lat="44.037867992324955" lon="10.475758608334353"><ele>179.0</ele><time>2026-04-25T16:29:42Z</time></trkpt><trkpt lat="44.037708388245974" lon="10.476058447288473"><ele>179.0</ele><time>2026-04-25T16:29:43Z</time></trkpt><trkpt lat="44.03755918185088" lon="10.476370285605238"><ele>189.5</ele><time>2026-04-25T16:29:44Z</time></trkpt><trkpt lat="44.03742203881635" lon="10.476689397945874"><ele>200.0</ele><time>2026-04-25T16:29:45Z</time></trkpt><trkpt lat="44.03729824599065" lon="10.477008689411866"><ele>189.5</ele><time>2026-04-25T16:29:46Z</time></trkpt><trkpt lat="44.03719130875563" lon="10.47733253328479"><ele>179.0</ele><time>2026-04-25T16:29:47Z</time></trkpt><trkpt lat="44.03707864619512" lon="10.477647512334126"><ele>173.0</ele><time>2026-04-25T16:29:48Z</time></trkpt><trkpt lat="44.036975215178074" lon="10.477957959529283"><ele>167.0</ele><time>2026-04-25T16:29:49Z</time></trkpt><trkpt lat="44.036865764343005" lon="10.478273168847485"><ele>167.0</ele><time>2026-04-25T16:29:50Z</time></trkpt><trkpt lat="44.03676921311702" lon="10.478572931348102"><ele>167.0</ele><time>2026-04-25T16:29:51Z</time></trkpt><trkpt lat="44.03666401215034" lon="10.478873724679103"><ele>169.66666666666666</ele><time>2026-04-25T16:29:52Z</time></trkpt><trkpt lat="44.03656578916013" lon="10.479162533527905"><ele>172.33333333333334</ele><time>2026-04-25T16:29:53Z</time></trkpt><trkpt lat="44.03647713227121" lon="10.479437046946874"><ele>175.0</ele><time>2026-04-25T16:29:54Z</time></trkpt><trkpt lat="44.036386985159744" lon="10.479703371694342"><ele>175.0</ele><time>2026-04-25T16:29:55Z</time></trkpt><trkpt lat="44.036298628516924" lon="10.479959239657598"><ele>175.0</ele><time>2026-04-25T16:29:56Z</time></trkpt><trkpt lat="44.03621472896504" lon="10.480207480615716"><ele>175.0</ele><time>2026-04-25T16:29:57Z</time></trkpt><trkpt lat="44.036136171833505" lon="10.48046639129715"><ele>172.33333333333334</ele><time>2026-04-25T16:29:58Z</time></trkpt><trkpt lat="44.036070278803095" lon="10.480726647228503"><ele>169.66666666666666</ele><time>2026-04-25T16:29:59Z</time></trkpt><trkpt lat="44.03602301313986" lon="10.48099237460956"><ele>167.0</ele><time>2026-04-25T16:30:00Z</time></trkpt><trkpt lat="44.03598219986123" lon="10.481266849088483"><ele>165.66666666666666</ele><time>2026-04-25T16:30:01Z</time></trkpt><trkpt lat="44.035943656619786" lon="10.481559269045976"><ele>164.33333333333334</ele><time>2026-04-25T16:30:02Z</time></trkpt><trkpt lat="44.035912645915225" lon="10.481865318012204"><ele>163.0</ele><time>2026-04-25T16:30:03Z</time></trkpt><trkpt lat="44.03587900546004" lon="10.4821752320221"><ele>163.0</ele><time>2026-04-25T16:30:04Z</time></trkpt><trkpt lat="44.0358323980183" lon="10.482488207752887"><ele>163.0</ele><time>2026-04-25T16:30:05Z</time></trkpt><trkpt lat="44.03578726243771" lon="10.48281417108205"><ele>171.5</ele><time>2026-04-25T16:30:06Z</time></trkpt><trkpt lat="44.0357473999793" lon="10.483132031715678"><ele>180.0</ele><time>2026-04-25T16:30:07Z</time></trkpt><trkpt lat="44.03571133844043" lon="10.483462393579428"><ele>176.5</ele><time>2026-04-25T16:30:08Z</time></trkpt><trkpt lat="44.035666514101734" lon="10.483780479569829"><ele>173.0</ele><time>2026-04-25T16:30:09Z</time></trkpt><trkpt lat="44.03562616057791" lon="10.484101695914005"><ele>173.0</ele><time>2026-04-25T16:30:10Z</time></trkpt><trkpt lat="44.0355912322213" lon="10.48442080887393"><ele>173.0</ele><time>2026-04-25T16:30:11Z</time></trkpt><trkpt lat="44.03555513838929" lon="10.48475487746457"><ele>169.5</ele><time>2026-04-25T16:30:12Z</time></trkpt><trkpt lat="44.03550657819555" lon="10.48507857779706"><ele>166.0</ele><time>2026-04-25T16:30:13Z</time></trkpt><trkpt lat="44.03545758841628" lon="10.48541597790433"><ele>164.5</ele><time>2026-04-25T16:30:14Z</time></trkpt><trkpt lat="44.03539306733016" lon="10.48573429040805"><ele>163.0</ele><time>2026-04-25T16:30:15Z</time></trkpt><trkpt lat="44.03531275453163" lon="10.486063051094687"><ele>158.5</ele><time>2026-04-25T16:30:16Z</time></trkpt><trkpt lat="44.03519972468198" lon="10.4863674146384"><ele>154.0</ele><time>2026-04-25T16:30:17.002Z</time></trkpt><trkpt lat="44.035079071606354" lon="10.486663655757347"><ele>154.0</ele><time>2026-04-25T16:30:18.002Z</time></trkpt><trkpt lat="44.03494741435626" lon="10.48693578348804"><ele>154.0</ele><time>2026-04-25T16:30:19.002Z</time></trkpt><trkpt lat="44.034806768044135" lon="10.487199652869224"><ele>154.0</ele><time>2026-04-25T16:30:20.002Z</time></trkpt><trkpt lat="44.034646372622966" lon="10.487451570283527"><ele>154.0</ele><time>2026-04-25T16:30:21.002Z</time></trkpt><trkpt lat="44.03448107141466" lon="10.487671419981055"><ele>154.0</ele><time>2026-04-25T16:30:22.001Z</time></trkpt><trkpt lat="44.03431986247081" lon="10.48786302831689"><ele>154.0</ele><time>2026-04-25T16:30:23.001Z</time></trkpt><trkpt lat="44.03415881655831" lon="10.488028940657184"><ele>154.0</ele><time>2026-04-25T16:30:24.001Z</time></trkpt><trkpt lat="44.03400094331798" lon="10.488177922814161"><ele>149.66666666666669</ele><time>2026-04-25T16:30:25.001Z</time></trkpt><trkpt lat="44.03383279892674" lon="10.488323932766994"><ele>145.33333333333334</ele><time>2026-04-25T16:30:26.001Z</time></trkpt><trkpt lat="44.033646660636286" lon="10.488482715065683"><ele>141.0</ele><time>2026-04-25T16:30:27.001Z</time></trkpt><trkpt lat="44.033457808127814" lon="10.488646185028564"><ele>136.5</ele><time>2026-04-25T16:30:28.001Z</time></trkpt><trkpt lat="44.03326374920698" lon="10.488837010403495"><ele>132.0</ele><time>2026-04-25T16:30:29.001Z</time></trkpt><trkpt lat="44.033059226427284" lon="10.488994774024809"><ele>132.0</ele><time>2026-04-25T16:30:30.001Z</time></trkpt><trkpt lat="44.03286371735984" lon="10.489171538187028"><ele>132.0</ele><time>2026-04-25T16:30:31.001Z</time></trkpt><trkpt lat="44.032672313336235" lon="10.48934289701643"><ele>132.0</ele><time>2026-04-25T16:30:32.001Z</time></trkpt><trkpt lat="44.03248896484018" lon="10.489503933113902"><ele>132.0</ele><time>2026-04-25T16:30:33.001Z</time></trkpt><trkpt lat="44.03231201902933" lon="10.48967162826757"><ele>132.0</ele><time>2026-04-25T16:30:34.001Z</time></trkpt><trkpt lat="44.0321233902309" lon="10.489838983480178"><ele>131.66666666666666</ele><time>2026-04-25T16:30:35.001Z</time></trkpt><trkpt lat="44.03195960188723" lon="10.490034152077916"><ele>131.33333333333331</ele><time>2026-04-25T16:30:36.001Z</time></trkpt><trkpt lat="44.03180797676575" lon="10.490242999366288"><ele>131.0</ele><time>2026-04-25T16:30:37.001Z</time></trkpt><trkpt lat="44.03165734489317" lon="10.490456947241887"><ele>135.33333333333331</ele><time>2026-04-25T16:30:38.001Z</time></trkpt><trkpt lat="44.03151708978293" lon="10.490685823147778"><ele>139.66666666666666</ele><time>2026-04-25T16:30:39.001Z</time></trkpt><trkpt lat="44.03137992091102" lon="10.490940303322025"><ele>144.0</ele><time>2026-04-25T16:30:40.001Z</time></trkpt><trkpt lat="44.031248980268124" lon="10.491201953516958"><ele>140.0</ele><time>2026-04-25T16:30:41.001Z</time></trkpt><trkpt lat="44.03112279541379" lon="10.491475287685885"><ele>136.0</ele><time>2026-04-25T16:30:42.001Z</time></trkpt><trkpt lat="44.030995878473306" lon="10.49175025732812"><ele>136.0</ele><time>2026-04-25T16:30:43.001Z</time></trkpt><trkpt lat="44.030871665027895" lon="10.492029701307432"><ele>136.0</ele><time>2026-04-25T16:30:44.001Z</time></trkpt><trkpt lat="44.030742365060085" lon="10.49230972460475"><ele>152.5</ele><time>2026-04-25T16:30:45.001Z</time></trkpt><trkpt lat="44.030611613175516" lon="10.492588044541218"><ele>169.0</ele><time>2026-04-25T16:30:46.001Z</time></trkpt><trkpt lat="44.0304833708792" lon="10.49286316180175"><ele>158.0</ele><time>2026-04-25T16:30:47Z</time></trkpt><trkpt lat="44.03036868251562" lon="10.493142697448839"><ele>147.0</ele><time>2026-04-25T16:30:48Z</time></trkpt><trkpt lat="44.03023775442551" lon="10.49341197745246"><ele>147.0</ele><time>2026-04-25T16:30:49Z</time></trkpt><trkpt lat="44.030108173380434" lon="10.493681649177397"><ele>147.0</ele><time>2026-04-25T16:30:50Z</time></trkpt><trkpt lat="44.02998275585442" lon="10.493950028394957"><ele>163.5</ele><time>2026-04-25T16:30:51Z</time></trkpt><trkpt lat="44.029862203799695" lon="10.494225491802752"><ele>180.0</ele><time>2026-04-25T16:30:52Z</time></trkpt><trkpt lat="44.029738019002" lon="10.494507489759052"><ele>168.0</ele><time>2026-04-25T16:30:53Z</time></trkpt><trkpt lat="44.02961203916554" lon="10.494788847152588"><ele>156.0</ele><time>2026-04-25T16:30:54Z</time></trkpt><trkpt lat="44.02947229974736" lon="10.495056652820281"><ele>156.0</ele><time>2026-04-25T16:30:55Z</time></trkpt><trkpt lat="44.02934614198446" lon="10.495331622772644"><ele>156.0</ele><time>2026-04-25T16:30:56Z</time></trkpt><trkpt lat="44.02922790394165" lon="10.4955810871118"><ele>156.0</ele><time>2026-04-25T16:30:57Z</time></trkpt><trkpt lat="44.02910586956609" lon="10.495814128730187"><ele>151.33333333333334</ele><time>2026-04-25T16:30:58Z</time></trkpt><trkpt lat="44.028965680369524" lon="10.496028993142845"><ele>146.66666666666669</ele><time>2026-04-25T16:30:59Z</time></trkpt><trkpt lat="44.028794886917915" lon="10.496226692774835"><ele>142.0</ele><time>2026-04-25T16:31:00Z</time></trkpt><trkpt lat="44.02860950737198" lon="10.496401126815218"><ele>142.0</ele><time>2026-04-25T16:31:01Z</time></trkpt><trkpt lat="44.028424429329526" lon="10.496566212761525"><ele>142.0</ele><time>2026-04-25T16:31:02Z</time></trkpt><trkpt lat="44.0282314058414" lon="10.496741042878448"><ele>148.33333333333334</ele><time>2026-04-25T16:31:03Z</time></trkpt><trkpt lat="44.02805093163986" lon="10.496905789142225"><ele>154.66666666666666</ele><time>2026-04-25T16:31:04Z</time></trkpt><trkpt lat="44.027871622349224" lon="10.49708157851245"><ele>161.0</ele><time>2026-04-25T16:31:05Z</time></trkpt><trkpt lat="44.027745110957085" lon="10.497301141977069"><ele>161.0</ele><time>2026-04-25T16:31:06Z</time></trkpt><trkpt lat="44.02762224459872" lon="10.497532070386653"><ele>161.0</ele><time>2026-04-25T16:31:07Z</time></trkpt><trkpt lat="44.02750427644207" lon="10.497800352746818"><ele>161.0</ele><time>2026-04-25T16:31:08Z</time></trkpt><trkpt lat="44.02740298948277" lon="10.498071587149797"><ele>169.5</ele><time>2026-04-25T16:31:09Z</time></trkpt><trkpt lat="44.02726564453273" lon="10.498337805824745"><ele>178.0</ele><time>2026-04-25T16:31:10Z</time></trkpt><trkpt lat="44.02711462513739" lon="10.498591682838422"><ele>164.0</ele><time>2026-04-25T16:31:11Z</time></trkpt><trkpt lat="44.02696409527004" lon="10.498848952832404"><ele>150.0</ele><time>2026-04-25T16:31:12Z</time></trkpt><trkpt lat="44.026815106245316" lon="10.49910439662728"><ele>150.0</ele><time>2026-04-25T16:31:13Z</time></trkpt><trkpt lat="44.026671651306785" lon="10.499364931860379"><ele>150.0</ele><time>2026-04-25T16:31:14Z</time></trkpt><trkpt lat="44.02654382452355" lon="10.499636802956804"><ele>161.5</ele><time>2026-04-25T16:31:15Z</time></trkpt><trkpt lat="44.02642187371009" lon="10.49993636151658"><ele>173.0</ele><time>2026-04-25T16:31:16Z</time></trkpt><trkpt lat="44.0263168059513" lon="10.50023398511403"><ele>162.5</ele><time>2026-04-25T16:31:17Z</time></trkpt><trkpt lat="44.02620002778839" lon="10.500528476693626"><ele>152.0</ele><time>2026-04-25T16:31:18Z</time></trkpt><trkpt lat="44.02607192563336" lon="10.50082178281388"><ele>152.0</ele><time>2026-04-25T16:31:19Z</time></trkpt><trkpt lat="44.02595257126309" lon="10.501117468094558"><ele>152.0</ele><time>2026-04-25T16:31:20Z</time></trkpt><trkpt lat="44.02584338794101" lon="10.501411452836596"><ele>160.5</ele><time>2026-04-25T16:31:21Z</time></trkpt><trkpt lat="44.02570686422715" lon="10.501696858210575"><ele>169.0</ele><time>2026-04-25T16:31:22Z</time></trkpt><trkpt lat="44.025584512598904" lon="10.501987556444634"><ele>158.5</ele><time>2026-04-25T16:31:23Z</time></trkpt><trkpt lat="44.02547200987315" lon="10.502288941059179"><ele>148.0</ele><time>2026-04-25T16:31:24Z</time></trkpt><trkpt lat="44.0253568171333" lon="10.502583942624673"><ele>148.0</ele><time>2026-04-25T16:31:25Z</time></trkpt><trkpt lat="44.02523395305835" lon="10.502875765194425"><ele>148.0</ele><time>2026-04-25T16:31:26Z</time></trkpt><trkpt lat="44.02511266415584" lon="10.503168534751179"><ele>147.0</ele><time>2026-04-25T16:31:27Z</time></trkpt><trkpt lat="44.02499236453663" lon="10.50347094993069"><ele>146.0</ele><time>2026-04-25T16:31:28Z</time></trkpt><trkpt lat="44.024869204388715" lon="10.503770187412885"><ele>146.0</ele><time>2026-04-25T16:31:29Z</time></trkpt><trkpt lat="44.024747936343296" lon="10.504062517476823"><ele>146.0</ele><time>2026-04-25T16:31:30Z</time></trkpt><trkpt lat="44.0246263661485" lon="10.504354312492323"><ele>140.0</ele><time>2026-04-25T16:31:31Z</time></trkpt><trkpt lat="44.024506983302125" lon="10.504646139576248"><ele>134.0</ele><time>2026-04-25T16:31:32Z</time></trkpt><trkpt lat="44.02438817930583" lon="10.504941448971321"><ele>134.0</ele><time>2026-04-25T16:31:33Z</time></trkpt><trkpt lat="44.02426752986814" lon="10.505229460154865"><ele>134.0</ele><time>2026-04-25T16:31:34Z</time></trkpt><trkpt lat="44.02414966478458" lon="10.505523292026645"><ele>143.5</ele><time>2026-04-25T16:31:35Z</time></trkpt><trkpt lat="44.02403028514896" lon="10.505812853643329"><ele>153.0</ele><time>2026-04-25T16:31:36Z</time></trkpt><trkpt lat="44.02391098205455" lon="10.506098946596474"><ele>150.0</ele><time>2026-04-25T16:31:37Z</time></trkpt><trkpt lat="44.0237922780261" lon="10.506383382414711"><ele>147.0</ele><time>2026-04-25T16:31:38Z</time></trkpt><trkpt lat="44.02368008997221" lon="10.506670233868684"><ele>147.0</ele><time>2026-04-25T16:31:39Z</time></trkpt><trkpt lat="44.023576549363355" lon="10.506959095457072"><ele>147.0</ele><time>2026-04-25T16:31:40Z</time></trkpt><trkpt lat="44.02347330774947" lon="10.507259445722068"><ele>143.0</ele><time>2026-04-25T16:31:41Z</time></trkpt><trkpt lat="44.023379393152744" lon="10.507564064908793"><ele>139.0</ele><time>2026-04-25T16:31:42Z</time></trkpt><trkpt lat="44.02328981247785" lon="10.507876016195073"><ele>153.0</ele><time>2026-04-25T16:31:43Z</time></trkpt><trkpt lat="44.023204528415995" lon="10.508187731704698"><ele>167.0</ele><time>2026-04-25T16:31:44Z</time></trkpt><trkpt lat="44.02311813838334" lon="10.508481297118903"><ele>164.33333333333331</ele><time>2026-04-25T16:31:45Z</time></trkpt><trkpt lat="44.023033842086086" lon="10.508754781051094"><ele>161.66666666666666</ele><time>2026-04-25T16:31:46Z</time></trkpt><trkpt lat="44.02295973631632" lon="10.509012771917535"><ele>159.0</ele><time>2026-04-25T16:31:47Z</time></trkpt><trkpt lat="44.022882708214674" lon="10.509248523968827"><ele>159.0</ele><time>2026-04-25T16:31:48Z</time></trkpt><trkpt lat="44.02280072051212" lon="10.509468897648123"><ele>159.0</ele><time>2026-04-25T16:31:49Z</time></trkpt><trkpt lat="44.02272186083068" lon="10.509672787448107"><ele>159.0</ele><time>2026-04-25T16:31:50Z</time></trkpt><trkpt lat="44.02262814560525" lon="10.509856985170927"><ele>161.0</ele><time>2026-04-25T16:31:51Z</time></trkpt><trkpt lat="44.02253400591004" lon="10.510032588070317"><ele>163.0</ele><time>2026-04-25T16:31:52Z</time></trkpt><trkpt lat="44.0224256918788" lon="10.510216502918787"><ele>165.0</ele><time>2026-04-25T16:31:53Z</time></trkpt><trkpt lat="44.02231545936126" lon="10.51039189706327"><ele>160.0</ele><time>2026-04-25T16:31:54Z</time></trkpt><trkpt lat="44.02218973113832" lon="10.510585444019968"><ele>155.0</ele><time>2026-04-25T16:31:55Z</time></trkpt><trkpt lat="44.022059332453544" lon="10.510788086893221"><ele>150.0</ele><time>2026-04-25T16:31:56Z</time></trkpt><trkpt lat="44.02192497288172" lon="10.510992936028481"><ele>150.0</ele><time>2026-04-25T16:31:57Z</time></trkpt><trkpt lat="44.021790292406344" lon="10.51119561583147"><ele>150.0</ele><time>2026-04-25T16:31:58Z</time></trkpt><trkpt lat="44.02166853718105" lon="10.511397903494641"><ele>150.0</ele><time>2026-04-25T16:31:59Z</time></trkpt><trkpt lat="44.02155387542361" lon="10.511614484326268"><ele>153.66666666666666</ele><time>2026-04-25T16:31:59.999Z</time></trkpt><trkpt lat="44.02144093159669" lon="10.511852248072143"><ele>157.33333333333331</ele><time>2026-04-25T16:32:00.999Z</time></trkpt><trkpt lat="44.021323630720914" lon="10.512094266771326"><ele>161.0</ele><time>2026-04-25T16:32:01.999Z</time></trkpt><trkpt lat="44.02120342964203" lon="10.512330795458384"><ele>161.0</ele><time>2026-04-25T16:32:02.999Z</time></trkpt><trkpt lat="44.02107921488846" lon="10.512582496845122"><ele>161.0</ele><time>2026-04-25T16:32:03.999Z</time></trkpt><trkpt lat="44.02096445528179" lon="10.512842309112585"><ele>161.0</ele><time>2026-04-25T16:32:04.999Z</time></trkpt><trkpt lat="44.020849707609685" lon="10.513107845327726"><ele>180.0</ele><time>2026-04-25T16:32:05.999Z</time></trkpt><trkpt lat="44.02073483980533" lon="10.513378891378803"><ele>199.0</ele><time>2026-04-25T16:32:06.999Z</time></trkpt><trkpt lat="44.020613518065446" lon="10.51364570751665"><ele>187.0</ele><time>2026-04-25T16:32:07.999Z</time></trkpt><trkpt lat="44.020497494084616" lon="10.513913421807796"><ele>175.0</ele><time>2026-04-25T16:32:08.999Z</time></trkpt><trkpt lat="44.020385176277316" lon="10.514180601079566"><ele>163.0</ele><time>2026-04-25T16:32:09.999Z</time></trkpt><trkpt lat="44.020265589297146" lon="10.514444909365919"><ele>166.66666666666669</ele><time>2026-04-25T16:32:10.999Z</time></trkpt><trkpt lat="44.02015983658762" lon="10.51471498698948"><ele>170.33333333333334</ele><time>2026-04-25T16:32:11.999Z</time></trkpt><trkpt lat="44.02004730655902" lon="10.514981317918284"><ele>174.0</ele><time>2026-04-25T16:32:12.999Z</time></trkpt><trkpt lat="44.01993792844309" lon="10.5152420746945"><ele>172.0</ele><time>2026-04-25T16:32:13.999Z</time></trkpt><trkpt lat="44.01982660775988" lon="10.515501599542597"><ele>170.0</ele><time>2026-04-25T16:32:14.999Z</time></trkpt><trkpt lat="44.0197146326078" lon="10.51576086522434"><ele>168.0</ele><time>2026-04-25T16:32:15.999Z</time></trkpt><trkpt lat="44.01960720924959" lon="10.516019667176687"><ele>162.0</ele><time>2026-04-25T16:32:16.999Z</time></trkpt><trkpt lat="44.0194971368441" lon="10.516275441264135"><ele>156.0</ele><time>2026-04-25T16:32:17.999Z</time></trkpt><trkpt lat="44.019391192591335" lon="10.516538808663727"><ele>150.0</ele><time>2026-04-25T16:32:18.999Z</time></trkpt><trkpt lat="44.019281071085864" lon="10.516799038773536"><ele>150.0</ele><time>2026-04-25T16:32:19.999Z</time></trkpt><trkpt lat="44.01916977964327" lon="10.517057070528995"><ele>150.0</ele><time>2026-04-25T16:32:20.999Z</time></trkpt><trkpt lat="44.01905530905222" lon="10.517314717619822"><ele>150.0</ele><time>2026-04-25T16:32:21.999Z</time></trkpt><trkpt lat="44.01894780955457" lon="10.517577019765243"><ele>151.33333333333334</ele><time>2026-04-25T16:32:23.002Z</time></trkpt><trkpt lat="44.01883754889128" lon="10.517835188396695"><ele>152.66666666666669</ele><time>2026-04-25T16:32:24.001Z</time></trkpt><trkpt lat="44.01872536484877" lon="10.518092068159998"><ele>154.0</ele><time>2026-04-25T16:32:25.001Z</time></trkpt><trkpt lat="44.01861406394634" lon="10.51835304291731"><ele>154.0</ele><time>2026-04-25T16:32:26.002Z</time></trkpt><trkpt lat="44.018491124167" lon="10.51861085159929"><ele>154.0</ele><time>2026-04-25T16:32:27.002Z</time></trkpt><trkpt lat="44.01837638898343" lon="10.51887487909434"><ele>154.0</ele><time>2026-04-25T16:32:28.002Z</time></trkpt><trkpt lat="44.01825490923717" lon="10.519142509059007"><ele>162.0</ele><time>2026-04-25T16:32:29.002Z</time></trkpt><trkpt lat="44.01814714916833" lon="10.519419157584858"><ele>170.0</ele><time>2026-04-25T16:32:30.002Z</time></trkpt><trkpt lat="44.018034752084304" lon="10.519701212445701"><ele>170.0</ele><time>2026-04-25T16:32:31.002Z</time></trkpt><trkpt lat="44.017919702869335" lon="10.519983360008714"><ele>170.0</ele><time>2026-04-25T16:32:32.002Z</time></trkpt><trkpt lat="44.017773520712375" lon="10.520244374128001"><ele>162.0</ele><time>2026-04-25T16:32:33.001Z</time></trkpt><trkpt lat="44.01765043264169" lon="10.52053205571028"><ele>154.0</ele><time>2026-04-25T16:32:34.001Z</time></trkpt><trkpt lat="44.01752998492444" lon="10.520815608512462"><ele>161.5</ele><time>2026-04-25T16:32:35.002Z</time></trkpt><trkpt lat="44.01740702293217" lon="10.521098319986024"><ele>169.0</ele><time>2026-04-25T16:32:36.002Z</time></trkpt><trkpt lat="44.01728856292134" lon="10.521382992720016"><ele>169.0</ele><time>2026-04-25T16:32:37.002Z</time></trkpt><trkpt lat="44.01718233441608" lon="10.521675074095482"><ele>169.0</ele><time>2026-04-25T16:32:38.002Z</time></trkpt><trkpt lat="44.017092814577104" lon="10.521970016718598"><ele>161.0</ele><time>2026-04-25T16:32:39.002Z</time></trkpt><trkpt lat="44.017015340957435" lon="10.522268441070926"><ele>153.0</ele><time>2026-04-25T16:32:40.002Z</time></trkpt><trkpt lat="44.01695200381883" lon="10.522576160057271"><ele>153.0</ele><time>2026-04-25T16:32:41.002Z</time></trkpt><trkpt lat="44.01689946200514" lon="10.522878701402988"><ele>153.0</ele><time>2026-04-25T16:32:42.002Z</time></trkpt><trkpt lat="44.016857608407165" lon="10.523183285167772"><ele>153.0</ele><time>2026-04-25T16:32:43.002Z</time></trkpt><trkpt lat="44.01682857192951" lon="10.523498976700992"><ele>148.5</ele><time>2026-04-25T16:32:44.002Z</time></trkpt><trkpt lat="44.016816490536876" lon="10.523820966171094"><ele>144.0</ele><time>2026-04-25T16:32:45.002Z</time></trkpt><trkpt lat="44.01682805689961" lon="10.5241510768588"><ele>144.0</ele><time>2026-04-25T16:32:46.002Z</time></trkpt><trkpt lat="44.01684335834971" lon="10.524475152047902"><ele>144.0</ele><time>2026-04-25T16:32:47.002Z</time></trkpt><trkpt lat="44.016863397485444" lon="10.524789360147787"><ele>142.66666666666666</ele><time>2026-04-25T16:32:48.002Z</time></trkpt><trkpt lat="44.01690062040751" lon="10.525092378777966"><ele>141.33333333333331</ele><time>2026-04-25T16:32:49.002Z</time></trkpt><trkpt lat="44.01693984513588" lon="10.525398087652823"><ele>140.0</ele><time>2026-04-25T16:32:50.002Z</time></trkpt><trkpt lat="44.016998307001415" lon="10.525696718018938"><ele>138.33333333333331</ele><time>2026-04-25T16:32:51.002Z</time></trkpt><trkpt lat="44.017065345760464" lon="10.525980855670444"><ele>136.66666666666666</ele><time>2026-04-25T16:32:52.002Z</time></trkpt><trkpt lat="44.01713212997941" lon="10.526264766139693"><ele>135.0</ele><time>2026-04-25T16:32:53.002Z</time></trkpt><trkpt lat="44.017196455324125" lon="10.526551369198495"><ele>135.66666666666666</ele><time>2026-04-25T16:32:54.002Z</time></trkpt><trkpt lat="44.01726203127944" lon="10.526839873960423"><ele>136.33333333333331</ele><time>2026-04-25T16:32:55.002Z</time></trkpt><trkpt lat="44.01732796682964" lon="10.527133029837323"><ele>137.0</ele><time>2026-04-25T16:32:56.002Z</time></trkpt><trkpt lat="44.01739064756124" lon="10.527430932935998"><ele>137.0</ele><time>2026-04-25T16:32:57.002Z</time></trkpt><trkpt lat="44.01745033867701" lon="10.527726318809991"><ele>137.0</ele><time>2026-04-25T16:32:58.002Z</time></trkpt><trkpt lat="44.01751210132099" lon="10.528019862104182"><ele>137.0</ele><time>2026-04-25T16:32:59.002Z</time></trkpt><trkpt lat="44.01757802350521" lon="10.528314998584413"><ele>135.0</ele><time>2026-04-25T16:33:00.002Z</time></trkpt><trkpt lat="44.01764084818647" lon="10.52861126185494"><ele>133.0</ele><time>2026-04-25T16:33:01.002Z</time></trkpt><trkpt lat="44.01770563730868" lon="10.528910840953515"><ele>131.0</ele><time>2026-04-25T16:33:02.002Z</time></trkpt><trkpt lat="44.017769470763184" lon="10.529216033076802"><ele>131.0</ele><time>2026-04-25T16:33:03.002Z</time></trkpt><trkpt lat="44.01783644713846" lon="10.529510765652693"><ele>131.0</ele><time>2026-04-25T16:33:04.002Z</time></trkpt><trkpt lat="44.017901419074526" lon="10.529812751313598"><ele>131.0</ele><time>2026-04-25T16:33:05.002Z</time></trkpt><trkpt lat="44.017964201890194" lon="10.53011229039614"><ele>129.0</ele><time>2026-04-25T16:33:06.002Z</time></trkpt><trkpt lat="44.01803201794122" lon="10.530412158731075"><ele>127.0</ele><time>2026-04-25T16:33:07.002Z</time></trkpt><trkpt lat="44.01810201135753" lon="10.530717075378718"><ele>127.0</ele><time>2026-04-25T16:33:08.002Z</time></trkpt><trkpt lat="44.01816713911565" lon="10.531017775645386"><ele>127.0</ele><time>2026-04-25T16:33:09.002Z</time></trkpt><trkpt lat="44.01821727659306" lon="10.531329446938893"><ele>127.0</ele><time>2026-04-25T16:33:10.002Z</time></trkpt><trkpt lat="44.018282664580944" lon="10.531635150541245"><ele>127.0</ele><time>2026-04-25T16:33:11.002Z</time></trkpt><trkpt lat="44.01834663519986" lon="10.531942701661672"><ele>134.0</ele><time>2026-04-25T16:33:12.001Z</time></trkpt><trkpt lat="44.018410760243654" lon="10.532247543631733"><ele>141.0</ele><time>2026-04-25T16:33:13.001Z</time></trkpt><trkpt lat="44.018491747283626" lon="10.532538935968486"><ele>141.0</ele><time>2026-04-25T16:33:14.001Z</time></trkpt><trkpt lat="44.01856194857276" lon="10.532833559604619"><ele>141.0</ele><time>2026-04-25T16:33:15.001Z</time></trkpt><trkpt lat="44.01864922713096" lon="10.533117026914793"><ele>141.0</ele><time>2026-04-25T16:33:16.001Z</time></trkpt><trkpt lat="44.01874218644714" lon="10.533392183267459"><ele>147.66666666666666</ele><time>2026-04-25T16:33:17.001Z</time></trkpt><trkpt lat="44.01884608134385" lon="10.533659771139103"><ele>154.33333333333331</ele><time>2026-04-25T16:33:18.001Z</time></trkpt><trkpt lat="44.01894397620705" lon="10.53389448334356"><ele>161.0</ele><time>2026-04-25T16:33:19.001Z</time></trkpt><trkpt lat="44.01905172213584" lon="10.534116678719375"><ele>157.0</ele><time>2026-04-25T16:33:20.001Z</time></trkpt><trkpt lat="44.01918011111689" lon="10.534377122224054"><ele>153.0</ele><time>2026-04-25T16:33:21.001Z</time></trkpt><trkpt lat="44.0193124400628" lon="10.534653578493815"><ele>153.0</ele><time>2026-04-25T16:33:22.001Z</time></trkpt><trkpt lat="44.01945758501189" lon="10.53492716927785"><ele>153.0</ele><time>2026-04-25T16:33:23.001Z</time></trkpt><trkpt lat="44.01956914283486" lon="10.535182265566833"><ele>153.0</ele><time>2026-04-25T16:33:24.001Z</time></trkpt><trkpt lat="44.01968263084333" lon="10.535386577999793"><ele>153.0</ele><time>2026-04-25T16:33:25.001Z</time></trkpt><trkpt lat="44.01969644378687" lon="10.535675683315214"><ele>153.0</ele><time>2026-04-25T16:33:26.001Z</time></trkpt><trkpt lat="44.01973467764565" lon="10.53594380809779"><ele>152.33333333333334</ele><time>2026-04-25T16:33:27.001Z</time></trkpt><trkpt lat="44.01973711842149" lon="10.53624045237069"><ele>151.66666666666669</ele><time>2026-04-25T16:33:28.001Z</time></trkpt><trkpt lat="44.01969893333331" lon="10.536539594392801"><ele>151.0</ele><time>2026-04-25T16:33:29.001Z</time></trkpt><trkpt lat="44.019639042298735" lon="10.536818751610964"><ele>145.66666666666669</ele><time>2026-04-25T16:33:30.001Z</time></trkpt><trkpt lat="44.01954787378398" lon="10.537086009508187"><ele>140.33333333333334</ele><time>2026-04-25T16:33:31.001Z</time></trkpt><trkpt lat="44.01942937930025" lon="10.537342874502038"><ele>135.0</ele><time>2026-04-25T16:33:32.001Z</time></trkpt><trkpt lat="44.019299990307324" lon="10.537576647931216"><ele>136.33333333333334</ele><time>2026-04-25T16:33:33.001Z</time></trkpt><trkpt lat="44.01914154034227" lon="10.537798583116576"><ele>137.66666666666669</ele><time>2026-04-25T16:33:34.001Z</time></trkpt><trkpt lat="44.018975103737205" lon="10.537988969873014"><ele>139.0</ele><time>2026-04-25T16:33:35.001Z</time></trkpt><trkpt lat="44.0187686538424" lon="10.538154795438976"><ele>139.0</ele><time>2026-04-25T16:33:36.001Z</time></trkpt><trkpt lat="44.01858055784029" lon="10.538330236192023"><ele>139.0</ele><time>2026-04-25T16:33:37.001Z</time></trkpt><trkpt lat="44.01837826820908" lon="10.538476624759863"><ele>133.0</ele><time>2026-04-25T16:33:38.001Z</time></trkpt><trkpt lat="44.01817045419745" lon="10.538619504815129"><ele>127.0</ele><time>2026-04-25T16:33:39.001Z</time></trkpt><trkpt lat="44.01795133284358" lon="10.538734954000681"><ele>127.0</ele><time>2026-04-25T16:33:40.001Z</time></trkpt><trkpt lat="44.017726421404696" lon="10.538839943429764"><ele>127.0</ele><time>2026-04-25T16:33:41.001Z</time></trkpt><trkpt lat="44.01749412126857" lon="10.538925755805478"><ele>134.5</ele><time>2026-04-25T16:33:42.001Z</time></trkpt><trkpt lat="44.017256669726194" lon="10.538976738675505"><ele>142.0</ele><time>2026-04-25T16:33:43.001Z</time></trkpt><trkpt lat="44.017017094361606" lon="10.539044282520257"><ele>142.0</ele><time>2026-04-25T16:33:44.001Z</time></trkpt><trkpt lat="44.01677716639048" lon="10.539139420785341"><ele>142.0</ele><time>2026-04-25T16:33:45.001Z</time></trkpt><trkpt lat="44.01654103266748" lon="10.539237111940494"><ele>150.0</ele><time>2026-04-25T16:33:46.001Z</time></trkpt><trkpt lat="44.01630327833112" lon="10.539322467815646"><ele>158.0</ele><time>2026-04-25T16:33:47.001Z</time></trkpt><trkpt lat="44.01606287936927" lon="10.539400864453883"><ele>158.0</ele><time>2026-04-25T16:33:48.001Z</time></trkpt><trkpt lat="44.015824378745705" lon="10.539497642486442"><ele>158.0</ele><time>2026-04-25T16:33:49.001Z</time></trkpt><trkpt lat="44.01559215862735" lon="10.539612739274801"><ele>140.5</ele><time>2026-04-25T16:33:50.001Z</time></trkpt><trkpt lat="44.01536243929861" lon="10.539712395553396"><ele>123.0</ele><time>2026-04-25T16:33:51.001Z</time></trkpt><trkpt lat="44.01513218945093" lon="10.539833944136397"><ele>131.0</ele><time>2026-04-25T16:33:52.001Z</time></trkpt><trkpt lat="44.01490676812883" lon="10.539985686870336"><ele>139.0</ele><time>2026-04-25T16:33:53.001Z</time></trkpt><trkpt lat="44.01468009000422" lon="10.540094084651615"><ele>139.0</ele><time>2026-04-25T16:33:54.001Z</time></trkpt><trkpt lat="44.01445899669368" lon="10.54022212311467"><ele>139.0</ele><time>2026-04-25T16:33:55.001Z</time></trkpt><trkpt lat="44.01425009955644" lon="10.540327487950954"><ele>133.66666666666669</ele><time>2026-04-25T16:33:56.001Z</time></trkpt><trkpt lat="44.01405022519544" lon="10.54043848018418"><ele>128.33333333333334</ele><time>2026-04-25T16:33:57.001Z</time></trkpt><trkpt lat="44.01385635022789" lon="10.540532821247611"><ele>123.0</ele><time>2026-04-25T16:33:58.001Z</time></trkpt><trkpt lat="44.01366228914355" lon="10.540630929247989"><ele>123.0</ele><time>2026-04-25T16:33:59.001Z</time></trkpt><trkpt lat="44.01346220204282" lon="10.54071932349802"><ele>123.0</ele><time>2026-04-25T16:34:00.001Z</time></trkpt><trkpt lat="44.013253080391124" lon="10.540805038153003"><ele>123.0</ele><time>2026-04-25T16:34:01.001Z</time></trkpt><trkpt lat="44.01303653169871" lon="10.540894013425383"><ele>125.5</ele><time>2026-04-25T16:34:02.001Z</time></trkpt><trkpt lat="44.01281910846541" lon="10.540986439708217"><ele>128.0</ele><time>2026-04-25T16:34:03.001Z</time></trkpt><trkpt lat="44.01259382052369" lon="10.541070364442907"><ele>127.5</ele><time>2026-04-25T16:34:04.001Z</time></trkpt><trkpt lat="44.012374200304265" lon="10.54116483928418"><ele>127.0</ele><time>2026-04-25T16:34:05.001Z</time></trkpt><trkpt lat="44.012139443813986" lon="10.541247449295508"><ele>123.5</ele><time>2026-04-25T16:34:06.001Z</time></trkpt><trkpt lat="44.01190005686671" lon="10.541310833298272"><ele>120.0</ele><time>2026-04-25T16:34:07.001Z</time></trkpt><trkpt lat="44.01166653023425" lon="10.541375821899651"><ele>119.5</ele><time>2026-04-25T16:34:08.001Z</time></trkpt><trkpt lat="44.011431183346886" lon="10.541441779947988"><ele>119.0</ele><time>2026-04-25T16:34:09.001Z</time></trkpt><trkpt lat="44.011200237879095" lon="10.54150869253149"><ele>119.0</ele><time>2026-04-25T16:34:10.001Z</time></trkpt><trkpt lat="44.01096984416678" lon="10.54156894808258"><ele>119.0</ele><time>2026-04-25T16:34:11.001Z</time></trkpt><trkpt lat="44.01074219448094" lon="10.541626398954277"><ele>119.5</ele><time>2026-04-25T16:34:12.001Z</time></trkpt><trkpt lat="44.010515078322236" lon="10.541686732872764"><ele>120.0</ele><time>2026-04-25T16:34:13.001Z</time></trkpt><trkpt lat="44.01028816208338" lon="10.541752793867008"><ele>120.0</ele><time>2026-04-25T16:34:14.001Z</time></trkpt><trkpt lat="44.010064734257575" lon="10.54181254431956"><ele>120.0</ele><time>2026-04-25T16:34:15.001Z</time></trkpt><trkpt lat="44.00984361687432" lon="10.541870659036059"><ele>119.66666666666666</ele><time>2026-04-25T16:34:16.001Z</time></trkpt><trkpt lat="44.009628395570175" lon="10.54192738162154"><ele>119.33333333333333</ele><time>2026-04-25T16:34:17.001Z</time></trkpt><trkpt lat="44.00941736257209" lon="10.542012604080043"><ele>119.0</ele><time>2026-04-25T16:34:18.001Z</time></trkpt><trkpt lat="44.00921293140998" lon="10.54213467779797"><ele>118.66666666666666</ele><time>2026-04-25T16:34:19.001Z</time></trkpt><trkpt lat="44.00901909952159" lon="10.542282624057528"><ele>118.33333333333334</ele><time>2026-04-25T16:34:20.001Z</time></trkpt><trkpt lat="44.008831971508734" lon="10.54244585596215"><ele>118.0</ele><time>2026-04-25T16:34:21.001Z</time></trkpt><trkpt lat="44.008664845941496" lon="10.542637349295317"><ele>118.0</ele><time>2026-04-25T16:34:22.001Z</time></trkpt><trkpt lat="44.00850482311461" lon="10.542864686374902"><ele>118.0</ele><time>2026-04-25T16:34:23.001Z</time></trkpt><trkpt lat="44.00835970890124" lon="10.543099683125194"><ele>117.5</ele><time>2026-04-25T16:34:24.001Z</time></trkpt><trkpt lat="44.00823614194927" lon="10.543364300746328"><ele>117.0</ele><time>2026-04-25T16:34:25.001Z</time></trkpt><trkpt lat="44.00812053361589" lon="10.543632838487309"><ele>114.0</ele><time>2026-04-25T16:34:26.001Z</time></trkpt><trkpt lat="44.008017437919904" lon="10.543914878593636"><ele>111.0</ele><time>2026-04-25T16:34:27.001Z</time></trkpt><trkpt lat="44.00793026854756" lon="10.544222502378132"><ele>111.0</ele><time>2026-04-25T16:34:28.001Z</time></trkpt><trkpt lat="44.00783974734128" lon="10.544530780935144"><ele>111.0</ele><time>2026-04-25T16:34:29.002Z</time></trkpt><trkpt lat="44.00774168000984" lon="10.544819621741654"><ele>111.5</ele><time>2026-04-25T16:34:30.002Z</time></trkpt><trkpt lat="44.00761952986376" lon="10.545104471163894"><ele>112.0</ele><time>2026-04-25T16:34:31.002Z</time></trkpt><trkpt lat="44.007475001741206" lon="10.545354077100683"><ele>111.0</ele><time>2026-04-25T16:34:32.002Z</time></trkpt><trkpt lat="44.00733916905539" lon="10.545614955039152"><ele>110.0</ele><time>2026-04-25T16:34:33.001Z</time></trkpt><trkpt lat="44.00717766934638" lon="10.545843728978413"><ele>110.0</ele><time>2026-04-25T16:34:34.001Z</time></trkpt><trkpt lat="44.0069993834351" lon="10.546052928744489"><ele>110.0</ele><time>2026-04-25T16:34:35.002Z</time></trkpt><trkpt lat="44.006807762677695" lon="10.546227530092468"><ele>109.33333333333333</ele><time>2026-04-25T16:34:36.002Z</time></trkpt><trkpt lat="44.00662462881176" lon="10.546400426542796"><ele>108.66666666666666</ele><time>2026-04-25T16:34:37.002Z</time></trkpt><trkpt lat="44.0064462550715" lon="10.546589473198607"><ele>108.0</ele><time>2026-04-25T16:34:38.002Z</time></trkpt><trkpt lat="44.00623849201296" lon="10.54674757470879"><ele>108.0</ele><time>2026-04-25T16:34:39.002Z</time></trkpt><trkpt lat="44.006044988369474" lon="10.546930525775373"><ele>108.0</ele><time>2026-04-25T16:34:40.002Z</time></trkpt><trkpt lat="44.0058634946801" lon="10.547121473262337"><ele>109.0</ele><time>2026-04-25T16:34:41.002Z</time></trkpt><trkpt lat="44.005674238432064" lon="10.547306227093467"><ele>110.0</ele><time>2026-04-25T16:34:42.002Z</time></trkpt><trkpt lat="44.0054734895933" lon="10.547468463974212"><ele>110.0</ele><time>2026-04-25T16:34:43.002Z</time></trkpt><trkpt lat="44.0052828989922" lon="10.547646151993671"><ele>110.0</ele><time>2026-04-25T16:34:44.002Z</time></trkpt><trkpt lat="44.00509338632181" lon="10.547822835056706"><ele>109.0</ele><time>2026-04-25T16:34:45.002Z</time></trkpt><trkpt lat="44.004915439445064" lon="10.547990567220182"><ele>108.0</ele><time>2026-04-25T16:34:46.002Z</time></trkpt><trkpt lat="44.00472647357313" lon="10.548169063431772"><ele>107.0</ele><time>2026-04-25T16:34:47.002Z</time></trkpt><trkpt lat="44.00454464583881" lon="10.548338777887535"><ele>107.0</ele><time>2026-04-25T16:34:48.002Z</time></trkpt><trkpt lat="44.00435556645837" lon="10.548512571706347"><ele>107.0</ele><time>2026-04-25T16:34:49.002Z</time></trkpt><trkpt lat="44.00416829570318" lon="10.54868171344983"><ele>106.0</ele><time>2026-04-25T16:34:50.002Z</time></trkpt><trkpt lat="44.00398192262595" lon="10.54883594001625"><ele>105.0</ele><time>2026-04-25T16:34:51.002Z</time></trkpt><trkpt lat="44.00379916226675" lon="10.548970420462734"><ele>104.0</ele><time>2026-04-25T16:34:52.002Z</time></trkpt><trkpt lat="44.00361767999395" lon="10.549083860037895"><ele>104.0</ele><time>2026-04-25T16:34:53.002Z</time></trkpt><trkpt lat="44.00342690863627" lon="10.549183710080793"><ele>104.0</ele><time>2026-04-25T16:34:54.002Z</time></trkpt><trkpt lat="44.00322354551661" lon="10.549273568936808"><ele>104.0</ele><time>2026-04-25T16:34:55.002Z</time></trkpt><trkpt lat="44.00301763652716" lon="10.549347901780905"><ele>104.66666666666666</ele><time>2026-04-25T16:34:56.002Z</time></trkpt><trkpt lat="44.002813037592865" lon="10.549410219506099"><ele>105.33333333333334</ele><time>2026-04-25T16:34:57.002Z</time></trkpt><trkpt lat="44.00260448694459" lon="10.549472269794874"><ele>106.0</ele><time>2026-04-25T16:34:58.002Z</time></trkpt><trkpt lat="44.002393817802016" lon="10.549534950394255"><ele>105.66666666666667</ele><time>2026-04-25T16:34:59.002Z</time></trkpt><trkpt lat="44.00218017604381" lon="10.549598515449992"><ele>105.33333333333334</ele><time>2026-04-25T16:35:00.002Z</time></trkpt><trkpt lat="44.001963323480304" lon="10.549664403008864"><ele>105.0</ele><time>2026-04-25T16:35:01.002Z</time></trkpt><trkpt lat="44.0017491261364" lon="10.549729630166214"><ele>108.66666666666666</ele><time>2026-04-25T16:35:02.002Z</time></trkpt><trkpt lat="44.001555236552" lon="10.549802204553432"><ele>112.33333333333333</ele><time>2026-04-25T16:35:03.002Z</time></trkpt><trkpt lat="44.001377906200545" lon="10.549859963288101"><ele>116.0</ele><time>2026-04-25T16:35:04.002Z</time></trkpt><trkpt lat="44.00121533385511" lon="10.54993910335426"><ele>116.0</ele><time>2026-04-25T16:35:05.002Z</time></trkpt><trkpt lat="44.00106170847139" lon="10.550032137259716"><ele>116.0</ele><time>2026-04-25T16:35:06.002Z</time></trkpt><trkpt lat="44.00092090175498" lon="10.550137863251313"><ele>116.0</ele><time>2026-04-25T16:35:07.002Z</time></trkpt><trkpt lat="44.00079220958261" lon="10.550251133157811"><ele>122.33333333333333</ele><time>2026-04-25T16:35:08.002Z</time></trkpt><trkpt lat="44.00067296774928" lon="10.550373266719603"><ele>128.66666666666666</ele><time>2026-04-25T16:35:09.002Z</time></trkpt><trkpt lat="44.000580525227384" lon="10.550522247087889"><ele>135.0</ele><time>2026-04-25T16:35:10.002Z</time></trkpt><trkpt lat="44.000464833719995" lon="10.550677248263945"><ele>135.0</ele><time>2026-04-25T16:35:11.002Z</time></trkpt><trkpt lat="44.00036548850808" lon="10.55084122436722"><ele>135.0</ele><time>2026-04-25T16:35:12.002Z</time></trkpt><trkpt lat="44.00024905043169" lon="10.550979070397778"><ele>135.0</ele><time>2026-04-25T16:35:13.002Z</time></trkpt><trkpt lat="44.00014600291878" lon="10.551124336267906"><ele>129.0</ele><time>2026-04-25T16:35:14.002Z</time></trkpt><trkpt lat="44.000049359833916" lon="10.55127664678279"><ele>123.0</ele><time>2026-04-25T16:35:15.002Z</time></trkpt><trkpt lat="43.99995520131102" lon="10.551422184267661"><ele>117.0</ele><time>2026-04-25T16:35:16.002Z</time></trkpt><trkpt lat="43.99984413031395" lon="10.551571685218258"><ele>111.0</ele><time>2026-04-25T16:35:17.001Z</time></trkpt><trkpt lat="43.99972688352282" lon="10.551702643252938"><ele>111.0</ele><time>2026-04-25T16:35:18.001Z</time></trkpt><trkpt lat="43.99962774147645" lon="10.551866349489654"><ele>111.0</ele><time>2026-04-25T16:35:19.001Z</time></trkpt><trkpt lat="43.99950866586281" lon="10.5519949774596"><ele>111.0</ele><time>2026-04-25T16:35:20.001Z</time></trkpt><trkpt lat="43.99938091315029" lon="10.552109086758254"><ele>110.0</ele><time>2026-04-25T16:35:21.001Z</time></trkpt><trkpt lat="43.999238548135004" lon="10.552204456003338"><ele>109.0</ele><time>2026-04-25T16:35:22.001Z</time></trkpt><trkpt lat="43.9990973090966" lon="10.552283624305083"><ele>108.0</ele><time>2026-04-25T16:35:23.001Z</time></trkpt><trkpt lat="43.99894669422839" lon="10.552315159563062"><ele>108.0</ele><time>2026-04-25T16:35:24.001Z</time></trkpt><trkpt lat="43.9987819431899" lon="10.552367847184282"><ele>108.0</ele><time>2026-04-25T16:35:25.001Z</time></trkpt><trkpt lat="43.99860261871304" lon="10.552402842924959"><ele>108.0</ele><time>2026-04-25T16:35:26.001Z</time></trkpt><trkpt lat="43.99841213477951" lon="10.552471034413388"><ele>112.66666666666666</ele><time>2026-04-25T16:35:27.001Z</time></trkpt><trkpt lat="43.99821153689877" lon="10.552542846472845"><ele>117.33333333333333</ele><time>2026-04-25T16:35:28.001Z</time></trkpt><trkpt lat="43.99800100357022" lon="10.552615648207997"><ele>122.0</ele><time>2026-04-25T16:35:29.001Z</time></trkpt><trkpt lat="43.997785948392675" lon="10.55270486069698"><ele>122.0</ele><time>2026-04-25T16:35:30.001Z</time></trkpt><trkpt lat="43.99755280832268" lon="10.552765761224842"><ele>122.0</ele><time>2026-04-25T16:35:31.001Z</time></trkpt><trkpt lat="43.997317408089486" lon="10.552843587600556"><ele>112.0</ele><time>2026-04-25T16:35:32.001Z</time></trkpt><trkpt lat="43.997082049739284" lon="10.552909702261447"><ele>102.0</ele><time>2026-04-25T16:35:33.001Z</time></trkpt><trkpt lat="43.99683298422521" lon="10.552949711329532"><ele>104.0</ele><time>2026-04-25T16:35:34.001Z</time></trkpt><trkpt lat="43.99657927474842" lon="10.55294523387347"><ele>106.0</ele><time>2026-04-25T16:35:35.001Z</time></trkpt><trkpt lat="43.99632175049826" lon="10.55292541570759"><ele>106.0</ele><time>2026-04-25T16:35:36.001Z</time></trkpt><trkpt lat="43.996058094243644" lon="10.552905409748167"><ele>106.0</ele><time>2026-04-25T16:35:37.001Z</time></trkpt><trkpt lat="43.995791480203366" lon="10.55288509138632"><ele>122.0</ele><time>2026-04-25T16:35:38.001Z</time></trkpt><trkpt lat="43.9955232945869" lon="10.552864653239569"><ele>138.0</ele><time>2026-04-25T16:35:39.001Z</time></trkpt><trkpt lat="43.99526050793795" lon="10.552842643965903"><ele>138.0</ele><time>2026-04-25T16:35:40.001Z</time></trkpt><trkpt lat="43.99500501503577" lon="10.55281968493935"><ele>138.0</ele><time>2026-04-25T16:35:41.001Z</time></trkpt><trkpt lat="43.99475173682339" lon="10.552792110034066"><ele>136.0</ele><time>2026-04-25T16:35:42.001Z</time></trkpt><trkpt lat="43.994507455452144" lon="10.552763565234258"><ele>134.0</ele><time>2026-04-25T16:35:43.001Z</time></trkpt><trkpt lat="43.99425816555111" lon="10.552727670801358"><ele>131.5</ele><time>2026-04-25T16:35:44.001Z</time></trkpt><trkpt lat="43.99401702221412" lon="10.552683869001848"><ele>129.0</ele><time>2026-04-25T16:35:45.001Z</time></trkpt><trkpt lat="43.993772450016195" lon="10.552655552810675"><ele>129.0</ele><time>2026-04-25T16:35:46.001Z</time></trkpt><trkpt lat="43.9935386450451" lon="10.55258725633898"><ele>129.0</ele><time>2026-04-25T16:35:47.001Z</time></trkpt><trkpt lat="43.99329699899393" lon="10.55253246259424"><ele>120.0</ele><time>2026-04-25T16:35:48.001Z</time></trkpt><trkpt lat="43.9930605670694" lon="10.552476121447139"><ele>111.0</ele><time>2026-04-25T16:35:49.001Z</time></trkpt><trkpt lat="43.992828688799165" lon="10.552422348026704"><ele>111.0</ele><time>2026-04-25T16:35:50.001Z</time></trkpt><trkpt lat="43.99260563293445" lon="10.552391061095454"><ele>111.0</ele><time>2026-04-25T16:35:51.001Z</time></trkpt><trkpt lat="43.99239064282963" lon="10.552341903331104"><ele>111.0</ele><time>2026-04-25T16:35:52.001Z</time></trkpt><trkpt lat="43.99217415904701" lon="10.552300166197552"><ele>108.66666666666666</ele><time>2026-04-25T16:35:53.001Z</time></trkpt><trkpt lat="43.991967935111376" lon="10.552263890287813"><ele>106.33333333333333</ele><time>2026-04-25T16:35:54.001Z</time></trkpt><trkpt lat="43.991776451793086" lon="10.55222833394208"><ele>104.0</ele><time>2026-04-25T16:35:55.001Z</time></trkpt><trkpt lat="43.991578912693036" lon="10.552184093559765"><ele>102.33333333333333</ele><time>2026-04-25T16:35:56.001Z</time></trkpt><trkpt lat="43.991380562300826" lon="10.552122144811566"><ele>100.66666666666666</ele><time>2026-04-25T16:35:57.001Z</time></trkpt><trkpt lat="43.991175233667356" lon="10.552081777122169"><ele>99.0</ele><time>2026-04-25T16:35:58.001Z</time></trkpt><trkpt lat="43.9909680902293" lon="10.552042200112048"><ele>108.33333333333334</ele><time>2026-04-25T16:35:59.001Z</time></trkpt><trkpt lat="43.99075584245608" lon="10.552005846847777"><ele>117.66666666666667</ele><time>2026-04-25T16:36:00.001Z</time></trkpt><trkpt lat="43.99054224300419" lon="10.551973676402108"><ele>127.0</ele><time>2026-04-25T16:36:01.001Z</time></trkpt><trkpt lat="43.990326728102225" lon="10.55194770229054"><ele>127.0</ele><time>2026-04-25T16:36:02.001Z</time></trkpt><trkpt lat="43.99011089238207" lon="10.551925742287366"><ele>127.0</ele><time>2026-04-25T16:36:03.001Z</time></trkpt><trkpt lat="43.98989331602269" lon="10.551907538269868"><ele>127.0</ele><time>2026-04-25T16:36:04.001Z</time></trkpt><trkpt lat="43.98967635768913" lon="10.551892951276754"><ele>125.66666666666667</ele><time>2026-04-25T16:36:05.001Z</time></trkpt><trkpt lat="43.98946197375564" lon="10.551882275898462"><ele>124.33333333333334</ele><time>2026-04-25T16:36:06.001Z</time></trkpt><trkpt lat="43.989246849914224" lon="10.551873997563778"><ele>123.0</ele><time>2026-04-25T16:36:07.001Z</time></trkpt><trkpt lat="43.98903099562623" lon="10.551869528492432"><ele>123.0</ele><time>2026-04-25T16:36:08.001Z</time></trkpt><trkpt lat="43.9888140081661" lon="10.55186845048501"><ele>123.0</ele><time>2026-04-25T16:36:09.001Z</time></trkpt><trkpt lat="43.98859348233554" lon="10.551869402348515"><ele>123.0</ele><time>2026-04-25T16:36:10.001Z</time></trkpt><trkpt lat="43.98838218016658" lon="10.551888310018478"><ele>122.66666666666666</ele><time>2026-04-25T16:36:11.001Z</time></trkpt><trkpt lat="43.98816241400443" lon="10.551886382889474"><ele>122.33333333333333</ele><time>2026-04-25T16:36:12.001Z</time></trkpt><trkpt lat="43.987953669883446" lon="10.551894315141778"><ele>122.0</ele><time>2026-04-25T16:36:13.001Z</time></trkpt><trkpt lat="43.9877572776439" lon="10.551867931383912"><ele>122.0</ele><time>2026-04-25T16:36:14.001Z</time></trkpt><trkpt lat="43.98757504378756" lon="10.551839465457554"><ele>122.0</ele><time>2026-04-25T16:36:15.001Z</time></trkpt><trkpt lat="43.98739284134899" lon="10.551824195177476"><ele>122.0</ele><time>2026-04-25T16:36:16.001Z</time></trkpt><trkpt lat="43.98723996334733" lon="10.551715753278698"><ele>118.33333333333333</ele><time>2026-04-25T16:36:17.001Z</time></trkpt><trkpt lat="43.9870811831372" lon="10.55162485335788"><ele>114.66666666666666</ele><time>2026-04-25T16:36:18.001Z</time></trkpt><trkpt lat="43.986949704820404" lon="10.551506199080958"><ele>111.0</ele><time>2026-04-25T16:36:19.001Z</time></trkpt><trkpt lat="43.98682223293716" lon="10.55139666382911"><ele>111.0</ele><time>2026-04-25T16:36:20.001Z</time></trkpt><trkpt lat="43.98671498539175" lon="10.551268400477944"><ele>111.0</ele><time>2026-04-25T16:36:21.001Z</time></trkpt><trkpt lat="43.98659028566557" lon="10.551152670897165"><ele>111.0</ele><time>2026-04-25T16:36:22.001Z</time></trkpt><trkpt lat="43.986460732554185" lon="10.55107896961182"><ele>111.0</ele><time>2026-04-25T16:36:23.001Z</time></trkpt><trkpt lat="43.98635927036149" lon="10.550966487534556"><ele>112.25</ele><time>2026-04-25T16:36:24.001Z</time></trkpt><trkpt lat="43.98620466326931" lon="10.550965056175322"><ele>113.5</ele><time>2026-04-25T16:36:25.001Z</time></trkpt><trkpt lat="43.986062327021955" lon="10.550969144053873"><ele>114.75</ele><time>2026-04-25T16:36:26.001Z</time></trkpt><trkpt lat="43.98591220769994" lon="10.550981040634852"><ele>116.0</ele><time>2026-04-25T16:36:27.001Z</time></trkpt><trkpt lat="43.985764934165175" lon="10.550983571998625"><ele>116.0</ele><time>2026-04-25T16:36:28.001Z</time></trkpt><trkpt lat="43.98561804912115" lon="10.550983523580095"><ele>116.0</ele><time>2026-04-25T16:36:29.001Z</time></trkpt><trkpt lat="43.98547315681561" lon="10.55098402169583"><ele>116.0</ele><time>2026-04-25T16:36:30.001Z</time></trkpt><trkpt lat="43.985319654891754" lon="10.550984207609526"><ele>116.0</ele><time>2026-04-25T16:36:31.001Z</time></trkpt><trkpt lat="43.985159521698804" lon="10.550974688030458"><ele>115.0</ele><time>2026-04-25T16:36:32.001Z</time></trkpt><trkpt lat="43.98499953351192" lon="10.550955849410686"><ele>114.0</ele><time>2026-04-25T16:36:33.001Z</time></trkpt><trkpt lat="43.98483136796158" lon="10.550911908697449"><ele>113.0</ele><time>2026-04-25T16:36:34.003Z</time></trkpt><trkpt lat="43.984663647821456" lon="10.55086078428709"><ele>113.0</ele><time>2026-04-25T16:36:35.002Z</time></trkpt><trkpt lat="43.98449666000616" lon="10.550798600132621"><ele>113.0</ele><time>2026-04-25T16:36:36.002Z</time></trkpt><trkpt lat="43.9843377981802" lon="10.55073073045935"><ele>113.0</ele><time>2026-04-25T16:36:37.002Z</time></trkpt><trkpt lat="43.98419104552113" lon="10.55067224129541"><ele>111.25</ele><time>2026-04-25T16:36:38.002Z</time></trkpt><trkpt lat="43.984043897389014" lon="10.550629966804577"><ele>109.5</ele><time>2026-04-25T16:36:39.002Z</time></trkpt><trkpt lat="43.9839049882502" lon="10.550606427565018"><ele>107.75</ele><time>2026-04-25T16:36:40.002Z</time></trkpt><trkpt lat="43.98378114245297" lon="10.550601853711001"><ele>106.0</ele><time>2026-04-25T16:36:41.002Z</time></trkpt><trkpt lat="43.98365228018303" lon="10.550645807721683"><ele>106.0</ele><time>2026-04-25T16:36:42.002Z</time></trkpt><trkpt lat="43.98352681858263" lon="10.550704164716773"><ele>106.0</ele><time>2026-04-25T16:36:43.002Z</time></trkpt><trkpt lat="43.983407484414776" lon="10.550767128229124"><ele>106.0</ele><time>2026-04-25T16:36:44.002Z</time></trkpt><trkpt lat="43.983284296230075" lon="10.550828744144024"><ele>106.0</ele><time>2026-04-25T16:36:45.002Z</time></trkpt><trkpt lat="43.98316021224122" lon="10.550895690983998"><ele>104.75</ele><time>2026-04-25T16:36:46.002Z</time></trkpt><trkpt lat="43.98303431857949" lon="10.55095096042192"><ele>103.5</ele><time>2026-04-25T16:36:47.002Z</time></trkpt><trkpt lat="43.98290561056246" lon="10.550999235672311"><ele>102.25</ele><time>2026-04-25T16:36:48.002Z</time></trkpt><trkpt lat="43.98277321520647" lon="10.551031138364262"><ele>101.0</ele><time>2026-04-25T16:36:49.002Z</time></trkpt><trkpt lat="43.9826345336333" lon="10.551037333033861"><ele>100.5</ele><time>2026-04-25T16:36:50.002Z</time></trkpt><trkpt lat="43.98249751889813" lon="10.551009941594977"><ele>100.0</ele><time>2026-04-25T16:36:51.002Z</time></trkpt><trkpt lat="43.98235849347283" lon="10.550964261810464"><ele>99.5</ele><time>2026-04-25T16:36:52.002Z</time></trkpt><trkpt lat="43.982216068688935" lon="10.550914020210767"><ele>99.0</ele><time>2026-04-25T16:36:53.002Z</time></trkpt><trkpt lat="43.98207340284768" lon="10.550861360073256"><ele>99.0</ele><time>2026-04-25T16:36:54.002Z</time></trkpt><trkpt lat="43.981926285979576" lon="10.55080590440285"><ele>99.0</ele><time>2026-04-25T16:36:55.002Z</time></trkpt><trkpt lat="43.98177511779092" lon="10.550749962330288"><ele>99.0</ele><time>2026-04-25T16:36:56.002Z</time></trkpt><trkpt lat="43.98162178252454" lon="10.550702331456314"><ele>97.25</ele><time>2026-04-25T16:36:57.002Z</time></trkpt><trkpt lat="43.98146856699346" lon="10.550656172768845"><ele>95.5</ele><time>2026-04-25T16:36:58.002Z</time></trkpt><trkpt lat="43.98132759844698" lon="10.550614361895267"><ele>93.75</ele><time>2026-04-25T16:36:59.002Z</time></trkpt><trkpt lat="43.981199338281016" lon="10.550574130456571"><ele>92.0</ele><time>2026-04-25T16:37:00.002Z</time></trkpt><trkpt lat="43.981075856874256" lon="10.55055471232456"><ele>92.0</ele><time>2026-04-25T16:37:01.002Z</time></trkpt><trkpt lat="43.98096968584907" lon="10.550528934748485"><ele>92.0</ele><time>2026-04-25T16:37:02.002Z</time></trkpt><trkpt lat="43.98089412744237" lon="10.55051134915947"><ele>92.0</ele><time>2026-04-25T16:37:03.002Z</time></trkpt><trkpt lat="43.98081495591043" lon="10.550498714928116"><ele>92.0</ele><time>2026-04-25T16:37:04.002Z</time></trkpt><trkpt lat="43.98074058394092" lon="10.550477762947285"><ele>92.0</ele><time>2026-04-25T16:37:05.002Z</time></trkpt><trkpt lat="43.980662839989" lon="10.550456761616593"><ele>92.0</ele><time>2026-04-25T16:37:06.002Z</time></trkpt><trkpt lat="43.98058408139117" lon="10.550425557765498"><ele>91.8</ele><time>2026-04-25T16:37:07.002Z</time></trkpt><trkpt lat="43.98051954857465" lon="10.550397586566577"><ele>91.6</ele><time>2026-04-25T16:37:08.002Z</time></trkpt><trkpt lat="43.98043591333918" lon="10.55034844563361"><ele>91.39999999999999</ele><time>2026-04-25T16:37:10.002Z</time></trkpt><trkpt lat="43.98037988746069" lon="10.550308378410312"><ele>91.19999999999999</ele><time>2026-04-25T16:37:17.002Z</time></trkpt><trkpt lat="43.98028617001729" lon="10.55020678535321"><ele>91.0</ele><time>2026-04-25T16:37:19.002Z</time></trkpt><trkpt lat="43.980159326331496" lon="10.550168518794958"><ele>91.5</ele><time>2026-04-25T16:37:21.002Z</time></trkpt><trkpt lat="43.98009408064975" lon="10.55012680116477"><ele>92.0</ele><time>2026-04-25T16:37:22.002Z</time></trkpt><trkpt lat="43.980036620338524" lon="10.550083833272708"><ele>92.5</ele><time>2026-04-25T16:37:23.002Z</time></trkpt><trkpt lat="43.979972115743365" lon="10.550030962374672"><ele>93.0</ele><time>2026-04-25T16:37:24.002Z</time></trkpt><trkpt lat="43.97991449320499" lon="10.5499736015545"><ele>93.5</ele><time>2026-04-25T16:37:25.002Z</time></trkpt><trkpt lat="43.979841829804265" lon="10.549895555344069"><ele>94.0</ele><time>2026-04-25T16:37:27.002Z</time></trkpt><trkpt lat="43.9797607060738" lon="10.549808578652119"><ele>94.0</ele><time>2026-04-25T16:37:29.002Z</time></trkpt><trkpt lat="43.97970278899821" lon="10.549739052632988"><ele>94.0</ele><time>2026-04-25T16:37:32.002Z</time></trkpt><trkpt lat="43.97964895529426" lon="10.549686956021212"><ele>94.0</ele><time>2026-04-25T16:37:34.002Z</time></trkpt><trkpt lat="43.97956487777359" lon="10.549586165136835"><ele>94.0</ele><time>2026-04-25T16:37:36.002Z</time></trkpt><trkpt lat="43.97951175894418" lon="10.54952949072667"><ele>94.0</ele><time>2026-04-25T16:37:37.002Z</time></trkpt><trkpt lat="43.979447357205764" lon="10.54946261433234"><ele>94.0</ele><time>2026-04-25T16:37:38.002Z</time></trkpt><trkpt lat="43.97937581309874" lon="10.549390836203218"><ele>94.0</ele><time>2026-04-25T16:37:39.002Z</time></trkpt><trkpt lat="43.9792960569157" lon="10.549305659599092"><ele>94.0</ele><time>2026-04-25T16:37:40.002Z</time></trkpt><trkpt lat="43.979224330894624" lon="10.549217624149406"><ele>94.0</ele><time>2026-04-25T16:37:41.002Z</time></trkpt><trkpt lat="43.97914506144164" lon="10.549140507573325"><ele>94.0</ele><time>2026-04-25T16:37:42.002Z</time></trkpt><trkpt lat="43.97906681816718" lon="10.549053546010226"><ele>94.0</ele><time>2026-04-25T16:37:43.002Z</time></trkpt><trkpt lat="43.978983149166304" lon="10.54895698113659"><ele>94.0</ele><time>2026-04-25T16:37:44.002Z</time></trkpt><trkpt lat="43.97888458061434" lon="10.548856081146345"><ele>94.0</ele><time>2026-04-25T16:37:45.002Z</time></trkpt><trkpt lat="43.97878508286269" lon="10.548754251961926"><ele>94.0</ele><time>2026-04-25T16:37:46.002Z</time></trkpt><trkpt lat="43.978684431236296" lon="10.5486299571007"><ele>94.0</ele><time>2026-04-25T16:37:47.002Z</time></trkpt><trkpt lat="43.97856967258373" lon="10.548501275027954"><ele>94.0</ele><time>2026-04-25T16:37:48.002Z</time></trkpt><trkpt lat="43.97845280865577" lon="10.548374117533744"><ele>94.0</ele><time>2026-04-25T16:37:49.002Z</time></trkpt><trkpt lat="43.97833096762928" lon="10.548240166135605"><ele>94.0</ele><time>2026-04-25T16:37:50.002Z</time></trkpt><trkpt lat="43.97820683489897" lon="10.548103946639774"><ele>93.0</ele><time>2026-04-25T16:37:51.001Z</time></trkpt><trkpt lat="43.978083402281925" lon="10.547957764462822"><ele>92.0</ele><time>2026-04-25T16:37:52.001Z</time></trkpt><trkpt lat="43.97796380808818" lon="10.54780107814943"><ele>91.0</ele><time>2026-04-25T16:37:53.001Z</time></trkpt><trkpt lat="43.977847877158496" lon="10.547629904689002"><ele>91.0</ele><time>2026-04-25T16:37:54.001Z</time></trkpt><trkpt lat="43.97773651752868" lon="10.547451404409628"><ele>91.0</ele><time>2026-04-25T16:37:55.001Z</time></trkpt><trkpt lat="43.97763522771426" lon="10.547268215629268"><ele>91.0</ele><time>2026-04-25T16:37:56.001Z</time></trkpt><trkpt lat="43.977536314388836" lon="10.547079191382434"><ele>90.0</ele><time>2026-04-25T16:37:57.001Z</time></trkpt><trkpt lat="43.977444988684894" lon="10.546894124604838"><ele>89.0</ele><time>2026-04-25T16:37:58.001Z</time></trkpt><trkpt lat="43.97736519980634" lon="10.546699196925273"><ele>88.0</ele><time>2026-04-25T16:37:59.001Z</time></trkpt><trkpt lat="43.97728517490552" lon="10.546488133173106"><ele>88.0</ele><time>2026-04-25T16:38:00.001Z</time></trkpt><trkpt lat="43.9772174462108" lon="10.546260408609296"><ele>88.0</ele><time>2026-04-25T16:38:01.001Z</time></trkpt><trkpt lat="43.97715735172805" lon="10.54602462973786"><ele>88.0</ele><time>2026-04-25T16:38:02.001Z</time></trkpt><trkpt lat="43.977098776439234" lon="10.545772467090657"><ele>87.66666666666666</ele><time>2026-04-25T16:38:03.001Z</time></trkpt><trkpt lat="43.97705084338943" lon="10.545511331382807"><ele>87.33333333333333</ele><time>2026-04-25T16:38:04.001Z</time></trkpt><trkpt lat="43.97701181892858" lon="10.54524037599393"><ele>87.0</ele><time>2026-04-25T16:38:05.001Z</time></trkpt><trkpt lat="43.97697598790735" lon="10.54495665800429"><ele>87.0</ele><time>2026-04-25T16:38:06.001Z</time></trkpt><trkpt lat="43.97694798646327" lon="10.544669608446771"><ele>87.0</ele><time>2026-04-25T16:38:07.001Z</time></trkpt><trkpt lat="43.976907420869296" lon="10.544365020474086"><ele>87.0</ele><time>2026-04-25T16:38:08.001Z</time></trkpt><trkpt lat="43.97686579659831" lon="10.544068749266359"><ele>87.0</ele><time>2026-04-25T16:38:09.001Z</time></trkpt><trkpt lat="43.97682433131313" lon="10.543779787894369"><ele>87.0</ele><time>2026-04-25T16:38:10.001Z</time></trkpt><trkpt lat="43.976784773764756" lon="10.543500051741047"><ele>87.0</ele><time>2026-04-25T16:38:11.001Z</time></trkpt><trkpt lat="43.976745543681595" lon="10.543221454420449"><ele>87.0</ele><time>2026-04-25T16:38:12.001Z</time></trkpt><trkpt lat="43.976707121760384" lon="10.542948596264742"><ele>87.0</ele><time>2026-04-25T16:38:13.001Z</time></trkpt><trkpt lat="43.97661489121897" lon="10.542796520408793"><ele>87.0</ele><time>2026-04-25T16:38:14.001Z</time></trkpt><trkpt lat="43.97657723158157" lon="10.542529632768309"><ele>87.0</ele><time>2026-04-25T16:38:15.001Z</time></trkpt><trkpt lat="43.97653449744909" lon="10.542264282802817"><ele>87.0</ele><time>2026-04-25T16:38:16.001Z</time></trkpt><trkpt lat="43.9764956510724" lon="10.542001529828672"><ele>87.0</ele><time>2026-04-25T16:38:17.001Z</time></trkpt><trkpt lat="43.976463723142594" lon="10.541738413390231"><ele>86.66666666666667</ele><time>2026-04-25T16:38:18.001Z</time></trkpt><trkpt lat="43.976428344791714" lon="10.541484905440301"><ele>86.33333333333334</ele><time>2026-04-25T16:38:19.001Z</time></trkpt><trkpt lat="43.97640696884108" lon="10.541219844218897"><ele>86.0</ele><time>2026-04-25T16:38:20.001Z</time></trkpt><trkpt lat="43.97635696183095" lon="10.540963583813884"><ele>86.66666666666667</ele><time>2026-04-25T16:38:21.001Z</time></trkpt><trkpt lat="43.9763204804447" lon="10.54070513463388"><ele>87.33333333333333</ele><time>2026-04-25T16:38:22.001Z</time></trkpt><trkpt lat="43.97628293596786" lon="10.54044750670886"><ele>88.0</ele><time>2026-04-25T16:38:23.001Z</time></trkpt><trkpt lat="43.976250768873065" lon="10.540192918036222"><ele>88.66666666666666</ele><time>2026-04-25T16:38:24.001Z</time></trkpt><trkpt lat="43.97622947874968" lon="10.539937501868046"><ele>89.33333333333333</ele><time>2026-04-25T16:38:25.001Z</time></trkpt><trkpt lat="43.976238348912204" lon="10.539673486073369"><ele>90.0</ele><time>2026-04-25T16:38:26.001Z</time></trkpt><trkpt lat="43.97623891083537" lon="10.539395004666737"><ele>90.0</ele><time>2026-04-25T16:38:27.001Z</time></trkpt><trkpt lat="43.976242799698554" lon="10.539103076492134"><ele>90.0</ele><time>2026-04-25T16:38:28.001Z</time></trkpt><trkpt lat="43.9762344679596" lon="10.538795527750112"><ele>90.0</ele><time>2026-04-25T16:38:29.001Z</time></trkpt><trkpt lat="43.97623760944397" lon="10.538476463282386"><ele>90.0</ele><time>2026-04-25T16:38:30.001Z</time></trkpt><trkpt lat="43.97624057336417" lon="10.538155996645505"><ele>90.0</ele><time>2026-04-25T16:38:31.001Z</time></trkpt><trkpt lat="43.976220596049146" lon="10.53783048701076"><ele>90.0</ele><time>2026-04-25T16:38:32.001Z</time></trkpt><trkpt lat="43.97618801498743" lon="10.537495561993378"><ele>90.0</ele><time>2026-04-25T16:38:33.001Z</time></trkpt><trkpt lat="43.97612952577816" lon="10.53717754642742"><ele>91.0</ele><time>2026-04-25T16:38:34.001Z</time></trkpt><trkpt lat="43.976048427982846" lon="10.536868528541373"><ele>92.0</ele><time>2026-04-25T16:38:35.001Z</time></trkpt><trkpt lat="43.97592975940718" lon="10.53658196408688"><ele>88.5</ele><time>2026-04-25T16:38:36.001Z</time></trkpt><trkpt lat="43.97574738189797" lon="10.53632470055393"><ele>85.0</ele><time>2026-04-25T16:38:37.001Z</time></trkpt><trkpt lat="43.97557878025491" lon="10.536082619083395"><ele>85.0</ele><time>2026-04-25T16:38:38.001Z</time></trkpt><trkpt lat="43.975397383268906" lon="10.535869985745208"><ele>85.0</ele><time>2026-04-25T16:38:39.001Z</time></trkpt><trkpt lat="43.97521907292696" lon="10.535655327688785"><ele>85.0</ele><time>2026-04-25T16:38:40.003Z</time></trkpt><trkpt lat="43.97502837941606" lon="10.53544101071133"><ele>85.0</ele><time>2026-04-25T16:38:41.002Z</time></trkpt><trkpt lat="43.97483819384842" lon="10.535225588142891"><ele>87.5</ele><time>2026-04-25T16:38:42.002Z</time></trkpt><trkpt lat="43.97464951200089" lon="10.53500697520881"><ele>90.0</ele><time>2026-04-25T16:38:43.002Z</time></trkpt><trkpt lat="43.97447672470098" lon="10.53477198066466"><ele>90.0</ele><time>2026-04-25T16:38:44.002Z</time></trkpt><trkpt lat="43.974323578955634" lon="10.534513714537752"><ele>90.0</ele><time>2026-04-25T16:38:45.002Z</time></trkpt><trkpt lat="43.97418508060551" lon="10.5342419610183"><ele>90.0</ele><time>2026-04-25T16:38:46.003Z</time></trkpt><trkpt lat="43.97406243125327" lon="10.533958595558758"><ele>90.0</ele><time>2026-04-25T16:38:47.002Z</time></trkpt><trkpt lat="43.97395878935504" lon="10.533663673713653"><ele>96.5</ele><time>2026-04-25T16:38:48.002Z</time></trkpt><trkpt lat="43.973873494521406" lon="10.533357225267524"><ele>103.0</ele><time>2026-04-25T16:38:49.003Z</time></trkpt><trkpt lat="43.973808973425086" lon="10.533048226155898"><ele>110.0</ele><time>2026-04-25T16:38:50.003Z</time></trkpt><trkpt lat="43.97375028561353" lon="10.532733337066318"><ele>117.0</ele><time>2026-04-25T16:38:51.003Z</time></trkpt><trkpt lat="43.97369486492168" lon="10.53242351424502"><ele>117.0</ele><time>2026-04-25T16:38:52.003Z</time></trkpt><trkpt lat="43.973657090802895" lon="10.5321145504496"><ele>117.0</ele><time>2026-04-25T16:38:53.002Z</time></trkpt><trkpt lat="43.97362846457253" lon="10.531810649772689"><ele>117.0</ele><time>2026-04-25T16:38:54.002Z</time></trkpt><trkpt lat="43.97360169012833" lon="10.531510194055524"><ele>120.0</ele><time>2026-04-25T16:38:55.002Z</time></trkpt><trkpt lat="43.973575505623224" lon="10.531231017042057"><ele>123.0</ele><time>2026-04-25T16:38:56.002Z</time></trkpt><trkpt lat="43.973550782918" lon="10.531008532344403"><ele>126.0</ele><time>2026-04-25T16:38:57.002Z</time></trkpt><trkpt lat="43.97353838969224" lon="10.530794088540018"><ele>129.0</ele><time>2026-04-25T16:38:58.002Z</time></trkpt><trkpt lat="43.973513390541676" lon="10.530587926607275"><ele>132.0</ele><time>2026-04-25T16:38:59.002Z</time></trkpt><trkpt lat="43.9734939177129" lon="10.530381040862503"><ele>135.0</ele><time>2026-04-25T16:39:00.002Z</time></trkpt><trkpt lat="43.97348088708011" lon="10.53014768649756"><ele>136.33333333333334</ele><time>2026-04-25T16:39:01.002Z</time></trkpt><trkpt lat="43.97344943061941" lon="10.529886528545166"><ele>137.66666666666669</ele><time>2026-04-25T16:39:02.002Z</time></trkpt><trkpt lat="43.97342269864778" lon="10.529606825882928"><ele>139.0</ele><time>2026-04-25T16:39:03.002Z</time></trkpt><trkpt lat="43.973400717547975" lon="10.529349681389267"><ele>134.66666666666669</ele><time>2026-04-25T16:39:04.002Z</time></trkpt><trkpt lat="43.973383480638894" lon="10.529107251566124"><ele>130.33333333333334</ele><time>2026-04-25T16:39:05.002Z</time></trkpt><trkpt lat="43.973359576316426" lon="10.528843473475229"><ele>126.0</ele><time>2026-04-25T16:39:06.002Z</time></trkpt><trkpt lat="43.9733348053873" lon="10.52854034013192"><ele>112.0</ele><time>2026-04-25T16:39:07.002Z</time></trkpt><trkpt lat="43.973301357562136" lon="10.528209725030353"><ele>98.0</ele><time>2026-04-25T16:39:08.002Z</time></trkpt><trkpt lat="43.97326875785566" lon="10.527889206849812"><ele>98.0</ele><time>2026-04-25T16:39:09.002Z</time></trkpt><trkpt lat="43.97323515252285" lon="10.527551396562215"><ele>98.0</ele><time>2026-04-25T16:39:10.002Z</time></trkpt><trkpt lat="43.97322097165593" lon="10.527178380927227"><ele>103.0</ele><time>2026-04-25T16:39:11.002Z</time></trkpt><trkpt lat="43.97319703405894" lon="10.526839295345944"><ele>108.0</ele><time>2026-04-25T16:39:12.002Z</time></trkpt><trkpt lat="43.973157617565874" lon="10.526457403729639"><ele>112.5</ele><time>2026-04-25T16:39:13.002Z</time></trkpt><trkpt lat="43.97312194669719" lon="10.526081001356868"><ele>117.0</ele><time>2026-04-25T16:39:14.002Z</time></trkpt><trkpt lat="43.973098581061805" lon="10.525691419654365"><ele>121.5</ele><time>2026-04-25T16:39:15.002Z</time></trkpt><trkpt lat="43.973057770562775" lon="10.525301840193187"><ele>126.0</ele><time>2026-04-25T16:39:16.002Z</time></trkpt><trkpt lat="43.97297140537154" lon="10.524928420680247"><ele>126.0</ele><time>2026-04-25T16:39:17.002Z</time></trkpt><trkpt lat="43.97287821640158" lon="10.524568725663203"><ele>126.0</ele><time>2026-04-25T16:39:18.002Z</time></trkpt><trkpt lat="43.972764086166244" lon="10.524237478387578"><ele>122.0</ele><time>2026-04-25T16:39:19.002Z</time></trkpt><trkpt lat="43.972661043823635" lon="10.523895055941242"><ele>118.0</ele><time>2026-04-25T16:39:20.002Z</time></trkpt><trkpt lat="43.97255568815956" lon="10.523557744506398"><ele>105.5</ele><time>2026-04-25T16:39:21.002Z</time></trkpt><trkpt lat="43.972443860477036" lon="10.523229353408958"><ele>93.0</ele><time>2026-04-25T16:39:22.002Z</time></trkpt><trkpt lat="43.97229410404828" lon="10.52292793224928"><ele>108.0</ele><time>2026-04-25T16:39:23.002Z</time></trkpt><trkpt lat="43.972117551772584" lon="10.522660529287103"><ele>123.0</ele><time>2026-04-25T16:39:24.002Z</time></trkpt><trkpt lat="43.97194420797325" lon="10.522393013972986"><ele>123.0</ele><time>2026-04-25T16:39:25.001Z</time></trkpt><trkpt lat="43.97175425131113" lon="10.522136076043946"><ele>123.0</ele><time>2026-04-25T16:39:26.001Z</time></trkpt><trkpt lat="43.971576661136076" lon="10.521871108401895"><ele>113.0</ele><time>2026-04-25T16:39:27.001Z</time></trkpt><trkpt lat="43.97139990381919" lon="10.52160560827261"><ele>103.0</ele><time>2026-04-25T16:39:28.001Z</time></trkpt><trkpt lat="43.97121671044587" lon="10.52133752181764"><ele>121.5</ele><time>2026-04-25T16:39:29.001Z</time></trkpt><trkpt lat="43.97104116574861" lon="10.521062385366353"><ele>140.0</ele><time>2026-04-25T16:39:30.001Z</time></trkpt><trkpt lat="43.97086131343474" lon="10.520788009573256"><ele>135.5</ele><time>2026-04-25T16:39:31.001Z</time></trkpt><trkpt lat="43.97067816727293" lon="10.520531022770765"><ele>131.0</ele><time>2026-04-25T16:39:32.001Z</time></trkpt><trkpt lat="43.970479987984895" lon="10.520307197736233"><ele>131.0</ele><time>2026-04-25T16:39:33.001Z</time></trkpt><trkpt lat="43.970256918106244" lon="10.52010956992529"><ele>131.0</ele><time>2026-04-25T16:39:34.001Z</time></trkpt><trkpt lat="43.97002199958252" lon="10.519958333059634"><ele>110.0</ele><time>2026-04-25T16:39:35.001Z</time></trkpt><trkpt lat="43.96979219858341" lon="10.519820804983508"><ele>89.0</ele><time>2026-04-25T16:39:36.001Z</time></trkpt><trkpt lat="43.96955889182177" lon="10.519688134680852"><ele>92.0</ele><time>2026-04-25T16:39:37.001Z</time></trkpt><trkpt lat="43.969342324129535" lon="10.519534325906083"><ele>95.0</ele><time>2026-04-25T16:39:38.001Z</time></trkpt><trkpt lat="43.96912873601176" lon="10.519399793849072"><ele>95.0</ele><time>2026-04-25T16:39:39.001Z</time></trkpt><trkpt lat="43.96893713824193" lon="10.519270421386711"><ele>95.0</ele><time>2026-04-25T16:39:40.001Z</time></trkpt><trkpt lat="43.9687455108505" lon="10.519136801378417"><ele>95.0</ele><time>2026-04-25T16:39:41.001Z</time></trkpt><trkpt lat="43.968555997808785" lon="10.51900823299382"><ele>95.0</ele><time>2026-04-25T16:39:42.001Z</time></trkpt><trkpt lat="43.96836686342482" lon="10.518877100306636"><ele>95.0</ele><time>2026-04-25T16:39:43.001Z</time></trkpt><trkpt lat="43.96819697134601" lon="10.518739593817658"><ele>95.0</ele><time>2026-04-25T16:39:44.001Z</time></trkpt><trkpt lat="43.96805544795794" lon="10.518582355141953"><ele>94.66666666666667</ele><time>2026-04-25T16:39:45.001Z</time></trkpt><trkpt lat="43.96792003739875" lon="10.518416052285756"><ele>94.33333333333333</ele><time>2026-04-25T16:39:46.001Z</time></trkpt><trkpt lat="43.96779160028321" lon="10.518234039472043"><ele>94.0</ele><time>2026-04-25T16:39:47.001Z</time></trkpt><trkpt lat="43.96767092991266" lon="10.518036241904154"><ele>90.66666666666666</ele><time>2026-04-25T16:39:48.001Z</time></trkpt><trkpt lat="43.96755412105461" lon="10.517835516531045"><ele>87.33333333333333</ele><time>2026-04-25T16:39:49.001Z</time></trkpt><trkpt lat="43.96744401522061" lon="10.517628538778155"><ele>84.0</ele><time>2026-04-25T16:39:50.001Z</time></trkpt><trkpt lat="43.967335844538376" lon="10.517428247329633"><ele>84.0</ele><time>2026-04-25T16:39:51.001Z</time></trkpt><trkpt lat="43.967225820368625" lon="10.51721747756332"><ele>84.0</ele><time>2026-04-25T16:39:52.001Z</time></trkpt><trkpt lat="43.967102327366064" lon="10.517002765061646"><ele>84.0</ele><time>2026-04-25T16:39:53.001Z</time></trkpt><trkpt lat="43.96697479872141" lon="10.516777565176916"><ele>81.66666666666667</ele><time>2026-04-25T16:39:54.001Z</time></trkpt><trkpt lat="43.96684702268014" lon="10.516539246705623"><ele>79.33333333333334</ele><time>2026-04-25T16:39:55.001Z</time></trkpt><trkpt lat="43.96672423525676" lon="10.516292321982537"><ele>77.0</ele><time>2026-04-25T16:39:56.001Z</time></trkpt><trkpt lat="43.96659825672808" lon="10.516037088612446"><ele>77.0</ele><time>2026-04-25T16:39:57.001Z</time></trkpt><trkpt lat="43.966473413007854" lon="10.515788341695542"><ele>77.0</ele><time>2026-04-25T16:39:58.001Z</time></trkpt><trkpt lat="43.966350395779415" lon="10.515523330480397"><ele>77.0</ele><time>2026-04-25T16:39:59.001Z</time></trkpt><trkpt lat="43.96624213694398" lon="10.51522517885035"><ele>81.66666666666667</ele><time>2026-04-25T16:40:00.001Z</time></trkpt><trkpt lat="43.966126027411484" lon="10.514963592865792"><ele>86.33333333333333</ele><time>2026-04-25T16:40:01.001Z</time></trkpt><trkpt lat="43.96601008714607" lon="10.514713448917444"><ele>91.0</ele><time>2026-04-25T16:40:02.001Z</time></trkpt><trkpt lat="43.96588589441249" lon="10.514467326961807"><ele>85.0</ele><time>2026-04-25T16:40:03.001Z</time></trkpt><trkpt lat="43.96575415052105" lon="10.514237069356719"><ele>79.0</ele><time>2026-04-25T16:40:04.001Z</time></trkpt><trkpt lat="43.96561657311045" lon="10.514029683789248"><ele>73.0</ele><time>2026-04-25T16:40:05.001Z</time></trkpt><trkpt lat="43.96548708539562" lon="10.513833206360609"><ele>74.33333333333333</ele><time>2026-04-25T16:40:06.001Z</time></trkpt><trkpt lat="43.965355800080694" lon="10.513650088106868"><ele>75.66666666666667</ele><time>2026-04-25T16:40:07.001Z</time></trkpt><trkpt lat="43.96522269013758" lon="10.513471665875697"><ele>77.0</ele><time>2026-04-25T16:40:08.001Z</time></trkpt><trkpt lat="43.965087846917626" lon="10.513302506156613"><ele>75.66666666666667</ele><time>2026-04-25T16:40:09.001Z</time></trkpt><trkpt lat="43.96494872348996" lon="10.5131318497345"><ele>74.33333333333333</ele><time>2026-04-25T16:40:10.001Z</time></trkpt><trkpt lat="43.96481200999891" lon="10.512961314613126"><ele>73.0</ele><time>2026-04-25T16:40:11.001Z</time></trkpt><trkpt lat="43.96468294258354" lon="10.512797833373687"><ele>73.0</ele><time>2026-04-25T16:40:12.001Z</time></trkpt><trkpt lat="43.9645601763756" lon="10.51264232780316"><ele>73.0</ele><time>2026-04-25T16:40:13.001Z</time></trkpt><trkpt lat="43.96444221954312" lon="10.51248655427137"><ele>73.0</ele><time>2026-04-25T16:40:14.001Z</time></trkpt><trkpt lat="43.96433536750017" lon="10.512344020971323"><ele>73.0</ele><time>2026-04-25T16:40:15.001Z</time></trkpt><trkpt lat="43.96422578376968" lon="10.512200631368147"><ele>73.0</ele><time>2026-04-25T16:40:16.001Z</time></trkpt><trkpt lat="43.96412015747018" lon="10.512064270248064"><ele>73.0</ele><time>2026-04-25T16:40:17.001Z</time></trkpt><trkpt lat="43.964018221306866" lon="10.511926260497743"><ele>73.0</ele><time>2026-04-25T16:40:18.001Z</time></trkpt><trkpt lat="43.963908728746894" lon="10.511792020503712"><ele>73.25</ele><time>2026-04-25T16:40:19.001Z</time></trkpt><trkpt lat="43.96380566754037" lon="10.511663628340337"><ele>73.5</ele><time>2026-04-25T16:40:20.001Z</time></trkpt><trkpt lat="43.96369949820595" lon="10.511524979378663"><ele>73.75</ele><time>2026-04-25T16:40:21.001Z</time></trkpt><trkpt lat="43.96359547873084" lon="10.511391006328903"><ele>74.0</ele><time>2026-04-25T16:40:22.001Z</time></trkpt><trkpt lat="43.96349030721222" lon="10.511252263006094"><ele>74.5</ele><time>2026-04-25T16:40:23.001Z</time></trkpt><trkpt lat="43.96338591384774" lon="10.511117331491304"><ele>75.0</ele><time>2026-04-25T16:40:24.001Z</time></trkpt><trkpt lat="43.96328010168485" lon="10.510986755077703"><ele>75.5</ele><time>2026-04-25T16:40:25.001Z</time></trkpt><trkpt lat="43.96318580923291" lon="10.510830442177795"><ele>76.0</ele><time>2026-04-25T16:40:26.001Z</time></trkpt><trkpt lat="43.963073139961004" lon="10.510703941888508"><ele>74.33333333333333</ele><time>2026-04-25T16:40:27.001Z</time></trkpt><trkpt lat="43.9629584089243" lon="10.510549903141063"><ele>72.66666666666667</ele><time>2026-04-25T16:40:28.001Z</time></trkpt><trkpt lat="43.962845665728885" lon="10.510406630392168"><ele>71.0</ele><time>2026-04-25T16:40:29.001Z</time></trkpt><trkpt lat="43.96272604229473" lon="10.51025102397063"><ele>71.0</ele><time>2026-04-25T16:40:30.001Z</time></trkpt><trkpt lat="43.96261055566424" lon="10.510099169070767"><ele>71.0</ele><time>2026-04-25T16:40:31.001Z</time></trkpt><trkpt lat="43.96248924087608" lon="10.509942640911007"><ele>71.0</ele><time>2026-04-25T16:40:32.001Z</time></trkpt><trkpt lat="43.96236477991716" lon="10.50978556847948"><ele>71.0</ele><time>2026-04-25T16:40:33.001Z</time></trkpt><trkpt lat="43.962247502442295" lon="10.509631736205483"><ele>71.0</ele><time>2026-04-25T16:40:34.001Z</time></trkpt><trkpt lat="43.96214528522548" lon="10.509470447633529"><ele>71.0</ele><time>2026-04-25T16:40:35.001Z</time></trkpt><trkpt lat="43.96202549685809" lon="10.509345009161052"><ele>71.25</ele><time>2026-04-25T16:40:36.001Z</time></trkpt><trkpt lat="43.96192152657718" lon="10.509204611020747"><ele>71.5</ele><time>2026-04-25T16:40:37.001Z</time></trkpt><trkpt lat="43.96181495304962" lon="10.509070596833578"><ele>71.75</ele><time>2026-04-25T16:40:38.001Z</time></trkpt><trkpt lat="43.96171153044428" lon="10.508932869665045"><ele>72.0</ele><time>2026-04-25T16:40:39.001Z</time></trkpt><trkpt lat="43.96162674923789" lon="10.508800162284649"><ele>72.0</ele><time>2026-04-25T16:40:40.001Z</time></trkpt><trkpt lat="43.961533621542166" lon="10.508682451289586"><ele>72.0</ele><time>2026-04-25T16:40:41.001Z</time></trkpt><trkpt lat="43.96144695441514" lon="10.508568553997367"><ele>72.0</ele><time>2026-04-25T16:40:42.001Z</time></trkpt><trkpt lat="43.96135782192559" lon="10.508455003886647"><ele>72.0</ele><time>2026-04-25T16:40:43.001Z</time></trkpt><trkpt lat="43.96126791319144" lon="10.5083482276486"><ele>72.0</ele><time>2026-04-25T16:40:44.001Z</time></trkpt><trkpt lat="43.96118482513414" lon="10.508226923847126"><ele>72.0</ele><time>2026-04-25T16:40:45.001Z</time></trkpt><trkpt lat="43.96109233316498" lon="10.50810372408132"><ele>72.0</ele><time>2026-04-25T16:40:46.003Z</time></trkpt><trkpt lat="43.960996575171684" lon="10.50798022314611"><ele>72.0</ele><time>2026-04-25T16:40:47.003Z</time></trkpt><trkpt lat="43.96090433618457" lon="10.5078608598914"><ele>72.0</ele><time>2026-04-25T16:40:48.003Z</time></trkpt><trkpt lat="43.96081130950852" lon="10.507736695024308"><ele>72.0</ele><time>2026-04-25T16:40:49.003Z</time></trkpt><trkpt lat="43.9607083758277" lon="10.507606318552721"><ele>72.0</ele><time>2026-04-25T16:40:50.003Z</time></trkpt><trkpt lat="43.960606383339346" lon="10.50748079335839"><ele>72.0</ele><time>2026-04-25T16:40:51.003Z</time></trkpt><trkpt lat="43.96050817453301" lon="10.507346235373074"><ele>72.0</ele><time>2026-04-25T16:40:52.003Z</time></trkpt><trkpt lat="43.96040089063592" lon="10.507210241171498"><ele>72.0</ele><time>2026-04-25T16:40:53.002Z</time></trkpt><trkpt lat="43.96028769443863" lon="10.507065133210663"><ele>72.0</ele><time>2026-04-25T16:40:54.002Z</time></trkpt><trkpt lat="43.96017287865939" lon="10.506917381529435"><ele>72.66666666666667</ele><time>2026-04-25T16:40:55.003Z</time></trkpt><trkpt lat="43.960056267408746" lon="10.506765970097746"><ele>73.33333333333334</ele><time>2026-04-25T16:40:56.003Z</time></trkpt><trkpt lat="43.95994097790999" lon="10.506612244751636"><ele>74.0</ele><time>2026-04-25T16:40:57.003Z</time></trkpt><trkpt lat="43.95983419263828" lon="10.506447248820509"><ele>74.0</ele><time>2026-04-25T16:40:58.002Z</time></trkpt><trkpt lat="43.959720596136236" lon="10.506298966793981"><ele>74.0</ele><time>2026-04-25T16:40:59.003Z</time></trkpt><trkpt lat="43.95960301175162" lon="10.506162788653324"><ele>74.0</ele><time>2026-04-25T16:41:00.003Z</time></trkpt><trkpt lat="43.95949482504934" lon="10.506018411305853"><ele>74.0</ele><time>2026-04-25T16:41:01.003Z</time></trkpt><trkpt lat="43.95938591864819" lon="10.505876056479915"><ele>74.0</ele><time>2026-04-25T16:41:02.003Z</time></trkpt><trkpt lat="43.95927748478249" lon="10.505735162452675"><ele>74.0</ele><time>2026-04-25T16:41:03.003Z</time></trkpt><trkpt lat="43.9591725369984" lon="10.505594429698318"><ele>74.0</ele><time>2026-04-25T16:41:04.003Z</time></trkpt><trkpt lat="43.959074523355795" lon="10.505465358878276"><ele>73.4</ele><time>2026-04-25T16:41:05.003Z</time></trkpt><trkpt lat="43.95898219981535" lon="10.505344934378186"><ele>72.80000000000001</ele><time>2026-04-25T16:41:06.003Z</time></trkpt><trkpt lat="43.958897292737944" lon="10.505235868578758"><ele>72.19999999999999</ele><time>2026-04-25T16:41:07.003Z</time></trkpt><trkpt lat="43.95882097524178" lon="10.505135999179375"><ele>71.6</ele><time>2026-04-25T16:41:08.003Z</time></trkpt><trkpt lat="43.9587532923707" lon="10.505055382399664"><ele>71.0</ele><time>2026-04-25T16:41:09.003Z</time></trkpt><trkpt lat="43.958692219720405" lon="10.504967006518955"><ele>71.0</ele><time>2026-04-25T16:41:10.003Z</time></trkpt><trkpt lat="43.9586412869247" lon="10.504864155590953"><ele>71.0</ele><time>2026-04-25T16:41:11.003Z</time></trkpt><trkpt lat="43.95859110271788" lon="10.504752994790843"><ele>71.0</ele><time>2026-04-25T16:41:12.003Z</time></trkpt><trkpt lat="43.95855299117264" lon="10.504654318325702"><ele>71.0</ele><time>2026-04-25T16:41:13.003Z</time></trkpt><trkpt lat="43.95852231303313" lon="10.504554380362993"><ele>71.0</ele><time>2026-04-25T16:41:14.003Z</time></trkpt><trkpt lat="43.95844309860314" lon="10.504476367455243"><ele>71.0</ele><time>2026-04-25T16:41:15.003Z</time></trkpt><trkpt lat="43.95835238516463" lon="10.50446933380176"><ele>70.8</ele><time>2026-04-25T16:41:16.003Z</time></trkpt><trkpt lat="43.95825825851626" lon="10.504463321320952"><ele>70.6</ele><time>2026-04-25T16:41:17.003Z</time></trkpt><trkpt lat="43.95815736250628" lon="10.504436900838794"><ele>70.4</ele><time>2026-04-25T16:41:18.003Z</time></trkpt><trkpt lat="43.958060554594184" lon="10.504389501082803"><ele>70.2</ele><time>2026-04-25T16:41:19.003Z</time></trkpt><trkpt lat="43.957961662870694" lon="10.504329987043027"><ele>70.0</ele><time>2026-04-25T16:41:20.003Z</time></trkpt><trkpt lat="43.957848154832526" lon="10.50425692722312"><ele>70.0</ele><time>2026-04-25T16:41:21.003Z</time></trkpt><trkpt lat="43.95771922472554" lon="10.50417087797736"><ele>70.0</ele><time>2026-04-25T16:41:22.003Z</time></trkpt><trkpt lat="43.95758096777136" lon="10.504074576865973"><ele>70.0</ele><time>2026-04-25T16:41:23.003Z</time></trkpt><trkpt lat="43.95743531641793" lon="10.503967156068718"><ele>69.66666666666666</ele><time>2026-04-25T16:41:24.003Z</time></trkpt><trkpt lat="43.957273609259616" lon="10.503853192639243"><ele>69.33333333333333</ele><time>2026-04-25T16:41:25.003Z</time></trkpt><trkpt lat="43.95710439483383" lon="10.503740447409525"><ele>69.0</ele><time>2026-04-25T16:41:26.003Z</time></trkpt><trkpt lat="43.95692586186811" lon="10.503614818467744"><ele>68.66666666666667</ele><time>2026-04-25T16:41:27.003Z</time></trkpt><trkpt lat="43.956743399513606" lon="10.503480880088231"><ele>68.33333333333334</ele><time>2026-04-25T16:41:28.003Z</time></trkpt><trkpt lat="43.956557507288885" lon="10.50334244045098"><ele>68.0</ele><time>2026-04-25T16:41:29.003Z</time></trkpt><trkpt lat="43.95636879497481" lon="10.503200326789159"><ele>67.33333333333334</ele><time>2026-04-25T16:41:30.003Z</time></trkpt><trkpt lat="43.95617637235787" lon="10.5030479798122"><ele>66.66666666666667</ele><time>2026-04-25T16:41:31.003Z</time></trkpt><trkpt lat="43.95597851104042" lon="10.502895209339199"><ele>66.0</ele><time>2026-04-25T16:41:32.002Z</time></trkpt><trkpt lat="43.9557754290953" lon="10.502748129346182"><ele>65.0</ele><time>2026-04-25T16:41:33.002Z</time></trkpt><trkpt lat="43.955578427447136" lon="10.502581701732872"><ele>64.0</ele><time>2026-04-25T16:41:34.002Z</time></trkpt><trkpt lat="43.95535998079126" lon="10.502463566710697"><ele>64.0</ele><time>2026-04-25T16:41:35.002Z</time></trkpt><trkpt lat="43.955149570070404" lon="10.502316067750673"><ele>64.0</ele><time>2026-04-25T16:41:36.002Z</time></trkpt><trkpt lat="43.954937315884386" lon="10.502167465624629"><ele>64.5</ele><time>2026-04-25T16:41:37.002Z</time></trkpt><trkpt lat="43.95472781105583" lon="10.502020771321678"><ele>65.0</ele><time>2026-04-25T16:41:38.002Z</time></trkpt><trkpt lat="43.954532870935616" lon="10.501837694694867"><ele>65.0</ele><time>2026-04-25T16:41:39.002Z</time></trkpt><trkpt lat="43.95431434463739" lon="10.50172896306255"><ele>65.0</ele><time>2026-04-25T16:41:40.002Z</time></trkpt><trkpt lat="43.95410744446118" lon="10.501586073574389"><ele>64.5</ele><time>2026-04-25T16:41:41.002Z</time></trkpt><trkpt lat="43.95390152863128" lon="10.50144229990766"><ele>64.0</ele><time>2026-04-25T16:41:42.002Z</time></trkpt><trkpt lat="43.953692525382685" lon="10.50129979354804"><ele>64.5</ele><time>2026-04-25T16:41:43.002Z</time></trkpt><trkpt lat="43.95349313870209" lon="10.501126948051295"><ele>65.0</ele><time>2026-04-25T16:41:44.002Z</time></trkpt><trkpt lat="43.9532831870578" lon="10.500984176689084"><ele>65.0</ele><time>2026-04-25T16:41:45.002Z</time></trkpt><trkpt lat="43.95307425394832" lon="10.500840690754487"><ele>65.0</ele><time>2026-04-25T16:41:46.002Z</time></trkpt><trkpt lat="43.952862916573736" lon="10.500698753132049"><ele>65.0</ele><time>2026-04-25T16:41:47.002Z</time></trkpt><trkpt lat="43.95264989746805" lon="10.500560670237041"><ele>65.0</ele><time>2026-04-25T16:41:48.002Z</time></trkpt><trkpt lat="43.952428994783524" lon="10.500452063404335"><ele>64.5</ele><time>2026-04-25T16:41:49.002Z</time></trkpt><trkpt lat="43.95221508118412" lon="10.500327313240367"><ele>64.0</ele><time>2026-04-25T16:41:50.002Z</time></trkpt><trkpt lat="43.952000729346786" lon="10.50020562433455"><ele>64.0</ele><time>2026-04-25T16:41:51.002Z</time></trkpt><trkpt lat="43.95178315405754" lon="10.500092349459232"><ele>64.0</ele><time>2026-04-25T16:41:52.002Z</time></trkpt><trkpt lat="43.951560720277534" lon="10.499985082605159"><ele>63.5</ele><time>2026-04-25T16:41:53.002Z</time></trkpt><trkpt lat="43.95132877417061" lon="10.499888603094252"><ele>63.0</ele><time>2026-04-25T16:41:54.002Z</time></trkpt><trkpt lat="43.95109651243515" lon="10.499799530170286"><ele>63.5</ele><time>2026-04-25T16:41:55.002Z</time></trkpt><trkpt lat="43.95086063284086" lon="10.499705357066142"><ele>64.0</ele><time>2026-04-25T16:41:56.002Z</time></trkpt><trkpt lat="43.95062161522618" lon="10.499615125563896"><ele>67.0</ele><time>2026-04-25T16:41:57.002Z</time></trkpt><trkpt lat="43.95038199320637" lon="10.499521147965018"><ele>70.0</ele><time>2026-04-25T16:41:58.002Z</time></trkpt><trkpt lat="43.950144684077095" lon="10.499427563317214"><ele>67.5</ele><time>2026-04-25T16:41:59.002Z</time></trkpt><trkpt lat="43.949911714726696" lon="10.499338733112685"><ele>65.0</ele><time>2026-04-25T16:42:00.002Z</time></trkpt><trkpt lat="43.94968176038517" lon="10.499247337272827"><ele>65.0</ele><time>2026-04-25T16:42:01.002Z</time></trkpt><trkpt lat="43.9494520844506" lon="10.499158144458532"><ele>65.0</ele><time>2026-04-25T16:42:02.002Z</time></trkpt><trkpt lat="43.94922492588516" lon="10.499067632354775"><ele>65.0</ele><time>2026-04-25T16:42:03.002Z</time></trkpt><trkpt lat="43.94899654074822" lon="10.498978925421"><ele>65.0</ele><time>2026-04-25T16:42:04.002Z</time></trkpt><trkpt lat="43.94877075070688" lon="10.498893193987387"><ele>65.0</ele><time>2026-04-25T16:42:05.002Z</time></trkpt><trkpt lat="43.9485511263558" lon="10.498811609607426"><ele>65.0</ele><time>2026-04-25T16:42:06.002Z</time></trkpt><trkpt lat="43.9483385731064" lon="10.498723906557238"><ele>65.0</ele><time>2026-04-25T16:42:07.002Z</time></trkpt><trkpt lat="43.94812673832665" lon="10.498637648793425"><ele>70.5</ele><time>2026-04-25T16:42:08.002Z</time></trkpt><trkpt lat="43.947911442893094" lon="10.498550131750422"><ele>76.0</ele><time>2026-04-25T16:42:09.002Z</time></trkpt><trkpt lat="43.9476915758892" lon="10.498460681287368"><ele>72.0</ele><time>2026-04-25T16:42:10.002Z</time></trkpt><trkpt lat="43.94746592943031" lon="10.498382556099486"><ele>68.0</ele><time>2026-04-25T16:42:11.002Z</time></trkpt><trkpt lat="43.94724366073114" lon="10.498300240317565"><ele>68.0</ele><time>2026-04-25T16:42:12.002Z</time></trkpt><trkpt lat="43.94702084222299" lon="10.498194992105867"><ele>68.0</ele><time>2026-04-25T16:42:13.002Z</time></trkpt><trkpt lat="43.946797981828105" lon="10.498107595659427"><ele>66.5</ele><time>2026-04-25T16:42:14.002Z</time></trkpt><trkpt lat="43.94657377971163" lon="10.498019214421545"><ele>65.0</ele><time>2026-04-25T16:42:15.002Z</time></trkpt><trkpt lat="43.946350821210174" lon="10.497931323493663"><ele>77.0</ele><time>2026-04-25T16:42:16.002Z</time></trkpt><trkpt lat="43.94612803287951" lon="10.497843499614838"><ele>89.0</ele><time>2026-04-25T16:42:17.002Z</time></trkpt><trkpt lat="43.94590623575867" lon="10.49775581602991"><ele>83.0</ele><time>2026-04-25T16:42:18.002Z</time></trkpt><trkpt lat="43.94568679521818" lon="10.497669005743397"><ele>77.0</ele><time>2026-04-25T16:42:19.002Z</time></trkpt><trkpt lat="43.94546815349195" lon="10.497582511422273"><ele>77.0</ele><time>2026-04-25T16:42:20.002Z</time></trkpt><trkpt lat="43.945242432531266" lon="10.497493214971767"><ele>77.0</ele><time>2026-04-25T16:42:21.002Z</time></trkpt><trkpt lat="43.94501086758958" lon="10.49740160542563"><ele>70.5</ele><time>2026-04-25T16:42:22.002Z</time></trkpt><trkpt lat="43.94477484765483" lon="10.497315201955741"><ele>64.0</ele><time>2026-04-25T16:42:23.002Z</time></trkpt><trkpt lat="43.94452702062475" lon="10.497364734456951"><ele>64.0</ele><time>2026-04-25T16:42:24.002Z</time></trkpt><trkpt lat="43.94430725630654" lon="10.497322218555581"><ele>64.0</ele><time>2026-04-25T16:42:25.002Z</time></trkpt><trkpt lat="43.944095883845684" lon="10.497300612179595"><ele>64.0</ele><time>2026-04-25T16:42:26.002Z</time></trkpt><trkpt lat="43.94389299578563" lon="10.497281913604168"><ele>63.5</ele><time>2026-04-25T16:42:27.002Z</time></trkpt><trkpt lat="43.94392454722905" lon="10.49688219029768"><ele>63.0</ele><time>2026-04-25T16:42:28.002Z</time></trkpt><trkpt lat="43.94377346984594" lon="10.496807436167616"><ele>63.0</ele><time>2026-04-25T16:42:29.002Z</time></trkpt><trkpt lat="43.94363092508644" lon="10.49672330743075"><ele>63.0</ele><time>2026-04-25T16:42:30.002Z</time></trkpt><trkpt lat="43.943494285046995" lon="10.496642504255073"><ele>63.0</ele><time>2026-04-25T16:42:31.002Z</time></trkpt><trkpt lat="43.943379842411275" lon="10.49656822779191"><ele>63.0</ele><time>2026-04-25T16:42:32.002Z</time></trkpt><trkpt lat="43.943289980130224" lon="10.496498513063385"><ele>63.166666666666664</ele><time>2026-04-25T16:42:33.002Z</time></trkpt><trkpt lat="43.94320168661459" lon="10.496397555426219"><ele>63.33333333333333</ele><time>2026-04-25T16:42:35.002Z</time></trkpt><trkpt lat="43.943160559371194" lon="10.496323869448647"><ele>63.5</ele><time>2026-04-25T16:42:36.002Z</time></trkpt><trkpt lat="43.9431086165626" lon="10.496238564323875"><ele>63.666666666666664</ele><time>2026-04-25T16:42:37.002Z</time></trkpt><trkpt lat="43.943039155938735" lon="10.496161833993916"><ele>63.83333333333333</ele><time>2026-04-25T16:42:38.002Z</time></trkpt><trkpt lat="43.94295329307836" lon="10.49610508036274"><ele>64.0</ele><time>2026-04-25T16:42:39.002Z</time></trkpt><trkpt lat="43.94285156775799" lon="10.496104294231255"><ele>64.0</ele><time>2026-04-25T16:42:40.002Z</time></trkpt><trkpt lat="43.94274894000836" lon="10.49612640998687"><ele>64.0</ele><time>2026-04-25T16:42:41.002Z</time></trkpt><trkpt lat="43.94264590370425" lon="10.496144766652787"><ele>64.0</ele><time>2026-04-25T16:42:42.002Z</time></trkpt><trkpt lat="43.942545135064705" lon="10.496129790105023"><ele>64.0</ele><time>2026-04-25T16:42:43.002Z</time></trkpt><trkpt lat="43.94245410054239" lon="10.496091020549633"><ele>64.0</ele><time>2026-04-25T16:42:44.002Z</time></trkpt><trkpt lat="43.94236097872102" lon="10.496041302846976"><ele>63.800000000000004</ele><time>2026-04-25T16:42:45.002Z</time></trkpt><trkpt lat="43.94226669709907" lon="10.495990112984767"><ele>63.60000000000001</ele><time>2026-04-25T16:42:46.002Z</time></trkpt><trkpt lat="43.94217724863637" lon="10.495948128374762"><ele>63.4</ele><time>2026-04-25T16:42:47.002Z</time></trkpt><trkpt lat="43.94208188642299" lon="10.495890124728373"><ele>63.2</ele><time>2026-04-25T16:42:48.002Z</time></trkpt><trkpt lat="43.94199387522171" lon="10.495850112703602"><ele>63.0</ele><time>2026-04-25T16:42:49.001Z</time></trkpt><trkpt lat="43.94190758829639" lon="10.495801879954854"><ele>63.0</ele><time>2026-04-25T16:42:50.001Z</time></trkpt><trkpt lat="43.94183378657632" lon="10.495758541049405"><ele>63.0</ele><time>2026-04-25T16:42:51.001Z</time></trkpt><trkpt lat="43.941749410447564" lon="10.495702905193616"><ele>63.0</ele><time>2026-04-25T16:42:52.003Z</time></trkpt><trkpt lat="43.941655667109536" lon="10.495658600239377"><ele>63.0</ele><time>2026-04-25T16:42:53.003Z</time></trkpt><trkpt lat="43.94156111679531" lon="10.4956114283282"><ele>63.0</ele><time>2026-04-25T16:42:54.003Z</time></trkpt><trkpt lat="43.94147103184433" lon="10.495559746835955"><ele>63.0</ele><time>2026-04-25T16:42:55.003Z</time></trkpt><trkpt lat="43.94137217476698" lon="10.495509140613139"><ele>63.0</ele><time>2026-04-25T16:42:56.003Z</time></trkpt><trkpt lat="43.941281492554715" lon="10.495465169573711"><ele>63.0</ele><time>2026-04-25T16:42:57.003Z</time></trkpt><trkpt lat="43.94119449604397" lon="10.495420686769215"><ele>63.0</ele><time>2026-04-25T16:42:58.003Z</time></trkpt><trkpt lat="43.94109410577018" lon="10.49536856937562"><ele>63.0</ele><time>2026-04-25T16:42:59.003Z</time></trkpt><trkpt lat="43.94098951838332" lon="10.495311314906829"><ele>63.0</ele><time>2026-04-25T16:43:00.003Z</time></trkpt><trkpt lat="43.94086453484381" lon="10.495249384303571"><ele>63.0</ele><time>2026-04-25T16:43:01.003Z</time></trkpt><trkpt lat="43.94073617385144" lon="10.495197507466987"><ele>63.0</ele><time>2026-04-25T16:43:02.003Z</time></trkpt><trkpt lat="43.94060031383347" lon="10.495127449501954"><ele>63.0</ele><time>2026-04-25T16:43:03.003Z</time></trkpt><trkpt lat="43.94046037051958" lon="10.495040064603504"><ele>63.0</ele><time>2026-04-25T16:43:04.003Z</time></trkpt><trkpt lat="43.940309147958914" lon="10.494958065578663"><ele>63.0</ele><time>2026-04-25T16:43:05.003Z</time></trkpt><trkpt lat="43.94014635035467" lon="10.494875040070479"><ele>63.0</ele><time>2026-04-25T16:43:06.003Z</time></trkpt><trkpt lat="43.93999509697804" lon="10.494792786843208"><ele>63.66666666666667</ele><time>2026-04-25T16:43:07.003Z</time></trkpt><trkpt lat="43.93982578123088" lon="10.494726037095683"><ele>64.33333333333334</ele><time>2026-04-25T16:43:08.003Z</time></trkpt><trkpt lat="43.93966180206167" lon="10.49467404027897"><ele>65.0</ele><time>2026-04-25T16:43:09.003Z</time></trkpt><trkpt lat="43.939482080463" lon="10.494638801931618"><ele>65.0</ele><time>2026-04-25T16:43:10.003Z</time></trkpt><trkpt lat="43.93930027175601" lon="10.494638951470728"><ele>65.0</ele><time>2026-04-25T16:43:11.002Z</time></trkpt><trkpt lat="43.939116772961086" lon="10.49468436720631"><ele>65.0</ele><time>2026-04-25T16:43:12.002Z</time></trkpt><trkpt lat="43.93892909287875" lon="10.494760856127801"><ele>66.0</ele><time>2026-04-25T16:43:13.002Z</time></trkpt><trkpt lat="43.93875333615613" lon="10.494875025246884"><ele>67.0</ele><time>2026-04-25T16:43:14.002Z</time></trkpt><trkpt lat="43.938597195087326" lon="10.495038495372885"><ele>68.0</ele><time>2026-04-25T16:43:15.002Z</time></trkpt><trkpt lat="43.93844987634773" lon="10.4952215631865"><ele>69.66666666666667</ele><time>2026-04-25T16:43:16.002Z</time></trkpt><trkpt lat="43.938321557480016" lon="10.495420707999108"><ele>71.33333333333333</ele><time>2026-04-25T16:43:17.002Z</time></trkpt><trkpt lat="43.93818802274994" lon="10.495653789998768"><ele>73.0</ele><time>2026-04-25T16:43:18.002Z</time></trkpt><trkpt lat="43.93806730789615" lon="10.49589827398117"><ele>73.0</ele><time>2026-04-25T16:43:19.002Z</time></trkpt><trkpt lat="43.937941230926015" lon="10.496140082341999"><ele>73.0</ele><time>2026-04-25T16:43:20.002Z</time></trkpt><trkpt lat="43.93779869178392" lon="10.49637836369745"><ele>73.0</ele><time>2026-04-25T16:43:21.002Z</time></trkpt><trkpt lat="43.937658323325884" lon="10.496610567757012"><ele>80.5</ele><time>2026-04-25T16:43:22.002Z</time></trkpt><trkpt lat="43.93749913662336" lon="10.496843860845695"><ele>88.0</ele><time>2026-04-25T16:43:23.002Z</time></trkpt><trkpt lat="43.93733685860676" lon="10.497080386116997"><ele>78.5</ele><time>2026-04-25T16:43:24.002Z</time></trkpt><trkpt lat="43.93717402014179" lon="10.497303274341233"><ele>69.0</ele><time>2026-04-25T16:43:25.002Z</time></trkpt><trkpt lat="43.93700011952862" lon="10.497540983486164"><ele>69.0</ele><time>2026-04-25T16:43:26.002Z</time></trkpt><trkpt lat="43.93682677302971" lon="10.497764063922075"><ele>69.0</ele><time>2026-04-25T16:43:27.002Z</time></trkpt><trkpt lat="43.93664931212984" lon="10.497979464717524"><ele>68.5</ele><time>2026-04-25T16:43:28.002Z</time></trkpt><trkpt lat="43.93648802729133" lon="10.498202318864728"><ele>68.0</ele><time>2026-04-25T16:43:29.002Z</time></trkpt><trkpt lat="43.93631141641875" lon="10.498408329907527"><ele>68.0</ele><time>2026-04-25T16:43:30.002Z</time></trkpt><trkpt lat="43.936144424631706" lon="10.498622131516866"><ele>68.0</ele><time>2026-04-25T16:43:31.002Z</time></trkpt><trkpt lat="43.93597060884367" lon="10.498846059952047"><ele>70.5</ele><time>2026-04-25T16:43:32.002Z</time></trkpt><trkpt lat="43.93580294394243" lon="10.499058459348593"><ele>73.0</ele><time>2026-04-25T16:43:33.002Z</time></trkpt><trkpt lat="43.93563425476067" lon="10.499279425212977"><ele>73.0</ele><time>2026-04-25T16:43:34.002Z</time></trkpt><trkpt lat="43.93547950872345" lon="10.499512333176298"><ele>73.0</ele><time>2026-04-25T16:43:35.002Z</time></trkpt><trkpt lat="43.935336420683" lon="10.499762864682493"><ele>66.0</ele><time>2026-04-25T16:43:36.002Z</time></trkpt><trkpt lat="43.93519469891353" lon="10.500015713591043"><ele>59.0</ele><time>2026-04-25T16:43:37.002Z</time></trkpt><trkpt lat="43.935056380137" lon="10.500267872666345"><ele>63.66666666666667</ele><time>2026-04-25T16:43:38.002Z</time></trkpt><trkpt lat="43.934924444303846" lon="10.500514003348563"><ele>68.33333333333333</ele><time>2026-04-25T16:43:39.002Z</time></trkpt><trkpt lat="43.934828769170025" lon="10.500783689939189"><ele>73.0</ele><time>2026-04-25T16:43:40.002Z</time></trkpt><trkpt lat="43.93474173956471" lon="10.501060984079274"><ele>66.5</ele><time>2026-04-25T16:43:41.002Z</time></trkpt><trkpt lat="43.934688991667706" lon="10.501369962865631"><ele>60.0</ele><time>2026-04-25T16:43:42.002Z</time></trkpt><trkpt lat="43.93467203095166" lon="10.50168468270018"><ele>60.0</ele><time>2026-04-25T16:43:43.002Z</time></trkpt><trkpt lat="43.93463014699013" lon="10.50199658098625"><ele>60.0</ele><time>2026-04-25T16:43:44.002Z</time></trkpt><trkpt lat="43.93457667417948" lon="10.502320372546334"><ele>58.5</ele><time>2026-04-25T16:43:45.002Z</time></trkpt><trkpt lat="43.93453364641521" lon="10.502641172653133"><ele>57.0</ele><time>2026-04-25T16:43:46.002Z</time></trkpt><trkpt lat="43.934505174991735" lon="10.50296773668364"><ele>56.5</ele><time>2026-04-25T16:43:47.002Z</time></trkpt><trkpt lat="43.93449652899845" lon="10.50330336058524"><ele>56.0</ele><time>2026-04-25T16:43:48.002Z</time></trkpt><trkpt lat="43.93446238230648" lon="10.503629955757136"><ele>55.0</ele><time>2026-04-25T16:43:49.002Z</time></trkpt><trkpt lat="43.93444190216565" lon="10.503965768063635"><ele>54.0</ele><time>2026-04-25T16:43:50.002Z</time></trkpt><trkpt lat="43.93442345629852" lon="10.504289795894234"><ele>54.33333333333333</ele><time>2026-04-25T16:43:51.002Z</time></trkpt><trkpt lat="43.93440547115658" lon="10.504604590696218"><ele>54.666666666666664</ele><time>2026-04-25T16:43:52.002Z</time></trkpt><trkpt lat="43.93438832863477" lon="10.504906220140981"><ele>55.0</ele><time>2026-04-25T16:43:53.002Z</time></trkpt><trkpt lat="43.93437353893139" lon="10.505188444267345"><ele>55.0</ele><time>2026-04-25T16:43:54.002Z</time></trkpt><trkpt lat="43.93436091834255" lon="10.505454004199244"><ele>55.0</ele><time>2026-04-25T16:43:55.002Z</time></trkpt><trkpt lat="43.93434781892824" lon="10.505716117962521"><ele>55.0</ele><time>2026-04-25T16:43:56.002Z</time></trkpt><trkpt lat="43.934332567091026" lon="10.505960222842155"><ele>55.0</ele><time>2026-04-25T16:43:57.002Z</time></trkpt><trkpt lat="43.9343161588927" lon="10.506196946442639"><ele>55.0</ele><time>2026-04-25T16:43:58.002Z</time></trkpt><trkpt lat="43.93429848333315" lon="10.50640703064582"><ele>55.0</ele><time>2026-04-25T16:43:59.002Z</time></trkpt><trkpt lat="43.9342719512678" lon="10.506607931130615"><ele>55.25</ele><time>2026-04-25T16:44:00.002Z</time></trkpt><trkpt lat="43.934228672821014" lon="10.506794340762177"><ele>55.5</ele><time>2026-04-25T16:44:01.002Z</time></trkpt><trkpt lat="43.934172272561256" lon="10.506964311757377"><ele>55.75</ele><time>2026-04-25T16:44:02.002Z</time></trkpt><trkpt lat="43.93410596958701" lon="10.50712201398577"><ele>56.0</ele><time>2026-04-25T16:44:03.002Z</time></trkpt><trkpt lat="43.93402623727882" lon="10.50726794296314"><ele>58.0</ele><time>2026-04-25T16:44:04.002Z</time></trkpt><trkpt lat="43.93393044954605" lon="10.50739914439966"><ele>60.0</ele><time>2026-04-25T16:44:05.002Z</time></trkpt><trkpt lat="43.93382104234669" lon="10.507513914068562"><ele>62.0</ele><time>2026-04-25T16:44:06.002Z</time></trkpt><trkpt lat="43.93369480767505" lon="10.50759701781669"><ele>64.0</ele><time>2026-04-25T16:44:07.002Z</time></trkpt><trkpt lat="43.9335615613096" lon="10.507657314091539"><ele>64.0</ele><time>2026-04-25T16:44:08.002Z</time></trkpt><trkpt lat="43.93342074795674" lon="10.50769896162404"><ele>64.0</ele><time>2026-04-25T16:44:09.002Z</time></trkpt><trkpt lat="43.93327849285697" lon="10.507718375757197"><ele>64.0</ele><time>2026-04-25T16:44:10.002Z</time></trkpt><trkpt lat="43.9331293533705" lon="10.507721961294491"><ele>64.0</ele><time>2026-04-25T16:44:11.002Z</time></trkpt><trkpt lat="43.93298271188676" lon="10.507691532640374"><ele>62.666666666666664</ele><time>2026-04-25T16:44:12.002Z</time></trkpt><trkpt lat="43.932823105187694" lon="10.507671766631598"><ele>61.33333333333333</ele><time>2026-04-25T16:44:13.002Z</time></trkpt><trkpt lat="43.932670333628906" lon="10.507600905857844"><ele>60.0</ele><time>2026-04-25T16:44:14.002Z</time></trkpt><trkpt lat="43.932488512358" lon="10.507563017937823"><ele>60.0</ele><time>2026-04-25T16:44:15.002Z</time></trkpt><trkpt lat="43.93230734404459" lon="10.507501391852234"><ele>60.0</ele><time>2026-04-25T16:44:16.002Z</time></trkpt><trkpt lat="43.9321132419217" lon="10.50742879361898"><ele>60.0</ele><time>2026-04-25T16:44:17.002Z</time></trkpt><trkpt lat="43.931908685793594" lon="10.507349713896152"><ele>58.0</ele><time>2026-04-25T16:44:18.002Z</time></trkpt><trkpt lat="43.93169749097666" lon="10.507286007877559"><ele>56.0</ele><time>2026-04-25T16:44:19.002Z</time></trkpt><trkpt lat="43.931485649824026" lon="10.507219778558163"><ele>54.0</ele><time>2026-04-25T16:44:20.002Z</time></trkpt><trkpt lat="43.931290180457175" lon="10.507146333538568"><ele>54.0</ele><time>2026-04-25T16:44:21.002Z</time></trkpt><trkpt lat="43.93111156453268" lon="10.507085566403699"><ele>54.0</ele><time>2026-04-25T16:44:22.002Z</time></trkpt><trkpt lat="43.93095416312185" lon="10.507032800056411"><ele>54.0</ele><time>2026-04-25T16:44:23.002Z</time></trkpt><trkpt lat="43.93080797659739" lon="10.506982552123235"><ele>55.25</ele><time>2026-04-25T16:44:24.002Z</time></trkpt><trkpt lat="43.93065848339491" lon="10.506931476838917"><ele>56.5</ele><time>2026-04-25T16:44:25.002Z</time></trkpt><trkpt lat="43.93051151958319" lon="10.50689734829748"><ele>57.75</ele><time>2026-04-25T16:44:26.002Z</time></trkpt><trkpt lat="43.93037203283032" lon="10.506895025927228"><ele>59.0</ele><time>2026-04-25T16:44:27.002Z</time></trkpt><trkpt lat="43.93023161798617" lon="10.506935769819961"><ele>59.0</ele><time>2026-04-25T16:44:28.002Z</time></trkpt><trkpt lat="43.93008963196576" lon="10.507014157622464"><ele>59.0</ele><time>2026-04-25T16:44:29.002Z</time></trkpt><trkpt lat="43.92996877350774" lon="10.507126860574475"><ele>59.0</ele><time>2026-04-25T16:44:30.002Z</time></trkpt><trkpt lat="43.92985276607004" lon="10.507251071793151"><ele>59.0</ele><time>2026-04-25T16:44:31.001Z</time></trkpt><trkpt lat="43.92974227979087" lon="10.507379157391055"><ele>61.25</ele><time>2026-04-25T16:44:32.001Z</time></trkpt><trkpt lat="43.92962700333252" lon="10.507508090285969"><ele>63.5</ele><time>2026-04-25T16:44:33.001Z</time></trkpt><trkpt lat="43.92951533455645" lon="10.507646046808665"><ele>65.75</ele><time>2026-04-25T16:44:34.001Z</time></trkpt><trkpt lat="43.92941909722801" lon="10.507781616743282"><ele>68.0</ele><time>2026-04-25T16:44:35.001Z</time></trkpt><trkpt lat="43.92932597843097" lon="10.507934974011773"><ele>65.0</ele><time>2026-04-25T16:44:36.001Z</time></trkpt><trkpt lat="43.92924715222467" lon="10.508104407668034"><ele>62.0</ele><time>2026-04-25T16:44:37.001Z</time></trkpt><trkpt lat="43.92918773914335" lon="10.508292422151058"><ele>59.0</ele><time>2026-04-25T16:44:38.001Z</time></trkpt><trkpt lat="43.92913489981895" lon="10.508498991433102"><ele>59.0</ele><time>2026-04-25T16:44:39.001Z</time></trkpt><trkpt lat="43.929098012883365" lon="10.50872176406701"><ele>59.0</ele><time>2026-04-25T16:44:40.001Z</time></trkpt><trkpt lat="43.929080325518214" lon="10.508945118983602"><ele>59.0</ele><time>2026-04-25T16:44:41.001Z</time></trkpt><trkpt lat="43.929106516664696" lon="10.50915043003162"><ele>59.75</ele><time>2026-04-25T16:44:42.001Z</time></trkpt><trkpt lat="43.92909049429919" lon="10.509377012757943"><ele>60.5</ele><time>2026-04-25T16:44:43.001Z</time></trkpt><trkpt lat="43.92911300371247" lon="10.509575407148377"><ele>61.25</ele><time>2026-04-25T16:44:44.001Z</time></trkpt><trkpt lat="43.9291450933347" lon="10.509758434162261"><ele>62.0</ele><time>2026-04-25T16:44:45.001Z</time></trkpt><trkpt lat="43.929203503794255" lon="10.509956708191224"><ele>69.0</ele><time>2026-04-25T16:44:46.001Z</time></trkpt><trkpt lat="43.929281701771814" lon="10.510157746830028"><ele>76.0</ele><time>2026-04-25T16:44:47.001Z</time></trkpt><trkpt lat="43.92935511215613" lon="10.510389788456271"><ele>83.0</ele><time>2026-04-25T16:44:48.001Z</time></trkpt><trkpt lat="43.92941567303649" lon="10.510642653149935"><ele>83.0</ele><time>2026-04-25T16:44:49.001Z</time></trkpt><trkpt lat="43.92949004876687" lon="10.510887828620701"><ele>83.0</ele><time>2026-04-25T16:44:50.001Z</time></trkpt><trkpt lat="43.929580790654164" lon="10.51112941895769"><ele>83.0</ele><time>2026-04-25T16:44:51.001Z</time></trkpt><trkpt lat="43.92964229180921" lon="10.511389260263792"><ele>81.33333333333334</ele><time>2026-04-25T16:44:52.001Z</time></trkpt><trkpt lat="43.92971262698614" lon="10.511646805373571"><ele>79.66666666666667</ele><time>2026-04-25T16:44:53.001Z</time></trkpt><trkpt lat="43.92977739308225" lon="10.511890390891894"><ele>78.0</ele><time>2026-04-25T16:44:54.001Z</time></trkpt><trkpt lat="43.92982214261299" lon="10.512118619063473"><ele>76.33333333333333</ele><time>2026-04-25T16:44:55.001Z</time></trkpt><trkpt lat="43.92985099286512" lon="10.512339825199142"><ele>74.66666666666666</ele><time>2026-04-25T16:44:56.001Z</time></trkpt><trkpt lat="43.92986378963467" lon="10.512568926979366"><ele>73.0</ele><time>2026-04-25T16:44:57.001Z</time></trkpt><trkpt lat="43.92986335654342" lon="10.512785995473733"><ele>73.25</ele><time>2026-04-25T16:44:58.004Z</time></trkpt><trkpt lat="43.92984485622878" lon="10.512987261627611"><ele>73.5</ele><time>2026-04-25T16:44:59.004Z</time></trkpt><trkpt lat="43.92981767104516" lon="10.513192729113818"><ele>73.75</ele><time>2026-04-25T16:45:00.004Z</time></trkpt><trkpt lat="43.92977796648785" lon="10.513393224296474"><ele>74.0</ele><time>2026-04-25T16:45:01.004Z</time></trkpt><trkpt lat="43.92972759957427" lon="10.513573249113545"><ele>79.0</ele><time>2026-04-25T16:45:02.003Z</time></trkpt><trkpt lat="43.92967419616194" lon="10.513774833541229"><ele>84.0</ele><time>2026-04-25T16:45:03.003Z</time></trkpt><trkpt lat="43.92957807788712" lon="10.51395462119768"><ele>89.0</ele><time>2026-04-25T16:45:04.003Z</time></trkpt><trkpt lat="43.929481839849366" lon="10.514158661741321"><ele>89.0</ele><time>2026-04-25T16:45:05.003Z</time></trkpt><trkpt lat="43.92937360472939" lon="10.514368703757446"><ele>89.0</ele><time>2026-04-25T16:45:06.003Z</time></trkpt><trkpt lat="43.929256483969844" lon="10.51457266178774"><ele>89.0</ele><time>2026-04-25T16:45:07.004Z</time></trkpt><trkpt lat="43.92914809374002" lon="10.51478045521234"><ele>81.0</ele><time>2026-04-25T16:45:08.003Z</time></trkpt><trkpt lat="43.929032749228234" lon="10.514986708421365"><ele>73.0</ele><time>2026-04-25T16:45:09.003Z</time></trkpt><trkpt lat="43.92892096333243" lon="10.515185177744987"><ele>65.0</ele><time>2026-04-25T16:45:10.003Z</time></trkpt><trkpt lat="43.928811296268606" lon="10.515366275285103"><ele>75.66666666666667</ele><time>2026-04-25T16:45:11.004Z</time></trkpt><trkpt lat="43.92868828888325" lon="10.51553400076568"><ele>86.33333333333334</ele><time>2026-04-25T16:45:12.004Z</time></trkpt><trkpt lat="43.92856252896571" lon="10.51568937077094"><ele>97.0</ele><time>2026-04-25T16:45:13.004Z</time></trkpt><trkpt lat="43.92843386408953" lon="10.515832906284887"><ele>84.33333333333334</ele><time>2026-04-25T16:45:14.004Z</time></trkpt><trkpt lat="43.928305598208766" lon="10.515968889872664"><ele>71.66666666666667</ele><time>2026-04-25T16:45:15.004Z</time></trkpt><trkpt lat="43.92817252856133" lon="10.516104072915283"><ele>59.0</ele><time>2026-04-25T16:45:16.004Z</time></trkpt><trkpt lat="43.92803609864189" lon="10.516234726995451"><ele>69.0</ele><time>2026-04-25T16:45:17.004Z</time></trkpt><trkpt lat="43.92789939932266" lon="10.516369892170184"><ele>79.0</ele><time>2026-04-25T16:45:18.004Z</time></trkpt><trkpt lat="43.92775476329255" lon="10.516481242842392"><ele>89.0</ele><time>2026-04-25T16:45:19.004Z</time></trkpt><trkpt lat="43.9276130005883" lon="10.516615201673833"><ele>76.66666666666667</ele><time>2026-04-25T16:45:20.004Z</time></trkpt><trkpt lat="43.92746308353428" lon="10.516756865691292"><ele>64.33333333333333</ele><time>2026-04-25T16:45:21.004Z</time></trkpt><trkpt lat="43.92732212924245" lon="10.516919269110693"><ele>52.0</ele><time>2026-04-25T16:45:22.003Z</time></trkpt><trkpt lat="43.92715818587825" lon="10.517049078134612"><ele>52.0</ele><time>2026-04-25T16:45:23.003Z</time></trkpt><trkpt lat="43.927009734074176" lon="10.517197492862783"><ele>52.0</ele><time>2026-04-25T16:45:24.003Z</time></trkpt><trkpt lat="43.926861726566855" lon="10.517361442540546"><ele>52.0</ele><time>2026-04-25T16:45:25.003Z</time></trkpt><trkpt lat="43.92670260372083" lon="10.517555727374353"><ele>52.0</ele><time>2026-04-25T16:45:26.003Z</time></trkpt><trkpt lat="43.9265350467988" lon="10.517753632662398"><ele>52.0</ele><time>2026-04-25T16:45:27.003Z</time></trkpt><trkpt lat="43.926386405615844" lon="10.51797160047903"><ele>52.0</ele><time>2026-04-25T16:45:28.003Z</time></trkpt><trkpt lat="43.92626135389216" lon="10.518211216106332"><ele>56.666666666666664</ele><time>2026-04-25T16:45:29.003Z</time></trkpt><trkpt lat="43.92615086005731" lon="10.518452784033641"><ele>61.33333333333333</ele><time>2026-04-25T16:45:30.003Z</time></trkpt><trkpt lat="43.926048954995586" lon="10.518705723551015"><ele>66.0</ele><time>2026-04-25T16:45:31.003Z</time></trkpt><trkpt lat="43.92595623885015" lon="10.518965640306424"><ele>61.33333333333333</ele><time>2026-04-25T16:45:32.003Z</time></trkpt><trkpt lat="43.92587662235739" lon="10.519238387615465"><ele>56.666666666666664</ele><time>2026-04-25T16:45:33.003Z</time></trkpt><trkpt lat="43.92577105901277" lon="10.519497853512426"><ele>52.0</ele><time>2026-04-25T16:45:34.003Z</time></trkpt><trkpt lat="43.925703182429295" lon="10.519769703178396"><ele>52.0</ele><time>2026-04-25T16:45:35.003Z</time></trkpt><trkpt lat="43.925622827494756" lon="10.520030157384717"><ele>52.0</ele><time>2026-04-25T16:45:36.003Z</time></trkpt><trkpt lat="43.92554395733447" lon="10.520268711514928"><ele>52.0</ele><time>2026-04-25T16:45:37.003Z</time></trkpt><trkpt lat="43.92547151079931" lon="10.520492342575924"><ele>51.666666666666664</ele><time>2026-04-25T16:45:38.003Z</time></trkpt><trkpt lat="43.92540376751462" lon="10.520699414836637"><ele>51.33333333333333</ele><time>2026-04-25T16:45:39.003Z</time></trkpt><trkpt lat="43.92534260538085" lon="10.520890736253302"><ele>51.0</ele><time>2026-04-25T16:45:40.003Z</time></trkpt><trkpt lat="43.92528298032304" lon="10.521077539267388"><ele>50.25</ele><time>2026-04-25T16:45:41.003Z</time></trkpt><trkpt lat="43.92522963693045" lon="10.521245458882104"><ele>49.5</ele><time>2026-04-25T16:45:42.003Z</time></trkpt><trkpt lat="43.92517371487187" lon="10.521423790259698"><ele>48.75</ele><time>2026-04-25T16:45:43.003Z</time></trkpt><trkpt lat="43.925119228039385" lon="10.521601283352156"><ele>48.0</ele><time>2026-04-25T16:45:44.003Z</time></trkpt><trkpt lat="43.92506101054639" lon="10.521779106766383"><ele>54.5</ele><time>2026-04-25T16:45:45.003Z</time></trkpt><trkpt lat="43.92500741987548" lon="10.521956877575612"><ele>61.0</ele><time>2026-04-25T16:45:46.003Z</time></trkpt><trkpt lat="43.924947600054814" lon="10.522128080649136"><ele>67.5</ele><time>2026-04-25T16:45:47.003Z</time></trkpt><trkpt lat="43.924891420429226" lon="10.52229886110605"><ele>74.0</ele><time>2026-04-25T16:45:48.003Z</time></trkpt><trkpt lat="43.924837661944494" lon="10.522468119374125"><ele>74.0</ele><time>2026-04-25T16:45:49.003Z</time></trkpt><trkpt lat="43.92478050995564" lon="10.522630515582906"><ele>74.0</ele><time>2026-04-25T16:45:50.003Z</time></trkpt><trkpt lat="43.924722774946076" lon="10.5227874566129"><ele>74.0</ele><time>2026-04-25T16:45:51.003Z</time></trkpt><trkpt lat="43.924669190581014" lon="10.5229358524198"><ele>74.0</ele><time>2026-04-25T16:45:52.003Z</time></trkpt><trkpt lat="43.92461652125706" lon="10.523079057962176"><ele>74.0</ele><time>2026-04-25T16:45:53.003Z</time></trkpt><trkpt lat="43.9245631934391" lon="10.523220820605262"><ele>74.0</ele><time>2026-04-25T16:45:54.003Z</time></trkpt><trkpt lat="43.92447771188263" lon="10.523362164823613"><ele>74.0</ele><time>2026-04-25T16:45:55.147Z</time></trkpt><trkpt lat="43.9243971856819" lon="10.523487027664657"><ele>74.0</ele><time>2026-04-25T16:45:56.146Z</time></trkpt><trkpt lat="43.92420204993731" lon="10.523888636541017"><ele>75.75</ele><time>2026-04-25T16:45:59.003Z</time></trkpt><trkpt lat="43.92412359938525" lon="10.52402540236495"><ele>77.5</ele><time>2026-04-25T16:46:00.003Z</time></trkpt><trkpt lat="43.92402809543927" lon="10.524233087503386"><ele>79.25</ele><time>2026-04-25T16:46:01.003Z</time></trkpt><trkpt lat="43.92394508639187" lon="10.524397555374534"><ele>81.0</ele><time>2026-04-25T16:46:02.003Z</time></trkpt><trkpt lat="43.92386505761116" lon="10.52456231975891"><ele>84.25</ele><time>2026-04-25T16:46:03.003Z</time></trkpt><trkpt lat="43.923786562546496" lon="10.524719055641333"><ele>87.5</ele><time>2026-04-25T16:46:04.003Z</time></trkpt><trkpt lat="43.923708534629114" lon="10.52487485786919"><ele>90.75</ele><time>2026-04-25T16:46:05.003Z</time></trkpt><trkpt lat="43.92363050643219" lon="10.525030659785518"><ele>94.0</ele><time>2026-04-25T16:46:06.003Z</time></trkpt><trkpt lat="43.92249336193143" lon="10.525592308635126"><ele>77.0</ele><time>2026-04-25T16:46:15.003Z</time></trkpt><trkpt lat="43.92216181068709" lon="10.52566074839331"><ele>60.0</ele><time>2026-04-25T16:46:16.003Z</time></trkpt><trkpt lat="43.921973390116705" lon="10.52577064937704"><ele>60.0</ele><time>2026-04-25T16:46:17.003Z</time></trkpt><trkpt lat="43.92180540714021" lon="10.525831513374337"><ele>60.0</ele><time>2026-04-25T16:46:18.003Z</time></trkpt><trkpt lat="43.92162631745145" lon="10.52588395881219"><ele>60.0</ele><time>2026-04-25T16:46:19.003Z</time></trkpt><trkpt lat="43.92145711411928" lon="10.525920653931948"><ele>58.0</ele><time>2026-04-25T16:46:20.003Z</time></trkpt><trkpt lat="43.92128446445296" lon="10.525948666920568"><ele>56.0</ele><time>2026-04-25T16:46:21.003Z</time></trkpt><trkpt lat="43.92111064149398" lon="10.525962414395199"><ele>54.0</ele><time>2026-04-25T16:46:22.003Z</time></trkpt><trkpt lat="43.92093948602791" lon="10.525961905926536"><ele>53.66666666666667</ele><time>2026-04-25T16:46:23.003Z</time></trkpt><trkpt lat="43.92077354210823" lon="10.525941605234785"><ele>53.333333333333336</ele><time>2026-04-25T16:46:24.003Z</time></trkpt><trkpt lat="43.92061398147689" lon="10.525908138472769"><ele>53.0</ele><time>2026-04-25T16:46:25.003Z</time></trkpt><trkpt lat="43.92045827535052" lon="10.525862726637689"><ele>53.0</ele><time>2026-04-25T16:46:26.003Z</time></trkpt><trkpt lat="43.92030565107437" lon="10.52580088498027"><ele>53.0</ele><time>2026-04-25T16:46:27.003Z</time></trkpt><trkpt lat="43.920153654589896" lon="10.525725719115254"><ele>53.0</ele><time>2026-04-25T16:46:28.003Z</time></trkpt><trkpt lat="43.919998569030824" lon="10.525643242268107"><ele>53.66666666666667</ele><time>2026-04-25T16:46:29.003Z</time></trkpt><trkpt lat="43.919844896787964" lon="10.525558439337152"><ele>54.33333333333333</ele><time>2026-04-25T16:46:30.003Z</time></trkpt><trkpt lat="43.91969146778224" lon="10.525468413462367"><ele>55.0</ele><time>2026-04-25T16:46:31.003Z</time></trkpt><trkpt lat="43.91953775944122" lon="10.525377671058935"><ele>61.666666666666664</ele><time>2026-04-25T16:46:32.003Z</time></trkpt><trkpt lat="43.91939106211635" lon="10.525279606395303"><ele>68.33333333333333</ele><time>2026-04-25T16:46:33.003Z</time></trkpt><trkpt lat="43.91924476371744" lon="10.525178779157045"><ele>75.0</ele><time>2026-04-25T16:46:34.003Z</time></trkpt><trkpt lat="43.91910568187095" lon="10.52505623930213"><ele>76.0</ele><time>2026-04-25T16:46:35.003Z</time></trkpt><trkpt lat="43.91896448258498" lon="10.52495042763012"><ele>77.0</ele><time>2026-04-25T16:46:36.003Z</time></trkpt><trkpt lat="43.91882710237123" lon="10.524848109857528"><ele>78.0</ele><time>2026-04-25T16:46:37.003Z</time></trkpt><trkpt lat="43.91869360221192" lon="10.524750170833917"><ele>78.0</ele><time>2026-04-25T16:46:38.003Z</time></trkpt><trkpt lat="43.91856418695739" lon="10.524656811205766"><ele>78.0</ele><time>2026-04-25T16:46:39.003Z</time></trkpt><trkpt lat="43.91843973264389" lon="10.524568531437128"><ele>78.0</ele><time>2026-04-25T16:46:40.003Z</time></trkpt><trkpt lat="43.91830072247858" lon="10.524470376914989"><ele>78.0</ele><time>2026-04-25T16:46:41.146Z</time></trkpt><trkpt lat="43.91779550253824" lon="10.524129555418364"><ele>77.5</ele><time>2026-04-25T16:46:45.243Z</time></trkpt><trkpt lat="43.91768239772212" lon="10.524020389840269"><ele>77.0</ele><time>2026-04-25T16:46:46.243Z</time></trkpt><trkpt lat="43.91755030513434" lon="10.523960733370801"><ele>76.5</ele><time>2026-04-25T16:46:47.243Z</time></trkpt><trkpt lat="43.9174259746273" lon="10.523881202626978"><ele>76.0</ele><time>2026-04-25T16:46:48.243Z</time></trkpt><trkpt lat="43.91729860003591" lon="10.523811464420008"><ele>80.5</ele><time>2026-04-25T16:46:49.243Z</time></trkpt><trkpt lat="43.91717530694078" lon="10.52372530582902"><ele>85.0</ele><time>2026-04-25T16:46:50.243Z</time></trkpt><trkpt lat="43.917039327559124" lon="10.523689325579152"><ele>89.5</ele><time>2026-04-25T16:46:51.243Z</time></trkpt><trkpt lat="43.91691184434545" lon="10.523614580378965"><ele>94.0</ele><time>2026-04-25T16:46:52.243Z</time></trkpt><trkpt lat="43.91677829930628" lon="10.523569994651755"><ele>96.0</ele><time>2026-04-25T16:46:53.243Z</time></trkpt><trkpt lat="43.91664410946397" lon="10.523529579903174"><ele>98.0</ele><time>2026-04-25T16:46:54.243Z</time></trkpt><trkpt lat="43.91650564826116" lon="10.52352036961912"><ele>100.0</ele><time>2026-04-25T16:46:55.243Z</time></trkpt><trkpt lat="43.91637207444669" lon="10.52347099660169"><ele>102.0</ele><time>2026-04-25T16:46:56.243Z</time></trkpt><trkpt lat="43.91623399042744" lon="10.523471699688633"><ele>102.0</ele><time>2026-04-25T16:46:57.243Z</time></trkpt><trkpt lat="43.91609773813474" lon="10.52345218748798"><ele>102.0</ele><time>2026-04-25T16:46:58.243Z</time></trkpt><trkpt lat="43.91596245496459" lon="10.523414503838913"><ele>102.0</ele><time>2026-04-25T16:46:59.243Z</time></trkpt><trkpt lat="43.91582549654516" lon="10.523401872154215"><ele>102.0</ele><time>2026-04-25T16:47:00.243Z</time></trkpt><trkpt lat="43.91568804112767" lon="10.523396339707912"><ele>102.25</ele><time>2026-04-25T16:47:01.243Z</time></trkpt><trkpt lat="43.915550631869245" lon="10.523391866260058"><ele>102.5</ele><time>2026-04-25T16:47:02.243Z</time></trkpt><trkpt lat="43.91541348395672" lon="10.523392241787512"><ele>102.75</ele><time>2026-04-25T16:47:03.243Z</time></trkpt><trkpt lat="43.91527668499719" lon="10.523419101642606"><ele>103.0</ele><time>2026-04-25T16:47:04.243Z</time></trkpt><trkpt lat="43.91513886607387" lon="10.523405947879448"><ele>99.5</ele><time>2026-04-25T16:47:05.243Z</time></trkpt><trkpt lat="43.91500174238762" lon="10.523419927157299"><ele>96.0</ele><time>2026-04-25T16:47:06.243Z</time></trkpt><trkpt lat="43.91486690948197" lon="10.52346057683964"><ele>92.5</ele><time>2026-04-25T16:47:07.243Z</time></trkpt><trkpt lat="43.91473064895252" lon="10.523480086989977"><ele>89.0</ele><time>2026-04-25T16:47:08.243Z</time></trkpt><trkpt lat="43.914594676814914" lon="10.523503053572828"><ele>89.0</ele><time>2026-04-25T16:47:09.243Z</time></trkpt><trkpt lat="43.914456941047426" lon="10.52350281833158"><ele>89.0</ele><time>2026-04-25T16:47:10.243Z</time></trkpt><trkpt lat="43.914320698839084" lon="10.523522615253567"><ele>89.0</ele><time>2026-04-25T16:47:11.243Z</time></trkpt><trkpt lat="43.914184333200495" lon="10.523542430116832"><ele>89.0</ele><time>2026-04-25T16:47:12.244Z</time></trkpt><trkpt lat="43.91393796350012" lon="10.523474006951131"><ele>80.66666666666667</ele><time>2026-04-25T16:47:13.002Z</time></trkpt><trkpt lat="43.91385117699964" lon="10.523486617430637"><ele>72.33333333333333</ele><time>2026-04-25T16:47:14.002Z</time></trkpt><trkpt lat="43.91360221669698" lon="10.523625111623618"><ele>64.0</ele><time>2026-04-25T16:47:15.002Z</time></trkpt><trkpt lat="43.91345216770082" lon="10.523705070779807"><ele>60.0</ele><time>2026-04-25T16:47:16.002Z</time></trkpt><trkpt lat="43.91325853752548" lon="10.523746092686943"><ele>56.0</ele><time>2026-04-25T16:47:17.002Z</time></trkpt><trkpt lat="43.91306060717613" lon="10.523776953735853"><ele>52.0</ele><time>2026-04-25T16:47:18.002Z</time></trkpt><trkpt lat="43.91286193078493" lon="10.523829878892583"><ele>52.0</ele><time>2026-04-25T16:47:19.004Z</time></trkpt><trkpt lat="43.91267260500746" lon="10.5238860435799"><ele>52.0</ele><time>2026-04-25T16:47:20.003Z</time></trkpt><trkpt lat="43.91248559701608" lon="10.52394100955842"><ele>52.0</ele><time>2026-04-25T16:47:21.003Z</time></trkpt><trkpt lat="43.91230503335538" lon="10.524003908421088"><ele>50.666666666666664</ele><time>2026-04-25T16:47:22.004Z</time></trkpt><trkpt lat="43.91214457043114" lon="10.524076045898695"><ele>49.33333333333333</ele><time>2026-04-25T16:47:23.004Z</time></trkpt><trkpt lat="43.91195045156705" lon="10.524159449787689"><ele>48.0</ele><time>2026-04-25T16:47:24.004Z</time></trkpt><trkpt lat="43.911768894741414" lon="10.524190297336395"><ele>48.0</ele><time>2026-04-25T16:47:25.004Z</time></trkpt><trkpt lat="43.91157978848226" lon="10.524279176294908"><ele>48.0</ele><time>2026-04-25T16:47:26.003Z</time></trkpt><trkpt lat="43.91139704981247" lon="10.52438454903484"><ele>48.0</ele><time>2026-04-25T16:47:27.003Z</time></trkpt><trkpt lat="43.91122342940492" lon="10.524490845734178"><ele>48.0</ele><time>2026-04-25T16:47:28.004Z</time></trkpt><trkpt lat="43.911051877553184" lon="10.5245978165673"><ele>48.0</ele><time>2026-04-25T16:47:29.003Z</time></trkpt><trkpt lat="43.910877319163234" lon="10.524700217172892"><ele>48.0</ele><time>2026-04-25T16:47:30.003Z</time></trkpt><trkpt lat="43.91070827618508" lon="10.524797613344514"><ele>56.66666666666667</ele><time>2026-04-25T16:47:31.004Z</time></trkpt><trkpt lat="43.9105384172547" lon="10.524900749872621"><ele>65.33333333333334</ele><time>2026-04-25T16:47:32.004Z</time></trkpt><trkpt lat="43.91036605277342" lon="10.525005250571537"><ele>74.0</ele><time>2026-04-25T16:47:33.004Z</time></trkpt><trkpt lat="43.91019327902961" lon="10.525107356047066"><ele>76.0</ele><time>2026-04-25T16:47:34.004Z</time></trkpt><trkpt lat="43.91002311115965" lon="10.525207468942716"><ele>78.0</ele><time>2026-04-25T16:47:35.004Z</time></trkpt><trkpt lat="43.909849259362446" lon="10.525278265121655"><ele>80.0</ele><time>2026-04-25T16:47:36.004Z</time></trkpt><trkpt lat="43.90805371769951" lon="10.526270058005261"><ele>42.0</ele><time>2026-04-25T16:47:47.264Z</time></trkpt><trkpt lat="43.907793890917354" lon="10.527443954165571"><ele>42.0</ele><time>2026-04-25T16:47:50.004Z</time></trkpt><trkpt lat="43.907651152677076" lon="10.527562562576657"><ele>42.0</ele><time>2026-04-25T16:47:51.004Z</time></trkpt><trkpt lat="43.90750588992855" lon="10.527656860989165"><ele>42.0</ele><time>2026-04-25T16:47:52.004Z</time></trkpt><trkpt lat="43.90737932760729" lon="10.527728817835639"><ele>43.333333333333336</ele><time>2026-04-25T16:47:53.004Z</time></trkpt><trkpt lat="43.90724055087287" lon="10.527807964974707"><ele>44.66666666666667</ele><time>2026-04-25T16:47:54.004Z</time></trkpt><trkpt lat="43.90706903022044" lon="10.527892559245622"><ele>46.0</ele><time>2026-04-25T16:47:55.004Z</time></trkpt><trkpt lat="43.90684793843097" lon="10.527986708082976"><ele>43.66666666666667</ele><time>2026-04-25T16:47:56.004Z</time></trkpt><trkpt lat="43.90663104668761" lon="10.52806623697914"><ele>41.333333333333336</ele><time>2026-04-25T16:47:57.004Z</time></trkpt><trkpt lat="43.906417444477746" lon="10.528153276821236"><ele>39.0</ele><time>2026-04-25T16:47:58.004Z</time></trkpt><trkpt lat="43.90618812654009" lon="10.528248013032691"><ele>39.0</ele><time>2026-04-25T16:47:59.004Z</time></trkpt><trkpt lat="43.905964633823245" lon="10.528344526804545"><ele>39.0</ele><time>2026-04-25T16:48:00.004Z</time></trkpt><trkpt lat="43.90576258210415" lon="10.52844016185496"><ele>39.0</ele><time>2026-04-25T16:48:01.004Z</time></trkpt><trkpt lat="43.9055678898068" lon="10.528550163301077"><ele>38.666666666666664</ele><time>2026-04-25T16:48:02.004Z</time></trkpt><trkpt lat="43.90538006135314" lon="10.528666994457698"><ele>38.33333333333333</ele><time>2026-04-25T16:48:03.004Z</time></trkpt><trkpt lat="43.905193256965916" lon="10.528789511053287"><ele>38.0</ele><time>2026-04-25T16:48:04.004Z</time></trkpt><trkpt lat="43.90501077860811" lon="10.52893343378271"><ele>38.0</ele><time>2026-04-25T16:48:05.004Z</time></trkpt><trkpt lat="43.9048317716204" lon="10.52908759578388"><ele>38.0</ele><time>2026-04-25T16:48:06.004Z</time></trkpt><trkpt lat="43.90465481245546" lon="10.529244596785118"><ele>38.0</ele><time>2026-04-25T16:48:07.004Z</time></trkpt><trkpt lat="43.90447961607863" lon="10.529399288908044"><ele>38.0</ele><time>2026-04-25T16:48:08.004Z</time></trkpt><trkpt lat="43.904305410194496" lon="10.529551434386825"><ele>38.0</ele><time>2026-04-25T16:48:09.004Z</time></trkpt><trkpt lat="43.90413578307678" lon="10.529703675819583"><ele>38.0</ele><time>2026-04-25T16:48:10.004Z</time></trkpt><trkpt lat="43.903976916103225" lon="10.529856239828472"><ele>39.33333333333333</ele><time>2026-04-25T16:48:11.003Z</time></trkpt><trkpt lat="43.90381677511071" lon="10.530020106052865"><ele>40.666666666666664</ele><time>2026-04-25T16:48:12.003Z</time></trkpt><trkpt lat="43.90363382706334" lon="10.530169237594308"><ele>42.0</ele><time>2026-04-25T16:48:13.003Z</time></trkpt><trkpt lat="43.90345411046456" lon="10.530326452183072"><ele>41.0</ele><time>2026-04-25T16:48:14.003Z</time></trkpt><trkpt lat="43.90327526058195" lon="10.530499715857436"><ele>40.0</ele><time>2026-04-25T16:48:15.003Z</time></trkpt><trkpt lat="43.90309355040265" lon="10.53067207445945"><ele>39.0</ele><time>2026-04-25T16:48:16.003Z</time></trkpt><trkpt lat="43.902912893268365" lon="10.530822811294014"><ele>39.0</ele><time>2026-04-25T16:48:17.003Z</time></trkpt><trkpt lat="43.90274425325697" lon="10.530961567275343"><ele>39.0</ele><time>2026-04-25T16:48:18.003Z</time></trkpt><trkpt lat="43.90259532078747" lon="10.531098774403251"><ele>39.0</ele><time>2026-04-25T16:48:19.003Z</time></trkpt><trkpt lat="43.90245950010575" lon="10.531231553058998"><ele>37.666666666666664</ele><time>2026-04-25T16:48:20.003Z</time></trkpt><trkpt lat="43.90231731577211" lon="10.531349722701922"><ele>36.33333333333333</ele><time>2026-04-25T16:48:21.003Z</time></trkpt><trkpt lat="43.90217035327676" lon="10.53144380389759"><ele>35.0</ele><time>2026-04-25T16:48:22.003Z</time></trkpt><trkpt lat="43.90204407771493" lon="10.531522310717962"><ele>35.0</ele><time>2026-04-25T16:48:23.003Z</time></trkpt><trkpt lat="43.901915223542765" lon="10.531613382177753"><ele>35.0</ele><time>2026-04-25T16:48:24.003Z</time></trkpt><trkpt lat="43.90179613203919" lon="10.53168862299962"><ele>35.0</ele><time>2026-04-25T16:48:25.003Z</time></trkpt><trkpt lat="43.90167214009715" lon="10.531748654085288"><ele>35.0</ele><time>2026-04-25T16:48:26.003Z</time></trkpt><trkpt lat="43.90155162467919" lon="10.531805927777823"><ele>37.25</ele><time>2026-04-25T16:48:27.003Z</time></trkpt><trkpt lat="43.901433587778705" lon="10.531860577611456"><ele>39.5</ele><time>2026-04-25T16:48:28.003Z</time></trkpt><trkpt lat="43.90130906377006" lon="10.53191303975753"><ele>41.75</ele><time>2026-04-25T16:48:29.003Z</time></trkpt><trkpt lat="43.90117989080962" lon="10.531964633706185"><ele>44.0</ele><time>2026-04-25T16:48:30.003Z</time></trkpt><trkpt lat="43.90104255487299" lon="10.53200984798216"><ele>44.0</ele><time>2026-04-25T16:48:31.003Z</time></trkpt><trkpt lat="43.90091617626793" lon="10.53204960265246"><ele>44.0</ele><time>2026-04-25T16:48:32.003Z</time></trkpt><trkpt lat="43.90079442788979" lon="10.532086481609266"><ele>44.0</ele><time>2026-04-25T16:48:33.003Z</time></trkpt><trkpt lat="43.90067589937634" lon="10.53211827575178"><ele>44.0</ele><time>2026-04-25T16:48:34.003Z</time></trkpt><trkpt lat="43.9005539828949" lon="10.53215141406488"><ele>42.25</ele><time>2026-04-25T16:48:35.003Z</time></trkpt><trkpt lat="43.90042874188914" lon="10.532192660680774"><ele>40.5</ele><time>2026-04-25T16:48:36.003Z</time></trkpt><trkpt lat="43.90030325669397" lon="10.5322334287196"><ele>38.75</ele><time>2026-04-25T16:48:37.003Z</time></trkpt><trkpt lat="43.90017156999986" lon="10.532271017184147"><ele>37.0</ele><time>2026-04-25T16:48:38.003Z</time></trkpt><trkpt lat="43.900037914884756" lon="10.532308943202448"><ele>37.0</ele><time>2026-04-25T16:48:39.003Z</time></trkpt><trkpt lat="43.89990564696596" lon="10.532350219920763"><ele>37.0</ele><time>2026-04-25T16:48:40.003Z</time></trkpt><trkpt lat="43.899773438057686" lon="10.532412451846179"><ele>37.0</ele><time>2026-04-25T16:48:41.003Z</time></trkpt><trkpt lat="43.899639272062316" lon="10.532490816942053"><ele>37.0</ele><time>2026-04-25T16:48:42.003Z</time></trkpt><trkpt lat="43.8995064726442" lon="10.532578632366791"><ele>37.0</ele><time>2026-04-25T16:48:43.003Z</time></trkpt><trkpt lat="43.8993840761422" lon="10.532687479822373"><ele>37.0</ele><time>2026-04-25T16:48:44.003Z</time></trkpt><trkpt lat="43.89927016494577" lon="10.532819330929081"><ele>37.0</ele><time>2026-04-25T16:48:45.003Z</time></trkpt><trkpt lat="43.89917101012952" lon="10.532967501306322"><ele>37.0</ele><time>2026-04-25T16:48:46.003Z</time></trkpt><trkpt lat="43.899075730974914" lon="10.533101827352343"><ele>36.5</ele><time>2026-04-25T16:48:47.003Z</time></trkpt><trkpt lat="43.89898649766739" lon="10.533230705302056"><ele>36.0</ele><time>2026-04-25T16:48:48.003Z</time></trkpt><trkpt lat="43.89889479353981" lon="10.53336683326365"><ele>35.5</ele><time>2026-04-25T16:48:49.003Z</time></trkpt><trkpt lat="43.89880456293995" lon="10.533496819345737"><ele>35.0</ele><time>2026-04-25T16:48:50.003Z</time></trkpt><trkpt lat="43.89871592629595" lon="10.53362359818323"><ele>34.25</ele><time>2026-04-25T16:48:51.003Z</time></trkpt><trkpt lat="43.89862946516312" lon="10.533747689454229"><ele>33.5</ele><time>2026-04-25T16:48:52.003Z</time></trkpt><trkpt lat="43.89854386994196" lon="10.533869867600432"><ele>32.75</ele><time>2026-04-25T16:48:53.003Z</time></trkpt><trkpt lat="43.89845825969265" lon="10.533997318717125"><ele>32.0</ele><time>2026-04-25T16:48:54.003Z</time></trkpt><trkpt lat="43.898361461539764" lon="10.534137455802634"><ele>32.0</ele><time>2026-04-25T16:48:55.003Z</time></trkpt><trkpt lat="43.89826569162735" lon="10.534272798387015"><ele>32.0</ele><time>2026-04-25T16:48:56.003Z</time></trkpt><trkpt lat="43.89816660861252" lon="10.534410726093736"><ele>32.0</ele><time>2026-04-25T16:48:57.003Z</time></trkpt><trkpt lat="43.89806950632304" lon="10.534545536706283"><ele>32.0</ele><time>2026-04-25T16:48:58.003Z</time></trkpt><trkpt lat="43.897976055440765" lon="10.534675644921276"><ele>32.25</ele><time>2026-04-25T16:48:59.003Z</time></trkpt><trkpt lat="43.897884450556205" lon="10.534802404563585"><ele>32.5</ele><time>2026-04-25T16:49:00.003Z</time></trkpt><trkpt lat="43.89778400514827" lon="10.534940520887485"><ele>32.75</ele><time>2026-04-25T16:49:01.003Z</time></trkpt><trkpt lat="43.89768938013256" lon="10.535084939572679"><ele>33.0</ele><time>2026-04-25T16:49:02.003Z</time></trkpt><trkpt lat="43.89759659977428" lon="10.535212966770622"><ele>33.0</ele><time>2026-04-25T16:49:03.003Z</time></trkpt><trkpt lat="43.897506233544" lon="10.535333575237692"><ele>33.0</ele><time>2026-04-25T16:49:04.003Z</time></trkpt><trkpt lat="43.897420849668286" lon="10.535450073166805"><ele>33.0</ele><time>2026-04-25T16:49:05.003Z</time></trkpt><trkpt lat="43.897341280625064" lon="10.535565445507254"><ele>33.0</ele><time>2026-04-25T16:49:06.003Z</time></trkpt><trkpt lat="43.89726382345706" lon="10.535678144258197"><ele>33.199999999999996</ele><time>2026-04-25T16:49:07.003Z</time></trkpt><trkpt lat="43.89717996080326" lon="10.535794949590413"><ele>33.4</ele><time>2026-04-25T16:49:08.003Z</time></trkpt><trkpt lat="43.89709850882879" lon="10.535906138765402"><ele>33.599999999999994</ele><time>2026-04-25T16:49:09.003Z</time></trkpt><trkpt lat="43.897025769858864" lon="10.536005214694399"><ele>33.8</ele><time>2026-04-25T16:49:10.003Z</time></trkpt><trkpt lat="43.89696615986487" lon="10.536089605049048"><ele>34.0</ele><time>2026-04-25T16:49:11.003Z</time></trkpt><trkpt lat="43.89691365415133" lon="10.536163939235168"><ele>33.833333333333336</ele><time>2026-04-25T16:49:12.003Z</time></trkpt><trkpt lat="43.896860396678996" lon="10.536229843711544"><ele>33.66666666666667</ele><time>2026-04-25T16:49:13.003Z</time></trkpt><trkpt lat="43.896800014181046" lon="10.536283289537327"><ele>33.5</ele><time>2026-04-25T16:49:14.003Z</time></trkpt><trkpt lat="43.89674418372057" lon="10.536332203693696"><ele>33.333333333333336</ele><time>2026-04-25T16:49:15.003Z</time></trkpt><trkpt lat="43.896682927431414" lon="10.53639030200839"><ele>33.166666666666664</ele><time>2026-04-25T16:49:16.003Z</time></trkpt><trkpt lat="43.896601937807056" lon="10.53646426999262"><ele>33.0</ele><time>2026-04-25T16:49:17.003Z</time></trkpt><trkpt lat="43.896514760566504" lon="10.536518466585903"><ele>33.0</ele><time>2026-04-25T16:49:18.003Z</time></trkpt><trkpt lat="43.89641638835982" lon="10.536539927312015"><ele>33.0</ele><time>2026-04-25T16:49:19.003Z</time></trkpt><trkpt lat="43.896319941401686" lon="10.536550100821632"><ele>33.0</ele><time>2026-04-25T16:49:20.003Z</time></trkpt><trkpt lat="43.89621687263903" lon="10.536535361817862"><ele>33.0</ele><time>2026-04-25T16:49:21.003Z</time></trkpt><trkpt lat="43.89612312956019" lon="10.53652337243312"><ele>33.0</ele><time>2026-04-25T16:49:22.003Z</time></trkpt><trkpt lat="43.89603108610005" lon="10.536553370802277"><ele>33.0</ele><time>2026-04-25T16:49:23.003Z</time></trkpt><trkpt lat="43.895954241072374" lon="10.536639123405598"><ele>33.0</ele><time>2026-04-25T16:49:24.003Z</time></trkpt><trkpt lat="43.89590061415178" lon="10.536735562990568"><ele>33.0</ele><time>2026-04-25T16:49:25.004Z</time></trkpt><trkpt lat="43.895851592962515" lon="10.536848400803292"><ele>33.0</ele><time>2026-04-25T16:49:26.004Z</time></trkpt><trkpt lat="43.89580275486633" lon="10.53695930704006"><ele>33.0</ele><time>2026-04-25T16:49:27.004Z</time></trkpt><trkpt lat="43.89573275891107" lon="10.537053907805367"><ele>33.0</ele><time>2026-04-25T16:49:28.004Z</time></trkpt><trkpt lat="43.895648454326924" lon="10.537147554236254"><ele>33.0</ele><time>2026-04-25T16:49:29.004Z</time></trkpt><trkpt lat="43.8955580470899" lon="10.537245103381972"><ele>33.0</ele><time>2026-04-25T16:49:30.004Z</time></trkpt><trkpt lat="43.89546085881209" lon="10.537331774971507"><ele>33.0</ele><time>2026-04-25T16:49:31.004Z</time></trkpt><trkpt lat="43.89535326251082" lon="10.537375287267484"><ele>33.0</ele><time>2026-04-25T16:49:32.004Z</time></trkpt><trkpt lat="43.89523592652595" lon="10.537374865630525"><ele>33.0</ele><time>2026-04-25T16:49:33.004Z</time></trkpt><trkpt lat="43.89511497911693" lon="10.537355726128487"><ele>33.0</ele><time>2026-04-25T16:49:34.004Z</time></trkpt><trkpt lat="43.89499794412984" lon="10.537341525056734"><ele>33.0</ele><time>2026-04-25T16:49:35.004Z</time></trkpt><trkpt lat="43.89488150141668" lon="10.537349363496912"><ele>33.5</ele><time>2026-04-25T16:49:36.004Z</time></trkpt><trkpt lat="43.89475631770674" lon="10.53734302472402"><ele>34.0</ele><time>2026-04-25T16:49:37.004Z</time></trkpt><trkpt lat="43.89462911968859" lon="10.537341949779133"><ele>34.5</ele><time>2026-04-25T16:49:38.003Z</time></trkpt><trkpt lat="43.89449903436256" lon="10.537344728490433"><ele>35.0</ele><time>2026-04-25T16:49:39.003Z</time></trkpt><trkpt lat="43.89436078788465" lon="10.537337487001984"><ele>34.666666666666664</ele><time>2026-04-25T16:49:40.003Z</time></trkpt><trkpt lat="43.894216338411624" lon="10.537329092454288"><ele>34.333333333333336</ele><time>2026-04-25T16:49:41.003Z</time></trkpt><trkpt lat="43.8940553186644" lon="10.537326530590649"><ele>34.0</ele><time>2026-04-25T16:49:42.003Z</time></trkpt><trkpt lat="43.89388649663198" lon="10.537318916626942"><ele>34.0</ele><time>2026-04-25T16:49:43.003Z</time></trkpt><trkpt lat="43.893708915701076" lon="10.537315466040774"><ele>34.0</ele><time>2026-04-25T16:49:44.003Z</time></trkpt><trkpt lat="43.89353494413437" lon="10.537313764420936"><ele>34.0</ele><time>2026-04-25T16:49:45.003Z</time></trkpt><trkpt lat="43.89335239954686" lon="10.537309732246088"><ele>33.66666666666667</ele><time>2026-04-25T16:49:46.003Z</time></trkpt><trkpt lat="43.89317055147679" lon="10.537294127734361"><ele>33.333333333333336</ele><time>2026-04-25T16:49:47.003Z</time></trkpt><trkpt lat="43.89299611633798" lon="10.537282901186765"><ele>33.0</ele><time>2026-04-25T16:49:48.003Z</time></trkpt><trkpt lat="43.89282731667952" lon="10.537232576397319"><ele>33.0</ele><time>2026-04-25T16:49:49.003Z</time></trkpt><trkpt lat="43.892666730743365" lon="10.537170979264836"><ele>33.0</ele><time>2026-04-25T16:49:50.003Z</time></trkpt><trkpt lat="43.892507491764526" lon="10.53709744085516"><ele>33.0</ele><time>2026-04-25T16:49:51.003Z</time></trkpt><trkpt lat="43.892344858477536" lon="10.537017660000847"><ele>33.0</ele><time>2026-04-25T16:49:52.003Z</time></trkpt><trkpt lat="43.89218276157872" lon="10.536928771803924"><ele>33.0</ele><time>2026-04-25T16:49:53.003Z</time></trkpt><trkpt lat="43.89203218455818" lon="10.536851252515778"><ele>33.0</ele><time>2026-04-25T16:49:54.003Z</time></trkpt><trkpt lat="43.89188729800473" lon="10.536781289152637"><ele>32.75</ele><time>2026-04-25T16:49:55.003Z</time></trkpt><trkpt lat="43.89175161439026" lon="10.536713237059715"><ele>32.5</ele><time>2026-04-25T16:49:56.003Z</time></trkpt><trkpt lat="43.89162312095978" lon="10.536645200199256"><ele>32.25</ele><time>2026-04-25T16:49:57.003Z</time></trkpt><trkpt lat="43.89150424933791" lon="10.53658100720319"><ele>32.0</ele><time>2026-04-25T16:49:58.003Z</time></trkpt><trkpt lat="43.89138669263182" lon="10.536516009174708"><ele>32.0</ele><time>2026-04-25T16:49:59.003Z</time></trkpt><trkpt lat="43.89127846431104" lon="10.536457636119529"><ele>32.0</ele><time>2026-04-25T16:50:00.003Z</time></trkpt><trkpt lat="43.891173897239995" lon="10.536410038832372"><ele>32.0</ele><time>2026-04-25T16:50:01.003Z</time></trkpt><trkpt lat="43.8910682747478" lon="10.536373980377272"><ele>32.0</ele><time>2026-04-25T16:50:02.003Z</time></trkpt><trkpt lat="43.89096292693548" lon="10.536342495569102"><ele>32.0</ele><time>2026-04-25T16:50:03.003Z</time></trkpt><trkpt lat="43.89085982564526" lon="10.536295137306015"><ele>31.75</ele><time>2026-04-25T16:50:04.003Z</time></trkpt><trkpt lat="43.89075399054686" lon="10.536244596757685"><ele>31.5</ele><time>2026-04-25T16:50:05.003Z</time></trkpt><trkpt lat="43.89064636456609" lon="10.536188212658702"><ele>31.25</ele><time>2026-04-25T16:50:06.003Z</time></trkpt><trkpt lat="43.89052857743158" lon="10.536125255027862"><ele>31.0</ele><time>2026-04-25T16:50:07.003Z</time></trkpt><trkpt lat="43.890406669454826" lon="10.536061821096027"><ele>30.75</ele><time>2026-04-25T16:50:08.003Z</time></trkpt><trkpt lat="43.890279957614226" lon="10.535995227624285"><ele>30.5</ele><time>2026-04-25T16:50:09.003Z</time></trkpt><trkpt lat="43.89014789319501" lon="10.535927313925987"><ele>30.25</ele><time>2026-04-25T16:50:10.003Z</time></trkpt><trkpt lat="43.89001368953735" lon="10.53585881976664"><ele>30.0</ele><time>2026-04-25T16:50:11.003Z</time></trkpt><trkpt lat="43.88987378866775" lon="10.53578819881777"><ele>30.0</ele><time>2026-04-25T16:50:12.003Z</time></trkpt><trkpt lat="43.889736858213766" lon="10.535716884863021"><ele>30.0</ele><time>2026-04-25T16:50:13.003Z</time></trkpt><trkpt lat="43.88960294016511" lon="10.535646421208057"><ele>30.0</ele><time>2026-04-25T16:50:14.003Z</time></trkpt><trkpt lat="43.88946996558222" lon="10.53557596142141"><ele>30.0</ele><time>2026-04-25T16:50:15.003Z</time></trkpt><trkpt lat="43.889338405261185" lon="10.535504316822221"><ele>30.0</ele><time>2026-04-25T16:50:16.003Z</time></trkpt><trkpt lat="43.88920693001608" lon="10.535430188248"><ele>30.0</ele><time>2026-04-25T16:50:17.003Z</time></trkpt><trkpt lat="43.88907220872787" lon="10.535363179250595"><ele>30.0</ele><time>2026-04-25T16:50:18.003Z</time></trkpt><trkpt lat="43.88893089865002" lon="10.535282802575546"><ele>30.0</ele><time>2026-04-25T16:50:19.003Z</time></trkpt><trkpt lat="43.88879312918921" lon="10.535211193150932"><ele>30.0</ele><time>2026-04-25T16:50:20.003Z</time></trkpt><trkpt lat="43.888658673118115" lon="10.53513869508979"><ele>30.0</ele><time>2026-04-25T16:50:21.003Z</time></trkpt><trkpt lat="43.88852262035882" lon="10.535070617154343"><ele>30.0</ele><time>2026-04-25T16:50:22.003Z</time></trkpt><trkpt lat="43.88838794034763" lon="10.535003005538092"><ele>30.0</ele><time>2026-04-25T16:50:23.003Z</time></trkpt><trkpt lat="43.88825210717334" lon="10.534931519229504"><ele>30.333333333333336</ele><time>2026-04-25T16:50:24.003Z</time></trkpt><trkpt lat="43.88811455960338" lon="10.534857399732243"><ele>30.666666666666668</ele><time>2026-04-25T16:50:25.003Z</time></trkpt><trkpt lat="43.887975065933354" lon="10.534781672081314"><ele>31.0</ele><time>2026-04-25T16:50:26.003Z</time></trkpt><trkpt lat="43.88768621392589" lon="10.534631901177613"><ele>31.333333333333336</ele><time>2026-04-25T16:50:28.003Z</time></trkpt><trkpt lat="43.887540584039414" lon="10.534559538392642"><ele>31.666666666666664</ele><time>2026-04-25T16:50:29.003Z</time></trkpt><trkpt lat="43.88739337056726" lon="10.534478965993463"><ele>32.0</ele><time>2026-04-25T16:50:30.003Z</time></trkpt><trkpt lat="43.887236735043736" lon="10.534402050670733"><ele>32.0</ele><time>2026-04-25T16:50:31.003Z</time></trkpt><trkpt lat="43.88706762544834" lon="10.534312779292202"><ele>32.0</ele><time>2026-04-25T16:50:32.003Z</time></trkpt><trkpt lat="43.88688986104782" lon="10.534213016855636"><ele>32.0</ele><time>2026-04-25T16:50:33.003Z</time></trkpt><trkpt lat="43.8867028981227" lon="10.53409948918024"><ele>32.0</ele><time>2026-04-25T16:50:34.003Z</time></trkpt><trkpt lat="43.8865159738213" lon="10.534004098932314"><ele>32.0</ele><time>2026-04-25T16:50:35.003Z</time></trkpt><trkpt lat="43.886332785788234" lon="10.533916477656714"><ele>32.0</ele><time>2026-04-25T16:50:36.003Z</time></trkpt><trkpt lat="43.88615782291776" lon="10.533839684328875"><ele>32.0</ele><time>2026-04-25T16:50:37.003Z</time></trkpt><trkpt lat="43.885992599534745" lon="10.533735155131486"><ele>32.0</ele><time>2026-04-25T16:50:38.003Z</time></trkpt><trkpt lat="43.88584208981284" lon="10.533656641892865"><ele>32.0</ele><time>2026-04-25T16:50:39.003Z</time></trkpt><trkpt lat="43.88569314362179" lon="10.533578944268159"><ele>31.333333333333332</ele><time>2026-04-25T16:50:40.003Z</time></trkpt><trkpt lat="43.885548757559114" lon="10.533504375709214"><ele>30.666666666666664</ele><time>2026-04-25T16:50:41.003Z</time></trkpt><trkpt lat="43.88540909853682" lon="10.533432387355287"><ele>30.0</ele><time>2026-04-25T16:50:42.003Z</time></trkpt><trkpt lat="43.88526670316916" lon="10.533382521344004"><ele>30.0</ele><time>2026-04-25T16:50:43.003Z</time></trkpt><trkpt lat="43.885129232773885" lon="10.533311678341919"><ele>30.0</ele><time>2026-04-25T16:50:44.003Z</time></trkpt><trkpt lat="43.88498544430116" lon="10.533234504026085"><ele>30.0</ele><time>2026-04-25T16:50:45.003Z</time></trkpt><trkpt lat="43.88483959935123" lon="10.533155452156668"><ele>30.333333333333336</ele><time>2026-04-25T16:50:46.003Z</time></trkpt><trkpt lat="43.88469394541966" lon="10.533078096315199"><ele>30.666666666666668</ele><time>2026-04-25T16:50:47.003Z</time></trkpt><trkpt lat="43.88454600937577" lon="10.532997842715943"><ele>31.0</ele><time>2026-04-25T16:50:48.002Z</time></trkpt><trkpt lat="43.88438978159171" lon="10.532906850130589"><ele>30.0</ele><time>2026-04-25T16:50:49.002Z</time></trkpt><trkpt lat="43.884217180960015" lon="10.532823513067786"><ele>29.0</ele><time>2026-04-25T16:50:50.002Z</time></trkpt><trkpt lat="43.88403421361255" lon="10.532732810681672"><ele>28.0</ele><time>2026-04-25T16:50:51.002Z</time></trkpt><trkpt lat="43.88384394603952" lon="10.532636329964314"><ele>28.0</ele><time>2026-04-25T16:50:52.002Z</time></trkpt><trkpt lat="43.88364660725365" lon="10.532526256947017"><ele>28.0</ele><time>2026-04-25T16:50:53.002Z</time></trkpt><trkpt lat="43.883434426142145" lon="10.532408239437883"><ele>28.0</ele><time>2026-04-25T16:50:54.002Z</time></trkpt><trkpt lat="43.88321980364151" lon="10.532292781704825"><ele>28.0</ele><time>2026-04-25T16:50:55.002Z</time></trkpt><trkpt lat="43.88300593723271" lon="10.532180023813483"><ele>28.0</ele><time>2026-04-25T16:50:56.002Z</time></trkpt><trkpt lat="43.882795049572216" lon="10.5320760227819"><ele>28.0</ele><time>2026-04-25T16:50:57.002Z</time></trkpt><trkpt lat="43.882587054820476" lon="10.531965569007022"><ele>28.0</ele><time>2026-04-25T16:50:58.002Z</time></trkpt><trkpt lat="43.882394523543255" lon="10.531863254965296"><ele>28.0</ele><time>2026-04-25T16:50:59.002Z</time></trkpt><trkpt lat="43.88221323338038" lon="10.531769073079095"><ele>28.0</ele><time>2026-04-25T16:51:00.002Z</time></trkpt><trkpt lat="43.88204045163565" lon="10.531675147549368"><ele>28.0</ele><time>2026-04-25T16:51:01.002Z</time></trkpt><trkpt lat="43.88188449946889" lon="10.531577523155937"><ele>28.0</ele><time>2026-04-25T16:51:02.002Z</time></trkpt><trkpt lat="43.8817225241088" lon="10.531472479915095"><ele>28.0</ele><time>2026-04-25T16:51:03.002Z</time></trkpt><trkpt lat="43.88155245533203" lon="10.531354062606667"><ele>28.0</ele><time>2026-04-25T16:51:04.002Z</time></trkpt><trkpt lat="43.881381599460134" lon="10.531236905233055"><ele>28.0</ele><time>2026-04-25T16:51:05.002Z</time></trkpt><trkpt lat="43.88122234418348" lon="10.531127379021981"><ele>28.0</ele><time>2026-04-25T16:51:06.002Z</time></trkpt><trkpt lat="43.88106901106536" lon="10.531027934556189"><ele>28.0</ele><time>2026-04-25T16:51:07.002Z</time></trkpt><trkpt lat="43.8809186627014" lon="10.53094489257274"><ele>28.0</ele><time>2026-04-25T16:51:08.002Z</time></trkpt><trkpt lat="43.88075801856094" lon="10.530872617197254"><ele>28.0</ele><time>2026-04-25T16:51:09.002Z</time></trkpt><trkpt lat="43.88058706905957" lon="10.53077869166763"><ele>28.0</ele><time>2026-04-25T16:51:10.002Z</time></trkpt><trkpt lat="43.880393209831894" lon="10.530672537111961"><ele>28.0</ele><time>2026-04-25T16:51:11.002Z</time></trkpt><trkpt lat="43.88018207673733" lon="10.530550458834973"><ele>27.5</ele><time>2026-04-25T16:51:12.002Z</time></trkpt><trkpt lat="43.87995946472504" lon="10.530423492097027"><ele>27.0</ele><time>2026-04-25T16:51:13.002Z</time></trkpt><trkpt lat="43.879725793199846" lon="10.530298569468233"><ele>27.5</ele><time>2026-04-25T16:51:14.002Z</time></trkpt><trkpt lat="43.87949316691677" lon="10.530170775416218"><ele>28.0</ele><time>2026-04-25T16:51:15.002Z</time></trkpt><trkpt lat="43.8792567847891" lon="10.530044323562432"><ele>28.0</ele><time>2026-04-25T16:51:16.002Z</time></trkpt><trkpt lat="43.87902028982885" lon="10.529899356916756"><ele>28.0</ele><time>2026-04-25T16:51:17.002Z</time></trkpt><trkpt lat="43.87878691705393" lon="10.529771111110067"><ele>28.0</ele><time>2026-04-25T16:51:18.002Z</time></trkpt><trkpt lat="43.878567744250695" lon="10.529659702923576"><ele>28.0</ele><time>2026-04-25T16:51:19.002Z</time></trkpt><trkpt lat="43.878351697974225" lon="10.529553893901676"><ele>27.0</ele><time>2026-04-25T16:51:20.002Z</time></trkpt><trkpt lat="43.87813422614958" lon="10.529449676203813"><ele>26.0</ele><time>2026-04-25T16:51:21.002Z</time></trkpt><trkpt lat="43.87791602779657" lon="10.529347452641085"><ele>26.0</ele><time>2026-04-25T16:51:22.002Z</time></trkpt><trkpt lat="43.87770017610005" lon="10.529238573471407"><ele>26.0</ele><time>2026-04-25T16:51:23.002Z</time></trkpt><trkpt lat="43.87748429005262" lon="10.529132296447901"><ele>26.0</ele><time>2026-04-25T16:51:24.002Z</time></trkpt><trkpt lat="43.87726945543594" lon="10.52902507590131"><ele>26.0</ele><time>2026-04-25T16:51:25.002Z</time></trkpt><trkpt lat="43.87705775444073" lon="10.528913867261387"><ele>26.0</ele><time>2026-04-25T16:51:26.002Z</time></trkpt><trkpt lat="43.87683939207957" lon="10.528817659900728"><ele>26.0</ele><time>2026-04-25T16:51:27.002Z</time></trkpt><trkpt lat="43.87662381904769" lon="10.52871491604212"><ele>28.0</ele><time>2026-04-25T16:51:28.002Z</time></trkpt><trkpt lat="43.87641157121775" lon="10.52859209851102"><ele>30.0</ele><time>2026-04-25T16:51:29.002Z</time></trkpt><trkpt lat="43.876200563731196" lon="10.52847145452145"><ele>30.0</ele><time>2026-04-25T16:51:30.002Z</time></trkpt><trkpt lat="43.87598548216742" lon="10.52835569317254"><ele>30.0</ele><time>2026-04-25T16:51:31.005Z</time></trkpt><trkpt lat="43.875771897250424" lon="10.52824693611825"><ele>29.0</ele><time>2026-04-25T16:51:32.005Z</time></trkpt><trkpt lat="43.875547829732504" lon="10.528158476994678"><ele>28.0</ele><time>2026-04-25T16:51:33.005Z</time></trkpt><trkpt lat="43.87533953383199" lon="10.528043148051706"><ele>28.0</ele><time>2026-04-25T16:51:34.004Z</time></trkpt><trkpt lat="43.875124323325444" lon="10.527937149626947"><ele>28.0</ele><time>2026-04-25T16:51:35.004Z</time></trkpt><trkpt lat="43.87489306846418" lon="10.527823768460985"><ele>27.5</ele><time>2026-04-25T16:51:36.004Z</time></trkpt><trkpt lat="43.87466680412594" lon="10.527713808599609"><ele>27.0</ele><time>2026-04-25T16:51:37.005Z</time></trkpt><trkpt lat="43.87441306068516" lon="10.52760710037773"><ele>26.666666666666664</ele><time>2026-04-25T16:51:38.004Z</time></trkpt><trkpt lat="43.87414556350926" lon="10.527504937430614"><ele>26.333333333333332</ele><time>2026-04-25T16:51:39.004Z</time></trkpt><trkpt lat="43.87405782075006" lon="10.527419231160852"><ele>26.0</ele><time>2026-04-25T16:51:40.004Z</time></trkpt><trkpt lat="43.87384117287788" lon="10.527314284781525"><ele>26.0</ele><time>2026-04-25T16:51:41.004Z</time></trkpt><trkpt lat="43.87362425253736" lon="10.527206966803488"><ele>26.0</ele><time>2026-04-25T16:51:42.004Z</time></trkpt><trkpt lat="43.87340576169232" lon="10.52709658980591"><ele>27.0</ele><time>2026-04-25T16:51:43.004Z</time></trkpt><trkpt lat="43.87319241098757" lon="10.526972746748806"><ele>28.0</ele><time>2026-04-25T16:51:44.005Z</time></trkpt><trkpt lat="43.87297454746816" lon="10.526851446899611"><ele>28.0</ele><time>2026-04-25T16:51:45.005Z</time></trkpt><trkpt lat="43.872761619467965" lon="10.526737258085383"><ele>28.0</ele><time>2026-04-25T16:51:46.005Z</time></trkpt><trkpt lat="43.87254320422921" lon="10.526611607048523"><ele>28.0</ele><time>2026-04-25T16:51:47.005Z</time></trkpt><trkpt lat="43.8723298129658" lon="10.526487737503896"><ele>28.0</ele><time>2026-04-25T16:51:48.005Z</time></trkpt><trkpt lat="43.87211206541806" lon="10.52636804233691"><ele>28.0</ele><time>2026-04-25T16:51:49.005Z</time></trkpt><trkpt lat="43.871899089493716" lon="10.526248439746704"><ele>28.0</ele><time>2026-04-25T16:51:50.005Z</time></trkpt><trkpt lat="43.871688864323204" lon="10.526125914695001"><ele>27.0</ele><time>2026-04-25T16:51:51.005Z</time></trkpt><trkpt lat="43.87147770487272" lon="10.526003671077374"><ele>26.0</ele><time>2026-04-25T16:51:52.005Z</time></trkpt><trkpt lat="43.87127058028379" lon="10.525880722570683"><ele>26.0</ele><time>2026-04-25T16:51:53.004Z</time></trkpt><trkpt lat="43.87108157897496" lon="10.525762403398716"><ele>26.0</ele><time>2026-04-25T16:51:54.004Z</time></trkpt><trkpt lat="43.87092781851667" lon="10.525638442969383"><ele>26.0</ele><time>2026-04-25T16:51:55.004Z</time></trkpt><trkpt lat="43.870805625574704" lon="10.525510278734306"><ele>25.666666666666664</ele><time>2026-04-25T16:51:56.004Z</time></trkpt><trkpt lat="43.870678361641566" lon="10.525393756012368"><ele>25.333333333333336</ele><time>2026-04-25T16:51:57.004Z</time></trkpt><trkpt lat="43.87055700317112" lon="10.525263135273962"><ele>25.0</ele><time>2026-04-25T16:51:58.004Z</time></trkpt><trkpt lat="43.87041930476592" lon="10.525119380286608"><ele>25.0</ele><time>2026-04-25T16:51:59.004Z</time></trkpt><trkpt lat="43.87027403092719" lon="10.524964959936888"><ele>25.0</ele><time>2026-04-25T16:52:00.004Z</time></trkpt><trkpt lat="43.870123418667944" lon="10.524804689227297"><ele>25.0</ele><time>2026-04-25T16:52:01.004Z</time></trkpt><trkpt lat="43.869968209962565" lon="10.524624953998014"><ele>25.666666666666668</ele><time>2026-04-25T16:52:02.004Z</time></trkpt><trkpt lat="43.869800731557575" lon="10.524418555834847"><ele>26.333333333333336</ele><time>2026-04-25T16:52:03.004Z</time></trkpt><trkpt lat="43.86963765486399" lon="10.524241909708433"><ele>27.0</ele><time>2026-04-25T16:52:04.004Z</time></trkpt><trkpt lat="43.86947342404508" lon="10.52405687660831"><ele>27.0</ele><time>2026-04-25T16:52:05.004Z</time></trkpt><trkpt lat="43.86930243017877" lon="10.523862735164478"><ele>27.0</ele><time>2026-04-25T16:52:06.004Z</time></trkpt><trkpt lat="43.86912346565823" lon="10.523668470152591"><ele>27.0</ele><time>2026-04-25T16:52:07.004Z</time></trkpt><trkpt lat="43.868940377521476" lon="10.523473521407409"><ele>26.0</ele><time>2026-04-25T16:52:08.004Z</time></trkpt><trkpt lat="43.86875901302191" lon="10.523271190469146"><ele>25.0</ele><time>2026-04-25T16:52:09.004Z</time></trkpt><trkpt lat="43.868576129178216" lon="10.523069549112128"><ele>25.5</ele><time>2026-04-25T16:52:10.004Z</time></trkpt><trkpt lat="43.86839273359953" lon="10.522866524665863"><ele>26.0</ele><time>2026-04-25T16:52:11.004Z</time></trkpt><trkpt lat="43.868213287990976" lon="10.522672018094589"><ele>26.0</ele><time>2026-04-25T16:52:12.004Z</time></trkpt><trkpt lat="43.868040444712115" lon="10.522484134765158"><ele>26.0</ele><time>2026-04-25T16:52:13.004Z</time></trkpt><trkpt lat="43.86787404693686" lon="10.522306185284437"><ele>26.0</ele><time>2026-04-25T16:52:14.004Z</time></trkpt><trkpt lat="43.86770974261884" lon="10.522127906823881"><ele>25.666666666666664</ele><time>2026-04-25T16:52:15.004Z</time></trkpt><trkpt lat="43.867541880547485" lon="10.521952694337507"><ele>25.333333333333336</ele><time>2026-04-25T16:52:16.004Z</time></trkpt><trkpt lat="43.867391257848226" lon="10.521758867412306"><ele>25.0</ele><time>2026-04-25T16:52:17.004Z</time></trkpt><trkpt lat="43.86723972811433" lon="10.52159028307286"><ele>25.0</ele><time>2026-04-25T16:52:18.004Z</time></trkpt><trkpt lat="43.86709107674882" lon="10.521442149708227"><ele>25.0</ele><time>2026-04-25T16:52:19.004Z</time></trkpt><trkpt lat="43.866949595760076" lon="10.521294512142122"><ele>25.0</ele><time>2026-04-25T16:52:20.004Z</time></trkpt><trkpt lat="43.866786473295946" lon="10.521134465401927"><ele>25.0</ele><time>2026-04-25T16:52:21.004Z</time></trkpt><trkpt lat="43.86661726117786" lon="10.520952326665444"><ele>25.0</ele><time>2026-04-25T16:52:22.004Z</time></trkpt><trkpt lat="43.86645697971712" lon="10.520746728270515"><ele>25.0</ele><time>2026-04-25T16:52:23.004Z</time></trkpt><trkpt lat="43.86629614908028" lon="10.520545364867052"><ele>25.333333333333336</ele><time>2026-04-25T16:52:24.004Z</time></trkpt><trkpt lat="43.866122781364474" lon="10.520355013255735"><ele>25.666666666666664</ele><time>2026-04-25T16:52:25.004Z</time></trkpt><trkpt lat="43.865944857733034" lon="10.520167056243197"><ele>26.0</ele><time>2026-04-25T16:52:26.004Z</time></trkpt><trkpt lat="43.86577815619969" lon="10.519991867443318"><ele>25.666666666666664</ele><time>2026-04-25T16:52:27.004Z</time></trkpt><trkpt lat="43.86562275659066" lon="10.519826315149858"><ele>25.333333333333336</ele><time>2026-04-25T16:52:28.004Z</time></trkpt><trkpt lat="43.86547519890364" lon="10.519675361640505"><ele>25.0</ele><time>2026-04-25T16:52:29.004Z</time></trkpt><trkpt lat="43.86534303984455" lon="10.519530736668848"><ele>25.0</ele><time>2026-04-25T16:52:30.004Z</time></trkpt><trkpt lat="43.86521882731868" lon="10.519384334156978"><ele>25.0</ele><time>2026-04-25T16:52:31.004Z</time></trkpt><trkpt lat="43.86510326581995" lon="10.519256708775917"><ele>25.0</ele><time>2026-04-25T16:52:32.004Z</time></trkpt><trkpt lat="43.86501045065559" lon="10.519123125801864"><ele>25.0</ele><time>2026-04-25T16:52:33.004Z</time></trkpt><trkpt lat="43.86493090777364" lon="10.518988258399947"><ele>25.4</ele><time>2026-04-25T16:52:34.004Z</time></trkpt><trkpt lat="43.86486735763013" lon="10.518857675949926"><ele>25.8</ele><time>2026-04-25T16:52:35.004Z</time></trkpt><trkpt lat="43.864831923362246" lon="10.518725283821983"><ele>26.200000000000003</ele><time>2026-04-25T16:52:36.004Z</time></trkpt><trkpt lat="43.86476753502923" lon="10.518633241390688"><ele>26.6</ele><time>2026-04-25T16:52:37.004Z</time></trkpt><trkpt lat="43.864687288812924" lon="10.51858030826457"><ele>27.0</ele><time>2026-04-25T16:52:38.004Z</time></trkpt><trkpt lat="43.864601805419724" lon="10.51855987139014"><ele>27.200000000000003</ele><time>2026-04-25T16:52:39.004Z</time></trkpt><trkpt lat="43.8645205067352" lon="10.518545093096458"><ele>27.400000000000002</ele><time>2026-04-25T16:52:40.004Z</time></trkpt><trkpt lat="43.86443958771112" lon="10.518509493296884"><ele>27.599999999999998</ele><time>2026-04-25T16:52:41.004Z</time></trkpt><trkpt lat="43.86436111126576" lon="10.518442878007157"><ele>27.799999999999997</ele><time>2026-04-25T16:52:42.004Z</time></trkpt><trkpt lat="43.86428374783838" lon="10.518364888848485"><ele>28.0</ele><time>2026-04-25T16:52:43.004Z</time></trkpt><trkpt lat="43.86420913245388" lon="10.518268412339465"><ele>28.0</ele><time>2026-04-25T16:52:44.004Z</time></trkpt><trkpt lat="43.86413793774081" lon="10.518175067883865"><ele>27.999999999999996</ele><time>2026-04-25T16:52:45.004Z</time></trkpt><trkpt lat="43.864058870127806" lon="10.518088498786637"><ele>27.999999999999996</ele><time>2026-04-25T16:52:46.004Z</time></trkpt><trkpt lat="43.863982160134526" lon="10.51799521054476"><ele>28.0</ele><time>2026-04-25T16:52:47.004Z</time></trkpt><trkpt lat="43.86390033382749" lon="10.51790138031751"><ele>28.0</ele><time>2026-04-25T16:52:48.004Z</time></trkpt><trkpt lat="43.86381276951084" lon="10.517809530732851"><ele>27.599999999999998</ele><time>2026-04-25T16:52:49.004Z</time></trkpt><trkpt lat="43.8637270169221" lon="10.517712525494689"><ele>27.199999999999996</ele><time>2026-04-25T16:52:50.004Z</time></trkpt><trkpt lat="43.863644429991" lon="10.517617363814503"><ele>26.8</ele><time>2026-04-25T16:52:51.004Z</time></trkpt><trkpt lat="43.863558142612995" lon="10.517518794447197"><ele>26.4</ele><time>2026-04-25T16:52:52.004Z</time></trkpt><trkpt lat="43.86347308631853" lon="10.517416687928668"><ele>26.0</ele><time>2026-04-25T16:52:53.004Z</time></trkpt><trkpt lat="43.86338764427958" lon="10.517318681878992"><ele>26.0</ele><time>2026-04-25T16:52:54.004Z</time></trkpt><trkpt lat="43.86330001026081" lon="10.517222297910115"><ele>26.0</ele><time>2026-04-25T16:52:55.004Z</time></trkpt><trkpt lat="43.86321470037524" lon="10.517125642812733"><ele>26.0</ele><time>2026-04-25T16:52:56.004Z</time></trkpt><trkpt lat="43.863125299635996" lon="10.517031109044522"><ele>26.0</ele><time>2026-04-25T16:52:57.004Z</time></trkpt><trkpt lat="43.86303312339274" lon="10.5169293894367"><ele>25.75</ele><time>2026-04-25T16:52:58.004Z</time></trkpt><trkpt lat="43.86293699665984" lon="10.516822882795314"><ele>25.5</ele><time>2026-04-25T16:52:59.004Z</time></trkpt><trkpt lat="43.86284717222004" lon="10.516710279824284"><ele>25.25</ele><time>2026-04-25T16:53:00.004Z</time></trkpt><trkpt lat="43.86274711361499" lon="10.516606574418432"><ele>25.0</ele><time>2026-04-25T16:53:01.004Z</time></trkpt><trkpt lat="43.86264298284579" lon="10.51649474876375"><ele>24.333333333333336</ele><time>2026-04-25T16:53:02.004Z</time></trkpt><trkpt lat="43.862530437173426" lon="10.516374703860203"><ele>23.666666666666668</ele><time>2026-04-25T16:53:03.004Z</time></trkpt><trkpt lat="43.86240726385853" lon="10.516236864464513"><ele>23.0</ele><time>2026-04-25T16:53:04.004Z</time></trkpt><trkpt lat="43.86228085815888" lon="10.516093304228084"><ele>23.0</ele><time>2026-04-25T16:53:05.004Z</time></trkpt><trkpt lat="43.86215383822715" lon="10.515945422912475"><ele>23.0</ele><time>2026-04-25T16:53:06.004Z</time></trkpt><trkpt lat="43.86201439939386" lon="10.515800036731354"><ele>23.0</ele><time>2026-04-25T16:53:07.004Z</time></trkpt><trkpt lat="43.861852733660214" lon="10.515661479807632"><ele>23.0</ele><time>2026-04-25T16:53:08.004Z</time></trkpt><trkpt lat="43.86168170358054" lon="10.515548091124135"><ele>23.0</ele><time>2026-04-25T16:53:09.004Z</time></trkpt><trkpt lat="43.86149693163455" lon="10.515450966946238"><ele>23.0</ele><time>2026-04-25T16:53:10.004Z</time></trkpt><trkpt lat="43.86130932741874" lon="10.515375267134862"><ele>23.0</ele><time>2026-04-25T16:53:11.004Z</time></trkpt><trkpt lat="43.86111412426177" lon="10.51531877489219"><ele>23.0</ele><time>2026-04-25T16:53:12.004Z</time></trkpt><trkpt lat="43.86091259393941" lon="10.515289911968702"><ele>23.0</ele><time>2026-04-25T16:53:13.003Z</time></trkpt><trkpt lat="43.86071102975502" lon="10.515276266423024"><ele>23.0</ele><time>2026-04-25T16:53:14.003Z</time></trkpt><trkpt lat="43.860508892649435" lon="10.515263688669489"><ele>23.0</ele><time>2026-04-25T16:53:15.003Z</time></trkpt><trkpt lat="43.86030371372528" lon="10.515249727114348"><ele>23.0</ele><time>2026-04-25T16:53:16.003Z</time></trkpt><trkpt lat="43.860105062673064" lon="10.515241011231051"><ele>22.666666666666668</ele><time>2026-04-25T16:53:17.003Z</time></trkpt><trkpt lat="43.85991610714739" lon="10.515232506803164"><ele>22.333333333333332</ele><time>2026-04-25T16:53:18.003Z</time></trkpt><trkpt lat="43.8597145547496" lon="10.51519783656049"><ele>22.0</ele><time>2026-04-25T16:53:19.003Z</time></trkpt><trkpt lat="43.85952882741712" lon="10.515124134596812"><ele>22.0</ele><time>2026-04-25T16:53:20.003Z</time></trkpt><trkpt lat="43.85933795971057" lon="10.515059704559157"><ele>22.0</ele><time>2026-04-25T16:53:21.003Z</time></trkpt><trkpt lat="43.859164708007306" lon="10.514927300401302"><ele>22.0</ele><time>2026-04-25T16:53:22.003Z</time></trkpt><trkpt lat="43.85899569006246" lon="10.51479497142316"><ele>22.0</ele><time>2026-04-25T16:53:23.003Z</time></trkpt><trkpt lat="43.858836310466145" lon="10.514644761396058"><ele>22.0</ele><time>2026-04-25T16:53:24.003Z</time></trkpt><trkpt lat="43.85868426228458" lon="10.514474869119601"><ele>22.0</ele><time>2026-04-25T16:53:25.003Z</time></trkpt><trkpt lat="43.85854459617913" lon="10.51430943453934"><ele>21.666666666666664</ele><time>2026-04-25T16:53:26.003Z</time></trkpt><trkpt lat="43.85841836824359" lon="10.514154342730027"><ele>21.333333333333332</ele><time>2026-04-25T16:53:27.003Z</time></trkpt><trkpt lat="43.858300388090925" lon="10.514004405585418"><ele>21.0</ele><time>2026-04-25T16:53:28.003Z</time></trkpt><trkpt lat="43.85818348392993" lon="10.51386109781185"><ele>21.0</ele><time>2026-04-25T16:53:29.003Z</time></trkpt><trkpt lat="43.858065452824945" lon="10.513725614977268"><ele>21.0</ele><time>2026-04-25T16:53:30.003Z</time></trkpt><trkpt lat="43.85794531929749" lon="10.513583069593437"><ele>21.0</ele><time>2026-04-25T16:53:31.003Z</time></trkpt><trkpt lat="43.857828116777014" lon="10.513444466168666"><ele>21.0</ele><time>2026-04-25T16:53:32.003Z</time></trkpt><trkpt lat="43.85771305371601" lon="10.513302443623388"><ele>21.0</ele><time>2026-04-25T16:53:33.003Z</time></trkpt><trkpt lat="43.85759741363025" lon="10.513155876957155"><ele>21.0</ele><time>2026-04-25T16:53:34.003Z</time></trkpt><trkpt lat="43.85748345286155" lon="10.51301316506203"><ele>21.333333333333332</ele><time>2026-04-25T16:53:35.003Z</time></trkpt><trkpt lat="43.857363110926755" lon="10.51287850675088"><ele>21.666666666666664</ele><time>2026-04-25T16:53:36.003Z</time></trkpt><trkpt lat="43.857246429292054" lon="10.51273865977335"><ele>22.0</ele><time>2026-04-25T16:53:37.005Z</time></trkpt><trkpt lat="43.85712374634991" lon="10.512601559599084"><ele>22.0</ele><time>2026-04-25T16:53:38.004Z</time></trkpt><trkpt lat="43.857010389279324" lon="10.512463683362268"><ele>22.0</ele><time>2026-04-25T16:53:39.004Z</time></trkpt><trkpt lat="43.85690239591056" lon="10.512327884890095"><ele>22.0</ele><time>2026-04-25T16:53:40.004Z</time></trkpt><trkpt lat="43.85681260562034" lon="10.512182818974559"><ele>22.0</ele><time>2026-04-25T16:53:41.005Z</time></trkpt><trkpt lat="43.85671927179378" lon="10.512067180387094"><ele>21.5</ele><time>2026-04-25T16:53:42.005Z</time></trkpt><trkpt lat="43.85662777009188" lon="10.51195369376449"><ele>21.0</ele><time>2026-04-25T16:53:43.005Z</time></trkpt><trkpt lat="43.85653719811514" lon="10.511842197788624"><ele>20.5</ele><time>2026-04-25T16:53:44.004Z</time></trkpt><trkpt lat="43.85644588367569" lon="10.511719795483973"><ele>20.0</ele><time>2026-04-25T16:53:45.004Z</time></trkpt><trkpt lat="43.85633825331294" lon="10.511594373878406"><ele>20.0</ele><time>2026-04-25T16:53:46.004Z</time></trkpt><trkpt lat="43.85622788539455" lon="10.511462718158132"><ele>20.0</ele><time>2026-04-25T16:53:47.005Z</time></trkpt><trkpt lat="43.85612368638898" lon="10.511337603180454"><ele>20.0</ele><time>2026-04-25T16:53:48.005Z</time></trkpt><trkpt lat="43.856015283541126" lon="10.511214681344713"><ele>20.0</ele><time>2026-04-25T16:53:49.004Z</time></trkpt><trkpt lat="43.855903780495375" lon="10.511085357412297"><ele>19.75</ele><time>2026-04-25T16:53:50.005Z</time></trkpt><trkpt lat="43.85579804357217" lon="10.510945407273647"><ele>19.5</ele><time>2026-04-25T16:53:51.005Z</time></trkpt><trkpt lat="43.85568995580172" lon="10.51081062692254"><ele>19.25</ele><time>2026-04-25T16:53:52.005Z</time></trkpt><trkpt lat="43.85558005198543" lon="10.510678184127219"><ele>19.0</ele><time>2026-04-25T16:53:53.005Z</time></trkpt><trkpt lat="43.85546675196582" lon="10.51054216594564"><ele>19.0</ele><time>2026-04-25T16:53:54.005Z</time></trkpt><trkpt lat="43.855356487716456" lon="10.51040605139106"><ele>19.0</ele><time>2026-04-25T16:53:55.005Z</time></trkpt><trkpt lat="43.8552477235796" lon="10.510268692660942"><ele>19.0</ele><time>2026-04-25T16:53:56.005Z</time></trkpt><trkpt lat="43.85514424350856" lon="10.510139711111957"><ele>19.0</ele><time>2026-04-25T16:53:57.005Z</time></trkpt><trkpt lat="43.855041822492716" lon="10.510017963325947"><ele>19.0</ele><time>2026-04-25T16:53:58.005Z</time></trkpt><trkpt lat="43.854948747378394" lon="10.509895843719757"><ele>19.0</ele><time>2026-04-25T16:53:59.005Z</time></trkpt><trkpt lat="43.85485491027987" lon="10.509779838331"><ele>19.0</ele><time>2026-04-25T16:54:00.004Z</time></trkpt><trkpt lat="43.854757494501996" lon="10.509667776956816"><ele>19.0</ele><time>2026-04-25T16:54:01.004Z</time></trkpt><trkpt lat="43.85465870673076" lon="10.509553303480097"><ele>19.2</ele><time>2026-04-25T16:54:02.004Z</time></trkpt><trkpt lat="43.85456688924908" lon="10.509437880576384"><ele>19.4</ele><time>2026-04-25T16:54:03.004Z</time></trkpt><trkpt lat="43.85448009964247" lon="10.509328806150034"><ele>19.6</ele><time>2026-04-25T16:54:04.004Z</time></trkpt><trkpt lat="43.85440373301932" lon="10.509238582174799"><ele>19.8</ele><time>2026-04-25T16:54:05.004Z</time></trkpt><trkpt lat="43.85432259249795" lon="10.509152301984807"><ele>20.0</ele><time>2026-04-25T16:54:06.004Z</time></trkpt><trkpt lat="43.85425596820576" lon="10.5090737679629"><ele>20.0</ele><time>2026-04-25T16:54:07.004Z</time></trkpt><trkpt lat="43.85415124292048" lon="10.509113171274922"><ele>20.0</ele><time>2026-04-25T16:54:08.004Z</time></trkpt><trkpt lat="43.8540643692896" lon="10.50911660869194"><ele>20.0</ele><time>2026-04-25T16:54:09.004Z</time></trkpt><trkpt lat="43.85398552076462" lon="10.509119888225877"><ele>20.0</ele><time>2026-04-25T16:54:10.004Z</time></trkpt><trkpt lat="43.85388144617785" lon="10.509110348445994"><ele>20.0</ele><time>2026-04-25T16:54:11.004Z</time></trkpt><trkpt lat="43.853783198914805" lon="10.50910353096104"><ele>20.0</ele><time>2026-04-25T16:54:12.004Z</time></trkpt><trkpt lat="43.85368610542639" lon="10.509092590613957"><ele>20.0</ele><time>2026-04-25T16:54:13.004Z</time></trkpt><trkpt lat="43.85357761323127" lon="10.50907508611928"><ele>20.0</ele><time>2026-04-25T16:54:14.004Z</time></trkpt><trkpt lat="43.8534655324819" lon="10.509061378476341"><ele>20.0</ele><time>2026-04-25T16:54:15.004Z</time></trkpt><trkpt lat="43.85335519079137" lon="10.509051355331488"><ele>20.0</ele><time>2026-04-25T16:54:16.004Z</time></trkpt><trkpt lat="43.85323907161349" lon="10.509042313620872"><ele>20.25</ele><time>2026-04-25T16:54:17.004Z</time></trkpt><trkpt lat="43.853115376279554" lon="10.50903357725717"><ele>20.5</ele><time>2026-04-25T16:54:18.004Z</time></trkpt><trkpt lat="43.85298474434994" lon="10.509029204476303"><ele>20.75</ele><time>2026-04-25T16:54:19.004Z</time></trkpt><trkpt lat="43.85286321821324" lon="10.509029767915568"><ele>21.0</ele><time>2026-04-25T16:54:20.004Z</time></trkpt><trkpt lat="43.85273882324958" lon="10.509014114018582"><ele>21.75</ele><time>2026-04-25T16:54:21.004Z</time></trkpt><trkpt lat="43.852609800835864" lon="10.508997234798619"><ele>22.5</ele><time>2026-04-25T16:54:22.004Z</time></trkpt><trkpt lat="43.8524784101679" lon="10.508979017323233"><ele>23.25</ele><time>2026-04-25T16:54:23.004Z</time></trkpt><trkpt lat="43.852353053084556" lon="10.508965110499865"><ele>24.0</ele><time>2026-04-25T16:54:24.004Z</time></trkpt><trkpt lat="43.852218677116404" lon="10.508967437129874"><ele>24.0</ele><time>2026-04-25T16:54:25.004Z</time></trkpt><trkpt lat="43.85209005272879" lon="10.50895221075307"><ele>24.0</ele><time>2026-04-25T16:54:26.004Z</time></trkpt><trkpt lat="43.85195944462392" lon="10.508945077536184"><ele>24.0</ele><time>2026-04-25T16:54:27.004Z</time></trkpt><trkpt lat="43.85183539180745" lon="10.508930229497123"><ele>24.0</ele><time>2026-04-25T16:54:28.004Z</time></trkpt><trkpt lat="43.851702330119124" lon="10.508922864100008"><ele>23.0</ele><time>2026-04-25T16:54:29.004Z</time></trkpt><trkpt lat="43.85156689735405" lon="10.508903392172218"><ele>22.0</ele><time>2026-04-25T16:54:30.004Z</time></trkpt><trkpt lat="43.851435536282644" lon="10.508883760238687"><ele>21.0</ele><time>2026-04-25T16:54:31.004Z</time></trkpt><trkpt lat="43.85130222231555" lon="10.508872126005011"><ele>20.0</ele><time>2026-04-25T16:54:32.004Z</time></trkpt><trkpt lat="43.85117088658857" lon="10.508865527013093"><ele>20.0</ele><time>2026-04-25T16:54:33.004Z</time></trkpt><trkpt lat="43.851037627485105" lon="10.508855923507086"><ele>20.0</ele><time>2026-04-25T16:54:34.004Z</time></trkpt><trkpt lat="43.85090020315481" lon="10.508843996252702"><ele>20.0</ele><time>2026-04-25T16:54:35.004Z</time></trkpt><trkpt lat="43.850766223369604" lon="10.508835284973538"><ele>20.0</ele><time>2026-04-25T16:54:36.004Z</time></trkpt><trkpt lat="43.850634148717866" lon="10.508830580753548"><ele>19.75</ele><time>2026-04-25T16:54:37.004Z</time></trkpt><trkpt lat="43.85051255687128" lon="10.508809179689925"><ele>19.5</ele><time>2026-04-25T16:54:38.004Z</time></trkpt><trkpt lat="43.85039095209403" lon="10.508793190037704"><ele>19.25</ele><time>2026-04-25T16:54:39.004Z</time></trkpt><trkpt lat="43.850272859042484" lon="10.508766120020136"><ele>19.0</ele><time>2026-04-25T16:54:40.004Z</time></trkpt><trkpt lat="43.8501682929096" lon="10.508732395819935"><ele>19.2</ele><time>2026-04-25T16:54:41.004Z</time></trkpt><trkpt lat="43.850096359292685" lon="10.508711428439923"><ele>19.4</ele><time>2026-04-25T16:54:42.004Z</time></trkpt><trkpt lat="43.85001215157198" lon="10.508675683385736"><ele>19.6</ele><time>2026-04-25T16:54:44.004Z</time></trkpt><trkpt lat="43.84993323691851" lon="10.508585807718505"><ele>19.8</ele><time>2026-04-25T16:54:46.004Z</time></trkpt><trkpt lat="43.84984518468963" lon="10.508470705576984"><ele>20.0</ele><time>2026-04-25T16:54:48.004Z</time></trkpt><trkpt lat="43.8497969839071" lon="10.508410023247302"><ele>20.0</ele><time>2026-04-25T16:54:49.004Z</time></trkpt><trkpt lat="43.84974362558612" lon="10.508331243836418"><ele>20.0</ele><time>2026-04-25T16:54:50.004Z</time></trkpt><trkpt lat="43.8496903266145" lon="10.508250099716308"><ele>20.0</ele><time>2026-04-25T16:54:51.004Z</time></trkpt><trkpt lat="43.849636877501716" lon="10.508161043702037"><ele>20.0</ele><time>2026-04-25T16:54:52.004Z</time></trkpt><trkpt lat="43.84957114428099" lon="10.508068854664252"><ele>20.0</ele><time>2026-04-25T16:54:53.004Z</time></trkpt><trkpt lat="43.84950773091835" lon="10.507966331767495"><ele>20.0</ele><time>2026-04-25T16:54:54.004Z</time></trkpt><trkpt lat="43.84943517432312" lon="10.507866618875811"><ele>20.333333333333336</ele><time>2026-04-25T16:54:55.004Z</time></trkpt><trkpt lat="43.84936264374144" lon="10.507771789279156"><ele>20.666666666666668</ele><time>2026-04-25T16:54:56.004Z</time></trkpt><trkpt lat="43.849292275558234" lon="10.507682629137758"><ele>21.0</ele><time>2026-04-25T16:54:57.004Z</time></trkpt><trkpt lat="43.849228202168064" lon="10.50759579401707"><ele>21.333333333333332</ele><time>2026-04-25T16:54:58.004Z</time></trkpt><trkpt lat="43.84916602323137" lon="10.507515305019949"><ele>21.666666666666664</ele><time>2026-04-25T16:54:59.004Z</time></trkpt><trkpt lat="43.84910843363372" lon="10.507443328167634"><ele>22.0</ele><time>2026-04-25T16:55:00.004Z</time></trkpt><trkpt lat="43.84905514826498" lon="10.507378420528092"><ele>22.200000000000003</ele><time>2026-04-25T16:55:01.004Z</time></trkpt><trkpt lat="43.8490109022838" lon="10.507315472394135"><ele>22.4</ele><time>2026-04-25T16:55:02.004Z</time></trkpt><trkpt lat="43.84893712767038" lon="10.507195776087627"><ele>22.6</ele><time>2026-04-25T16:55:04.004Z</time></trkpt><trkpt lat="43.848882310678285" lon="10.507061447613863"><ele>22.799999999999997</ele><time>2026-04-25T16:55:06.004Z</time></trkpt><trkpt lat="43.84885539814198" lon="10.506923620637197"><ele>23.0</ele><time>2026-04-25T16:55:08.004Z</time></trkpt><trkpt lat="43.848869981563325" lon="10.506741117345737"><ele>22.714285714285715</ele><time>2026-04-25T16:55:10.004Z</time></trkpt><trkpt lat="43.848861500883565" lon="10.506642710008133"><ele>22.428571428571427</ele><time>2026-04-25T16:55:11.004Z</time></trkpt><trkpt lat="43.848836488282124" lon="10.506556403760923"><ele>22.142857142857142</ele><time>2026-04-25T16:55:12.004Z</time></trkpt><trkpt lat="43.848806048780034" lon="10.506468038865558"><ele>21.857142857142858</ele><time>2026-04-25T16:55:13.004Z</time></trkpt><trkpt lat="43.84877727421195" lon="10.506381869686464"><ele>21.57142857142857</ele><time>2026-04-25T16:55:14.004Z</time></trkpt><trkpt lat="43.848758183317024" lon="10.506283278817953"><ele>21.285714285714285</ele><time>2026-04-25T16:55:15.004Z</time></trkpt><trkpt lat="43.84875464505672" lon="10.506179258199497"><ele>21.0</ele><time>2026-04-25T16:55:16.004Z</time></trkpt><trkpt lat="43.84876255003752" lon="10.506075954734758"><ele>21.0</ele><time>2026-04-25T16:55:17.004Z</time></trkpt><trkpt lat="43.84878523903825" lon="10.505966588575744"><ele>21.0</ele><time>2026-04-25T16:55:18.004Z</time></trkpt><trkpt lat="43.848820195596055" lon="10.505870606124244"><ele>21.0</ele><time>2026-04-25T16:55:19.004Z</time></trkpt><trkpt lat="43.84886418491917" lon="10.505782174820384"><ele>21.0</ele><time>2026-04-25T16:55:20.004Z</time></trkpt><trkpt lat="43.8489021085429" lon="10.505677796646522"><ele>21.0</ele><time>2026-04-25T16:55:21.003Z</time></trkpt><trkpt lat="43.84894434317635" lon="10.505569358614713"><ele>21.0</ele><time>2026-04-25T16:55:22.003Z</time></trkpt><trkpt lat="43.84898783566488" lon="10.505452375306676"><ele>21.4</ele><time>2026-04-25T16:55:23.003Z</time></trkpt><trkpt lat="43.84903079726186" lon="10.505322305952502"><ele>21.8</ele><time>2026-04-25T16:55:24.003Z</time></trkpt><trkpt lat="43.84907766355661" lon="10.505188947500391"><ele>22.2</ele><time>2026-04-25T16:55:25.003Z</time></trkpt><trkpt lat="43.84913253789583" lon="10.505054905892564"><ele>22.599999999999998</ele><time>2026-04-25T16:55:26.003Z</time></trkpt><trkpt lat="43.84919063888901" lon="10.504920196086013"><ele>23.0</ele><time>2026-04-25T16:55:27.003Z</time></trkpt><trkpt lat="43.84924472117906" lon="10.504782576713163"><ele>22.5</ele><time>2026-04-25T16:55:28.003Z</time></trkpt><trkpt lat="43.84929845243169" lon="10.504637670170709"><ele>22.0</ele><time>2026-04-25T16:55:29.003Z</time></trkpt><trkpt lat="43.84935043177022" lon="10.50448967434503"><ele>21.5</ele><time>2026-04-25T16:55:30.003Z</time></trkpt><trkpt lat="43.84942455075359" lon="10.504338804062753"><ele>21.0</ele><time>2026-04-25T16:55:31.003Z</time></trkpt><trkpt lat="43.84949206410849" lon="10.504190621993741"><ele>20.75</ele><time>2026-04-25T16:55:32.003Z</time></trkpt><trkpt lat="43.849554677362995" lon="10.504038721915123"><ele>20.5</ele><time>2026-04-25T16:55:33.003Z</time></trkpt><trkpt lat="43.84961558565041" lon="10.503887023656763"><ele>20.25</ele><time>2026-04-25T16:55:34.003Z</time></trkpt><trkpt lat="43.84969122604441" lon="10.503725592625658"><ele>20.0</ele><time>2026-04-25T16:55:35.003Z</time></trkpt><trkpt lat="43.84976306296937" lon="10.503560862099807"><ele>19.75</ele><time>2026-04-25T16:55:36.003Z</time></trkpt><trkpt lat="43.8498320018394" lon="10.503402315188062"><ele>19.5</ele><time>2026-04-25T16:55:37.003Z</time></trkpt><trkpt lat="43.84991117557834" lon="10.50324225188724"><ele>19.25</ele><time>2026-04-25T16:55:38.003Z</time></trkpt><trkpt lat="43.849992530212624" lon="10.503086408696245"><ele>19.0</ele><time>2026-04-25T16:55:39.003Z</time></trkpt><trkpt lat="43.850062188932604" lon="10.502933002826934"><ele>18.5</ele><time>2026-04-25T16:55:40.003Z</time></trkpt><trkpt lat="43.85013062963412" lon="10.502792916668291"><ele>18.0</ele><time>2026-04-25T16:55:41.003Z</time></trkpt><trkpt lat="43.850189883283996" lon="10.502661328614488"><ele>17.5</ele><time>2026-04-25T16:55:42.003Z</time></trkpt><trkpt lat="43.850241521573345" lon="10.502526600090341"><ele>17.0</ele><time>2026-04-25T16:55:43.005Z</time></trkpt><trkpt lat="43.85028223544907" lon="10.502391182122139"><ele>17.0</ele><time>2026-04-25T16:55:44.005Z</time></trkpt><trkpt lat="43.850315054019376" lon="10.502254893254925"><ele>17.0</ele><time>2026-04-25T16:55:45.005Z</time></trkpt><trkpt lat="43.8503209398599" lon="10.502125382433416"><ele>17.0</ele><time>2026-04-25T16:55:46.005Z</time></trkpt><trkpt lat="43.85029134920356" lon="10.502004888792479"><ele>17.0</ele><time>2026-04-25T16:55:47.005Z</time></trkpt><trkpt lat="43.85024751244708" lon="10.5018918221293"><ele>17.0</ele><time>2026-04-25T16:55:48.005Z</time></trkpt><trkpt lat="43.85021240148141" lon="10.501791441103922"><ele>16.999999999999996</ele><time>2026-04-25T16:55:49.005Z</time></trkpt><trkpt lat="43.850187949991785" lon="10.501706499094539"><ele>17.0</ele><time>2026-04-25T16:55:50.005Z</time></trkpt><trkpt lat="43.850150929566865" lon="10.50158751496691"><ele>17.0</ele><time>2026-04-25T16:55:52.005Z</time></trkpt><trkpt lat="43.85012258022166" lon="10.501495425554936"><ele>17.0</ele><time>2026-04-25T16:55:55.005Z</time></trkpt><trkpt lat="43.85009836062495" lon="10.50140848171092"><ele>17.0</ele><time>2026-04-25T16:55:58.005Z</time></trkpt><trkpt lat="43.850075511441375" lon="10.501310538767012"><ele>16.999999999999996</ele><time>2026-04-25T16:56:16.005Z</time></trkpt><trkpt lat="43.85005218162671" lon="10.501225887491318"><ele>17.0</ele><time>2026-04-25T16:56:17.004Z</time></trkpt><trkpt lat="43.85001458495479" lon="10.501125259998824"><ele>17.0</ele><time>2026-04-25T16:56:18.004Z</time></trkpt><trkpt lat="43.849972119752486" lon="10.50099936625464"><ele>17.0</ele><time>2026-04-25T16:56:19.004Z</time></trkpt><trkpt lat="43.84993057373845" lon="10.500884591282645"><ele>17.0</ele><time>2026-04-25T16:56:20.004Z</time></trkpt><trkpt lat="43.84988706470224" lon="10.50075662487338"><ele>17.0</ele><time>2026-04-25T16:56:21.004Z</time></trkpt><trkpt lat="43.84983620352712" lon="10.500613173924723"><ele>17.0</ele><time>2026-04-25T16:56:22.004Z</time></trkpt><trkpt lat="43.84977886970081" lon="10.500469581507803"><ele>16.5</ele><time>2026-04-25T16:56:23.004Z</time></trkpt><trkpt lat="43.849727561900046" lon="10.500319074617625"><ele>16.0</ele><time>2026-04-25T16:56:24.004Z</time></trkpt><trkpt lat="43.849677057920566" lon="10.500160059770124"><ele>15.5</ele><time>2026-04-25T16:56:25.004Z</time></trkpt><trkpt lat="43.849626159559236" lon="10.500019832206295"><ele>15.0</ele><time>2026-04-25T16:56:26.004Z</time></trkpt><trkpt lat="43.84957515468891" lon="10.499876331205302"><ele>15.0</ele><time>2026-04-25T16:56:27.004Z</time></trkpt><trkpt lat="43.84951530551656" lon="10.499729576809367"><ele>15.0</ele><time>2026-04-25T16:56:28.004Z</time></trkpt><trkpt lat="43.849458942586736" lon="10.499575197149916"><ele>15.0</ele><time>2026-04-25T16:56:29.004Z</time></trkpt><trkpt lat="43.849405340972744" lon="10.499412157472706"><ele>15.0</ele><time>2026-04-25T16:56:30.004Z</time></trkpt><trkpt lat="43.84935245404961" lon="10.499254831345402"><ele>15.25</ele><time>2026-04-25T16:56:31.004Z</time></trkpt><trkpt lat="43.84930416368206" lon="10.499098117370517"><ele>15.5</ele><time>2026-04-25T16:56:32.004Z</time></trkpt><trkpt lat="43.849265600423784" lon="10.498940579753699"><ele>15.75</ele><time>2026-04-25T16:56:33.004Z</time></trkpt><trkpt lat="43.849229810143086" lon="10.498774150683392"><ele>16.0</ele><time>2026-04-25T16:56:34.004Z</time></trkpt><trkpt lat="43.84919947599896" lon="10.49862024880241"><ele>16.6</ele><time>2026-04-25T16:56:35.004Z</time></trkpt><trkpt lat="43.84917741073656" lon="10.498476275182794"><ele>17.200000000000003</ele><time>2026-04-25T16:56:36.004Z</time></trkpt><trkpt lat="43.84915699546682" lon="10.49833444976843"><ele>17.799999999999997</ele><time>2026-04-25T16:56:37.004Z</time></trkpt><trkpt lat="43.849143058895784" lon="10.498191722015225"><ele>18.4</ele><time>2026-04-25T16:56:38.004Z</time></trkpt><trkpt lat="43.84912970850453" lon="10.498055152518695"><ele>19.0</ele><time>2026-04-25T16:56:39.004Z</time></trkpt><trkpt lat="43.849112350949575" lon="10.497929644034473"><ele>19.0</ele><time>2026-04-25T16:56:40.004Z</time></trkpt><trkpt lat="43.84909407387166" lon="10.49780998428134"><ele>19.0</ele><time>2026-04-25T16:56:41.004Z</time></trkpt><trkpt lat="43.84907532077855" lon="10.497705276567476"><ele>19.0</ele><time>2026-04-25T16:56:42.004Z</time></trkpt><trkpt lat="43.849059034030304" lon="10.497605931607168"><ele>19.0</ele><time>2026-04-25T16:56:43.004Z</time></trkpt><trkpt lat="43.84904524180511" lon="10.49751472350646"><ele>19.0</ele><time>2026-04-25T16:56:44.004Z</time></trkpt><trkpt lat="43.849029738121885" lon="10.497415549615058"><ele>19.0</ele><time>2026-04-25T16:56:45.004Z</time></trkpt><trkpt lat="43.849012315371496" lon="10.497303798739935"><ele>19.0</ele><time>2026-04-25T16:56:46.004Z</time></trkpt><trkpt lat="43.84898912285538" lon="10.497190862894481"><ele>19.0</ele><time>2026-04-25T16:56:47.004Z</time></trkpt><trkpt lat="43.848976895859046" lon="10.4970740838542"><ele>19.0</ele><time>2026-04-25T16:56:48.004Z</time></trkpt><trkpt lat="43.84896103923803" lon="10.496957961291145"><ele>19.0</ele><time>2026-04-25T16:56:49.004Z</time></trkpt><trkpt lat="43.84894363882815" lon="10.496835316663818"><ele>19.0</ele><time>2026-04-25T16:56:50.004Z</time></trkpt><trkpt lat="43.848921201126814" lon="10.496709046740817"><ele>19.0</ele><time>2026-04-25T16:56:51.004Z</time></trkpt><trkpt lat="43.8489045128362" lon="10.49658155597441"><ele>19.0</ele><time>2026-04-25T16:56:52.004Z</time></trkpt><trkpt lat="43.84888670307675" lon="10.496461239448585"><ele>19.0</ele><time>2026-04-25T16:56:53.004Z</time></trkpt><trkpt lat="43.848866219914235" lon="10.496346301048666"><ele>19.0</ele><time>2026-04-25T16:56:54.004Z</time></trkpt><trkpt lat="43.848851603296886" lon="10.496234292230536"><ele>19.0</ele><time>2026-04-25T16:56:55.004Z</time></trkpt><trkpt lat="43.848829537186134" lon="10.496119305939413"><ele>19.0</ele><time>2026-04-25T16:56:56.004Z</time></trkpt><trkpt lat="43.84880467776054" lon="10.496011588567823"><ele>19.0</ele><time>2026-04-25T16:56:57.004Z</time></trkpt><trkpt lat="43.84877739425066" lon="10.495900148064402"><ele>19.0</ele><time>2026-04-25T16:56:58.004Z</time></trkpt><trkpt lat="43.848738799276674" lon="10.495786066619676"><ele>19.0</ele><time>2026-04-25T16:56:59.004Z</time></trkpt><trkpt lat="43.848690558818696" lon="10.495673616822677"><ele>19.0</ele><time>2026-04-25T16:57:00.004Z</time></trkpt><trkpt lat="43.84863407585532" lon="10.49556683137313"><ele>19.0</ele><time>2026-04-25T16:57:01.004Z</time></trkpt><trkpt lat="43.848570905660736" lon="10.495467305572912"><ele>19.0</ele><time>2026-04-25T16:57:02.004Z</time></trkpt><trkpt lat="43.84850120544685" lon="10.495376664874371"><ele>18.8</ele><time>2026-04-25T16:57:03.004Z</time></trkpt><trkpt lat="43.8484248865541" lon="10.495295322920045"><ele>18.599999999999998</ele><time>2026-04-25T16:57:04.004Z</time></trkpt><trkpt lat="43.8483386923735" lon="10.495211521241337"><ele>18.4</ele><time>2026-04-25T16:57:05.004Z</time></trkpt><trkpt lat="43.84824288332048" lon="10.495137164204607"><ele>18.2</ele><time>2026-04-25T16:57:06.004Z</time></trkpt><trkpt lat="43.84814066162045" lon="10.495076080424425"><ele>18.0</ele><time>2026-04-25T16:57:07.004Z</time></trkpt><trkpt lat="43.848032159883886" lon="10.495018500274046"><ele>18.0</ele><time>2026-04-25T16:57:08.004Z</time></trkpt><trkpt lat="43.84792779145269" lon="10.494974963242779"><ele>18.0</ele><time>2026-04-25T16:57:09.004Z</time></trkpt><trkpt lat="43.84781307969741" lon="10.494934470222244"><ele>18.0</ele><time>2026-04-25T16:57:10.004Z</time></trkpt><trkpt lat="43.8477069219433" lon="10.494894759929503"><ele>18.0</ele><time>2026-04-25T16:57:11.004Z</time></trkpt><trkpt lat="43.847596682041626" lon="10.494860760734575"><ele>17.8</ele><time>2026-04-25T16:57:12.004Z</time></trkpt><trkpt lat="43.84749470400179" lon="10.494813801888764"><ele>17.6</ele><time>2026-04-25T16:57:13.004Z</time></trkpt><trkpt lat="43.847395551309674" lon="10.494765426171059"><ele>17.4</ele><time>2026-04-25T16:57:14.004Z</time></trkpt><trkpt lat="43.84729122730612" lon="10.494732321521559"><ele>17.2</ele><time>2026-04-25T16:57:15.004Z</time></trkpt><trkpt lat="43.8471801850958" lon="10.494705837587595"><ele>17.0</ele><time>2026-04-25T16:57:16.004Z</time></trkpt><trkpt lat="43.84707474387947" lon="10.494671452186285"><ele>17.0</ele><time>2026-04-25T16:57:17.004Z</time></trkpt><trkpt lat="43.84696770447419" lon="10.494632507006205"><ele>17.0</ele><time>2026-04-25T16:57:18.004Z</time></trkpt><trkpt lat="43.846860669357724" lon="10.49458734847397"><ele>17.0</ele><time>2026-04-25T16:57:19.004Z</time></trkpt><trkpt lat="43.84675653657696" lon="10.494540427671"><ele>17.0</ele><time>2026-04-25T16:57:20.004Z</time></trkpt><trkpt lat="43.846657908070796" lon="10.49449795271904"><ele>17.0</ele><time>2026-04-25T16:57:21.004Z</time></trkpt><trkpt lat="43.846559199173775" lon="10.494456704244145"><ele>16.25</ele><time>2026-04-25T16:57:22.004Z</time></trkpt><trkpt lat="43.846455181479435" lon="10.49441851815888"><ele>15.5</ele><time>2026-04-25T16:57:23.004Z</time></trkpt><trkpt lat="43.846348010785164" lon="10.494379902044086"><ele>14.75</ele><time>2026-04-25T16:57:24.004Z</time></trkpt><trkpt lat="43.84623588527775" lon="10.494337707952743"><ele>14.0</ele><time>2026-04-25T16:57:25.004Z</time></trkpt><trkpt lat="43.84612317744071" lon="10.494298707175421"><ele>14.0</ele><time>2026-04-25T16:57:26.004Z</time></trkpt><trkpt lat="43.84600915241953" lon="10.494262075618503"><ele>13.999999999999998</ele><time>2026-04-25T16:57:27.004Z</time></trkpt><trkpt lat="43.84589442316383" lon="10.494218486435395"><ele>13.999999999999998</ele><time>2026-04-25T16:57:28.004Z</time></trkpt><trkpt lat="43.845791263049044" lon="10.49417141326638"><ele>14.0</ele><time>2026-04-25T16:57:29.004Z</time></trkpt><trkpt lat="43.84570148355954" lon="10.494136332327828"><ele>14.0</ele><time>2026-04-25T16:57:30.004Z</time></trkpt><trkpt lat="43.84562203361502" lon="10.494108294592097"><ele>14.333333333333334</ele><time>2026-04-25T16:57:31.004Z</time></trkpt><trkpt lat="43.84555446211857" lon="10.49409008281042"><ele>14.666666666666668</ele><time>2026-04-25T16:57:32.004Z</time></trkpt><trkpt lat="43.84543462364695" lon="10.494138080952073"><ele>15.0</ele><time>2026-04-25T16:57:34.004Z</time></trkpt><trkpt lat="43.845381502914975" lon="10.49419981701"><ele>15.333333333333332</ele><time>2026-04-25T16:57:35.004Z</time></trkpt><trkpt lat="43.845338255167206" lon="10.49427018066683"><ele>15.666666666666666</ele><time>2026-04-25T16:57:36.004Z</time></trkpt><trkpt lat="43.845294370066945" lon="10.494343710748327"><ele>16.0</ele><time>2026-04-25T16:57:37.004Z</time></trkpt><trkpt lat="43.845259049663674" lon="10.49442102715187"><ele>15.999999999999998</ele><time>2026-04-25T16:57:38.003Z</time></trkpt><trkpt lat="43.84519882401859" lon="10.494550229210073"><ele>16.0</ele><time>2026-04-25T16:57:40.003Z</time></trkpt><trkpt lat="43.84516170138673" lon="10.49465013230563"><ele>16.0</ele><time>2026-04-25T16:57:42.003Z</time></trkpt><trkpt lat="43.84511755820905" lon="10.494723086537501"><ele>16.0</ele><time>2026-04-25T16:57:43.003Z</time></trkpt><trkpt lat="43.84507615183402" lon="10.494803663308499"><ele>15.999999999999998</ele><time>2026-04-25T16:57:44.003Z</time></trkpt><trkpt lat="43.845028034374124" lon="10.494896504671546"><ele>16.0</ele><time>2026-04-25T16:57:45.003Z</time></trkpt><trkpt lat="43.84497411065728" lon="10.494990814292999"><ele>16.166666666666664</ele><time>2026-04-25T16:57:46.003Z</time></trkpt><trkpt lat="43.8449530964072" lon="10.495078288859407"><ele>16.333333333333332</ele><time>2026-04-25T16:57:47.003Z</time></trkpt><trkpt lat="43.84487169935531" lon="10.495114274498107"><ele>16.5</ele><time>2026-04-25T16:57:48.003Z</time></trkpt><trkpt lat="43.84474803571971" lon="10.495065436510956"><ele>16.666666666666668</ele><time>2026-04-25T16:57:50.005Z</time></trkpt><trkpt lat="43.8446892441096" lon="10.494994443216472"><ele>16.833333333333336</ele><time>2026-04-25T16:57:51.005Z</time></trkpt><trkpt lat="43.84462859022501" lon="10.494929157286126"><ele>17.0</ele><time>2026-04-25T16:57:52.005Z</time></trkpt><trkpt lat="43.844564027176176" lon="10.494856880999246"><ele>16.999999999999996</ele><time>2026-04-25T16:57:53.005Z</time></trkpt><trkpt lat="43.84449565993013" lon="10.494787210077247"><ele>17.0</ele><time>2026-04-25T16:57:54.005Z</time></trkpt><trkpt lat="43.84442873262014" lon="10.494726242155284"><ele>17.0</ele><time>2026-04-25T16:57:55.005Z</time></trkpt><trkpt lat="43.84436890913292" lon="10.494675473581255"><ele>17.0</ele><time>2026-04-25T16:57:56.005Z</time></trkpt><trkpt lat="43.844312290996676" lon="10.494619102946737"><ele>17.0</ele><time>2026-04-25T16:57:57.005Z</time></trkpt><trkpt lat="43.84425966668316" lon="10.494553902661243"><ele>16.999999999999996</ele><time>2026-04-25T16:57:58.005Z</time></trkpt><trkpt lat="43.844204182812824" lon="10.494490646413501"><ele>17.0</ele><time>2026-04-25T16:57:59.005Z</time></trkpt><trkpt lat="43.844153501617946" lon="10.494434986061528"><ele>17.0</ele><time>2026-04-25T16:58:00.005Z</time></trkpt><trkpt lat="43.84409521304867" lon="10.494381078491815"><ele>17.0</ele><time>2026-04-25T16:58:01.005Z</time></trkpt><trkpt lat="43.84403464815393" lon="10.494317883814945"><ele>17.0</ele><time>2026-04-25T16:58:02.005Z</time></trkpt><trkpt lat="43.8439752497204" lon="10.494252984588238"><ele>17.0</ele><time>2026-04-25T16:58:03.005Z</time></trkpt><trkpt lat="43.8439169012667" lon="10.494186903414407"><ele>17.0</ele><time>2026-04-25T16:58:04.005Z</time></trkpt><trkpt lat="43.843842528011876" lon="10.494116901998336"><ele>17.0</ele><time>2026-04-25T16:58:05.005Z</time></trkpt><trkpt lat="43.8437630214505" lon="10.494041963953606"><ele>17.0</ele><time>2026-04-25T16:58:06.004Z</time></trkpt><trkpt lat="43.84367777736573" lon="10.493947271507068"><ele>17.0</ele><time>2026-04-25T16:58:07.004Z</time></trkpt><trkpt lat="43.84358670152772" lon="10.493869145715953"><ele>17.0</ele><time>2026-04-25T16:58:08.004Z</time></trkpt><trkpt lat="43.84349574126475" lon="10.493805244157306"><ele>17.0</ele><time>2026-04-25T16:58:09.004Z</time></trkpt><trkpt lat="43.84340924889368" lon="10.4937634543388"><ele>17.0</ele><time>2026-04-25T16:58:10.004Z</time></trkpt><trkpt lat="43.843327300071586" lon="10.493742564118595"><ele>16.6</ele><time>2026-04-25T16:58:11.004Z</time></trkpt><trkpt lat="43.843243757176424" lon="10.493739682201289"><ele>16.2</ele><time>2026-04-25T16:58:12.004Z</time></trkpt><trkpt lat="43.84315420596851" lon="10.493773739023364"><ele>15.8</ele><time>2026-04-25T16:58:13.004Z</time></trkpt><trkpt lat="43.84304875667694" lon="10.493808245431818"><ele>15.4</ele><time>2026-04-25T16:58:14.004Z</time></trkpt><trkpt lat="43.84294428583887" lon="10.493826403114491"><ele>15.0</ele><time>2026-04-25T16:58:15.004Z</time></trkpt><trkpt lat="43.842833167860235" lon="10.493882291470833"><ele>15.0</ele><time>2026-04-25T16:58:16.004Z</time></trkpt><trkpt lat="43.84272374948483" lon="10.493933936865787"><ele>15.0</ele><time>2026-04-25T16:58:17.004Z</time></trkpt><trkpt lat="43.842605670456656" lon="10.493973866134413"><ele>15.0</ele><time>2026-04-25T16:58:18.004Z</time></trkpt><trkpt lat="43.842504205532656" lon="10.494032032123"><ele>15.0</ele><time>2026-04-25T16:58:19.004Z</time></trkpt><trkpt lat="43.84241888196286" lon="10.494097973014405"><ele>15.0</ele><time>2026-04-25T16:58:20.004Z</time></trkpt><trkpt lat="43.8423386480298" lon="10.494168111417078"><ele>15.166666666666666</ele><time>2026-04-25T16:58:21.004Z</time></trkpt><trkpt lat="43.84226602241352" lon="10.494228741880836"><ele>15.333333333333332</ele><time>2026-04-25T16:58:22.004Z</time></trkpt><trkpt lat="43.84219975630809" lon="10.494269387150355"><ele>15.5</ele><time>2026-04-25T16:58:23.004Z</time></trkpt><trkpt lat="43.84208816311359" lon="10.49432392873464"><ele>15.666666666666666</ele><time>2026-04-25T16:58:25.004Z</time></trkpt><trkpt lat="43.84202377454923" lon="10.494339851545009"><ele>15.833333333333332</ele><time>2026-04-25T16:58:26.004Z</time></trkpt><trkpt lat="43.84195445914662" lon="10.494362201696683"><ele>16.0</ele><time>2026-04-25T16:58:27.004Z</time></trkpt><trkpt lat="43.841885980580244" lon="10.494410169717177"><ele>16.0</ele><time>2026-04-25T16:58:28.004Z</time></trkpt><trkpt lat="43.84182063901074" lon="10.494458899095193"><ele>16.0</ele><time>2026-04-25T16:58:29.004Z</time></trkpt><trkpt lat="43.841763673571215" lon="10.494533220767368"><ele>16.0</ele><time>2026-04-25T16:58:31.004Z</time></trkpt><trkpt lat="43.84161986276782" lon="10.494567006405301"><ele>16.0</ele><time>2026-04-25T16:58:36.004Z</time></trkpt><trkpt lat="43.84154743085154" lon="10.49457952149032"><ele>16.0</ele><time>2026-04-25T16:58:37.004Z</time></trkpt><trkpt lat="43.84145909027936" lon="10.494599165501132"><ele>16.2</ele><time>2026-04-25T16:58:38.004Z</time></trkpt><trkpt lat="43.84137719670272" lon="10.494634386977031"><ele>16.400000000000002</ele><time>2026-04-25T16:58:39.004Z</time></trkpt><trkpt lat="43.84128824261763" lon="10.49468557270206"><ele>16.6</ele><time>2026-04-25T16:58:40.004Z</time></trkpt><trkpt lat="43.84119250462529" lon="10.494738873945671"><ele>16.8</ele><time>2026-04-25T16:58:41.004Z</time></trkpt><trkpt lat="43.84108882858581" lon="10.494791936101299"><ele>17.0</ele><time>2026-04-25T16:58:42.004Z</time></trkpt><trkpt lat="43.84097716354598" lon="10.494847923144363"><ele>16.75</ele><time>2026-04-25T16:58:43.004Z</time></trkpt><trkpt lat="43.840863185713545" lon="10.494900603022456"><ele>16.5</ele><time>2026-04-25T16:58:44.004Z</time></trkpt><trkpt lat="43.840756033056955" lon="10.494948794204893"><ele>16.25</ele><time>2026-04-25T16:58:45.004Z</time></trkpt><trkpt lat="43.84064420646316" lon="10.495000856345957"><ele>16.0</ele><time>2026-04-25T16:58:46.004Z</time></trkpt><trkpt lat="43.840537821898856" lon="10.49505592291854"><ele>16.0</ele><time>2026-04-25T16:58:47.004Z</time></trkpt><trkpt lat="43.84043194485547" lon="10.49511442262569"><ele>16.0</ele><time>2026-04-25T16:58:48.004Z</time></trkpt><trkpt lat="43.84033503462659" lon="10.49516169458388"><ele>16.0</ele><time>2026-04-25T16:58:49.004Z</time></trkpt><trkpt lat="43.84024023072233" lon="10.495207780116239"><ele>16.0</ele><time>2026-04-25T16:58:50.004Z</time></trkpt><trkpt lat="43.840159844477235" lon="10.495238359863079"><ele>16.0</ele><time>2026-04-25T16:58:51.004Z</time></trkpt><trkpt lat="43.840096700602395" lon="10.495246135410731"><ele>16.2</ele><time>2026-04-25T16:58:52.004Z</time></trkpt><trkpt lat="43.840029973825665" lon="10.495231722271285"><ele>16.400000000000002</ele><time>2026-04-25T16:58:55.004Z</time></trkpt><trkpt lat="43.83992729720975" lon="10.495150035088946"><ele>16.6</ele><time>2026-04-25T16:59:10.004Z</time></trkpt><trkpt lat="43.839863669249354" lon="10.495111297323916"><ele>16.8</ele><time>2026-04-25T16:59:11.004Z</time></trkpt><trkpt lat="43.8397088696236" lon="10.495151674689174"><ele>17.0</ele><time>2026-04-25T16:59:13.004Z</time></trkpt><trkpt lat="43.839646211092585" lon="10.495209665949208"><ele>17.0</ele><time>2026-04-25T16:59:14.004Z</time></trkpt><trkpt lat="43.83956905864289" lon="10.49525622699059"><ele>17.0</ele><time>2026-04-25T16:59:15.004Z</time></trkpt><trkpt lat="43.839481764145795" lon="10.49526759030774"><ele>17.0</ele><time>2026-04-25T16:59:16.004Z</time></trkpt><trkpt lat="43.83938505373283" lon="10.495256926107894"><ele>17.0</ele><time>2026-04-25T16:59:17.004Z</time></trkpt><trkpt lat="43.839282802267206" lon="10.495229177027989"><ele>17.0</ele><time>2026-04-25T16:59:18.004Z</time></trkpt><trkpt lat="43.83916753598916" lon="10.495208912397874"><ele>16.75</ele><time>2026-04-25T16:59:19.004Z</time></trkpt><trkpt lat="43.83904279793579" lon="10.495190907948892"><ele>16.5</ele><time>2026-04-25T16:59:20.004Z</time></trkpt><trkpt lat="43.838909623080255" lon="10.49517217682275"><ele>16.25</ele><time>2026-04-25T16:59:21.004Z</time></trkpt><trkpt lat="43.83878123666969" lon="10.495147425694803"><ele>16.0</ele><time>2026-04-25T16:59:22.004Z</time></trkpt><trkpt lat="43.83866294515621" lon="10.495132656078495"><ele>16.0</ele><time>2026-04-25T16:59:23.004Z</time></trkpt><trkpt lat="43.83854018055831" lon="10.495120769370555"><ele>16.0</ele><time>2026-04-25T16:59:24.004Z</time></trkpt><trkpt lat="43.83841729218872" lon="10.495106626404995"><ele>16.0</ele><time>2026-04-25T16:59:25.004Z</time></trkpt><trkpt lat="43.838294184778476" lon="10.495087570046435"><ele>16.0</ele><time>2026-04-25T16:59:26.004Z</time></trkpt><trkpt lat="43.838170144594315" lon="10.495070719757477"><ele>15.75</ele><time>2026-04-25T16:59:27.003Z</time></trkpt><trkpt lat="43.83804462369663" lon="10.495053314555431"><ele>15.5</ele><time>2026-04-25T16:59:28.003Z</time></trkpt><trkpt lat="43.83791955577402" lon="10.495032147593099"><ele>15.25</ele><time>2026-04-25T16:59:29.003Z</time></trkpt><trkpt lat="43.83779521023593" lon="10.495023085169883"><ele>15.0</ele><time>2026-04-25T16:59:30.003Z</time></trkpt><trkpt lat="43.83766966307293" lon="10.495013134286317"><ele>15.25</ele><time>2026-04-25T16:59:31.003Z</time></trkpt><trkpt lat="43.83754118894164" lon="10.494996391913912"><ele>15.5</ele><time>2026-04-25T16:59:32.003Z</time></trkpt><trkpt lat="43.83740756773618" lon="10.49497712273371"><ele>15.75</ele><time>2026-04-25T16:59:33.003Z</time></trkpt><trkpt lat="43.83727206966838" lon="10.494958886983534"><ele>16.0</ele><time>2026-04-25T16:59:34.003Z</time></trkpt><trkpt lat="43.83713409417197" lon="10.494939769914772"><ele>16.0</ele><time>2026-04-25T16:59:35.003Z</time></trkpt><trkpt lat="43.836992759518964" lon="10.494917838000465"><ele>16.0</ele><time>2026-04-25T16:59:36.003Z</time></trkpt><trkpt lat="43.83685961549875" lon="10.494898779962751"><ele>16.0</ele><time>2026-04-25T16:59:37.003Z</time></trkpt><trkpt lat="43.836726064916434" lon="10.494877287397198"><ele>16.0</ele><time>2026-04-25T16:59:38.003Z</time></trkpt><trkpt lat="43.83659847004471" lon="10.494858108329293"><ele>16.0</ele><time>2026-04-25T16:59:39.003Z</time></trkpt><trkpt lat="43.83647987710508" lon="10.494840514662128"><ele>16.0</ele><time>2026-04-25T16:59:40.003Z</time></trkpt><trkpt lat="43.83636832195356" lon="10.494827727363157"><ele>16.0</ele><time>2026-04-25T16:59:41.003Z</time></trkpt><trkpt lat="43.83626020529744" lon="10.494816131779071"><ele>16.0</ele><time>2026-04-25T16:59:42.003Z</time></trkpt><trkpt lat="43.83615710167377" lon="10.494802912253162"><ele>16.0</ele><time>2026-04-25T16:59:43.003Z</time></trkpt><trkpt lat="43.8360613671073" lon="10.494791471140386"><ele>15.999999999999998</ele><time>2026-04-25T16:59:44.003Z</time></trkpt><trkpt lat="43.83597979757138" lon="10.49477927612975"><ele>16.0</ele><time>2026-04-25T16:59:45.003Z</time></trkpt><trkpt lat="43.83589893009068" lon="10.494768292007867"><ele>16.0</ele><time>2026-04-25T16:59:46.003Z</time></trkpt><trkpt lat="43.835816247247884" lon="10.494758386550025"><ele>16.0</ele><time>2026-04-25T16:59:47.003Z</time></trkpt><trkpt lat="43.835725403100184" lon="10.494743119319"><ele>15.999999999999998</ele><time>2026-04-25T16:59:48.003Z</time></trkpt><trkpt lat="43.83562514380408" lon="10.49472969993544"><ele>16.0</ele><time>2026-04-25T16:59:49.003Z</time></trkpt><trkpt lat="43.83552360912002" lon="10.494715567175472"><ele>15.600000000000001</ele><time>2026-04-25T16:59:50.003Z</time></trkpt><trkpt lat="43.83541877394908" lon="10.494702108827243"><ele>15.200000000000001</ele><time>2026-04-25T16:59:51.003Z</time></trkpt><trkpt lat="43.835311668155576" lon="10.494684131693145"><ele>14.799999999999999</ele><time>2026-04-25T16:59:52.003Z</time></trkpt><trkpt lat="43.83520285636886" lon="10.49466049421456"><ele>14.399999999999999</ele><time>2026-04-25T16:59:53.003Z</time></trkpt><trkpt lat="43.83508840661854" lon="10.494633879380869"><ele>14.0</ele><time>2026-04-25T16:59:54.003Z</time></trkpt><trkpt lat="43.83497354255233" lon="10.494605301828587"><ele>14.25</ele><time>2026-04-25T16:59:55.006Z</time></trkpt><trkpt lat="43.83485803196511" lon="10.494584039580216"><ele>14.5</ele><time>2026-04-25T16:59:56.005Z</time></trkpt><trkpt lat="43.83473958220392" lon="10.494567544600713"><ele>14.75</ele><time>2026-04-25T16:59:57.005Z</time></trkpt><trkpt lat="43.83462233227836" lon="10.494551476970067"><ele>15.0</ele><time>2026-04-25T16:59:58.006Z</time></trkpt><trkpt lat="43.83451175588191" lon="10.49453278574138"><ele>15.0</ele><time>2026-04-25T16:59:59.006Z</time></trkpt><trkpt lat="43.83439908677073" lon="10.494513311918436"><ele>15.0</ele><time>2026-04-25T17:00:00.006Z</time></trkpt><trkpt lat="43.83428785311296" lon="10.49449781220834"><ele>15.0</ele><time>2026-04-25T17:00:01.005Z</time></trkpt><trkpt lat="43.83417475132747" lon="10.494483942330834"><ele>15.0</ele><time>2026-04-25T17:00:02.005Z</time></trkpt><trkpt lat="43.83406251205996" lon="10.49446034471192"><ele>14.6</ele><time>2026-04-25T17:00:03.005Z</time></trkpt><trkpt lat="43.8339554152118" lon="10.494440760074587"><ele>14.2</ele><time>2026-04-25T17:00:04.005Z</time></trkpt><trkpt lat="43.83385041672027" lon="10.494426666925309"><ele>13.8</ele><time>2026-04-25T17:00:05.005Z</time></trkpt><trkpt lat="43.833749532538825" lon="10.494408268488744"><ele>13.4</ele><time>2026-04-25T17:00:06.005Z</time></trkpt><trkpt lat="43.833655014744565" lon="10.494391696964463"><ele>13.0</ele><time>2026-04-25T17:00:07.006Z</time></trkpt><trkpt lat="43.83356776651366" lon="10.494375778718188"><ele>12.999999999999998</ele><time>2026-04-25T17:00:08.006Z</time></trkpt><trkpt lat="43.83348103158992" lon="10.494357212581797"><ele>13.0</ele><time>2026-04-25T17:00:09.006Z</time></trkpt><trkpt lat="43.83339566463748" lon="10.494349818472992"><ele>13.0</ele><time>2026-04-25T17:00:10.006Z</time></trkpt><trkpt lat="43.83331385582369" lon="10.494335475683458"><ele>13.0</ele><time>2026-04-25T17:00:11.006Z</time></trkpt><trkpt lat="43.83325001517214" lon="10.49432552157754"><ele>12.999999999999998</ele><time>2026-04-25T17:00:12.006Z</time></trkpt><trkpt lat="43.83317975042658" lon="10.494316621370851"><ele>13.0</ele><time>2026-04-25T17:00:14.006Z</time></trkpt><trkpt lat="43.833102328634986" lon="10.494298770514543"><ele>13.0</ele><time>2026-04-25T17:00:20.006Z</time></trkpt><trkpt lat="43.83296508118074" lon="10.494283247762967"><ele>13.0</ele><time>2026-04-25T17:00:22.006Z</time></trkpt><trkpt lat="43.83287302000189" lon="10.494271589258986"><ele>13.0</ele><time>2026-04-25T17:00:23.006Z</time></trkpt><trkpt lat="43.832778746338704" lon="10.494307915252989"><ele>13.0</ele><time>2026-04-25T17:00:24.006Z</time></trkpt><trkpt lat="43.83269377958336" lon="10.494284115310391"><ele>13.0</ele><time>2026-04-25T17:00:25.006Z</time></trkpt><trkpt lat="43.832617681885885" lon="10.494233481105258"><ele>12.999999999999998</ele><time>2026-04-25T17:00:26.006Z</time></trkpt><trkpt lat="43.83253761137645" lon="10.494202829936324"><ele>13.0</ele><time>2026-04-25T17:00:27.005Z</time></trkpt><trkpt lat="43.83246733641435" lon="10.49414994590821"><ele>13.0</ele><time>2026-04-25T17:00:28.005Z</time></trkpt><trkpt lat="43.832411430425964" lon="10.49408315263343"><ele>13.0</ele><time>2026-04-25T17:00:29.005Z</time></trkpt><trkpt lat="43.83237344500695" lon="10.494012356479267"><ele>12.999999999999998</ele><time>2026-04-25T17:00:30.005Z</time></trkpt><trkpt lat="43.83230611065347" lon="10.493895030287607"><ele>13.0</ele><time>2026-04-25T17:00:32.005Z</time></trkpt><trkpt lat="43.832236068770726" lon="10.493757686161102"><ele>13.2</ele><time>2026-04-25T17:00:34.005Z</time></trkpt><trkpt lat="43.83218837833471" lon="10.493669564005675"><ele>13.4</ele><time>2026-04-25T17:00:35.005Z</time></trkpt><trkpt lat="43.83213157153567" lon="10.493577539827408"><ele>13.599999999999998</ele><time>2026-04-25T17:00:36.005Z</time></trkpt><trkpt lat="43.83207376754359" lon="10.493480137511394"><ele>13.799999999999999</ele><time>2026-04-25T17:00:37.005Z</time></trkpt><trkpt lat="43.832024239616466" lon="10.493365758533649"><ele>14.0</ele><time>2026-04-25T17:00:38.005Z</time></trkpt><trkpt lat="43.831973567810216" lon="10.493246550627797"><ele>14.000000000000002</ele><time>2026-04-25T17:00:39.005Z</time></trkpt><trkpt lat="43.83192192376037" lon="10.493141836047581"><ele>14.0</ele><time>2026-04-25T17:00:40.005Z</time></trkpt><trkpt lat="43.83188720018362" lon="10.493039995931557"><ele>14.0</ele><time>2026-04-25T17:00:41.005Z</time></trkpt><trkpt lat="43.831829050576985" lon="10.492952188266985"><ele>14.0</ele><time>2026-04-25T17:00:42.005Z</time></trkpt><trkpt lat="43.83176268824579" lon="10.492880637918546"><ele>14.000000000000002</ele><time>2026-04-25T17:00:43.005Z</time></trkpt><trkpt lat="43.83168776735642" lon="10.49282156470921"><ele>14.0</ele><time>2026-04-25T17:00:44.005Z</time></trkpt><trkpt lat="43.8316007278661" lon="10.492787603122633"><ele>13.799999999999999</ele><time>2026-04-25T17:00:45.005Z</time></trkpt><trkpt lat="43.831507151813" lon="10.492773303378158"><ele>13.599999999999998</ele><time>2026-04-25T17:00:46.005Z</time></trkpt><trkpt lat="43.83141144370424" lon="10.49277812687149"><ele>13.4</ele><time>2026-04-25T17:00:47.005Z</time></trkpt><trkpt lat="43.83131281826212" lon="10.492783884315799"><ele>13.2</ele><time>2026-04-25T17:00:48.005Z</time></trkpt><trkpt lat="43.83121493455606" lon="10.492782414495961"><ele>13.0</ele><time>2026-04-25T17:00:49.005Z</time></trkpt><trkpt lat="43.831120057026716" lon="10.492741270638245"><ele>13.0</ele><time>2026-04-25T17:00:50.005Z</time></trkpt><trkpt lat="43.83103268717576" lon="10.492652408647128"><ele>13.0</ele><time>2026-04-25T17:00:51.005Z</time></trkpt><trkpt lat="43.83095246754536" lon="10.49254921543607"><ele>13.0</ele><time>2026-04-25T17:00:52.005Z</time></trkpt><trkpt lat="43.83088957859779" lon="10.49241489972622"><ele>13.0</ele><time>2026-04-25T17:00:53.005Z</time></trkpt><trkpt lat="43.83088179481478" lon="10.492239129319987"><ele>13.25</ele><time>2026-04-25T17:00:54.005Z</time></trkpt><trkpt lat="43.83085180004357" lon="10.492077257923603"><ele>13.5</ele><time>2026-04-25T17:00:55.005Z</time></trkpt><trkpt lat="43.83080682563538" lon="10.491905031400014"><ele>13.75</ele><time>2026-04-25T17:00:56.005Z</time></trkpt><trkpt lat="43.830793018376085" lon="10.491721642772253"><ele>14.0</ele><time>2026-04-25T17:00:57.005Z</time></trkpt><trkpt lat="43.83077842190667" lon="10.491553258666338"><ele>14.0</ele><time>2026-04-25T17:00:58.005Z</time></trkpt><trkpt lat="43.83077315839482" lon="10.491407634444426"><ele>13.999999999999998</ele><time>2026-04-25T17:00:59.005Z</time></trkpt><trkpt lat="43.8307773850905" lon="10.49127554262219"><ele>13.999999999999998</ele><time>2026-04-25T17:01:00.005Z</time></trkpt><trkpt lat="43.83085313398706" lon="10.491171128652516"><ele>14.0</ele><time>2026-04-25T17:01:01.005Z</time></trkpt><trkpt lat="43.83086840764015" lon="10.491082016826246"><ele>14.0</ele><time>2026-04-25T17:01:02.005Z</time></trkpt><trkpt lat="43.83094745171988" lon="10.490958619027595"><ele>13.666666666666668</ele><time>2026-04-25T17:01:04.005Z</time></trkpt><trkpt lat="43.83098898331485" lon="10.490877293430561"><ele>13.333333333333334</ele><time>2026-04-25T17:01:05.005Z</time></trkpt><trkpt lat="43.83101197060242" lon="10.490788113349806"><ele>13.0</ele><time>2026-04-25T17:01:06.005Z</time></trkpt><trkpt lat="43.83105915509847" lon="10.490692868475174"><ele>12.666666666666668</ele><time>2026-04-25T17:01:08.005Z</time></trkpt><trkpt lat="43.83110906988838" lon="10.49062952684561"><ele>12.333333333333334</ele><time>2026-04-25T17:01:21.005Z</time></trkpt><trkpt lat="43.831161126414266" lon="10.490466262297248"><ele>12.0</ele><time>2026-04-25T17:01:23.005Z</time></trkpt><trkpt lat="43.83117183558644" lon="10.490339948475919"><ele>12.0</ele><time>2026-04-25T17:01:24.005Z</time></trkpt><trkpt lat="43.83117132141872" lon="10.49023521236566"><ele>12.0</ele><time>2026-04-25T17:01:25.005Z</time></trkpt><trkpt lat="43.83116507639444" lon="10.49009850981077"><ele>12.0</ele><time>2026-04-25T17:01:27.005Z</time></trkpt><trkpt lat="43.831166709859794" lon="10.489970434612863"><ele>12.0</ele><time>2026-04-25T17:02:39.005Z</time></trkpt><trkpt lat="43.83117318738759" lon="10.48978848286973"><ele>12.0</ele><time>2026-04-25T17:02:41.005Z</time></trkpt><trkpt lat="43.83117851109801" lon="10.489661344202345"><ele>12.0</ele><time>2026-04-25T17:02:42.005Z</time></trkpt><trkpt lat="43.83129593384449" lon="10.489583532824524"><ele>12.0</ele><time>2026-04-25T17:02:43.005Z</time></trkpt><trkpt lat="43.83138314646083" lon="10.489523223277313"><ele>12.0</ele><time>2026-04-25T17:02:44.005Z</time></trkpt><trkpt lat="43.831469434373915" lon="10.489441235396102"><ele>12.0</ele><time>2026-04-25T17:02:45.005Z</time></trkpt><trkpt lat="43.831564228312686" lon="10.489381150364634"><ele>12.0</ele><time>2026-04-25T17:02:46.005Z</time></trkpt><trkpt lat="43.831673027552476" lon="10.489308371609349"><ele>12.0</ele><time>2026-04-25T17:02:47.005Z</time></trkpt><trkpt lat="43.831782066712776" lon="10.489235414478737"><ele>12.0</ele><time>2026-04-25T17:02:48.005Z</time></trkpt><trkpt lat="43.83188478043439" lon="10.4891434599196"><ele>12.0</ele><time>2026-04-25T17:02:49.005Z</time></trkpt><trkpt lat="43.831965212799275" lon="10.489023790481927"><ele>12.0</ele><time>2026-04-25T17:02:50.005Z</time></trkpt><trkpt lat="43.832018819219655" lon="10.488888860287274"><ele>12.2</ele><time>2026-04-25T17:02:51.005Z</time></trkpt><trkpt lat="43.83204237488146" lon="10.488745245511884"><ele>12.399999999999999</ele><time>2026-04-25T17:02:52.005Z</time></trkpt><trkpt lat="43.83205589936313" lon="10.488603475991097"><ele>12.600000000000001</ele><time>2026-04-25T17:02:53.005Z</time></trkpt><trkpt lat="43.832053812520186" lon="10.48847265575344"><ele>12.8</ele><time>2026-04-25T17:02:54.005Z</time></trkpt><trkpt lat="43.8320205991982" lon="10.48834928502481"><ele>13.0</ele><time>2026-04-25T17:02:55.005Z</time></trkpt><trkpt lat="43.83196524389697" lon="10.488235811211009"><ele>13.0</ele><time>2026-04-25T17:02:56.005Z</time></trkpt><trkpt lat="43.8318997202174" lon="10.48813345562664"><ele>13.0</ele><time>2026-04-25T17:02:57.005Z</time></trkpt><trkpt lat="43.83182991763652" lon="10.4880301047118"><ele>13.0</ele><time>2026-04-25T17:02:58.005Z</time></trkpt><trkpt lat="43.83175190269344" lon="10.487932170733675"><ele>13.0</ele><time>2026-04-25T17:02:59.005Z</time></trkpt><trkpt lat="43.83167029389352" lon="10.487838224954531"><ele>13.0</ele><time>2026-04-25T17:03:00.005Z</time></trkpt><trkpt lat="43.83159565605373" lon="10.487740884566508"><ele>12.8</ele><time>2026-04-25T17:03:01.005Z</time></trkpt><trkpt lat="43.83152724931455" lon="10.487623330123629"><ele>12.600000000000001</ele><time>2026-04-25T17:03:02.004Z</time></trkpt><trkpt lat="43.83147240126678" lon="10.487489057798161"><ele>12.399999999999999</ele><time>2026-04-25T17:03:03.004Z</time></trkpt><trkpt lat="43.83143160617665" lon="10.487345364497733"><ele>12.2</ele><time>2026-04-25T17:03:04.004Z</time></trkpt><trkpt lat="43.83138749508997" lon="10.487200621706624"><ele>12.0</ele><time>2026-04-25T17:03:05.004Z</time></trkpt><trkpt lat="43.83135508954814" lon="10.487051491339784"><ele>11.75</ele><time>2026-04-25T17:03:06.004Z</time></trkpt><trkpt lat="43.83133581199967" lon="10.486895855714428"><ele>11.5</ele><time>2026-04-25T17:03:07.004Z</time></trkpt><trkpt lat="43.8313235959648" lon="10.4867408411224"><ele>11.25</ele><time>2026-04-25T17:03:08.004Z</time></trkpt><trkpt lat="43.8313288285992" lon="10.486578943299913"><ele>11.0</ele><time>2026-04-25T17:03:09.004Z</time></trkpt><trkpt lat="43.83134308538723" lon="10.486421698741951"><ele>11.0</ele><time>2026-04-25T17:03:10.004Z</time></trkpt><trkpt lat="43.83136373801467" lon="10.486255917234427"><ele>11.0</ele><time>2026-04-25T17:03:11.004Z</time></trkpt><trkpt lat="43.83137077322637" lon="10.486097438181313"><ele>11.0</ele><time>2026-04-25T17:03:12.004Z</time></trkpt><trkpt lat="43.83138513200598" lon="10.485930851677834"><ele>11.0</ele><time>2026-04-25T17:03:13.004Z</time></trkpt><trkpt lat="43.83140696682908" lon="10.485769155368084"><ele>11.0</ele><time>2026-04-25T17:03:14.004Z</time></trkpt><trkpt lat="43.83143347419704" lon="10.485572740207674"><ele>11.0</ele><time>2026-04-25T17:03:15.004Z</time></trkpt><trkpt lat="43.83147090349923" lon="10.485356108324282"><ele>11.0</ele><time>2026-04-25T17:03:16.004Z</time></trkpt><trkpt lat="43.83151487064596" lon="10.485110035192665"><ele>11.0</ele><time>2026-04-25T17:03:17.004Z</time></trkpt><trkpt lat="43.831553051782855" lon="10.484839061180793"><ele>11.0</ele><time>2026-04-25T17:03:18.004Z</time></trkpt><trkpt lat="43.831592463400455" lon="10.484545112726957"><ele>11.0</ele><time>2026-04-25T17:03:19.004Z</time></trkpt><trkpt lat="43.831630101447" lon="10.484235367193161"><ele>11.0</ele><time>2026-04-25T17:03:20.004Z</time></trkpt><trkpt lat="43.83166660160028" lon="10.483907611816653"><ele>11.0</ele><time>2026-04-25T17:03:21.004Z</time></trkpt><trkpt lat="43.831707360003186" lon="10.483570407445386"><ele>11.0</ele><time>2026-04-25T17:03:22.004Z</time></trkpt><trkpt lat="43.83175113448514" lon="10.483219218163056"><ele>11.0</ele><time>2026-04-25T17:03:23.004Z</time></trkpt><trkpt lat="43.831804662193356" lon="10.482863854680067"><ele>10.5</ele><time>2026-04-25T17:03:24.004Z</time></trkpt><trkpt lat="43.831854262136595" lon="10.48250492043269"><ele>10.0</ele><time>2026-04-25T17:03:25.004Z</time></trkpt><trkpt lat="43.83191304762108" lon="10.482141509014046"><ele>10.5</ele><time>2026-04-25T17:03:26.004Z</time></trkpt><trkpt lat="43.83196676304538" lon="10.481776422809062"><ele>11.0</ele><time>2026-04-25T17:03:27.004Z</time></trkpt><trkpt lat="43.832028223676716" lon="10.48141121045681"><ele>11.0</ele><time>2026-04-25T17:03:28.004Z</time></trkpt><trkpt lat="43.8320931475844" lon="10.481041335700427"><ele>11.0</ele><time>2026-04-25T17:03:29.004Z</time></trkpt><trkpt lat="43.83215150182538" lon="10.4806699476317"><ele>11.5</ele><time>2026-04-25T17:03:30.004Z</time></trkpt><trkpt lat="43.832208322066506" lon="10.480292844445525"><ele>12.0</ele><time>2026-04-25T17:03:31.004Z</time></trkpt><trkpt lat="43.83226171610837" lon="10.479914119422352"><ele>12.0</ele><time>2026-04-25T17:03:32.004Z</time></trkpt><trkpt lat="43.83232129888551" lon="10.479535791079767"><ele>12.0</ele><time>2026-04-25T17:03:33.004Z</time></trkpt><trkpt lat="43.83237835668128" lon="10.479158240621874"><ele>12.0</ele><time>2026-04-25T17:03:34.004Z</time></trkpt><trkpt lat="43.83243937118609" lon="10.478781701849247"><ele>12.0</ele><time>2026-04-25T17:03:35.004Z</time></trkpt><trkpt lat="43.83250440172824" lon="10.478407259587227"><ele>11.5</ele><time>2026-04-25T17:03:36.004Z</time></trkpt><trkpt lat="43.8325761193203" lon="10.478031243043281"><ele>11.0</ele><time>2026-04-25T17:03:37.004Z</time></trkpt><trkpt lat="43.832640707964494" lon="10.477666961459995"><ele>11.0</ele><time>2026-04-25T17:03:38.004Z</time></trkpt><trkpt lat="43.83270244392785" lon="10.477282191489259"><ele>11.0</ele><time>2026-04-25T17:03:39.004Z</time></trkpt><trkpt lat="43.832763746790036" lon="10.476900538454835"><ele>11.5</ele><time>2026-04-25T17:03:40.004Z</time></trkpt><trkpt lat="43.83282995947331" lon="10.476517531377985"><ele>12.0</ele><time>2026-04-25T17:03:41.004Z</time></trkpt><trkpt lat="43.83289444558857" lon="10.476137571558109"><ele>13.0</ele><time>2026-04-25T17:03:42.004Z</time></trkpt><trkpt lat="43.8329568779907" lon="10.475758934913259"><ele>14.0</ele><time>2026-04-25T17:03:43.004Z</time></trkpt><trkpt lat="43.83301660400044" lon="10.475379502020342"><ele>14.0</ele><time>2026-04-25T17:03:44.004Z</time></trkpt><trkpt lat="43.83307743714375" lon="10.47499710801832"><ele>14.0</ele><time>2026-04-25T17:03:45.004Z</time></trkpt><trkpt lat="43.83313725417958" lon="10.474614379923546"><ele>13.0</ele><time>2026-04-25T17:03:46.004Z</time></trkpt><trkpt lat="43.83319188650849" lon="10.474234175332379"><ele>12.0</ele><time>2026-04-25T17:03:47.004Z</time></trkpt><trkpt lat="43.833256022229335" lon="10.473857305996846"><ele>12.0</ele><time>2026-04-25T17:03:48.004Z</time></trkpt><trkpt lat="43.833311931212535" lon="10.473478375823436"><ele>12.0</ele><time>2026-04-25T17:03:49.004Z</time></trkpt><trkpt lat="43.83337079507148" lon="10.473100158746833"><ele>12.5</ele><time>2026-04-25T17:03:50.004Z</time></trkpt><trkpt lat="43.83343169672407" lon="10.47272115630879"><ele>13.0</ele><time>2026-04-25T17:03:51.004Z</time></trkpt><trkpt lat="43.83348393149699" lon="10.472365154161611"><ele>12.0</ele><time>2026-04-25T17:03:52.004Z</time></trkpt><trkpt lat="43.833546375260156" lon="10.471990318911509"><ele>11.0</ele><time>2026-04-25T17:03:53.004Z</time></trkpt><trkpt lat="43.83360760175425" lon="10.471629548071371"><ele>10.5</ele><time>2026-04-25T17:03:54.004Z</time></trkpt><trkpt lat="43.83366438344713" lon="10.471268284709526"><ele>10.0</ele><time>2026-04-25T17:03:55.004Z</time></trkpt><trkpt lat="43.83372396250247" lon="10.47090570829478"><ele>10.0</ele><time>2026-04-25T17:03:56.004Z</time></trkpt><trkpt lat="43.833781367968584" lon="10.470547331894139"><ele>10.0</ele><time>2026-04-25T17:03:57.004Z</time></trkpt><trkpt lat="43.833837355592884" lon="10.470185966788145"><ele>10.5</ele><time>2026-04-25T17:03:58.004Z</time></trkpt><trkpt lat="43.833894160574815" lon="10.469821510703067"><ele>11.0</ele><time>2026-04-25T17:03:59.004Z</time></trkpt><trkpt lat="43.83395091876228" lon="10.469456777723764"><ele>11.0</ele><time>2026-04-25T17:04:00.004Z</time></trkpt><trkpt lat="43.834007716783255" lon="10.469094979088947"><ele>11.0</ele><time>2026-04-25T17:04:01.004Z</time></trkpt><trkpt lat="43.834065045087776" lon="10.468728372633045"><ele>10.5</ele><time>2026-04-25T17:04:02.004Z</time></trkpt><trkpt lat="43.83412343445939" lon="10.468358801084639"><ele>10.0</ele><time>2026-04-25T17:04:03.004Z</time></trkpt><trkpt lat="43.83418098341294" lon="10.467989348042327"><ele>11.0</ele><time>2026-04-25T17:04:04.004Z</time></trkpt><trkpt lat="43.83423676361622" lon="10.467620460136008"><ele>12.0</ele><time>2026-04-25T17:04:05.004Z</time></trkpt><trkpt lat="43.83429498068297" lon="10.46725104003929"><ele>12.0</ele><time>2026-04-25T17:04:06.004Z</time></trkpt><trkpt lat="43.83435397480985" lon="10.466880530830762"><ele>12.0</ele><time>2026-04-25T17:04:07.006Z</time></trkpt><trkpt lat="43.83441292809756" lon="10.466507837543976"><ele>12.0</ele><time>2026-04-25T17:04:08.006Z</time></trkpt><trkpt lat="43.83447159495467" lon="10.466134678618829"><ele>12.0</ele><time>2026-04-25T17:04:09.006Z</time></trkpt><trkpt lat="43.83452802022478" lon="10.465761844723604"><ele>11.5</ele><time>2026-04-25T17:04:10.006Z</time></trkpt><trkpt lat="43.83458465568082" lon="10.4653881968108"><ele>11.0</ele><time>2026-04-25T17:04:11.006Z</time></trkpt><trkpt lat="43.83463600738432" lon="10.465020438464153"><ele>11.0</ele><time>2026-04-25T17:04:12.006Z</time></trkpt><trkpt lat="43.83469783697912" lon="10.464647483945788"><ele>11.0</ele><time>2026-04-25T17:04:13.006Z</time></trkpt><trkpt lat="43.83475809935103" lon="10.464271294733102"><ele>11.0</ele><time>2026-04-25T17:04:14.006Z</time></trkpt><trkpt lat="43.83481519851613" lon="10.463894674881136"><ele>11.0</ele><time>2026-04-25T17:04:15.006Z</time></trkpt><trkpt lat="43.834874553395366" lon="10.463518707938924"><ele>11.0</ele><time>2026-04-25T17:04:16.006Z</time></trkpt><trkpt lat="43.834931133729825" lon="10.463147802664553"><ele>11.0</ele><time>2026-04-25T17:04:17.006Z</time></trkpt><trkpt lat="43.834987765685845" lon="10.462777007250502"><ele>11.0</ele><time>2026-04-25T17:04:18.006Z</time></trkpt><trkpt lat="43.83504179679939" lon="10.462405794771769"><ele>11.0</ele><time>2026-04-25T17:04:19.006Z</time></trkpt><trkpt lat="43.83510314562583" lon="10.462034555710863"><ele>11.0</ele><time>2026-04-25T17:04:20.006Z</time></trkpt><trkpt lat="43.835161942353835" lon="10.46165633745816"><ele>11.0</ele><time>2026-04-25T17:04:21.006Z</time></trkpt><trkpt lat="43.83521906667187" lon="10.461273813023002"><ele>11.0</ele><time>2026-04-25T17:04:22.006Z</time></trkpt><trkpt lat="43.835277197540115" lon="10.460891196790527"><ele>11.0</ele><time>2026-04-25T17:04:23.006Z</time></trkpt><trkpt lat="43.83534063899522" lon="10.4605089912338"><ele>10.5</ele><time>2026-04-25T17:04:24.006Z</time></trkpt><trkpt lat="43.835403532093366" lon="10.460126209357528"><ele>10.0</ele><time>2026-04-25T17:04:25.006Z</time></trkpt><trkpt lat="43.835461961995485" lon="10.459747791334555"><ele>9.5</ele><time>2026-04-25T17:04:26.006Z</time></trkpt><trkpt lat="43.835514743844904" lon="10.459367915476378"><ele>9.0</ele><time>2026-04-25T17:04:27.006Z</time></trkpt><trkpt lat="43.8355708127704" lon="10.458991889119803"><ele>9.5</ele><time>2026-04-25T17:04:28.006Z</time></trkpt><trkpt lat="43.835630001307095" lon="10.458620074468923"><ele>10.0</ele><time>2026-04-25T17:04:29.006Z</time></trkpt><trkpt lat="43.83568837227722" lon="10.45825090241759"><ele>10.5</ele><time>2026-04-25T17:04:30.006Z</time></trkpt><trkpt lat="43.83574499158045" lon="10.457884891678532"><ele>11.0</ele><time>2026-04-25T17:04:31.006Z</time></trkpt><trkpt lat="43.83579841742597" lon="10.457520114873182"><ele>11.0</ele><time>2026-04-25T17:04:32.006Z</time></trkpt><trkpt lat="43.83585516119621" lon="10.457154423020748"><ele>11.0</ele><time>2026-04-25T17:04:33.006Z</time></trkpt><trkpt lat="43.83591496664419" lon="10.456796313927786"><ele>11.0</ele><time>2026-04-25T17:04:34.006Z</time></trkpt><trkpt lat="43.835975415666354" lon="10.45643812770613"><ele>11.0</ele><time>2026-04-25T17:04:35.006Z</time></trkpt><trkpt lat="43.83603516511849" lon="10.456075649496976"><ele>11.0</ele><time>2026-04-25T17:04:36.005Z</time></trkpt><trkpt lat="43.836097570697014" lon="10.455705300723206"><ele>11.0</ele><time>2026-04-25T17:04:37.005Z</time></trkpt><trkpt lat="43.83615018723381" lon="10.455336457944263"><ele>12.0</ele><time>2026-04-25T17:04:38.005Z</time></trkpt><trkpt lat="43.83620404270079" lon="10.454965008765368"><ele>13.0</ele><time>2026-04-25T17:04:39.005Z</time></trkpt><trkpt lat="43.83625623522486" lon="10.454585989804785"><ele>13.0</ele><time>2026-04-25T17:04:40.005Z</time></trkpt><trkpt lat="43.836314060085925" lon="10.454209150550254"><ele>13.0</ele><time>2026-04-25T17:04:41.005Z</time></trkpt><trkpt lat="43.83636825499753" lon="10.453829998792113"><ele>11.5</ele><time>2026-04-25T17:04:42.005Z</time></trkpt><trkpt lat="43.83642826903081" lon="10.453452786836998"><ele>10.0</ele><time>2026-04-25T17:04:43.005Z</time></trkpt><trkpt lat="43.83648422399383" lon="10.453078887116604"><ele>10.5</ele><time>2026-04-25T17:04:44.005Z</time></trkpt><trkpt lat="43.83654367421042" lon="10.452705047586866"><ele>11.0</ele><time>2026-04-25T17:04:45.005Z</time></trkpt><trkpt lat="43.83660216765099" lon="10.452331808564242"><ele>10.0</ele><time>2026-04-25T17:04:46.005Z</time></trkpt><trkpt lat="43.83665271311139" lon="10.451952418621207"><ele>9.0</ele><time>2026-04-25T17:04:47.005Z</time></trkpt><trkpt lat="43.836709316450005" lon="10.451574632285295"><ele>9.0</ele><time>2026-04-25T17:04:48.005Z</time></trkpt><trkpt lat="43.83675471251971" lon="10.45119411524465"><ele>9.0</ele><time>2026-04-25T17:04:49.005Z</time></trkpt><trkpt lat="43.836790475231844" lon="10.450815404028278"><ele>10.0</ele><time>2026-04-25T17:04:50.005Z</time></trkpt><trkpt lat="43.836818435534596" lon="10.450436528637374"><ele>11.0</ele><time>2026-04-25T17:04:51.005Z</time></trkpt><trkpt lat="43.836845589343326" lon="10.450055827725755"><ele>11.0</ele><time>2026-04-25T17:04:52.005Z</time></trkpt><trkpt lat="43.83685997905135" lon="10.449672126912485"><ele>11.0</ele><time>2026-04-25T17:04:53.005Z</time></trkpt><trkpt lat="43.83686458804498" lon="10.449289398988359"><ele>10.5</ele><time>2026-04-25T17:04:54.005Z</time></trkpt><trkpt lat="43.83687529749549" lon="10.448909865320852"><ele>10.0</ele><time>2026-04-25T17:04:55.005Z</time></trkpt><trkpt lat="43.836872149572315" lon="10.448524511581732"><ele>10.0</ele><time>2026-04-25T17:04:56.005Z</time></trkpt><trkpt lat="43.836853829376246" lon="10.448145972762076"><ele>10.0</ele><time>2026-04-25T17:04:57.005Z</time></trkpt><trkpt lat="43.83682552377915" lon="10.447767531191886"><ele>10.5</ele><time>2026-04-25T17:04:58.005Z</time></trkpt><trkpt lat="43.83679500099086" lon="10.447387795068249"><ele>11.0</ele><time>2026-04-25T17:04:59.005Z</time></trkpt><trkpt lat="43.8367615897452" lon="10.447005957377531"><ele>11.0</ele><time>2026-04-25T17:05:00.005Z</time></trkpt><trkpt lat="43.83671605775654" lon="10.446631512625217"><ele>11.0</ele><time>2026-04-25T17:05:01.005Z</time></trkpt><trkpt lat="43.83665855349993" lon="10.446256157053849"><ele>11.0</ele><time>2026-04-25T17:05:02.005Z</time></trkpt><trkpt lat="43.83659758017609" lon="10.445878248167547"><ele>11.0</ele><time>2026-04-25T17:05:03.005Z</time></trkpt><trkpt lat="43.836530118571744" lon="10.445500911866125"><ele>11.5</ele><time>2026-04-25T17:05:04.005Z</time></trkpt><trkpt lat="43.836456425717415" lon="10.445122672659165"><ele>12.0</ele><time>2026-04-25T17:05:05.005Z</time></trkpt><trkpt lat="43.836382157799775" lon="10.444744560601885"><ele>11.5</ele><time>2026-04-25T17:05:06.005Z</time></trkpt><trkpt lat="43.83630945949388" lon="10.444370799216776"><ele>11.0</ele><time>2026-04-25T17:05:07.005Z</time></trkpt><trkpt lat="43.83623173945976" lon="10.443996083595671"><ele>11.5</ele><time>2026-04-25T17:05:08.005Z</time></trkpt><trkpt lat="43.83615361372025" lon="10.443618674218769"><ele>12.0</ele><time>2026-04-25T17:05:09.005Z</time></trkpt><trkpt lat="43.83607089692221" lon="10.443244735242846"><ele>12.5</ele><time>2026-04-25T17:05:10.005Z</time></trkpt><trkpt lat="43.83598008657444" lon="10.442874921441247"><ele>13.0</ele><time>2026-04-25T17:05:11.005Z</time></trkpt><trkpt lat="43.83588454051027" lon="10.442502651339357"><ele>13.0</ele><time>2026-04-25T17:05:12.005Z</time></trkpt><trkpt lat="43.835785784052874" lon="10.442132564360204"><ele>13.0</ele><time>2026-04-25T17:05:13.005Z</time></trkpt><trkpt lat="43.83568144916128" lon="10.441756796886974"><ele>13.0</ele><time>2026-04-25T17:05:14.005Z</time></trkpt><trkpt lat="43.83557464573259" lon="10.441386613841633"><ele>13.0</ele><time>2026-04-25T17:05:15.005Z</time></trkpt><trkpt lat="43.835469991660126" lon="10.441013737991707"><ele>13.0</ele><time>2026-04-25T17:05:16.005Z</time></trkpt><trkpt lat="43.835360485863994" lon="10.440646283187661"><ele>13.0</ele><time>2026-04-25T17:05:17.005Z</time></trkpt><trkpt lat="43.83524970884" lon="10.440276363049495"><ele>17.0</ele><time>2026-04-25T17:05:18.005Z</time></trkpt><trkpt lat="43.8351333475793" lon="10.439915465341693"><ele>21.0</ele><time>2026-04-25T17:05:19.005Z</time></trkpt><trkpt lat="43.8350130475057" lon="10.439552826032264"><ele>21.0</ele><time>2026-04-25T17:05:20.005Z</time></trkpt><trkpt lat="43.8348948233089" lon="10.439192679156362"><ele>21.0</ele><time>2026-04-25T17:05:21.005Z</time></trkpt><trkpt lat="43.83477418058185" lon="10.438833696533694"><ele>19.0</ele><time>2026-04-25T17:05:22.005Z</time></trkpt><trkpt lat="43.83465030288355" lon="10.43848032003501"><ele>17.0</ele><time>2026-04-25T17:05:23.005Z</time></trkpt><trkpt lat="43.83453425369908" lon="10.438125925868341"><ele>17.0</ele><time>2026-04-25T17:05:24.005Z</time></trkpt><trkpt lat="43.834412747225215" lon="10.437771573344191"><ele>17.0</ele><time>2026-04-25T17:05:25.005Z</time></trkpt><trkpt lat="43.8342954862417" lon="10.437418223272344"><ele>15.0</ele><time>2026-04-25T17:05:26.005Z</time></trkpt><trkpt lat="43.83418506835781" lon="10.43707085174891"><ele>13.0</ele><time>2026-04-25T17:05:27.005Z</time></trkpt><trkpt lat="43.834072056033385" lon="10.436720941988867"><ele>13.0</ele><time>2026-04-25T17:05:28.005Z</time></trkpt><trkpt lat="43.83395862163424" lon="10.43637021094246"><ele>13.0</ele><time>2026-04-25T17:05:29.005Z</time></trkpt><trkpt lat="43.83384413814835" lon="10.436023022043104"><ele>12.5</ele><time>2026-04-25T17:05:30.005Z</time></trkpt><trkpt lat="43.83373267716977" lon="10.435675111222162"><ele>12.0</ele><time>2026-04-25T17:05:31.005Z</time></trkpt><trkpt lat="43.83361881188745" lon="10.435324219584261"><ele>11.5</ele><time>2026-04-25T17:05:32.005Z</time></trkpt><trkpt lat="43.833503052610425" lon="10.434976853222565"><ele>11.0</ele><time>2026-04-25T17:05:33.005Z</time></trkpt><trkpt lat="43.8333849455328" lon="10.434630563185392"><ele>12.0</ele><time>2026-04-25T17:05:34.005Z</time></trkpt><trkpt lat="43.83326745919546" lon="10.434289096227333"><ele>13.0</ele><time>2026-04-25T17:05:35.005Z</time></trkpt><trkpt lat="43.833150663406336" lon="10.433945784274279"><ele>12.5</ele><time>2026-04-25T17:05:36.005Z</time></trkpt><trkpt lat="43.83303741848531" lon="10.433599516703724"><ele>12.0</ele><time>2026-04-25T17:05:37.005Z</time></trkpt><trkpt lat="43.83292438752979" lon="10.433252241074722"><ele>11.5</ele><time>2026-04-25T17:05:38.005Z</time></trkpt><trkpt lat="43.83281326187531" lon="10.43290673411561"><ele>11.0</ele><time>2026-04-25T17:05:39.005Z</time></trkpt><trkpt lat="43.83269856753057" lon="10.432563633890164"><ele>12.0</ele><time>2026-04-25T17:05:40.005Z</time></trkpt><trkpt lat="43.83257860910491" lon="10.432225664064921"><ele>13.0</ele><time>2026-04-25T17:05:41.005Z</time></trkpt><trkpt lat="43.832451836406065" lon="10.431885800099606"><ele>13.0</ele><time>2026-04-25T17:05:42.005Z</time></trkpt><trkpt lat="43.83232697255871" lon="10.431542535484718"><ele>13.0</ele><time>2026-04-25T17:05:43.005Z</time></trkpt><trkpt lat="43.83221100955079" lon="10.431196010330238"><ele>13.0</ele><time>2026-04-25T17:05:44.005Z</time></trkpt><trkpt lat="43.83210157854412" lon="10.430845962505037"><ele>13.0</ele><time>2026-04-25T17:05:45.005Z</time></trkpt><trkpt lat="43.831998507049626" lon="10.430495654698452"><ele>13.0</ele><time>2026-04-25T17:05:46.005Z</time></trkpt><trkpt lat="43.8318900809499" lon="10.43014426260012"><ele>13.0</ele><time>2026-04-25T17:05:47.005Z</time></trkpt><trkpt lat="43.83178296662033" lon="10.429797823063238"><ele>14.0</ele><time>2026-04-25T17:05:48.005Z</time></trkpt><trkpt lat="43.83167237085182" lon="10.42945767890118"><ele>15.0</ele><time>2026-04-25T17:05:49.005Z</time></trkpt><trkpt lat="43.831559808132994" lon="10.42911657546908"><ele>15.5</ele><time>2026-04-25T17:05:50.005Z</time></trkpt><trkpt lat="43.83144685459566" lon="10.428776209164477"><ele>16.0</ele><time>2026-04-25T17:05:51.005Z</time></trkpt><trkpt lat="43.83133372366752" lon="10.428434434233147"><ele>16.0</ele><time>2026-04-25T17:05:52.005Z</time></trkpt><trkpt lat="43.831222025041875" lon="10.428093022327776"><ele>16.0</ele><time>2026-04-25T17:05:53.005Z</time></trkpt><trkpt lat="43.831108465027036" lon="10.427750026363714"><ele>15.5</ele><time>2026-04-25T17:05:54.005Z</time></trkpt><trkpt lat="43.830996231844395" lon="10.427410596739012"><ele>15.0</ele><time>2026-04-25T17:05:55.005Z</time></trkpt><trkpt lat="43.83088427699044" lon="10.427067428618724"><ele>16.0</ele><time>2026-04-25T17:05:56.005Z</time></trkpt><trkpt lat="43.830771577646395" lon="10.426724465814852"><ele>17.0</ele><time>2026-04-25T17:05:57.005Z</time></trkpt><trkpt lat="43.83065795269825" lon="10.42637964342733"><ele>15.5</ele><time>2026-04-25T17:05:58.004Z</time></trkpt><trkpt lat="43.83054381042606" lon="10.426029865876226"><ele>14.0</ele><time>2026-04-25T17:05:59.004Z</time></trkpt><trkpt lat="43.8304258760331" lon="10.425684808567986"><ele>13.5</ele><time>2026-04-25T17:06:00.004Z</time></trkpt><trkpt lat="43.83030983655049" lon="10.425338147025105"><ele>13.0</ele><time>2026-04-25T17:06:01.004Z</time></trkpt><trkpt lat="43.83019222804522" lon="10.424990409993695"><ele>13.5</ele><time>2026-04-25T17:06:02.004Z</time></trkpt><trkpt lat="43.83007751249241" lon="10.424645657403545"><ele>14.0</ele><time>2026-04-25T17:06:03.004Z</time></trkpt><trkpt lat="43.82995436646267" lon="10.424306087149992"><ele>14.0</ele><time>2026-04-25T17:06:04.004Z</time></trkpt><trkpt lat="43.82983243660299" lon="10.42396341546141"><ele>14.0</ele><time>2026-04-25T17:06:05.004Z</time></trkpt><trkpt lat="43.829709231834265" lon="10.423621679324338"><ele>14.5</ele><time>2026-04-25T17:06:06.004Z</time></trkpt><trkpt lat="43.82958791988622" lon="10.423276404824204"><ele>15.0</ele><time>2026-04-25T17:06:07.004Z</time></trkpt><trkpt lat="43.82947240852572" lon="10.422929463156814"><ele>15.0</ele><time>2026-04-25T17:06:08.004Z</time></trkpt><trkpt lat="43.829360029071424" lon="10.422581486461734"><ele>15.0</ele><time>2026-04-25T17:06:09.004Z</time></trkpt><trkpt lat="43.82925399146396" lon="10.422237740516614"><ele>17.5</ele><time>2026-04-25T17:06:10.004Z</time></trkpt><trkpt lat="43.82914420958478" lon="10.421894682570796"><ele>20.0</ele><time>2026-04-25T17:06:11.004Z</time></trkpt><trkpt lat="43.829035378828316" lon="10.42155029536713"><ele>18.5</ele><time>2026-04-25T17:06:12.004Z</time></trkpt><trkpt lat="43.82892819014715" lon="10.421204908508619"><ele>17.0</ele><time>2026-04-25T17:06:13.006Z</time></trkpt><trkpt lat="43.82882457955964" lon="10.420859356913898"><ele>17.0</ele><time>2026-04-25T17:06:14.006Z</time></trkpt><trkpt lat="43.82871798194884" lon="10.420508659386186"><ele>17.0</ele><time>2026-04-25T17:06:15.006Z</time></trkpt><trkpt lat="43.828608229374645" lon="10.420159136602226"><ele>15.5</ele><time>2026-04-25T17:06:16.006Z</time></trkpt><trkpt lat="43.82849458699635" lon="10.419810300979275"><ele>14.0</ele><time>2026-04-25T17:06:17.006Z</time></trkpt><trkpt lat="43.82837888739391" lon="10.419461714761049"><ele>14.0</ele><time>2026-04-25T17:06:18.006Z</time></trkpt><trkpt lat="43.82826041815503" lon="10.419111232120358"><ele>14.0</ele><time>2026-04-25T17:06:19.006Z</time></trkpt><trkpt lat="43.82814458954572" lon="10.418759957698592"><ele>13.5</ele><time>2026-04-25T17:06:20.006Z</time></trkpt><trkpt lat="43.82802663008315" lon="10.418403971908297"><ele>13.0</ele><time>2026-04-25T17:06:21.006Z</time></trkpt><trkpt lat="43.827910585976305" lon="10.418047741976734"><ele>11.5</ele><time>2026-04-25T17:06:22.006Z</time></trkpt><trkpt lat="43.82779403117119" lon="10.417692280803768"><ele>10.0</ele><time>2026-04-25T17:06:23.006Z</time></trkpt><trkpt lat="43.827678741527215" lon="10.417339766483664"><ele>9.5</ele><time>2026-04-25T17:06:24.006Z</time></trkpt><trkpt lat="43.827562505830706" lon="10.416988644231578"><ele>9.0</ele><time>2026-04-25T17:06:25.006Z</time></trkpt><trkpt lat="43.8274489079395" lon="10.416638402115236"><ele>10.0</ele><time>2026-04-25T17:06:26.006Z</time></trkpt><trkpt lat="43.827336140902084" lon="10.416288697236434"><ele>11.0</ele><time>2026-04-25T17:06:27.006Z</time></trkpt><trkpt lat="43.827218585671496" lon="10.415937405470174"><ele>11.0</ele><time>2026-04-25T17:06:28.006Z</time></trkpt><trkpt lat="43.827102767495134" lon="10.41558816016842"><ele>11.0</ele><time>2026-04-25T17:06:29.006Z</time></trkpt><trkpt lat="43.8269864950781" lon="10.41523790778196"><ele>11.0</ele><time>2026-04-25T17:06:30.006Z</time></trkpt><trkpt lat="43.82686404107173" lon="10.414893013979997"><ele>11.0</ele><time>2026-04-25T17:06:31.006Z</time></trkpt><trkpt lat="43.82673294941902" lon="10.414555049882784"><ele>12.0</ele><time>2026-04-25T17:06:32.006Z</time></trkpt><trkpt lat="43.82659374921574" lon="10.414225671033737"><ele>13.0</ele><time>2026-04-25T17:06:33.006Z</time></trkpt><trkpt lat="43.826440417607934" lon="10.413902519105694"><ele>13.0</ele><time>2026-04-25T17:06:34.006Z</time></trkpt><trkpt lat="43.82627978198621" lon="10.41358841380537"><ele>13.0</ele><time>2026-04-25T17:06:35.006Z</time></trkpt><trkpt lat="43.82611274961658" lon="10.41328280228815"><ele>13.5</ele><time>2026-04-25T17:06:36.006Z</time></trkpt><trkpt lat="43.82594092609133" lon="10.412986599705249"><ele>14.0</ele><time>2026-04-25T17:06:37.006Z</time></trkpt><trkpt lat="43.82576150523819" lon="10.412695617304689"><ele>14.0</ele><time>2026-04-25T17:06:38.006Z</time></trkpt><trkpt lat="43.825574571711314" lon="10.412413662865324"><ele>14.0</ele><time>2026-04-25T17:06:39.006Z</time></trkpt><trkpt lat="43.82538249322928" lon="10.412141048258983"><ele>14.0</ele><time>2026-04-25T17:06:40.006Z</time></trkpt><trkpt lat="43.82518230477281" lon="10.411882949095423"><ele>14.0</ele><time>2026-04-25T17:06:41.006Z</time></trkpt><trkpt lat="43.82497357811023" lon="10.411634432167153"><ele>14.0</ele><time>2026-04-25T17:06:42.006Z</time></trkpt><trkpt lat="43.82475225301894" lon="10.411408907459414"><ele>14.0</ele><time>2026-04-25T17:06:43.006Z</time></trkpt><trkpt lat="43.82453713373517" lon="10.411183222331859"><ele>17.0</ele><time>2026-04-25T17:06:44.006Z</time></trkpt><trkpt lat="43.82431515181217" lon="10.410983073147147"><ele>20.0</ele><time>2026-04-25T17:06:45.006Z</time></trkpt><trkpt lat="43.8240855424103" lon="10.410787885499678"><ele>20.0</ele><time>2026-04-25T17:06:46.006Z</time></trkpt><trkpt lat="43.82385563540475" lon="10.410603441146701"><ele>20.0</ele><time>2026-04-25T17:06:47.006Z</time></trkpt><trkpt lat="43.82361925352726" lon="10.410427478867007"><ele>18.0</ele><time>2026-04-25T17:06:48.006Z</time></trkpt><trkpt lat="43.82337809063957" lon="10.41026989295423"><ele>16.0</ele><time>2026-04-25T17:06:49.006Z</time></trkpt><trkpt lat="43.82312919171182" lon="10.410114895347853"><ele>16.0</ele><time>2026-04-25T17:06:50.006Z</time></trkpt><trkpt lat="43.82287551643214" lon="10.40998707484953"><ele>16.0</ele><time>2026-04-25T17:06:51.006Z</time></trkpt><trkpt lat="43.82262113710576" lon="10.409864958851463"><ele>18.5</ele><time>2026-04-25T17:06:52.006Z</time></trkpt><trkpt lat="43.82236089514585" lon="10.409752288716266"><ele>21.0</ele><time>2026-04-25T17:06:53.006Z</time></trkpt><trkpt lat="43.82209689951867" lon="10.409651862949335"><ele>23.5</ele><time>2026-04-25T17:06:54.006Z</time></trkpt><trkpt lat="43.82182269270953" lon="10.409573935034956"><ele>26.0</ele><time>2026-04-25T17:06:55.006Z</time></trkpt><trkpt lat="43.821547616885155" lon="10.409509530905202"><ele>27.5</ele><time>2026-04-25T17:06:56.006Z</time></trkpt><trkpt lat="43.821265142181836" lon="10.409457917473452"><ele>29.0</ele><time>2026-04-25T17:06:57.006Z</time></trkpt><trkpt lat="43.820981430672624" lon="10.409422948984862"><ele>29.0</ele><time>2026-04-25T17:06:58.005Z</time></trkpt><trkpt lat="43.82069828919643" lon="10.409402604134788"><ele>29.0</ele><time>2026-04-25T17:06:59.005Z</time></trkpt><trkpt lat="43.820414061063" lon="10.409397689959174"><ele>24.0</ele><time>2026-04-25T17:07:00.005Z</time></trkpt><trkpt lat="43.820135127982965" lon="10.409397537643798"><ele>19.0</ele><time>2026-04-25T17:07:01.005Z</time></trkpt><trkpt lat="43.81985637229927" lon="10.409396057428076"><ele>19.0</ele><time>2026-04-25T17:07:02.005Z</time></trkpt><trkpt lat="43.81957316608635" lon="10.409393581368095"><ele>19.0</ele><time>2026-04-25T17:07:03.005Z</time></trkpt><trkpt lat="43.81929383099226" lon="10.409393788307149"><ele>20.5</ele><time>2026-04-25T17:07:04.005Z</time></trkpt><trkpt lat="43.81901475811877" lon="10.409393371912364"><ele>22.0</ele><time>2026-04-25T17:07:05.005Z</time></trkpt><trkpt lat="43.818736298827" lon="10.409396453091684"><ele>24.5</ele><time>2026-04-25T17:07:06.005Z</time></trkpt><trkpt lat="43.81845861485254" lon="10.409400719588984"><ele>27.0</ele><time>2026-04-25T17:07:07.005Z</time></trkpt><trkpt lat="43.818180889389005" lon="10.409401088786094"><ele>27.0</ele><time>2026-04-25T17:07:08.005Z</time></trkpt><trkpt lat="43.81790475369534" lon="10.409401293430404"><ele>27.0</ele><time>2026-04-25T17:07:09.005Z</time></trkpt><trkpt lat="43.81762847684415" lon="10.409396962186346"><ele>25.0</ele><time>2026-04-25T17:07:10.005Z</time></trkpt><trkpt lat="43.81735429666816" lon="10.409386348430916"><ele>23.0</ele><time>2026-04-25T17:07:11.005Z</time></trkpt><trkpt lat="43.817084107649904" lon="10.409372211071538"><ele>16.0</ele><time>2026-04-25T17:07:12.005Z</time></trkpt><trkpt lat="43.816807936636444" lon="10.409345592204067"><ele>9.0</ele><time>2026-04-25T17:07:13.005Z</time></trkpt><trkpt lat="43.8165289923701" lon="10.40931827094124"><ele>9.0</ele><time>2026-04-25T17:07:14.005Z</time></trkpt><trkpt lat="43.81624745743473" lon="10.40927658447034"><ele>9.0</ele><time>2026-04-25T17:07:15.005Z</time></trkpt><trkpt lat="43.815974033719066" lon="10.409233755858892"><ele>9.0</ele><time>2026-04-25T17:07:16.005Z</time></trkpt><trkpt lat="43.81569716383336" lon="10.409183893940401"><ele>9.0</ele><time>2026-04-25T17:07:17.005Z</time></trkpt><trkpt lat="43.8154205868346" lon="10.409130915627712"><ele>9.5</ele><time>2026-04-25T17:07:18.005Z</time></trkpt><trkpt lat="43.815146978845036" lon="10.409071567567322"><ele>10.0</ele><time>2026-04-25T17:07:19.005Z</time></trkpt><trkpt lat="43.81487749850871" lon="10.408997646332786"><ele>10.0</ele><time>2026-04-25T17:07:20.005Z</time></trkpt><trkpt lat="43.81460942859355" lon="10.408906226673013"><ele>10.0</ele><time>2026-04-25T17:07:21.005Z</time></trkpt><trkpt lat="43.8143439139187" lon="10.408801082486708"><ele>9.0</ele><time>2026-04-25T17:07:22.005Z</time></trkpt><trkpt lat="43.81408184666493" lon="10.40867883312074"><ele>8.0</ele><time>2026-04-25T17:07:23.005Z</time></trkpt><trkpt lat="43.81382060755322" lon="10.40854039958035"><ele>8.0</ele><time>2026-04-25T17:07:24.005Z</time></trkpt><trkpt lat="43.81356876388798" lon="10.40839059039733"><ele>8.0</ele><time>2026-04-25T17:07:25.005Z</time></trkpt><trkpt lat="43.8133170991565" lon="10.408229337333939"><ele>8.5</ele><time>2026-04-25T17:07:26.005Z</time></trkpt><trkpt lat="43.81306881706573" lon="10.4080522635127"><ele>9.0</ele><time>2026-04-25T17:07:27.005Z</time></trkpt><trkpt lat="43.81282608271429" lon="10.40786436613724"><ele>9.5</ele><time>2026-04-25T17:07:28.005Z</time></trkpt><trkpt lat="43.81259011699281" lon="10.407665437394067"><ele>10.0</ele><time>2026-04-25T17:07:29.005Z</time></trkpt><trkpt lat="43.812356881049716" lon="10.407460805936529"><ele>10.0</ele><time>2026-04-25T17:07:30.005Z</time></trkpt><trkpt lat="43.81212722464097" lon="10.407250028995668"><ele>10.0</ele><time>2026-04-25T17:07:31.005Z</time></trkpt><trkpt lat="43.81189819964848" lon="10.407028612390805"><ele>9.5</ele><time>2026-04-25T17:07:32.005Z</time></trkpt><trkpt lat="43.811675302966876" lon="10.406798463395365"><ele>9.0</ele><time>2026-04-25T17:07:33.005Z</time></trkpt><trkpt lat="43.81145234206818" lon="10.406561083000355"><ele>8.0</ele><time>2026-04-25T17:07:34.005Z</time></trkpt><trkpt lat="43.81123852062746" lon="10.40630899314176"><ele>7.0</ele><time>2026-04-25T17:07:35.005Z</time></trkpt><trkpt lat="43.8110269747831" lon="10.406053495701721"><ele>8.5</ele><time>2026-04-25T17:07:36.005Z</time></trkpt><trkpt lat="43.810819205694756" lon="10.40578844734994"><ele>10.0</ele><time>2026-04-25T17:07:37.005Z</time></trkpt><trkpt lat="43.81061548784947" lon="10.405520796765389"><ele>9.5</ele><time>2026-04-25T17:07:38.005Z</time></trkpt><trkpt lat="43.810416300611" lon="10.405242162944631"><ele>9.0</ele><time>2026-04-25T17:07:39.005Z</time></trkpt><trkpt lat="43.81021868919182" lon="10.40496041497507"><ele>9.5</ele><time>2026-04-25T17:07:40.005Z</time></trkpt><trkpt lat="43.81001859767752" lon="10.404678347421887"><ele>10.0</ele><time>2026-04-25T17:07:41.005Z</time></trkpt><trkpt lat="43.80981681424665" lon="10.404397108615653"><ele>10.0</ele><time>2026-04-25T17:07:42.005Z</time></trkpt><trkpt lat="43.80961540289057" lon="10.40411502327521"><ele>10.0</ele><time>2026-04-25T17:07:43.005Z</time></trkpt><trkpt lat="43.80941337454257" lon="10.403828914535055"><ele>9.5</ele><time>2026-04-25T17:07:44.005Z</time></trkpt><trkpt lat="43.80920965165707" lon="10.403545396400471"><ele>9.0</ele><time>2026-04-25T17:07:45.005Z</time></trkpt><trkpt lat="43.80900774082258" lon="10.403267855426824"><ele>8.5</ele><time>2026-04-25T17:07:46.005Z</time></trkpt><trkpt lat="43.80880799492923" lon="10.40299679880383"><ele>8.0</ele><time>2026-04-25T17:07:47.005Z</time></trkpt><trkpt lat="43.80861179251635" lon="10.402715893836564"><ele>9.0</ele><time>2026-04-25T17:07:48.005Z</time></trkpt><trkpt lat="43.80841649972627" lon="10.40244015744733"><ele>10.0</ele><time>2026-04-25T17:07:49.005Z</time></trkpt><trkpt lat="43.80822115531589" lon="10.402165397842332"><ele>10.5</ele><time>2026-04-25T17:07:50.005Z</time></trkpt><trkpt lat="43.80802948323289" lon="10.401884034914305"><ele>11.0</ele><time>2026-04-25T17:07:51.005Z</time></trkpt><trkpt lat="43.8078529064301" lon="10.401588026490773"><ele>10.5</ele><time>2026-04-25T17:07:52.005Z</time></trkpt><trkpt lat="43.807690517502444" lon="10.401280635954135"><ele>10.0</ele><time>2026-04-25T17:07:53.005Z</time></trkpt><trkpt lat="43.80754240438991" lon="10.400961027328265"><ele>10.0</ele><time>2026-04-25T17:07:54.005Z</time></trkpt><trkpt lat="43.8074088471482" lon="10.400627941885652"><ele>10.0</ele><time>2026-04-25T17:07:55.005Z</time></trkpt><trkpt lat="43.80728560648645" lon="10.400286841068084"><ele>9.5</ele><time>2026-04-25T17:07:56.005Z</time></trkpt><trkpt lat="43.807175059425035" lon="10.399937671725972"><ele>9.0</ele><time>2026-04-25T17:07:57.005Z</time></trkpt><trkpt lat="43.807076062581835" lon="10.399582939624247"><ele>9.0</ele><time>2026-04-25T17:07:58.005Z</time></trkpt><trkpt lat="43.80698948426276" lon="10.399223362130094"><ele>9.0</ele><time>2026-04-25T17:07:59.005Z</time></trkpt><trkpt lat="43.80691713816097" lon="10.398851872970555"><ele>9.5</ele><time>2026-04-25T17:08:00.005Z</time></trkpt><trkpt lat="43.806855513384356" lon="10.398474545188357"><ele>10.0</ele><time>2026-04-25T17:08:01.005Z</time></trkpt><trkpt lat="43.80681102447252" lon="10.39809017620865"><ele>11.0</ele><time>2026-04-25T17:08:02.005Z</time></trkpt><trkpt lat="43.806779859456846" lon="10.397701055310234"><ele>12.0</ele><time>2026-04-25T17:08:03.005Z</time></trkpt><trkpt lat="43.80676565311912" lon="10.39731231219288"><ele>12.0</ele><time>2026-04-25T17:08:04.005Z</time></trkpt><trkpt lat="43.80676531925982" lon="10.396918689970732"><ele>12.0</ele><time>2026-04-25T17:08:05.005Z</time></trkpt><trkpt lat="43.806778725324435" lon="10.396527474189082"><ele>11.5</ele><time>2026-04-25T17:08:06.005Z</time></trkpt><trkpt lat="43.80680373971724" lon="10.396140301559795"><ele>11.0</ele><time>2026-04-25T17:08:07.005Z</time></trkpt><trkpt lat="43.80684075371833" lon="10.395756489710434"><ele>11.0</ele><time>2026-04-25T17:08:08.005Z</time></trkpt><trkpt lat="43.80687227988092" lon="10.395370984344867"><ele>11.0</ele><time>2026-04-25T17:08:09.005Z</time></trkpt><trkpt lat="43.806905681059355" lon="10.39498903652961"><ele>10.0</ele><time>2026-04-25T17:08:10.005Z</time></trkpt><trkpt lat="43.80693357242805" lon="10.394603163806188"><ele>9.0</ele><time>2026-04-25T17:08:11.005Z</time></trkpt><trkpt lat="43.80696175902582" lon="10.394216782329524"><ele>9.0</ele><time>2026-04-25T17:08:12.005Z</time></trkpt><trkpt lat="43.80699124721348" lon="10.39382969610441"><ele>9.0</ele><time>2026-04-25T17:08:13.005Z</time></trkpt><trkpt lat="43.80702266346835" lon="10.3934434565392"><ele>9.0</ele><time>2026-04-25T17:08:14.005Z</time></trkpt><trkpt lat="43.80705325995205" lon="10.393058959946991"><ele>9.0</ele><time>2026-04-25T17:08:15.005Z</time></trkpt><trkpt lat="43.80708222342179" lon="10.39267415855897"><ele>9.0</ele><time>2026-04-25T17:08:16.005Z</time></trkpt><trkpt lat="43.80711248513792" lon="10.392292194883288"><ele>9.0</ele><time>2026-04-25T17:08:17.005Z</time></trkpt><trkpt lat="43.80714288741167" lon="10.39190918141534"><ele>9.0</ele><time>2026-04-25T17:08:18.004Z</time></trkpt><trkpt lat="43.807174184108426" lon="10.391527114752776"><ele>9.0</ele><time>2026-04-25T17:08:19.006Z</time></trkpt><trkpt lat="43.807205302386464" lon="10.3911466762551"><ele>9.0</ele><time>2026-04-25T17:08:20.007Z</time></trkpt><trkpt lat="43.80723370829999" lon="10.39076286328047"><ele>9.0</ele><time>2026-04-25T17:08:21.007Z</time></trkpt><trkpt lat="43.80726264215983" lon="10.390379629885802"><ele>9.0</ele><time>2026-04-25T17:08:22.007Z</time></trkpt><trkpt lat="43.80729330474957" lon="10.389994228676137"><ele>9.0</ele><time>2026-04-25T17:08:23.007Z</time></trkpt><trkpt lat="43.80732223635471" lon="10.389608130445275"><ele>9.5</ele><time>2026-04-25T17:08:24.007Z</time></trkpt><trkpt lat="43.807354632662225" lon="10.389226704761166"><ele>10.0</ele><time>2026-04-25T17:08:25.006Z</time></trkpt><trkpt lat="43.80738638789323" lon="10.388843851940704"><ele>10.0</ele><time>2026-04-25T17:08:26.006Z</time></trkpt><trkpt lat="43.80741629109922" lon="10.388463181893075"><ele>10.0</ele><time>2026-04-25T17:08:27.006Z</time></trkpt><trkpt lat="43.807445790117754" lon="10.388086831980031"><ele>10.0</ele><time>2026-04-25T17:08:28.007Z</time></trkpt><trkpt lat="43.80747297381932" lon="10.387709830008538"><ele>10.0</ele><time>2026-04-25T17:08:29.006Z</time></trkpt><trkpt lat="43.807499283378256" lon="10.387331604615595"><ele>10.5</ele><time>2026-04-25T17:08:30.006Z</time></trkpt><trkpt lat="43.807527974757704" lon="10.38695695886813"><ele>11.0</ele><time>2026-04-25T17:08:31.007Z</time></trkpt><trkpt lat="43.80755726110909" lon="10.386582050443948"><ele>12.5</ele><time>2026-04-25T17:08:32.006Z</time></trkpt><trkpt lat="43.80758810562634" lon="10.38620690295131"><ele>14.0</ele><time>2026-04-25T17:08:33.006Z</time></trkpt><trkpt lat="43.80761658537263" lon="10.385832271624848"><ele>14.5</ele><time>2026-04-25T17:08:34.006Z</time></trkpt><trkpt lat="43.807644527641735" lon="10.385453541884786"><ele>15.0</ele><time>2026-04-25T17:08:35.006Z</time></trkpt><trkpt lat="43.807672436779086" lon="10.385076102307092"><ele>16.0</ele><time>2026-04-25T17:08:36.006Z</time></trkpt><trkpt lat="43.80770097602155" lon="10.38469983229323"><ele>17.0</ele><time>2026-04-25T17:08:37.006Z</time></trkpt><trkpt lat="43.80772974594487" lon="10.384321336968338"><ele>21.5</ele><time>2026-04-25T17:08:38.006Z</time></trkpt><trkpt lat="43.8077580567107" lon="10.383939394811739"><ele>26.0</ele><time>2026-04-25T17:08:39.006Z</time></trkpt><trkpt lat="43.80778828988197" lon="10.383555755577394"><ele>27.5</ele><time>2026-04-25T17:08:40.006Z</time></trkpt><trkpt lat="43.80781930430236" lon="10.383165014302298"><ele>29.0</ele><time>2026-04-25T17:08:41.006Z</time></trkpt><trkpt lat="43.80785048563389" lon="10.38277346052392"><ele>32.0</ele><time>2026-04-25T17:08:42.006Z</time></trkpt><trkpt lat="43.80787984061853" lon="10.382377660456235"><ele>35.0</ele><time>2026-04-25T17:08:43.006Z</time></trkpt><trkpt lat="43.80790925959588" lon="10.381977696115362"><ele>38.5</ele><time>2026-04-25T17:08:44.006Z</time></trkpt><trkpt lat="43.80793661486487" lon="10.381579258000743"><ele>42.0</ele><time>2026-04-25T17:08:45.006Z</time></trkpt><trkpt lat="43.80796390225262" lon="10.381186503151895"><ele>44.5</ele><time>2026-04-25T17:08:46.006Z</time></trkpt><trkpt lat="43.80799155087053" lon="10.380800682881032"><ele>47.0</ele><time>2026-04-25T17:08:47.006Z</time></trkpt><trkpt lat="43.80800820943821" lon="10.38041826622181"><ele>41.0</ele><time>2026-04-25T17:08:48.006Z</time></trkpt><trkpt lat="43.80801229560653" lon="10.380036529810296"><ele>35.0</ele><time>2026-04-25T17:08:49.006Z</time></trkpt><trkpt lat="43.807993741174634" lon="10.379651531996775"><ele>27.0</ele><time>2026-04-25T17:08:50.006Z</time></trkpt><trkpt lat="43.80796028301255" lon="10.379265492157879"><ele>19.0</ele><time>2026-04-25T17:08:51.006Z</time></trkpt><trkpt lat="43.80791827819747" lon="10.378877810337839"><ele>12.0</ele><time>2026-04-25T17:08:52.006Z</time></trkpt><trkpt lat="43.807862501383575" lon="10.378495032419591"><ele>5.0</ele><time>2026-04-25T17:08:53.006Z</time></trkpt><trkpt lat="43.80779283055469" lon="10.378100383931379"><ele>3.0</ele><time>2026-04-25T17:08:54.006Z</time></trkpt><trkpt lat="43.807718357700864" lon="10.377702662443019"><ele>1.0</ele><time>2026-04-25T17:08:55.006Z</time></trkpt><trkpt lat="43.80763947537711" lon="10.377308968527768"><ele>1.5</ele><time>2026-04-25T17:08:56.006Z</time></trkpt><trkpt lat="43.80756066325115" lon="10.376914997008706"><ele>2.0</ele><time>2026-04-25T17:08:57.006Z</time></trkpt><trkpt lat="43.807481440337575" lon="10.376522865565454"><ele>1.5</ele><time>2026-04-25T17:08:58.006Z</time></trkpt><trkpt lat="43.807406884663834" lon="10.376130487965206"><ele>1.0</ele><time>2026-04-25T17:08:59.006Z</time></trkpt><trkpt lat="43.80732930512484" lon="10.375742986483884"><ele>1.0</ele><time>2026-04-25T17:09:00.006Z</time></trkpt><trkpt lat="43.80724617963982" lon="10.37535728713579"><ele>1.0</ele><time>2026-04-25T17:09:01.006Z</time></trkpt><trkpt lat="43.8071696230262" lon="10.374965680919717"><ele>1.0</ele><time>2026-04-25T17:09:02.006Z</time></trkpt><trkpt lat="43.807097011954724" lon="10.37458092217063"><ele>1.0</ele><time>2026-04-25T17:09:03.006Z</time></trkpt><trkpt lat="43.8070113018404" lon="10.37420749887418"><ele>0.0</ele><time>2026-04-25T17:09:04.006Z</time></trkpt><trkpt lat="43.80690829267562" lon="10.373844736677402"><ele>-1.0</ele><time>2026-04-25T17:09:05.006Z</time></trkpt><trkpt lat="43.8067918982868" lon="10.373491686034086"><ele>-0.5</ele><time>2026-04-25T17:09:06.006Z</time></trkpt><trkpt lat="43.80665978754966" lon="10.373152612489992"><ele>0.0</ele><time>2026-04-25T17:09:07.006Z</time></trkpt><trkpt lat="43.80651326117281" lon="10.372831092897993"><ele>0.0</ele><time>2026-04-25T17:09:08.006Z</time></trkpt><trkpt lat="43.806351430104186" lon="10.372523303679092"><ele>0.0</ele><time>2026-04-25T17:09:09.006Z</time></trkpt><trkpt lat="43.80617738059885" lon="10.372232241381049"><ele>0.5</ele><time>2026-04-25T17:09:10.006Z</time></trkpt><trkpt lat="43.80598390267874" lon="10.371945793638767"><ele>1.0</ele><time>2026-04-25T17:09:11.006Z</time></trkpt><trkpt lat="43.805787624679944" lon="10.371669177538493"><ele>1.0</ele><time>2026-04-25T17:09:12.006Z</time></trkpt><trkpt lat="43.80558469329031" lon="10.371394110339072"><ele>1.0</ele><time>2026-04-25T17:09:13.006Z</time></trkpt><trkpt lat="43.80538098533796" lon="10.371116124240245"><ele>1.0</ele><time>2026-04-25T17:09:14.006Z</time></trkpt><trkpt lat="43.80517646141606" lon="10.370836433977194"><ele>1.0</ele><time>2026-04-25T17:09:15.006Z</time></trkpt><trkpt lat="43.80496846114488" lon="10.37055833217546"><ele>0.0</ele><time>2026-04-25T17:09:16.006Z</time></trkpt><trkpt lat="43.804761909608814" lon="10.370282769073203"><ele>-1.0</ele><time>2026-04-25T17:09:17.006Z</time></trkpt><trkpt lat="43.804556608708694" lon="10.370003033142371"><ele>-1.0</ele><time>2026-04-25T17:09:18.006Z</time></trkpt><trkpt lat="43.80435060937975" lon="10.369727325555235"><ele>-1.0</ele><time>2026-04-25T17:09:19.006Z</time></trkpt><trkpt lat="43.80414448085598" lon="10.369444937357352"><ele>-1.0</ele><time>2026-04-25T17:09:20.006Z</time></trkpt><trkpt lat="43.803937572400514" lon="10.369162241622229"><ele>-1.0</ele><time>2026-04-25T17:09:21.006Z</time></trkpt><trkpt lat="43.80372902169869" lon="10.368883889529096"><ele>-1.5</ele><time>2026-04-25T17:09:22.006Z</time></trkpt><trkpt lat="43.80352182981223" lon="10.368605583378695"><ele>-2.0</ele><time>2026-04-25T17:09:23.006Z</time></trkpt><trkpt lat="43.803317740396366" lon="10.368327747688756"><ele>-2.0</ele><time>2026-04-25T17:09:24.006Z</time></trkpt><trkpt lat="43.80311112587218" lon="10.368053308627523"><ele>-2.0</ele><time>2026-04-25T17:09:25.006Z</time></trkpt><trkpt lat="43.802906537820746" lon="10.36778030691636"><ele>-2.0</ele><time>2026-04-25T17:09:26.006Z</time></trkpt><trkpt lat="43.802703924971205" lon="10.367503813447563"><ele>-2.0</ele><time>2026-04-25T17:09:27.006Z</time></trkpt><trkpt lat="43.80250159434663" lon="10.367228743493065"><ele>-1.0</ele><time>2026-04-25T17:09:28.006Z</time></trkpt><trkpt lat="43.80229885159814" lon="10.366952678541262"><ele>0.0</ele><time>2026-04-25T17:09:29.006Z</time></trkpt><trkpt lat="43.80209495685957" lon="10.366676868074205"><ele>0.0</ele><time>2026-04-25T17:09:30.006Z</time></trkpt><trkpt lat="43.80188872435018" lon="10.366398767032514"><ele>0.0</ele><time>2026-04-25T17:09:31.006Z</time></trkpt><trkpt lat="43.801682848018395" lon="10.366115120852339"><ele>0.0</ele><time>2026-04-25T17:09:32.006Z</time></trkpt><trkpt lat="43.801472976334026" lon="10.365835082736258"><ele>0.0</ele><time>2026-04-25T17:09:33.006Z</time></trkpt><trkpt lat="43.801265604764964" lon="10.365547735378437"><ele>-0.5</ele><time>2026-04-25T17:09:34.006Z</time></trkpt><trkpt lat="43.80105868573682" lon="10.365263537963443"><ele>-1.0</ele><time>2026-04-25T17:09:35.006Z</time></trkpt><trkpt lat="43.800851181153256" lon="10.364983465938458"><ele>-1.0</ele><time>2026-04-25T17:09:36.006Z</time></trkpt><trkpt lat="43.80064342475868" lon="10.364703077596523"><ele>-1.0</ele><time>2026-04-25T17:09:37.006Z</time></trkpt><trkpt lat="43.80043660807117" lon="10.364423264316576"><ele>-1.0</ele><time>2026-04-25T17:09:38.006Z</time></trkpt><trkpt lat="43.80023011072128" lon="10.36414332010535"><ele>-1.0</ele><time>2026-04-25T17:09:39.006Z</time></trkpt><trkpt lat="43.800024209803084" lon="10.363864036965705"><ele>-1.0</ele><time>2026-04-25T17:09:40.006Z</time></trkpt><trkpt lat="43.79982037974777" lon="10.363586077514364"><ele>-1.0</ele><time>2026-04-25T17:09:41.006Z</time></trkpt><trkpt lat="43.7996174650727" lon="10.363309490089508"><ele>-1.0</ele><time>2026-04-25T17:09:42.006Z</time></trkpt><trkpt lat="43.79941604212162" lon="10.363033102521749"><ele>-1.0</ele><time>2026-04-25T17:09:43.006Z</time></trkpt><trkpt lat="43.799214351656104" lon="10.36275879682445"><ele>-0.5</ele><time>2026-04-25T17:09:44.006Z</time></trkpt><trkpt lat="43.79901142503462" lon="10.362488155621827"><ele>0.0</ele><time>2026-04-25T17:09:45.006Z</time></trkpt><trkpt lat="43.798803925026895" lon="10.362224642776852"><ele>-0.5</ele><time>2026-04-25T17:09:46.006Z</time></trkpt><trkpt lat="43.798600865559386" lon="10.361958551762331"><ele>-1.0</ele><time>2026-04-25T17:09:47.005Z</time></trkpt><trkpt lat="43.79839672401202" lon="10.361691267691876"><ele>-1.0</ele><time>2026-04-25T17:09:48.005Z</time></trkpt><trkpt lat="43.7981950954508" lon="10.361424804979602"><ele>-1.0</ele><time>2026-04-25T17:09:49.005Z</time></trkpt><trkpt lat="43.79799243671851" lon="10.361153724020895"><ele>-1.0</ele><time>2026-04-25T17:09:50.005Z</time></trkpt><trkpt lat="43.79778968978553" lon="10.360886885028682"><ele>-1.0</ele><time>2026-04-25T17:09:51.005Z</time></trkpt><trkpt lat="43.797589892039234" lon="10.360617758854607"><ele>-1.0</ele><time>2026-04-25T17:09:52.005Z</time></trkpt><trkpt lat="43.797392515710015" lon="10.360345569145036"><ele>-1.0</ele><time>2026-04-25T17:09:53.005Z</time></trkpt><trkpt lat="43.79719785350218" lon="10.360079103316297"><ele>-1.0</ele><time>2026-04-25T17:09:54.005Z</time></trkpt><trkpt lat="43.79700675429651" lon="10.359805627429141"><ele>-1.0</ele><time>2026-04-25T17:09:55.005Z</time></trkpt><trkpt lat="43.79682025973295" lon="10.359528101745337"><ele>-0.5</ele><time>2026-04-25T17:09:56.005Z</time></trkpt><trkpt lat="43.796633121108265" lon="10.359247282378353"><ele>0.0</ele><time>2026-04-25T17:09:57.005Z</time></trkpt><trkpt lat="43.79643450500203" lon="10.358973486892829"><ele>0.0</ele><time>2026-04-25T17:09:58.005Z</time></trkpt><trkpt lat="43.796231852610745" lon="10.358708994794942"><ele>0.0</ele><time>2026-04-25T17:09:59.005Z</time></trkpt><trkpt lat="43.796034514577585" lon="10.358436308621084"><ele>0.0</ele><time>2026-04-25T17:10:00.005Z</time></trkpt><trkpt lat="43.795833749055305" lon="10.358168478729183"><ele>0.0</ele><time>2026-04-25T17:10:01.005Z</time></trkpt><trkpt lat="43.7956371427876" lon="10.357900367613608"><ele>0.0</ele><time>2026-04-25T17:10:02.005Z</time></trkpt><trkpt lat="43.79544393021317" lon="10.357629062996592"><ele>0.0</ele><time>2026-04-25T17:10:03.005Z</time></trkpt><trkpt lat="43.79525052794692" lon="10.357368488728495"><ele>0.0</ele><time>2026-04-25T17:10:04.005Z</time></trkpt><trkpt lat="43.79505762377858" lon="10.35710046700991"><ele>0.0</ele><time>2026-04-25T17:10:05.005Z</time></trkpt><trkpt lat="43.794863753087746" lon="10.356833333342614"><ele>0.0</ele><time>2026-04-25T17:10:06.005Z</time></trkpt><trkpt lat="43.79467043684697" lon="10.356568812881694"><ele>0.0</ele><time>2026-04-25T17:10:07.005Z</time></trkpt><trkpt lat="43.79447882015486" lon="10.356304408523298"><ele>0.0</ele><time>2026-04-25T17:10:08.005Z</time></trkpt><trkpt lat="43.79428512424747" lon="10.356041309875017"><ele>0.0</ele><time>2026-04-25T17:10:09.005Z</time></trkpt><trkpt lat="43.79409110226959" lon="10.355779071581269"><ele>0.0</ele><time>2026-04-25T17:10:10.005Z</time></trkpt><trkpt lat="43.793896860129394" lon="10.355513573160396"><ele>0.0</ele><time>2026-04-25T17:10:11.005Z</time></trkpt><trkpt lat="43.79369936519093" lon="10.355248329001812"><ele>0.0</ele><time>2026-04-25T17:10:12.005Z</time></trkpt><trkpt lat="43.793501729642294" lon="10.354982151437802"><ele>0.0</ele><time>2026-04-25T17:10:13.005Z</time></trkpt><trkpt lat="43.79330562596105" lon="10.354715702541503"><ele>-0.5</ele><time>2026-04-25T17:10:14.005Z</time></trkpt><trkpt lat="43.79310943141298" lon="10.354450414414023"><ele>-1.0</ele><time>2026-04-25T17:10:15.005Z</time></trkpt><trkpt lat="43.79291182736074" lon="10.354186035897492"><ele>-1.0</ele><time>2026-04-25T17:10:16.005Z</time></trkpt><trkpt lat="43.792717250658406" lon="10.353920571436793"><ele>-1.0</ele><time>2026-04-25T17:10:17.005Z</time></trkpt><trkpt lat="43.792519630884215" lon="10.353653089134816"><ele>-1.5</ele><time>2026-04-25T17:10:18.005Z</time></trkpt><trkpt lat="43.792325073209504" lon="10.353382625801775"><ele>-2.0</ele><time>2026-04-25T17:10:19.005Z</time></trkpt><trkpt lat="43.79213043452983" lon="10.353113527460868"><ele>-2.0</ele><time>2026-04-25T17:10:20.005Z</time></trkpt><trkpt lat="43.791935034723586" lon="10.352847583575922"><ele>-2.0</ele><time>2026-04-25T17:10:21.005Z</time></trkpt><trkpt lat="43.79173803091956" lon="10.35258416201871"><ele>-1.5</ele><time>2026-04-25T17:10:22.005Z</time></trkpt><trkpt lat="43.79154294081953" lon="10.352315217203035"><ele>-1.0</ele><time>2026-04-25T17:10:23.005Z</time></trkpt><trkpt lat="43.79134970203918" lon="10.352052349769632"><ele>-1.0</ele><time>2026-04-25T17:10:24.005Z</time></trkpt><trkpt lat="43.79115404004598" lon="10.35178825152262"><ele>-1.0</ele><time>2026-04-25T17:10:25.007Z</time></trkpt><trkpt lat="43.79096028607005" lon="10.351527897829069"><ele>-1.0</ele><time>2026-04-25T17:10:26.006Z</time></trkpt><trkpt lat="43.79076591837169" lon="10.351267813326379"><ele>-1.0</ele><time>2026-04-25T17:10:27.006Z</time></trkpt><trkpt lat="43.790570971700156" lon="10.351004393742327"><ele>-1.0</ele><time>2026-04-25T17:10:28.006Z</time></trkpt><trkpt lat="43.790377429291986" lon="10.35073882602487"><ele>-1.0</ele><time>2026-04-25T17:10:29.007Z</time></trkpt><trkpt lat="43.790182079787655" lon="10.350472271885948"><ele>-1.0</ele><time>2026-04-25T17:10:30.007Z</time></trkpt><trkpt lat="43.78998427841311" lon="10.350206752952962"><ele>-1.0</ele><time>2026-04-25T17:10:31.007Z</time></trkpt><trkpt lat="43.789787532170855" lon="10.349937812520762"><ele>-1.0</ele><time>2026-04-25T17:10:32.007Z</time></trkpt><trkpt lat="43.78959118087474" lon="10.34967000467141"><ele>-1.0</ele><time>2026-04-25T17:10:33.007Z</time></trkpt><trkpt lat="43.78939202443578" lon="10.34940195834857"><ele>-1.0</ele><time>2026-04-25T17:10:34.006Z</time></trkpt><trkpt lat="43.789192593713516" lon="10.349132704969533"><ele>-1.0</ele><time>2026-04-25T17:10:35.007Z</time></trkpt><trkpt lat="43.78899191621337" lon="10.348858874249887"><ele>-1.0</ele><time>2026-04-25T17:10:36.007Z</time></trkpt><trkpt lat="43.78879205741692" lon="10.34858536628774"><ele>-1.0</ele><time>2026-04-25T17:10:37.007Z</time></trkpt><trkpt lat="43.78859230858383" lon="10.348313108296308"><ele>-0.5</ele><time>2026-04-25T17:10:38.007Z</time></trkpt><trkpt lat="43.78839176489825" lon="10.348044223125656"><ele>0.0</ele><time>2026-04-25T17:10:39.007Z</time></trkpt><trkpt lat="43.78819270384325" lon="10.347776006010056"><ele>0.0</ele><time>2026-04-25T17:10:40.007Z</time></trkpt><trkpt lat="43.78799395820429" lon="10.34750284390635"><ele>0.0</ele><time>2026-04-25T17:10:41.007Z</time></trkpt><trkpt lat="43.787795893672964" lon="10.347231418556609"><ele>-0.5</ele><time>2026-04-25T17:10:42.007Z</time></trkpt><trkpt lat="43.787595788629716" lon="10.34696383784071"><ele>-1.0</ele><time>2026-04-25T17:10:43.007Z</time></trkpt><trkpt lat="43.787397262027866" lon="10.346696667602403"><ele>-1.0</ele><time>2026-04-25T17:10:44.007Z</time></trkpt><trkpt lat="43.78720001753281" lon="10.346427157757667"><ele>-1.0</ele><time>2026-04-25T17:10:45.007Z</time></trkpt><trkpt lat="43.78700405154894" lon="10.346160652404302"><ele>-1.5</ele><time>2026-04-25T17:10:46.007Z</time></trkpt><trkpt lat="43.78680313984639" lon="10.345902449466744"><ele>-2.0</ele><time>2026-04-25T17:10:47.007Z</time></trkpt><trkpt lat="43.78660612344651" lon="10.345628577108767"><ele>-1.5</ele><time>2026-04-25T17:10:48.007Z</time></trkpt><trkpt lat="43.786410900575994" lon="10.345356982196213"><ele>-1.0</ele><time>2026-04-25T17:10:49.007Z</time></trkpt><trkpt lat="43.78621510969401" lon="10.345086126908921"><ele>-1.0</ele><time>2026-04-25T17:10:50.007Z</time></trkpt><trkpt lat="43.78601795176652" lon="10.344820061159481"><ele>-1.0</ele><time>2026-04-25T17:10:51.007Z</time></trkpt><trkpt lat="43.78582007380174" lon="10.34455533216081"><ele>-1.0</ele><time>2026-04-25T17:10:52.007Z</time></trkpt><trkpt lat="43.785623453557584" lon="10.344288334459412"><ele>-1.0</ele><time>2026-04-25T17:10:53.006Z</time></trkpt><trkpt lat="43.78542777491923" lon="10.344024715170926"><ele>-0.5</ele><time>2026-04-25T17:10:54.006Z</time></trkpt><trkpt lat="43.785234890007196" lon="10.34376350999488"><ele>0.0</ele><time>2026-04-25T17:10:55.006Z</time></trkpt><trkpt lat="43.785046669395676" lon="10.343499794826762"><ele>0.5</ele><time>2026-04-25T17:10:56.006Z</time></trkpt><trkpt lat="43.78485572261821" lon="10.343239732158464"><ele>1.0</ele><time>2026-04-25T17:10:57.006Z</time></trkpt><trkpt lat="43.7846646966215" lon="10.342980696329942"><ele>1.5</ele><time>2026-04-25T17:10:58.006Z</time></trkpt><trkpt lat="43.784473160165334" lon="10.342722984271028"><ele>2.0</ele><time>2026-04-25T17:10:59.006Z</time></trkpt><trkpt lat="43.78428208388049" lon="10.342462209611877"><ele>0.5</ele><time>2026-04-25T17:11:00.006Z</time></trkpt><trkpt lat="43.784093598588505" lon="10.342198052090888"><ele>-1.0</ele><time>2026-04-25T17:11:01.006Z</time></trkpt><trkpt lat="43.783903161527334" lon="10.341934219918409"><ele>-1.0</ele><time>2026-04-25T17:11:02.006Z</time></trkpt><trkpt lat="43.78371317111963" lon="10.34166878247588"><ele>-1.0</ele><time>2026-04-25T17:11:03.006Z</time></trkpt><trkpt lat="43.78352304699351" lon="10.341402900322844"><ele>-0.5</ele><time>2026-04-25T17:11:04.006Z</time></trkpt><trkpt lat="43.78333296089167" lon="10.34114086047387"><ele>0.0</ele><time>2026-04-25T17:11:05.006Z</time></trkpt><trkpt lat="43.78314133260357" lon="10.340882066436015"><ele>0.0</ele><time>2026-04-25T17:11:06.006Z</time></trkpt><trkpt lat="43.78295172162703" lon="10.340624764326341"><ele>0.0</ele><time>2026-04-25T17:11:07.006Z</time></trkpt><trkpt lat="43.78276285426698" lon="10.340367410125863"><ele>0.5</ele><time>2026-04-25T17:11:08.006Z</time></trkpt><trkpt lat="43.78257473785682" lon="10.340111427709349"><ele>1.0</ele><time>2026-04-25T17:11:09.006Z</time></trkpt><trkpt lat="43.78238722749819" lon="10.339857726774248"><ele>0.5</ele><time>2026-04-25T17:11:10.006Z</time></trkpt><trkpt lat="43.7822014688002" lon="10.339604085282046"><ele>0.0</ele><time>2026-04-25T17:11:11.006Z</time></trkpt><trkpt lat="43.78201624958943" lon="10.339353886582128"><ele>-0.5</ele><time>2026-04-25T17:11:12.006Z</time></trkpt><trkpt lat="43.78183389817701" lon="10.339104703474733"><ele>-1.0</ele><time>2026-04-25T17:11:13.006Z</time></trkpt><trkpt lat="43.781650925670576" lon="10.338855217128597"><ele>-1.0</ele><time>2026-04-25T17:11:14.006Z</time></trkpt><trkpt lat="43.781468984199876" lon="10.33860727665192"><ele>-1.0</ele><time>2026-04-25T17:11:15.006Z</time></trkpt><trkpt lat="43.78128867110833" lon="10.338363247998492"><ele>-1.0</ele><time>2026-04-25T17:11:16.006Z</time></trkpt><trkpt lat="43.78111741101853" lon="10.338132622945237"><ele>-1.0</ele><time>2026-04-25T17:11:17.006Z</time></trkpt><trkpt lat="43.780956932685" lon="10.337918852114145"><ele>-0.6666666666666666</ele><time>2026-04-25T17:11:18.006Z</time></trkpt><trkpt lat="43.78080807493701" lon="10.337715887447414"><ele>-0.3333333333333333</ele><time>2026-04-25T17:11:19.006Z</time></trkpt><trkpt lat="43.78066880471826" lon="10.337522224786051"><ele>0.0</ele><time>2026-04-25T17:11:20.006Z</time></trkpt><trkpt lat="43.78053582629962" lon="10.337339616798582"><ele>-0.3333333333333333</ele><time>2026-04-25T17:11:21.006Z</time></trkpt><trkpt lat="43.78041086826146" lon="10.33716526126213"><ele>-0.6666666666666666</ele><time>2026-04-25T17:11:22.006Z</time></trkpt><trkpt lat="43.78029628910067" lon="10.33698933505638"><ele>-1.0</ele><time>2026-04-25T17:11:23.006Z</time></trkpt><trkpt lat="43.780184707423416" lon="10.336801567848962"><ele>-1.0</ele><time>2026-04-25T17:11:24.006Z</time></trkpt><trkpt lat="43.7800679976921" lon="10.336605326383276"><ele>-1.0</ele><time>2026-04-25T17:11:25.006Z</time></trkpt><trkpt lat="43.779980873656356" lon="10.3363970440752"><ele>-1.0</ele><time>2026-04-25T17:11:26.006Z</time></trkpt><trkpt lat="43.77992063533411" lon="10.336176182021799"><ele>-1.0</ele><time>2026-04-25T17:11:27.006Z</time></trkpt><trkpt lat="43.779907980621985" lon="10.335949150002811"><ele>-1.0</ele><time>2026-04-25T17:11:28.006Z</time></trkpt><trkpt lat="43.779926176708194" lon="10.335734857833776"><ele>-1.0</ele><time>2026-04-25T17:11:29.006Z</time></trkpt><trkpt lat="43.77998907933292" lon="10.335540809832292"><ele>-1.0</ele><time>2026-04-25T17:11:30.006Z</time></trkpt><trkpt lat="43.78008466350918" lon="10.33538919681753"><ele>-1.0</ele><time>2026-04-25T17:11:31.006Z</time></trkpt><trkpt lat="43.780222169900014" lon="10.335297028739072"><ele>-1.0</ele><time>2026-04-25T17:11:32.006Z</time></trkpt><trkpt lat="43.7803830159836" lon="10.335263510706096"><ele>-1.0</ele><time>2026-04-25T17:11:33.006Z</time></trkpt><trkpt lat="43.780545816860204" lon="10.335296172245567"><ele>-1.0</ele><time>2026-04-25T17:11:34.006Z</time></trkpt><trkpt lat="43.78068168594912" lon="10.335394042376624"><ele>-1.0</ele><time>2026-04-25T17:11:35.006Z</time></trkpt><trkpt lat="43.780789860979" lon="10.335555029745898"><ele>-1.0</ele><time>2026-04-25T17:11:36.006Z</time></trkpt><trkpt lat="43.78085346312354" lon="10.335735255728972"><ele>-1.0</ele><time>2026-04-25T17:11:37.006Z</time></trkpt><trkpt lat="43.780870531581016" lon="10.33591220059746"><ele>-1.0</ele><time>2026-04-25T17:11:38.006Z</time></trkpt><trkpt lat="43.78085444815979" lon="10.336080804815984"><ele>-1.0</ele><time>2026-04-25T17:11:39.006Z</time></trkpt><trkpt lat="43.78082348869976" lon="10.336230245852517"><ele>-1.0</ele><time>2026-04-25T17:11:40.006Z</time></trkpt><trkpt lat="43.78074745392981" lon="10.336363449612985"><ele>-1.0</ele><time>2026-04-25T17:11:41.006Z</time></trkpt><trkpt lat="43.780658692199765" lon="10.336503801267638"><ele>-1.0</ele><time>2026-04-25T17:11:42.006Z</time></trkpt><trkpt lat="43.78057537212896" lon="10.336653563952733"><ele>-1.0</ele><time>2026-04-25T17:11:43.006Z</time></trkpt><trkpt lat="43.78046223691472" lon="10.336789712904997"><ele>-1.0</ele><time>2026-04-25T17:11:44.006Z</time></trkpt><trkpt lat="43.780359561460585" lon="10.336937279343662"><ele>-1.0</ele><time>2026-04-25T17:11:45.006Z</time></trkpt><trkpt lat="43.78025197500876" lon="10.337090272518344"><ele>-1.0</ele><time>2026-04-25T17:11:46.006Z</time></trkpt><trkpt lat="43.78013647048517" lon="10.337250825331608"><ele>0.6666666666666666</ele><time>2026-04-25T17:11:47.006Z</time></trkpt><trkpt lat="43.78002455326631" lon="10.337414450538791"><ele>2.333333333333333</ele><time>2026-04-25T17:11:48.006Z</time></trkpt><trkpt lat="43.77991017112003" lon="10.33757057863758"><ele>4.0</ele><time>2026-04-25T17:11:49.006Z</time></trkpt><trkpt lat="43.77979296703311" lon="10.33773495192393"><ele>4.0</ele><time>2026-04-25T17:11:50.006Z</time></trkpt><trkpt lat="43.77967118056826" lon="10.337904418653984"><ele>4.0</ele><time>2026-04-25T17:11:51.006Z</time></trkpt><trkpt lat="43.77954054057882" lon="10.338075076289119"><ele>4.0</ele><time>2026-04-25T17:11:52.006Z</time></trkpt><trkpt lat="43.77940648321498" lon="10.338245315894007"><ele>2.6666666666666665</ele><time>2026-04-25T17:11:53.006Z</time></trkpt><trkpt lat="43.77927653179929" lon="10.338421127568601"><ele>1.3333333333333333</ele><time>2026-04-25T17:11:54.006Z</time></trkpt><trkpt lat="43.77914365604746" lon="10.338600860323291"><ele>0.0</ele><time>2026-04-25T17:11:55.006Z</time></trkpt><trkpt lat="43.77901323743409" lon="10.338779218771196"><ele>0.0</ele><time>2026-04-25T17:11:56.006Z</time></trkpt><trkpt lat="43.778881299724276" lon="10.338970287499308"><ele>0.0</ele><time>2026-04-25T17:11:57.006Z</time></trkpt><trkpt lat="43.778746587677034" lon="10.339155097127453"><ele>0.0</ele><time>2026-04-25T17:11:58.006Z</time></trkpt><trkpt lat="43.778603454531684" lon="10.339346428611774"><ele>0.0</ele><time>2026-04-25T17:11:59.006Z</time></trkpt><trkpt lat="43.77845156909713" lon="10.339539379398293"><ele>0.0</ele><time>2026-04-25T17:12:00.006Z</time></trkpt><trkpt lat="43.77829218866391" lon="10.339732761649781"><ele>0.0</ele><time>2026-04-25T17:12:01.006Z</time></trkpt><trkpt lat="43.7781355170506" lon="10.33992726128075"><ele>0.0</ele><time>2026-04-25T17:12:02.006Z</time></trkpt><trkpt lat="43.777991160113146" lon="10.340146705993494"><ele>0.0</ele><time>2026-04-25T17:12:03.006Z</time></trkpt><trkpt lat="43.77785272269923" lon="10.340366789792576"><ele>0.0</ele><time>2026-04-25T17:12:04.006Z</time></trkpt><trkpt lat="43.777716049899205" lon="10.340593547462547"><ele>0.6666666666666666</ele><time>2026-04-25T17:12:05.006Z</time></trkpt><trkpt lat="43.77757643379901" lon="10.34081333622426"><ele>1.3333333333333333</ele><time>2026-04-25T17:12:06.006Z</time></trkpt><trkpt lat="43.777441087687805" lon="10.34102135544849"><ele>2.0</ele><time>2026-04-25T17:12:07.006Z</time></trkpt><trkpt lat="43.77731065024676" lon="10.341218721607586"><ele>1.3333333333333333</ele><time>2026-04-25T17:12:08.006Z</time></trkpt><trkpt lat="43.77717756734449" lon="10.341390458166845"><ele>0.6666666666666666</ele><time>2026-04-25T17:12:09.006Z</time></trkpt><trkpt lat="43.777042986580085" lon="10.341538321063847"><ele>0.0</ele><time>2026-04-25T17:12:10.006Z</time></trkpt><trkpt lat="43.7769090905962" lon="10.341635063952895"><ele>-0.25</ele><time>2026-04-25T17:12:11.006Z</time></trkpt><trkpt lat="43.77676959098338" lon="10.341688672342933"><ele>-0.5</ele><time>2026-04-25T17:12:12.006Z</time></trkpt><trkpt lat="43.776627972789925" lon="10.341703377522258"><ele>-0.75</ele><time>2026-04-25T17:12:13.005Z</time></trkpt><trkpt lat="43.77649284791946" lon="10.341642877959996"><ele>-1.0</ele><time>2026-04-25T17:12:14.005Z</time></trkpt><trkpt lat="43.7763525161591" lon="10.341596166544406"><ele>-1.0</ele><time>2026-04-25T17:12:15.005Z</time></trkpt><trkpt lat="43.77622797153568" lon="10.341476585715045"><ele>-1.0</ele><time>2026-04-25T17:12:16.005Z</time></trkpt><trkpt lat="43.77610879816292" lon="10.34134107179235"><ele>-1.0</ele><time>2026-04-25T17:12:17.005Z</time></trkpt><trkpt lat="43.77598903654119" lon="10.34119409973602"><ele>0.0</ele><time>2026-04-25T17:12:18.005Z</time></trkpt><trkpt lat="43.77587329331379" lon="10.341042988786363"><ele>1.0</ele><time>2026-04-25T17:12:19.005Z</time></trkpt><trkpt lat="43.77574511762811" lon="10.340888907428367"><ele>2.0</ele><time>2026-04-25T17:12:20.005Z</time></trkpt><trkpt lat="43.77560763669605" lon="10.340733976698615"><ele>2.0</ele><time>2026-04-25T17:12:21.005Z</time></trkpt><trkpt lat="43.775467906911516" lon="10.340582864501913"><ele>2.0</ele><time>2026-04-25T17:12:22.005Z</time></trkpt><trkpt lat="43.775344783642794" lon="10.34041397964461"><ele>2.0</ele><time>2026-04-25T17:12:23.005Z</time></trkpt><trkpt lat="43.775214622501544" lon="10.340259567786582"><ele>1.6666666666666665</ele><time>2026-04-25T17:12:24.005Z</time></trkpt><trkpt lat="43.77508985947019" lon="10.340114845019324"><ele>1.3333333333333333</ele><time>2026-04-25T17:12:25.005Z</time></trkpt><trkpt lat="43.774945228484945" lon="10.339960568926585"><ele>1.0</ele><time>2026-04-25T17:12:26.005Z</time></trkpt><trkpt lat="43.77476848482463" lon="10.339858008489097"><ele>1.0</ele><time>2026-04-25T17:12:27.005Z</time></trkpt><trkpt lat="43.774559130946216" lon="10.33984846916025"><ele>1.0</ele><time>2026-04-25T17:12:28.005Z</time></trkpt><trkpt lat="43.77434208359364" lon="10.339967206780107"><ele>1.0</ele><time>2026-04-25T17:12:29.005Z</time></trkpt><trkpt lat="43.77419016486709" lon="10.340216779651586"><ele>0.5</ele><time>2026-04-25T17:12:30.008Z</time></trkpt><trkpt lat="43.77409652072031" lon="10.34039505015603"><ele>0.0</ele><time>2026-04-25T17:12:31.007Z</time></trkpt><trkpt lat="43.77422520054251" lon="10.340030963351166"><ele>0.0</ele><time>2026-04-25T17:12:32.007Z</time></trkpt><trkpt lat="43.77415112026265" lon="10.340192434772751"><ele>0.0</ele><time>2026-04-25T17:12:33.007Z</time></trkpt><trkpt lat="43.77411648728507" lon="10.340361381511416"><ele>0.0</ele><time>2026-04-25T17:12:34.007Z</time></trkpt><trkpt lat="43.774106176450964" lon="10.340550755737828"><ele>0.0</ele><time>2026-04-25T17:12:35.007Z</time></trkpt><trkpt lat="43.77412064133923" lon="10.340740387651262"><ele>0.25</ele><time>2026-04-25T17:12:36.007Z</time></trkpt><trkpt lat="43.774167218250234" lon="10.34092499915379"><ele>0.5</ele><time>2026-04-25T17:12:37.007Z</time></trkpt><trkpt lat="43.77421784450022" lon="10.34110500726661"><ele>0.75</ele><time>2026-04-25T17:12:38.007Z</time></trkpt><trkpt lat="43.774276459532" lon="10.341301633345488"><ele>1.0</ele><time>2026-04-25T17:12:39.007Z</time></trkpt><trkpt lat="43.774328802296914" lon="10.341521443162494"><ele>1.0</ele><time>2026-04-25T17:12:40.006Z</time></trkpt><trkpt lat="43.77435082026305" lon="10.341757265468823"><ele>1.0</ele><time>2026-04-25T17:12:41.006Z</time></trkpt><trkpt lat="43.77434071631316" lon="10.341991230008812"><ele>1.0</ele><time>2026-04-25T17:12:42.007Z</time></trkpt><trkpt lat="43.774304487821155" lon="10.342222670565087"><ele>1.0</ele><time>2026-04-25T17:12:43.007Z</time></trkpt><trkpt lat="43.774247070808656" lon="10.342438994618702"><ele>1.0</ele><time>2026-04-25T17:12:44.007Z</time></trkpt><trkpt lat="43.77417394990244" lon="10.34263640541613"><ele>1.0</ele><time>2026-04-25T17:12:45.007Z</time></trkpt><trkpt lat="43.7740796966952" lon="10.342819799394968"><ele>1.0</ele><time>2026-04-25T17:12:46.007Z</time></trkpt><trkpt lat="43.77397290469181" lon="10.342997578647044"><ele>1.0</ele><time>2026-04-25T17:12:47.007Z</time></trkpt><trkpt lat="43.77385660712816" lon="10.343172750912457"><ele>1.0</ele><time>2026-04-25T17:12:48.007Z</time></trkpt><trkpt lat="43.773749641933925" lon="10.343340811139301"><ele>1.0</ele><time>2026-04-25T17:12:49.007Z</time></trkpt><trkpt lat="43.77363567416549" lon="10.343531296105956"><ele>1.0</ele><time>2026-04-25T17:12:50.007Z</time></trkpt><trkpt lat="43.77351652940027" lon="10.3437254872461"><ele>1.0</ele><time>2026-04-25T17:12:51.007Z</time></trkpt><trkpt lat="43.773390644775155" lon="10.343921766555162"><ele>1.0</ele><time>2026-04-25T17:12:52.007Z</time></trkpt><trkpt lat="43.773261180931804" lon="10.344124643922985"><ele>1.0</ele><time>2026-04-25T17:12:53.007Z</time></trkpt><trkpt lat="43.77312613665676" lon="10.344337087119559"><ele>1.0</ele><time>2026-04-25T17:12:54.007Z</time></trkpt><trkpt lat="43.772965909627395" lon="10.344569554790215"><ele>1.0</ele><time>2026-04-25T17:12:55.007Z</time></trkpt><trkpt lat="43.77282222389491" lon="10.344804616678356"><ele>1.0</ele><time>2026-04-25T17:12:56.007Z</time></trkpt><trkpt lat="43.77267238057233" lon="10.345042199385126"><ele>2.0</ele><time>2026-04-25T17:12:57.007Z</time></trkpt><trkpt lat="43.772517520895036" lon="10.345281610767904"><ele>3.0</ele><time>2026-04-25T17:12:58.007Z</time></trkpt><trkpt lat="43.772358843775244" lon="10.3455321449258"><ele>3.0</ele><time>2026-04-25T17:12:59.007Z</time></trkpt><trkpt lat="43.772196420200416" lon="10.345788123197515"><ele>3.0</ele><time>2026-04-25T17:13:00.007Z</time></trkpt><trkpt lat="43.77203496515403" lon="10.346052359261513"><ele>3.0</ele><time>2026-04-25T17:13:01.007Z</time></trkpt><trkpt lat="43.771876537702255" lon="10.346319843516351"><ele>3.0</ele><time>2026-04-25T17:13:02.007Z</time></trkpt><trkpt lat="43.77171081393338" lon="10.346588959351429"><ele>4.0</ele><time>2026-04-25T17:13:03.007Z</time></trkpt><trkpt lat="43.771546059724244" lon="10.346847279464864"><ele>5.0</ele><time>2026-04-25T17:13:04.007Z</time></trkpt><trkpt lat="43.7713835067017" lon="10.347113424648008"><ele>4.0</ele><time>2026-04-25T17:13:05.007Z</time></trkpt><trkpt lat="43.771216752843685" lon="10.347386651461537"><ele>3.0</ele><time>2026-04-25T17:13:06.007Z</time></trkpt><trkpt lat="43.771054923943886" lon="10.347665043457829"><ele>4.0</ele><time>2026-04-25T17:13:07.007Z</time></trkpt><trkpt lat="43.77089195296022" lon="10.347940471416727"><ele>5.0</ele><time>2026-04-25T17:13:08.007Z</time></trkpt><trkpt lat="43.770722730516695" lon="10.348209765408845"><ele>5.0</ele><time>2026-04-25T17:13:09.007Z</time></trkpt><trkpt lat="43.770540043100226" lon="10.348472259367494"><ele>5.0</ele><time>2026-04-25T17:13:10.006Z</time></trkpt><trkpt lat="43.770361671357534" lon="10.348746050634922"><ele>5.0</ele><time>2026-04-25T17:13:11.006Z</time></trkpt><trkpt lat="43.770180442705126" lon="10.349036024947175"><ele>5.0</ele><time>2026-04-25T17:13:12.006Z</time></trkpt><trkpt lat="43.76999595465711" lon="10.349326567607823"><ele>5.0</ele><time>2026-04-25T17:13:13.006Z</time></trkpt><trkpt lat="43.76981043154997" lon="10.349619060233103"><ele>5.0</ele><time>2026-04-25T17:13:14.006Z</time></trkpt><trkpt lat="43.76962380548549" lon="10.349916917086814"><ele>5.5</ele><time>2026-04-25T17:13:15.006Z</time></trkpt><trkpt lat="43.7694349208833" lon="10.35021687021027"><ele>6.0</ele><time>2026-04-25T17:13:16.006Z</time></trkpt><trkpt lat="43.76924807289642" lon="10.350514432717434"><ele>5.5</ele><time>2026-04-25T17:13:17.006Z</time></trkpt><trkpt lat="43.769053320253796" lon="10.350814526952625"><ele>5.0</ele><time>2026-04-25T17:13:18.006Z</time></trkpt><trkpt lat="43.76886283683869" lon="10.351123593069651"><ele>4.5</ele><time>2026-04-25T17:13:19.006Z</time></trkpt><trkpt lat="43.76867205482644" lon="10.351423942981885"><ele>4.0</ele><time>2026-04-25T17:13:20.006Z</time></trkpt><trkpt lat="43.76848292618203" lon="10.351732391456986"><ele>4.0</ele><time>2026-04-25T17:13:21.006Z</time></trkpt><trkpt lat="43.768287531008895" lon="10.352040909422389"><ele>4.0</ele><time>2026-04-25T17:13:22.006Z</time></trkpt><trkpt lat="43.7680944335776" lon="10.352341855066552"><ele>4.0</ele><time>2026-04-25T17:13:23.006Z</time></trkpt><trkpt lat="43.76790388332513" lon="10.352638974104956"><ele>4.0</ele><time>2026-04-25T17:13:24.006Z</time></trkpt><trkpt lat="43.767712431282256" lon="10.352925099966754"><ele>4.0</ele><time>2026-04-25T17:13:25.006Z</time></trkpt><trkpt lat="43.767514161040694" lon="10.353203656269066"><ele>4.0</ele><time>2026-04-25T17:13:26.006Z</time></trkpt><trkpt lat="43.76731232610889" lon="10.353473849882947"><ele>4.0</ele><time>2026-04-25T17:13:27.006Z</time></trkpt><trkpt lat="43.76710785548067" lon="10.353735519730177"><ele>4.0</ele><time>2026-04-25T17:13:28.006Z</time></trkpt><trkpt lat="43.76689865971195" lon="10.353996397787272"><ele>3.0</ele><time>2026-04-25T17:13:29.006Z</time></trkpt><trkpt lat="43.76668641135478" lon="10.354245117495925"><ele>2.0</ele><time>2026-04-25T17:13:30.006Z</time></trkpt><trkpt lat="43.766467417336784" lon="10.354490988002635"><ele>2.5</ele><time>2026-04-25T17:13:31.006Z</time></trkpt><trkpt lat="43.76624948428648" lon="10.354729741003737"><ele>3.0</ele><time>2026-04-25T17:13:32.006Z</time></trkpt><trkpt lat="43.76603049320767" lon="10.354970325138767"><ele>1.5</ele><time>2026-04-25T17:13:33.006Z</time></trkpt><trkpt lat="43.76580982584266" lon="10.35520809940641"><ele>0.0</ele><time>2026-04-25T17:13:34.006Z</time></trkpt><trkpt lat="43.76558353373794" lon="10.355438457977112"><ele>0.5</ele><time>2026-04-25T17:13:35.006Z</time></trkpt><trkpt lat="43.76535049248161" lon="10.355651472668498"><ele>1.0</ele><time>2026-04-25T17:13:36.006Z</time></trkpt><trkpt lat="43.76511316009822" lon="10.355853330636217"><ele>1.0</ele><time>2026-04-25T17:13:37.006Z</time></trkpt><trkpt lat="43.76487253830912" lon="10.35604864775233"><ele>1.0</ele><time>2026-04-25T17:13:38.006Z</time></trkpt><trkpt lat="43.76463333525555" lon="10.35624173623119"><ele>1.0</ele><time>2026-04-25T17:13:39.006Z</time></trkpt><trkpt lat="43.76438514235709" lon="10.35641998744585"><ele>1.0</ele><time>2026-04-25T17:13:40.006Z</time></trkpt><trkpt lat="43.764132092247635" lon="10.35658281741048"><ele>1.0</ele><time>2026-04-25T17:13:41.006Z</time></trkpt><trkpt lat="43.76388229254377" lon="10.356741348238701"><ele>1.0</ele><time>2026-04-25T17:13:42.006Z</time></trkpt><trkpt lat="43.76363039345284" lon="10.356895195424926"><ele>1.0</ele><time>2026-04-25T17:13:43.006Z</time></trkpt><trkpt lat="43.76337983084796" lon="10.357047834142445"><ele>1.0</ele><time>2026-04-25T17:13:44.006Z</time></trkpt><trkpt lat="43.76312722739293" lon="10.357193496289192"><ele>1.0</ele><time>2026-04-25T17:13:45.006Z</time></trkpt><trkpt lat="43.76287463520628" lon="10.357339699713302"><ele>1.0</ele><time>2026-04-25T17:13:46.006Z</time></trkpt><trkpt lat="43.762617758653164" lon="10.357474645083668"><ele>1.0</ele><time>2026-04-25T17:13:47.006Z</time></trkpt><trkpt lat="43.762358718128105" lon="10.357599979110717"><ele>1.0</ele><time>2026-04-25T17:13:48.006Z</time></trkpt><trkpt lat="43.762101036411956" lon="10.357713366965134"><ele>1.0</ele><time>2026-04-25T17:13:49.006Z</time></trkpt><trkpt lat="43.76183739742438" lon="10.357825289020873"><ele>1.0</ele><time>2026-04-25T17:13:50.006Z</time></trkpt><trkpt lat="43.76156418142506" lon="10.35792711730457"><ele>1.0</ele><time>2026-04-25T17:13:51.006Z</time></trkpt><trkpt lat="43.76129364885627" lon="10.35802631475664"><ele>1.0</ele><time>2026-04-25T17:13:52.006Z</time></trkpt><trkpt lat="43.7610216330534" lon="10.358116882241738"><ele>1.5</ele><time>2026-04-25T17:13:53.006Z</time></trkpt><trkpt lat="43.760745731461064" lon="10.358198421108844"><ele>2.0</ele><time>2026-04-25T17:13:54.006Z</time></trkpt><trkpt lat="43.76046960623109" lon="10.358272489462479"><ele>1.0</ele><time>2026-04-25T17:13:55.006Z</time></trkpt><trkpt lat="43.76019496464267" lon="10.358338806910794"><ele>0.0</ele><time>2026-04-25T17:13:56.006Z</time></trkpt><trkpt lat="43.759918856527015" lon="10.358393634860226"><ele>0.0</ele><time>2026-04-25T17:13:57.006Z</time></trkpt><trkpt lat="43.7596407982254" lon="10.35843963530209"><ele>0.0</ele><time>2026-04-25T17:13:58.006Z</time></trkpt><trkpt lat="43.75936514560684" lon="10.35848274917295"><ele>0.0</ele><time>2026-04-25T17:13:59.006Z</time></trkpt><trkpt lat="43.759088128120545" lon="10.358520834510072"><ele>0.0</ele><time>2026-04-25T17:14:00.006Z</time></trkpt><trkpt lat="43.75881104550591" lon="10.358549581343633"><ele>0.5</ele><time>2026-04-25T17:14:01.006Z</time></trkpt><trkpt lat="43.758534294002985" lon="10.358569112082648"><ele>1.0</ele><time>2026-04-25T17:14:02.006Z</time></trkpt><trkpt lat="43.758260248547074" lon="10.358582469424489"><ele>1.0</ele><time>2026-04-25T17:14:03.006Z</time></trkpt><trkpt lat="43.757982545997535" lon="10.358584778520097"><ele>1.0</ele><time>2026-04-25T17:14:04.006Z</time></trkpt><trkpt lat="43.75770754349368" lon="10.358579446763"><ele>1.0</ele><time>2026-04-25T17:14:05.006Z</time></trkpt><trkpt lat="43.75742851993638" lon="10.358559809185689"><ele>1.0</ele><time>2026-04-25T17:14:06.006Z</time></trkpt><trkpt lat="43.75715079296222" lon="10.358537912064785"><ele>1.0</ele><time>2026-04-25T17:14:07.006Z</time></trkpt><trkpt lat="43.75686876441237" lon="10.358508649284168"><ele>1.0</ele><time>2026-04-25T17:14:08.006Z</time></trkpt><trkpt lat="43.75658715668187" lon="10.358471648634332"><ele>1.0</ele><time>2026-04-25T17:14:09.006Z</time></trkpt><trkpt lat="43.75630381852169" lon="10.358422944711068"><ele>1.0</ele><time>2026-04-25T17:14:10.006Z</time></trkpt><trkpt lat="43.75602441361518" lon="10.358369864163308"><ele>0.5</ele><time>2026-04-25T17:14:11.006Z</time></trkpt><trkpt lat="43.75574524608055" lon="10.358306211152637"><ele>0.0</ele><time>2026-04-25T17:14:12.006Z</time></trkpt><trkpt lat="43.75546703492078" lon="10.35822974874459"><ele>0.0</ele><time>2026-04-25T17:14:13.006Z</time></trkpt><trkpt lat="43.755183565542204" lon="10.358153062976644"><ele>0.0</ele><time>2026-04-25T17:14:14.006Z</time></trkpt><trkpt lat="43.754905241180225" lon="10.358066999393762"><ele>0.0</ele><time>2026-04-25T17:14:15.006Z</time></trkpt><trkpt lat="43.75462595091037" lon="10.357979856998584"><ele>0.0</ele><time>2026-04-25T17:14:16.006Z</time></trkpt><trkpt lat="43.75435142006157" lon="10.357889648896792"><ele>0.5</ele><time>2026-04-25T17:14:17.006Z</time></trkpt><trkpt lat="43.75407258453578" lon="10.357799116411256"><ele>1.0</ele><time>2026-04-25T17:14:18.006Z</time></trkpt><trkpt lat="43.753796142102445" lon="10.357709832340422"><ele>1.5</ele><time>2026-04-25T17:14:19.006Z</time></trkpt><trkpt lat="43.75351755755027" lon="10.35762114261121"><ele>2.0</ele><time>2026-04-25T17:14:20.006Z</time></trkpt><trkpt lat="43.753237021035375" lon="10.357532296167747"><ele>2.0</ele><time>2026-04-25T17:14:21.006Z</time></trkpt><trkpt lat="43.75295633262476" lon="10.35744857960409"><ele>2.0</ele><time>2026-04-25T17:14:22.006Z</time></trkpt><trkpt lat="43.7526731752312" lon="10.357358782039945"><ele>2.0</ele><time>2026-04-25T17:14:23.006Z</time></trkpt><trkpt lat="43.7523944231736" lon="10.357272817719055"><ele>2.0</ele><time>2026-04-25T17:14:24.006Z</time></trkpt><trkpt lat="43.75211704415924" lon="10.357183167989547"><ele>2.5</ele><time>2026-04-25T17:14:25.006Z</time></trkpt><trkpt lat="43.75183959156717" lon="10.357092590872137"><ele>3.0</ele><time>2026-04-25T17:14:26.006Z</time></trkpt><trkpt lat="43.75155913890125" lon="10.35700048063121"><ele>3.0</ele><time>2026-04-25T17:14:27.006Z</time></trkpt><trkpt lat="43.7512797687094" lon="10.356912870348612"><ele>3.0</ele><time>2026-04-25T17:14:28.006Z</time></trkpt><trkpt lat="43.7510001424917" lon="10.356822288313378"><ele>3.5</ele><time>2026-04-25T17:14:29.006Z</time></trkpt><trkpt lat="43.75071763425842" lon="10.35673291535587"><ele>4.0</ele><time>2026-04-25T17:14:30.006Z</time></trkpt><trkpt lat="43.750436911877266" lon="10.356640571142908"><ele>2.5</ele><time>2026-04-25T17:14:31.006Z</time></trkpt><trkpt lat="43.7501562716368" lon="10.356550567264636"><ele>1.0</ele><time>2026-04-25T17:14:32.005Z</time></trkpt><trkpt lat="43.74987678171816" lon="10.356462653541017"><ele>1.0</ele><time>2026-04-25T17:14:33.005Z</time></trkpt><trkpt lat="43.74959668328313" lon="10.356374292588187"><ele>1.0</ele><time>2026-04-25T17:14:34.005Z</time></trkpt><trkpt lat="43.74931234877592" lon="10.356283931495312"><ele>0.5</ele><time>2026-04-25T17:14:35.005Z</time></trkpt><trkpt lat="43.74902902490679" lon="10.35619769540401"><ele>0.0</ele><time>2026-04-25T17:14:36.008Z</time></trkpt><trkpt lat="43.748744098472095" lon="10.35611121924908"><ele>0.5</ele><time>2026-04-25T17:14:37.007Z</time></trkpt><trkpt lat="43.748458639100335" lon="10.356021039952061"><ele>1.0</ele><time>2026-04-25T17:14:38.007Z</time></trkpt><trkpt lat="43.74817088890367" lon="10.35593182906452"><ele>1.0</ele><time>2026-04-25T17:14:39.008Z</time></trkpt><trkpt lat="43.747884667247874" lon="10.355843237281686"><ele>1.0</ele><time>2026-04-25T17:14:40.007Z</time></trkpt><trkpt lat="43.747597135014246" lon="10.355751998920159"><ele>1.0</ele><time>2026-04-25T17:14:41.007Z</time></trkpt><trkpt lat="43.74730870427093" lon="10.355658974673087"><ele>1.0</ele><time>2026-04-25T17:14:42.008Z</time></trkpt><trkpt lat="43.74702597046325" lon="10.355565957323456"><ele>0.5</ele><time>2026-04-25T17:14:43.007Z</time></trkpt><trkpt lat="43.74674346992811" lon="10.355475177847762"><ele>0.0</ele><time>2026-04-25T17:14:44.007Z</time></trkpt><trkpt lat="43.74645898268978" lon="10.35538459592025"><ele>0.0</ele><time>2026-04-25T17:14:45.007Z</time></trkpt><trkpt lat="43.746178582792574" lon="10.355294508814996"><ele>0.0</ele><time>2026-04-25T17:14:46.007Z</time></trkpt><trkpt lat="43.74590591690364" lon="10.355206348876706"><ele>-0.5</ele><time>2026-04-25T17:14:47.007Z</time></trkpt><trkpt lat="43.745619839176776" lon="10.355111834343774"><ele>-1.0</ele><time>2026-04-25T17:14:48.008Z</time></trkpt><trkpt lat="43.745339204104724" lon="10.355025789969059"><ele>-0.5</ele><time>2026-04-25T17:14:49.007Z</time></trkpt><trkpt lat="43.74506362422819" lon="10.354941280314664"><ele>0.0</ele><time>2026-04-25T17:14:50.007Z</time></trkpt><trkpt lat="43.74478685932027" lon="10.354852784416105"><ele>0.0</ele><time>2026-04-25T17:14:51.007Z</time></trkpt><trkpt lat="43.744509226251445" lon="10.354766533524433"><ele>0.0</ele><time>2026-04-25T17:14:52.007Z</time></trkpt><trkpt lat="43.744228148239266" lon="10.35467611574784"><ele>0.5</ele><time>2026-04-25T17:14:53.007Z</time></trkpt><trkpt lat="43.7439477752343" lon="10.354580993824111"><ele>1.0</ele><time>2026-04-25T17:14:54.007Z</time></trkpt><trkpt lat="43.74366654246255" lon="10.354488838056811"><ele>2.0</ele><time>2026-04-25T17:14:55.007Z</time></trkpt><trkpt lat="43.743386697605104" lon="10.35440079365453"><ele>3.0</ele><time>2026-04-25T17:14:56.007Z</time></trkpt><trkpt lat="43.743102649227346" lon="10.354315528468772"><ele>3.0</ele><time>2026-04-25T17:14:57.007Z</time></trkpt><trkpt lat="43.742818691970264" lon="10.354225813907675"><ele>3.0</ele><time>2026-04-25T17:14:58.007Z</time></trkpt><trkpt lat="43.74253617239191" lon="10.354134521742239"><ele>2.5</ele><time>2026-04-25T17:14:59.007Z</time></trkpt><trkpt lat="43.74225780410175" lon="10.354045521306862"><ele>2.0</ele><time>2026-04-25T17:15:00.007Z</time></trkpt><trkpt lat="43.7419812234182" lon="10.353954772128768"><ele>2.5</ele><time>2026-04-25T17:15:01.007Z</time></trkpt><trkpt lat="43.741705224596295" lon="10.35386976085661"><ele>3.0</ele><time>2026-04-25T17:15:02.007Z</time></trkpt><trkpt lat="43.74143015950287" lon="10.353783829448668"><ele>3.0</ele><time>2026-04-25T17:15:03.007Z</time></trkpt><trkpt lat="43.74115576303583" lon="10.353699962623546"><ele>3.0</ele><time>2026-04-25T17:15:04.007Z</time></trkpt><trkpt lat="43.74088859884459" lon="10.353615349267276"><ele>1.5</ele><time>2026-04-25T17:15:05.007Z</time></trkpt><trkpt lat="43.74062123814407" lon="10.3535326706467"><ele>0.0</ele><time>2026-04-25T17:15:06.007Z</time></trkpt><trkpt lat="43.74035601874641" lon="10.35345181383521"><ele>0.0</ele><time>2026-04-25T17:15:07.007Z</time></trkpt><trkpt lat="43.740091032962" lon="10.353366350401979"><ele>0.0</ele><time>2026-04-25T17:15:08.007Z</time></trkpt><trkpt lat="43.73982664424117" lon="10.353280764149053"><ele>0.0</ele><time>2026-04-25T17:15:09.007Z</time></trkpt><trkpt lat="43.739562875378205" lon="10.35320004310457"><ele>0.0</ele><time>2026-04-25T17:15:10.007Z</time></trkpt><trkpt lat="43.73929865289512" lon="10.353111992044175"><ele>1.0</ele><time>2026-04-25T17:15:11.007Z</time></trkpt><trkpt lat="43.73903640749278" lon="10.353026243968728"><ele>2.0</ele><time>2026-04-25T17:15:12.007Z</time></trkpt><trkpt lat="43.73877183296939" lon="10.3529402425311"><ele>2.0</ele><time>2026-04-25T17:15:13.007Z</time></trkpt><trkpt lat="43.73850480268144" lon="10.352853195750619"><ele>2.0</ele><time>2026-04-25T17:15:14.007Z</time></trkpt><trkpt lat="43.7382374974521" lon="10.35276966554943"><ele>2.0</ele><time>2026-04-25T17:15:15.007Z</time></trkpt><trkpt lat="43.73796980173699" lon="10.352686631350478"><ele>2.0</ele><time>2026-04-25T17:15:16.007Z</time></trkpt><trkpt lat="43.73770722313266" lon="10.35260902681241"><ele>3.0</ele><time>2026-04-25T17:15:17.007Z</time></trkpt><trkpt lat="43.73743671465225" lon="10.35252472978066"><ele>4.0</ele><time>2026-04-25T17:15:18.007Z</time></trkpt><trkpt lat="43.73717317817746" lon="10.352436591825812"><ele>4.0</ele><time>2026-04-25T17:15:19.007Z</time></trkpt><trkpt lat="43.73690737645184" lon="10.35235301713581"><ele>4.0</ele><time>2026-04-25T17:15:20.007Z</time></trkpt><trkpt lat="43.73664496239675" lon="10.352268428387259"><ele>4.5</ele><time>2026-04-25T17:15:21.007Z</time></trkpt><trkpt lat="43.73638627537004" lon="10.352181564030436"><ele>5.0</ele><time>2026-04-25T17:15:22.007Z</time></trkpt><trkpt lat="43.73612593159636" lon="10.352101311424068"><ele>4.5</ele><time>2026-04-25T17:15:23.007Z</time></trkpt><trkpt lat="43.73586510076588" lon="10.352022032526255"><ele>4.0</ele><time>2026-04-25T17:15:24.007Z</time></trkpt><trkpt lat="43.73560160242033" lon="10.351939935150938"><ele>4.0</ele><time>2026-04-25T17:15:25.007Z</time></trkpt><trkpt lat="43.73533748065269" lon="10.351852539815498"><ele>4.0</ele><time>2026-04-25T17:15:26.007Z</time></trkpt><trkpt lat="43.73507161763932" lon="10.351767423077705"><ele>2.0</ele><time>2026-04-25T17:15:27.007Z</time></trkpt><trkpt lat="43.73480393579138" lon="10.351693918371046"><ele>0.0</ele><time>2026-04-25T17:15:28.007Z</time></trkpt><trkpt lat="43.73452644064346" lon="10.351632058918641"><ele>0.0</ele><time>2026-04-25T17:15:29.007Z</time></trkpt><trkpt lat="43.73425484721413" lon="10.35156204601947"><ele>0.0</ele><time>2026-04-25T17:15:30.007Z</time></trkpt><trkpt lat="43.73398898142676" lon="10.351480801420083"><ele>0.0</ele><time>2026-04-25T17:15:31.007Z</time></trkpt><trkpt lat="43.73372307878941" lon="10.351394508141983"><ele>0.0</ele><time>2026-04-25T17:15:32.007Z</time></trkpt><trkpt lat="43.733455839794956" lon="10.351308741251197"><ele>1.0</ele><time>2026-04-25T17:15:33.007Z</time></trkpt><trkpt lat="43.7331862706943" lon="10.351224695650835"><ele>2.0</ele><time>2026-04-25T17:15:34.007Z</time></trkpt><trkpt lat="43.7329149634796" lon="10.351149742000842"><ele>2.0</ele><time>2026-04-25T17:15:35.007Z</time></trkpt><trkpt lat="43.73264522253921" lon="10.351079195808868"><ele>2.0</ele><time>2026-04-25T17:15:36.007Z</time></trkpt><trkpt lat="43.7323752061919" lon="10.35103112277985"><ele>2.0</ele><time>2026-04-25T17:15:37.007Z</time></trkpt><trkpt lat="43.7321050289073" lon="10.350989700458621"><ele>2.0</ele><time>2026-04-25T17:15:38.007Z</time></trkpt><trkpt lat="43.731829589912536" lon="10.350956698754315"><ele>1.5</ele><time>2026-04-25T17:15:39.007Z</time></trkpt><trkpt lat="43.731555681145835" lon="10.350923015592043"><ele>1.0</ele><time>2026-04-25T17:15:40.007Z</time></trkpt><trkpt lat="43.73128185761505" lon="10.35089208046859"><ele>0.0</ele><time>2026-04-25T17:15:41.007Z</time></trkpt><trkpt lat="43.73100664263618" lon="10.350863189994937"><ele>-1.0</ele><time>2026-04-25T17:15:42.007Z</time></trkpt><trkpt lat="43.73073136373185" lon="10.350834267328572"><ele>-1.0</ele><time>2026-04-25T17:15:43.007Z</time></trkpt><trkpt lat="43.730458436536495" lon="10.350807733365764"><ele>-1.0</ele><time>2026-04-25T17:15:44.007Z</time></trkpt><trkpt lat="43.73018561110489" lon="10.350781215754292"><ele>-1.0</ele><time>2026-04-25T17:15:45.007Z</time></trkpt><trkpt lat="43.729914372895706" lon="10.350755138962775"><ele>-1.0</ele><time>2026-04-25T17:15:46.007Z</time></trkpt><trkpt lat="43.7296444296049" lon="10.35072960461757"><ele>-1.5</ele><time>2026-04-25T17:15:47.007Z</time></trkpt><trkpt lat="43.72937692184575" lon="10.350703535621856"><ele>-2.0</ele><time>2026-04-25T17:15:48.007Z</time></trkpt><trkpt lat="43.72911038043307" lon="10.350678810691306"><ele>-2.0</ele><time>2026-04-25T17:15:49.007Z</time></trkpt><trkpt lat="43.7288424292523" lon="10.35065876089953"><ele>-2.0</ele><time>2026-04-25T17:15:50.007Z</time></trkpt><trkpt lat="43.72857225669413" lon="10.35063461279317"><ele>-2.0</ele><time>2026-04-25T17:15:51.007Z</time></trkpt><trkpt lat="43.728301950663216" lon="10.350615441185829"><ele>-2.0</ele><time>2026-04-25T17:15:52.007Z</time></trkpt><trkpt lat="43.728034708330505" lon="10.350602973384802"><ele>-2.0</ele><time>2026-04-25T17:15:53.007Z</time></trkpt><trkpt lat="43.727764846882984" lon="10.350580582183046"><ele>-2.0</ele><time>2026-04-25T17:15:54.007Z</time></trkpt><trkpt lat="43.72749294310999" lon="10.350549704777729"><ele>-1.5</ele><time>2026-04-25T17:15:55.007Z</time></trkpt><trkpt lat="43.72722118633397" lon="10.350509467218275"><ele>-1.0</ele><time>2026-04-25T17:15:56.007Z</time></trkpt><trkpt lat="43.72695077911665" lon="10.350463880846286"><ele>-1.0</ele><time>2026-04-25T17:15:57.007Z</time></trkpt><trkpt lat="43.726684708232334" lon="10.35042551032966"><ele>-1.0</ele><time>2026-04-25T17:15:58.007Z</time></trkpt><trkpt lat="43.72641862039589" lon="10.350396886163944"><ele>-1.0</ele><time>2026-04-25T17:15:59.007Z</time></trkpt><trkpt lat="43.72615318810444" lon="10.350371562543915"><ele>-1.0</ele><time>2026-04-25T17:16:00.007Z</time></trkpt><trkpt lat="43.725888726076576" lon="10.350345458915388"><ele>0.0</ele><time>2026-04-25T17:16:01.006Z</time></trkpt><trkpt lat="43.72562523008849" lon="10.350319432771743"><ele>1.0</ele><time>2026-04-25T17:16:02.006Z</time></trkpt><trkpt lat="43.725362909925835" lon="10.350295029550248"><ele>1.0</ele><time>2026-04-25T17:16:03.006Z</time></trkpt><trkpt lat="43.72510652881489" lon="10.350263657066881"><ele>1.0</ele><time>2026-04-25T17:16:04.006Z</time></trkpt><trkpt lat="43.72485377000031" lon="10.350238521069418"><ele>1.0</ele><time>2026-04-25T17:16:05.006Z</time></trkpt><trkpt lat="43.72459747536284" lon="10.3502137691366"><ele>1.0</ele><time>2026-04-25T17:16:06.006Z</time></trkpt><trkpt lat="43.724337066424866" lon="10.350190866820773"><ele>2.0</ele><time>2026-04-25T17:16:07.006Z</time></trkpt><trkpt lat="43.72407357697572" lon="10.350163170397643"><ele>3.0</ele><time>2026-04-25T17:16:08.006Z</time></trkpt><trkpt lat="43.72380893761309" lon="10.3501369662739"><ele>2.5</ele><time>2026-04-25T17:16:09.006Z</time></trkpt><trkpt lat="43.72354706187764" lon="10.350106115804312"><ele>2.0</ele><time>2026-04-25T17:16:10.006Z</time></trkpt><trkpt lat="43.72328523185463" lon="10.35008123527971"><ele>2.0</ele><time>2026-04-25T17:16:11.006Z</time></trkpt><trkpt lat="43.723025012291345" lon="10.350060772649648"><ele>2.0</ele><time>2026-04-25T17:16:12.006Z</time></trkpt><trkpt lat="43.72276022277599" lon="10.35003426634035"><ele>3.5</ele><time>2026-04-25T17:16:13.006Z</time></trkpt><trkpt lat="43.72249631705624" lon="10.35000798099965"><ele>5.0</ele><time>2026-04-25T17:16:14.006Z</time></trkpt><trkpt lat="43.72222632288262" lon="10.349988068084205"><ele>5.0</ele><time>2026-04-25T17:16:15.006Z</time></trkpt><trkpt lat="43.72195763803664" lon="10.349961045532085"><ele>5.0</ele><time>2026-04-25T17:16:16.006Z</time></trkpt><trkpt lat="43.72169105429568" lon="10.349938767949265"><ele>5.5</ele><time>2026-04-25T17:16:17.006Z</time></trkpt><trkpt lat="43.72142430754948" lon="10.349915244042538"><ele>6.0</ele><time>2026-04-25T17:16:18.006Z</time></trkpt><trkpt lat="43.721154050980225" lon="10.349881615173791"><ele>5.5</ele><time>2026-04-25T17:16:19.006Z</time></trkpt><trkpt lat="43.72088809505058" lon="10.349853017420065"><ele>5.0</ele><time>2026-04-25T17:16:20.006Z</time></trkpt><trkpt lat="43.72061623377404" lon="10.34982242186446"><ele>5.0</ele><time>2026-04-25T17:16:21.006Z</time></trkpt><trkpt lat="43.72034664180116" lon="10.3497981051996"><ele>5.0</ele><time>2026-04-25T17:16:22.006Z</time></trkpt><trkpt lat="43.72007559079355" lon="10.349770185991973"><ele>4.0</ele><time>2026-04-25T17:16:23.006Z</time></trkpt><trkpt lat="43.719805845479236" lon="10.349736479881082"><ele>3.0</ele><time>2026-04-25T17:16:24.006Z</time></trkpt><trkpt lat="43.719537076427144" lon="10.349712104877986"><ele>1.5</ele><time>2026-04-25T17:16:25.006Z</time></trkpt><trkpt lat="43.719264819100886" lon="10.34968673029765"><ele>0.0</ele><time>2026-04-25T17:16:26.006Z</time></trkpt><trkpt lat="43.71899807139083" lon="10.34965349023795"><ele>0.0</ele><time>2026-04-25T17:16:27.006Z</time></trkpt><trkpt lat="43.71872780471828" lon="10.349627237328328"><ele>0.0</ele><time>2026-04-25T17:16:28.006Z</time></trkpt><trkpt lat="43.71846241229653" lon="10.349599978045056"><ele>-0.5</ele><time>2026-04-25T17:16:29.006Z</time></trkpt><trkpt lat="43.71819346822061" lon="10.349574512954158"><ele>-1.0</ele><time>2026-04-25T17:16:30.006Z</time></trkpt><trkpt lat="43.71792648350091" lon="10.349548959946022"><ele>-1.0</ele><time>2026-04-25T17:16:31.006Z</time></trkpt><trkpt lat="43.717663282629076" lon="10.349523349891617"><ele>-1.0</ele><time>2026-04-25T17:16:32.006Z</time></trkpt><trkpt lat="43.71739989765317" lon="10.349499155131166"><ele>-1.0</ele><time>2026-04-25T17:16:33.006Z</time></trkpt><trkpt lat="43.71713818390152" lon="10.34947165282312"><ele>-1.0</ele><time>2026-04-25T17:16:34.006Z</time></trkpt><trkpt lat="43.71687652368637" lon="10.349443361184026"><ele>-1.0</ele><time>2026-04-25T17:16:35.006Z</time></trkpt><trkpt lat="43.71661156896294" lon="10.34941851310272"><ele>-1.0</ele><time>2026-04-25T17:16:36.006Z</time></trkpt><trkpt lat="43.71634486149529" lon="10.349390297839696"><ele>-1.0</ele><time>2026-04-25T17:16:37.006Z</time></trkpt><trkpt lat="43.71607944913275" lon="10.349360197877798"><ele>-1.0</ele><time>2026-04-25T17:16:38.006Z</time></trkpt><trkpt lat="43.71581715170589" lon="10.349330628244022"><ele>-1.0</ele><time>2026-04-25T17:16:39.006Z</time></trkpt><trkpt lat="43.71555512362245" lon="10.349309669014835"><ele>-1.0</ele><time>2026-04-25T17:16:40.006Z</time></trkpt><trkpt lat="43.715290797877536" lon="10.349282681585567"><ele>-1.5</ele><time>2026-04-25T17:16:41.006Z</time></trkpt><trkpt lat="43.71502686058601" lon="10.34925445384962"><ele>-2.0</ele><time>2026-04-25T17:16:42.008Z</time></trkpt><trkpt lat="43.714765840811964" lon="10.3492291056277"><ele>-2.0</ele><time>2026-04-25T17:16:43.007Z</time></trkpt><trkpt lat="43.71450422042952" lon="10.349201124952565"><ele>-2.0</ele><time>2026-04-25T17:16:44.007Z</time></trkpt><trkpt lat="43.71424060894651" lon="10.349172670758175"><ele>-1.5</ele><time>2026-04-25T17:16:45.008Z</time></trkpt><trkpt lat="43.71397791672857" lon="10.349142387881601"><ele>-1.0</ele><time>2026-04-25T17:16:46.007Z</time></trkpt><trkpt lat="43.713715008208005" lon="10.34911453315742"><ele>-1.0</ele><time>2026-04-25T17:16:47.007Z</time></trkpt><trkpt lat="43.71345269165345" lon="10.349090743510315"><ele>-1.0</ele><time>2026-04-25T17:16:48.007Z</time></trkpt><trkpt lat="43.71319203307501" lon="10.349065164958654"><ele>-1.0</ele><time>2026-04-25T17:16:49.007Z</time></trkpt><trkpt lat="43.712927952011896" lon="10.34903289197229"><ele>-1.0</ele><time>2026-04-25T17:16:50.007Z</time></trkpt><trkpt lat="43.712664732198455" lon="10.349009212777254"><ele>-1.0</ele><time>2026-04-25T17:16:51.008Z</time></trkpt><trkpt lat="43.71239855282852" lon="10.348988438087968"><ele>-1.0</ele><time>2026-04-25T17:16:52.008Z</time></trkpt><trkpt lat="43.712132385763084" lon="10.348967311868334"><ele>-1.0</ele><time>2026-04-25T17:16:53.008Z</time></trkpt><trkpt lat="43.71186339013617" lon="10.348941480242624"><ele>-1.0</ele><time>2026-04-25T17:16:54.008Z</time></trkpt><trkpt lat="43.71159493761933" lon="10.348924915720154"><ele>-1.0</ele><time>2026-04-25T17:16:55.008Z</time></trkpt><trkpt lat="43.71132866410835" lon="10.34892010432488"><ele>-1.0</ele><time>2026-04-25T17:16:56.008Z</time></trkpt><trkpt lat="43.711055131699595" lon="10.34891500411731"><ele>-1.0</ele><time>2026-04-25T17:16:57.008Z</time></trkpt><trkpt lat="43.71078280490806" lon="10.348921420751822"><ele>-1.0</ele><time>2026-04-25T17:16:58.008Z</time></trkpt><trkpt lat="43.71050766112295" lon="10.34893142768815"><ele>-1.0</ele><time>2026-04-25T17:16:59.008Z</time></trkpt><trkpt lat="43.71023109463714" lon="10.348945709617107"><ele>-1.0</ele><time>2026-04-25T17:17:00.008Z</time></trkpt><trkpt lat="43.70995432508214" lon="10.348970756542565"><ele>-1.0</ele><time>2026-04-25T17:17:01.008Z</time></trkpt><trkpt lat="43.70967471750726" lon="10.348998560748287"><ele>-1.0</ele><time>2026-04-25T17:17:02.008Z</time></trkpt><trkpt lat="43.70939522368704" lon="10.349028445711488"><ele>-1.0</ele><time>2026-04-25T17:17:03.008Z</time></trkpt><trkpt lat="43.709119898147215" lon="10.349059978355275"><ele>-1.0</ele><time>2026-04-25T17:17:04.008Z</time></trkpt><trkpt lat="43.70884800447747" lon="10.349103715501194"><ele>-1.0</ele><time>2026-04-25T17:17:05.008Z</time></trkpt><trkpt lat="43.70858052479331" lon="10.349151170873457"><ele>-1.0</ele><time>2026-04-25T17:17:06.008Z</time></trkpt><trkpt lat="43.70831488896327" lon="10.34920459068621"><ele>-0.5</ele><time>2026-04-25T17:17:07.008Z</time></trkpt><trkpt lat="43.70805463902965" lon="10.349261589566797"><ele>0.0</ele><time>2026-04-25T17:17:08.008Z</time></trkpt><trkpt lat="43.70779558324733" lon="10.349324507024917"><ele>1.0</ele><time>2026-04-25T17:17:09.008Z</time></trkpt><trkpt lat="43.70753289055511" lon="10.349393536382209"><ele>2.0</ele><time>2026-04-25T17:17:10.008Z</time></trkpt><trkpt lat="43.70726764714618" lon="10.349469254868755"><ele>2.0</ele><time>2026-04-25T17:17:11.008Z</time></trkpt><trkpt lat="43.70699718164325" lon="10.349551134300377"><ele>2.0</ele><time>2026-04-25T17:17:12.008Z</time></trkpt><trkpt lat="43.70672419648885" lon="10.34963261741485"><ele>2.0</ele><time>2026-04-25T17:17:13.008Z</time></trkpt><trkpt lat="43.706450498963825" lon="10.34971065289933"><ele>2.0</ele><time>2026-04-25T17:17:14.008Z</time></trkpt><trkpt lat="43.70617927594874" lon="10.34978474254963"><ele>2.0</ele><time>2026-04-25T17:17:15.008Z</time></trkpt><trkpt lat="43.70590760477761" lon="10.349858469280692"><ele>2.0</ele><time>2026-04-25T17:17:16.008Z</time></trkpt><trkpt lat="43.70563271747643" lon="10.349932338354108"><ele>2.0</ele><time>2026-04-25T17:17:17.008Z</time></trkpt><trkpt lat="43.70536358316168" lon="10.350009562222684"><ele>2.0</ele><time>2026-04-25T17:17:18.008Z</time></trkpt><trkpt lat="43.70509490594281" lon="10.350081875328058"><ele>2.0</ele><time>2026-04-25T17:17:19.008Z</time></trkpt><trkpt lat="43.704820133392076" lon="10.350157435080488"><ele>2.0</ele><time>2026-04-25T17:17:20.008Z</time></trkpt><trkpt lat="43.704546812431914" lon="10.350235543437162"><ele>2.5</ele><time>2026-04-25T17:17:21.008Z</time></trkpt><trkpt lat="43.704272981058594" lon="10.350315937567142"><ele>3.0</ele><time>2026-04-25T17:17:22.008Z</time></trkpt><trkpt lat="43.7039970840935" lon="10.35039631472145"><ele>3.0</ele><time>2026-04-25T17:17:23.008Z</time></trkpt><trkpt lat="43.70372417292391" lon="10.350474943229905"><ele>3.0</ele><time>2026-04-25T17:17:24.008Z</time></trkpt><trkpt lat="43.70344929034072" lon="10.350551616884715"><ele>2.0</ele><time>2026-04-25T17:17:25.008Z</time></trkpt><trkpt lat="43.70317877190349" lon="10.350631661913425"><ele>1.0</ele><time>2026-04-25T17:17:26.008Z</time></trkpt><trkpt lat="43.70290988173886" lon="10.350708957749722"><ele>0.5</ele><time>2026-04-25T17:17:27.008Z</time></trkpt><trkpt lat="43.70263706242981" lon="10.350787887701216"><ele>0.0</ele><time>2026-04-25T17:17:28.008Z</time></trkpt><trkpt lat="43.70236255571253" lon="10.350861450291873"><ele>0.0</ele><time>2026-04-25T17:17:29.008Z</time></trkpt><trkpt lat="43.70208787739776" lon="10.350933732188356"><ele>0.0</ele><time>2026-04-25T17:17:30.008Z</time></trkpt><trkpt lat="43.70181132670848" lon="10.35100799206478"><ele>0.5</ele><time>2026-04-25T17:17:31.008Z</time></trkpt><trkpt lat="43.70153461097681" lon="10.351088023940704"><ele>1.0</ele><time>2026-04-25T17:17:32.008Z</time></trkpt><trkpt lat="43.701257343495456" lon="10.35116499014618"><ele>1.0</ele><time>2026-04-25T17:17:33.008Z</time></trkpt><trkpt lat="43.70098177394215" lon="10.351244045642366"><ele>1.0</ele><time>2026-04-25T17:17:34.008Z</time></trkpt><trkpt lat="43.70070704287924" lon="10.351322883935415"><ele>1.0</ele><time>2026-04-25T17:17:35.008Z</time></trkpt><trkpt lat="43.70042954341479" lon="10.351398474253562"><ele>1.0</ele><time>2026-04-25T17:17:36.008Z</time></trkpt><trkpt lat="43.70014977982487" lon="10.351475802764991"><ele>1.0</ele><time>2026-04-25T17:17:37.008Z</time></trkpt><trkpt lat="43.6998711089078" lon="10.351557373035591"><ele>1.0</ele><time>2026-04-25T17:17:38.008Z</time></trkpt><trkpt lat="43.69959422309229" lon="10.351637128232651"><ele>1.5</ele><time>2026-04-25T17:17:39.008Z</time></trkpt><trkpt lat="43.69931414930959" lon="10.351714729713276"><ele>2.0</ele><time>2026-04-25T17:17:40.008Z</time></trkpt><trkpt lat="43.69903725860087" lon="10.351792720921072"><ele>2.0</ele><time>2026-04-25T17:17:41.008Z</time></trkpt><trkpt lat="43.69876291932966" lon="10.351871858978113"><ele>2.0</ele><time>2026-04-25T17:17:42.008Z</time></trkpt><trkpt lat="43.698490545803274" lon="10.351947052827256"><ele>1.0</ele><time>2026-04-25T17:17:43.008Z</time></trkpt><trkpt lat="43.69821506995031" lon="10.352023145649026"><ele>0.0</ele><time>2026-04-25T17:17:44.008Z</time></trkpt><trkpt lat="43.69794281441075" lon="10.352102367745792"><ele>1.0</ele><time>2026-04-25T17:17:45.008Z</time></trkpt><trkpt lat="43.69767126261232" lon="10.35218032684466"><ele>2.0</ele><time>2026-04-25T17:17:46.008Z</time></trkpt><trkpt lat="43.69739795998475" lon="10.352256064810812"><ele>2.0</ele><time>2026-04-25T17:17:47.008Z</time></trkpt><trkpt lat="43.69712787605687" lon="10.35233069621107"><ele>2.0</ele><time>2026-04-25T17:17:48.008Z</time></trkpt><trkpt lat="43.69685824429522" lon="10.352405038362013"><ele>2.5</ele><time>2026-04-25T17:17:49.008Z</time></trkpt><trkpt lat="43.69658732592987" lon="10.352482384490347"><ele>3.0</ele><time>2026-04-25T17:17:50.008Z</time></trkpt><trkpt lat="43.69631388174531" lon="10.352556880549994"><ele>3.0</ele><time>2026-04-25T17:17:51.008Z</time></trkpt><trkpt lat="43.69604013520746" lon="10.352633859049488"><ele>3.0</ele><time>2026-04-25T17:17:52.008Z</time></trkpt><trkpt lat="43.69576529823213" lon="10.352710284105259"><ele>3.0</ele><time>2026-04-25T17:17:53.008Z</time></trkpt><trkpt lat="43.69549299797273" lon="10.35279139456088"><ele>3.0</ele><time>2026-04-25T17:17:54.007Z</time></trkpt><trkpt lat="43.695216063476266" lon="10.352871628900864"><ele>2.5</ele><time>2026-04-25T17:17:55.007Z</time></trkpt><trkpt lat="43.69493770435318" lon="10.352952521057572"><ele>2.0</ele><time>2026-04-25T17:17:56.007Z</time></trkpt><trkpt lat="43.69465825214785" lon="10.353032981192625"><ele>2.5</ele><time>2026-04-25T17:17:57.007Z</time></trkpt><trkpt lat="43.694378965086166" lon="10.353112894515785"><ele>3.0</ele><time>2026-04-25T17:17:58.007Z</time></trkpt><trkpt lat="43.694104467168984" lon="10.35319174610602"><ele>3.0</ele><time>2026-04-25T17:17:59.007Z</time></trkpt><trkpt lat="43.69382793830226" lon="10.353267569904288"><ele>3.0</ele><time>2026-04-25T17:18:00.007Z</time></trkpt><trkpt lat="43.69355263773566" lon="10.353346760220541"><ele>4.5</ele><time>2026-04-25T17:18:01.007Z</time></trkpt><trkpt lat="43.693279024282724" lon="10.353425486706778"><ele>6.0</ele><time>2026-04-25T17:18:02.007Z</time></trkpt><trkpt lat="43.69300552598117" lon="10.353507198209698"><ele>4.5</ele><time>2026-04-25T17:18:03.007Z</time></trkpt><trkpt lat="43.69273282976353" lon="10.353586139348277"><ele>3.0</ele><time>2026-04-25T17:18:04.007Z</time></trkpt><trkpt lat="43.692462328811786" lon="10.3536601135253"><ele>3.0</ele><time>2026-04-25T17:18:05.007Z</time></trkpt><trkpt lat="43.692195063073996" lon="10.353735239599839"><ele>3.0</ele><time>2026-04-25T17:18:06.007Z</time></trkpt><trkpt lat="43.69192505517054" lon="10.353809193941421"><ele>2.0</ele><time>2026-04-25T17:18:07.007Z</time></trkpt><trkpt lat="43.691652684812524" lon="10.353882790708127"><ele>1.0</ele><time>2026-04-25T17:18:08.007Z</time></trkpt><trkpt lat="43.69138106580297" lon="10.353960872473769"><ele>1.0</ele><time>2026-04-25T17:18:09.007Z</time></trkpt><trkpt lat="43.69110403159106" lon="10.3540375384358"><ele>1.0</ele><time>2026-04-25T17:18:10.007Z</time></trkpt><trkpt lat="43.6908277894494" lon="10.3541109322863"><ele>1.5</ele><time>2026-04-25T17:18:11.007Z</time></trkpt><trkpt lat="43.690547315336175" lon="10.354177221831659"><ele>2.0</ele><time>2026-04-25T17:18:12.007Z</time></trkpt><trkpt lat="43.69026182681026" lon="10.35423371718446"><ele>2.5</ele><time>2026-04-25T17:18:13.007Z</time></trkpt><trkpt lat="43.689973665115566" lon="10.354278087699624"><ele>3.0</ele><time>2026-04-25T17:18:14.007Z</time></trkpt><trkpt lat="43.68968337439337" lon="10.354316417151864"><ele>2.5</ele><time>2026-04-25T17:18:15.007Z</time></trkpt><trkpt lat="43.6893932470651" lon="10.354348065545615"><ele>2.0</ele><time>2026-04-25T17:18:16.007Z</time></trkpt><trkpt lat="43.689103894923385" lon="10.354368396653548"><ele>2.0</ele><time>2026-04-25T17:18:17.007Z</time></trkpt><trkpt lat="43.688813094407415" lon="10.354381497246793"><ele>2.0</ele><time>2026-04-25T17:18:18.007Z</time></trkpt><trkpt lat="43.68852349610779" lon="10.354388705490612"><ele>2.5</ele><time>2026-04-25T17:18:19.007Z</time></trkpt><trkpt lat="43.68823454540074" lon="10.354384014854382"><ele>3.0</ele><time>2026-04-25T17:18:20.007Z</time></trkpt><trkpt lat="43.687946739471414" lon="10.35436875288426"><ele>2.5</ele><time>2026-04-25T17:18:21.007Z</time></trkpt><trkpt lat="43.68765847437969" lon="10.35434530528721"><ele>2.0</ele><time>2026-04-25T17:18:22.007Z</time></trkpt><trkpt lat="43.68737187083887" lon="10.354316057322178"><ele>2.0</ele><time>2026-04-25T17:18:23.007Z</time></trkpt><trkpt lat="43.68708562843106" lon="10.354286850519676"><ele>2.0</ele><time>2026-04-25T17:18:24.007Z</time></trkpt><trkpt lat="43.68679841498966" lon="10.354258030427557"><ele>1.5</ele><time>2026-04-25T17:18:25.007Z</time></trkpt><trkpt lat="43.68651399613825" lon="10.354233875430856"><ele>1.0</ele><time>2026-04-25T17:18:26.007Z</time></trkpt><trkpt lat="43.68623151936927" lon="10.354209163049168"><ele>1.0</ele><time>2026-04-25T17:18:27.007Z</time></trkpt><trkpt lat="43.68594992442515" lon="10.35418487365867"><ele>1.0</ele><time>2026-04-25T17:18:28.007Z</time></trkpt><trkpt lat="43.68566878433858" lon="10.354156521844951"><ele>1.0</ele><time>2026-04-25T17:18:29.007Z</time></trkpt><trkpt lat="43.68539033366226" lon="10.354132551188485"><ele>1.0</ele><time>2026-04-25T17:18:30.007Z</time></trkpt><trkpt lat="43.68511747658686" lon="10.35410911231156"><ele>1.0</ele><time>2026-04-25T17:18:31.007Z</time></trkpt><trkpt lat="43.68485100709778" lon="10.354086586936887"><ele>1.0</ele><time>2026-04-25T17:18:32.007Z</time></trkpt><trkpt lat="43.684586275428515" lon="10.354064700625756"><ele>0.0</ele><time>2026-04-25T17:18:33.007Z</time></trkpt><trkpt lat="43.68432155874121" lon="10.354051331283799"><ele>-1.0</ele><time>2026-04-25T17:18:34.007Z</time></trkpt><trkpt lat="43.684051501950336" lon="10.354031426895531"><ele>-1.0</ele><time>2026-04-25T17:18:35.007Z</time></trkpt><trkpt lat="43.68377553066539" lon="10.35400813440218"><ele>-1.0</ele><time>2026-04-25T17:18:36.007Z</time></trkpt><trkpt lat="43.683493371098535" lon="10.353977721812443"><ele>-1.0</ele><time>2026-04-25T17:18:37.007Z</time></trkpt><trkpt lat="43.683210066548426" lon="10.353950466720562"><ele>-1.0</ele><time>2026-04-25T17:18:38.007Z</time></trkpt><trkpt lat="43.68292680667802" lon="10.35392719957121"><ele>1.0</ele><time>2026-04-25T17:18:39.007Z</time></trkpt><trkpt lat="43.6826463428762" lon="10.353903781881952"><ele>3.0</ele><time>2026-04-25T17:18:40.007Z</time></trkpt><trkpt lat="43.68237361654093" lon="10.353875953995402"><ele>1.5</ele><time>2026-04-25T17:18:41.007Z</time></trkpt><trkpt lat="43.6820968144641" lon="10.353849592247022"><ele>0.0</ele><time>2026-04-25T17:18:42.007Z</time></trkpt><trkpt lat="43.68181969954224" lon="10.353823575908699"><ele>0.0</ele><time>2026-04-25T17:18:43.007Z</time></trkpt><trkpt lat="43.681554535647535" lon="10.353804071330277"><ele>0.0</ele><time>2026-04-25T17:18:44.007Z</time></trkpt><trkpt lat="43.6812824491946" lon="10.353780726635296"><ele>0.0</ele><time>2026-04-25T17:18:45.007Z</time></trkpt><trkpt lat="43.68100967277618" lon="10.353760007762192"><ele>0.0</ele><time>2026-04-25T17:18:46.007Z</time></trkpt><trkpt lat="43.68073805589377" lon="10.353735916692113"><ele>0.0</ele><time>2026-04-25T17:18:47.007Z</time></trkpt><trkpt lat="43.68046283825142" lon="10.353716608119322"><ele>0.0</ele><time>2026-04-25T17:18:48.008Z</time></trkpt><trkpt lat="43.68019277047353" lon="10.353693706724634"><ele>-0.5</ele><time>2026-04-25T17:18:49.008Z</time></trkpt><trkpt lat="43.67991604805751" lon="10.35367014655618"><ele>-1.0</ele><time>2026-04-25T17:18:50.008Z</time></trkpt><trkpt lat="43.67964054619803" lon="10.353647811157167"><ele>-0.5</ele><time>2026-04-25T17:18:51.008Z</time></trkpt><trkpt lat="43.679360414616326" lon="10.353630441234074"><ele>0.0</ele><time>2026-04-25T17:18:52.008Z</time></trkpt><trkpt lat="43.67907821536095" lon="10.353606736552036"><ele>0.0</ele><time>2026-04-25T17:18:53.008Z</time></trkpt><trkpt lat="43.678797223707456" lon="10.35358456580713"><ele>0.0</ele><time>2026-04-25T17:18:54.008Z</time></trkpt><trkpt lat="43.678518697287444" lon="10.353560143275612"><ele>0.0</ele><time>2026-04-25T17:18:55.008Z</time></trkpt><trkpt lat="43.67823858790107" lon="10.353534321309384"><ele>0.0</ele><time>2026-04-25T17:18:56.008Z</time></trkpt><trkpt lat="43.677961865147026" lon="10.353506378584143"><ele>-0.5</ele><time>2026-04-25T17:18:57.008Z</time></trkpt><trkpt lat="43.677688201031124" lon="10.353484095326527"><ele>-1.0</ele><time>2026-04-25T17:18:58.008Z</time></trkpt><trkpt lat="43.67742646757722" lon="10.353461107917049"><ele>-1.0</ele><time>2026-04-25T17:18:59.008Z</time></trkpt><trkpt lat="43.67718056496156" lon="10.353438303170547"><ele>-1.0</ele><time>2026-04-25T17:19:00.007Z</time></trkpt><trkpt lat="43.67692947080749" lon="10.353430814894255"><ele>-1.0</ele><time>2026-04-25T17:19:01.008Z</time></trkpt><trkpt lat="43.67667173253704" lon="10.353437577702518"><ele>-1.0</ele><time>2026-04-25T17:19:02.008Z</time></trkpt><trkpt lat="43.67641520358293" lon="10.353448722106888"><ele>-1.0</ele><time>2026-04-25T17:19:03.008Z</time></trkpt><trkpt lat="43.67615937493741" lon="10.35346787311942"><ele>-1.0</ele><time>2026-04-25T17:19:04.008Z</time></trkpt><trkpt lat="43.67590092945804" lon="10.353501701579694"><ele>-1.0</ele><time>2026-04-25T17:19:05.008Z</time></trkpt><trkpt lat="43.67564087817426" lon="10.353542400364102"><ele>-1.0</ele><time>2026-04-25T17:19:06.008Z</time></trkpt><trkpt lat="43.675382942895055" lon="10.353589581220712"><ele>-1.0</ele><time>2026-04-25T17:19:07.008Z</time></trkpt><trkpt lat="43.67512413222718" lon="10.353650741987423"><ele>-1.0</ele><time>2026-04-25T17:19:08.008Z</time></trkpt><trkpt lat="43.67486326255434" lon="10.353729217035802"><ele>-1.0</ele><time>2026-04-25T17:19:09.008Z</time></trkpt><trkpt lat="43.67459569200683" lon="10.353825452416753"><ele>-1.0</ele><time>2026-04-25T17:19:10.008Z</time></trkpt><trkpt lat="43.674327630565664" lon="10.353926900455818"><ele>3.5</ele><time>2026-04-25T17:19:11.008Z</time></trkpt><trkpt lat="43.67405893040071" lon="10.354040899326321"><ele>8.0</ele><time>2026-04-25T17:19:12.008Z</time></trkpt><trkpt lat="43.67379684882043" lon="10.354163628940277"><ele>9.0</ele><time>2026-04-25T17:19:13.008Z</time></trkpt><trkpt lat="43.673538647838114" lon="10.354304674773488"><ele>10.0</ele><time>2026-04-25T17:19:14.008Z</time></trkpt><trkpt lat="43.67328713262622" lon="10.354441261224721"><ele>10.0</ele><time>2026-04-25T17:19:15.008Z</time></trkpt><trkpt lat="43.67303477848145" lon="10.35459965970637"><ele>10.0</ele><time>2026-04-25T17:19:16.008Z</time></trkpt><trkpt lat="43.67277025026674" lon="10.354752588362455"><ele>6.0</ele><time>2026-04-25T17:19:17.008Z</time></trkpt><trkpt lat="43.67251851063079" lon="10.35493004891892"><ele>2.0</ele><time>2026-04-25T17:19:18.008Z</time></trkpt><trkpt lat="43.672274243458865" lon="10.35511938738975"><ele>2.0</ele><time>2026-04-25T17:19:19.008Z</time></trkpt><trkpt lat="43.67203353270154" lon="10.355322947702552"><ele>2.0</ele><time>2026-04-25T17:19:20.007Z</time></trkpt><trkpt lat="43.67179987383244" lon="10.355533887671719"><ele>0.0</ele><time>2026-04-25T17:19:21.007Z</time></trkpt><trkpt lat="43.67157053392849" lon="10.355754562434237"><ele>-2.0</ele><time>2026-04-25T17:19:22.007Z</time></trkpt><trkpt lat="43.671345733175116" lon="10.355984919088653"><ele>-2.0</ele><time>2026-04-25T17:19:23.007Z</time></trkpt><trkpt lat="43.67113012776585" lon="10.356220104177858"><ele>-2.0</ele><time>2026-04-25T17:19:24.007Z</time></trkpt><trkpt lat="43.67091793871587" lon="10.35645805235776"><ele>-1.0</ele><time>2026-04-25T17:19:25.007Z</time></trkpt><trkpt lat="43.67071049703038" lon="10.356696437955197"><ele>0.0</ele><time>2026-04-25T17:19:26.007Z</time></trkpt><trkpt lat="43.670506097710216" lon="10.356934260004143"><ele>0.0</ele><time>2026-04-25T17:19:27.007Z</time></trkpt><trkpt lat="43.67030747729811" lon="10.357167254615845"><ele>0.0</ele><time>2026-04-25T17:19:28.007Z</time></trkpt><trkpt lat="43.67010885420016" lon="10.357401427595617"><ele>0.5</ele><time>2026-04-25T17:19:29.007Z</time></trkpt><trkpt lat="43.66991066152843" lon="10.35763471454176"><ele>1.0</ele><time>2026-04-25T17:19:30.007Z</time></trkpt><trkpt lat="43.669712655413385" lon="10.357866126286165"><ele>1.5</ele><time>2026-04-25T17:19:31.007Z</time></trkpt><trkpt lat="43.66951605093247" lon="10.358098366274595"><ele>2.0</ele><time>2026-04-25T17:19:32.007Z</time></trkpt><trkpt lat="43.66931798012509" lon="10.358330045690343"><ele>2.0</ele><time>2026-04-25T17:19:33.007Z</time></trkpt><trkpt lat="43.66911845196145" lon="10.3585651034429"><ele>2.0</ele><time>2026-04-25T17:19:34.007Z</time></trkpt><trkpt lat="43.66891756679279" lon="10.35880340097762"><ele>2.5</ele><time>2026-04-25T17:19:35.007Z</time></trkpt><trkpt lat="43.66871446297118" lon="10.35904412431425"><ele>3.0</ele><time>2026-04-25T17:19:36.007Z</time></trkpt><trkpt lat="43.66850864633424" lon="10.359287506808194"><ele>3.0</ele><time>2026-04-25T17:19:37.007Z</time></trkpt><trkpt lat="43.66830048798279" lon="10.359534563463523"><ele>3.0</ele><time>2026-04-25T17:19:38.007Z</time></trkpt><trkpt lat="43.668091230452745" lon="10.359781749125187"><ele>3.5</ele><time>2026-04-25T17:19:39.007Z</time></trkpt><trkpt lat="43.66788212637637" lon="10.360028853551297"><ele>4.0</ele><time>2026-04-25T17:19:40.007Z</time></trkpt><trkpt lat="43.66767071798857" lon="10.36027657418414"><ele>4.0</ele><time>2026-04-25T17:19:41.007Z</time></trkpt><trkpt lat="43.66745947792828" lon="10.360525436069388"><ele>4.0</ele><time>2026-04-25T17:19:42.007Z</time></trkpt><trkpt lat="43.66725025150305" lon="10.360774954564643"><ele>4.0</ele><time>2026-04-25T17:19:43.007Z</time></trkpt><trkpt lat="43.667038975116135" lon="10.361027566748747"><ele>4.0</ele><time>2026-04-25T17:19:44.007Z</time></trkpt><trkpt lat="43.666827414102386" lon="10.361275633225338"><ele>3.5</ele><time>2026-04-25T17:19:45.007Z</time></trkpt><trkpt lat="43.66661109758711" lon="10.361518913987789"><ele>3.0</ele><time>2026-04-25T17:19:46.007Z</time></trkpt><trkpt lat="43.66639834318384" lon="10.361770259237012"><ele>3.0</ele><time>2026-04-25T17:19:47.007Z</time></trkpt><trkpt lat="43.666187805036" lon="10.36202022141522"><ele>3.0</ele><time>2026-04-25T17:19:48.007Z</time></trkpt><trkpt lat="43.66597863823678" lon="10.36226827481237"><ele>3.0</ele><time>2026-04-25T17:19:49.007Z</time></trkpt><trkpt lat="43.66576960841271" lon="10.362518814310501"><ele>3.0</ele><time>2026-04-25T17:19:50.007Z</time></trkpt><trkpt lat="43.66555891225957" lon="10.36276832305654"><ele>3.0</ele><time>2026-04-25T17:19:51.007Z</time></trkpt><trkpt lat="43.665348382380614" lon="10.36302241567428"><ele>3.0</ele><time>2026-04-25T17:19:52.007Z</time></trkpt><trkpt lat="43.66513809717535" lon="10.363271395313042"><ele>4.0</ele><time>2026-04-25T17:19:53.007Z</time></trkpt><trkpt lat="43.6649286772732" lon="10.363516130568284"><ele>5.0</ele><time>2026-04-25T17:19:54.007Z</time></trkpt><trkpt lat="43.66471858386068" lon="10.363763269815545"><ele>4.0</ele><time>2026-04-25T17:19:55.007Z</time></trkpt><trkpt lat="43.66450662052272" lon="10.364012035166976"><ele>3.0</ele><time>2026-04-25T17:19:56.007Z</time></trkpt><trkpt lat="43.66429239738744" lon="10.364264520594727"><ele>3.5</ele><time>2026-04-25T17:19:57.007Z</time></trkpt><trkpt lat="43.66408134165566" lon="10.364515981861018"><ele>4.0</ele><time>2026-04-25T17:19:58.007Z</time></trkpt><trkpt lat="43.66387104569662" lon="10.36476088170206"><ele>4.0</ele><time>2026-04-25T17:19:59.007Z</time></trkpt><trkpt lat="43.66366700363634" lon="10.365005576828374"><ele>4.0</ele><time>2026-04-25T17:20:00.007Z</time></trkpt><trkpt lat="43.66346316761727" lon="10.365247632615864"><ele>4.5</ele><time>2026-04-25T17:20:01.007Z</time></trkpt><trkpt lat="43.66326181839184" lon="10.365484204782398"><ele>5.0</ele><time>2026-04-25T17:20:02.007Z</time></trkpt><trkpt lat="43.66305898380347" lon="10.365720927850308"><ele>5.0</ele><time>2026-04-25T17:20:03.007Z</time></trkpt><trkpt lat="43.66285369429688" lon="10.365961658153816"><ele>5.0</ele><time>2026-04-25T17:20:04.007Z</time></trkpt><trkpt lat="43.662645755271576" lon="10.366205373857488"><ele>4.0</ele><time>2026-04-25T17:20:05.007Z</time></trkpt><trkpt lat="43.66243270137542" lon="10.366440294216602"><ele>3.0</ele><time>2026-04-25T17:20:06.007Z</time></trkpt><trkpt lat="43.66221356419425" lon="10.366667080555871"><ele>3.0</ele><time>2026-04-25T17:20:07.007Z</time></trkpt><trkpt lat="43.661989709767575" lon="10.366886246865299"><ele>3.0</ele><time>2026-04-25T17:20:08.007Z</time></trkpt><trkpt lat="43.66176285433223" lon="10.367099007881526"><ele>3.0</ele><time>2026-04-25T17:20:09.007Z</time></trkpt><trkpt lat="43.66153084463496" lon="10.36730804300617"><ele>3.0</ele><time>2026-04-25T17:20:10.007Z</time></trkpt><trkpt lat="43.6612976552774" lon="10.367513975130898"><ele>3.0</ele><time>2026-04-25T17:20:11.007Z</time></trkpt><trkpt lat="43.661059672905616" lon="10.367714963813546"><ele>3.0</ele><time>2026-04-25T17:20:12.007Z</time></trkpt><trkpt lat="43.66081796629369" lon="10.367908889697468"><ele>2.5</ele><time>2026-04-25T17:20:13.007Z</time></trkpt><trkpt lat="43.66057197118031" lon="10.368092993092722"><ele>2.0</ele><time>2026-04-25T17:20:14.007Z</time></trkpt><trkpt lat="43.660321581269386" lon="10.368272505253652"><ele>2.0</ele><time>2026-04-25T17:20:15.007Z</time></trkpt><trkpt lat="43.660068590691345" lon="10.36844608500896"><ele>2.0</ele><time>2026-04-25T17:20:16.007Z</time></trkpt><trkpt lat="43.65981298772723" lon="10.368611680388412"><ele>2.0</ele><time>2026-04-25T17:20:17.007Z</time></trkpt><trkpt lat="43.65955509276013" lon="10.368770012794423"><ele>2.0</ele><time>2026-04-25T17:20:18.007Z</time></trkpt><trkpt lat="43.65929457134511" lon="10.368924266458803"><ele>0.5</ele><time>2026-04-25T17:20:19.007Z</time></trkpt><trkpt lat="43.659030111661345" lon="10.369068937113074"><ele>-1.0</ele><time>2026-04-25T17:20:20.007Z</time></trkpt><trkpt lat="43.65876281844009" lon="10.369206207440767"><ele>-1.0</ele><time>2026-04-25T17:20:21.007Z</time></trkpt><trkpt lat="43.658493776656435" lon="10.369335245062947"><ele>-1.0</ele><time>2026-04-25T17:20:22.007Z</time></trkpt><trkpt lat="43.6582228777719" lon="10.369456888063862"><ele>-1.0</ele><time>2026-04-25T17:20:23.007Z</time></trkpt><trkpt lat="43.65795040811535" lon="10.369568619455812"><ele>-1.0</ele><time>2026-04-25T17:20:24.007Z</time></trkpt><trkpt lat="43.65767970589371" lon="10.3696701381987"><ele>-1.5</ele><time>2026-04-25T17:20:25.007Z</time></trkpt><trkpt lat="43.657405142711006" lon="10.369761690313185"><ele>-2.0</ele><time>2026-04-25T17:20:26.007Z</time></trkpt><trkpt lat="43.657133917616385" lon="10.36984984534095"><ele>-1.5</ele><time>2026-04-25T17:20:27.007Z</time></trkpt><trkpt lat="43.65685714653033" lon="10.369929289302103"><ele>-1.0</ele><time>2026-04-25T17:20:28.007Z</time></trkpt><trkpt lat="43.65658314333004" lon="10.369999104396445"><ele>-1.0</ele><time>2026-04-25T17:20:29.007Z</time></trkpt><trkpt lat="43.65630790090858" lon="10.37006183401258"><ele>-1.0</ele><time>2026-04-25T17:20:30.007Z</time></trkpt><trkpt lat="43.656032494322" lon="10.370117116008428"><ele>-1.0</ele><time>2026-04-25T17:20:31.007Z</time></trkpt><trkpt lat="43.65575534829021" lon="10.370165616478028"><ele>-1.0</ele><time>2026-04-25T17:20:32.007Z</time></trkpt><trkpt lat="43.65547931412091" lon="10.370206873121566"><ele>-0.5</ele><time>2026-04-25T17:20:33.007Z</time></trkpt><trkpt lat="43.655206306657426" lon="10.37023977479955"><ele>0.0</ele><time>2026-04-25T17:20:34.007Z</time></trkpt><trkpt lat="43.65493632887107" lon="10.370265172671349"><ele>0.0</ele><time>2026-04-25T17:20:35.007Z</time></trkpt><trkpt lat="43.65466283184863" lon="10.370281472092266"><ele>0.0</ele><time>2026-04-25T17:20:36.007Z</time></trkpt><trkpt lat="43.65439088804007" lon="10.370289455000991"><ele>3.5</ele><time>2026-04-25T17:20:37.007Z</time></trkpt><trkpt lat="43.65411687847048" lon="10.370290054400334"><ele>7.0</ele><time>2026-04-25T17:20:38.007Z</time></trkpt><trkpt lat="43.653843270313395" lon="10.370289561077737"><ele>6.0</ele><time>2026-04-25T17:20:39.007Z</time></trkpt><trkpt lat="43.65357166917225" lon="10.370277428376278"><ele>5.0</ele><time>2026-04-25T17:20:40.006Z</time></trkpt><trkpt lat="43.653297130696146" lon="10.370256058514709"><ele>5.0</ele><time>2026-04-25T17:20:41.006Z</time></trkpt><trkpt lat="43.6530216509335" lon="10.370227484320075"><ele>5.0</ele><time>2026-04-25T17:20:42.006Z</time></trkpt><trkpt lat="43.652742498930834" lon="10.370189269921752"><ele>3.5</ele><time>2026-04-25T17:20:43.006Z</time></trkpt><trkpt lat="43.65246353258475" lon="10.370142501048266"><ele>2.0</ele><time>2026-04-25T17:20:44.006Z</time></trkpt><trkpt lat="43.65219028124001" lon="10.370092558300966"><ele>1.5</ele><time>2026-04-25T17:20:45.006Z</time></trkpt><trkpt lat="43.65191364397367" lon="10.370029151400837"><ele>1.0</ele><time>2026-04-25T17:20:46.006Z</time></trkpt><trkpt lat="43.65163416999741" lon="10.369957201261665"><ele>1.0</ele><time>2026-04-25T17:20:47.006Z</time></trkpt><trkpt lat="43.651358670077286" lon="10.369870171364521"><ele>1.0</ele><time>2026-04-25T17:20:48.006Z</time></trkpt><trkpt lat="43.65108624867842" lon="10.369778182195285"><ele>1.0</ele><time>2026-04-25T17:20:49.006Z</time></trkpt><trkpt lat="43.65080581514388" lon="10.369680134521328"><ele>1.0</ele><time>2026-04-25T17:20:50.006Z</time></trkpt><trkpt lat="43.65051595054662" lon="10.369577087468686"><ele>1.0</ele><time>2026-04-25T17:20:51.006Z</time></trkpt><trkpt lat="43.65023755362933" lon="10.369466690767622"><ele>1.0</ele><time>2026-04-25T17:20:52.006Z</time></trkpt><trkpt lat="43.64996275082902" lon="10.369346963342508"><ele>1.0</ele><time>2026-04-25T17:20:53.006Z</time></trkpt><trkpt lat="43.64970026252047" lon="10.369223333742546"><ele>1.0</ele><time>2026-04-25T17:20:54.009Z</time></trkpt><trkpt lat="43.6494404082834" lon="10.369090923959067"><ele>1.0</ele><time>2026-04-25T17:20:55.008Z</time></trkpt><trkpt lat="43.649182030549966" lon="10.36895085733401"><ele>1.0</ele><time>2026-04-25T17:20:56.008Z</time></trkpt><trkpt lat="43.64891984113911" lon="10.368798793199014"><ele>1.5</ele><time>2026-04-25T17:20:57.008Z</time></trkpt><trkpt lat="43.64865490493734" lon="10.368636223610363"><ele>2.0</ele><time>2026-04-25T17:20:58.008Z</time></trkpt><trkpt lat="43.648391135142596" lon="10.368467688824905"><ele>2.5</ele><time>2026-04-25T17:20:59.008Z</time></trkpt><trkpt lat="43.64812534510975" lon="10.368292814302846"><ele>3.0</ele><time>2026-04-25T17:21:00.009Z</time></trkpt><trkpt lat="43.64786864268552" lon="10.368108579788398"><ele>1.0</ele><time>2026-04-25T17:21:01.008Z</time></trkpt><trkpt lat="43.6476156236144" lon="10.367915033191297"><ele>-1.0</ele><time>2026-04-25T17:21:02.008Z</time></trkpt><trkpt lat="43.64736537406844" lon="10.367715003794334"><ele>-1.0</ele><time>2026-04-25T17:21:03.009Z</time></trkpt><trkpt lat="43.647118615650875" lon="10.367508646994139"><ele>-1.0</ele><time>2026-04-25T17:21:04.009Z</time></trkpt><trkpt lat="43.64687622476437" lon="10.367291687036875"><ele>-2.0</ele><time>2026-04-25T17:21:05.009Z</time></trkpt><trkpt lat="43.64663847312287" lon="10.36707289690387"><ele>-3.0</ele><time>2026-04-25T17:21:06.008Z</time></trkpt><trkpt lat="43.646401562370635" lon="10.3668471269798"><ele>-3.0</ele><time>2026-04-25T17:21:07.008Z</time></trkpt><trkpt lat="43.64616568896592" lon="10.366618707961305"><ele>-3.0</ele><time>2026-04-25T17:21:08.008Z</time></trkpt><trkpt lat="43.64592876507224" lon="10.3663939220748"><ele>-2.5</ele><time>2026-04-25T17:21:09.008Z</time></trkpt><trkpt lat="43.64568958961148" lon="10.366168422774768"><ele>-2.0</ele><time>2026-04-25T17:21:10.008Z</time></trkpt><trkpt lat="43.6454525508551" lon="10.36594716706992"><ele>-2.5</ele><time>2026-04-25T17:21:11.008Z</time></trkpt><trkpt lat="43.64521673979925" lon="10.365726541665492"><ele>-3.0</ele><time>2026-04-25T17:21:12.008Z</time></trkpt><trkpt lat="43.644981444015585" lon="10.365504341528661"><ele>-2.0</ele><time>2026-04-25T17:21:13.008Z</time></trkpt><trkpt lat="43.64474779170183" lon="10.365287129060727"><ele>-1.0</ele><time>2026-04-25T17:21:14.008Z</time></trkpt><trkpt lat="43.64451861457386" lon="10.365067053463012"><ele>-1.0</ele><time>2026-04-25T17:21:15.008Z</time></trkpt><trkpt lat="43.64428758855771" lon="10.364846772560258"><ele>-1.0</ele><time>2026-04-25T17:21:16.008Z</time></trkpt><trkpt lat="43.644059181838415" lon="10.364628621960835"><ele>-1.0</ele><time>2026-04-25T17:21:17.008Z</time></trkpt><trkpt lat="43.64382920897445" lon="10.36440494731637"><ele>-1.0</ele><time>2026-04-25T17:21:18.008Z</time></trkpt><trkpt lat="43.64360118649975" lon="10.364189288248337"><ele>-1.5</ele><time>2026-04-25T17:21:19.008Z</time></trkpt><trkpt lat="43.64337175267206" lon="10.363970086186935"><ele>-2.0</ele><time>2026-04-25T17:21:20.008Z</time></trkpt><trkpt lat="43.643142728736564" lon="10.36375238771249"><ele>-2.0</ele><time>2026-04-25T17:21:21.008Z</time></trkpt><trkpt lat="43.64291377605347" lon="10.363530375499813"><ele>-2.0</ele><time>2026-04-25T17:21:22.007Z</time></trkpt><trkpt lat="43.642685755712435" lon="10.363310805266899"><ele>-2.5</ele><time>2026-04-25T17:21:23.007Z</time></trkpt><trkpt lat="43.642455457169525" lon="10.363091646870227"><ele>-3.0</ele><time>2026-04-25T17:21:24.007Z</time></trkpt><trkpt lat="43.64222578630819" lon="10.36287357634819"><ele>-4.0</ele><time>2026-04-25T17:21:25.007Z</time></trkpt><trkpt lat="43.64199630103321" lon="10.362651027083425"><ele>-5.0</ele><time>2026-04-25T17:21:26.007Z</time></trkpt><trkpt lat="43.64176880647577" lon="10.362431042265744"><ele>-3.0</ele><time>2026-04-25T17:21:27.007Z</time></trkpt><trkpt lat="43.64154017321577" lon="10.362211234204283"><ele>-1.0</ele><time>2026-04-25T17:21:28.007Z</time></trkpt><trkpt lat="43.641310542278816" lon="10.361994542682481"><ele>-1.0</ele><time>2026-04-25T17:21:29.007Z</time></trkpt><trkpt lat="43.64108239122909" lon="10.36177585510392"><ele>-1.0</ele><time>2026-04-25T17:21:30.007Z</time></trkpt><trkpt lat="43.640852003688806" lon="10.361559477911108"><ele>-2.5</ele><time>2026-04-25T17:21:31.007Z</time></trkpt><trkpt lat="43.640622551106595" lon="10.36134403198996"><ele>-4.0</ele><time>2026-04-25T17:21:32.007Z</time></trkpt><trkpt lat="43.64039552978694" lon="10.361122090458013"><ele>-3.0</ele><time>2026-04-25T17:21:33.007Z</time></trkpt><trkpt lat="43.64016860445545" lon="10.360905289700725"><ele>-2.0</ele><time>2026-04-25T17:21:34.007Z</time></trkpt><trkpt lat="43.63994214550849" lon="10.360683376233954"><ele>-0.5</ele><time>2026-04-25T17:21:35.007Z</time></trkpt><trkpt lat="43.63971418380726" lon="10.360465426536665"><ele>1.0</ele><time>2026-04-25T17:21:36.007Z</time></trkpt><trkpt lat="43.63948858544652" lon="10.360249123090377"><ele>1.5</ele><time>2026-04-25T17:21:37.007Z</time></trkpt><trkpt lat="43.63926121752067" lon="10.360037623592397"><ele>2.0</ele><time>2026-04-25T17:21:38.007Z</time></trkpt><trkpt lat="43.63903452870152" lon="10.359830790630802"><ele>2.0</ele><time>2026-04-25T17:21:39.007Z</time></trkpt><trkpt lat="43.638808395314626" lon="10.35962698447197"><ele>2.0</ele><time>2026-04-25T17:21:40.007Z</time></trkpt><trkpt lat="43.638578404013266" lon="10.35942752312952"><ele>2.0</ele><time>2026-04-25T17:21:41.007Z</time></trkpt><trkpt lat="43.63834787092975" lon="10.359238174588842"><ele>2.0</ele><time>2026-04-25T17:21:42.007Z</time></trkpt><trkpt lat="43.63810764329165" lon="10.359062856575928"><ele>2.0</ele><time>2026-04-25T17:21:43.007Z</time></trkpt><trkpt lat="43.637862998909974" lon="10.358891382995374"><ele>2.0</ele><time>2026-04-25T17:21:44.007Z</time></trkpt><trkpt lat="43.637615029679765" lon="10.358723416515772"><ele>3.0</ele><time>2026-04-25T17:21:45.007Z</time></trkpt><trkpt lat="43.63736319056732" lon="10.358572814205962"><ele>4.0</ele><time>2026-04-25T17:21:46.007Z</time></trkpt><trkpt lat="43.637108195126274" lon="10.358426916970986"><ele>4.5</ele><time>2026-04-25T17:21:47.007Z</time></trkpt><trkpt lat="43.636852426955635" lon="10.358274974940649"><ele>5.0</ele><time>2026-04-25T17:21:48.007Z</time></trkpt><trkpt lat="43.6365935661651" lon="10.358136020666302"><ele>5.5</ele><time>2026-04-25T17:21:49.007Z</time></trkpt><trkpt lat="43.63633711508115" lon="10.358000798136866"><ele>6.0</ele><time>2026-04-25T17:21:50.007Z</time></trkpt><trkpt lat="43.63608083679429" lon="10.357860510827727"><ele>3.5</ele><time>2026-04-25T17:21:51.007Z</time></trkpt><trkpt lat="43.63582657843786" lon="10.357733457734707"><ele>1.0</ele><time>2026-04-25T17:21:52.007Z</time></trkpt><trkpt lat="43.63557160921804" lon="10.357617086236507"><ele>1.0</ele><time>2026-04-25T17:21:53.007Z</time></trkpt><trkpt lat="43.635311910701894" lon="10.357510264203476"><ele>1.0</ele><time>2026-04-25T17:21:54.007Z</time></trkpt><trkpt lat="43.6350500078274" lon="10.357412801482818"><ele>1.5</ele><time>2026-04-25T17:21:55.007Z</time></trkpt><trkpt lat="43.63478486208391" lon="10.357320748788442"><ele>2.0</ele><time>2026-04-25T17:21:56.007Z</time></trkpt><trkpt lat="43.634516606311635" lon="10.357234733235352"><ele>1.0</ele><time>2026-04-25T17:21:57.007Z</time></trkpt><trkpt lat="43.63424516956442" lon="10.357153262081995"><ele>0.0</ele><time>2026-04-25T17:21:58.007Z</time></trkpt><trkpt lat="43.63397295367392" lon="10.357078653160594"><ele>0.0</ele><time>2026-04-25T17:21:59.007Z</time></trkpt><trkpt lat="43.63370444604" lon="10.357020824429139"><ele>0.0</ele><time>2026-04-25T17:22:00.007Z</time></trkpt><trkpt lat="43.63343642001287" lon="10.35697085269117"><ele>1.5</ele><time>2026-04-25T17:22:01.007Z</time></trkpt><trkpt lat="43.633169695126156" lon="10.356924769221026"><ele>3.0</ele><time>2026-04-25T17:22:02.007Z</time></trkpt><trkpt lat="43.63290298475514" lon="10.356884840689219"><ele>2.5</ele><time>2026-04-25T17:22:03.007Z</time></trkpt><trkpt lat="43.632634876184724" lon="10.356854812290575"><ele>2.0</ele><time>2026-04-25T17:22:04.007Z</time></trkpt><trkpt lat="43.6323653139512" lon="10.3568314541365"><ele>2.0</ele><time>2026-04-25T17:22:05.007Z</time></trkpt><trkpt lat="43.632093529244976" lon="10.356813381122242"><ele>2.0</ele><time>2026-04-25T17:22:06.007Z</time></trkpt><trkpt lat="43.63182468342947" lon="10.356799673258076"><ele>2.0</ele><time>2026-04-25T17:22:07.007Z</time></trkpt><trkpt lat="43.631554835905014" lon="10.356792446424102"><ele>2.0</ele><time>2026-04-25T17:22:08.007Z</time></trkpt><trkpt lat="43.63128678153448" lon="10.35679258052933"><ele>2.0</ele><time>2026-04-25T17:22:09.007Z</time></trkpt><trkpt lat="43.63101720843007" lon="10.356795666770852"><ele>2.0</ele><time>2026-04-25T17:22:10.007Z</time></trkpt><trkpt lat="43.63075116269523" lon="10.356798989622872"><ele>2.0</ele><time>2026-04-25T17:22:11.007Z</time></trkpt><trkpt lat="43.63048111488941" lon="10.356800226110247"><ele>2.0</ele><time>2026-04-25T17:22:12.007Z</time></trkpt><trkpt lat="43.63021010827719" lon="10.356791662574258"><ele>1.0</ele><time>2026-04-25T17:22:13.007Z</time></trkpt><trkpt lat="43.62994291296053" lon="10.356790838201992"><ele>0.0</ele><time>2026-04-25T17:22:14.007Z</time></trkpt><trkpt lat="43.62967726880948" lon="10.356786324195449"><ele>-0.5</ele><time>2026-04-25T17:22:15.007Z</time></trkpt><trkpt lat="43.62941260299026" lon="10.356783668977382"><ele>-1.0</ele><time>2026-04-25T17:22:16.007Z</time></trkpt><trkpt lat="43.62914783955548" lon="10.356780781002614"><ele>-1.0</ele><time>2026-04-25T17:22:17.007Z</time></trkpt><trkpt lat="43.628883416010055" lon="10.356776021493637"><ele>-1.0</ele><time>2026-04-25T17:22:18.007Z</time></trkpt><trkpt lat="43.628611862465235" lon="10.356775817318216"><ele>-1.0</ele><time>2026-04-25T17:22:19.007Z</time></trkpt><trkpt lat="43.62834524648799" lon="10.356778424071525"><ele>-1.0</ele><time>2026-04-25T17:22:20.007Z</time></trkpt><trkpt lat="43.62807741149855" lon="10.356781240046107"><ele>-1.0</ele><time>2026-04-25T17:22:21.007Z</time></trkpt><trkpt lat="43.627810006689856" lon="10.356783326709648"><ele>-1.0</ele><time>2026-04-25T17:22:22.007Z</time></trkpt><trkpt lat="43.62753876247526" lon="10.356778048073693"><ele>-1.0</ele><time>2026-04-25T17:22:23.007Z</time></trkpt><trkpt lat="43.62727170968792" lon="10.356774745863136"><ele>-1.0</ele><time>2026-04-25T17:22:24.007Z</time></trkpt><trkpt lat="43.627004703637866" lon="10.356773686131165"><ele>0.5</ele><time>2026-04-25T17:22:25.007Z</time></trkpt><trkpt lat="43.62673583064221" lon="10.356773067246628"><ele>2.0</ele><time>2026-04-25T17:22:26.007Z</time></trkpt><trkpt lat="43.62646886549732" lon="10.356772188134745"><ele>2.0</ele><time>2026-04-25T17:22:27.007Z</time></trkpt><trkpt lat="43.62619965564199" lon="10.356773695398791"><ele>2.0</ele><time>2026-04-25T17:22:28.007Z</time></trkpt><trkpt lat="43.62593025865916" lon="10.356775795882985"><ele>2.0</ele><time>2026-04-25T17:22:29.007Z</time></trkpt><trkpt lat="43.62565895174294" lon="10.356772950193514"><ele>2.0</ele><time>2026-04-25T17:22:30.007Z</time></trkpt><trkpt lat="43.6253906407753" lon="10.356766517536752"><ele>2.0</ele><time>2026-04-25T17:22:31.007Z</time></trkpt><trkpt lat="43.62512498436327" lon="10.356758130779687"><ele>2.0</ele><time>2026-04-25T17:22:32.007Z</time></trkpt><trkpt lat="43.624860241689866" lon="10.356752955956177"><ele>2.0</ele><time>2026-04-25T17:22:33.007Z</time></trkpt><trkpt lat="43.624597716164445" lon="10.356745917527089"><ele>2.0</ele><time>2026-04-25T17:22:34.007Z</time></trkpt><trkpt lat="43.62433874913627" lon="10.356739438796856"><ele>2.0</ele><time>2026-04-25T17:22:35.007Z</time></trkpt><trkpt lat="43.624083299715" lon="10.356735041609328"><ele>2.0</ele><time>2026-04-25T17:22:36.007Z</time></trkpt><trkpt lat="43.62382878678711" lon="10.35673519271041"><ele>3.5</ele><time>2026-04-25T17:22:37.007Z</time></trkpt><trkpt lat="43.62357462966488" lon="10.356736087130262"><ele>5.0</ele><time>2026-04-25T17:22:38.007Z</time></trkpt><trkpt lat="43.62331907662776" lon="10.356734693852003"><ele>5.0</ele><time>2026-04-25T17:22:39.006Z</time></trkpt><trkpt lat="43.62306388745124" lon="10.356733630198645"><ele>5.0</ele><time>2026-04-25T17:22:40.006Z</time></trkpt><trkpt lat="43.622808017851" lon="10.35673468369798"><ele>5.5</ele><time>2026-04-25T17:22:41.006Z</time></trkpt><trkpt lat="43.62255180773524" lon="10.356735353852844"><ele>6.0</ele><time>2026-04-25T17:22:42.006Z</time></trkpt><trkpt lat="43.622294844445804" lon="10.356735526669329"><ele>6.0</ele><time>2026-04-25T17:22:43.006Z</time></trkpt><trkpt lat="43.62203570519192" lon="10.356735772584072"><ele>6.0</ele><time>2026-04-25T17:22:44.006Z</time></trkpt><trkpt lat="43.6217758248598" lon="10.356727783157341"><ele>6.0</ele><time>2026-04-25T17:22:45.006Z</time></trkpt><trkpt lat="43.62151563618413" lon="10.356727710057498"><ele>6.0</ele><time>2026-04-25T17:22:46.006Z</time></trkpt><trkpt lat="43.62125632232673" lon="10.356729665786064"><ele>5.5</ele><time>2026-04-25T17:22:47.006Z</time></trkpt><trkpt lat="43.620998782391744" lon="10.356725121415446"><ele>5.0</ele><time>2026-04-25T17:22:48.006Z</time></trkpt><trkpt lat="43.620741295475455" lon="10.356722957179331"><ele>5.0</ele><time>2026-04-25T17:22:49.006Z</time></trkpt><trkpt lat="43.620484193492665" lon="10.356719202475768"><ele>5.0</ele><time>2026-04-25T17:22:50.006Z</time></trkpt><trkpt lat="43.62022545871514" lon="10.35671564290881"><ele>4.0</ele><time>2026-04-25T17:22:51.006Z</time></trkpt><trkpt lat="43.619968703546164" lon="10.35671077559706"><ele>3.0</ele><time>2026-04-25T17:22:52.006Z</time></trkpt><trkpt lat="43.61971205235212" lon="10.356706162249283"><ele>4.0</ele><time>2026-04-25T17:22:53.006Z</time></trkpt><trkpt lat="43.61945646998348" lon="10.356700231027943"><ele>5.0</ele><time>2026-04-25T17:22:54.006Z</time></trkpt><trkpt lat="43.61919888347697" lon="10.356695789220458"><ele>5.0</ele><time>2026-04-25T17:22:55.006Z</time></trkpt><trkpt lat="43.6189373111142" lon="10.356691629000256"><ele>5.0</ele><time>2026-04-25T17:22:56.006Z</time></trkpt><trkpt lat="43.61867435557355" lon="10.356687933409965"><ele>5.5</ele><time>2026-04-25T17:22:57.006Z</time></trkpt><trkpt lat="43.618408701671335" lon="10.356690374987274"><ele>6.0</ele><time>2026-04-25T17:22:58.006Z</time></trkpt><trkpt lat="43.618143941267014" lon="10.356688399678687"><ele>6.0</ele><time>2026-04-25T17:22:59.009Z</time></trkpt><trkpt lat="43.61788389401462" lon="10.35668365751984"><ele>6.0</ele><time>2026-04-25T17:23:00.008Z</time></trkpt><trkpt lat="43.61762580662038" lon="10.35668102925984"><ele>5.5</ele><time>2026-04-25T17:23:01.008Z</time></trkpt><trkpt lat="43.61737128016234" lon="10.356680329033011"><ele>5.0</ele><time>2026-04-25T17:23:02.009Z</time></trkpt><trkpt lat="43.61711864970749" lon="10.356684976204912"><ele>2.5</ele><time>2026-04-25T17:23:03.008Z</time></trkpt><trkpt lat="43.61686207514001" lon="10.356689254906046"><ele>0.0</ele><time>2026-04-25T17:23:04.008Z</time></trkpt><trkpt lat="43.616602406937425" lon="10.356697057169262"><ele>0.0</ele><time>2026-04-25T17:23:05.009Z</time></trkpt><trkpt lat="43.616342635035316" lon="10.356706730842573"><ele>0.0</ele><time>2026-04-25T17:23:06.008Z</time></trkpt><trkpt lat="43.61608435473113" lon="10.356721126839508"><ele>0.5</ele><time>2026-04-25T17:23:07.008Z</time></trkpt><trkpt lat="43.615824816301675" lon="10.356742263805335"><ele>1.0</ele><time>2026-04-25T17:23:08.008Z</time></trkpt><trkpt lat="43.61556693448744" lon="10.356766198458837"><ele>3.0</ele><time>2026-04-25T17:23:09.008Z</time></trkpt><trkpt lat="43.61531095427132" lon="10.356789800656413"><ele>5.0</ele><time>2026-04-25T17:23:10.008Z</time></trkpt><trkpt lat="43.615050649686964" lon="10.356807453099105"><ele>5.0</ele><time>2026-04-25T17:23:11.008Z</time></trkpt><trkpt lat="43.61478979188876" lon="10.356815809198222"><ele>5.0</ele><time>2026-04-25T17:23:12.009Z</time></trkpt><trkpt lat="43.614532165386215" lon="10.356818473435984"><ele>5.0</ele><time>2026-04-25T17:23:13.009Z</time></trkpt><trkpt lat="43.614275655907406" lon="10.35681098070572"><ele>5.0</ele><time>2026-04-25T17:23:14.009Z</time></trkpt><trkpt lat="43.61402000372101" lon="10.356797381416273"><ele>5.0</ele><time>2026-04-25T17:23:15.009Z</time></trkpt><trkpt lat="43.613758233406806" lon="10.356780441912449"><ele>5.0</ele><time>2026-04-25T17:23:16.009Z</time></trkpt><trkpt lat="43.61351132757331" lon="10.356747858831278"><ele>4.5</ele><time>2026-04-25T17:23:17.009Z</time></trkpt><trkpt lat="43.61328025400009" lon="10.356718925590993"><ele>4.0</ele><time>2026-04-25T17:23:18.009Z</time></trkpt><trkpt lat="43.613059314598836" lon="10.356688928332376"><ele>4.0</ele><time>2026-04-25T17:23:19.009Z</time></trkpt><trkpt lat="43.61284249663479" lon="10.356672848609639"><ele>4.0</ele><time>2026-04-25T17:23:20.009Z</time></trkpt><trkpt lat="43.61262768218455" lon="10.356668733977916"><ele>4.0</ele><time>2026-04-25T17:23:21.009Z</time></trkpt><trkpt lat="43.61241348698552" lon="10.35666334212485"><ele>3.333333333333333</ele><time>2026-04-25T17:23:22.009Z</time></trkpt><trkpt lat="43.612202239775755" lon="10.356654606792157"><ele>2.6666666666666665</ele><time>2026-04-25T17:23:23.009Z</time></trkpt><trkpt lat="43.61199409451009" lon="10.356647633086494"><ele>2.0</ele><time>2026-04-25T17:23:24.009Z</time></trkpt><trkpt lat="43.611789976896304" lon="10.356639146097148"><ele>1.6666666666666665</ele><time>2026-04-25T17:23:25.009Z</time></trkpt><trkpt lat="43.611592301705436" lon="10.356627065939485"><ele>1.3333333333333333</ele><time>2026-04-25T17:23:26.009Z</time></trkpt><trkpt lat="43.611399660519986" lon="10.356621685584912"><ele>1.0</ele><time>2026-04-25T17:23:27.009Z</time></trkpt><trkpt lat="43.6112153839235" lon="10.356617796476758"><ele>0.0</ele><time>2026-04-25T17:23:28.009Z</time></trkpt><trkpt lat="43.61103856125223" lon="10.356611794835397"><ele>-1.0</ele><time>2026-04-25T17:23:29.009Z</time></trkpt><trkpt lat="43.61087333936467" lon="10.356607387283237"><ele>-2.0</ele><time>2026-04-25T17:23:30.009Z</time></trkpt><trkpt lat="43.61071423949162" lon="10.356589067356605"><ele>-2.0</ele><time>2026-04-25T17:23:31.009Z</time></trkpt><trkpt lat="43.61055823168046" lon="10.356577905221165"><ele>-2.0</ele><time>2026-04-25T17:23:32.009Z</time></trkpt><trkpt lat="43.61040836611859" lon="10.35657680354398"><ele>-2.0</ele><time>2026-04-25T17:23:33.009Z</time></trkpt><trkpt lat="43.61026991451017" lon="10.356580199101588"><ele>-2.0</ele><time>2026-04-25T17:23:34.009Z</time></trkpt><trkpt lat="43.61014922059176" lon="10.356586177770094"><ele>-1.8</ele><time>2026-04-25T17:23:35.009Z</time></trkpt><trkpt lat="43.610047640548636" lon="10.356590826059612"><ele>-1.6</ele><time>2026-04-25T17:23:36.009Z</time></trkpt><trkpt lat="43.60995247004474" lon="10.356595945309927"><ele>-1.4000000000000001</ele><time>2026-04-25T17:23:37.009Z</time></trkpt><trkpt lat="43.60987469783681" lon="10.356601027274063"><ele>-1.2000000000000002</ele><time>2026-04-25T17:23:38.009Z</time></trkpt><trkpt lat="43.60979186880661" lon="10.356604560448623"><ele>-1.0</ele><time>2026-04-25T17:23:40.009Z</time></trkpt><trkpt lat="43.609699043829856" lon="10.356597334407304"><ele>-1.0</ele><time>2026-04-25T17:23:55.008Z</time></trkpt><trkpt lat="43.60957677574516" lon="10.356613815604764"><ele>-1.0</ele><time>2026-04-25T17:23:57.008Z</time></trkpt><trkpt lat="43.60946820077408" lon="10.356625926954004"><ele>-1.0</ele><time>2026-04-25T17:23:59.008Z</time></trkpt><trkpt lat="43.609377324573785" lon="10.356657602298506"><ele>-1.0</ele><time>2026-04-25T17:25:34.009Z</time></trkpt><trkpt lat="43.60930352317985" lon="10.356655576576564"><ele>-1.0</ele><time>2026-04-25T17:25:36.009Z</time></trkpt><trkpt lat="43.60923971564239" lon="10.356643346558156"><ele>1.1102230246251565E-16</ele><time>2026-04-25T17:25:37.009Z</time></trkpt><trkpt lat="43.60915210642474" lon="10.35663694242085"><ele>1.0</ele><time>2026-04-25T17:25:38.009Z</time></trkpt><trkpt lat="43.60907805055789" lon="10.356614685800714"><ele>2.0</ele><time>2026-04-25T17:25:39.009Z</time></trkpt><trkpt lat="43.609012642042636" lon="10.356578716564702"><ele>3.0</ele><time>2026-04-25T17:25:40.009Z</time></trkpt><trkpt lat="43.60894067091978" lon="10.356604231804116"><ele>4.0</ele><time>2026-04-25T17:25:41.009Z</time></trkpt><trkpt lat="43.60885941307997" lon="10.35660804818394"><ele>5.0</ele><time>2026-04-25T17:25:42.009Z</time></trkpt><trkpt lat="43.60877631025826" lon="10.3566119512217"><ele>5.0</ele><time>2026-04-25T17:25:43.009Z</time></trkpt><trkpt lat="43.608700042275224" lon="10.356615533242309"><ele>5.0</ele><time>2026-04-25T17:25:44.009Z</time></trkpt><trkpt lat="43.608628386046654" lon="10.356618898670394"><ele>5.0</ele><time>2026-04-25T17:25:45.009Z</time></trkpt><trkpt lat="43.60851813171047" lon="10.356624076915335"><ele>5.0</ele><time>2026-04-25T17:25:47.009Z</time></trkpt><trkpt lat="43.60844333135504" lon="10.356628480368633"><ele>5.0</ele><time>2026-04-25T17:28:02.009Z</time></trkpt><trkpt lat="43.60835393708835" lon="10.35663230013128"><ele>5.0</ele><time>2026-04-25T17:28:04.009Z</time></trkpt><trkpt lat="43.60821970524141" lon="10.356648968814511"><ele>4.0</ele><time>2026-04-25T17:28:06.009Z</time></trkpt><trkpt lat="43.60813314468559" lon="10.356669598478705"><ele>3.0</ele><time>2026-04-25T17:28:07.009Z</time></trkpt><trkpt lat="43.608038104037995" lon="10.35668579884817"><ele>2.0</ele><time>2026-04-25T17:28:08.009Z</time></trkpt><trkpt lat="43.6079332744113" lon="10.356702897560323"><ele>1.0</ele><time>2026-04-25T17:28:09.009Z</time></trkpt><trkpt lat="43.6078213275353" lon="10.356714681244284"><ele>0.0</ele><time>2026-04-25T17:28:10.009Z</time></trkpt><trkpt lat="43.60769375906335" lon="10.356725169618338"><ele>0.0</ele><time>2026-04-25T17:28:11.009Z</time></trkpt><trkpt lat="43.607561679615046" lon="10.35673305667668"><ele>0.0</ele><time>2026-04-25T17:28:12.009Z</time></trkpt><trkpt lat="43.607420578197356" lon="10.356741133271447"><ele>0.0</ele><time>2026-04-25T17:28:13.009Z</time></trkpt><trkpt lat="43.60727136167068" lon="10.356753133879058"><ele>0.0</ele><time>2026-04-25T17:28:14.009Z</time></trkpt><trkpt lat="43.607113655733265" lon="10.356764651823632"><ele>0.6666666666666666</ele><time>2026-04-25T17:28:15.009Z</time></trkpt><trkpt lat="43.606945617167256" lon="10.35677592844102"><ele>1.3333333333333333</ele><time>2026-04-25T17:28:16.009Z</time></trkpt><trkpt lat="43.606772322668085" lon="10.356788824573327"><ele>2.0</ele><time>2026-04-25T17:28:17.009Z</time></trkpt><trkpt lat="43.606588145908916" lon="10.356796344696996"><ele>2.0</ele><time>2026-04-25T17:28:18.009Z</time></trkpt><trkpt lat="43.60639932198165" lon="10.356802715808314"><ele>2.0</ele><time>2026-04-25T17:28:19.009Z</time></trkpt><trkpt lat="43.606205708078036" lon="10.356813056933087"><ele>2.0</ele><time>2026-04-25T17:28:20.009Z</time></trkpt><trkpt lat="43.60600950185422" lon="10.356826297795847"><ele>1.3333333333333333</ele><time>2026-04-25T17:28:21.009Z</time></trkpt><trkpt lat="43.60580569406564" lon="10.356828472956238"><ele>0.6666666666666666</ele><time>2026-04-25T17:28:22.009Z</time></trkpt><trkpt lat="43.605590208411336" lon="10.356814290549996"><ele>0.0</ele><time>2026-04-25T17:28:23.009Z</time></trkpt><trkpt lat="43.60536607853819" lon="10.356784844396353"><ele>0.3333333333333333</ele><time>2026-04-25T17:28:24.009Z</time></trkpt><trkpt lat="43.60514472189023" lon="10.356749301191938"><ele>0.6666666666666666</ele><time>2026-04-25T17:28:25.009Z</time></trkpt><trkpt lat="43.60492906855517" lon="10.356712187022689"><ele>1.0</ele><time>2026-04-25T17:28:26.009Z</time></trkpt><trkpt lat="43.604734448091456" lon="10.35687607200755"><ele>1.0</ele><time>2026-04-25T17:28:27.009Z</time></trkpt><trkpt lat="43.60454954229781" lon="10.356891118092493"><ele>1.0</ele><time>2026-04-25T17:28:28.009Z</time></trkpt><trkpt lat="43.60434759165396" lon="10.35690783873873"><ele>1.0</ele><time>2026-04-25T17:28:29.008Z</time></trkpt><trkpt lat="43.60415516531779" lon="10.356909826899376"><ele>1.6666666666666665</ele><time>2026-04-25T17:28:30.008Z</time></trkpt><trkpt lat="43.60396208791637" lon="10.35690876268812"><ele>2.3333333333333335</ele><time>2026-04-25T17:28:31.008Z</time></trkpt><trkpt lat="43.603763323129584" lon="10.356939433750718"><ele>3.0</ele><time>2026-04-25T17:28:32.008Z</time></trkpt><trkpt lat="43.603931849993025" lon="10.357022423779535"><ele>3.0</ele><time>2026-04-25T17:28:33.008Z</time></trkpt><trkpt lat="43.60376520320608" lon="10.357037206334665"><ele>3.0</ele><time>2026-04-25T17:28:34.008Z</time></trkpt><trkpt lat="43.603597766824386" lon="10.357048977607958"><ele>3.0</ele><time>2026-04-25T17:28:35.008Z</time></trkpt><trkpt lat="43.60343145889105" lon="10.357060079810568"><ele>3.0</ele><time>2026-04-25T17:28:36.008Z</time></trkpt><trkpt lat="43.603255528879735" lon="10.357080262860036"><ele>3.0</ele><time>2026-04-25T17:28:37.008Z</time></trkpt><trkpt lat="43.60306274019205" lon="10.357113516740904"><ele>3.0</ele><time>2026-04-25T17:28:38.008Z</time></trkpt><trkpt lat="43.602849094182126" lon="10.357141096294251"><ele>1.0</ele><time>2026-04-25T17:28:39.008Z</time></trkpt><trkpt lat="43.60261952653454" lon="10.357161789612967"><ele>-1.0</ele><time>2026-04-25T17:28:40.008Z</time></trkpt><trkpt lat="43.6023770539067" lon="10.357174919407981"><ele>-1.0</ele><time>2026-04-25T17:28:41.008Z</time></trkpt><trkpt lat="43.60212412553245" lon="10.357192041547947"><ele>-1.0</ele><time>2026-04-25T17:28:42.008Z</time></trkpt><trkpt lat="43.601863537436095" lon="10.357216292029195"><ele>0.5</ele><time>2026-04-25T17:28:43.008Z</time></trkpt><trkpt lat="43.601592956371476" lon="10.357237769837228"><ele>2.0</ele><time>2026-04-25T17:28:44.008Z</time></trkpt><trkpt lat="43.60131539304115" lon="10.357260102809963"><ele>-0.5</ele><time>2026-04-25T17:28:45.008Z</time></trkpt><trkpt lat="43.60103307644595" lon="10.35728635811944"><ele>-3.0</ele><time>2026-04-25T17:28:46.008Z</time></trkpt><trkpt lat="43.600748950852726" lon="10.357314816843362"><ele>-3.0</ele><time>2026-04-25T17:28:47.008Z</time></trkpt><trkpt lat="43.600458732249905" lon="10.35733678274096"><ele>-3.0</ele><time>2026-04-25T17:28:48.008Z</time></trkpt><trkpt lat="43.600177855040656" lon="10.35736248420309"><ele>-1.5</ele><time>2026-04-25T17:28:49.008Z</time></trkpt><trkpt lat="43.59990024304593" lon="10.357385057381089"><ele>0.0</ele><time>2026-04-25T17:28:50.008Z</time></trkpt><trkpt lat="43.59962042466513" lon="10.35740312793092"><ele>-0.5</ele><time>2026-04-25T17:28:51.008Z</time></trkpt><trkpt lat="43.59934470142959" lon="10.357418859568693"><ele>-1.0</ele><time>2026-04-25T17:28:52.008Z</time></trkpt><trkpt lat="43.59907311527049" lon="10.357440138767956"><ele>-1.0</ele><time>2026-04-25T17:28:53.008Z</time></trkpt><trkpt lat="43.59880275870684" lon="10.357463611197629"><ele>-1.0</ele><time>2026-04-25T17:28:54.008Z</time></trkpt><trkpt lat="43.59853451076472" lon="10.35748374368518"><ele>1.0</ele><time>2026-04-25T17:28:55.008Z</time></trkpt><trkpt lat="43.59826654458462" lon="10.357507551729068"><ele>3.0</ele><time>2026-04-25T17:28:56.008Z</time></trkpt><trkpt lat="43.598001119642525" lon="10.357528945986175"><ele>3.0</ele><time>2026-04-25T17:28:57.008Z</time></trkpt><trkpt lat="43.59773808253855" lon="10.35755167770788"><ele>3.0</ele><time>2026-04-25T17:28:58.008Z</time></trkpt><trkpt lat="43.59747438309993" lon="10.357572369222277"><ele>3.0</ele><time>2026-04-25T17:28:59.008Z</time></trkpt><trkpt lat="43.59721067863584" lon="10.357593125707346"><ele>3.0</ele><time>2026-04-25T17:29:00.008Z</time></trkpt><trkpt lat="43.596945454461896" lon="10.357615365821228"><ele>2.0</ele><time>2026-04-25T17:29:01.008Z</time></trkpt><trkpt lat="43.59667942485395" lon="10.35763811604436"><ele>1.0</ele><time>2026-04-25T17:29:02.008Z</time></trkpt><trkpt lat="43.59641101944721" lon="10.35766131170232"><ele>1.0</ele><time>2026-04-25T17:29:03.008Z</time></trkpt><trkpt lat="43.596142865538404" lon="10.357686327808013"><ele>1.0</ele><time>2026-04-25T17:29:04.008Z</time></trkpt><trkpt lat="43.5958718427615" lon="10.357710715662684"><ele>1.0</ele><time>2026-04-25T17:29:05.008Z</time></trkpt><trkpt lat="43.59559912261513" lon="10.357734425440228"><ele>1.0</ele><time>2026-04-25T17:29:06.008Z</time></trkpt><trkpt lat="43.59532232087275" lon="10.357756542942141"><ele>2.0</ele><time>2026-04-25T17:29:07.008Z</time></trkpt><trkpt lat="43.5950484570858" lon="10.357784343072828"><ele>3.0</ele><time>2026-04-25T17:29:08.008Z</time></trkpt><trkpt lat="43.59477263170777" lon="10.35782035208454"><ele>2.5</ele><time>2026-04-25T17:29:09.008Z</time></trkpt><trkpt lat="43.59449713036554" lon="10.35785852946937"><ele>2.0</ele><time>2026-04-25T17:29:10.008Z</time></trkpt><trkpt lat="43.594217417301614" lon="10.357887500723397"><ele>2.0</ele><time>2026-04-25T17:29:11.008Z</time></trkpt><trkpt lat="43.5939384255354" lon="10.357911860213026"><ele>2.0</ele><time>2026-04-25T17:29:12.008Z</time></trkpt><trkpt lat="43.59365833726205" lon="10.357929332762481"><ele>3.0</ele><time>2026-04-25T17:29:13.008Z</time></trkpt><trkpt lat="43.59337910553604" lon="10.357949974912206"><ele>4.0</ele><time>2026-04-25T17:29:14.008Z</time></trkpt><trkpt lat="43.59309921951371" lon="10.357972673422804"><ele>7.0</ele><time>2026-04-25T17:29:15.008Z</time></trkpt><trkpt lat="43.5928206788246" lon="10.357993338317304"><ele>10.0</ele><time>2026-04-25T17:29:16.009Z</time></trkpt><trkpt lat="43.59254171198808" lon="10.358009855672972"><ele>10.0</ele><time>2026-04-25T17:29:17.01Z</time></trkpt><trkpt lat="43.5922622757233" lon="10.35801730664306"><ele>10.0</ele><time>2026-04-25T17:29:18.01Z</time></trkpt><trkpt lat="43.5919815304765" lon="10.358031029794729"><ele>9.5</ele><time>2026-04-25T17:29:19.009Z</time></trkpt><trkpt lat="43.59170027060861" lon="10.35804713928301"><ele>9.0</ele><time>2026-04-25T17:29:20.009Z</time></trkpt><trkpt lat="43.59141860014255" lon="10.3580696281494"><ele>10.0</ele><time>2026-04-25T17:29:21.009Z</time></trkpt><trkpt lat="43.591136879487905" lon="10.3580874070296"><ele>11.0</ele><time>2026-04-25T17:29:22.009Z</time></trkpt><trkpt lat="43.59085606075021" lon="10.358099542626833"><ele>11.0</ele><time>2026-04-25T17:29:23.008Z</time></trkpt><trkpt lat="43.59057718190251" lon="10.358103846637475"><ele>11.0</ele><time>2026-04-25T17:29:24.008Z</time></trkpt><trkpt lat="43.59030076765432" lon="10.358096592331874"><ele>11.5</ele><time>2026-04-25T17:29:25.007Z</time></trkpt><trkpt lat="43.59002678466783" lon="10.358081685487125"><ele>12.0</ele><time>2026-04-25T17:29:26.007Z</time></trkpt><trkpt lat="43.589753154213106" lon="10.358057675957951"><ele>11.0</ele><time>2026-04-25T17:29:27.006Z</time></trkpt><trkpt lat="43.58948370223817" lon="10.358035916495774"><ele>10.0</ele><time>2026-04-25T17:29:28.006Z</time></trkpt><trkpt lat="43.58921335643456" lon="10.358005895952134"><ele>10.0</ele><time>2026-04-25T17:29:29.005Z</time></trkpt><trkpt lat="43.588945322137015" lon="10.357973685125634"><ele>10.0</ele><time>2026-04-25T17:29:30.005Z</time></trkpt><trkpt lat="43.58868049507778" lon="10.357937439776636"><ele>11.5</ele><time>2026-04-25T17:29:31.004Z</time></trkpt><trkpt lat="43.58841729269407" lon="10.357896555657206"><ele>13.0</ele><time>2026-04-25T17:29:32.004Z</time></trkpt><trkpt lat="43.588155254232106" lon="10.357851537582157"><ele>13.0</ele><time>2026-04-25T17:29:33.004Z</time></trkpt><trkpt lat="43.58789992549439" lon="10.357807395134772"><ele>13.0</ele><time>2026-04-25T17:29:34.003Z</time></trkpt><trkpt lat="43.58764720420986" lon="10.357751608173672"><ele>11.5</ele><time>2026-04-25T17:29:35.003Z</time></trkpt><trkpt lat="43.587396528764174" lon="10.357694639294886"><ele>10.0</ele><time>2026-04-25T17:29:36.003Z</time></trkpt><trkpt lat="43.587145519788464" lon="10.357639916233028"><ele>9.0</ele><time>2026-04-25T17:29:37.003Z</time></trkpt><trkpt lat="43.58689607092239" lon="10.357587522102753"><ele>8.0</ele><time>2026-04-25T17:29:38.002Z</time></trkpt><trkpt lat="43.58665004949942" lon="10.357538116707218"><ele>8.0</ele><time>2026-04-25T17:29:39.002Z</time></trkpt><trkpt lat="43.58640872039969" lon="10.357488698979537"><ele>8.0</ele><time>2026-04-25T17:29:40.002Z</time></trkpt><trkpt lat="43.586171224070775" lon="10.357439015731591"><ele>8.5</ele><time>2026-04-25T17:29:41.002Z</time></trkpt><trkpt lat="43.58593872991667" lon="10.357390979366267"><ele>9.0</ele><time>2026-04-25T17:29:42.002Z</time></trkpt><trkpt lat="43.5857188367027" lon="10.357347827577982"><ele>9.0</ele><time>2026-04-25T17:29:43.001Z</time></trkpt><trkpt lat="43.58551134165068" lon="10.357302613693866"><ele>9.0</ele><time>2026-04-25T17:29:44.001Z</time></trkpt><trkpt lat="43.58529681585204" lon="10.357254092275921"><ele>9.0</ele><time>2026-04-25T17:29:45.001Z</time></trkpt><trkpt lat="43.585070658156745" lon="10.357207249663277"><ele>9.0</ele><time>2026-04-25T17:29:46.001Z</time></trkpt><trkpt lat="43.58483710583123" lon="10.35716042781596"><ele>9.0</ele><time>2026-04-25T17:29:47.001Z</time></trkpt><trkpt lat="43.584600030251664" lon="10.357102630195245"><ele>9.0</ele><time>2026-04-25T17:29:48.001Z</time></trkpt><trkpt lat="43.58436792926199" lon="10.357045007487242"><ele>9.0</ele><time>2026-04-25T17:29:49Z</time></trkpt><trkpt lat="43.58413406733639" lon="10.356988632032463"><ele>9.0</ele><time>2026-04-25T17:29:50Z</time></trkpt><trkpt lat="43.58390339399242" lon="10.35693462075889"><ele>9.0</ele><time>2026-04-25T17:29:51Z</time></trkpt><trkpt lat="43.58367899459133" lon="10.356860585515939"><ele>8.5</ele><time>2026-04-25T17:29:52Z</time></trkpt><trkpt lat="43.583460823594045" lon="10.356769618461064"><ele>8.0</ele><time>2026-04-25T17:29:53Z</time></trkpt><trkpt lat="43.58324786117362" lon="10.356655283940375"><ele>8.0</ele><time>2026-04-25T17:29:54Z</time></trkpt><trkpt lat="43.58304339097591" lon="10.356522998050444"><ele>8.0</ele><time>2026-04-25T17:29:55Z</time></trkpt><trkpt lat="43.58284876747044" lon="10.3563796463755"><ele>8.0</ele><time>2026-04-25T17:29:56Z</time></trkpt><trkpt lat="43.58266861820845" lon="10.356224329678888"><ele>9.666666666666666</ele><time>2026-04-25T17:29:57Z</time></trkpt><trkpt lat="43.5825109691466" lon="10.356068218490597"><ele>11.333333333333332</ele><time>2026-04-25T17:29:58Z</time></trkpt><trkpt lat="43.582365446481994" lon="10.355893555419788"><ele>13.0</ele><time>2026-04-25T17:29:59Z</time></trkpt><trkpt lat="43.58223364824667" lon="10.355710769601105"><ele>13.0</ele><time>2026-04-25T17:29:59.999Z</time></trkpt><trkpt lat="43.582120111265546" lon="10.355539598200277"><ele>13.0</ele><time>2026-04-25T17:30:00.999Z</time></trkpt><trkpt lat="43.58201415222484" lon="10.355371609832067"><ele>13.0</ele><time>2026-04-25T17:30:01.999Z</time></trkpt><trkpt lat="43.58192503625254" lon="10.355223004776944"><ele>13.8</ele><time>2026-04-25T17:30:02.999Z</time></trkpt><trkpt lat="43.5818469298427" lon="10.355076223133956"><ele>14.600000000000001</ele><time>2026-04-25T17:30:03.999Z</time></trkpt><trkpt lat="43.581796322133016" lon="10.35493797239315"><ele>15.399999999999999</ele><time>2026-04-25T17:30:04.999Z</time></trkpt><trkpt lat="43.58177909123443" lon="10.354797013897725"><ele>16.2</ele><time>2026-04-25T17:30:05.999Z</time></trkpt><trkpt lat="43.58179541494147" lon="10.354658552890456"><ele>17.0</ele><time>2026-04-25T17:30:06.999Z</time></trkpt><trkpt lat="43.581845958459375" lon="10.35452331520189"><ele>17.0</ele><time>2026-04-25T17:30:07.999Z</time></trkpt><trkpt lat="43.58190859550289" lon="10.354404811615654"><ele>17.0</ele><time>2026-04-25T17:30:08.999Z</time></trkpt><trkpt lat="43.58200330110823" lon="10.354309683659897"><ele>17.0</ele><time>2026-04-25T17:30:09.999Z</time></trkpt><trkpt lat="43.58212500158599" lon="10.354249388644314"><ele>17.0</ele><time>2026-04-25T17:30:10.999Z</time></trkpt><trkpt lat="43.58224912912208" lon="10.354235725631051"><ele>16.75</ele><time>2026-04-25T17:30:11.999Z</time></trkpt><trkpt lat="43.582384299603405" lon="10.35426333724248"><ele>16.5</ele><time>2026-04-25T17:30:12.999Z</time></trkpt><trkpt lat="43.582520183503675" lon="10.354293432303429"><ele>16.25</ele><time>2026-04-25T17:30:13.999Z</time></trkpt><trkpt lat="43.58265492883634" lon="10.35433377673752"><ele>16.0</ele><time>2026-04-25T17:30:14.999Z</time></trkpt><trkpt lat="43.58277604569142" lon="10.354403105984519"><ele>15.5</ele><time>2026-04-25T17:30:15.999Z</time></trkpt><trkpt lat="43.58287560852192" lon="10.354524921416306"><ele>15.0</ele><time>2026-04-25T17:30:16.999Z</time></trkpt><trkpt lat="43.582942423966344" lon="10.354683447718074"><ele>14.5</ele><time>2026-04-25T17:30:17.999Z</time></trkpt><trkpt lat="43.58297296577031" lon="10.354851318767688"><ele>14.0</ele><time>2026-04-25T17:30:18.999Z</time></trkpt><trkpt lat="43.58296123438636" lon="10.355024943783198"><ele>13.5</ele><time>2026-04-25T17:30:19.999Z</time></trkpt><trkpt lat="43.58292409796382" lon="10.355209235225042"><ele>13.0</ele><time>2026-04-25T17:30:20.999Z</time></trkpt><trkpt lat="43.58290001177822" lon="10.355396604679989"><ele>12.5</ele><time>2026-04-25T17:30:21.999Z</time></trkpt><trkpt lat="43.58287410173647" lon="10.355609455164362"><ele>12.0</ele><time>2026-04-25T17:30:22.999Z</time></trkpt><trkpt lat="43.58285468987097" lon="10.355827334445152"><ele>12.0</ele><time>2026-04-25T17:30:23.999Z</time></trkpt><trkpt lat="43.58282949837316" lon="10.356053733672319"><ele>12.0</ele><time>2026-04-25T17:30:24.999Z</time></trkpt><trkpt lat="43.58279053799325" lon="10.35629800625656"><ele>12.0</ele><time>2026-04-25T17:30:25.999Z</time></trkpt><trkpt lat="43.58275273314914" lon="10.356552606662031"><ele>12.0</ele><time>2026-04-25T17:30:26.999Z</time></trkpt><trkpt lat="43.58271318207598" lon="10.356805266815794"><ele>12.0</ele><time>2026-04-25T17:30:27.999Z</time></trkpt><trkpt lat="43.58267991682206" lon="10.357069963359027"><ele>12.0</ele><time>2026-04-25T17:30:28.999Z</time></trkpt><trkpt lat="43.582645106036935" lon="10.357320763226758"><ele>12.333333333333332</ele><time>2026-04-25T17:30:29.999Z</time></trkpt><trkpt lat="43.582608822320076" lon="10.357552463833144"><ele>12.666666666666666</ele><time>2026-04-25T17:30:30.999Z</time></trkpt><trkpt lat="43.58259521717815" lon="10.357766833096628"><ele>13.0</ele><time>2026-04-25T17:30:31.999Z</time></trkpt><trkpt lat="43.58260920048141" lon="10.357978849512776"><ele>12.333333333333332</ele><time>2026-04-25T17:30:32.998Z</time></trkpt><trkpt lat="43.58265570522028" lon="10.35817494642724"><ele>11.666666666666666</ele><time>2026-04-25T17:30:33.998Z</time></trkpt><trkpt lat="43.582736632834624" lon="10.358357654648902"><ele>11.0</ele><time>2026-04-25T17:30:34.998Z</time></trkpt><trkpt lat="43.58283202770404" lon="10.35852448035807"><ele>12.0</ele><time>2026-04-25T17:30:35.998Z</time></trkpt><trkpt lat="43.58295259450314" lon="10.358669465984608"><ele>13.0</ele><time>2026-04-25T17:30:36.998Z</time></trkpt><trkpt lat="43.5830900005866" lon="10.35878087447956"><ele>14.0</ele><time>2026-04-25T17:30:37.998Z</time></trkpt><trkpt lat="43.583251443627255" lon="10.358842949388634"><ele>14.0</ele><time>2026-04-25T17:30:38.998Z</time></trkpt><trkpt lat="43.58342186764255" lon="10.35886097834678"><ele>14.0</ele><time>2026-04-25T17:30:39.998Z</time></trkpt><trkpt lat="43.58358236332845" lon="10.358837926039435"><ele>14.0</ele><time>2026-04-25T17:30:40.998Z</time></trkpt><trkpt lat="43.58373629671029" lon="10.358778839496946"><ele>13.5</ele><time>2026-04-25T17:30:41.998Z</time></trkpt><trkpt lat="43.58386039775717" lon="10.358692484345868"><ele>13.0</ele><time>2026-04-25T17:30:42.998Z</time></trkpt><trkpt lat="43.58397275748114" lon="10.358574419915705"><ele>12.5</ele><time>2026-04-25T17:30:43.998Z</time></trkpt><trkpt lat="43.584088525314954" lon="10.358433062169551"><ele>12.0</ele><time>2026-04-25T17:30:44.998Z</time></trkpt><trkpt lat="43.58420098103841" lon="10.358285848044584"><ele>12.0</ele><time>2026-04-25T17:30:45.998Z</time></trkpt><trkpt lat="43.58432334476494" lon="10.358151149191881"><ele>12.0</ele><time>2026-04-25T17:30:46.998Z</time></trkpt><trkpt lat="43.58445959143772" lon="10.358028543189443"><ele>12.0</ele><time>2026-04-25T17:30:47.998Z</time></trkpt><trkpt lat="43.58460251314595" lon="10.357931151631444"><ele>11.75</ele><time>2026-04-25T17:30:48.998Z</time></trkpt><trkpt lat="43.58475253698366" lon="10.357870585159638"><ele>11.5</ele><time>2026-04-25T17:30:49.998Z</time></trkpt><trkpt lat="43.58489597651868" lon="10.357841338988493"><ele>11.25</ele><time>2026-04-25T17:30:50.998Z</time></trkpt><trkpt lat="43.58502750373142" lon="10.357831053329926"><ele>11.0</ele><time>2026-04-25T17:30:51.998Z</time></trkpt><trkpt lat="43.58515090504524" lon="10.357838339260526"><ele>11.0</ele><time>2026-04-25T17:30:52.998Z</time></trkpt><trkpt lat="43.58526546673926" lon="10.3578611775899"><ele>11.0</ele><time>2026-04-25T17:30:53.998Z</time></trkpt><trkpt lat="43.585383262893956" lon="10.357882320954008"><ele>11.0</ele><time>2026-04-25T17:30:54.998Z</time></trkpt><trkpt lat="43.58550536862033" lon="10.357915507889649"><ele>11.0</ele><time>2026-04-25T17:30:55.998Z</time></trkpt><trkpt lat="43.58563421607235" lon="10.357944985344435"><ele>10.5</ele><time>2026-04-25T17:30:56.998Z</time></trkpt><trkpt lat="43.58577197379922" lon="10.357974988283924"><ele>10.0</ele><time>2026-04-25T17:30:57.998Z</time></trkpt><trkpt lat="43.58591287211857" lon="10.358005669129348"><ele>9.5</ele><time>2026-04-25T17:30:58.998Z</time></trkpt><trkpt lat="43.58605988101043" lon="10.3580360892955"><ele>9.0</ele><time>2026-04-25T17:30:59.998Z</time></trkpt><trkpt lat="43.58622000884277" lon="10.358066921403225"><ele>8.666666666666666</ele><time>2026-04-25T17:31:00.998Z</time></trkpt><trkpt lat="43.586390533301945" lon="10.358098865193618"><ele>8.333333333333332</ele><time>2026-04-25T17:31:01.998Z</time></trkpt><trkpt lat="43.586572759880156" lon="10.358141776252012"><ele>8.0</ele><time>2026-04-25T17:31:02.998Z</time></trkpt><trkpt lat="43.58675684707017" lon="10.3581821658555"><ele>8.0</ele><time>2026-04-25T17:31:03.998Z</time></trkpt><trkpt lat="43.586939872224455" lon="10.358219343084606"><ele>8.0</ele><time>2026-04-25T17:31:04.998Z</time></trkpt><trkpt lat="43.58712759390033" lon="10.358250936996413"><ele>8.0</ele><time>2026-04-25T17:31:05.998Z</time></trkpt><trkpt lat="43.58731260963847" lon="10.358286663260463"><ele>8.666666666666666</ele><time>2026-04-25T17:31:06.998Z</time></trkpt><trkpt lat="43.58749325181651" lon="10.358325518898674"><ele>9.333333333333334</ele><time>2026-04-25T17:31:07.998Z</time></trkpt><trkpt lat="43.58767814305138" lon="10.358377523738065"><ele>10.0</ele><time>2026-04-25T17:31:08.998Z</time></trkpt><trkpt lat="43.587863442376566" lon="10.358413247414447"><ele>10.0</ele><time>2026-04-25T17:31:09.998Z</time></trkpt><trkpt lat="43.588047421613666" lon="10.358450533882406"><ele>10.0</ele><time>2026-04-25T17:31:10.998Z</time></trkpt><trkpt lat="43.58823032569839" lon="10.358486681222503"><ele>10.0</ele><time>2026-04-25T17:31:11.998Z</time></trkpt><trkpt lat="43.58841594615672" lon="10.358524321396365"><ele>10.0</ele><time>2026-04-25T17:31:12.998Z</time></trkpt><trkpt lat="43.5885954710177" lon="10.358561484268137"><ele>10.0</ele><time>2026-04-25T17:31:13.998Z</time></trkpt><trkpt lat="43.58876458049348" lon="10.358592700119384"><ele>10.0</ele><time>2026-04-25T17:31:14.998Z</time></trkpt><trkpt lat="43.5889266410194" lon="10.358623844737107"><ele>9.666666666666668</ele><time>2026-04-25T17:31:15.998Z</time></trkpt><trkpt lat="43.58909149271224" lon="10.358653895008208"><ele>9.333333333333334</ele><time>2026-04-25T17:31:16.998Z</time></trkpt><trkpt lat="43.58925786342074" lon="10.358679823871768"><ele>9.0</ele><time>2026-04-25T17:31:17.998Z</time></trkpt><trkpt lat="43.589427934379685" lon="10.358705699721884"><ele>10.0</ele><time>2026-04-25T17:31:18.998Z</time></trkpt><trkpt lat="43.58960421872474" lon="10.358727525609037"><ele>11.0</ele><time>2026-04-25T17:31:19.998Z</time></trkpt><trkpt lat="43.589776157079555" lon="10.358740459446349"><ele>12.0</ele><time>2026-04-25T17:31:21Z</time></trkpt><trkpt lat="43.589947976958626" lon="10.358755063681272"><ele>12.0</ele><time>2026-04-25T17:31:21.999Z</time></trkpt><trkpt lat="43.59011680981226" lon="10.35876630165448"><ele>12.0</ele><time>2026-04-25T17:31:22.999Z</time></trkpt><trkpt lat="43.5902859530719" lon="10.35877343863778"><ele>12.0</ele><time>2026-04-25T17:31:24Z</time></trkpt><trkpt lat="43.590463453172205" lon="10.358775048475005"><ele>11.666666666666666</ele><time>2026-04-25T17:31:25Z</time></trkpt><trkpt lat="43.59065809705594" lon="10.358750295084025"><ele>11.333333333333332</ele><time>2026-04-25T17:31:25.999Z</time></trkpt><trkpt lat="43.59088329290551" lon="10.358749385490524"><ele>11.0</ele><time>2026-04-25T17:31:27Z</time></trkpt><trkpt lat="43.59112091907512" lon="10.358726097630502"><ele>10.0</ele><time>2026-04-25T17:31:27.999Z</time></trkpt><trkpt lat="43.59138832779859" lon="10.358696919382487"><ele>9.0</ele><time>2026-04-25T17:31:28.999Z</time></trkpt><trkpt lat="43.591669785974894" lon="10.358685868675199"><ele>9.0</ele><time>2026-04-25T17:31:30Z</time></trkpt><trkpt lat="43.591965935092674" lon="10.358676150418056"><ele>9.0</ele><time>2026-04-25T17:31:30.999Z</time></trkpt><trkpt lat="43.59226351984366" lon="10.35865500870987"><ele>7.0</ele><time>2026-04-25T17:31:31.999Z</time></trkpt><trkpt lat="43.592559905967896" lon="10.358645790236396"><ele>5.0</ele><time>2026-04-25T17:31:33Z</time></trkpt><trkpt lat="43.592856787327435" lon="10.358643442171966"><ele>5.0</ele><time>2026-04-25T17:31:33.999Z</time></trkpt><trkpt lat="43.59315694537661" lon="10.35864641855344"><ele>5.0</ele><time>2026-04-25T17:31:34.999Z</time></trkpt><trkpt lat="43.59345871040177" lon="10.358659257426398"><ele>3.0</ele><time>2026-04-25T17:31:35.999Z</time></trkpt><trkpt lat="43.59375548679849" lon="10.358671387407082"><ele>1.0</ele><time>2026-04-25T17:31:36.999Z</time></trkpt><trkpt lat="43.5940483296832" lon="10.358689255950939"><ele>1.0</ele><time>2026-04-25T17:31:37.999Z</time></trkpt><trkpt lat="43.59433196810527" lon="10.358718324167533"><ele>1.0</ele><time>2026-04-25T17:31:38.999Z</time></trkpt><trkpt lat="43.59462119531722" lon="10.358744982073905"><ele>0.5</ele><time>2026-04-25T17:31:39.999Z</time></trkpt><trkpt lat="43.59490778110679" lon="10.358772583252962"><ele>0.0</ele><time>2026-04-25T17:31:40.999Z</time></trkpt><trkpt lat="43.59518783180462" lon="10.358809233213162"><ele>0.0</ele><time>2026-04-25T17:31:41.999Z</time></trkpt><trkpt lat="43.59545797969674" lon="10.358853170046663"><ele>0.0</ele><time>2026-04-25T17:31:42.999Z</time></trkpt><trkpt lat="43.59571342963155" lon="10.358892737245533"><ele>0.0</ele><time>2026-04-25T17:31:43.999Z</time></trkpt><trkpt lat="43.59595191616953" lon="10.358940939623716"><ele>0.0</ele><time>2026-04-25T17:31:44.999Z</time></trkpt><trkpt lat="43.59619147831373" lon="10.358993636412961"><ele>1.0</ele><time>2026-04-25T17:31:45.999Z</time></trkpt><trkpt lat="43.596434956433725" lon="10.359052713207056"><ele>2.0</ele><time>2026-04-25T17:31:46.999Z</time></trkpt><trkpt lat="43.59668255084348" lon="10.359121064884057"><ele>2.0</ele><time>2026-04-25T17:31:47.999Z</time></trkpt><trkpt lat="43.5969333114291" lon="10.359196573474732"><ele>2.0</ele><time>2026-04-25T17:31:48.999Z</time></trkpt><trkpt lat="43.59718735935711" lon="10.359279749371684"><ele>1.0</ele><time>2026-04-25T17:31:49.999Z</time></trkpt><trkpt lat="43.597443268323815" lon="10.359375631904959"><ele>0.0</ele><time>2026-04-25T17:31:50.999Z</time></trkpt><trkpt lat="43.597697421349395" lon="10.35948394694102"><ele>0.0</ele><time>2026-04-25T17:31:51.999Z</time></trkpt><trkpt lat="43.59794532442249" lon="10.35960822619811"><ele>0.0</ele><time>2026-04-25T17:31:52.999Z</time></trkpt><trkpt lat="43.59818780428637" lon="10.359745275127734"><ele>0.0</ele><time>2026-04-25T17:31:53.999Z</time></trkpt><trkpt lat="43.59842176858253" lon="10.359901755707988"><ele>0.0</ele><time>2026-04-25T17:31:54.999Z</time></trkpt><trkpt lat="43.59864167762653" lon="10.360076461992286"><ele>0.5</ele><time>2026-04-25T17:31:55.999Z</time></trkpt><trkpt lat="43.5988558121722" lon="10.360273882559069"><ele>1.0</ele><time>2026-04-25T17:31:56.999Z</time></trkpt><trkpt lat="43.599058918668966" lon="10.360486723301362"><ele>2.5</ele><time>2026-04-25T17:31:57.999Z</time></trkpt><trkpt lat="43.59924505147449" lon="10.360719652318755"><ele>4.0</ele><time>2026-04-25T17:31:58.999Z</time></trkpt><trkpt lat="43.59941236230108" lon="10.360962041917432"><ele>3.0</ele><time>2026-04-25T17:31:59.999Z</time></trkpt><trkpt lat="43.59956159866406" lon="10.361199513160104"><ele>2.0</ele><time>2026-04-25T17:32:00.999Z</time></trkpt><trkpt lat="43.59969409624118" lon="10.361431133779359"><ele>1.0</ele><time>2026-04-25T17:32:01.999Z</time></trkpt><trkpt lat="43.599784248260264" lon="10.361644242350794"><ele>1.0</ele><time>2026-04-25T17:32:02.999Z</time></trkpt><trkpt lat="43.59984156662592" lon="10.361846344989072"><ele>1.0</ele><time>2026-04-25T17:32:03.999Z</time></trkpt><trkpt lat="43.5998389659722" lon="10.362049630837575"><ele>1.0</ele><time>2026-04-25T17:32:04.999Z</time></trkpt><trkpt lat="43.59980513377506" lon="10.362246135869293"><ele>1.0</ele><time>2026-04-25T17:32:05.999Z</time></trkpt><trkpt lat="43.59972872131941" lon="10.362417394176466"><ele>1.0</ele><time>2026-04-25T17:32:06.999Z</time></trkpt><trkpt lat="43.59963422265865" lon="10.362561951696938"><ele>1.0</ele><time>2026-04-25T17:32:07.999Z</time></trkpt><trkpt lat="43.59951573340029" lon="10.362668783631497"><ele>1.0</ele><time>2026-04-25T17:32:08.999Z</time></trkpt><trkpt lat="43.599384811385534" lon="10.362733868464446"><ele>1.3333333333333333</ele><time>2026-04-25T17:32:09.999Z</time></trkpt><trkpt lat="43.59923590315692" lon="10.362748618741325"><ele>1.6666666666666665</ele><time>2026-04-25T17:32:10.999Z</time></trkpt><trkpt lat="43.59908048536948" lon="10.362716160046773"><ele>2.0</ele><time>2026-04-25T17:32:11.999Z</time></trkpt><trkpt lat="43.59892409424686" lon="10.362651738567893"><ele>2.0</ele><time>2026-04-25T17:32:12.999Z</time></trkpt><trkpt lat="43.59878224982135" lon="10.362545128883841"><ele>2.0</ele><time>2026-04-25T17:32:13.999Z</time></trkpt><trkpt lat="43.59866009964873" lon="10.36240403742027"><ele>2.0</ele><time>2026-04-25T17:32:14.999Z</time></trkpt><trkpt lat="43.59855229614057" lon="10.362222638248356"><ele>2.333333333333333</ele><time>2026-04-25T17:32:15.999Z</time></trkpt><trkpt lat="43.598491133120206" lon="10.3619760991355"><ele>2.6666666666666665</ele><time>2026-04-25T17:32:16.999Z</time></trkpt><trkpt lat="43.59843498539699" lon="10.361738789408863"><ele>3.0</ele><time>2026-04-25T17:32:17.999Z</time></trkpt><trkpt lat="43.59838451451209" lon="10.361479626887617"><ele>2.0</ele><time>2026-04-25T17:32:18.999Z</time></trkpt><trkpt lat="43.5983388855165" lon="10.361195780633972"><ele>1.0</ele><time>2026-04-25T17:32:19.999Z</time></trkpt><trkpt lat="43.598291402280594" lon="10.360907811354915"><ele>0.0</ele><time>2026-04-25T17:32:20.999Z</time></trkpt><trkpt lat="43.59822919892625" lon="10.36060884951017"><ele>0.0</ele><time>2026-04-25T17:32:21.999Z</time></trkpt><trkpt lat="43.59817476553265" lon="10.36030326629816"><ele>0.0</ele><time>2026-04-25T17:32:22.999Z</time></trkpt><trkpt lat="43.598119183323476" lon="10.359997029191934"><ele>0.3333333333333333</ele><time>2026-04-25T17:32:23.999Z</time></trkpt><trkpt lat="43.59806693419649" lon="10.359683116443778"><ele>0.6666666666666666</ele><time>2026-04-25T17:32:24.999Z</time></trkpt><trkpt lat="43.59801645293388" lon="10.359393047889242"><ele>1.0</ele><time>2026-04-25T17:32:25.999Z</time></trkpt><trkpt lat="43.59796050980596" lon="10.35909072777895"><ele>1.5</ele><time>2026-04-25T17:32:26.999Z</time></trkpt><trkpt lat="43.59790878786713" lon="10.358777224422997"><ele>2.0</ele><time>2026-04-25T17:32:27.999Z</time></trkpt><trkpt lat="43.59785949868687" lon="10.358470985873861"><ele>1.6666666666666665</ele><time>2026-04-25T17:32:28.999Z</time></trkpt><trkpt lat="43.59781024125285" lon="10.358170363510267"><ele>1.3333333333333333</ele><time>2026-04-25T17:32:29.999Z</time></trkpt><trkpt lat="43.59776115098255" lon="10.357889361043188"><ele>1.0</ele><time>2026-04-25T17:32:30.999Z</time></trkpt><trkpt lat="43.59771487895077" lon="10.357624399347461"><ele>1.6666666666666665</ele><time>2026-04-25T17:32:31.999Z</time></trkpt><trkpt lat="43.59766648467302" lon="10.357348274962273"><ele>2.3333333333333335</ele><time>2026-04-25T17:32:32.999Z</time></trkpt><trkpt lat="43.59761205298609" lon="10.357063281048651"><ele>3.0</ele><time>2026-04-25T17:32:33.999Z</time></trkpt><trkpt lat="43.597543093836265" lon="10.356773590021689"><ele>3.0</ele><time>2026-04-25T17:32:34.999Z</time></trkpt><trkpt lat="43.59748323727161" lon="10.356474505631226"><ele>3.0</ele><time>2026-04-25T17:32:35.999Z</time></trkpt><trkpt lat="43.59742180752" lon="10.356173222990567"><ele>1.5</ele><time>2026-04-25T17:32:36.999Z</time></trkpt><trkpt lat="43.597362366027724" lon="10.3558550786035"><ele>0.0</ele><time>2026-04-25T17:32:37.999Z</time></trkpt><trkpt lat="43.597306209749284" lon="10.35553602300176"><ele>-1.0</ele><time>2026-04-25T17:32:38.999Z</time></trkpt><trkpt lat="43.59723668099771" lon="10.355211354387297"><ele>-2.0</ele><time>2026-04-25T17:32:39.998Z</time></trkpt><trkpt lat="43.5971583541618" lon="10.35488099212873"><ele>-1.5</ele><time>2026-04-25T17:32:40.998Z</time></trkpt><trkpt lat="43.59708204940031" lon="10.354552715239416"><ele>-1.0</ele><time>2026-04-25T17:32:41.998Z</time></trkpt><trkpt lat="43.597005191553784" lon="10.354212997788437"><ele>-0.5</ele><time>2026-04-25T17:32:42.998Z</time></trkpt><trkpt lat="43.59693702716445" lon="10.353867430021984"><ele>0.0</ele><time>2026-04-25T17:32:43.998Z</time></trkpt><trkpt lat="43.596866634879675" lon="10.353521778799752"><ele>0.0</ele><time>2026-04-25T17:32:44.998Z</time></trkpt><trkpt lat="43.59680526153962" lon="10.353164392174671"><ele>0.0</ele><time>2026-04-25T17:32:45.998Z</time></trkpt><trkpt lat="43.59674271134503" lon="10.352807997024785"><ele>0.5</ele><time>2026-04-25T17:32:46.998Z</time></trkpt><trkpt lat="43.59668122856476" lon="10.352451478747236"><ele>1.0</ele><time>2026-04-25T17:32:47.998Z</time></trkpt><trkpt lat="43.59663250682937" lon="10.352095747085443"><ele>2.5</ele><time>2026-04-25T17:32:48.998Z</time></trkpt><trkpt lat="43.59658059344878" lon="10.351740470361381"><ele>4.0</ele><time>2026-04-25T17:32:49.998Z</time></trkpt><trkpt lat="43.59651982640325" lon="10.351375087893782"><ele>6.0</ele><time>2026-04-25T17:32:50.998Z</time></trkpt><trkpt lat="43.59646445433102" lon="10.351013327855128"><ele>8.0</ele><time>2026-04-25T17:32:51.998Z</time></trkpt><trkpt lat="43.59641063324681" lon="10.350646187436507"><ele>6.0</ele><time>2026-04-25T17:32:52.998Z</time></trkpt><trkpt lat="43.59634510311162" lon="10.35028304221446"><ele>4.0</ele><time>2026-04-25T17:32:53.998Z</time></trkpt><trkpt lat="43.59627757755019" lon="10.349915564129304"><ele>3.0</ele><time>2026-04-25T17:32:54.998Z</time></trkpt><trkpt lat="43.59620981241661" lon="10.34955417833277"><ele>2.0</ele><time>2026-04-25T17:32:55.998Z</time></trkpt><trkpt lat="43.596134329449924" lon="10.349183438626888"><ele>1.5</ele><time>2026-04-25T17:32:56.998Z</time></trkpt><trkpt lat="43.596052460276084" lon="10.348819577316442"><ele>1.0</ele><time>2026-04-25T17:32:57.998Z</time></trkpt><trkpt lat="43.59596512080714" lon="10.348465219638403"><ele>1.0</ele><time>2026-04-25T17:32:58.998Z</time></trkpt><trkpt lat="43.59586056546527" lon="10.348118267063429"><ele>1.0</ele><time>2026-04-25T17:32:59.998Z</time></trkpt><trkpt lat="43.59575088621613" lon="10.347767063614377"><ele>3.0</ele><time>2026-04-25T17:33:00.998Z</time></trkpt><trkpt lat="43.595637256648594" lon="10.347409597409333"><ele>5.0</ele><time>2026-04-25T17:33:01.998Z</time></trkpt><trkpt lat="43.59554291770373" lon="10.34706033423542"><ele>5.5</ele><time>2026-04-25T17:33:02.998Z</time></trkpt><trkpt lat="43.595441263676356" lon="10.34670932074834"><ele>6.0</ele><time>2026-04-25T17:33:03.998Z</time></trkpt><trkpt lat="43.595340660461765" lon="10.346356758893686"><ele>4.5</ele><time>2026-04-25T17:33:04.998Z</time></trkpt><trkpt lat="43.59523636543887" lon="10.34600407622115"><ele>3.0</ele><time>2026-04-25T17:33:05.998Z</time></trkpt><trkpt lat="43.59512904686936" lon="10.345655210175336"><ele>3.0</ele><time>2026-04-25T17:33:06.998Z</time></trkpt><trkpt lat="43.595022299050015" lon="10.345301608901849"><ele>3.0</ele><time>2026-04-25T17:33:07.998Z</time></trkpt><trkpt lat="43.59491672361399" lon="10.344950916845258"><ele>5.0</ele><time>2026-04-25T17:33:08.998Z</time></trkpt><trkpt lat="43.59481052643779" lon="10.344604064337519"><ele>7.0</ele><time>2026-04-25T17:33:09.998Z</time></trkpt><trkpt lat="43.59470911140065" lon="10.344262655275255"><ele>7.0</ele><time>2026-04-25T17:33:10.998Z</time></trkpt><trkpt lat="43.594607679361474" lon="10.343915542950725"><ele>7.0</ele><time>2026-04-25T17:33:11.998Z</time></trkpt><trkpt lat="43.594506475142" lon="10.343566052986965"><ele>5.0</ele><time>2026-04-25T17:33:12.998Z</time></trkpt><trkpt lat="43.59440832962736" lon="10.343221004405217"><ele>3.0</ele><time>2026-04-25T17:33:13.998Z</time></trkpt><trkpt lat="43.59430793006745" lon="10.342873032863146"><ele>3.0</ele><time>2026-04-25T17:33:14.998Z</time></trkpt><trkpt lat="43.59420663675956" lon="10.342529221839525"><ele>3.0</ele><time>2026-04-25T17:33:15.998Z</time></trkpt><trkpt lat="43.594100576578086" lon="10.342183324248532"><ele>3.0</ele><time>2026-04-25T17:33:16.998Z</time></trkpt><trkpt lat="43.59399448079191" lon="10.341837583015879"><ele>3.0</ele><time>2026-04-25T17:33:17.998Z</time></trkpt><trkpt lat="43.593890593893065" lon="10.341491740192902"><ele>2.5</ele><time>2026-04-25T17:33:18.998Z</time></trkpt><trkpt lat="43.593783941403295" lon="10.34114456624894"><ele>2.0</ele><time>2026-04-25T17:33:19.998Z</time></trkpt><trkpt lat="43.593678638438774" lon="10.340790568432"><ele>3.0</ele><time>2026-04-25T17:33:20.998Z</time></trkpt><trkpt lat="43.59357474420286" lon="10.340444490559372"><ele>4.0</ele><time>2026-04-25T17:33:21.998Z</time></trkpt><trkpt lat="43.59346671344555" lon="10.34009320262752"><ele>4.0</ele><time>2026-04-25T17:33:22.998Z</time></trkpt><trkpt lat="43.593359572366495" lon="10.339737429970107"><ele>4.0</ele><time>2026-04-25T17:33:23.998Z</time></trkpt><trkpt lat="43.59325582277422" lon="10.339383116834723"><ele>5.0</ele><time>2026-04-25T17:33:24.998Z</time></trkpt><trkpt lat="43.593151634808294" lon="10.339031904379198"><ele>6.0</ele><time>2026-04-25T17:33:25.998Z</time></trkpt><trkpt lat="43.59304196178871" lon="10.338675869755544"><ele>6.5</ele><time>2026-04-25T17:33:27Z</time></trkpt><trkpt lat="43.59293629349935" lon="10.338318432359918"><ele>7.0</ele><time>2026-04-25T17:33:27.999Z</time></trkpt><trkpt lat="43.59283051742093" lon="10.337958651844502"><ele>3.5</ele><time>2026-04-25T17:33:28.999Z</time></trkpt><trkpt lat="43.59272731504882" lon="10.337603236950072"><ele>0.0</ele><time>2026-04-25T17:33:30Z</time></trkpt><trkpt lat="43.59262481593493" lon="10.33725001163947"><ele>0.5</ele><time>2026-04-25T17:33:30.999Z</time></trkpt><trkpt lat="43.59252240874906" lon="10.336898953309882"><ele>1.0</ele><time>2026-04-25T17:33:31.999Z</time></trkpt><trkpt lat="43.59241959362511" lon="10.336548979873912"><ele>0.0</ele><time>2026-04-25T17:33:33Z</time></trkpt><trkpt lat="43.592316572525206" lon="10.336200473653626"><ele>-1.0</ele><time>2026-04-25T17:33:34Z</time></trkpt><trkpt lat="43.59221132387493" lon="10.33584951643018"><ele>-1.0</ele><time>2026-04-25T17:33:35Z</time></trkpt><trkpt lat="43.5921051437181" lon="10.335500042195383"><ele>-1.0</ele><time>2026-04-25T17:33:36Z</time></trkpt><trkpt lat="43.59199896866565" lon="10.33515461009823"><ele>-2.0</ele><time>2026-04-25T17:33:36.999Z</time></trkpt><trkpt lat="43.59189933460745" lon="10.334804695016862"><ele>-3.0</ele><time>2026-04-25T17:33:37.999Z</time></trkpt><trkpt lat="43.59179116267948" lon="10.334458479312042"><ele>-3.0</ele><time>2026-04-25T17:33:39Z</time></trkpt><trkpt lat="43.591687106099535" lon="10.334109588671108"><ele>-3.0</ele><time>2026-04-25T17:33:39.999Z</time></trkpt><trkpt lat="43.591583743901424" lon="10.333759976257646"><ele>-3.0</ele><time>2026-04-25T17:33:40.999Z</time></trkpt><trkpt lat="43.59148214327983" lon="10.333411314126538"><ele>-3.0</ele><time>2026-04-25T17:33:41.999Z</time></trkpt><trkpt lat="43.59137897035693" lon="10.333062890419166"><ele>-3.5</ele><time>2026-04-25T17:33:42.999Z</time></trkpt><trkpt lat="43.59127785167807" lon="10.332714014320196"><ele>-4.0</ele><time>2026-04-25T17:33:43.999Z</time></trkpt><trkpt lat="43.59117283640684" lon="10.332366768116984"><ele>-3.5</ele><time>2026-04-25T17:33:44.999Z</time></trkpt><trkpt lat="43.59106740736016" lon="10.332021018461285"><ele>-3.0</ele><time>2026-04-25T17:33:45.999Z</time></trkpt><trkpt lat="43.59096317980925" lon="10.3316795113517"><ele>-2.0</ele><time>2026-04-25T17:33:46.999Z</time></trkpt><trkpt lat="43.59085899273919" lon="10.331333210660294"><ele>-1.0</ele><time>2026-04-25T17:33:47.999Z</time></trkpt><trkpt lat="43.59075888484441" lon="10.330994086555306"><ele>-1.0</ele><time>2026-04-25T17:33:48.999Z</time></trkpt><trkpt lat="43.59065931420094" lon="10.330652063307728"><ele>-1.0</ele><time>2026-04-25T17:33:49.999Z</time></trkpt><trkpt lat="43.590560594283794" lon="10.330313183827814"><ele>-1.5</ele><time>2026-04-25T17:33:50.999Z</time></trkpt><trkpt lat="43.59045839325579" lon="10.329971346708566"><ele>-2.0</ele><time>2026-04-25T17:33:51.999Z</time></trkpt><trkpt lat="43.590356435263715" lon="10.329627310091254"><ele>1.0</ele><time>2026-04-25T17:33:52.999Z</time></trkpt><trkpt lat="43.590254225280304" lon="10.329282787609795"><ele>4.0</ele><time>2026-04-25T17:33:53.999Z</time></trkpt><trkpt lat="43.5901498118123" lon="10.328931438125693"><ele>0.5</ele><time>2026-04-25T17:33:54.999Z</time></trkpt><trkpt lat="43.59004375413111" lon="10.328585048883008"><ele>-3.0</ele><time>2026-04-25T17:33:55.999Z</time></trkpt><trkpt lat="43.58994499042938" lon="10.328249180063048"><ele>-5.0</ele><time>2026-04-25T17:33:56.999Z</time></trkpt><trkpt lat="43.589844830809675" lon="10.327924961920383"><ele>-7.0</ele><time>2026-04-25T17:33:57.999Z</time></trkpt><trkpt lat="43.58974500182845" lon="10.32759972990212"><ele>-7.0</ele><time>2026-04-25T17:33:58.999Z</time></trkpt><trkpt lat="43.589645009959156" lon="10.327280307837635"><ele>-7.0</ele><time>2026-04-25T17:33:59.999Z</time></trkpt><trkpt lat="43.58955585944286" lon="10.32696190642246"><ele>-5.0</ele><time>2026-04-25T17:34:00.999Z</time></trkpt><trkpt lat="43.58946462052541" lon="10.326652751791652"><ele>-3.0</ele><time>2026-04-25T17:34:01.999Z</time></trkpt><trkpt lat="43.58938196509784" lon="10.32635190034285"><ele>-2.0</ele><time>2026-04-25T17:34:02.999Z</time></trkpt><trkpt lat="43.58929820991284" lon="10.326073113056987"><ele>-1.0</ele><time>2026-04-25T17:34:03.999Z</time></trkpt><trkpt lat="43.58922110985545" lon="10.32582193058655"><ele>0.0</ele><time>2026-04-25T17:34:04.999Z</time></trkpt><trkpt lat="43.589145515899155" lon="10.325576272375296"><ele>-0.3333333333333333</ele><time>2026-04-25T17:34:05.999Z</time></trkpt><trkpt lat="43.58907145606398" lon="10.325334467346504"><ele>-0.6666666666666666</ele><time>2026-04-25T17:34:06.999Z</time></trkpt><trkpt lat="43.588996236891205" lon="10.325086066591263"><ele>-1.0</ele><time>2026-04-25T17:34:07.999Z</time></trkpt><trkpt lat="43.58892175887714" lon="10.324825969760541"><ele>-0.3333333333333333</ele><time>2026-04-25T17:34:08.999Z</time></trkpt><trkpt lat="43.58885072687092" lon="10.324572768966734"><ele>0.3333333333333333</ele><time>2026-04-25T17:34:09.999Z</time></trkpt><trkpt lat="43.58877868004537" lon="10.324324542878312"><ele>1.0</ele><time>2026-04-25T17:34:10.999Z</time></trkpt><trkpt lat="43.58870783754356" lon="10.324083126681789"><ele>0.6666666666666666</ele><time>2026-04-25T17:34:11.999Z</time></trkpt><trkpt lat="43.58863446493914" lon="10.32384341918165"><ele>0.3333333333333333</ele><time>2026-04-25T17:34:12.999Z</time></trkpt><trkpt lat="43.58855931423091" lon="10.323600075887494"><ele>0.0</ele><time>2026-04-25T17:34:13.999Z</time></trkpt><trkpt lat="43.58848345669298" lon="10.323364725987348"><ele>0.0</ele><time>2026-04-25T17:34:14.999Z</time></trkpt><trkpt lat="43.588405245581676" lon="10.323110205715617"><ele>0.0</ele><time>2026-04-25T17:34:15.999Z</time></trkpt><trkpt lat="43.58832673413504" lon="10.322840492722316"><ele>0.0</ele><time>2026-04-25T17:34:16.999Z</time></trkpt><trkpt lat="43.58824496721192" lon="10.322575765887606"><ele>0.0</ele><time>2026-04-25T17:34:17.999Z</time></trkpt><trkpt lat="43.5881600952023" lon="10.322304632480302"><ele>0.0</ele><time>2026-04-25T17:34:18.999Z</time></trkpt><trkpt lat="43.58807740783513" lon="10.322035430020694"><ele>0.0</ele><time>2026-04-25T17:34:19.999Z</time></trkpt><trkpt lat="43.587993204482245" lon="10.321761011737888"><ele>0.6666666666666666</ele><time>2026-04-25T17:34:20.999Z</time></trkpt><trkpt lat="43.58790466792499" lon="10.32148541173806"><ele>1.3333333333333333</ele><time>2026-04-25T17:34:21.999Z</time></trkpt><trkpt lat="43.58781704696696" lon="10.321208688429975"><ele>2.0</ele><time>2026-04-25T17:34:22.999Z</time></trkpt><trkpt lat="43.58773148864169" lon="10.320934841478783"><ele>2.0</ele><time>2026-04-25T17:34:23.999Z</time></trkpt><trkpt lat="43.587657158970366" lon="10.320657395016816"><ele>2.0</ele><time>2026-04-25T17:34:24.999Z</time></trkpt><trkpt lat="43.58757211572959" lon="10.320389748161345"><ele>2.0</ele><time>2026-04-25T17:34:25.999Z</time></trkpt><trkpt lat="43.587485912684805" lon="10.320119446916863"><ele>1.6666666666666665</ele><time>2026-04-25T17:34:26.999Z</time></trkpt><trkpt lat="43.58739923747357" lon="10.319847454216953"><ele>1.3333333333333333</ele><time>2026-04-25T17:34:27.999Z</time></trkpt><trkpt lat="43.58730890514071" lon="10.319572280679777"><ele>1.0</ele><time>2026-04-25T17:34:28.999Z</time></trkpt><trkpt lat="43.58722046949794" lon="10.319299542191425"><ele>1.0</ele><time>2026-04-25T17:34:29.999Z</time></trkpt><trkpt lat="43.58712680744466" lon="10.319014724678459"><ele>1.0</ele><time>2026-04-25T17:34:30.999Z</time></trkpt><trkpt lat="43.587025152778445" lon="10.318725436599793"><ele>0.5</ele><time>2026-04-25T17:34:31.999Z</time></trkpt><trkpt lat="43.58692876094343" lon="10.318436768719234"><ele>0.0</ele><time>2026-04-25T17:34:32.999Z</time></trkpt><trkpt lat="43.586830774945575" lon="10.318156847055569"><ele>0.0</ele><time>2026-04-25T17:34:33.999Z</time></trkpt><trkpt lat="43.58672809042317" lon="10.31787042898547"><ele>0.0</ele><time>2026-04-25T17:34:34.999Z</time></trkpt><trkpt lat="43.58662561717325" lon="10.317586991086657"><ele>0.0</ele><time>2026-04-25T17:34:35.999Z</time></trkpt><trkpt lat="43.586515418411295" lon="10.317314538286857"><ele>0.0</ele><time>2026-04-25T17:34:36.999Z</time></trkpt><trkpt lat="43.586406612230114" lon="10.317038920955927"><ele>-0.3333333333333333</ele><time>2026-04-25T17:34:37.999Z</time></trkpt><trkpt lat="43.58630301760067" lon="10.316760409916514"><ele>-0.6666666666666666</ele><time>2026-04-25T17:34:38.999Z</time></trkpt><trkpt lat="43.58620621495952" lon="10.316483491768668"><ele>-1.0</ele><time>2026-04-25T17:34:39.999Z</time></trkpt><trkpt lat="43.586109174820635" lon="10.316203635116826"><ele>-1.0</ele><time>2026-04-25T17:34:40.999Z</time></trkpt><trkpt lat="43.58601116759072" lon="10.315923688889814"><ele>-1.0</ele><time>2026-04-25T17:34:41.999Z</time></trkpt><trkpt lat="43.58591897264655" lon="10.315642261383283"><ele>-1.0</ele><time>2026-04-25T17:34:42.999Z</time></trkpt><trkpt lat="43.585827595161675" lon="10.315358294469698"><ele>-1.0</ele><time>2026-04-25T17:34:43.999Z</time></trkpt><trkpt lat="43.585739768187224" lon="10.315065978589748"><ele>-1.0</ele><time>2026-04-25T17:34:44.999Z</time></trkpt><trkpt lat="43.5856528299022" lon="10.314771187222254"><ele>-0.5</ele><time>2026-04-25T17:34:45.999Z</time></trkpt><trkpt lat="43.58557656095834" lon="10.31446843933996"><ele>0.0</ele><time>2026-04-25T17:34:46.998Z</time></trkpt><trkpt lat="43.585510911776886" lon="10.31416018172961"><ele>-0.5</ele><time>2026-04-25T17:34:47.998Z</time></trkpt><trkpt lat="43.58545272757613" lon="10.313845288131096"><ele>-1.0</ele><time>2026-04-25T17:34:48.998Z</time></trkpt><trkpt lat="43.58539827216907" lon="10.313523507209721"><ele>-1.0</ele><time>2026-04-25T17:34:49.998Z</time></trkpt><trkpt lat="43.58534583983525" lon="10.313203145363698"><ele>-1.0</ele><time>2026-04-25T17:34:50.998Z</time></trkpt><trkpt lat="43.585269601740364" lon="10.312880687728043"><ele>-0.5</ele><time>2026-04-25T17:34:51.998Z</time></trkpt><trkpt lat="43.58521145461208" lon="10.312557290129373"><ele>0.0</ele><time>2026-04-25T17:34:52.998Z</time></trkpt><trkpt lat="43.58514970501439" lon="10.312230143511842"><ele>0.0</ele><time>2026-04-25T17:34:53.998Z</time></trkpt><trkpt lat="43.58508524684565" lon="10.311897054763785"><ele>0.0</ele><time>2026-04-25T17:34:54.998Z</time></trkpt><trkpt lat="43.5850205773151" lon="10.311555483974475"><ele>0.0</ele><time>2026-04-25T17:34:55.998Z</time></trkpt><trkpt lat="43.584959086082215" lon="10.311214017655905"><ele>0.0</ele><time>2026-04-25T17:34:56.998Z</time></trkpt><trkpt lat="43.58489821474583" lon="10.310876773872565"><ele>0.0</ele><time>2026-04-25T17:34:57.998Z</time></trkpt><trkpt lat="43.58483713673499" lon="10.310538043934308"><ele>0.0</ele><time>2026-04-25T17:34:58.998Z</time></trkpt><trkpt lat="43.58478202867884" lon="10.31020799785736"><ele>0.0</ele><time>2026-04-25T17:34:59.998Z</time></trkpt><trkpt lat="43.584718987983074" lon="10.309886689648744"><ele>0.0</ele><time>2026-04-25T17:35:00.998Z</time></trkpt><trkpt lat="43.58465751378144" lon="10.309571741894741"><ele>0.0</ele><time>2026-04-25T17:35:01.998Z</time></trkpt><trkpt lat="43.584600676443735" lon="10.309268066275957"><ele>0.0</ele><time>2026-04-25T17:35:02.998Z</time></trkpt><trkpt lat="43.584531815419005" lon="10.308976674664617"><ele>0.0</ele><time>2026-04-25T17:35:03.998Z</time></trkpt><trkpt lat="43.58445939814313" lon="10.308689974121418"><ele>0.0</ele><time>2026-04-25T17:35:04.998Z</time></trkpt><trkpt lat="43.584367625181976" lon="10.30842321348416"><ele>0.0</ele><time>2026-04-25T17:35:05.998Z</time></trkpt><trkpt lat="43.58426681671852" lon="10.308145253445096"><ele>0.0</ele><time>2026-04-25T17:35:06.998Z</time></trkpt><trkpt lat="43.58416235173749" lon="10.307896676410246"><ele>0.3333333333333333</ele><time>2026-04-25T17:35:07.998Z</time></trkpt><trkpt lat="43.58405563818411" lon="10.307682875710029"><ele>0.6666666666666666</ele><time>2026-04-25T17:35:08.998Z</time></trkpt><trkpt lat="43.583944676172926" lon="10.307485757043917"><ele>1.0</ele><time>2026-04-25T17:35:09.998Z</time></trkpt><trkpt lat="43.583830253070325" lon="10.307312971541785"><ele>0.6666666666666666</ele><time>2026-04-25T17:35:10.998Z</time></trkpt><trkpt lat="43.58371413745797" lon="10.307151499222392"><ele>0.3333333333333333</ele><time>2026-04-25T17:35:11.998Z</time></trkpt><trkpt lat="43.58360573470853" lon="10.306989655073075"><ele>0.0</ele><time>2026-04-25T17:35:12.998Z</time></trkpt><trkpt lat="43.58350105134659" lon="10.30683630454942"><ele>-0.25</ele><time>2026-04-25T17:35:13.998Z</time></trkpt><trkpt lat="43.58340594023676" lon="10.306684275458428"><ele>-0.5</ele><time>2026-04-25T17:35:14.998Z</time></trkpt><trkpt lat="43.58331488443304" lon="10.306531168400236"><ele>-0.75</ele><time>2026-04-25T17:35:15.998Z</time></trkpt><trkpt lat="43.58323719170506" lon="10.306371967214782"><ele>-1.0</ele><time>2026-04-25T17:35:16.998Z</time></trkpt><trkpt lat="43.58318121646392" lon="10.306222002950163"><ele>-1.4</ele><time>2026-04-25T17:35:17.998Z</time></trkpt><trkpt lat="43.583135342315444" lon="10.30608243588634"><ele>-1.8</ele><time>2026-04-25T17:35:18.998Z</time></trkpt><trkpt lat="43.58299662864492" lon="10.306028291589433"><ele>-2.1999999999999997</ele><time>2026-04-25T17:35:19.998Z</time></trkpt><trkpt lat="43.58295275687589" lon="10.305919257085897"><ele>-2.6</ele><time>2026-04-25T17:35:20.998Z</time></trkpt><trkpt lat="43.58290841686753" lon="10.305809058438376"><ele>-3.0</ele><time>2026-04-25T17:35:21.998Z</time></trkpt><trkpt lat="43.582873428226776" lon="10.30569047005242"><ele>-3.2857142857142856</ele><time>2026-04-25T17:35:22.998Z</time></trkpt><trkpt lat="43.582833128045515" lon="10.305592203505842"><ele>-3.571428571428571</ele><time>2026-04-25T17:35:23.998Z</time></trkpt><trkpt lat="43.58282760528976" lon="10.305495797923216"><ele>-3.8571428571428568</ele><time>2026-04-25T17:35:24.998Z</time></trkpt><trkpt lat="43.582823785097304" lon="10.305404094885416"><ele>-4.142857142857142</ele><time>2026-04-25T17:35:25.998Z</time></trkpt><trkpt lat="43.58281988301686" lon="10.305316471224877"><ele>-4.428571428571429</ele><time>2026-04-25T17:35:26.998Z</time></trkpt><trkpt lat="43.582809710763904" lon="10.305223045310074"><ele>-4.714285714285714</ele><time>2026-04-25T17:35:27.998Z</time></trkpt><trkpt lat="43.58279793569179" lon="10.305127180506364"><ele>-5.0</ele><time>2026-04-25T17:35:28.998Z</time></trkpt><trkpt lat="43.58279421683335" lon="10.304979668168073"><ele>-4.2</ele><time>2026-04-25T17:35:30.998Z</time></trkpt><trkpt lat="43.58278706337098" lon="10.30485291614103"><ele>-3.4</ele><time>2026-04-25T17:35:33Z</time></trkpt><trkpt lat="43.58277537030975" lon="10.304711794036017"><ele>-2.6</ele><time>2026-04-25T17:35:35Z</time></trkpt><trkpt lat="43.5827751776357" lon="10.304560584724118"><ele>-1.8</ele><time>2026-04-25T17:35:36.999Z</time></trkpt><trkpt lat="43.58277284411981" lon="10.30445405088645"><ele>-1.0</ele><time>2026-04-25T17:35:39Z</time></trkpt><trkpt lat="43.5827631364729" lon="10.304359429788626"><ele>-0.8</ele><time>2026-04-25T17:35:40.999Z</time></trkpt><trkpt lat="43.582760141892805" lon="10.304245464283417"><ele>-0.6000000000000001</ele><time>2026-04-25T17:35:42.999Z</time></trkpt><trkpt lat="43.582761449710446" lon="10.304097778392462"><ele>-0.4</ele><time>2026-04-25T17:35:45Z</time></trkpt><trkpt lat="43.58277543809131" lon="10.303926084553023"><ele>-0.2</ele><time>2026-04-25T17:35:46.999Z</time></trkpt><trkpt lat="43.5827855743812" lon="10.303830743411714"><ele>0.0</ele><time>2026-04-25T17:35:47.999Z</time></trkpt><trkpt lat="43.58278985138632" lon="10.303730020611763"><ele>0.4</ele><time>2026-04-25T17:35:48.999Z</time></trkpt><trkpt lat="43.582796646532714" lon="10.303617918568778"><ele>0.8</ele><time>2026-04-25T17:35:49.999Z</time></trkpt><trkpt lat="43.582791540382175" lon="10.303491899521912"><ele>1.2000000000000002</ele><time>2026-04-25T17:35:50.999Z</time></trkpt><trkpt lat="43.582773144813046" lon="10.303358796038015"><ele>1.6</ele><time>2026-04-25T17:35:51.999Z</time></trkpt><trkpt lat="43.58275425787235" lon="10.303219208821913"><ele>2.0</ele><time>2026-04-25T17:35:52.999Z</time></trkpt><trkpt lat="43.58273222690954" lon="10.30308430957791"><ele>1.75</ele><time>2026-04-25T17:35:53.999Z</time></trkpt><trkpt lat="43.582694652936524" lon="10.302945494921607"><ele>1.5</ele><time>2026-04-25T17:35:54.999Z</time></trkpt><trkpt lat="43.58265163627986" lon="10.30280586028842"><ele>1.25</ele><time>2026-04-25T17:35:55.999Z</time></trkpt><trkpt lat="43.582596323593805" lon="10.302670698193491"><ele>1.0</ele><time>2026-04-25T17:35:56.999Z</time></trkpt><trkpt lat="43.58252688589579" lon="10.30253398758792"><ele>1.0</ele><time>2026-04-25T17:35:57.999Z</time></trkpt><trkpt lat="43.58245111653787" lon="10.30240427341683"><ele>1.0</ele><time>2026-04-25T17:35:58.999Z</time></trkpt><trkpt lat="43.58237440615324" lon="10.302281784909697"><ele>1.0</ele><time>2026-04-25T17:35:59.999Z</time></trkpt><trkpt lat="43.58228963724537" lon="10.302158784482721"><ele>1.0</ele><time>2026-04-25T17:36:00.999Z</time></trkpt><trkpt lat="43.58221562192827" lon="10.30203455635013"><ele>0.9999999999999999</ele><time>2026-04-25T17:36:01.999Z</time></trkpt><trkpt lat="43.58217346250114" lon="10.30192566608571"><ele>1.0</ele><time>2026-04-25T17:36:02.999Z</time></trkpt><trkpt lat="43.58211711690472" lon="10.301830159902302"><ele>1.0</ele><time>2026-04-25T17:36:04.999Z</time></trkpt><trkpt lat="43.582060187477765" lon="10.301777753985077"><ele>1.0</ele><time>2026-04-25T17:38:02.999Z</time></trkpt><trkpt lat="43.58203906795931" lon="10.301880321057343"><ele>0.9999999999999999</ele><time>2026-04-25T17:38:05.999Z</time></trkpt><trkpt lat="43.582111520797575" lon="10.301973814161475"><ele>1.0</ele><time>2026-04-25T17:38:07.999Z</time></trkpt><trkpt lat="43.582147282187556" lon="10.302048836482784"><ele>0.9999999999999999</ele><time>2026-04-25T17:38:08.999Z</time></trkpt><trkpt lat="43.58219208368804" lon="10.302115864263195"><ele>1.0</ele><time>2026-04-25T17:38:09.999Z</time></trkpt><trkpt lat="43.58224258567548" lon="10.302187647041245"><ele>1.0</ele><time>2026-04-25T17:38:10.999Z</time></trkpt><trkpt lat="43.582301782922" lon="10.302261056717429"><ele>1.0</ele><time>2026-04-25T17:38:11.999Z</time></trkpt><trkpt lat="43.58236257316495" lon="10.302343416937838"><ele>0.9999999999999999</ele><time>2026-04-25T17:38:12.999Z</time></trkpt><trkpt lat="43.58242095286416" lon="10.302442518014535"><ele>1.0</ele><time>2026-04-25T17:38:13.999Z</time></trkpt><trkpt lat="43.582486701632895" lon="10.302540022720203"><ele>1.0</ele><time>2026-04-25T17:38:14.999Z</time></trkpt><trkpt lat="43.582545843766354" lon="10.302644711372743"><ele>1.0</ele><time>2026-04-25T17:38:15.999Z</time></trkpt><trkpt lat="43.582599233757925" lon="10.30275114199008"><ele>1.0</ele><time>2026-04-25T17:38:16.999Z</time></trkpt><trkpt lat="43.582650372881425" lon="10.302863200090998"><ele>1.0</ele><time>2026-04-25T17:38:17.999Z</time></trkpt><trkpt lat="43.58269483437927" lon="10.302975645885562"><ele>1.0</ele><time>2026-04-25T17:38:18.999Z</time></trkpt><trkpt lat="43.58272599535024" lon="10.303072194520187"><ele>1.1666666666666665</ele><time>2026-04-25T17:38:19.999Z</time></trkpt><trkpt lat="43.58276745136763" lon="10.30322568649514"><ele>1.3333333333333333</ele><time>2026-04-25T17:38:21.999Z</time></trkpt><trkpt lat="43.582785858365796" lon="10.303314731560544"><ele>1.5</ele><time>2026-04-25T17:38:22.999Z</time></trkpt><trkpt lat="43.582798561386895" lon="10.303410049768798"><ele>1.6666666666666665</ele><time>2026-04-25T17:38:23.999Z</time></trkpt><trkpt lat="43.5828102350801" lon="10.303513590493177"><ele>1.8333333333333333</ele><time>2026-04-25T17:38:24.999Z</time></trkpt><trkpt lat="43.58280983013746" lon="10.303618095360534"><ele>2.0</ele><time>2026-04-25T17:38:25.999Z</time></trkpt><trkpt lat="43.58280463821578" lon="10.303725559373873"><ele>1.9999999999999998</ele><time>2026-04-25T17:38:26.999Z</time></trkpt><trkpt lat="43.582792912561096" lon="10.30383108105276"><ele>2.0</ele><time>2026-04-25T17:38:27.999Z</time></trkpt><trkpt lat="43.58278191459161" lon="10.303917510675571"><ele>2.0</ele><time>2026-04-25T17:38:28.999Z</time></trkpt><trkpt lat="43.58276574242798" lon="10.304040935303975"><ele>2.0</ele><time>2026-04-25T17:38:30.999Z</time></trkpt><trkpt lat="43.58274135118547" lon="10.304137510485061"><ele>1.9999999999999998</ele><time>2026-04-25T17:39:54Z</time></trkpt><trkpt lat="43.58269126574479" lon="10.30424889274893"><ele>2.0</ele><time>2026-04-25T17:40:25.999Z</time></trkpt><trkpt lat="43.58261152884688" lon="10.304203852827266"><ele>2.0</ele><time>2026-04-25T17:40:28.999Z</time></trkpt><trkpt lat="43.5825343672505" lon="10.30413704406149"><ele>2.0</ele><time>2026-04-25T17:40:30.999Z</time></trkpt><trkpt lat="43.58247230776284" lon="10.304082220587846"><ele>2.0</ele><time>2026-04-25T17:40:32.999Z</time></trkpt><trkpt lat="43.58241696020747" lon="10.303960731054545"><ele>2.0</ele><time>2026-04-25T17:40:34.999Z</time></trkpt><trkpt lat="43.5824007900917" lon="10.303797946092581"><ele>2.0</ele><time>2026-04-25T17:40:36.999Z</time></trkpt><trkpt lat="43.582358819405755" lon="10.303646974575862"><ele>2.0</ele><time>2026-04-25T17:40:38.999Z</time></trkpt><trkpt lat="43.58234467025236" lon="10.303519433572152"><ele>2.0</ele><time>2026-04-25T17:40:40.999Z</time></trkpt><trkpt lat="43.58230338145372" lon="10.303375338661978"><ele>2.0</ele><time>2026-04-25T17:40:42.999Z</time></trkpt><trkpt lat="43.582251294297954" lon="10.303259775526948"><ele>2.0</ele><time>2026-04-25T17:40:44.999Z</time></trkpt><trkpt lat="43.582207689724" lon="10.303184119789362"><ele>2.0</ele><time>2026-04-25T17:40:46.999Z</time></trkpt><trkpt lat="43.58213802155307" lon="10.303397776797752"><ele>2.0</ele><time>2026-04-25T17:41:04.999Z</time></trkpt></trkseg></trk></gpx>